<?xml version="1.0" encoding="UTF-8"?>
<gpx xmlns="http://www.topografix.com/GPX/1/1"
     creator="GpsDumpMac 0.29"
     version="1.1"
     xmlns:xsi="http://www.w3.org/2001/XMLSchema-instance"
     xsi:schemaLocation="http://www.topografix.com/GPX/1/1 http://www.topografix.com/GPX/1/1/gpx.xsd">
  <metadata>
    <link href="http://www.gethome.no/stein.sorensen/">
      <text>GPS dump for www.flightlog.org</text>
    </link>
    <time>2018-09-04T07:40:19Z</time>
    <bounds minlat="40.421717" minlon="-5.301883" maxlat="40.665300" maxlon="-4.947133"/>
  </metadata>
  <trk>
    <name>Track 001</name>
    <trkseg>
      <trkpt lat="40.421717" lon="-5.301683">
        <ele>1918.0</ele>
        <time>2018-09-01T12:05:11Z</time>
      </trkpt>
      <trkpt lat="40.421783" lon="-5.301717">
        <ele>1918.0</ele>
        <time>2018-09-01T12:05:12Z</time>
      </trkpt>
      <trkpt lat="40.421833" lon="-5.301767">
        <ele>1919.0</ele>
        <time>2018-09-01T12:05:13Z</time>
      </trkpt>
      <trkpt lat="40.421883" lon="-5.301800">
        <ele>1920.0</ele>
        <time>2018-09-01T12:05:14Z</time>
      </trkpt>
      <trkpt lat="40.421917" lon="-5.301833">
        <ele>1919.0</ele>
        <time>2018-09-01T12:05:15Z</time>
      </trkpt>
      <trkpt lat="40.421967" lon="-5.301850">
        <ele>1919.0</ele>
        <time>2018-09-01T12:05:16Z</time>
      </trkpt>
      <trkpt lat="40.422033" lon="-5.301867">
        <ele>1917.0</ele>
        <time>2018-09-01T12:05:17Z</time>
      </trkpt>
      <trkpt lat="40.422100" lon="-5.301883">
        <ele>1915.0</ele>
        <time>2018-09-01T12:05:18Z</time>
      </trkpt>
      <trkpt lat="40.422183" lon="-5.301883">
        <ele>1915.0</ele>
        <time>2018-09-01T12:05:19Z</time>
      </trkpt>
      <trkpt lat="40.422267" lon="-5.301867">
        <ele>1916.0</ele>
        <time>2018-09-01T12:05:20Z</time>
      </trkpt>
      <trkpt lat="40.422317" lon="-5.301833">
        <ele>1918.0</ele>
        <time>2018-09-01T12:05:21Z</time>
      </trkpt>
      <trkpt lat="40.422383" lon="-5.301800">
        <ele>1918.0</ele>
        <time>2018-09-01T12:05:22Z</time>
      </trkpt>
      <trkpt lat="40.422433" lon="-5.301750">
        <ele>1918.0</ele>
        <time>2018-09-01T12:05:23Z</time>
      </trkpt>
      <trkpt lat="40.422483" lon="-5.301683">
        <ele>1917.0</ele>
        <time>2018-09-01T12:05:24Z</time>
      </trkpt>
      <trkpt lat="40.422533" lon="-5.301600">
        <ele>1916.0</ele>
        <time>2018-09-01T12:05:25Z</time>
      </trkpt>
      <trkpt lat="40.422600" lon="-5.301483">
        <ele>1915.0</ele>
        <time>2018-09-01T12:05:26Z</time>
      </trkpt>
      <trkpt lat="40.422650" lon="-5.301367">
        <ele>1915.0</ele>
        <time>2018-09-01T12:05:27Z</time>
      </trkpt>
      <trkpt lat="40.422683" lon="-5.301250">
        <ele>1915.0</ele>
        <time>2018-09-01T12:05:28Z</time>
      </trkpt>
      <trkpt lat="40.422733" lon="-5.301133">
        <ele>1916.0</ele>
        <time>2018-09-01T12:05:29Z</time>
      </trkpt>
      <trkpt lat="40.422783" lon="-5.301017">
        <ele>1918.0</ele>
        <time>2018-09-01T12:05:30Z</time>
      </trkpt>
      <trkpt lat="40.422817" lon="-5.300933">
        <ele>1919.0</ele>
        <time>2018-09-01T12:05:31Z</time>
      </trkpt>
      <trkpt lat="40.422850" lon="-5.300850">
        <ele>1919.0</ele>
        <time>2018-09-01T12:05:32Z</time>
      </trkpt>
      <trkpt lat="40.422900" lon="-5.300783">
        <ele>1918.0</ele>
        <time>2018-09-01T12:05:33Z</time>
      </trkpt>
      <trkpt lat="40.422950" lon="-5.300750">
        <ele>1918.0</ele>
        <time>2018-09-01T12:05:34Z</time>
      </trkpt>
      <trkpt lat="40.423000" lon="-5.300733">
        <ele>1917.0</ele>
        <time>2018-09-01T12:05:35Z</time>
      </trkpt>
      <trkpt lat="40.423067" lon="-5.300717">
        <ele>1916.0</ele>
        <time>2018-09-01T12:05:36Z</time>
      </trkpt>
      <trkpt lat="40.423117" lon="-5.300717">
        <ele>1916.0</ele>
        <time>2018-09-01T12:05:37Z</time>
      </trkpt>
      <trkpt lat="40.423183" lon="-5.300700">
        <ele>1916.0</ele>
        <time>2018-09-01T12:05:38Z</time>
      </trkpt>
      <trkpt lat="40.423233" lon="-5.300683">
        <ele>1917.0</ele>
        <time>2018-09-01T12:05:39Z</time>
      </trkpt>
      <trkpt lat="40.423283" lon="-5.300667">
        <ele>1919.0</ele>
        <time>2018-09-01T12:05:40Z</time>
      </trkpt>
      <trkpt lat="40.423333" lon="-5.300683">
        <ele>1920.0</ele>
        <time>2018-09-01T12:05:41Z</time>
      </trkpt>
      <trkpt lat="40.423383" lon="-5.300683">
        <ele>1921.0</ele>
        <time>2018-09-01T12:05:42Z</time>
      </trkpt>
      <trkpt lat="40.423433" lon="-5.300683">
        <ele>1923.0</ele>
        <time>2018-09-01T12:05:43Z</time>
      </trkpt>
      <trkpt lat="40.423467" lon="-5.300683">
        <ele>1925.0</ele>
        <time>2018-09-01T12:05:44Z</time>
      </trkpt>
      <trkpt lat="40.423517" lon="-5.300667">
        <ele>1927.0</ele>
        <time>2018-09-01T12:05:45Z</time>
      </trkpt>
      <trkpt lat="40.423550" lon="-5.300633">
        <ele>1927.0</ele>
        <time>2018-09-01T12:05:46Z</time>
      </trkpt>
      <trkpt lat="40.423583" lon="-5.300583">
        <ele>1927.0</ele>
        <time>2018-09-01T12:05:47Z</time>
      </trkpt>
      <trkpt lat="40.423617" lon="-5.300517">
        <ele>1925.0</ele>
        <time>2018-09-01T12:05:48Z</time>
      </trkpt>
      <trkpt lat="40.423667" lon="-5.300433">
        <ele>1924.0</ele>
        <time>2018-09-01T12:05:49Z</time>
      </trkpt>
      <trkpt lat="40.423717" lon="-5.300367">
        <ele>1924.0</ele>
        <time>2018-09-01T12:05:50Z</time>
      </trkpt>
      <trkpt lat="40.423767" lon="-5.300300">
        <ele>1923.0</ele>
        <time>2018-09-01T12:05:51Z</time>
      </trkpt>
      <trkpt lat="40.423817" lon="-5.300217">
        <ele>1923.0</ele>
        <time>2018-09-01T12:05:52Z</time>
      </trkpt>
      <trkpt lat="40.423867" lon="-5.300150">
        <ele>1923.0</ele>
        <time>2018-09-01T12:05:53Z</time>
      </trkpt>
      <trkpt lat="40.423917" lon="-5.300067">
        <ele>1922.0</ele>
        <time>2018-09-01T12:05:54Z</time>
      </trkpt>
      <trkpt lat="40.423983" lon="-5.300000">
        <ele>1922.0</ele>
        <time>2018-09-01T12:05:55Z</time>
      </trkpt>
      <trkpt lat="40.424033" lon="-5.299950">
        <ele>1922.0</ele>
        <time>2018-09-01T12:05:56Z</time>
      </trkpt>
      <trkpt lat="40.424083" lon="-5.299900">
        <ele>1921.0</ele>
        <time>2018-09-01T12:05:57Z</time>
      </trkpt>
      <trkpt lat="40.424150" lon="-5.299883">
        <ele>1920.0</ele>
        <time>2018-09-01T12:05:58Z</time>
      </trkpt>
      <trkpt lat="40.424217" lon="-5.299883">
        <ele>1919.0</ele>
        <time>2018-09-01T12:05:59Z</time>
      </trkpt>
      <trkpt lat="40.424283" lon="-5.299883">
        <ele>1919.0</ele>
        <time>2018-09-01T12:06:00Z</time>
      </trkpt>
      <trkpt lat="40.424350" lon="-5.299867">
        <ele>1918.0</ele>
        <time>2018-09-01T12:06:01Z</time>
      </trkpt>
      <trkpt lat="40.424433" lon="-5.299867">
        <ele>1918.0</ele>
        <time>2018-09-01T12:06:02Z</time>
      </trkpt>
      <trkpt lat="40.424500" lon="-5.299850">
        <ele>1917.0</ele>
        <time>2018-09-01T12:06:03Z</time>
      </trkpt>
      <trkpt lat="40.424567" lon="-5.299833">
        <ele>1916.0</ele>
        <time>2018-09-01T12:06:04Z</time>
      </trkpt>
      <trkpt lat="40.424633" lon="-5.299817">
        <ele>1915.0</ele>
        <time>2018-09-01T12:06:05Z</time>
      </trkpt>
      <trkpt lat="40.424717" lon="-5.299817">
        <ele>1914.0</ele>
        <time>2018-09-01T12:06:06Z</time>
      </trkpt>
      <trkpt lat="40.424783" lon="-5.299800">
        <ele>1914.0</ele>
        <time>2018-09-01T12:06:07Z</time>
      </trkpt>
      <trkpt lat="40.424867" lon="-5.299783">
        <ele>1916.0</ele>
        <time>2018-09-01T12:06:08Z</time>
      </trkpt>
      <trkpt lat="40.424917" lon="-5.299767">
        <ele>1917.0</ele>
        <time>2018-09-01T12:06:09Z</time>
      </trkpt>
      <trkpt lat="40.424983" lon="-5.299733">
        <ele>1917.0</ele>
        <time>2018-09-01T12:06:10Z</time>
      </trkpt>
      <trkpt lat="40.425033" lon="-5.299683">
        <ele>1916.0</ele>
        <time>2018-09-01T12:06:11Z</time>
      </trkpt>
      <trkpt lat="40.425100" lon="-5.299617">
        <ele>1916.0</ele>
        <time>2018-09-01T12:06:12Z</time>
      </trkpt>
      <trkpt lat="40.425150" lon="-5.299533">
        <ele>1916.0</ele>
        <time>2018-09-01T12:06:13Z</time>
      </trkpt>
      <trkpt lat="40.425200" lon="-5.299450">
        <ele>1916.0</ele>
        <time>2018-09-01T12:06:14Z</time>
      </trkpt>
      <trkpt lat="40.425233" lon="-5.299383">
        <ele>1915.0</ele>
        <time>2018-09-01T12:06:15Z</time>
      </trkpt>
      <trkpt lat="40.425300" lon="-5.299317">
        <ele>1915.0</ele>
        <time>2018-09-01T12:06:16Z</time>
      </trkpt>
      <trkpt lat="40.425367" lon="-5.299267">
        <ele>1915.0</ele>
        <time>2018-09-01T12:06:17Z</time>
      </trkpt>
      <trkpt lat="40.425433" lon="-5.299217">
        <ele>1914.0</ele>
        <time>2018-09-01T12:06:18Z</time>
      </trkpt>
      <trkpt lat="40.425500" lon="-5.299167">
        <ele>1914.0</ele>
        <time>2018-09-01T12:06:19Z</time>
      </trkpt>
      <trkpt lat="40.425567" lon="-5.299100">
        <ele>1914.0</ele>
        <time>2018-09-01T12:06:20Z</time>
      </trkpt>
      <trkpt lat="40.425633" lon="-5.299050">
        <ele>1914.0</ele>
        <time>2018-09-01T12:06:21Z</time>
      </trkpt>
      <trkpt lat="40.425700" lon="-5.298967">
        <ele>1913.0</ele>
        <time>2018-09-01T12:06:22Z</time>
      </trkpt>
      <trkpt lat="40.425767" lon="-5.298917">
        <ele>1913.0</ele>
        <time>2018-09-01T12:06:23Z</time>
      </trkpt>
      <trkpt lat="40.425850" lon="-5.298850">
        <ele>1913.0</ele>
        <time>2018-09-01T12:06:24Z</time>
      </trkpt>
      <trkpt lat="40.425917" lon="-5.298817">
        <ele>1913.0</ele>
        <time>2018-09-01T12:06:25Z</time>
      </trkpt>
      <trkpt lat="40.426000" lon="-5.298767">
        <ele>1913.0</ele>
        <time>2018-09-01T12:06:26Z</time>
      </trkpt>
      <trkpt lat="40.426067" lon="-5.298700">
        <ele>1913.0</ele>
        <time>2018-09-01T12:06:27Z</time>
      </trkpt>
      <trkpt lat="40.426133" lon="-5.298633">
        <ele>1912.0</ele>
        <time>2018-09-01T12:06:28Z</time>
      </trkpt>
      <trkpt lat="40.426200" lon="-5.298567">
        <ele>1911.0</ele>
        <time>2018-09-01T12:06:29Z</time>
      </trkpt>
      <trkpt lat="40.426283" lon="-5.298500">
        <ele>1910.0</ele>
        <time>2018-09-01T12:06:30Z</time>
      </trkpt>
      <trkpt lat="40.426367" lon="-5.298450">
        <ele>1909.0</ele>
        <time>2018-09-01T12:06:31Z</time>
      </trkpt>
      <trkpt lat="40.426450" lon="-5.298383">
        <ele>1908.0</ele>
        <time>2018-09-01T12:06:32Z</time>
      </trkpt>
      <trkpt lat="40.426550" lon="-5.298317">
        <ele>1908.0</ele>
        <time>2018-09-01T12:06:33Z</time>
      </trkpt>
      <trkpt lat="40.426633" lon="-5.298250">
        <ele>1908.0</ele>
        <time>2018-09-01T12:06:34Z</time>
      </trkpt>
      <trkpt lat="40.426700" lon="-5.298167">
        <ele>1908.0</ele>
        <time>2018-09-01T12:06:35Z</time>
      </trkpt>
      <trkpt lat="40.426783" lon="-5.298083">
        <ele>1909.0</ele>
        <time>2018-09-01T12:06:36Z</time>
      </trkpt>
      <trkpt lat="40.426867" lon="-5.298017">
        <ele>1908.0</ele>
        <time>2018-09-01T12:06:37Z</time>
      </trkpt>
      <trkpt lat="40.426933" lon="-5.297933">
        <ele>1908.0</ele>
        <time>2018-09-01T12:06:38Z</time>
      </trkpt>
      <trkpt lat="40.427017" lon="-5.297867">
        <ele>1908.0</ele>
        <time>2018-09-01T12:06:39Z</time>
      </trkpt>
      <trkpt lat="40.427100" lon="-5.297800">
        <ele>1908.0</ele>
        <time>2018-09-01T12:06:40Z</time>
      </trkpt>
      <trkpt lat="40.427167" lon="-5.297733">
        <ele>1908.0</ele>
        <time>2018-09-01T12:06:41Z</time>
      </trkpt>
      <trkpt lat="40.427233" lon="-5.297667">
        <ele>1909.0</ele>
        <time>2018-09-01T12:06:42Z</time>
      </trkpt>
      <trkpt lat="40.427300" lon="-5.297617">
        <ele>1908.0</ele>
        <time>2018-09-01T12:06:43Z</time>
      </trkpt>
      <trkpt lat="40.427383" lon="-5.297567">
        <ele>1906.0</ele>
        <time>2018-09-01T12:06:44Z</time>
      </trkpt>
      <trkpt lat="40.427450" lon="-5.297533">
        <ele>1902.0</ele>
        <time>2018-09-01T12:06:45Z</time>
      </trkpt>
      <trkpt lat="40.427550" lon="-5.297467">
        <ele>1898.0</ele>
        <time>2018-09-01T12:06:46Z</time>
      </trkpt>
      <trkpt lat="40.427650" lon="-5.297400">
        <ele>1896.0</ele>
        <time>2018-09-01T12:06:47Z</time>
      </trkpt>
      <trkpt lat="40.427733" lon="-5.297333">
        <ele>1894.0</ele>
        <time>2018-09-01T12:06:48Z</time>
      </trkpt>
      <trkpt lat="40.427833" lon="-5.297283">
        <ele>1893.0</ele>
        <time>2018-09-01T12:06:49Z</time>
      </trkpt>
      <trkpt lat="40.427933" lon="-5.297267">
        <ele>1891.0</ele>
        <time>2018-09-01T12:06:50Z</time>
      </trkpt>
      <trkpt lat="40.428017" lon="-5.297267">
        <ele>1890.0</ele>
        <time>2018-09-01T12:06:51Z</time>
      </trkpt>
      <trkpt lat="40.428100" lon="-5.297267">
        <ele>1888.0</ele>
        <time>2018-09-01T12:06:52Z</time>
      </trkpt>
      <trkpt lat="40.428200" lon="-5.297283">
        <ele>1887.0</ele>
        <time>2018-09-01T12:06:53Z</time>
      </trkpt>
      <trkpt lat="40.428300" lon="-5.297300">
        <ele>1885.0</ele>
        <time>2018-09-01T12:06:54Z</time>
      </trkpt>
      <trkpt lat="40.428383" lon="-5.297317">
        <ele>1885.0</ele>
        <time>2018-09-01T12:06:55Z</time>
      </trkpt>
      <trkpt lat="40.428483" lon="-5.297333">
        <ele>1887.0</ele>
        <time>2018-09-01T12:06:56Z</time>
      </trkpt>
      <trkpt lat="40.428567" lon="-5.297350">
        <ele>1888.0</ele>
        <time>2018-09-01T12:06:57Z</time>
      </trkpt>
      <trkpt lat="40.428650" lon="-5.297350">
        <ele>1889.0</ele>
        <time>2018-09-01T12:06:58Z</time>
      </trkpt>
      <trkpt lat="40.428750" lon="-5.297367">
        <ele>1889.0</ele>
        <time>2018-09-01T12:06:59Z</time>
      </trkpt>
      <trkpt lat="40.428850" lon="-5.297367">
        <ele>1889.0</ele>
        <time>2018-09-01T12:07:00Z</time>
      </trkpt>
      <trkpt lat="40.428950" lon="-5.297383">
        <ele>1890.0</ele>
        <time>2018-09-01T12:07:01Z</time>
      </trkpt>
      <trkpt lat="40.429050" lon="-5.297417">
        <ele>1891.0</ele>
        <time>2018-09-01T12:07:02Z</time>
      </trkpt>
      <trkpt lat="40.429133" lon="-5.297433">
        <ele>1893.0</ele>
        <time>2018-09-01T12:07:03Z</time>
      </trkpt>
      <trkpt lat="40.429233" lon="-5.297433">
        <ele>1895.0</ele>
        <time>2018-09-01T12:07:04Z</time>
      </trkpt>
      <trkpt lat="40.429300" lon="-5.297433">
        <ele>1897.0</ele>
        <time>2018-09-01T12:07:05Z</time>
      </trkpt>
      <trkpt lat="40.429383" lon="-5.297417">
        <ele>1897.0</ele>
        <time>2018-09-01T12:07:06Z</time>
      </trkpt>
      <trkpt lat="40.429483" lon="-5.297400">
        <ele>1897.0</ele>
        <time>2018-09-01T12:07:07Z</time>
      </trkpt>
      <trkpt lat="40.429567" lon="-5.297383">
        <ele>1897.0</ele>
        <time>2018-09-01T12:07:08Z</time>
      </trkpt>
      <trkpt lat="40.429667" lon="-5.297383">
        <ele>1898.0</ele>
        <time>2018-09-01T12:07:09Z</time>
      </trkpt>
      <trkpt lat="40.429733" lon="-5.297400">
        <ele>1899.0</ele>
        <time>2018-09-01T12:07:10Z</time>
      </trkpt>
      <trkpt lat="40.429817" lon="-5.297417">
        <ele>1899.0</ele>
        <time>2018-09-01T12:07:11Z</time>
      </trkpt>
      <trkpt lat="40.429883" lon="-5.297450">
        <ele>1899.0</ele>
        <time>2018-09-01T12:07:12Z</time>
      </trkpt>
      <trkpt lat="40.429967" lon="-5.297483">
        <ele>1900.0</ele>
        <time>2018-09-01T12:07:13Z</time>
      </trkpt>
      <trkpt lat="40.430067" lon="-5.297533">
        <ele>1900.0</ele>
        <time>2018-09-01T12:07:14Z</time>
      </trkpt>
      <trkpt lat="40.430167" lon="-5.297583">
        <ele>1903.0</ele>
        <time>2018-09-01T12:07:15Z</time>
      </trkpt>
      <trkpt lat="40.430250" lon="-5.297650">
        <ele>1906.0</ele>
        <time>2018-09-01T12:07:16Z</time>
      </trkpt>
      <trkpt lat="40.430333" lon="-5.297700">
        <ele>1909.0</ele>
        <time>2018-09-01T12:07:17Z</time>
      </trkpt>
      <trkpt lat="40.430383" lon="-5.297750">
        <ele>1912.0</ele>
        <time>2018-09-01T12:07:18Z</time>
      </trkpt>
      <trkpt lat="40.430433" lon="-5.297833">
        <ele>1915.0</ele>
        <time>2018-09-01T12:07:19Z</time>
      </trkpt>
      <trkpt lat="40.430450" lon="-5.297917">
        <ele>1916.0</ele>
        <time>2018-09-01T12:07:20Z</time>
      </trkpt>
      <trkpt lat="40.430433" lon="-5.298033">
        <ele>1916.0</ele>
        <time>2018-09-01T12:07:21Z</time>
      </trkpt>
      <trkpt lat="40.430400" lon="-5.298150">
        <ele>1918.0</ele>
        <time>2018-09-01T12:07:22Z</time>
      </trkpt>
      <trkpt lat="40.430333" lon="-5.298233">
        <ele>1921.0</ele>
        <time>2018-09-01T12:07:23Z</time>
      </trkpt>
      <trkpt lat="40.430233" lon="-5.298267">
        <ele>1923.0</ele>
        <time>2018-09-01T12:07:24Z</time>
      </trkpt>
      <trkpt lat="40.430150" lon="-5.298250">
        <ele>1924.0</ele>
        <time>2018-09-01T12:07:25Z</time>
      </trkpt>
      <trkpt lat="40.430050" lon="-5.298167">
        <ele>1925.0</ele>
        <time>2018-09-01T12:07:26Z</time>
      </trkpt>
      <trkpt lat="40.429983" lon="-5.298067">
        <ele>1925.0</ele>
        <time>2018-09-01T12:07:27Z</time>
      </trkpt>
      <trkpt lat="40.429933" lon="-5.297933">
        <ele>1926.0</ele>
        <time>2018-09-01T12:07:28Z</time>
      </trkpt>
      <trkpt lat="40.429917" lon="-5.297783">
        <ele>1927.0</ele>
        <time>2018-09-01T12:07:29Z</time>
      </trkpt>
      <trkpt lat="40.429933" lon="-5.297633">
        <ele>1929.0</ele>
        <time>2018-09-01T12:07:30Z</time>
      </trkpt>
      <trkpt lat="40.429967" lon="-5.297483">
        <ele>1932.0</ele>
        <time>2018-09-01T12:07:31Z</time>
      </trkpt>
      <trkpt lat="40.430017" lon="-5.297350">
        <ele>1935.0</ele>
        <time>2018-09-01T12:07:32Z</time>
      </trkpt>
      <trkpt lat="40.430067" lon="-5.297250">
        <ele>1939.0</ele>
        <time>2018-09-01T12:07:33Z</time>
      </trkpt>
      <trkpt lat="40.430117" lon="-5.297167">
        <ele>1942.0</ele>
        <time>2018-09-01T12:07:34Z</time>
      </trkpt>
      <trkpt lat="40.430183" lon="-5.297100">
        <ele>1943.0</ele>
        <time>2018-09-01T12:07:35Z</time>
      </trkpt>
      <trkpt lat="40.430250" lon="-5.297067">
        <ele>1943.0</ele>
        <time>2018-09-01T12:07:36Z</time>
      </trkpt>
      <trkpt lat="40.430333" lon="-5.297067">
        <ele>1942.0</ele>
        <time>2018-09-01T12:07:37Z</time>
      </trkpt>
      <trkpt lat="40.430400" lon="-5.297100">
        <ele>1942.0</ele>
        <time>2018-09-01T12:07:38Z</time>
      </trkpt>
      <trkpt lat="40.430467" lon="-5.297183">
        <ele>1942.0</ele>
        <time>2018-09-01T12:07:39Z</time>
      </trkpt>
      <trkpt lat="40.430500" lon="-5.297300">
        <ele>1942.0</ele>
        <time>2018-09-01T12:07:40Z</time>
      </trkpt>
      <trkpt lat="40.430500" lon="-5.297417">
        <ele>1943.0</ele>
        <time>2018-09-01T12:07:41Z</time>
      </trkpt>
      <trkpt lat="40.430450" lon="-5.297517">
        <ele>1945.0</ele>
        <time>2018-09-01T12:07:42Z</time>
      </trkpt>
      <trkpt lat="40.430383" lon="-5.297600">
        <ele>1947.0</ele>
        <time>2018-09-01T12:07:43Z</time>
      </trkpt>
      <trkpt lat="40.430317" lon="-5.297667">
        <ele>1950.0</ele>
        <time>2018-09-01T12:07:44Z</time>
      </trkpt>
      <trkpt lat="40.430217" lon="-5.297683">
        <ele>1952.0</ele>
        <time>2018-09-01T12:07:45Z</time>
      </trkpt>
      <trkpt lat="40.430133" lon="-5.297700">
        <ele>1955.0</ele>
        <time>2018-09-01T12:07:46Z</time>
      </trkpt>
      <trkpt lat="40.430050" lon="-5.297683">
        <ele>1957.0</ele>
        <time>2018-09-01T12:07:47Z</time>
      </trkpt>
      <trkpt lat="40.429950" lon="-5.297667">
        <ele>1958.0</ele>
        <time>2018-09-01T12:07:48Z</time>
      </trkpt>
      <trkpt lat="40.429867" lon="-5.297617">
        <ele>1959.0</ele>
        <time>2018-09-01T12:07:49Z</time>
      </trkpt>
      <trkpt lat="40.429783" lon="-5.297517">
        <ele>1959.0</ele>
        <time>2018-09-01T12:07:50Z</time>
      </trkpt>
      <trkpt lat="40.429700" lon="-5.297400">
        <ele>1959.0</ele>
        <time>2018-09-01T12:07:51Z</time>
      </trkpt>
      <trkpt lat="40.429633" lon="-5.297267">
        <ele>1960.0</ele>
        <time>2018-09-01T12:07:52Z</time>
      </trkpt>
      <trkpt lat="40.429600" lon="-5.297117">
        <ele>1961.0</ele>
        <time>2018-09-01T12:07:53Z</time>
      </trkpt>
      <trkpt lat="40.429567" lon="-5.296967">
        <ele>1964.0</ele>
        <time>2018-09-01T12:07:54Z</time>
      </trkpt>
      <trkpt lat="40.429550" lon="-5.296833">
        <ele>1966.0</ele>
        <time>2018-09-01T12:07:55Z</time>
      </trkpt>
      <trkpt lat="40.429550" lon="-5.296683">
        <ele>1967.0</ele>
        <time>2018-09-01T12:07:56Z</time>
      </trkpt>
      <trkpt lat="40.429583" lon="-5.296550">
        <ele>1968.0</ele>
        <time>2018-09-01T12:07:57Z</time>
      </trkpt>
      <trkpt lat="40.429633" lon="-5.296417">
        <ele>1970.0</ele>
        <time>2018-09-01T12:07:58Z</time>
      </trkpt>
      <trkpt lat="40.429700" lon="-5.296333">
        <ele>1972.0</ele>
        <time>2018-09-01T12:07:59Z</time>
      </trkpt>
      <trkpt lat="40.429783" lon="-5.296267">
        <ele>1974.0</ele>
        <time>2018-09-01T12:08:00Z</time>
      </trkpt>
      <trkpt lat="40.429867" lon="-5.296200">
        <ele>1977.0</ele>
        <time>2018-09-01T12:08:01Z</time>
      </trkpt>
      <trkpt lat="40.429933" lon="-5.296167">
        <ele>1979.0</ele>
        <time>2018-09-01T12:08:02Z</time>
      </trkpt>
      <trkpt lat="40.430017" lon="-5.296150">
        <ele>1980.0</ele>
        <time>2018-09-01T12:08:03Z</time>
      </trkpt>
      <trkpt lat="40.430100" lon="-5.296167">
        <ele>1981.0</ele>
        <time>2018-09-01T12:08:04Z</time>
      </trkpt>
      <trkpt lat="40.430167" lon="-5.296233">
        <ele>1981.0</ele>
        <time>2018-09-01T12:08:05Z</time>
      </trkpt>
      <trkpt lat="40.430200" lon="-5.296350">
        <ele>1980.0</ele>
        <time>2018-09-01T12:08:06Z</time>
      </trkpt>
      <trkpt lat="40.430183" lon="-5.296483">
        <ele>1980.0</ele>
        <time>2018-09-01T12:08:07Z</time>
      </trkpt>
      <trkpt lat="40.430133" lon="-5.296600">
        <ele>1981.0</ele>
        <time>2018-09-01T12:08:08Z</time>
      </trkpt>
      <trkpt lat="40.430067" lon="-5.296700">
        <ele>1982.0</ele>
        <time>2018-09-01T12:08:09Z</time>
      </trkpt>
      <trkpt lat="40.429967" lon="-5.296733">
        <ele>1985.0</ele>
        <time>2018-09-01T12:08:10Z</time>
      </trkpt>
      <trkpt lat="40.429867" lon="-5.296750">
        <ele>1986.0</ele>
        <time>2018-09-01T12:08:11Z</time>
      </trkpt>
      <trkpt lat="40.429767" lon="-5.296733">
        <ele>1988.0</ele>
        <time>2018-09-01T12:08:12Z</time>
      </trkpt>
      <trkpt lat="40.429667" lon="-5.296700">
        <ele>1989.0</ele>
        <time>2018-09-01T12:08:13Z</time>
      </trkpt>
      <trkpt lat="40.429550" lon="-5.296650">
        <ele>1989.0</ele>
        <time>2018-09-01T12:08:14Z</time>
      </trkpt>
      <trkpt lat="40.429450" lon="-5.296550">
        <ele>1991.0</ele>
        <time>2018-09-01T12:08:15Z</time>
      </trkpt>
      <trkpt lat="40.429367" lon="-5.296433">
        <ele>1992.0</ele>
        <time>2018-09-01T12:08:16Z</time>
      </trkpt>
      <trkpt lat="40.429317" lon="-5.296300">
        <ele>1993.0</ele>
        <time>2018-09-01T12:08:17Z</time>
      </trkpt>
      <trkpt lat="40.429283" lon="-5.296150">
        <ele>1994.0</ele>
        <time>2018-09-01T12:08:18Z</time>
      </trkpt>
      <trkpt lat="40.429283" lon="-5.296000">
        <ele>1995.0</ele>
        <time>2018-09-01T12:08:19Z</time>
      </trkpt>
      <trkpt lat="40.429267" lon="-5.295850">
        <ele>1997.0</ele>
        <time>2018-09-01T12:08:20Z</time>
      </trkpt>
      <trkpt lat="40.429250" lon="-5.295683">
        <ele>2000.0</ele>
        <time>2018-09-01T12:08:21Z</time>
      </trkpt>
      <trkpt lat="40.429250" lon="-5.295533">
        <ele>2003.0</ele>
        <time>2018-09-01T12:08:22Z</time>
      </trkpt>
      <trkpt lat="40.429267" lon="-5.295400">
        <ele>2006.0</ele>
        <time>2018-09-01T12:08:23Z</time>
      </trkpt>
      <trkpt lat="40.429283" lon="-5.295267">
        <ele>2009.0</ele>
        <time>2018-09-01T12:08:24Z</time>
      </trkpt>
      <trkpt lat="40.429317" lon="-5.295167">
        <ele>2011.0</ele>
        <time>2018-09-01T12:08:25Z</time>
      </trkpt>
      <trkpt lat="40.429367" lon="-5.295083">
        <ele>2012.0</ele>
        <time>2018-09-01T12:08:26Z</time>
      </trkpt>
      <trkpt lat="40.429433" lon="-5.295033">
        <ele>2013.0</ele>
        <time>2018-09-01T12:08:27Z</time>
      </trkpt>
      <trkpt lat="40.429517" lon="-5.294983">
        <ele>2013.0</ele>
        <time>2018-09-01T12:08:28Z</time>
      </trkpt>
      <trkpt lat="40.429617" lon="-5.294967">
        <ele>2012.0</ele>
        <time>2018-09-01T12:08:29Z</time>
      </trkpt>
      <trkpt lat="40.429700" lon="-5.295000">
        <ele>2013.0</ele>
        <time>2018-09-01T12:08:30Z</time>
      </trkpt>
      <trkpt lat="40.429767" lon="-5.295050">
        <ele>2013.0</ele>
        <time>2018-09-01T12:08:31Z</time>
      </trkpt>
      <trkpt lat="40.429800" lon="-5.295117">
        <ele>2013.0</ele>
        <time>2018-09-01T12:08:32Z</time>
      </trkpt>
      <trkpt lat="40.429833" lon="-5.295200">
        <ele>2012.0</ele>
        <time>2018-09-01T12:08:33Z</time>
      </trkpt>
      <trkpt lat="40.429833" lon="-5.295283">
        <ele>2010.0</ele>
        <time>2018-09-01T12:08:34Z</time>
      </trkpt>
      <trkpt lat="40.429833" lon="-5.295400">
        <ele>2008.0</ele>
        <time>2018-09-01T12:08:35Z</time>
      </trkpt>
      <trkpt lat="40.429817" lon="-5.295517">
        <ele>2007.0</ele>
        <time>2018-09-01T12:08:36Z</time>
      </trkpt>
      <trkpt lat="40.429817" lon="-5.295633">
        <ele>2007.0</ele>
        <time>2018-09-01T12:08:37Z</time>
      </trkpt>
      <trkpt lat="40.429817" lon="-5.295750">
        <ele>2008.0</ele>
        <time>2018-09-01T12:08:38Z</time>
      </trkpt>
      <trkpt lat="40.429817" lon="-5.295850">
        <ele>2009.0</ele>
        <time>2018-09-01T12:08:39Z</time>
      </trkpt>
      <trkpt lat="40.429817" lon="-5.295933">
        <ele>2010.0</ele>
        <time>2018-09-01T12:08:40Z</time>
      </trkpt>
      <trkpt lat="40.429833" lon="-5.296017">
        <ele>2011.0</ele>
        <time>2018-09-01T12:08:41Z</time>
      </trkpt>
      <trkpt lat="40.429867" lon="-5.296100">
        <ele>2010.0</ele>
        <time>2018-09-01T12:08:42Z</time>
      </trkpt>
      <trkpt lat="40.429917" lon="-5.296167">
        <ele>2010.0</ele>
        <time>2018-09-01T12:08:43Z</time>
      </trkpt>
      <trkpt lat="40.429967" lon="-5.296233">
        <ele>2011.0</ele>
        <time>2018-09-01T12:08:44Z</time>
      </trkpt>
      <trkpt lat="40.430033" lon="-5.296300">
        <ele>2013.0</ele>
        <time>2018-09-01T12:08:45Z</time>
      </trkpt>
      <trkpt lat="40.430083" lon="-5.296350">
        <ele>2014.0</ele>
        <time>2018-09-01T12:08:46Z</time>
      </trkpt>
      <trkpt lat="40.430150" lon="-5.296400">
        <ele>2015.0</ele>
        <time>2018-09-01T12:08:47Z</time>
      </trkpt>
      <trkpt lat="40.430217" lon="-5.296467">
        <ele>2017.0</ele>
        <time>2018-09-01T12:08:48Z</time>
      </trkpt>
      <trkpt lat="40.430267" lon="-5.296517">
        <ele>2019.0</ele>
        <time>2018-09-01T12:08:49Z</time>
      </trkpt>
      <trkpt lat="40.430300" lon="-5.296583">
        <ele>2022.0</ele>
        <time>2018-09-01T12:08:50Z</time>
      </trkpt>
      <trkpt lat="40.430317" lon="-5.296667">
        <ele>2023.0</ele>
        <time>2018-09-01T12:08:51Z</time>
      </trkpt>
      <trkpt lat="40.430300" lon="-5.296750">
        <ele>2025.0</ele>
        <time>2018-09-01T12:08:52Z</time>
      </trkpt>
      <trkpt lat="40.430250" lon="-5.296833">
        <ele>2027.0</ele>
        <time>2018-09-01T12:08:53Z</time>
      </trkpt>
      <trkpt lat="40.430200" lon="-5.296867">
        <ele>2030.0</ele>
        <time>2018-09-01T12:08:54Z</time>
      </trkpt>
      <trkpt lat="40.430117" lon="-5.296900">
        <ele>2033.0</ele>
        <time>2018-09-01T12:08:55Z</time>
      </trkpt>
      <trkpt lat="40.430050" lon="-5.296900">
        <ele>2037.0</ele>
        <time>2018-09-01T12:08:56Z</time>
      </trkpt>
      <trkpt lat="40.429950" lon="-5.296900">
        <ele>2040.0</ele>
        <time>2018-09-01T12:08:57Z</time>
      </trkpt>
      <trkpt lat="40.429850" lon="-5.296917">
        <ele>2041.0</ele>
        <time>2018-09-01T12:08:58Z</time>
      </trkpt>
      <trkpt lat="40.429750" lon="-5.296933">
        <ele>2043.0</ele>
        <time>2018-09-01T12:08:59Z</time>
      </trkpt>
      <trkpt lat="40.429650" lon="-5.296933">
        <ele>2045.0</ele>
        <time>2018-09-01T12:09:00Z</time>
      </trkpt>
      <trkpt lat="40.429550" lon="-5.296900">
        <ele>2047.0</ele>
        <time>2018-09-01T12:09:01Z</time>
      </trkpt>
      <trkpt lat="40.429450" lon="-5.296800">
        <ele>2049.0</ele>
        <time>2018-09-01T12:09:02Z</time>
      </trkpt>
      <trkpt lat="40.429383" lon="-5.296683">
        <ele>2050.0</ele>
        <time>2018-09-01T12:09:03Z</time>
      </trkpt>
      <trkpt lat="40.429333" lon="-5.296550">
        <ele>2052.0</ele>
        <time>2018-09-01T12:09:04Z</time>
      </trkpt>
      <trkpt lat="40.429300" lon="-5.296400">
        <ele>2054.0</ele>
        <time>2018-09-01T12:09:05Z</time>
      </trkpt>
      <trkpt lat="40.429283" lon="-5.296267">
        <ele>2056.0</ele>
        <time>2018-09-01T12:09:06Z</time>
      </trkpt>
      <trkpt lat="40.429300" lon="-5.296150">
        <ele>2058.0</ele>
        <time>2018-09-01T12:09:07Z</time>
      </trkpt>
      <trkpt lat="40.429333" lon="-5.296017">
        <ele>2059.0</ele>
        <time>2018-09-01T12:09:08Z</time>
      </trkpt>
      <trkpt lat="40.429400" lon="-5.295900">
        <ele>2059.0</ele>
        <time>2018-09-01T12:09:09Z</time>
      </trkpt>
      <trkpt lat="40.429483" lon="-5.295817">
        <ele>2059.0</ele>
        <time>2018-09-01T12:09:10Z</time>
      </trkpt>
      <trkpt lat="40.429600" lon="-5.295750">
        <ele>2062.0</ele>
        <time>2018-09-01T12:09:11Z</time>
      </trkpt>
      <trkpt lat="40.429683" lon="-5.295717">
        <ele>2067.0</ele>
        <time>2018-09-01T12:09:12Z</time>
      </trkpt>
      <trkpt lat="40.429750" lon="-5.295700">
        <ele>2071.0</ele>
        <time>2018-09-01T12:09:13Z</time>
      </trkpt>
      <trkpt lat="40.429817" lon="-5.295683">
        <ele>2074.0</ele>
        <time>2018-09-01T12:09:14Z</time>
      </trkpt>
      <trkpt lat="40.429883" lon="-5.295667">
        <ele>2076.0</ele>
        <time>2018-09-01T12:09:15Z</time>
      </trkpt>
      <trkpt lat="40.429933" lon="-5.295683">
        <ele>2077.0</ele>
        <time>2018-09-01T12:09:16Z</time>
      </trkpt>
      <trkpt lat="40.429983" lon="-5.295717">
        <ele>2077.0</ele>
        <time>2018-09-01T12:09:17Z</time>
      </trkpt>
      <trkpt lat="40.430033" lon="-5.295767">
        <ele>2077.0</ele>
        <time>2018-09-01T12:09:18Z</time>
      </trkpt>
      <trkpt lat="40.430100" lon="-5.295850">
        <ele>2077.0</ele>
        <time>2018-09-01T12:09:19Z</time>
      </trkpt>
      <trkpt lat="40.430133" lon="-5.295950">
        <ele>2080.0</ele>
        <time>2018-09-01T12:09:20Z</time>
      </trkpt>
      <trkpt lat="40.430133" lon="-5.296067">
        <ele>2084.0</ele>
        <time>2018-09-01T12:09:21Z</time>
      </trkpt>
      <trkpt lat="40.430117" lon="-5.296150">
        <ele>2088.0</ele>
        <time>2018-09-01T12:09:22Z</time>
      </trkpt>
      <trkpt lat="40.430067" lon="-5.296217">
        <ele>2092.0</ele>
        <time>2018-09-01T12:09:23Z</time>
      </trkpt>
      <trkpt lat="40.430017" lon="-5.296283">
        <ele>2096.0</ele>
        <time>2018-09-01T12:09:24Z</time>
      </trkpt>
      <trkpt lat="40.429967" lon="-5.296333">
        <ele>2098.0</ele>
        <time>2018-09-01T12:09:25Z</time>
      </trkpt>
      <trkpt lat="40.429900" lon="-5.296400">
        <ele>2101.0</ele>
        <time>2018-09-01T12:09:26Z</time>
      </trkpt>
      <trkpt lat="40.429833" lon="-5.296450">
        <ele>2103.0</ele>
        <time>2018-09-01T12:09:27Z</time>
      </trkpt>
      <trkpt lat="40.429750" lon="-5.296467">
        <ele>2106.0</ele>
        <time>2018-09-01T12:09:28Z</time>
      </trkpt>
      <trkpt lat="40.429667" lon="-5.296450">
        <ele>2107.0</ele>
        <time>2018-09-01T12:09:29Z</time>
      </trkpt>
      <trkpt lat="40.429583" lon="-5.296417">
        <ele>2108.0</ele>
        <time>2018-09-01T12:09:30Z</time>
      </trkpt>
      <trkpt lat="40.429500" lon="-5.296333">
        <ele>2107.0</ele>
        <time>2018-09-01T12:09:31Z</time>
      </trkpt>
      <trkpt lat="40.429417" lon="-5.296217">
        <ele>2107.0</ele>
        <time>2018-09-01T12:09:32Z</time>
      </trkpt>
      <trkpt lat="40.429367" lon="-5.296067">
        <ele>2106.0</ele>
        <time>2018-09-01T12:09:33Z</time>
      </trkpt>
      <trkpt lat="40.429333" lon="-5.295883">
        <ele>2106.0</ele>
        <time>2018-09-01T12:09:34Z</time>
      </trkpt>
      <trkpt lat="40.429333" lon="-5.295700">
        <ele>2107.0</ele>
        <time>2018-09-01T12:09:35Z</time>
      </trkpt>
      <trkpt lat="40.429350" lon="-5.295533">
        <ele>2109.0</ele>
        <time>2018-09-01T12:09:36Z</time>
      </trkpt>
      <trkpt lat="40.429400" lon="-5.295367">
        <ele>2110.0</ele>
        <time>2018-09-01T12:09:37Z</time>
      </trkpt>
      <trkpt lat="40.429467" lon="-5.295250">
        <ele>2111.0</ele>
        <time>2018-09-01T12:09:38Z</time>
      </trkpt>
      <trkpt lat="40.429550" lon="-5.295133">
        <ele>2112.0</ele>
        <time>2018-09-01T12:09:39Z</time>
      </trkpt>
      <trkpt lat="40.429633" lon="-5.295033">
        <ele>2114.0</ele>
        <time>2018-09-01T12:09:40Z</time>
      </trkpt>
      <trkpt lat="40.429733" lon="-5.294950">
        <ele>2117.0</ele>
        <time>2018-09-01T12:09:41Z</time>
      </trkpt>
      <trkpt lat="40.429817" lon="-5.294867">
        <ele>2119.0</ele>
        <time>2018-09-01T12:09:42Z</time>
      </trkpt>
      <trkpt lat="40.429883" lon="-5.294800">
        <ele>2120.0</ele>
        <time>2018-09-01T12:09:43Z</time>
      </trkpt>
      <trkpt lat="40.429967" lon="-5.294750">
        <ele>2122.0</ele>
        <time>2018-09-01T12:09:44Z</time>
      </trkpt>
      <trkpt lat="40.430050" lon="-5.294717">
        <ele>2123.0</ele>
        <time>2018-09-01T12:09:45Z</time>
      </trkpt>
      <trkpt lat="40.430133" lon="-5.294700">
        <ele>2123.0</ele>
        <time>2018-09-01T12:09:46Z</time>
      </trkpt>
      <trkpt lat="40.430233" lon="-5.294700">
        <ele>2123.0</ele>
        <time>2018-09-01T12:09:47Z</time>
      </trkpt>
      <trkpt lat="40.430317" lon="-5.294717">
        <ele>2124.0</ele>
        <time>2018-09-01T12:09:48Z</time>
      </trkpt>
      <trkpt lat="40.430383" lon="-5.294750">
        <ele>2124.0</ele>
        <time>2018-09-01T12:09:49Z</time>
      </trkpt>
      <trkpt lat="40.430433" lon="-5.294817">
        <ele>2125.0</ele>
        <time>2018-09-01T12:09:50Z</time>
      </trkpt>
      <trkpt lat="40.430483" lon="-5.294900">
        <ele>2124.0</ele>
        <time>2018-09-01T12:09:51Z</time>
      </trkpt>
      <trkpt lat="40.430533" lon="-5.295000">
        <ele>2123.0</ele>
        <time>2018-09-01T12:09:52Z</time>
      </trkpt>
      <trkpt lat="40.430567" lon="-5.295100">
        <ele>2123.0</ele>
        <time>2018-09-01T12:09:53Z</time>
      </trkpt>
      <trkpt lat="40.430583" lon="-5.295217">
        <ele>2124.0</ele>
        <time>2018-09-01T12:09:54Z</time>
      </trkpt>
      <trkpt lat="40.430583" lon="-5.295317">
        <ele>2125.0</ele>
        <time>2018-09-01T12:09:55Z</time>
      </trkpt>
      <trkpt lat="40.430567" lon="-5.295417">
        <ele>2126.0</ele>
        <time>2018-09-01T12:09:56Z</time>
      </trkpt>
      <trkpt lat="40.430550" lon="-5.295517">
        <ele>2126.0</ele>
        <time>2018-09-01T12:09:57Z</time>
      </trkpt>
      <trkpt lat="40.430533" lon="-5.295617">
        <ele>2126.0</ele>
        <time>2018-09-01T12:09:58Z</time>
      </trkpt>
      <trkpt lat="40.430500" lon="-5.295700">
        <ele>2126.0</ele>
        <time>2018-09-01T12:09:59Z</time>
      </trkpt>
      <trkpt lat="40.430450" lon="-5.295800">
        <ele>2127.0</ele>
        <time>2018-09-01T12:10:00Z</time>
      </trkpt>
      <trkpt lat="40.430383" lon="-5.295883">
        <ele>2127.0</ele>
        <time>2018-09-01T12:10:01Z</time>
      </trkpt>
      <trkpt lat="40.430317" lon="-5.295967">
        <ele>2128.0</ele>
        <time>2018-09-01T12:10:02Z</time>
      </trkpt>
      <trkpt lat="40.430250" lon="-5.296050">
        <ele>2128.0</ele>
        <time>2018-09-01T12:10:03Z</time>
      </trkpt>
      <trkpt lat="40.430167" lon="-5.296117">
        <ele>2129.0</ele>
        <time>2018-09-01T12:10:04Z</time>
      </trkpt>
      <trkpt lat="40.430083" lon="-5.296183">
        <ele>2130.0</ele>
        <time>2018-09-01T12:10:05Z</time>
      </trkpt>
      <trkpt lat="40.430000" lon="-5.296233">
        <ele>2132.0</ele>
        <time>2018-09-01T12:10:06Z</time>
      </trkpt>
      <trkpt lat="40.429900" lon="-5.296283">
        <ele>2134.0</ele>
        <time>2018-09-01T12:10:07Z</time>
      </trkpt>
      <trkpt lat="40.429817" lon="-5.296317">
        <ele>2136.0</ele>
        <time>2018-09-01T12:10:08Z</time>
      </trkpt>
      <trkpt lat="40.429733" lon="-5.296350">
        <ele>2138.0</ele>
        <time>2018-09-01T12:10:09Z</time>
      </trkpt>
      <trkpt lat="40.429633" lon="-5.296383">
        <ele>2140.0</ele>
        <time>2018-09-01T12:10:10Z</time>
      </trkpt>
      <trkpt lat="40.429550" lon="-5.296433">
        <ele>2142.0</ele>
        <time>2018-09-01T12:10:11Z</time>
      </trkpt>
      <trkpt lat="40.429467" lon="-5.296483">
        <ele>2145.0</ele>
        <time>2018-09-01T12:10:12Z</time>
      </trkpt>
      <trkpt lat="40.429383" lon="-5.296517">
        <ele>2148.0</ele>
        <time>2018-09-01T12:10:13Z</time>
      </trkpt>
      <trkpt lat="40.429317" lon="-5.296550">
        <ele>2150.0</ele>
        <time>2018-09-01T12:10:14Z</time>
      </trkpt>
      <trkpt lat="40.429233" lon="-5.296567">
        <ele>2151.0</ele>
        <time>2018-09-01T12:10:15Z</time>
      </trkpt>
      <trkpt lat="40.429150" lon="-5.296550">
        <ele>2151.0</ele>
        <time>2018-09-01T12:10:16Z</time>
      </trkpt>
      <trkpt lat="40.429067" lon="-5.296500">
        <ele>2150.0</ele>
        <time>2018-09-01T12:10:17Z</time>
      </trkpt>
      <trkpt lat="40.428967" lon="-5.296433">
        <ele>2148.0</ele>
        <time>2018-09-01T12:10:18Z</time>
      </trkpt>
      <trkpt lat="40.428850" lon="-5.296350">
        <ele>2148.0</ele>
        <time>2018-09-01T12:10:19Z</time>
      </trkpt>
      <trkpt lat="40.428767" lon="-5.296233">
        <ele>2148.0</ele>
        <time>2018-09-01T12:10:20Z</time>
      </trkpt>
      <trkpt lat="40.428700" lon="-5.296117">
        <ele>2149.0</ele>
        <time>2018-09-01T12:10:21Z</time>
      </trkpt>
      <trkpt lat="40.428650" lon="-5.295983">
        <ele>2148.0</ele>
        <time>2018-09-01T12:10:22Z</time>
      </trkpt>
      <trkpt lat="40.428617" lon="-5.295833">
        <ele>2147.0</ele>
        <time>2018-09-01T12:10:23Z</time>
      </trkpt>
      <trkpt lat="40.428583" lon="-5.295683">
        <ele>2145.0</ele>
        <time>2018-09-01T12:10:24Z</time>
      </trkpt>
      <trkpt lat="40.428600" lon="-5.295517">
        <ele>2143.0</ele>
        <time>2018-09-01T12:10:25Z</time>
      </trkpt>
      <trkpt lat="40.428617" lon="-5.295350">
        <ele>2141.0</ele>
        <time>2018-09-01T12:10:26Z</time>
      </trkpt>
      <trkpt lat="40.428683" lon="-5.295183">
        <ele>2140.0</ele>
        <time>2018-09-01T12:10:27Z</time>
      </trkpt>
      <trkpt lat="40.428750" lon="-5.295033">
        <ele>2141.0</ele>
        <time>2018-09-01T12:10:28Z</time>
      </trkpt>
      <trkpt lat="40.428817" lon="-5.294883">
        <ele>2143.0</ele>
        <time>2018-09-01T12:10:29Z</time>
      </trkpt>
      <trkpt lat="40.428867" lon="-5.294750">
        <ele>2145.0</ele>
        <time>2018-09-01T12:10:30Z</time>
      </trkpt>
      <trkpt lat="40.428917" lon="-5.294633">
        <ele>2147.0</ele>
        <time>2018-09-01T12:10:31Z</time>
      </trkpt>
      <trkpt lat="40.428983" lon="-5.294500">
        <ele>2149.0</ele>
        <time>2018-09-01T12:10:32Z</time>
      </trkpt>
      <trkpt lat="40.429050" lon="-5.294400">
        <ele>2150.0</ele>
        <time>2018-09-01T12:10:33Z</time>
      </trkpt>
      <trkpt lat="40.429117" lon="-5.294283">
        <ele>2150.0</ele>
        <time>2018-09-01T12:10:34Z</time>
      </trkpt>
      <trkpt lat="40.429200" lon="-5.294200">
        <ele>2150.0</ele>
        <time>2018-09-01T12:10:35Z</time>
      </trkpt>
      <trkpt lat="40.429283" lon="-5.294117">
        <ele>2150.0</ele>
        <time>2018-09-01T12:10:36Z</time>
      </trkpt>
      <trkpt lat="40.429367" lon="-5.294050">
        <ele>2152.0</ele>
        <time>2018-09-01T12:10:37Z</time>
      </trkpt>
      <trkpt lat="40.429450" lon="-5.294000">
        <ele>2154.0</ele>
        <time>2018-09-01T12:10:38Z</time>
      </trkpt>
      <trkpt lat="40.429517" lon="-5.293933">
        <ele>2156.0</ele>
        <time>2018-09-01T12:10:39Z</time>
      </trkpt>
      <trkpt lat="40.429567" lon="-5.293867">
        <ele>2157.0</ele>
        <time>2018-09-01T12:10:40Z</time>
      </trkpt>
      <trkpt lat="40.429633" lon="-5.293800">
        <ele>2157.0</ele>
        <time>2018-09-01T12:10:41Z</time>
      </trkpt>
      <trkpt lat="40.429717" lon="-5.293767">
        <ele>2156.0</ele>
        <time>2018-09-01T12:10:42Z</time>
      </trkpt>
      <trkpt lat="40.429783" lon="-5.293750">
        <ele>2155.0</ele>
        <time>2018-09-01T12:10:43Z</time>
      </trkpt>
      <trkpt lat="40.429867" lon="-5.293767">
        <ele>2154.0</ele>
        <time>2018-09-01T12:10:44Z</time>
      </trkpt>
      <trkpt lat="40.429950" lon="-5.293800">
        <ele>2153.0</ele>
        <time>2018-09-01T12:10:45Z</time>
      </trkpt>
      <trkpt lat="40.430033" lon="-5.293833">
        <ele>2153.0</ele>
        <time>2018-09-01T12:10:46Z</time>
      </trkpt>
      <trkpt lat="40.430100" lon="-5.293883">
        <ele>2154.0</ele>
        <time>2018-09-01T12:10:47Z</time>
      </trkpt>
      <trkpt lat="40.430167" lon="-5.293917">
        <ele>2155.0</ele>
        <time>2018-09-01T12:10:48Z</time>
      </trkpt>
      <trkpt lat="40.430200" lon="-5.293967">
        <ele>2156.0</ele>
        <time>2018-09-01T12:10:49Z</time>
      </trkpt>
      <trkpt lat="40.430250" lon="-5.294017">
        <ele>2155.0</ele>
        <time>2018-09-01T12:10:50Z</time>
      </trkpt>
      <trkpt lat="40.430283" lon="-5.294050">
        <ele>2154.0</ele>
        <time>2018-09-01T12:10:51Z</time>
      </trkpt>
      <trkpt lat="40.430333" lon="-5.294083">
        <ele>2152.0</ele>
        <time>2018-09-01T12:10:52Z</time>
      </trkpt>
      <trkpt lat="40.430383" lon="-5.294117">
        <ele>2150.0</ele>
        <time>2018-09-01T12:10:53Z</time>
      </trkpt>
      <trkpt lat="40.430450" lon="-5.294150">
        <ele>2148.0</ele>
        <time>2018-09-01T12:10:54Z</time>
      </trkpt>
      <trkpt lat="40.430500" lon="-5.294183">
        <ele>2147.0</ele>
        <time>2018-09-01T12:10:55Z</time>
      </trkpt>
      <trkpt lat="40.430533" lon="-5.294233">
        <ele>2145.0</ele>
        <time>2018-09-01T12:10:56Z</time>
      </trkpt>
      <trkpt lat="40.430567" lon="-5.294300">
        <ele>2143.0</ele>
        <time>2018-09-01T12:10:57Z</time>
      </trkpt>
      <trkpt lat="40.430583" lon="-5.294367">
        <ele>2140.0</ele>
        <time>2018-09-01T12:10:58Z</time>
      </trkpt>
      <trkpt lat="40.430617" lon="-5.294433">
        <ele>2137.0</ele>
        <time>2018-09-01T12:10:59Z</time>
      </trkpt>
      <trkpt lat="40.430633" lon="-5.294517">
        <ele>2135.0</ele>
        <time>2018-09-01T12:11:00Z</time>
      </trkpt>
      <trkpt lat="40.430633" lon="-5.294583">
        <ele>2133.0</ele>
        <time>2018-09-01T12:11:01Z</time>
      </trkpt>
      <trkpt lat="40.430633" lon="-5.294667">
        <ele>2130.0</ele>
        <time>2018-09-01T12:11:02Z</time>
      </trkpt>
      <trkpt lat="40.430617" lon="-5.294750">
        <ele>2128.0</ele>
        <time>2018-09-01T12:11:03Z</time>
      </trkpt>
      <trkpt lat="40.430583" lon="-5.294850">
        <ele>2125.0</ele>
        <time>2018-09-01T12:11:04Z</time>
      </trkpt>
      <trkpt lat="40.430567" lon="-5.294933">
        <ele>2123.0</ele>
        <time>2018-09-01T12:11:05Z</time>
      </trkpt>
      <trkpt lat="40.430533" lon="-5.295033">
        <ele>2122.0</ele>
        <time>2018-09-01T12:11:06Z</time>
      </trkpt>
      <trkpt lat="40.430500" lon="-5.295117">
        <ele>2121.0</ele>
        <time>2018-09-01T12:11:07Z</time>
      </trkpt>
      <trkpt lat="40.430467" lon="-5.295217">
        <ele>2121.0</ele>
        <time>2018-09-01T12:11:08Z</time>
      </trkpt>
      <trkpt lat="40.430417" lon="-5.295300">
        <ele>2120.0</ele>
        <time>2018-09-01T12:11:09Z</time>
      </trkpt>
      <trkpt lat="40.430367" lon="-5.295383">
        <ele>2119.0</ele>
        <time>2018-09-01T12:11:10Z</time>
      </trkpt>
      <trkpt lat="40.430317" lon="-5.295467">
        <ele>2118.0</ele>
        <time>2018-09-01T12:11:11Z</time>
      </trkpt>
      <trkpt lat="40.430267" lon="-5.295533">
        <ele>2118.0</ele>
        <time>2018-09-01T12:11:12Z</time>
      </trkpt>
      <trkpt lat="40.430200" lon="-5.295617">
        <ele>2117.0</ele>
        <time>2018-09-01T12:11:13Z</time>
      </trkpt>
      <trkpt lat="40.430133" lon="-5.295667">
        <ele>2116.0</ele>
        <time>2018-09-01T12:11:14Z</time>
      </trkpt>
      <trkpt lat="40.430050" lon="-5.295717">
        <ele>2114.0</ele>
        <time>2018-09-01T12:11:15Z</time>
      </trkpt>
      <trkpt lat="40.429950" lon="-5.295750">
        <ele>2112.0</ele>
        <time>2018-09-01T12:11:16Z</time>
      </trkpt>
      <trkpt lat="40.429850" lon="-5.295800">
        <ele>2110.0</ele>
        <time>2018-09-01T12:11:17Z</time>
      </trkpt>
      <trkpt lat="40.429750" lon="-5.295800">
        <ele>2108.0</ele>
        <time>2018-09-01T12:11:18Z</time>
      </trkpt>
      <trkpt lat="40.429633" lon="-5.295783">
        <ele>2106.0</ele>
        <time>2018-09-01T12:11:19Z</time>
      </trkpt>
      <trkpt lat="40.429517" lon="-5.295717">
        <ele>2104.0</ele>
        <time>2018-09-01T12:11:20Z</time>
      </trkpt>
      <trkpt lat="40.429400" lon="-5.295633">
        <ele>2105.0</ele>
        <time>2018-09-01T12:11:21Z</time>
      </trkpt>
      <trkpt lat="40.429283" lon="-5.295567">
        <ele>2107.0</ele>
        <time>2018-09-01T12:11:22Z</time>
      </trkpt>
      <trkpt lat="40.429183" lon="-5.295500">
        <ele>2110.0</ele>
        <time>2018-09-01T12:11:23Z</time>
      </trkpt>
      <trkpt lat="40.429083" lon="-5.295450">
        <ele>2112.0</ele>
        <time>2018-09-01T12:11:24Z</time>
      </trkpt>
      <trkpt lat="40.429000" lon="-5.295367">
        <ele>2114.0</ele>
        <time>2018-09-01T12:11:25Z</time>
      </trkpt>
      <trkpt lat="40.428917" lon="-5.295250">
        <ele>2114.0</ele>
        <time>2018-09-01T12:11:26Z</time>
      </trkpt>
      <trkpt lat="40.428867" lon="-5.295100">
        <ele>2114.0</ele>
        <time>2018-09-01T12:11:27Z</time>
      </trkpt>
      <trkpt lat="40.428833" lon="-5.294933">
        <ele>2114.0</ele>
        <time>2018-09-01T12:11:28Z</time>
      </trkpt>
      <trkpt lat="40.428833" lon="-5.294750">
        <ele>2116.0</ele>
        <time>2018-09-01T12:11:29Z</time>
      </trkpt>
      <trkpt lat="40.428850" lon="-5.294583">
        <ele>2119.0</ele>
        <time>2018-09-01T12:11:30Z</time>
      </trkpt>
      <trkpt lat="40.428867" lon="-5.294433">
        <ele>2121.0</ele>
        <time>2018-09-01T12:11:31Z</time>
      </trkpt>
      <trkpt lat="40.428900" lon="-5.294317">
        <ele>2123.0</ele>
        <time>2018-09-01T12:11:32Z</time>
      </trkpt>
      <trkpt lat="40.428950" lon="-5.294200">
        <ele>2123.0</ele>
        <time>2018-09-01T12:11:33Z</time>
      </trkpt>
      <trkpt lat="40.429000" lon="-5.294067">
        <ele>2123.0</ele>
        <time>2018-09-01T12:11:34Z</time>
      </trkpt>
      <trkpt lat="40.429067" lon="-5.293933">
        <ele>2123.0</ele>
        <time>2018-09-01T12:11:35Z</time>
      </trkpt>
      <trkpt lat="40.429150" lon="-5.293817">
        <ele>2124.0</ele>
        <time>2018-09-01T12:11:36Z</time>
      </trkpt>
      <trkpt lat="40.429233" lon="-5.293733">
        <ele>2127.0</ele>
        <time>2018-09-01T12:11:37Z</time>
      </trkpt>
      <trkpt lat="40.429317" lon="-5.293683">
        <ele>2130.0</ele>
        <time>2018-09-01T12:11:38Z</time>
      </trkpt>
      <trkpt lat="40.429367" lon="-5.293650">
        <ele>2131.0</ele>
        <time>2018-09-01T12:11:39Z</time>
      </trkpt>
      <trkpt lat="40.429433" lon="-5.293650">
        <ele>2131.0</ele>
        <time>2018-09-01T12:11:40Z</time>
      </trkpt>
      <trkpt lat="40.429483" lon="-5.293633">
        <ele>2130.0</ele>
        <time>2018-09-01T12:11:41Z</time>
      </trkpt>
      <trkpt lat="40.429550" lon="-5.293650">
        <ele>2128.0</ele>
        <time>2018-09-01T12:11:42Z</time>
      </trkpt>
      <trkpt lat="40.429617" lon="-5.293667">
        <ele>2127.0</ele>
        <time>2018-09-01T12:11:43Z</time>
      </trkpt>
      <trkpt lat="40.429683" lon="-5.293700">
        <ele>2127.0</ele>
        <time>2018-09-01T12:11:44Z</time>
      </trkpt>
      <trkpt lat="40.429750" lon="-5.293750">
        <ele>2127.0</ele>
        <time>2018-09-01T12:11:45Z</time>
      </trkpt>
      <trkpt lat="40.429783" lon="-5.293783">
        <ele>2127.0</ele>
        <time>2018-09-01T12:11:46Z</time>
      </trkpt>
      <trkpt lat="40.429833" lon="-5.293833">
        <ele>2126.0</ele>
        <time>2018-09-01T12:11:47Z</time>
      </trkpt>
      <trkpt lat="40.429867" lon="-5.293883">
        <ele>2125.0</ele>
        <time>2018-09-01T12:11:48Z</time>
      </trkpt>
      <trkpt lat="40.429900" lon="-5.293950">
        <ele>2124.0</ele>
        <time>2018-09-01T12:11:49Z</time>
      </trkpt>
      <trkpt lat="40.429917" lon="-5.294017">
        <ele>2122.0</ele>
        <time>2018-09-01T12:11:50Z</time>
      </trkpt>
      <trkpt lat="40.429950" lon="-5.294083">
        <ele>2120.0</ele>
        <time>2018-09-01T12:11:51Z</time>
      </trkpt>
      <trkpt lat="40.429983" lon="-5.294167">
        <ele>2118.0</ele>
        <time>2018-09-01T12:11:52Z</time>
      </trkpt>
      <trkpt lat="40.430000" lon="-5.294250">
        <ele>2117.0</ele>
        <time>2018-09-01T12:11:53Z</time>
      </trkpt>
      <trkpt lat="40.430033" lon="-5.294350">
        <ele>2116.0</ele>
        <time>2018-09-01T12:11:54Z</time>
      </trkpt>
      <trkpt lat="40.430050" lon="-5.294433">
        <ele>2115.0</ele>
        <time>2018-09-01T12:11:55Z</time>
      </trkpt>
      <trkpt lat="40.430067" lon="-5.294533">
        <ele>2114.0</ele>
        <time>2018-09-01T12:11:56Z</time>
      </trkpt>
      <trkpt lat="40.430083" lon="-5.294617">
        <ele>2113.0</ele>
        <time>2018-09-01T12:11:57Z</time>
      </trkpt>
      <trkpt lat="40.430083" lon="-5.294733">
        <ele>2112.0</ele>
        <time>2018-09-01T12:11:58Z</time>
      </trkpt>
      <trkpt lat="40.430117" lon="-5.294833">
        <ele>2111.0</ele>
        <time>2018-09-01T12:11:59Z</time>
      </trkpt>
      <trkpt lat="40.430117" lon="-5.294950">
        <ele>2111.0</ele>
        <time>2018-09-01T12:12:00Z</time>
      </trkpt>
      <trkpt lat="40.430117" lon="-5.295050">
        <ele>2112.0</ele>
        <time>2018-09-01T12:12:01Z</time>
      </trkpt>
      <trkpt lat="40.430117" lon="-5.295150">
        <ele>2114.0</ele>
        <time>2018-09-01T12:12:02Z</time>
      </trkpt>
      <trkpt lat="40.430100" lon="-5.295233">
        <ele>2116.0</ele>
        <time>2018-09-01T12:12:03Z</time>
      </trkpt>
      <trkpt lat="40.430067" lon="-5.295317">
        <ele>2117.0</ele>
        <time>2018-09-01T12:12:04Z</time>
      </trkpt>
      <trkpt lat="40.430050" lon="-5.295400">
        <ele>2119.0</ele>
        <time>2018-09-01T12:12:05Z</time>
      </trkpt>
      <trkpt lat="40.430033" lon="-5.295483">
        <ele>2121.0</ele>
        <time>2018-09-01T12:12:06Z</time>
      </trkpt>
      <trkpt lat="40.430033" lon="-5.295600">
        <ele>2122.0</ele>
        <time>2018-09-01T12:12:07Z</time>
      </trkpt>
      <trkpt lat="40.430017" lon="-5.295700">
        <ele>2123.0</ele>
        <time>2018-09-01T12:12:08Z</time>
      </trkpt>
      <trkpt lat="40.429983" lon="-5.295783">
        <ele>2125.0</ele>
        <time>2018-09-01T12:12:09Z</time>
      </trkpt>
      <trkpt lat="40.429933" lon="-5.295850">
        <ele>2125.0</ele>
        <time>2018-09-01T12:12:10Z</time>
      </trkpt>
      <trkpt lat="40.429850" lon="-5.295883">
        <ele>2125.0</ele>
        <time>2018-09-01T12:12:11Z</time>
      </trkpt>
      <trkpt lat="40.429733" lon="-5.295883">
        <ele>2123.0</ele>
        <time>2018-09-01T12:12:12Z</time>
      </trkpt>
      <trkpt lat="40.429633" lon="-5.295867">
        <ele>2123.0</ele>
        <time>2018-09-01T12:12:13Z</time>
      </trkpt>
      <trkpt lat="40.429517" lon="-5.295817">
        <ele>2123.0</ele>
        <time>2018-09-01T12:12:14Z</time>
      </trkpt>
      <trkpt lat="40.429417" lon="-5.295767">
        <ele>2124.0</ele>
        <time>2018-09-01T12:12:15Z</time>
      </trkpt>
      <trkpt lat="40.429333" lon="-5.295717">
        <ele>2126.0</ele>
        <time>2018-09-01T12:12:16Z</time>
      </trkpt>
      <trkpt lat="40.429250" lon="-5.295667">
        <ele>2126.0</ele>
        <time>2018-09-01T12:12:17Z</time>
      </trkpt>
      <trkpt lat="40.429150" lon="-5.295617">
        <ele>2126.0</ele>
        <time>2018-09-01T12:12:18Z</time>
      </trkpt>
      <trkpt lat="40.429050" lon="-5.295550">
        <ele>2125.0</ele>
        <time>2018-09-01T12:12:19Z</time>
      </trkpt>
      <trkpt lat="40.428950" lon="-5.295500">
        <ele>2126.0</ele>
        <time>2018-09-01T12:12:20Z</time>
      </trkpt>
      <trkpt lat="40.428833" lon="-5.295483">
        <ele>2127.0</ele>
        <time>2018-09-01T12:12:21Z</time>
      </trkpt>
      <trkpt lat="40.428717" lon="-5.295500">
        <ele>2128.0</ele>
        <time>2018-09-01T12:12:22Z</time>
      </trkpt>
      <trkpt lat="40.428617" lon="-5.295500">
        <ele>2130.0</ele>
        <time>2018-09-01T12:12:23Z</time>
      </trkpt>
      <trkpt lat="40.428500" lon="-5.295500">
        <ele>2132.0</ele>
        <time>2018-09-01T12:12:24Z</time>
      </trkpt>
      <trkpt lat="40.428383" lon="-5.295483">
        <ele>2134.0</ele>
        <time>2018-09-01T12:12:25Z</time>
      </trkpt>
      <trkpt lat="40.428283" lon="-5.295450">
        <ele>2137.0</ele>
        <time>2018-09-01T12:12:26Z</time>
      </trkpt>
      <trkpt lat="40.428200" lon="-5.295383">
        <ele>2139.0</ele>
        <time>2018-09-01T12:12:27Z</time>
      </trkpt>
      <trkpt lat="40.428117" lon="-5.295283">
        <ele>2141.0</ele>
        <time>2018-09-01T12:12:28Z</time>
      </trkpt>
      <trkpt lat="40.428033" lon="-5.295183">
        <ele>2143.0</ele>
        <time>2018-09-01T12:12:29Z</time>
      </trkpt>
      <trkpt lat="40.427983" lon="-5.295033">
        <ele>2144.0</ele>
        <time>2018-09-01T12:12:30Z</time>
      </trkpt>
      <trkpt lat="40.427967" lon="-5.294883">
        <ele>2146.0</ele>
        <time>2018-09-01T12:12:31Z</time>
      </trkpt>
      <trkpt lat="40.427950" lon="-5.294733">
        <ele>2150.0</ele>
        <time>2018-09-01T12:12:32Z</time>
      </trkpt>
      <trkpt lat="40.427967" lon="-5.294600">
        <ele>2154.0</ele>
        <time>2018-09-01T12:12:33Z</time>
      </trkpt>
      <trkpt lat="40.427983" lon="-5.294483">
        <ele>2157.0</ele>
        <time>2018-09-01T12:12:34Z</time>
      </trkpt>
      <trkpt lat="40.428033" lon="-5.294383">
        <ele>2159.0</ele>
        <time>2018-09-01T12:12:35Z</time>
      </trkpt>
      <trkpt lat="40.428067" lon="-5.294283">
        <ele>2161.0</ele>
        <time>2018-09-01T12:12:36Z</time>
      </trkpt>
      <trkpt lat="40.428133" lon="-5.294183">
        <ele>2162.0</ele>
        <time>2018-09-01T12:12:37Z</time>
      </trkpt>
      <trkpt lat="40.428200" lon="-5.294083">
        <ele>2163.0</ele>
        <time>2018-09-01T12:12:38Z</time>
      </trkpt>
      <trkpt lat="40.428267" lon="-5.294017">
        <ele>2164.0</ele>
        <time>2018-09-01T12:12:39Z</time>
      </trkpt>
      <trkpt lat="40.428367" lon="-5.294000">
        <ele>2164.0</ele>
        <time>2018-09-01T12:12:40Z</time>
      </trkpt>
      <trkpt lat="40.428450" lon="-5.294033">
        <ele>2164.0</ele>
        <time>2018-09-01T12:12:41Z</time>
      </trkpt>
      <trkpt lat="40.428533" lon="-5.294083">
        <ele>2165.0</ele>
        <time>2018-09-01T12:12:42Z</time>
      </trkpt>
      <trkpt lat="40.428583" lon="-5.294167">
        <ele>2166.0</ele>
        <time>2018-09-01T12:12:43Z</time>
      </trkpt>
      <trkpt lat="40.428617" lon="-5.294250">
        <ele>2167.0</ele>
        <time>2018-09-01T12:12:44Z</time>
      </trkpt>
      <trkpt lat="40.428633" lon="-5.294350">
        <ele>2167.0</ele>
        <time>2018-09-01T12:12:45Z</time>
      </trkpt>
      <trkpt lat="40.428633" lon="-5.294450">
        <ele>2167.0</ele>
        <time>2018-09-01T12:12:46Z</time>
      </trkpt>
      <trkpt lat="40.428617" lon="-5.294550">
        <ele>2166.0</ele>
        <time>2018-09-01T12:12:47Z</time>
      </trkpt>
      <trkpt lat="40.428600" lon="-5.294667">
        <ele>2165.0</ele>
        <time>2018-09-01T12:12:48Z</time>
      </trkpt>
      <trkpt lat="40.428550" lon="-5.294783">
        <ele>2164.0</ele>
        <time>2018-09-01T12:12:49Z</time>
      </trkpt>
      <trkpt lat="40.428500" lon="-5.294867">
        <ele>2165.0</ele>
        <time>2018-09-01T12:12:50Z</time>
      </trkpt>
      <trkpt lat="40.428417" lon="-5.294950">
        <ele>2167.0</ele>
        <time>2018-09-01T12:12:51Z</time>
      </trkpt>
      <trkpt lat="40.428333" lon="-5.295033">
        <ele>2169.0</ele>
        <time>2018-09-01T12:12:52Z</time>
      </trkpt>
      <trkpt lat="40.428267" lon="-5.295083">
        <ele>2173.0</ele>
        <time>2018-09-01T12:12:53Z</time>
      </trkpt>
      <trkpt lat="40.428217" lon="-5.295133">
        <ele>2175.0</ele>
        <time>2018-09-01T12:12:54Z</time>
      </trkpt>
      <trkpt lat="40.428133" lon="-5.295167">
        <ele>2177.0</ele>
        <time>2018-09-01T12:12:55Z</time>
      </trkpt>
      <trkpt lat="40.428050" lon="-5.295183">
        <ele>2178.0</ele>
        <time>2018-09-01T12:12:56Z</time>
      </trkpt>
      <trkpt lat="40.427950" lon="-5.295183">
        <ele>2179.0</ele>
        <time>2018-09-01T12:12:57Z</time>
      </trkpt>
      <trkpt lat="40.427833" lon="-5.295133">
        <ele>2180.0</ele>
        <time>2018-09-01T12:12:58Z</time>
      </trkpt>
      <trkpt lat="40.427733" lon="-5.295050">
        <ele>2182.0</ele>
        <time>2018-09-01T12:12:59Z</time>
      </trkpt>
      <trkpt lat="40.427650" lon="-5.294950">
        <ele>2184.0</ele>
        <time>2018-09-01T12:13:00Z</time>
      </trkpt>
      <trkpt lat="40.427583" lon="-5.294817">
        <ele>2186.0</ele>
        <time>2018-09-01T12:13:01Z</time>
      </trkpt>
      <trkpt lat="40.427533" lon="-5.294700">
        <ele>2188.0</ele>
        <time>2018-09-01T12:13:02Z</time>
      </trkpt>
      <trkpt lat="40.427483" lon="-5.294550">
        <ele>2190.0</ele>
        <time>2018-09-01T12:13:03Z</time>
      </trkpt>
      <trkpt lat="40.427433" lon="-5.294400">
        <ele>2192.0</ele>
        <time>2018-09-01T12:13:04Z</time>
      </trkpt>
      <trkpt lat="40.427417" lon="-5.294250">
        <ele>2193.0</ele>
        <time>2018-09-01T12:13:05Z</time>
      </trkpt>
      <trkpt lat="40.427400" lon="-5.294100">
        <ele>2195.0</ele>
        <time>2018-09-01T12:13:06Z</time>
      </trkpt>
      <trkpt lat="40.427400" lon="-5.293967">
        <ele>2196.0</ele>
        <time>2018-09-01T12:13:07Z</time>
      </trkpt>
      <trkpt lat="40.427433" lon="-5.293850">
        <ele>2197.0</ele>
        <time>2018-09-01T12:13:08Z</time>
      </trkpt>
      <trkpt lat="40.427483" lon="-5.293750">
        <ele>2196.0</ele>
        <time>2018-09-01T12:13:09Z</time>
      </trkpt>
      <trkpt lat="40.427550" lon="-5.293650">
        <ele>2196.0</ele>
        <time>2018-09-01T12:13:10Z</time>
      </trkpt>
      <trkpt lat="40.427633" lon="-5.293567">
        <ele>2198.0</ele>
        <time>2018-09-01T12:13:11Z</time>
      </trkpt>
      <trkpt lat="40.427717" lon="-5.293517">
        <ele>2200.0</ele>
        <time>2018-09-01T12:13:12Z</time>
      </trkpt>
      <trkpt lat="40.427800" lon="-5.293483">
        <ele>2203.0</ele>
        <time>2018-09-01T12:13:13Z</time>
      </trkpt>
      <trkpt lat="40.427867" lon="-5.293483">
        <ele>2207.0</ele>
        <time>2018-09-01T12:13:14Z</time>
      </trkpt>
      <trkpt lat="40.427933" lon="-5.293483">
        <ele>2209.0</ele>
        <time>2018-09-01T12:13:15Z</time>
      </trkpt>
      <trkpt lat="40.427983" lon="-5.293500">
        <ele>2210.0</ele>
        <time>2018-09-01T12:13:16Z</time>
      </trkpt>
      <trkpt lat="40.428033" lon="-5.293500">
        <ele>2210.0</ele>
        <time>2018-09-01T12:13:17Z</time>
      </trkpt>
      <trkpt lat="40.428083" lon="-5.293533">
        <ele>2208.0</ele>
        <time>2018-09-01T12:13:18Z</time>
      </trkpt>
      <trkpt lat="40.428150" lon="-5.293583">
        <ele>2205.0</ele>
        <time>2018-09-01T12:13:19Z</time>
      </trkpt>
      <trkpt lat="40.428217" lon="-5.293650">
        <ele>2204.0</ele>
        <time>2018-09-01T12:13:20Z</time>
      </trkpt>
      <trkpt lat="40.428283" lon="-5.293700">
        <ele>2203.0</ele>
        <time>2018-09-01T12:13:21Z</time>
      </trkpt>
      <trkpt lat="40.428333" lon="-5.293733">
        <ele>2204.0</ele>
        <time>2018-09-01T12:13:22Z</time>
      </trkpt>
      <trkpt lat="40.428383" lon="-5.293800">
        <ele>2204.0</ele>
        <time>2018-09-01T12:13:23Z</time>
      </trkpt>
      <trkpt lat="40.428400" lon="-5.293867">
        <ele>2202.0</ele>
        <time>2018-09-01T12:13:24Z</time>
      </trkpt>
      <trkpt lat="40.428400" lon="-5.293983">
        <ele>2200.0</ele>
        <time>2018-09-01T12:13:25Z</time>
      </trkpt>
      <trkpt lat="40.428383" lon="-5.294083">
        <ele>2198.0</ele>
        <time>2018-09-01T12:13:26Z</time>
      </trkpt>
      <trkpt lat="40.428350" lon="-5.294200">
        <ele>2198.0</ele>
        <time>2018-09-01T12:13:27Z</time>
      </trkpt>
      <trkpt lat="40.428283" lon="-5.294300">
        <ele>2200.0</ele>
        <time>2018-09-01T12:13:28Z</time>
      </trkpt>
      <trkpt lat="40.428233" lon="-5.294383">
        <ele>2201.0</ele>
        <time>2018-09-01T12:13:29Z</time>
      </trkpt>
      <trkpt lat="40.428167" lon="-5.294467">
        <ele>2202.0</ele>
        <time>2018-09-01T12:13:30Z</time>
      </trkpt>
      <trkpt lat="40.428100" lon="-5.294533">
        <ele>2204.0</ele>
        <time>2018-09-01T12:13:31Z</time>
      </trkpt>
      <trkpt lat="40.428033" lon="-5.294600">
        <ele>2205.0</ele>
        <time>2018-09-01T12:13:32Z</time>
      </trkpt>
      <trkpt lat="40.427950" lon="-5.294650">
        <ele>2206.0</ele>
        <time>2018-09-01T12:13:33Z</time>
      </trkpt>
      <trkpt lat="40.427833" lon="-5.294683">
        <ele>2208.0</ele>
        <time>2018-09-01T12:13:34Z</time>
      </trkpt>
      <trkpt lat="40.427717" lon="-5.294667">
        <ele>2209.0</ele>
        <time>2018-09-01T12:13:35Z</time>
      </trkpt>
      <trkpt lat="40.427617" lon="-5.294600">
        <ele>2212.0</ele>
        <time>2018-09-01T12:13:36Z</time>
      </trkpt>
      <trkpt lat="40.427517" lon="-5.294533">
        <ele>2214.0</ele>
        <time>2018-09-01T12:13:37Z</time>
      </trkpt>
      <trkpt lat="40.427433" lon="-5.294433">
        <ele>2216.0</ele>
        <time>2018-09-01T12:13:38Z</time>
      </trkpt>
      <trkpt lat="40.427367" lon="-5.294300">
        <ele>2217.0</ele>
        <time>2018-09-01T12:13:39Z</time>
      </trkpt>
      <trkpt lat="40.427333" lon="-5.294167">
        <ele>2218.0</ele>
        <time>2018-09-01T12:13:40Z</time>
      </trkpt>
      <trkpt lat="40.427283" lon="-5.294017">
        <ele>2219.0</ele>
        <time>2018-09-01T12:13:41Z</time>
      </trkpt>
      <trkpt lat="40.427267" lon="-5.293867">
        <ele>2223.0</ele>
        <time>2018-09-01T12:13:42Z</time>
      </trkpt>
      <trkpt lat="40.427250" lon="-5.293717">
        <ele>2226.0</ele>
        <time>2018-09-01T12:13:43Z</time>
      </trkpt>
      <trkpt lat="40.427250" lon="-5.293583">
        <ele>2229.0</ele>
        <time>2018-09-01T12:13:44Z</time>
      </trkpt>
      <trkpt lat="40.427250" lon="-5.293450">
        <ele>2229.0</ele>
        <time>2018-09-01T12:13:45Z</time>
      </trkpt>
      <trkpt lat="40.427267" lon="-5.293317">
        <ele>2230.0</ele>
        <time>2018-09-01T12:13:46Z</time>
      </trkpt>
      <trkpt lat="40.427283" lon="-5.293167">
        <ele>2230.0</ele>
        <time>2018-09-01T12:13:47Z</time>
      </trkpt>
      <trkpt lat="40.427317" lon="-5.293033">
        <ele>2230.0</ele>
        <time>2018-09-01T12:13:48Z</time>
      </trkpt>
      <trkpt lat="40.427400" lon="-5.292900">
        <ele>2229.0</ele>
        <time>2018-09-01T12:13:49Z</time>
      </trkpt>
      <trkpt lat="40.427483" lon="-5.292800">
        <ele>2229.0</ele>
        <time>2018-09-01T12:13:50Z</time>
      </trkpt>
      <trkpt lat="40.427583" lon="-5.292750">
        <ele>2230.0</ele>
        <time>2018-09-01T12:13:51Z</time>
      </trkpt>
      <trkpt lat="40.427667" lon="-5.292700">
        <ele>2232.0</ele>
        <time>2018-09-01T12:13:52Z</time>
      </trkpt>
      <trkpt lat="40.427733" lon="-5.292683">
        <ele>2233.0</ele>
        <time>2018-09-01T12:13:53Z</time>
      </trkpt>
      <trkpt lat="40.427800" lon="-5.292683">
        <ele>2233.0</ele>
        <time>2018-09-01T12:13:54Z</time>
      </trkpt>
      <trkpt lat="40.427850" lon="-5.292667">
        <ele>2233.0</ele>
        <time>2018-09-01T12:13:55Z</time>
      </trkpt>
      <trkpt lat="40.427917" lon="-5.292683">
        <ele>2231.0</ele>
        <time>2018-09-01T12:13:56Z</time>
      </trkpt>
      <trkpt lat="40.427983" lon="-5.292717">
        <ele>2230.0</ele>
        <time>2018-09-01T12:13:57Z</time>
      </trkpt>
      <trkpt lat="40.428033" lon="-5.292783">
        <ele>2228.0</ele>
        <time>2018-09-01T12:13:58Z</time>
      </trkpt>
      <trkpt lat="40.428083" lon="-5.292867">
        <ele>2228.0</ele>
        <time>2018-09-01T12:13:59Z</time>
      </trkpt>
      <trkpt lat="40.428117" lon="-5.292967">
        <ele>2227.0</ele>
        <time>2018-09-01T12:14:00Z</time>
      </trkpt>
      <trkpt lat="40.428150" lon="-5.293067">
        <ele>2228.0</ele>
        <time>2018-09-01T12:14:01Z</time>
      </trkpt>
      <trkpt lat="40.428183" lon="-5.293167">
        <ele>2228.0</ele>
        <time>2018-09-01T12:14:02Z</time>
      </trkpt>
      <trkpt lat="40.428217" lon="-5.293267">
        <ele>2229.0</ele>
        <time>2018-09-01T12:14:03Z</time>
      </trkpt>
      <trkpt lat="40.428233" lon="-5.293350">
        <ele>2230.0</ele>
        <time>2018-09-01T12:14:04Z</time>
      </trkpt>
      <trkpt lat="40.428250" lon="-5.293450">
        <ele>2229.0</ele>
        <time>2018-09-01T12:14:05Z</time>
      </trkpt>
      <trkpt lat="40.428250" lon="-5.293550">
        <ele>2228.0</ele>
        <time>2018-09-01T12:14:06Z</time>
      </trkpt>
      <trkpt lat="40.428200" lon="-5.293650">
        <ele>2227.0</ele>
        <time>2018-09-01T12:14:07Z</time>
      </trkpt>
      <trkpt lat="40.428133" lon="-5.293750">
        <ele>2227.0</ele>
        <time>2018-09-01T12:14:08Z</time>
      </trkpt>
      <trkpt lat="40.428050" lon="-5.293817">
        <ele>2227.0</ele>
        <time>2018-09-01T12:14:09Z</time>
      </trkpt>
      <trkpt lat="40.427983" lon="-5.293883">
        <ele>2228.0</ele>
        <time>2018-09-01T12:14:10Z</time>
      </trkpt>
      <trkpt lat="40.427900" lon="-5.293933">
        <ele>2229.0</ele>
        <time>2018-09-01T12:14:11Z</time>
      </trkpt>
      <trkpt lat="40.427817" lon="-5.293967">
        <ele>2229.0</ele>
        <time>2018-09-01T12:14:12Z</time>
      </trkpt>
      <trkpt lat="40.427717" lon="-5.293983">
        <ele>2228.0</ele>
        <time>2018-09-01T12:14:13Z</time>
      </trkpt>
      <trkpt lat="40.427600" lon="-5.293967">
        <ele>2226.0</ele>
        <time>2018-09-01T12:14:14Z</time>
      </trkpt>
      <trkpt lat="40.427483" lon="-5.293917">
        <ele>2225.0</ele>
        <time>2018-09-01T12:14:15Z</time>
      </trkpt>
      <trkpt lat="40.427367" lon="-5.293850">
        <ele>2225.0</ele>
        <time>2018-09-01T12:14:16Z</time>
      </trkpt>
      <trkpt lat="40.427250" lon="-5.293750">
        <ele>2226.0</ele>
        <time>2018-09-01T12:14:17Z</time>
      </trkpt>
      <trkpt lat="40.427167" lon="-5.293633">
        <ele>2227.0</ele>
        <time>2018-09-01T12:14:18Z</time>
      </trkpt>
      <trkpt lat="40.427083" lon="-5.293483">
        <ele>2228.0</ele>
        <time>2018-09-01T12:14:19Z</time>
      </trkpt>
      <trkpt lat="40.427000" lon="-5.293333">
        <ele>2229.0</ele>
        <time>2018-09-01T12:14:20Z</time>
      </trkpt>
      <trkpt lat="40.426933" lon="-5.293183">
        <ele>2231.0</ele>
        <time>2018-09-01T12:14:21Z</time>
      </trkpt>
      <trkpt lat="40.426883" lon="-5.293050">
        <ele>2234.0</ele>
        <time>2018-09-01T12:14:22Z</time>
      </trkpt>
      <trkpt lat="40.426833" lon="-5.292900">
        <ele>2236.0</ele>
        <time>2018-09-01T12:14:23Z</time>
      </trkpt>
      <trkpt lat="40.426817" lon="-5.292750">
        <ele>2239.0</ele>
        <time>2018-09-01T12:14:24Z</time>
      </trkpt>
      <trkpt lat="40.426800" lon="-5.292583">
        <ele>2242.0</ele>
        <time>2018-09-01T12:14:25Z</time>
      </trkpt>
      <trkpt lat="40.426783" lon="-5.292433">
        <ele>2245.0</ele>
        <time>2018-09-01T12:14:26Z</time>
      </trkpt>
      <trkpt lat="40.426783" lon="-5.292300">
        <ele>2248.0</ele>
        <time>2018-09-01T12:14:27Z</time>
      </trkpt>
      <trkpt lat="40.426800" lon="-5.292167">
        <ele>2250.0</ele>
        <time>2018-09-01T12:14:28Z</time>
      </trkpt>
      <trkpt lat="40.426833" lon="-5.292033">
        <ele>2251.0</ele>
        <time>2018-09-01T12:14:29Z</time>
      </trkpt>
      <trkpt lat="40.426900" lon="-5.291900">
        <ele>2253.0</ele>
        <time>2018-09-01T12:14:30Z</time>
      </trkpt>
      <trkpt lat="40.426967" lon="-5.291783">
        <ele>2254.0</ele>
        <time>2018-09-01T12:14:31Z</time>
      </trkpt>
      <trkpt lat="40.427067" lon="-5.291700">
        <ele>2256.0</ele>
        <time>2018-09-01T12:14:32Z</time>
      </trkpt>
      <trkpt lat="40.427150" lon="-5.291650">
        <ele>2257.0</ele>
        <time>2018-09-01T12:14:33Z</time>
      </trkpt>
      <trkpt lat="40.427250" lon="-5.291650">
        <ele>2258.0</ele>
        <time>2018-09-01T12:14:34Z</time>
      </trkpt>
      <trkpt lat="40.427333" lon="-5.291667">
        <ele>2259.0</ele>
        <time>2018-09-01T12:14:35Z</time>
      </trkpt>
      <trkpt lat="40.427400" lon="-5.291683">
        <ele>2259.0</ele>
        <time>2018-09-01T12:14:36Z</time>
      </trkpt>
      <trkpt lat="40.427467" lon="-5.291733">
        <ele>2259.0</ele>
        <time>2018-09-01T12:14:37Z</time>
      </trkpt>
      <trkpt lat="40.427533" lon="-5.291767">
        <ele>2259.0</ele>
        <time>2018-09-01T12:14:38Z</time>
      </trkpt>
      <trkpt lat="40.427583" lon="-5.291817">
        <ele>2259.0</ele>
        <time>2018-09-01T12:14:39Z</time>
      </trkpt>
      <trkpt lat="40.427633" lon="-5.291883">
        <ele>2257.0</ele>
        <time>2018-09-01T12:14:40Z</time>
      </trkpt>
      <trkpt lat="40.427683" lon="-5.291950">
        <ele>2256.0</ele>
        <time>2018-09-01T12:14:41Z</time>
      </trkpt>
      <trkpt lat="40.427717" lon="-5.292017">
        <ele>2256.0</ele>
        <time>2018-09-01T12:14:42Z</time>
      </trkpt>
      <trkpt lat="40.427733" lon="-5.292100">
        <ele>2255.0</ele>
        <time>2018-09-01T12:14:43Z</time>
      </trkpt>
      <trkpt lat="40.427750" lon="-5.292183">
        <ele>2253.0</ele>
        <time>2018-09-01T12:14:44Z</time>
      </trkpt>
      <trkpt lat="40.427733" lon="-5.292267">
        <ele>2252.0</ele>
        <time>2018-09-01T12:14:45Z</time>
      </trkpt>
      <trkpt lat="40.427733" lon="-5.292367">
        <ele>2250.0</ele>
        <time>2018-09-01T12:14:46Z</time>
      </trkpt>
      <trkpt lat="40.427717" lon="-5.292467">
        <ele>2249.0</ele>
        <time>2018-09-01T12:14:47Z</time>
      </trkpt>
      <trkpt lat="40.427683" lon="-5.292567">
        <ele>2249.0</ele>
        <time>2018-09-01T12:14:48Z</time>
      </trkpt>
      <trkpt lat="40.427633" lon="-5.292650">
        <ele>2248.0</ele>
        <time>2018-09-01T12:14:49Z</time>
      </trkpt>
      <trkpt lat="40.427567" lon="-5.292717">
        <ele>2248.0</ele>
        <time>2018-09-01T12:14:50Z</time>
      </trkpt>
      <trkpt lat="40.427500" lon="-5.292750">
        <ele>2248.0</ele>
        <time>2018-09-01T12:14:51Z</time>
      </trkpt>
      <trkpt lat="40.427433" lon="-5.292783">
        <ele>2247.0</ele>
        <time>2018-09-01T12:14:52Z</time>
      </trkpt>
      <trkpt lat="40.427350" lon="-5.292800">
        <ele>2245.0</ele>
        <time>2018-09-01T12:14:53Z</time>
      </trkpt>
      <trkpt lat="40.427233" lon="-5.292800">
        <ele>2242.0</ele>
        <time>2018-09-01T12:14:54Z</time>
      </trkpt>
      <trkpt lat="40.427100" lon="-5.292783">
        <ele>2239.0</ele>
        <time>2018-09-01T12:14:55Z</time>
      </trkpt>
      <trkpt lat="40.426967" lon="-5.292733">
        <ele>2236.0</ele>
        <time>2018-09-01T12:14:56Z</time>
      </trkpt>
      <trkpt lat="40.426833" lon="-5.292650">
        <ele>2235.0</ele>
        <time>2018-09-01T12:14:57Z</time>
      </trkpt>
      <trkpt lat="40.426717" lon="-5.292533">
        <ele>2234.0</ele>
        <time>2018-09-01T12:14:58Z</time>
      </trkpt>
      <trkpt lat="40.426617" lon="-5.292383">
        <ele>2233.0</ele>
        <time>2018-09-01T12:14:59Z</time>
      </trkpt>
      <trkpt lat="40.426550" lon="-5.292217">
        <ele>2232.0</ele>
        <time>2018-09-01T12:15:00Z</time>
      </trkpt>
      <trkpt lat="40.426483" lon="-5.292050">
        <ele>2232.0</ele>
        <time>2018-09-01T12:15:01Z</time>
      </trkpt>
      <trkpt lat="40.426450" lon="-5.291867">
        <ele>2232.0</ele>
        <time>2018-09-01T12:15:02Z</time>
      </trkpt>
      <trkpt lat="40.426450" lon="-5.291700">
        <ele>2231.0</ele>
        <time>2018-09-01T12:15:03Z</time>
      </trkpt>
      <trkpt lat="40.426450" lon="-5.291517">
        <ele>2230.0</ele>
        <time>2018-09-01T12:15:04Z</time>
      </trkpt>
      <trkpt lat="40.426483" lon="-5.291333">
        <ele>2229.0</ele>
        <time>2018-09-01T12:15:05Z</time>
      </trkpt>
      <trkpt lat="40.426550" lon="-5.291167">
        <ele>2228.0</ele>
        <time>2018-09-01T12:15:06Z</time>
      </trkpt>
      <trkpt lat="40.426617" lon="-5.291017">
        <ele>2228.0</ele>
        <time>2018-09-01T12:15:07Z</time>
      </trkpt>
      <trkpt lat="40.426683" lon="-5.290900">
        <ele>2229.0</ele>
        <time>2018-09-01T12:15:08Z</time>
      </trkpt>
      <trkpt lat="40.426750" lon="-5.290817">
        <ele>2229.0</ele>
        <time>2018-09-01T12:15:09Z</time>
      </trkpt>
      <trkpt lat="40.426817" lon="-5.290767">
        <ele>2229.0</ele>
        <time>2018-09-01T12:15:10Z</time>
      </trkpt>
      <trkpt lat="40.426883" lon="-5.290733">
        <ele>2229.0</ele>
        <time>2018-09-01T12:15:11Z</time>
      </trkpt>
      <trkpt lat="40.426933" lon="-5.290733">
        <ele>2228.0</ele>
        <time>2018-09-01T12:15:12Z</time>
      </trkpt>
      <trkpt lat="40.426983" lon="-5.290767">
        <ele>2227.0</ele>
        <time>2018-09-01T12:15:13Z</time>
      </trkpt>
      <trkpt lat="40.427017" lon="-5.290833">
        <ele>2226.0</ele>
        <time>2018-09-01T12:15:14Z</time>
      </trkpt>
      <trkpt lat="40.427033" lon="-5.290900">
        <ele>2226.0</ele>
        <time>2018-09-01T12:15:15Z</time>
      </trkpt>
      <trkpt lat="40.427050" lon="-5.290950">
        <ele>2226.0</ele>
        <time>2018-09-01T12:15:16Z</time>
      </trkpt>
      <trkpt lat="40.427067" lon="-5.291017">
        <ele>2226.0</ele>
        <time>2018-09-01T12:15:17Z</time>
      </trkpt>
      <trkpt lat="40.427067" lon="-5.291067">
        <ele>2225.0</ele>
        <time>2018-09-01T12:15:18Z</time>
      </trkpt>
      <trkpt lat="40.427067" lon="-5.291133">
        <ele>2224.0</ele>
        <time>2018-09-01T12:15:19Z</time>
      </trkpt>
      <trkpt lat="40.427050" lon="-5.291200">
        <ele>2225.0</ele>
        <time>2018-09-01T12:15:20Z</time>
      </trkpt>
      <trkpt lat="40.427017" lon="-5.291267">
        <ele>2225.0</ele>
        <time>2018-09-01T12:15:21Z</time>
      </trkpt>
      <trkpt lat="40.426983" lon="-5.291317">
        <ele>2224.0</ele>
        <time>2018-09-01T12:15:22Z</time>
      </trkpt>
      <trkpt lat="40.426950" lon="-5.291383">
        <ele>2222.0</ele>
        <time>2018-09-01T12:15:23Z</time>
      </trkpt>
      <trkpt lat="40.426917" lon="-5.291433">
        <ele>2220.0</ele>
        <time>2018-09-01T12:15:24Z</time>
      </trkpt>
      <trkpt lat="40.426883" lon="-5.291517">
        <ele>2218.0</ele>
        <time>2018-09-01T12:15:25Z</time>
      </trkpt>
      <trkpt lat="40.426883" lon="-5.291600">
        <ele>2217.0</ele>
        <time>2018-09-01T12:15:26Z</time>
      </trkpt>
      <trkpt lat="40.426867" lon="-5.291667">
        <ele>2216.0</ele>
        <time>2018-09-01T12:15:27Z</time>
      </trkpt>
      <trkpt lat="40.426850" lon="-5.291733">
        <ele>2215.0</ele>
        <time>2018-09-01T12:15:28Z</time>
      </trkpt>
      <trkpt lat="40.426850" lon="-5.291800">
        <ele>2215.0</ele>
        <time>2018-09-01T12:15:29Z</time>
      </trkpt>
      <trkpt lat="40.426850" lon="-5.291867">
        <ele>2215.0</ele>
        <time>2018-09-01T12:15:30Z</time>
      </trkpt>
      <trkpt lat="40.426833" lon="-5.291933">
        <ele>2215.0</ele>
        <time>2018-09-01T12:15:31Z</time>
      </trkpt>
      <trkpt lat="40.426833" lon="-5.292033">
        <ele>2214.0</ele>
        <time>2018-09-01T12:15:32Z</time>
      </trkpt>
      <trkpt lat="40.426833" lon="-5.292133">
        <ele>2214.0</ele>
        <time>2018-09-01T12:15:33Z</time>
      </trkpt>
      <trkpt lat="40.426833" lon="-5.292233">
        <ele>2213.0</ele>
        <time>2018-09-01T12:15:34Z</time>
      </trkpt>
      <trkpt lat="40.426850" lon="-5.292317">
        <ele>2214.0</ele>
        <time>2018-09-01T12:15:35Z</time>
      </trkpt>
      <trkpt lat="40.426867" lon="-5.292383">
        <ele>2214.0</ele>
        <time>2018-09-01T12:15:36Z</time>
      </trkpt>
      <trkpt lat="40.426900" lon="-5.292450">
        <ele>2214.0</ele>
        <time>2018-09-01T12:15:37Z</time>
      </trkpt>
      <trkpt lat="40.426917" lon="-5.292500">
        <ele>2214.0</ele>
        <time>2018-09-01T12:15:38Z</time>
      </trkpt>
      <trkpt lat="40.426917" lon="-5.292567">
        <ele>2214.0</ele>
        <time>2018-09-01T12:15:39Z</time>
      </trkpt>
      <trkpt lat="40.426933" lon="-5.292650">
        <ele>2213.0</ele>
        <time>2018-09-01T12:15:40Z</time>
      </trkpt>
      <trkpt lat="40.426933" lon="-5.292733">
        <ele>2214.0</ele>
        <time>2018-09-01T12:15:41Z</time>
      </trkpt>
      <trkpt lat="40.426950" lon="-5.292800">
        <ele>2217.0</ele>
        <time>2018-09-01T12:15:42Z</time>
      </trkpt>
      <trkpt lat="40.426950" lon="-5.292883">
        <ele>2218.0</ele>
        <time>2018-09-01T12:15:43Z</time>
      </trkpt>
      <trkpt lat="40.426933" lon="-5.292967">
        <ele>2219.0</ele>
        <time>2018-09-01T12:15:44Z</time>
      </trkpt>
      <trkpt lat="40.426900" lon="-5.293033">
        <ele>2220.0</ele>
        <time>2018-09-01T12:15:45Z</time>
      </trkpt>
      <trkpt lat="40.426833" lon="-5.293100">
        <ele>2221.0</ele>
        <time>2018-09-01T12:15:46Z</time>
      </trkpt>
      <trkpt lat="40.426767" lon="-5.293150">
        <ele>2222.0</ele>
        <time>2018-09-01T12:15:47Z</time>
      </trkpt>
      <trkpt lat="40.426700" lon="-5.293183">
        <ele>2223.0</ele>
        <time>2018-09-01T12:15:48Z</time>
      </trkpt>
      <trkpt lat="40.426617" lon="-5.293217">
        <ele>2224.0</ele>
        <time>2018-09-01T12:15:49Z</time>
      </trkpt>
      <trkpt lat="40.426533" lon="-5.293233">
        <ele>2224.0</ele>
        <time>2018-09-01T12:15:50Z</time>
      </trkpt>
      <trkpt lat="40.426433" lon="-5.293250">
        <ele>2222.0</ele>
        <time>2018-09-01T12:15:51Z</time>
      </trkpt>
      <trkpt lat="40.426333" lon="-5.293233">
        <ele>2221.0</ele>
        <time>2018-09-01T12:15:52Z</time>
      </trkpt>
      <trkpt lat="40.426233" lon="-5.293217">
        <ele>2220.0</ele>
        <time>2018-09-01T12:15:53Z</time>
      </trkpt>
      <trkpt lat="40.426117" lon="-5.293200">
        <ele>2219.0</ele>
        <time>2018-09-01T12:15:54Z</time>
      </trkpt>
      <trkpt lat="40.426017" lon="-5.293200">
        <ele>2218.0</ele>
        <time>2018-09-01T12:15:55Z</time>
      </trkpt>
      <trkpt lat="40.425933" lon="-5.293200">
        <ele>2216.0</ele>
        <time>2018-09-01T12:15:56Z</time>
      </trkpt>
      <trkpt lat="40.425867" lon="-5.293250">
        <ele>2213.0</ele>
        <time>2018-09-01T12:15:57Z</time>
      </trkpt>
      <trkpt lat="40.425783" lon="-5.293300">
        <ele>2210.0</ele>
        <time>2018-09-01T12:15:58Z</time>
      </trkpt>
      <trkpt lat="40.425717" lon="-5.293367">
        <ele>2206.0</ele>
        <time>2018-09-01T12:15:59Z</time>
      </trkpt>
      <trkpt lat="40.425650" lon="-5.293467">
        <ele>2204.0</ele>
        <time>2018-09-01T12:16:00Z</time>
      </trkpt>
      <trkpt lat="40.425600" lon="-5.293550">
        <ele>2202.0</ele>
        <time>2018-09-01T12:16:01Z</time>
      </trkpt>
      <trkpt lat="40.425567" lon="-5.293633">
        <ele>2200.0</ele>
        <time>2018-09-01T12:16:02Z</time>
      </trkpt>
      <trkpt lat="40.425550" lon="-5.293717">
        <ele>2198.0</ele>
        <time>2018-09-01T12:16:03Z</time>
      </trkpt>
      <trkpt lat="40.425550" lon="-5.293800">
        <ele>2194.0</ele>
        <time>2018-09-01T12:16:04Z</time>
      </trkpt>
      <trkpt lat="40.425533" lon="-5.293883">
        <ele>2191.0</ele>
        <time>2018-09-01T12:16:05Z</time>
      </trkpt>
      <trkpt lat="40.425517" lon="-5.294000">
        <ele>2188.0</ele>
        <time>2018-09-01T12:16:06Z</time>
      </trkpt>
      <trkpt lat="40.425500" lon="-5.294117">
        <ele>2187.0</ele>
        <time>2018-09-01T12:16:07Z</time>
      </trkpt>
      <trkpt lat="40.425483" lon="-5.294217">
        <ele>2187.0</ele>
        <time>2018-09-01T12:16:08Z</time>
      </trkpt>
      <trkpt lat="40.425467" lon="-5.294300">
        <ele>2187.0</ele>
        <time>2018-09-01T12:16:09Z</time>
      </trkpt>
      <trkpt lat="40.425467" lon="-5.294367">
        <ele>2186.0</ele>
        <time>2018-09-01T12:16:10Z</time>
      </trkpt>
      <trkpt lat="40.425467" lon="-5.294450">
        <ele>2185.0</ele>
        <time>2018-09-01T12:16:11Z</time>
      </trkpt>
      <trkpt lat="40.425450" lon="-5.294517">
        <ele>2182.0</ele>
        <time>2018-09-01T12:16:12Z</time>
      </trkpt>
      <trkpt lat="40.425450" lon="-5.294600">
        <ele>2180.0</ele>
        <time>2018-09-01T12:16:13Z</time>
      </trkpt>
      <trkpt lat="40.425417" lon="-5.294667">
        <ele>2177.0</ele>
        <time>2018-09-01T12:16:14Z</time>
      </trkpt>
      <trkpt lat="40.425417" lon="-5.294750">
        <ele>2176.0</ele>
        <time>2018-09-01T12:16:15Z</time>
      </trkpt>
      <trkpt lat="40.425417" lon="-5.294833">
        <ele>2174.0</ele>
        <time>2018-09-01T12:16:16Z</time>
      </trkpt>
      <trkpt lat="40.425417" lon="-5.294900">
        <ele>2171.0</ele>
        <time>2018-09-01T12:16:17Z</time>
      </trkpt>
      <trkpt lat="40.425433" lon="-5.294967">
        <ele>2169.0</ele>
        <time>2018-09-01T12:16:18Z</time>
      </trkpt>
      <trkpt lat="40.425450" lon="-5.295050">
        <ele>2167.0</ele>
        <time>2018-09-01T12:16:19Z</time>
      </trkpt>
      <trkpt lat="40.425433" lon="-5.295150">
        <ele>2166.0</ele>
        <time>2018-09-01T12:16:20Z</time>
      </trkpt>
      <trkpt lat="40.425450" lon="-5.295233">
        <ele>2164.0</ele>
        <time>2018-09-01T12:16:21Z</time>
      </trkpt>
      <trkpt lat="40.425467" lon="-5.295317">
        <ele>2162.0</ele>
        <time>2018-09-01T12:16:22Z</time>
      </trkpt>
      <trkpt lat="40.425517" lon="-5.295367">
        <ele>2161.0</ele>
        <time>2018-09-01T12:16:23Z</time>
      </trkpt>
      <trkpt lat="40.425567" lon="-5.295400">
        <ele>2159.0</ele>
        <time>2018-09-01T12:16:24Z</time>
      </trkpt>
      <trkpt lat="40.425617" lon="-5.295417">
        <ele>2158.0</ele>
        <time>2018-09-01T12:16:25Z</time>
      </trkpt>
      <trkpt lat="40.425667" lon="-5.295433">
        <ele>2156.0</ele>
        <time>2018-09-01T12:16:26Z</time>
      </trkpt>
      <trkpt lat="40.425733" lon="-5.295450">
        <ele>2153.0</ele>
        <time>2018-09-01T12:16:27Z</time>
      </trkpt>
      <trkpt lat="40.425800" lon="-5.295467">
        <ele>2151.0</ele>
        <time>2018-09-01T12:16:28Z</time>
      </trkpt>
      <trkpt lat="40.425867" lon="-5.295483">
        <ele>2148.0</ele>
        <time>2018-09-01T12:16:29Z</time>
      </trkpt>
      <trkpt lat="40.425933" lon="-5.295500">
        <ele>2145.0</ele>
        <time>2018-09-01T12:16:30Z</time>
      </trkpt>
      <trkpt lat="40.426017" lon="-5.295533">
        <ele>2143.0</ele>
        <time>2018-09-01T12:16:31Z</time>
      </trkpt>
      <trkpt lat="40.426083" lon="-5.295550">
        <ele>2140.0</ele>
        <time>2018-09-01T12:16:32Z</time>
      </trkpt>
      <trkpt lat="40.426150" lon="-5.295583">
        <ele>2137.0</ele>
        <time>2018-09-01T12:16:33Z</time>
      </trkpt>
      <trkpt lat="40.426233" lon="-5.295617">
        <ele>2134.0</ele>
        <time>2018-09-01T12:16:34Z</time>
      </trkpt>
      <trkpt lat="40.426300" lon="-5.295650">
        <ele>2131.0</ele>
        <time>2018-09-01T12:16:35Z</time>
      </trkpt>
      <trkpt lat="40.426367" lon="-5.295683">
        <ele>2128.0</ele>
        <time>2018-09-01T12:16:36Z</time>
      </trkpt>
      <trkpt lat="40.426417" lon="-5.295717">
        <ele>2125.0</ele>
        <time>2018-09-01T12:16:37Z</time>
      </trkpt>
      <trkpt lat="40.426483" lon="-5.295767">
        <ele>2123.0</ele>
        <time>2018-09-01T12:16:38Z</time>
      </trkpt>
      <trkpt lat="40.426533" lon="-5.295817">
        <ele>2120.0</ele>
        <time>2018-09-01T12:16:39Z</time>
      </trkpt>
      <trkpt lat="40.426600" lon="-5.295867">
        <ele>2116.0</ele>
        <time>2018-09-01T12:16:40Z</time>
      </trkpt>
      <trkpt lat="40.426667" lon="-5.295917">
        <ele>2113.0</ele>
        <time>2018-09-01T12:16:41Z</time>
      </trkpt>
      <trkpt lat="40.426717" lon="-5.295967">
        <ele>2110.0</ele>
        <time>2018-09-01T12:16:42Z</time>
      </trkpt>
      <trkpt lat="40.426767" lon="-5.296000">
        <ele>2106.0</ele>
        <time>2018-09-01T12:16:43Z</time>
      </trkpt>
      <trkpt lat="40.426800" lon="-5.296050">
        <ele>2103.0</ele>
        <time>2018-09-01T12:16:44Z</time>
      </trkpt>
      <trkpt lat="40.426850" lon="-5.296117">
        <ele>2099.0</ele>
        <time>2018-09-01T12:16:45Z</time>
      </trkpt>
      <trkpt lat="40.426900" lon="-5.296167">
        <ele>2095.0</ele>
        <time>2018-09-01T12:16:46Z</time>
      </trkpt>
      <trkpt lat="40.426967" lon="-5.296233">
        <ele>2092.0</ele>
        <time>2018-09-01T12:16:47Z</time>
      </trkpt>
      <trkpt lat="40.427033" lon="-5.296267">
        <ele>2089.0</ele>
        <time>2018-09-01T12:16:48Z</time>
      </trkpt>
      <trkpt lat="40.427100" lon="-5.296300">
        <ele>2088.0</ele>
        <time>2018-09-01T12:16:49Z</time>
      </trkpt>
      <trkpt lat="40.427167" lon="-5.296317">
        <ele>2086.0</ele>
        <time>2018-09-01T12:16:50Z</time>
      </trkpt>
      <trkpt lat="40.427233" lon="-5.296333">
        <ele>2084.0</ele>
        <time>2018-09-01T12:16:51Z</time>
      </trkpt>
      <trkpt lat="40.427300" lon="-5.296350">
        <ele>2081.0</ele>
        <time>2018-09-01T12:16:52Z</time>
      </trkpt>
      <trkpt lat="40.427383" lon="-5.296383">
        <ele>2079.0</ele>
        <time>2018-09-01T12:16:53Z</time>
      </trkpt>
      <trkpt lat="40.427467" lon="-5.296400">
        <ele>2077.0</ele>
        <time>2018-09-01T12:16:54Z</time>
      </trkpt>
      <trkpt lat="40.427550" lon="-5.296433">
        <ele>2076.0</ele>
        <time>2018-09-01T12:16:55Z</time>
      </trkpt>
      <trkpt lat="40.427633" lon="-5.296450">
        <ele>2075.0</ele>
        <time>2018-09-01T12:16:56Z</time>
      </trkpt>
      <trkpt lat="40.427717" lon="-5.296450">
        <ele>2074.0</ele>
        <time>2018-09-01T12:16:57Z</time>
      </trkpt>
      <trkpt lat="40.427800" lon="-5.296467">
        <ele>2074.0</ele>
        <time>2018-09-01T12:16:58Z</time>
      </trkpt>
      <trkpt lat="40.427900" lon="-5.296500">
        <ele>2073.0</ele>
        <time>2018-09-01T12:16:59Z</time>
      </trkpt>
      <trkpt lat="40.428000" lon="-5.296550">
        <ele>2072.0</ele>
        <time>2018-09-01T12:17:00Z</time>
      </trkpt>
      <trkpt lat="40.428083" lon="-5.296600">
        <ele>2074.0</ele>
        <time>2018-09-01T12:17:01Z</time>
      </trkpt>
      <trkpt lat="40.428167" lon="-5.296617">
        <ele>2077.0</ele>
        <time>2018-09-01T12:17:02Z</time>
      </trkpt>
      <trkpt lat="40.428233" lon="-5.296633">
        <ele>2081.0</ele>
        <time>2018-09-01T12:17:03Z</time>
      </trkpt>
      <trkpt lat="40.428300" lon="-5.296650">
        <ele>2083.0</ele>
        <time>2018-09-01T12:17:04Z</time>
      </trkpt>
      <trkpt lat="40.428367" lon="-5.296683">
        <ele>2083.0</ele>
        <time>2018-09-01T12:17:05Z</time>
      </trkpt>
      <trkpt lat="40.428433" lon="-5.296733">
        <ele>2082.0</ele>
        <time>2018-09-01T12:17:06Z</time>
      </trkpt>
      <trkpt lat="40.428500" lon="-5.296783">
        <ele>2081.0</ele>
        <time>2018-09-01T12:17:07Z</time>
      </trkpt>
      <trkpt lat="40.428583" lon="-5.296833">
        <ele>2082.0</ele>
        <time>2018-09-01T12:17:08Z</time>
      </trkpt>
      <trkpt lat="40.428650" lon="-5.296900">
        <ele>2083.0</ele>
        <time>2018-09-01T12:17:09Z</time>
      </trkpt>
      <trkpt lat="40.428717" lon="-5.296967">
        <ele>2085.0</ele>
        <time>2018-09-01T12:17:10Z</time>
      </trkpt>
      <trkpt lat="40.428767" lon="-5.297050">
        <ele>2087.0</ele>
        <time>2018-09-01T12:17:11Z</time>
      </trkpt>
      <trkpt lat="40.428800" lon="-5.297117">
        <ele>2088.0</ele>
        <time>2018-09-01T12:17:12Z</time>
      </trkpt>
      <trkpt lat="40.428850" lon="-5.297200">
        <ele>2089.0</ele>
        <time>2018-09-01T12:17:13Z</time>
      </trkpt>
      <trkpt lat="40.428900" lon="-5.297283">
        <ele>2089.0</ele>
        <time>2018-09-01T12:17:14Z</time>
      </trkpt>
      <trkpt lat="40.428933" lon="-5.297383">
        <ele>2090.0</ele>
        <time>2018-09-01T12:17:15Z</time>
      </trkpt>
      <trkpt lat="40.428983" lon="-5.297500">
        <ele>2093.0</ele>
        <time>2018-09-01T12:17:16Z</time>
      </trkpt>
      <trkpt lat="40.429017" lon="-5.297600">
        <ele>2096.0</ele>
        <time>2018-09-01T12:17:17Z</time>
      </trkpt>
      <trkpt lat="40.429033" lon="-5.297700">
        <ele>2100.0</ele>
        <time>2018-09-01T12:17:18Z</time>
      </trkpt>
      <trkpt lat="40.429033" lon="-5.297783">
        <ele>2104.0</ele>
        <time>2018-09-01T12:17:19Z</time>
      </trkpt>
      <trkpt lat="40.429017" lon="-5.297867">
        <ele>2108.0</ele>
        <time>2018-09-01T12:17:20Z</time>
      </trkpt>
      <trkpt lat="40.428983" lon="-5.297950">
        <ele>2111.0</ele>
        <time>2018-09-01T12:17:21Z</time>
      </trkpt>
      <trkpt lat="40.428917" lon="-5.298000">
        <ele>2111.0</ele>
        <time>2018-09-01T12:17:22Z</time>
      </trkpt>
      <trkpt lat="40.428833" lon="-5.298050">
        <ele>2110.0</ele>
        <time>2018-09-01T12:17:23Z</time>
      </trkpt>
      <trkpt lat="40.428733" lon="-5.298067">
        <ele>2109.0</ele>
        <time>2018-09-01T12:17:24Z</time>
      </trkpt>
      <trkpt lat="40.428617" lon="-5.298083">
        <ele>2110.0</ele>
        <time>2018-09-01T12:17:25Z</time>
      </trkpt>
      <trkpt lat="40.428500" lon="-5.298100">
        <ele>2113.0</ele>
        <time>2018-09-01T12:17:26Z</time>
      </trkpt>
      <trkpt lat="40.428383" lon="-5.298083">
        <ele>2118.0</ele>
        <time>2018-09-01T12:17:27Z</time>
      </trkpt>
      <trkpt lat="40.428283" lon="-5.298050">
        <ele>2123.0</ele>
        <time>2018-09-01T12:17:28Z</time>
      </trkpt>
      <trkpt lat="40.428200" lon="-5.297983">
        <ele>2127.0</ele>
        <time>2018-09-01T12:17:29Z</time>
      </trkpt>
      <trkpt lat="40.428133" lon="-5.297933">
        <ele>2131.0</ele>
        <time>2018-09-01T12:17:30Z</time>
      </trkpt>
      <trkpt lat="40.428067" lon="-5.297867">
        <ele>2132.0</ele>
        <time>2018-09-01T12:17:31Z</time>
      </trkpt>
      <trkpt lat="40.428000" lon="-5.297800">
        <ele>2132.0</ele>
        <time>2018-09-01T12:17:32Z</time>
      </trkpt>
      <trkpt lat="40.427917" lon="-5.297717">
        <ele>2133.0</ele>
        <time>2018-09-01T12:17:33Z</time>
      </trkpt>
      <trkpt lat="40.427833" lon="-5.297617">
        <ele>2135.0</ele>
        <time>2018-09-01T12:17:34Z</time>
      </trkpt>
      <trkpt lat="40.427783" lon="-5.297500">
        <ele>2137.0</ele>
        <time>2018-09-01T12:17:35Z</time>
      </trkpt>
      <trkpt lat="40.427783" lon="-5.297383">
        <ele>2139.0</ele>
        <time>2018-09-01T12:17:36Z</time>
      </trkpt>
      <trkpt lat="40.427800" lon="-5.297250">
        <ele>2141.0</ele>
        <time>2018-09-01T12:17:37Z</time>
      </trkpt>
      <trkpt lat="40.427850" lon="-5.297133">
        <ele>2142.0</ele>
        <time>2018-09-01T12:17:38Z</time>
      </trkpt>
      <trkpt lat="40.427900" lon="-5.297017">
        <ele>2145.0</ele>
        <time>2018-09-01T12:17:39Z</time>
      </trkpt>
      <trkpt lat="40.427967" lon="-5.296917">
        <ele>2147.0</ele>
        <time>2018-09-01T12:17:40Z</time>
      </trkpt>
      <trkpt lat="40.428033" lon="-5.296833">
        <ele>2150.0</ele>
        <time>2018-09-01T12:17:41Z</time>
      </trkpt>
      <trkpt lat="40.428117" lon="-5.296783">
        <ele>2152.0</ele>
        <time>2018-09-01T12:17:42Z</time>
      </trkpt>
      <trkpt lat="40.428183" lon="-5.296733">
        <ele>2154.0</ele>
        <time>2018-09-01T12:17:43Z</time>
      </trkpt>
      <trkpt lat="40.428267" lon="-5.296700">
        <ele>2155.0</ele>
        <time>2018-09-01T12:17:44Z</time>
      </trkpt>
      <trkpt lat="40.428333" lon="-5.296683">
        <ele>2156.0</ele>
        <time>2018-09-01T12:17:45Z</time>
      </trkpt>
      <trkpt lat="40.428417" lon="-5.296667">
        <ele>2157.0</ele>
        <time>2018-09-01T12:17:46Z</time>
      </trkpt>
      <trkpt lat="40.428500" lon="-5.296683">
        <ele>2159.0</ele>
        <time>2018-09-01T12:17:47Z</time>
      </trkpt>
      <trkpt lat="40.428583" lon="-5.296733">
        <ele>2161.0</ele>
        <time>2018-09-01T12:17:48Z</time>
      </trkpt>
      <trkpt lat="40.428633" lon="-5.296783">
        <ele>2163.0</ele>
        <time>2018-09-01T12:17:49Z</time>
      </trkpt>
      <trkpt lat="40.428700" lon="-5.296867">
        <ele>2164.0</ele>
        <time>2018-09-01T12:17:50Z</time>
      </trkpt>
      <trkpt lat="40.428767" lon="-5.296933">
        <ele>2167.0</ele>
        <time>2018-09-01T12:17:51Z</time>
      </trkpt>
      <trkpt lat="40.428817" lon="-5.297000">
        <ele>2171.0</ele>
        <time>2018-09-01T12:17:52Z</time>
      </trkpt>
      <trkpt lat="40.428867" lon="-5.297050">
        <ele>2175.0</ele>
        <time>2018-09-01T12:17:53Z</time>
      </trkpt>
      <trkpt lat="40.428883" lon="-5.297100">
        <ele>2177.0</ele>
        <time>2018-09-01T12:17:54Z</time>
      </trkpt>
      <trkpt lat="40.428883" lon="-5.297150">
        <ele>2178.0</ele>
        <time>2018-09-01T12:17:55Z</time>
      </trkpt>
      <trkpt lat="40.428883" lon="-5.297217">
        <ele>2176.0</ele>
        <time>2018-09-01T12:17:56Z</time>
      </trkpt>
      <trkpt lat="40.428867" lon="-5.297317">
        <ele>2175.0</ele>
        <time>2018-09-01T12:17:57Z</time>
      </trkpt>
      <trkpt lat="40.428867" lon="-5.297417">
        <ele>2173.0</ele>
        <time>2018-09-01T12:17:58Z</time>
      </trkpt>
      <trkpt lat="40.428867" lon="-5.297533">
        <ele>2174.0</ele>
        <time>2018-09-01T12:17:59Z</time>
      </trkpt>
      <trkpt lat="40.428833" lon="-5.297633">
        <ele>2176.0</ele>
        <time>2018-09-01T12:18:00Z</time>
      </trkpt>
      <trkpt lat="40.428783" lon="-5.297717">
        <ele>2177.0</ele>
        <time>2018-09-01T12:18:01Z</time>
      </trkpt>
      <trkpt lat="40.428717" lon="-5.297767">
        <ele>2177.0</ele>
        <time>2018-09-01T12:18:02Z</time>
      </trkpt>
      <trkpt lat="40.428633" lon="-5.297817">
        <ele>2176.0</ele>
        <time>2018-09-01T12:18:03Z</time>
      </trkpt>
      <trkpt lat="40.428533" lon="-5.297867">
        <ele>2175.0</ele>
        <time>2018-09-01T12:18:04Z</time>
      </trkpt>
      <trkpt lat="40.428417" lon="-5.297900">
        <ele>2175.0</ele>
        <time>2018-09-01T12:18:05Z</time>
      </trkpt>
      <trkpt lat="40.428300" lon="-5.297900">
        <ele>2177.0</ele>
        <time>2018-09-01T12:18:06Z</time>
      </trkpt>
      <trkpt lat="40.428183" lon="-5.297867">
        <ele>2179.0</ele>
        <time>2018-09-01T12:18:07Z</time>
      </trkpt>
      <trkpt lat="40.428067" lon="-5.297800">
        <ele>2183.0</ele>
        <time>2018-09-01T12:18:08Z</time>
      </trkpt>
      <trkpt lat="40.427967" lon="-5.297750">
        <ele>2189.0</ele>
        <time>2018-09-01T12:18:09Z</time>
      </trkpt>
      <trkpt lat="40.427883" lon="-5.297700">
        <ele>2195.0</ele>
        <time>2018-09-01T12:18:10Z</time>
      </trkpt>
      <trkpt lat="40.427817" lon="-5.297650">
        <ele>2199.0</ele>
        <time>2018-09-01T12:18:11Z</time>
      </trkpt>
      <trkpt lat="40.427750" lon="-5.297583">
        <ele>2202.0</ele>
        <time>2018-09-01T12:18:12Z</time>
      </trkpt>
      <trkpt lat="40.427667" lon="-5.297500">
        <ele>2202.0</ele>
        <time>2018-09-01T12:18:13Z</time>
      </trkpt>
      <trkpt lat="40.427583" lon="-5.297383">
        <ele>2202.0</ele>
        <time>2018-09-01T12:18:14Z</time>
      </trkpt>
      <trkpt lat="40.427517" lon="-5.297233">
        <ele>2203.0</ele>
        <time>2018-09-01T12:18:15Z</time>
      </trkpt>
      <trkpt lat="40.427467" lon="-5.297067">
        <ele>2207.0</ele>
        <time>2018-09-01T12:18:16Z</time>
      </trkpt>
      <trkpt lat="40.427450" lon="-5.296917">
        <ele>2212.0</ele>
        <time>2018-09-01T12:18:17Z</time>
      </trkpt>
      <trkpt lat="40.427433" lon="-5.296783">
        <ele>2216.0</ele>
        <time>2018-09-01T12:18:18Z</time>
      </trkpt>
      <trkpt lat="40.427433" lon="-5.296683">
        <ele>2221.0</ele>
        <time>2018-09-01T12:18:19Z</time>
      </trkpt>
      <trkpt lat="40.427433" lon="-5.296567">
        <ele>2225.0</ele>
        <time>2018-09-01T12:18:20Z</time>
      </trkpt>
      <trkpt lat="40.427450" lon="-5.296450">
        <ele>2228.0</ele>
        <time>2018-09-01T12:18:21Z</time>
      </trkpt>
      <trkpt lat="40.427450" lon="-5.296317">
        <ele>2230.0</ele>
        <time>2018-09-01T12:18:22Z</time>
      </trkpt>
      <trkpt lat="40.427450" lon="-5.296167">
        <ele>2232.0</ele>
        <time>2018-09-01T12:18:23Z</time>
      </trkpt>
      <trkpt lat="40.427467" lon="-5.296033">
        <ele>2234.0</ele>
        <time>2018-09-01T12:18:24Z</time>
      </trkpt>
      <trkpt lat="40.427500" lon="-5.295917">
        <ele>2235.0</ele>
        <time>2018-09-01T12:18:25Z</time>
      </trkpt>
      <trkpt lat="40.427583" lon="-5.295817">
        <ele>2235.0</ele>
        <time>2018-09-01T12:18:26Z</time>
      </trkpt>
      <trkpt lat="40.427683" lon="-5.295733">
        <ele>2235.0</ele>
        <time>2018-09-01T12:18:27Z</time>
      </trkpt>
      <trkpt lat="40.427800" lon="-5.295700">
        <ele>2237.0</ele>
        <time>2018-09-01T12:18:28Z</time>
      </trkpt>
      <trkpt lat="40.427900" lon="-5.295700">
        <ele>2240.0</ele>
        <time>2018-09-01T12:18:29Z</time>
      </trkpt>
      <trkpt lat="40.427967" lon="-5.295733">
        <ele>2244.0</ele>
        <time>2018-09-01T12:18:30Z</time>
      </trkpt>
      <trkpt lat="40.428017" lon="-5.295783">
        <ele>2248.0</ele>
        <time>2018-09-01T12:18:31Z</time>
      </trkpt>
      <trkpt lat="40.428050" lon="-5.295817">
        <ele>2250.0</ele>
        <time>2018-09-01T12:18:32Z</time>
      </trkpt>
      <trkpt lat="40.428100" lon="-5.295867">
        <ele>2251.0</ele>
        <time>2018-09-01T12:18:33Z</time>
      </trkpt>
      <trkpt lat="40.428167" lon="-5.295917">
        <ele>2252.0</ele>
        <time>2018-09-01T12:18:34Z</time>
      </trkpt>
      <trkpt lat="40.428217" lon="-5.296000">
        <ele>2255.0</ele>
        <time>2018-09-01T12:18:35Z</time>
      </trkpt>
      <trkpt lat="40.428250" lon="-5.296083">
        <ele>2257.0</ele>
        <time>2018-09-01T12:18:36Z</time>
      </trkpt>
      <trkpt lat="40.428250" lon="-5.296167">
        <ele>2261.0</ele>
        <time>2018-09-01T12:18:37Z</time>
      </trkpt>
      <trkpt lat="40.428250" lon="-5.296267">
        <ele>2263.0</ele>
        <time>2018-09-01T12:18:38Z</time>
      </trkpt>
      <trkpt lat="40.428217" lon="-5.296333">
        <ele>2265.0</ele>
        <time>2018-09-01T12:18:39Z</time>
      </trkpt>
      <trkpt lat="40.428183" lon="-5.296400">
        <ele>2266.0</ele>
        <time>2018-09-01T12:18:40Z</time>
      </trkpt>
      <trkpt lat="40.428150" lon="-5.296483">
        <ele>2266.0</ele>
        <time>2018-09-01T12:18:41Z</time>
      </trkpt>
      <trkpt lat="40.428083" lon="-5.296567">
        <ele>2266.0</ele>
        <time>2018-09-01T12:18:42Z</time>
      </trkpt>
      <trkpt lat="40.427983" lon="-5.296650">
        <ele>2266.0</ele>
        <time>2018-09-01T12:18:43Z</time>
      </trkpt>
      <trkpt lat="40.427867" lon="-5.296650">
        <ele>2268.0</ele>
        <time>2018-09-01T12:18:44Z</time>
      </trkpt>
      <trkpt lat="40.427733" lon="-5.296583">
        <ele>2270.0</ele>
        <time>2018-09-01T12:18:45Z</time>
      </trkpt>
      <trkpt lat="40.427633" lon="-5.296483">
        <ele>2273.0</ele>
        <time>2018-09-01T12:18:46Z</time>
      </trkpt>
      <trkpt lat="40.427567" lon="-5.296350">
        <ele>2278.0</ele>
        <time>2018-09-01T12:18:47Z</time>
      </trkpt>
      <trkpt lat="40.427533" lon="-5.296233">
        <ele>2282.0</ele>
        <time>2018-09-01T12:18:48Z</time>
      </trkpt>
      <trkpt lat="40.427500" lon="-5.296117">
        <ele>2284.0</ele>
        <time>2018-09-01T12:18:49Z</time>
      </trkpt>
      <trkpt lat="40.427500" lon="-5.296000">
        <ele>2286.0</ele>
        <time>2018-09-01T12:18:50Z</time>
      </trkpt>
      <trkpt lat="40.427533" lon="-5.295867">
        <ele>2287.0</ele>
        <time>2018-09-01T12:18:51Z</time>
      </trkpt>
      <trkpt lat="40.427583" lon="-5.295733">
        <ele>2288.0</ele>
        <time>2018-09-01T12:18:52Z</time>
      </trkpt>
      <trkpt lat="40.427650" lon="-5.295633">
        <ele>2290.0</ele>
        <time>2018-09-01T12:18:53Z</time>
      </trkpt>
      <trkpt lat="40.427733" lon="-5.295550">
        <ele>2293.0</ele>
        <time>2018-09-01T12:18:54Z</time>
      </trkpt>
      <trkpt lat="40.427833" lon="-5.295483">
        <ele>2295.0</ele>
        <time>2018-09-01T12:18:55Z</time>
      </trkpt>
      <trkpt lat="40.427933" lon="-5.295467">
        <ele>2298.0</ele>
        <time>2018-09-01T12:18:56Z</time>
      </trkpt>
      <trkpt lat="40.428017" lon="-5.295467">
        <ele>2300.0</ele>
        <time>2018-09-01T12:18:57Z</time>
      </trkpt>
      <trkpt lat="40.428083" lon="-5.295483">
        <ele>2303.0</ele>
        <time>2018-09-01T12:18:58Z</time>
      </trkpt>
      <trkpt lat="40.428150" lon="-5.295517">
        <ele>2305.0</ele>
        <time>2018-09-01T12:18:59Z</time>
      </trkpt>
      <trkpt lat="40.428183" lon="-5.295550">
        <ele>2306.0</ele>
        <time>2018-09-01T12:19:00Z</time>
      </trkpt>
      <trkpt lat="40.428217" lon="-5.295617">
        <ele>2306.0</ele>
        <time>2018-09-01T12:19:01Z</time>
      </trkpt>
      <trkpt lat="40.428233" lon="-5.295717">
        <ele>2304.0</ele>
        <time>2018-09-01T12:19:02Z</time>
      </trkpt>
      <trkpt lat="40.428250" lon="-5.295817">
        <ele>2303.0</ele>
        <time>2018-09-01T12:19:03Z</time>
      </trkpt>
      <trkpt lat="40.428267" lon="-5.295933">
        <ele>2303.0</ele>
        <time>2018-09-01T12:19:04Z</time>
      </trkpt>
      <trkpt lat="40.428250" lon="-5.296033">
        <ele>2305.0</ele>
        <time>2018-09-01T12:19:05Z</time>
      </trkpt>
      <trkpt lat="40.428217" lon="-5.296133">
        <ele>2307.0</ele>
        <time>2018-09-01T12:19:06Z</time>
      </trkpt>
      <trkpt lat="40.428150" lon="-5.296200">
        <ele>2309.0</ele>
        <time>2018-09-01T12:19:07Z</time>
      </trkpt>
      <trkpt lat="40.428067" lon="-5.296233">
        <ele>2309.0</ele>
        <time>2018-09-01T12:19:08Z</time>
      </trkpt>
      <trkpt lat="40.427983" lon="-5.296283">
        <ele>2310.0</ele>
        <time>2018-09-01T12:19:09Z</time>
      </trkpt>
      <trkpt lat="40.427900" lon="-5.296300">
        <ele>2311.0</ele>
        <time>2018-09-01T12:19:10Z</time>
      </trkpt>
      <trkpt lat="40.427800" lon="-5.296300">
        <ele>2312.0</ele>
        <time>2018-09-01T12:19:11Z</time>
      </trkpt>
      <trkpt lat="40.427683" lon="-5.296267">
        <ele>2312.0</ele>
        <time>2018-09-01T12:19:12Z</time>
      </trkpt>
      <trkpt lat="40.427583" lon="-5.296200">
        <ele>2313.0</ele>
        <time>2018-09-01T12:19:13Z</time>
      </trkpt>
      <trkpt lat="40.427483" lon="-5.296117">
        <ele>2315.0</ele>
        <time>2018-09-01T12:19:14Z</time>
      </trkpt>
      <trkpt lat="40.427383" lon="-5.296017">
        <ele>2317.0</ele>
        <time>2018-09-01T12:19:15Z</time>
      </trkpt>
      <trkpt lat="40.427317" lon="-5.295900">
        <ele>2319.0</ele>
        <time>2018-09-01T12:19:16Z</time>
      </trkpt>
      <trkpt lat="40.427267" lon="-5.295767">
        <ele>2319.0</ele>
        <time>2018-09-01T12:19:17Z</time>
      </trkpt>
      <trkpt lat="40.427217" lon="-5.295617">
        <ele>2321.0</ele>
        <time>2018-09-01T12:19:18Z</time>
      </trkpt>
      <trkpt lat="40.427200" lon="-5.295467">
        <ele>2323.0</ele>
        <time>2018-09-01T12:19:19Z</time>
      </trkpt>
      <trkpt lat="40.427200" lon="-5.295300">
        <ele>2326.0</ele>
        <time>2018-09-01T12:19:20Z</time>
      </trkpt>
      <trkpt lat="40.427217" lon="-5.295150">
        <ele>2329.0</ele>
        <time>2018-09-01T12:19:21Z</time>
      </trkpt>
      <trkpt lat="40.427250" lon="-5.295017">
        <ele>2333.0</ele>
        <time>2018-09-01T12:19:22Z</time>
      </trkpt>
      <trkpt lat="40.427283" lon="-5.294917">
        <ele>2335.0</ele>
        <time>2018-09-01T12:19:23Z</time>
      </trkpt>
      <trkpt lat="40.427350" lon="-5.294817">
        <ele>2337.0</ele>
        <time>2018-09-01T12:19:24Z</time>
      </trkpt>
      <trkpt lat="40.427433" lon="-5.294750">
        <ele>2337.0</ele>
        <time>2018-09-01T12:19:25Z</time>
      </trkpt>
      <trkpt lat="40.427517" lon="-5.294700">
        <ele>2338.0</ele>
        <time>2018-09-01T12:19:26Z</time>
      </trkpt>
      <trkpt lat="40.427617" lon="-5.294667">
        <ele>2340.0</ele>
        <time>2018-09-01T12:19:27Z</time>
      </trkpt>
      <trkpt lat="40.427700" lon="-5.294633">
        <ele>2342.0</ele>
        <time>2018-09-01T12:19:28Z</time>
      </trkpt>
      <trkpt lat="40.427767" lon="-5.294617">
        <ele>2345.0</ele>
        <time>2018-09-01T12:19:29Z</time>
      </trkpt>
      <trkpt lat="40.427817" lon="-5.294617">
        <ele>2346.0</ele>
        <time>2018-09-01T12:19:30Z</time>
      </trkpt>
      <trkpt lat="40.427883" lon="-5.294633">
        <ele>2346.0</ele>
        <time>2018-09-01T12:19:31Z</time>
      </trkpt>
      <trkpt lat="40.427933" lon="-5.294667">
        <ele>2346.0</ele>
        <time>2018-09-01T12:19:32Z</time>
      </trkpt>
      <trkpt lat="40.428000" lon="-5.294717">
        <ele>2347.0</ele>
        <time>2018-09-01T12:19:33Z</time>
      </trkpt>
      <trkpt lat="40.428050" lon="-5.294767">
        <ele>2349.0</ele>
        <time>2018-09-01T12:19:34Z</time>
      </trkpt>
      <trkpt lat="40.428100" lon="-5.294833">
        <ele>2351.0</ele>
        <time>2018-09-01T12:19:35Z</time>
      </trkpt>
      <trkpt lat="40.428133" lon="-5.294900">
        <ele>2353.0</ele>
        <time>2018-09-01T12:19:36Z</time>
      </trkpt>
      <trkpt lat="40.428150" lon="-5.294967">
        <ele>2355.0</ele>
        <time>2018-09-01T12:19:37Z</time>
      </trkpt>
      <trkpt lat="40.428150" lon="-5.295050">
        <ele>2357.0</ele>
        <time>2018-09-01T12:19:38Z</time>
      </trkpt>
      <trkpt lat="40.428150" lon="-5.295117">
        <ele>2358.0</ele>
        <time>2018-09-01T12:19:39Z</time>
      </trkpt>
      <trkpt lat="40.428117" lon="-5.295200">
        <ele>2358.0</ele>
        <time>2018-09-01T12:19:40Z</time>
      </trkpt>
      <trkpt lat="40.428083" lon="-5.295283">
        <ele>2357.0</ele>
        <time>2018-09-01T12:19:41Z</time>
      </trkpt>
      <trkpt lat="40.428000" lon="-5.295367">
        <ele>2358.0</ele>
        <time>2018-09-01T12:19:42Z</time>
      </trkpt>
      <trkpt lat="40.427917" lon="-5.295433">
        <ele>2359.0</ele>
        <time>2018-09-01T12:19:43Z</time>
      </trkpt>
      <trkpt lat="40.427800" lon="-5.295450">
        <ele>2360.0</ele>
        <time>2018-09-01T12:19:44Z</time>
      </trkpt>
      <trkpt lat="40.427700" lon="-5.295450">
        <ele>2361.0</ele>
        <time>2018-09-01T12:19:45Z</time>
      </trkpt>
      <trkpt lat="40.427600" lon="-5.295433">
        <ele>2363.0</ele>
        <time>2018-09-01T12:19:46Z</time>
      </trkpt>
      <trkpt lat="40.427483" lon="-5.295383">
        <ele>2363.0</ele>
        <time>2018-09-01T12:19:47Z</time>
      </trkpt>
      <trkpt lat="40.427383" lon="-5.295333">
        <ele>2364.0</ele>
        <time>2018-09-01T12:19:48Z</time>
      </trkpt>
      <trkpt lat="40.427267" lon="-5.295250">
        <ele>2364.0</ele>
        <time>2018-09-01T12:19:49Z</time>
      </trkpt>
      <trkpt lat="40.427167" lon="-5.295150">
        <ele>2365.0</ele>
        <time>2018-09-01T12:19:50Z</time>
      </trkpt>
      <trkpt lat="40.427083" lon="-5.295033">
        <ele>2366.0</ele>
        <time>2018-09-01T12:19:51Z</time>
      </trkpt>
      <trkpt lat="40.427000" lon="-5.294900">
        <ele>2368.0</ele>
        <time>2018-09-01T12:19:52Z</time>
      </trkpt>
      <trkpt lat="40.426950" lon="-5.294750">
        <ele>2369.0</ele>
        <time>2018-09-01T12:19:53Z</time>
      </trkpt>
      <trkpt lat="40.426900" lon="-5.294600">
        <ele>2369.0</ele>
        <time>2018-09-01T12:19:54Z</time>
      </trkpt>
      <trkpt lat="40.426867" lon="-5.294433">
        <ele>2370.0</ele>
        <time>2018-09-01T12:19:55Z</time>
      </trkpt>
      <trkpt lat="40.426850" lon="-5.294267">
        <ele>2372.0</ele>
        <time>2018-09-01T12:19:56Z</time>
      </trkpt>
      <trkpt lat="40.426867" lon="-5.294117">
        <ele>2375.0</ele>
        <time>2018-09-01T12:19:57Z</time>
      </trkpt>
      <trkpt lat="40.426900" lon="-5.293967">
        <ele>2376.0</ele>
        <time>2018-09-01T12:19:58Z</time>
      </trkpt>
      <trkpt lat="40.426967" lon="-5.293850">
        <ele>2377.0</ele>
        <time>2018-09-01T12:19:59Z</time>
      </trkpt>
      <trkpt lat="40.427033" lon="-5.293767">
        <ele>2378.0</ele>
        <time>2018-09-01T12:20:00Z</time>
      </trkpt>
      <trkpt lat="40.427100" lon="-5.293683">
        <ele>2379.0</ele>
        <time>2018-09-01T12:20:01Z</time>
      </trkpt>
      <trkpt lat="40.427167" lon="-5.293617">
        <ele>2380.0</ele>
        <time>2018-09-01T12:20:02Z</time>
      </trkpt>
      <trkpt lat="40.427233" lon="-5.293600">
        <ele>2379.0</ele>
        <time>2018-09-01T12:20:03Z</time>
      </trkpt>
      <trkpt lat="40.427317" lon="-5.293583">
        <ele>2378.0</ele>
        <time>2018-09-01T12:20:04Z</time>
      </trkpt>
      <trkpt lat="40.427400" lon="-5.293583">
        <ele>2377.0</ele>
        <time>2018-09-01T12:20:05Z</time>
      </trkpt>
      <trkpt lat="40.427483" lon="-5.293600">
        <ele>2377.0</ele>
        <time>2018-09-01T12:20:06Z</time>
      </trkpt>
      <trkpt lat="40.427567" lon="-5.293617">
        <ele>2378.0</ele>
        <time>2018-09-01T12:20:07Z</time>
      </trkpt>
      <trkpt lat="40.427633" lon="-5.293667">
        <ele>2378.0</ele>
        <time>2018-09-01T12:20:08Z</time>
      </trkpt>
      <trkpt lat="40.427683" lon="-5.293733">
        <ele>2379.0</ele>
        <time>2018-09-01T12:20:09Z</time>
      </trkpt>
      <trkpt lat="40.427733" lon="-5.293800">
        <ele>2380.0</ele>
        <time>2018-09-01T12:20:10Z</time>
      </trkpt>
      <trkpt lat="40.427767" lon="-5.293883">
        <ele>2381.0</ele>
        <time>2018-09-01T12:20:11Z</time>
      </trkpt>
      <trkpt lat="40.427783" lon="-5.293967">
        <ele>2381.0</ele>
        <time>2018-09-01T12:20:12Z</time>
      </trkpt>
      <trkpt lat="40.427800" lon="-5.294050">
        <ele>2382.0</ele>
        <time>2018-09-01T12:20:13Z</time>
      </trkpt>
      <trkpt lat="40.427817" lon="-5.294150">
        <ele>2383.0</ele>
        <time>2018-09-01T12:20:14Z</time>
      </trkpt>
      <trkpt lat="40.427833" lon="-5.294250">
        <ele>2384.0</ele>
        <time>2018-09-01T12:20:15Z</time>
      </trkpt>
      <trkpt lat="40.427850" lon="-5.294333">
        <ele>2386.0</ele>
        <time>2018-09-01T12:20:16Z</time>
      </trkpt>
      <trkpt lat="40.427867" lon="-5.294400">
        <ele>2387.0</ele>
        <time>2018-09-01T12:20:17Z</time>
      </trkpt>
      <trkpt lat="40.427867" lon="-5.294467">
        <ele>2388.0</ele>
        <time>2018-09-01T12:20:18Z</time>
      </trkpt>
      <trkpt lat="40.427867" lon="-5.294550">
        <ele>2387.0</ele>
        <time>2018-09-01T12:20:19Z</time>
      </trkpt>
      <trkpt lat="40.427867" lon="-5.294633">
        <ele>2386.0</ele>
        <time>2018-09-01T12:20:20Z</time>
      </trkpt>
      <trkpt lat="40.427850" lon="-5.294750">
        <ele>2386.0</ele>
        <time>2018-09-01T12:20:21Z</time>
      </trkpt>
      <trkpt lat="40.427800" lon="-5.294850">
        <ele>2385.0</ele>
        <time>2018-09-01T12:20:22Z</time>
      </trkpt>
      <trkpt lat="40.427750" lon="-5.294950">
        <ele>2386.0</ele>
        <time>2018-09-01T12:20:23Z</time>
      </trkpt>
      <trkpt lat="40.427683" lon="-5.295050">
        <ele>2388.0</ele>
        <time>2018-09-01T12:20:24Z</time>
      </trkpt>
      <trkpt lat="40.427633" lon="-5.295133">
        <ele>2390.0</ele>
        <time>2018-09-01T12:20:25Z</time>
      </trkpt>
      <trkpt lat="40.427583" lon="-5.295217">
        <ele>2391.0</ele>
        <time>2018-09-01T12:20:26Z</time>
      </trkpt>
      <trkpt lat="40.427517" lon="-5.295283">
        <ele>2392.0</ele>
        <time>2018-09-01T12:20:27Z</time>
      </trkpt>
      <trkpt lat="40.427433" lon="-5.295350">
        <ele>2392.0</ele>
        <time>2018-09-01T12:20:28Z</time>
      </trkpt>
      <trkpt lat="40.427317" lon="-5.295383">
        <ele>2392.0</ele>
        <time>2018-09-01T12:20:29Z</time>
      </trkpt>
      <trkpt lat="40.427200" lon="-5.295400">
        <ele>2392.0</ele>
        <time>2018-09-01T12:20:30Z</time>
      </trkpt>
      <trkpt lat="40.427083" lon="-5.295400">
        <ele>2393.0</ele>
        <time>2018-09-01T12:20:31Z</time>
      </trkpt>
      <trkpt lat="40.426983" lon="-5.295367">
        <ele>2394.0</ele>
        <time>2018-09-01T12:20:32Z</time>
      </trkpt>
      <trkpt lat="40.426883" lon="-5.295333">
        <ele>2394.0</ele>
        <time>2018-09-01T12:20:33Z</time>
      </trkpt>
      <trkpt lat="40.426783" lon="-5.295250">
        <ele>2394.0</ele>
        <time>2018-09-01T12:20:34Z</time>
      </trkpt>
      <trkpt lat="40.426683" lon="-5.295150">
        <ele>2392.0</ele>
        <time>2018-09-01T12:20:35Z</time>
      </trkpt>
      <trkpt lat="40.426583" lon="-5.295033">
        <ele>2392.0</ele>
        <time>2018-09-01T12:20:36Z</time>
      </trkpt>
      <trkpt lat="40.426517" lon="-5.294883">
        <ele>2393.0</ele>
        <time>2018-09-01T12:20:37Z</time>
      </trkpt>
      <trkpt lat="40.426467" lon="-5.294733">
        <ele>2396.0</ele>
        <time>2018-09-01T12:20:38Z</time>
      </trkpt>
      <trkpt lat="40.426450" lon="-5.294583">
        <ele>2397.0</ele>
        <time>2018-09-01T12:20:39Z</time>
      </trkpt>
      <trkpt lat="40.426450" lon="-5.294433">
        <ele>2398.0</ele>
        <time>2018-09-01T12:20:40Z</time>
      </trkpt>
      <trkpt lat="40.426467" lon="-5.294283">
        <ele>2399.0</ele>
        <time>2018-09-01T12:20:41Z</time>
      </trkpt>
      <trkpt lat="40.426500" lon="-5.294117">
        <ele>2400.0</ele>
        <time>2018-09-01T12:20:42Z</time>
      </trkpt>
      <trkpt lat="40.426517" lon="-5.293967">
        <ele>2401.0</ele>
        <time>2018-09-01T12:20:43Z</time>
      </trkpt>
      <trkpt lat="40.426550" lon="-5.293833">
        <ele>2401.0</ele>
        <time>2018-09-01T12:20:44Z</time>
      </trkpt>
      <trkpt lat="40.426583" lon="-5.293683">
        <ele>2402.0</ele>
        <time>2018-09-01T12:20:45Z</time>
      </trkpt>
      <trkpt lat="40.426633" lon="-5.293567">
        <ele>2402.0</ele>
        <time>2018-09-01T12:20:46Z</time>
      </trkpt>
      <trkpt lat="40.426700" lon="-5.293467">
        <ele>2400.0</ele>
        <time>2018-09-01T12:20:47Z</time>
      </trkpt>
      <trkpt lat="40.426783" lon="-5.293383">
        <ele>2399.0</ele>
        <time>2018-09-01T12:20:48Z</time>
      </trkpt>
      <trkpt lat="40.426867" lon="-5.293333">
        <ele>2399.0</ele>
        <time>2018-09-01T12:20:49Z</time>
      </trkpt>
      <trkpt lat="40.426967" lon="-5.293317">
        <ele>2398.0</ele>
        <time>2018-09-01T12:20:50Z</time>
      </trkpt>
      <trkpt lat="40.427050" lon="-5.293333">
        <ele>2397.0</ele>
        <time>2018-09-01T12:20:51Z</time>
      </trkpt>
      <trkpt lat="40.427133" lon="-5.293367">
        <ele>2397.0</ele>
        <time>2018-09-01T12:20:52Z</time>
      </trkpt>
      <trkpt lat="40.427217" lon="-5.293400">
        <ele>2398.0</ele>
        <time>2018-09-01T12:20:53Z</time>
      </trkpt>
      <trkpt lat="40.427267" lon="-5.293433">
        <ele>2398.0</ele>
        <time>2018-09-01T12:20:54Z</time>
      </trkpt>
      <trkpt lat="40.427333" lon="-5.293483">
        <ele>2399.0</ele>
        <time>2018-09-01T12:20:55Z</time>
      </trkpt>
      <trkpt lat="40.427383" lon="-5.293533">
        <ele>2399.0</ele>
        <time>2018-09-01T12:20:56Z</time>
      </trkpt>
      <trkpt lat="40.427450" lon="-5.293583">
        <ele>2399.0</ele>
        <time>2018-09-01T12:20:57Z</time>
      </trkpt>
      <trkpt lat="40.427500" lon="-5.293650">
        <ele>2399.0</ele>
        <time>2018-09-01T12:20:58Z</time>
      </trkpt>
      <trkpt lat="40.427533" lon="-5.293700">
        <ele>2399.0</ele>
        <time>2018-09-01T12:20:59Z</time>
      </trkpt>
      <trkpt lat="40.427583" lon="-5.293750">
        <ele>2398.0</ele>
        <time>2018-09-01T12:21:00Z</time>
      </trkpt>
      <trkpt lat="40.427617" lon="-5.293817">
        <ele>2397.0</ele>
        <time>2018-09-01T12:21:01Z</time>
      </trkpt>
      <trkpt lat="40.427650" lon="-5.293883">
        <ele>2395.0</ele>
        <time>2018-09-01T12:21:02Z</time>
      </trkpt>
      <trkpt lat="40.427700" lon="-5.293967">
        <ele>2393.0</ele>
        <time>2018-09-01T12:21:03Z</time>
      </trkpt>
      <trkpt lat="40.427733" lon="-5.294050">
        <ele>2390.0</ele>
        <time>2018-09-01T12:21:04Z</time>
      </trkpt>
      <trkpt lat="40.427750" lon="-5.294133">
        <ele>2388.0</ele>
        <time>2018-09-01T12:21:05Z</time>
      </trkpt>
      <trkpt lat="40.427750" lon="-5.294233">
        <ele>2386.0</ele>
        <time>2018-09-01T12:21:06Z</time>
      </trkpt>
      <trkpt lat="40.427750" lon="-5.294333">
        <ele>2384.0</ele>
        <time>2018-09-01T12:21:07Z</time>
      </trkpt>
      <trkpt lat="40.427750" lon="-5.294433">
        <ele>2383.0</ele>
        <time>2018-09-01T12:21:08Z</time>
      </trkpt>
      <trkpt lat="40.427750" lon="-5.294533">
        <ele>2381.0</ele>
        <time>2018-09-01T12:21:09Z</time>
      </trkpt>
      <trkpt lat="40.427733" lon="-5.294617">
        <ele>2379.0</ele>
        <time>2018-09-01T12:21:10Z</time>
      </trkpt>
      <trkpt lat="40.427733" lon="-5.294717">
        <ele>2377.0</ele>
        <time>2018-09-01T12:21:11Z</time>
      </trkpt>
      <trkpt lat="40.427733" lon="-5.294817">
        <ele>2375.0</ele>
        <time>2018-09-01T12:21:12Z</time>
      </trkpt>
      <trkpt lat="40.427717" lon="-5.294917">
        <ele>2373.0</ele>
        <time>2018-09-01T12:21:13Z</time>
      </trkpt>
      <trkpt lat="40.427717" lon="-5.295017">
        <ele>2370.0</ele>
        <time>2018-09-01T12:21:14Z</time>
      </trkpt>
      <trkpt lat="40.427700" lon="-5.295133">
        <ele>2367.0</ele>
        <time>2018-09-01T12:21:15Z</time>
      </trkpt>
      <trkpt lat="40.427700" lon="-5.295250">
        <ele>2365.0</ele>
        <time>2018-09-01T12:21:16Z</time>
      </trkpt>
      <trkpt lat="40.427700" lon="-5.295350">
        <ele>2363.0</ele>
        <time>2018-09-01T12:21:17Z</time>
      </trkpt>
      <trkpt lat="40.427700" lon="-5.295467">
        <ele>2362.0</ele>
        <time>2018-09-01T12:21:18Z</time>
      </trkpt>
      <trkpt lat="40.427700" lon="-5.295567">
        <ele>2361.0</ele>
        <time>2018-09-01T12:21:19Z</time>
      </trkpt>
      <trkpt lat="40.427700" lon="-5.295667">
        <ele>2360.0</ele>
        <time>2018-09-01T12:21:20Z</time>
      </trkpt>
      <trkpt lat="40.427700" lon="-5.295783">
        <ele>2359.0</ele>
        <time>2018-09-01T12:21:21Z</time>
      </trkpt>
      <trkpt lat="40.427717" lon="-5.295917">
        <ele>2359.0</ele>
        <time>2018-09-01T12:21:22Z</time>
      </trkpt>
      <trkpt lat="40.427717" lon="-5.296033">
        <ele>2359.0</ele>
        <time>2018-09-01T12:21:23Z</time>
      </trkpt>
      <trkpt lat="40.427717" lon="-5.296150">
        <ele>2359.0</ele>
        <time>2018-09-01T12:21:24Z</time>
      </trkpt>
      <trkpt lat="40.427700" lon="-5.296250">
        <ele>2360.0</ele>
        <time>2018-09-01T12:21:25Z</time>
      </trkpt>
      <trkpt lat="40.427683" lon="-5.296350">
        <ele>2360.0</ele>
        <time>2018-09-01T12:21:26Z</time>
      </trkpt>
      <trkpt lat="40.427667" lon="-5.296450">
        <ele>2359.0</ele>
        <time>2018-09-01T12:21:27Z</time>
      </trkpt>
      <trkpt lat="40.427617" lon="-5.296550">
        <ele>2356.0</ele>
        <time>2018-09-01T12:21:28Z</time>
      </trkpt>
      <trkpt lat="40.427567" lon="-5.296667">
        <ele>2354.0</ele>
        <time>2018-09-01T12:21:29Z</time>
      </trkpt>
      <trkpt lat="40.427500" lon="-5.296750">
        <ele>2351.0</ele>
        <time>2018-09-01T12:21:30Z</time>
      </trkpt>
      <trkpt lat="40.427417" lon="-5.296850">
        <ele>2349.0</ele>
        <time>2018-09-01T12:21:31Z</time>
      </trkpt>
      <trkpt lat="40.427317" lon="-5.296950">
        <ele>2347.0</ele>
        <time>2018-09-01T12:21:32Z</time>
      </trkpt>
      <trkpt lat="40.427217" lon="-5.297033">
        <ele>2346.0</ele>
        <time>2018-09-01T12:21:33Z</time>
      </trkpt>
      <trkpt lat="40.427133" lon="-5.297100">
        <ele>2347.0</ele>
        <time>2018-09-01T12:21:34Z</time>
      </trkpt>
      <trkpt lat="40.427033" lon="-5.297167">
        <ele>2348.0</ele>
        <time>2018-09-01T12:21:35Z</time>
      </trkpt>
      <trkpt lat="40.426967" lon="-5.297250">
        <ele>2349.0</ele>
        <time>2018-09-01T12:21:36Z</time>
      </trkpt>
      <trkpt lat="40.426900" lon="-5.297333">
        <ele>2349.0</ele>
        <time>2018-09-01T12:21:37Z</time>
      </trkpt>
      <trkpt lat="40.426817" lon="-5.297433">
        <ele>2350.0</ele>
        <time>2018-09-01T12:21:38Z</time>
      </trkpt>
      <trkpt lat="40.426733" lon="-5.297533">
        <ele>2352.0</ele>
        <time>2018-09-01T12:21:39Z</time>
      </trkpt>
      <trkpt lat="40.426667" lon="-5.297633">
        <ele>2353.0</ele>
        <time>2018-09-01T12:21:40Z</time>
      </trkpt>
      <trkpt lat="40.426600" lon="-5.297733">
        <ele>2356.0</ele>
        <time>2018-09-01T12:21:41Z</time>
      </trkpt>
      <trkpt lat="40.426550" lon="-5.297833">
        <ele>2358.0</ele>
        <time>2018-09-01T12:21:42Z</time>
      </trkpt>
      <trkpt lat="40.426517" lon="-5.297950">
        <ele>2361.0</ele>
        <time>2018-09-01T12:21:43Z</time>
      </trkpt>
      <trkpt lat="40.426467" lon="-5.298067">
        <ele>2362.0</ele>
        <time>2018-09-01T12:21:44Z</time>
      </trkpt>
      <trkpt lat="40.426400" lon="-5.298183">
        <ele>2364.0</ele>
        <time>2018-09-01T12:21:45Z</time>
      </trkpt>
      <trkpt lat="40.426317" lon="-5.298283">
        <ele>2365.0</ele>
        <time>2018-09-01T12:21:46Z</time>
      </trkpt>
      <trkpt lat="40.426217" lon="-5.298333">
        <ele>2366.0</ele>
        <time>2018-09-01T12:21:47Z</time>
      </trkpt>
      <trkpt lat="40.426083" lon="-5.298350">
        <ele>2365.0</ele>
        <time>2018-09-01T12:21:48Z</time>
      </trkpt>
      <trkpt lat="40.425950" lon="-5.298333">
        <ele>2364.0</ele>
        <time>2018-09-01T12:21:49Z</time>
      </trkpt>
      <trkpt lat="40.425833" lon="-5.298267">
        <ele>2364.0</ele>
        <time>2018-09-01T12:21:50Z</time>
      </trkpt>
      <trkpt lat="40.425733" lon="-5.298167">
        <ele>2365.0</ele>
        <time>2018-09-01T12:21:51Z</time>
      </trkpt>
      <trkpt lat="40.425650" lon="-5.298050">
        <ele>2367.0</ele>
        <time>2018-09-01T12:21:52Z</time>
      </trkpt>
      <trkpt lat="40.425583" lon="-5.297933">
        <ele>2368.0</ele>
        <time>2018-09-01T12:21:53Z</time>
      </trkpt>
      <trkpt lat="40.425533" lon="-5.297817">
        <ele>2368.0</ele>
        <time>2018-09-01T12:21:54Z</time>
      </trkpt>
      <trkpt lat="40.425500" lon="-5.297683">
        <ele>2368.0</ele>
        <time>2018-09-01T12:21:55Z</time>
      </trkpt>
      <trkpt lat="40.425450" lon="-5.297550">
        <ele>2369.0</ele>
        <time>2018-09-01T12:21:56Z</time>
      </trkpt>
      <trkpt lat="40.425433" lon="-5.297417">
        <ele>2370.0</ele>
        <time>2018-09-01T12:21:57Z</time>
      </trkpt>
      <trkpt lat="40.425433" lon="-5.297283">
        <ele>2372.0</ele>
        <time>2018-09-01T12:21:58Z</time>
      </trkpt>
      <trkpt lat="40.425450" lon="-5.297167">
        <ele>2373.0</ele>
        <time>2018-09-01T12:21:59Z</time>
      </trkpt>
      <trkpt lat="40.425483" lon="-5.297067">
        <ele>2375.0</ele>
        <time>2018-09-01T12:22:00Z</time>
      </trkpt>
      <trkpt lat="40.425517" lon="-5.296983">
        <ele>2377.0</ele>
        <time>2018-09-01T12:22:01Z</time>
      </trkpt>
      <trkpt lat="40.425583" lon="-5.296933">
        <ele>2379.0</ele>
        <time>2018-09-01T12:22:02Z</time>
      </trkpt>
      <trkpt lat="40.425650" lon="-5.296917">
        <ele>2380.0</ele>
        <time>2018-09-01T12:22:03Z</time>
      </trkpt>
      <trkpt lat="40.425717" lon="-5.296950">
        <ele>2381.0</ele>
        <time>2018-09-01T12:22:04Z</time>
      </trkpt>
      <trkpt lat="40.425783" lon="-5.297000">
        <ele>2383.0</ele>
        <time>2018-09-01T12:22:05Z</time>
      </trkpt>
      <trkpt lat="40.425850" lon="-5.297067">
        <ele>2386.0</ele>
        <time>2018-09-01T12:22:06Z</time>
      </trkpt>
      <trkpt lat="40.425900" lon="-5.297167">
        <ele>2390.0</ele>
        <time>2018-09-01T12:22:07Z</time>
      </trkpt>
      <trkpt lat="40.425917" lon="-5.297267">
        <ele>2393.0</ele>
        <time>2018-09-01T12:22:08Z</time>
      </trkpt>
      <trkpt lat="40.425933" lon="-5.297367">
        <ele>2396.0</ele>
        <time>2018-09-01T12:22:09Z</time>
      </trkpt>
      <trkpt lat="40.425917" lon="-5.297483">
        <ele>2399.0</ele>
        <time>2018-09-01T12:22:10Z</time>
      </trkpt>
      <trkpt lat="40.425900" lon="-5.297600">
        <ele>2400.0</ele>
        <time>2018-09-01T12:22:11Z</time>
      </trkpt>
      <trkpt lat="40.425850" lon="-5.297717">
        <ele>2400.0</ele>
        <time>2018-09-01T12:22:12Z</time>
      </trkpt>
      <trkpt lat="40.425783" lon="-5.297833">
        <ele>2401.0</ele>
        <time>2018-09-01T12:22:13Z</time>
      </trkpt>
      <trkpt lat="40.425683" lon="-5.297917">
        <ele>2401.0</ele>
        <time>2018-09-01T12:22:14Z</time>
      </trkpt>
      <trkpt lat="40.425550" lon="-5.297967">
        <ele>2400.0</ele>
        <time>2018-09-01T12:22:15Z</time>
      </trkpt>
      <trkpt lat="40.425433" lon="-5.297950">
        <ele>2399.0</ele>
        <time>2018-09-01T12:22:16Z</time>
      </trkpt>
      <trkpt lat="40.425300" lon="-5.297900">
        <ele>2398.0</ele>
        <time>2018-09-01T12:22:17Z</time>
      </trkpt>
      <trkpt lat="40.425200" lon="-5.297817">
        <ele>2398.0</ele>
        <time>2018-09-01T12:22:18Z</time>
      </trkpt>
      <trkpt lat="40.425117" lon="-5.297683">
        <ele>2398.0</ele>
        <time>2018-09-01T12:22:19Z</time>
      </trkpt>
      <trkpt lat="40.425050" lon="-5.297550">
        <ele>2398.0</ele>
        <time>2018-09-01T12:22:20Z</time>
      </trkpt>
      <trkpt lat="40.425000" lon="-5.297417">
        <ele>2399.0</ele>
        <time>2018-09-01T12:22:21Z</time>
      </trkpt>
      <trkpt lat="40.424983" lon="-5.297283">
        <ele>2399.0</ele>
        <time>2018-09-01T12:22:22Z</time>
      </trkpt>
      <trkpt lat="40.424983" lon="-5.297150">
        <ele>2399.0</ele>
        <time>2018-09-01T12:22:23Z</time>
      </trkpt>
      <trkpt lat="40.425000" lon="-5.297017">
        <ele>2400.0</ele>
        <time>2018-09-01T12:22:24Z</time>
      </trkpt>
      <trkpt lat="40.425033" lon="-5.296883">
        <ele>2402.0</ele>
        <time>2018-09-01T12:22:25Z</time>
      </trkpt>
      <trkpt lat="40.425067" lon="-5.296767">
        <ele>2404.0</ele>
        <time>2018-09-01T12:22:26Z</time>
      </trkpt>
      <trkpt lat="40.425117" lon="-5.296683">
        <ele>2406.0</ele>
        <time>2018-09-01T12:22:27Z</time>
      </trkpt>
      <trkpt lat="40.425183" lon="-5.296617">
        <ele>2409.0</ele>
        <time>2018-09-01T12:22:28Z</time>
      </trkpt>
      <trkpt lat="40.425267" lon="-5.296583">
        <ele>2411.0</ele>
        <time>2018-09-01T12:22:29Z</time>
      </trkpt>
      <trkpt lat="40.425333" lon="-5.296567">
        <ele>2413.0</ele>
        <time>2018-09-01T12:22:30Z</time>
      </trkpt>
      <trkpt lat="40.425400" lon="-5.296567">
        <ele>2415.0</ele>
        <time>2018-09-01T12:22:31Z</time>
      </trkpt>
      <trkpt lat="40.425450" lon="-5.296600">
        <ele>2418.0</ele>
        <time>2018-09-01T12:22:32Z</time>
      </trkpt>
      <trkpt lat="40.425500" lon="-5.296650">
        <ele>2419.0</ele>
        <time>2018-09-01T12:22:33Z</time>
      </trkpt>
      <trkpt lat="40.425533" lon="-5.296733">
        <ele>2421.0</ele>
        <time>2018-09-01T12:22:34Z</time>
      </trkpt>
      <trkpt lat="40.425550" lon="-5.296833">
        <ele>2421.0</ele>
        <time>2018-09-01T12:22:35Z</time>
      </trkpt>
      <trkpt lat="40.425533" lon="-5.296950">
        <ele>2422.0</ele>
        <time>2018-09-01T12:22:36Z</time>
      </trkpt>
      <trkpt lat="40.425483" lon="-5.297067">
        <ele>2422.0</ele>
        <time>2018-09-01T12:22:37Z</time>
      </trkpt>
      <trkpt lat="40.425383" lon="-5.297167">
        <ele>2423.0</ele>
        <time>2018-09-01T12:22:38Z</time>
      </trkpt>
      <trkpt lat="40.425267" lon="-5.297233">
        <ele>2424.0</ele>
        <time>2018-09-01T12:22:39Z</time>
      </trkpt>
      <trkpt lat="40.425133" lon="-5.297267">
        <ele>2427.0</ele>
        <time>2018-09-01T12:22:40Z</time>
      </trkpt>
      <trkpt lat="40.425000" lon="-5.297250">
        <ele>2430.0</ele>
        <time>2018-09-01T12:22:41Z</time>
      </trkpt>
      <trkpt lat="40.424883" lon="-5.297183">
        <ele>2432.0</ele>
        <time>2018-09-01T12:22:42Z</time>
      </trkpt>
      <trkpt lat="40.424800" lon="-5.297100">
        <ele>2434.0</ele>
        <time>2018-09-01T12:22:43Z</time>
      </trkpt>
      <trkpt lat="40.424733" lon="-5.296983">
        <ele>2434.0</ele>
        <time>2018-09-01T12:22:44Z</time>
      </trkpt>
      <trkpt lat="40.424683" lon="-5.296867">
        <ele>2435.0</ele>
        <time>2018-09-01T12:22:45Z</time>
      </trkpt>
      <trkpt lat="40.424617" lon="-5.296750">
        <ele>2435.0</ele>
        <time>2018-09-01T12:22:46Z</time>
      </trkpt>
      <trkpt lat="40.424567" lon="-5.296617">
        <ele>2435.0</ele>
        <time>2018-09-01T12:22:47Z</time>
      </trkpt>
      <trkpt lat="40.424533" lon="-5.296467">
        <ele>2437.0</ele>
        <time>2018-09-01T12:22:48Z</time>
      </trkpt>
      <trkpt lat="40.424533" lon="-5.296333">
        <ele>2438.0</ele>
        <time>2018-09-01T12:22:49Z</time>
      </trkpt>
      <trkpt lat="40.424567" lon="-5.296200">
        <ele>2438.0</ele>
        <time>2018-09-01T12:22:50Z</time>
      </trkpt>
      <trkpt lat="40.424633" lon="-5.296083">
        <ele>2440.0</ele>
        <time>2018-09-01T12:22:51Z</time>
      </trkpt>
      <trkpt lat="40.424700" lon="-5.296000">
        <ele>2444.0</ele>
        <time>2018-09-01T12:22:52Z</time>
      </trkpt>
      <trkpt lat="40.424767" lon="-5.295933">
        <ele>2448.0</ele>
        <time>2018-09-01T12:22:53Z</time>
      </trkpt>
      <trkpt lat="40.424817" lon="-5.295883">
        <ele>2451.0</ele>
        <time>2018-09-01T12:22:54Z</time>
      </trkpt>
      <trkpt lat="40.424883" lon="-5.295867">
        <ele>2452.0</ele>
        <time>2018-09-01T12:22:55Z</time>
      </trkpt>
      <trkpt lat="40.424933" lon="-5.295867">
        <ele>2452.0</ele>
        <time>2018-09-01T12:22:56Z</time>
      </trkpt>
      <trkpt lat="40.425000" lon="-5.295883">
        <ele>2451.0</ele>
        <time>2018-09-01T12:22:57Z</time>
      </trkpt>
      <trkpt lat="40.425067" lon="-5.295950">
        <ele>2450.0</ele>
        <time>2018-09-01T12:22:58Z</time>
      </trkpt>
      <trkpt lat="40.425100" lon="-5.296017">
        <ele>2448.0</ele>
        <time>2018-09-01T12:22:59Z</time>
      </trkpt>
      <trkpt lat="40.425133" lon="-5.296133">
        <ele>2447.0</ele>
        <time>2018-09-01T12:23:00Z</time>
      </trkpt>
      <trkpt lat="40.425133" lon="-5.296250">
        <ele>2445.0</ele>
        <time>2018-09-01T12:23:01Z</time>
      </trkpt>
      <trkpt lat="40.425117" lon="-5.296383">
        <ele>2444.0</ele>
        <time>2018-09-01T12:23:02Z</time>
      </trkpt>
      <trkpt lat="40.425083" lon="-5.296517">
        <ele>2446.0</ele>
        <time>2018-09-01T12:23:03Z</time>
      </trkpt>
      <trkpt lat="40.425033" lon="-5.296633">
        <ele>2448.0</ele>
        <time>2018-09-01T12:23:04Z</time>
      </trkpt>
      <trkpt lat="40.425000" lon="-5.296750">
        <ele>2451.0</ele>
        <time>2018-09-01T12:23:05Z</time>
      </trkpt>
      <trkpt lat="40.424950" lon="-5.296850">
        <ele>2453.0</ele>
        <time>2018-09-01T12:23:06Z</time>
      </trkpt>
      <trkpt lat="40.424917" lon="-5.296950">
        <ele>2454.0</ele>
        <time>2018-09-01T12:23:07Z</time>
      </trkpt>
      <trkpt lat="40.424850" lon="-5.297050">
        <ele>2456.0</ele>
        <time>2018-09-01T12:23:08Z</time>
      </trkpt>
      <trkpt lat="40.424767" lon="-5.297117">
        <ele>2456.0</ele>
        <time>2018-09-01T12:23:09Z</time>
      </trkpt>
      <trkpt lat="40.424667" lon="-5.297183">
        <ele>2456.0</ele>
        <time>2018-09-01T12:23:10Z</time>
      </trkpt>
      <trkpt lat="40.424550" lon="-5.297233">
        <ele>2456.0</ele>
        <time>2018-09-01T12:23:11Z</time>
      </trkpt>
      <trkpt lat="40.424417" lon="-5.297250">
        <ele>2458.0</ele>
        <time>2018-09-01T12:23:12Z</time>
      </trkpt>
      <trkpt lat="40.424300" lon="-5.297267">
        <ele>2460.0</ele>
        <time>2018-09-01T12:23:13Z</time>
      </trkpt>
      <trkpt lat="40.424183" lon="-5.297267">
        <ele>2462.0</ele>
        <time>2018-09-01T12:23:14Z</time>
      </trkpt>
      <trkpt lat="40.424067" lon="-5.297250">
        <ele>2462.0</ele>
        <time>2018-09-01T12:23:15Z</time>
      </trkpt>
      <trkpt lat="40.423967" lon="-5.297200">
        <ele>2461.0</ele>
        <time>2018-09-01T12:23:16Z</time>
      </trkpt>
      <trkpt lat="40.423867" lon="-5.297117">
        <ele>2459.0</ele>
        <time>2018-09-01T12:23:17Z</time>
      </trkpt>
      <trkpt lat="40.423800" lon="-5.297000">
        <ele>2456.0</ele>
        <time>2018-09-01T12:23:18Z</time>
      </trkpt>
      <trkpt lat="40.423750" lon="-5.296867">
        <ele>2455.0</ele>
        <time>2018-09-01T12:23:19Z</time>
      </trkpt>
      <trkpt lat="40.423750" lon="-5.296717">
        <ele>2455.0</ele>
        <time>2018-09-01T12:23:20Z</time>
      </trkpt>
      <trkpt lat="40.423767" lon="-5.296583">
        <ele>2456.0</ele>
        <time>2018-09-01T12:23:21Z</time>
      </trkpt>
      <trkpt lat="40.423817" lon="-5.296483">
        <ele>2456.0</ele>
        <time>2018-09-01T12:23:22Z</time>
      </trkpt>
      <trkpt lat="40.423867" lon="-5.296417">
        <ele>2456.0</ele>
        <time>2018-09-01T12:23:23Z</time>
      </trkpt>
      <trkpt lat="40.423917" lon="-5.296350">
        <ele>2455.0</ele>
        <time>2018-09-01T12:23:24Z</time>
      </trkpt>
      <trkpt lat="40.424000" lon="-5.296300">
        <ele>2453.0</ele>
        <time>2018-09-01T12:23:25Z</time>
      </trkpt>
      <trkpt lat="40.424083" lon="-5.296250">
        <ele>2452.0</ele>
        <time>2018-09-01T12:23:26Z</time>
      </trkpt>
      <trkpt lat="40.424183" lon="-5.296217">
        <ele>2454.0</ele>
        <time>2018-09-01T12:23:27Z</time>
      </trkpt>
      <trkpt lat="40.424267" lon="-5.296200">
        <ele>2457.0</ele>
        <time>2018-09-01T12:23:28Z</time>
      </trkpt>
      <trkpt lat="40.424333" lon="-5.296200">
        <ele>2461.0</ele>
        <time>2018-09-01T12:23:29Z</time>
      </trkpt>
      <trkpt lat="40.424383" lon="-5.296200">
        <ele>2464.0</ele>
        <time>2018-09-01T12:23:30Z</time>
      </trkpt>
      <trkpt lat="40.424433" lon="-5.296217">
        <ele>2465.0</ele>
        <time>2018-09-01T12:23:31Z</time>
      </trkpt>
      <trkpt lat="40.424500" lon="-5.296217">
        <ele>2465.0</ele>
        <time>2018-09-01T12:23:32Z</time>
      </trkpt>
      <trkpt lat="40.424567" lon="-5.296233">
        <ele>2464.0</ele>
        <time>2018-09-01T12:23:33Z</time>
      </trkpt>
      <trkpt lat="40.424633" lon="-5.296267">
        <ele>2464.0</ele>
        <time>2018-09-01T12:23:34Z</time>
      </trkpt>
      <trkpt lat="40.424700" lon="-5.296300">
        <ele>2464.0</ele>
        <time>2018-09-01T12:23:35Z</time>
      </trkpt>
      <trkpt lat="40.424750" lon="-5.296350">
        <ele>2465.0</ele>
        <time>2018-09-01T12:23:36Z</time>
      </trkpt>
      <trkpt lat="40.424800" lon="-5.296400">
        <ele>2466.0</ele>
        <time>2018-09-01T12:23:37Z</time>
      </trkpt>
      <trkpt lat="40.424850" lon="-5.296450">
        <ele>2466.0</ele>
        <time>2018-09-01T12:23:38Z</time>
      </trkpt>
      <trkpt lat="40.424900" lon="-5.296517">
        <ele>2466.0</ele>
        <time>2018-09-01T12:23:39Z</time>
      </trkpt>
      <trkpt lat="40.424950" lon="-5.296600">
        <ele>2466.0</ele>
        <time>2018-09-01T12:23:40Z</time>
      </trkpt>
      <trkpt lat="40.425000" lon="-5.296700">
        <ele>2466.0</ele>
        <time>2018-09-01T12:23:41Z</time>
      </trkpt>
      <trkpt lat="40.425050" lon="-5.296783">
        <ele>2467.0</ele>
        <time>2018-09-01T12:23:42Z</time>
      </trkpt>
      <trkpt lat="40.425100" lon="-5.296883">
        <ele>2468.0</ele>
        <time>2018-09-01T12:23:43Z</time>
      </trkpt>
      <trkpt lat="40.425150" lon="-5.296950">
        <ele>2469.0</ele>
        <time>2018-09-01T12:23:44Z</time>
      </trkpt>
      <trkpt lat="40.425200" lon="-5.297017">
        <ele>2471.0</ele>
        <time>2018-09-01T12:23:45Z</time>
      </trkpt>
      <trkpt lat="40.425250" lon="-5.297100">
        <ele>2472.0</ele>
        <time>2018-09-01T12:23:46Z</time>
      </trkpt>
      <trkpt lat="40.425300" lon="-5.297167">
        <ele>2473.0</ele>
        <time>2018-09-01T12:23:47Z</time>
      </trkpt>
      <trkpt lat="40.425350" lon="-5.297250">
        <ele>2475.0</ele>
        <time>2018-09-01T12:23:48Z</time>
      </trkpt>
      <trkpt lat="40.425400" lon="-5.297300">
        <ele>2478.0</ele>
        <time>2018-09-01T12:23:49Z</time>
      </trkpt>
      <trkpt lat="40.425467" lon="-5.297350">
        <ele>2481.0</ele>
        <time>2018-09-01T12:23:50Z</time>
      </trkpt>
      <trkpt lat="40.425533" lon="-5.297383">
        <ele>2484.0</ele>
        <time>2018-09-01T12:23:51Z</time>
      </trkpt>
      <trkpt lat="40.425583" lon="-5.297433">
        <ele>2487.0</ele>
        <time>2018-09-01T12:23:52Z</time>
      </trkpt>
      <trkpt lat="40.425633" lon="-5.297500">
        <ele>2490.0</ele>
        <time>2018-09-01T12:23:53Z</time>
      </trkpt>
      <trkpt lat="40.425683" lon="-5.297567">
        <ele>2492.0</ele>
        <time>2018-09-01T12:23:54Z</time>
      </trkpt>
      <trkpt lat="40.425750" lon="-5.297617">
        <ele>2494.0</ele>
        <time>2018-09-01T12:23:55Z</time>
      </trkpt>
      <trkpt lat="40.425817" lon="-5.297633">
        <ele>2495.0</ele>
        <time>2018-09-01T12:23:56Z</time>
      </trkpt>
      <trkpt lat="40.425900" lon="-5.297650">
        <ele>2495.0</ele>
        <time>2018-09-01T12:23:57Z</time>
      </trkpt>
      <trkpt lat="40.425983" lon="-5.297650">
        <ele>2497.0</ele>
        <time>2018-09-01T12:23:58Z</time>
      </trkpt>
      <trkpt lat="40.426050" lon="-5.297683">
        <ele>2500.0</ele>
        <time>2018-09-01T12:23:59Z</time>
      </trkpt>
      <trkpt lat="40.426117" lon="-5.297717">
        <ele>2503.0</ele>
        <time>2018-09-01T12:24:00Z</time>
      </trkpt>
      <trkpt lat="40.426167" lon="-5.297767">
        <ele>2505.0</ele>
        <time>2018-09-01T12:24:01Z</time>
      </trkpt>
      <trkpt lat="40.426233" lon="-5.297817">
        <ele>2506.0</ele>
        <time>2018-09-01T12:24:02Z</time>
      </trkpt>
      <trkpt lat="40.426283" lon="-5.297850">
        <ele>2507.0</ele>
        <time>2018-09-01T12:24:03Z</time>
      </trkpt>
      <trkpt lat="40.426367" lon="-5.297900">
        <ele>2507.0</ele>
        <time>2018-09-01T12:24:04Z</time>
      </trkpt>
      <trkpt lat="40.426433" lon="-5.297933">
        <ele>2507.0</ele>
        <time>2018-09-01T12:24:05Z</time>
      </trkpt>
      <trkpt lat="40.426500" lon="-5.297967">
        <ele>2507.0</ele>
        <time>2018-09-01T12:24:06Z</time>
      </trkpt>
      <trkpt lat="40.426583" lon="-5.298017">
        <ele>2507.0</ele>
        <time>2018-09-01T12:24:07Z</time>
      </trkpt>
      <trkpt lat="40.426667" lon="-5.298083">
        <ele>2507.0</ele>
        <time>2018-09-01T12:24:08Z</time>
      </trkpt>
      <trkpt lat="40.426733" lon="-5.298117">
        <ele>2508.0</ele>
        <time>2018-09-01T12:24:09Z</time>
      </trkpt>
      <trkpt lat="40.426833" lon="-5.298150">
        <ele>2509.0</ele>
        <time>2018-09-01T12:24:10Z</time>
      </trkpt>
      <trkpt lat="40.426917" lon="-5.298167">
        <ele>2510.0</ele>
        <time>2018-09-01T12:24:11Z</time>
      </trkpt>
      <trkpt lat="40.427000" lon="-5.298167">
        <ele>2511.0</ele>
        <time>2018-09-01T12:24:12Z</time>
      </trkpt>
      <trkpt lat="40.427083" lon="-5.298183">
        <ele>2512.0</ele>
        <time>2018-09-01T12:24:13Z</time>
      </trkpt>
      <trkpt lat="40.427183" lon="-5.298217">
        <ele>2512.0</ele>
        <time>2018-09-01T12:24:14Z</time>
      </trkpt>
      <trkpt lat="40.427267" lon="-5.298267">
        <ele>2512.0</ele>
        <time>2018-09-01T12:24:15Z</time>
      </trkpt>
      <trkpt lat="40.427333" lon="-5.298350">
        <ele>2512.0</ele>
        <time>2018-09-01T12:24:16Z</time>
      </trkpt>
      <trkpt lat="40.427367" lon="-5.298467">
        <ele>2511.0</ele>
        <time>2018-09-01T12:24:17Z</time>
      </trkpt>
      <trkpt lat="40.427367" lon="-5.298583">
        <ele>2511.0</ele>
        <time>2018-09-01T12:24:18Z</time>
      </trkpt>
      <trkpt lat="40.427333" lon="-5.298700">
        <ele>2512.0</ele>
        <time>2018-09-01T12:24:19Z</time>
      </trkpt>
      <trkpt lat="40.427283" lon="-5.298783">
        <ele>2513.0</ele>
        <time>2018-09-01T12:24:20Z</time>
      </trkpt>
      <trkpt lat="40.427217" lon="-5.298817">
        <ele>2515.0</ele>
        <time>2018-09-01T12:24:21Z</time>
      </trkpt>
      <trkpt lat="40.427150" lon="-5.298817">
        <ele>2514.0</ele>
        <time>2018-09-01T12:24:22Z</time>
      </trkpt>
      <trkpt lat="40.427050" lon="-5.298800">
        <ele>2512.0</ele>
        <time>2018-09-01T12:24:23Z</time>
      </trkpt>
      <trkpt lat="40.426967" lon="-5.298733">
        <ele>2509.0</ele>
        <time>2018-09-01T12:24:24Z</time>
      </trkpt>
      <trkpt lat="40.426867" lon="-5.298633">
        <ele>2506.0</ele>
        <time>2018-09-01T12:24:25Z</time>
      </trkpt>
      <trkpt lat="40.426800" lon="-5.298500">
        <ele>2504.0</ele>
        <time>2018-09-01T12:24:26Z</time>
      </trkpt>
      <trkpt lat="40.426750" lon="-5.298333">
        <ele>2503.0</ele>
        <time>2018-09-01T12:24:27Z</time>
      </trkpt>
      <trkpt lat="40.426717" lon="-5.298183">
        <ele>2503.0</ele>
        <time>2018-09-01T12:24:28Z</time>
      </trkpt>
      <trkpt lat="40.426717" lon="-5.298017">
        <ele>2504.0</ele>
        <time>2018-09-01T12:24:29Z</time>
      </trkpt>
      <trkpt lat="40.426733" lon="-5.297850">
        <ele>2505.0</ele>
        <time>2018-09-01T12:24:30Z</time>
      </trkpt>
      <trkpt lat="40.426750" lon="-5.297700">
        <ele>2506.0</ele>
        <time>2018-09-01T12:24:31Z</time>
      </trkpt>
      <trkpt lat="40.426750" lon="-5.297567">
        <ele>2508.0</ele>
        <time>2018-09-01T12:24:32Z</time>
      </trkpt>
      <trkpt lat="40.426767" lon="-5.297417">
        <ele>2509.0</ele>
        <time>2018-09-01T12:24:33Z</time>
      </trkpt>
      <trkpt lat="40.426783" lon="-5.297283">
        <ele>2509.0</ele>
        <time>2018-09-01T12:24:34Z</time>
      </trkpt>
      <trkpt lat="40.426800" lon="-5.297150">
        <ele>2509.0</ele>
        <time>2018-09-01T12:24:35Z</time>
      </trkpt>
      <trkpt lat="40.426833" lon="-5.297017">
        <ele>2508.0</ele>
        <time>2018-09-01T12:24:36Z</time>
      </trkpt>
      <trkpt lat="40.426850" lon="-5.296883">
        <ele>2508.0</ele>
        <time>2018-09-01T12:24:37Z</time>
      </trkpt>
      <trkpt lat="40.426850" lon="-5.296733">
        <ele>2508.0</ele>
        <time>2018-09-01T12:24:38Z</time>
      </trkpt>
      <trkpt lat="40.426850" lon="-5.296600">
        <ele>2509.0</ele>
        <time>2018-09-01T12:24:39Z</time>
      </trkpt>
      <trkpt lat="40.426850" lon="-5.296450">
        <ele>2509.0</ele>
        <time>2018-09-01T12:24:40Z</time>
      </trkpt>
      <trkpt lat="40.426850" lon="-5.296317">
        <ele>2510.0</ele>
        <time>2018-09-01T12:24:41Z</time>
      </trkpt>
      <trkpt lat="40.426867" lon="-5.296200">
        <ele>2511.0</ele>
        <time>2018-09-01T12:24:42Z</time>
      </trkpt>
      <trkpt lat="40.426867" lon="-5.296083">
        <ele>2512.0</ele>
        <time>2018-09-01T12:24:43Z</time>
      </trkpt>
      <trkpt lat="40.426867" lon="-5.295983">
        <ele>2512.0</ele>
        <time>2018-09-01T12:24:44Z</time>
      </trkpt>
      <trkpt lat="40.426883" lon="-5.295867">
        <ele>2511.0</ele>
        <time>2018-09-01T12:24:45Z</time>
      </trkpt>
      <trkpt lat="40.426900" lon="-5.295733">
        <ele>2510.0</ele>
        <time>2018-09-01T12:24:46Z</time>
      </trkpt>
      <trkpt lat="40.426900" lon="-5.295617">
        <ele>2509.0</ele>
        <time>2018-09-01T12:24:47Z</time>
      </trkpt>
      <trkpt lat="40.426900" lon="-5.295483">
        <ele>2508.0</ele>
        <time>2018-09-01T12:24:48Z</time>
      </trkpt>
      <trkpt lat="40.426900" lon="-5.295350">
        <ele>2507.0</ele>
        <time>2018-09-01T12:24:49Z</time>
      </trkpt>
      <trkpt lat="40.426900" lon="-5.295233">
        <ele>2506.0</ele>
        <time>2018-09-01T12:24:50Z</time>
      </trkpt>
      <trkpt lat="40.426867" lon="-5.295100">
        <ele>2505.0</ele>
        <time>2018-09-01T12:24:51Z</time>
      </trkpt>
      <trkpt lat="40.426800" lon="-5.294983">
        <ele>2503.0</ele>
        <time>2018-09-01T12:24:52Z</time>
      </trkpt>
      <trkpt lat="40.426717" lon="-5.294883">
        <ele>2500.0</ele>
        <time>2018-09-01T12:24:53Z</time>
      </trkpt>
      <trkpt lat="40.426617" lon="-5.294783">
        <ele>2498.0</ele>
        <time>2018-09-01T12:24:54Z</time>
      </trkpt>
      <trkpt lat="40.426517" lon="-5.294700">
        <ele>2497.0</ele>
        <time>2018-09-01T12:24:55Z</time>
      </trkpt>
      <trkpt lat="40.426400" lon="-5.294617">
        <ele>2497.0</ele>
        <time>2018-09-01T12:24:56Z</time>
      </trkpt>
      <trkpt lat="40.426300" lon="-5.294567">
        <ele>2496.0</ele>
        <time>2018-09-01T12:24:57Z</time>
      </trkpt>
      <trkpt lat="40.426200" lon="-5.294533">
        <ele>2495.0</ele>
        <time>2018-09-01T12:24:58Z</time>
      </trkpt>
      <trkpt lat="40.426100" lon="-5.294500">
        <ele>2493.0</ele>
        <time>2018-09-01T12:24:59Z</time>
      </trkpt>
      <trkpt lat="40.425983" lon="-5.294483">
        <ele>2491.0</ele>
        <time>2018-09-01T12:25:00Z</time>
      </trkpt>
      <trkpt lat="40.425867" lon="-5.294483">
        <ele>2489.0</ele>
        <time>2018-09-01T12:25:01Z</time>
      </trkpt>
      <trkpt lat="40.425750" lon="-5.294500">
        <ele>2487.0</ele>
        <time>2018-09-01T12:25:02Z</time>
      </trkpt>
      <trkpt lat="40.425633" lon="-5.294533">
        <ele>2486.0</ele>
        <time>2018-09-01T12:25:03Z</time>
      </trkpt>
      <trkpt lat="40.425517" lon="-5.294583">
        <ele>2486.0</ele>
        <time>2018-09-01T12:25:04Z</time>
      </trkpt>
      <trkpt lat="40.425417" lon="-5.294650">
        <ele>2485.0</ele>
        <time>2018-09-01T12:25:05Z</time>
      </trkpt>
      <trkpt lat="40.425333" lon="-5.294717">
        <ele>2485.0</ele>
        <time>2018-09-01T12:25:06Z</time>
      </trkpt>
      <trkpt lat="40.425233" lon="-5.294783">
        <ele>2484.0</ele>
        <time>2018-09-01T12:25:07Z</time>
      </trkpt>
      <trkpt lat="40.425150" lon="-5.294867">
        <ele>2483.0</ele>
        <time>2018-09-01T12:25:08Z</time>
      </trkpt>
      <trkpt lat="40.425067" lon="-5.294950">
        <ele>2482.0</ele>
        <time>2018-09-01T12:25:09Z</time>
      </trkpt>
      <trkpt lat="40.424983" lon="-5.295050">
        <ele>2481.0</ele>
        <time>2018-09-01T12:25:10Z</time>
      </trkpt>
      <trkpt lat="40.424917" lon="-5.295133">
        <ele>2481.0</ele>
        <time>2018-09-01T12:25:11Z</time>
      </trkpt>
      <trkpt lat="40.424817" lon="-5.295200">
        <ele>2482.0</ele>
        <time>2018-09-01T12:25:12Z</time>
      </trkpt>
      <trkpt lat="40.424717" lon="-5.295217">
        <ele>2481.0</ele>
        <time>2018-09-01T12:25:13Z</time>
      </trkpt>
      <trkpt lat="40.424617" lon="-5.295217">
        <ele>2479.0</ele>
        <time>2018-09-01T12:25:14Z</time>
      </trkpt>
      <trkpt lat="40.424500" lon="-5.295200">
        <ele>2478.0</ele>
        <time>2018-09-01T12:25:15Z</time>
      </trkpt>
      <trkpt lat="40.424383" lon="-5.295217">
        <ele>2477.0</ele>
        <time>2018-09-01T12:25:16Z</time>
      </trkpt>
      <trkpt lat="40.424300" lon="-5.295267">
        <ele>2475.0</ele>
        <time>2018-09-01T12:25:17Z</time>
      </trkpt>
      <trkpt lat="40.424233" lon="-5.295350">
        <ele>2473.0</ele>
        <time>2018-09-01T12:25:18Z</time>
      </trkpt>
      <trkpt lat="40.424200" lon="-5.295467">
        <ele>2471.0</ele>
        <time>2018-09-01T12:25:19Z</time>
      </trkpt>
      <trkpt lat="40.424200" lon="-5.295583">
        <ele>2470.0</ele>
        <time>2018-09-01T12:25:20Z</time>
      </trkpt>
      <trkpt lat="40.424217" lon="-5.295683">
        <ele>2471.0</ele>
        <time>2018-09-01T12:25:21Z</time>
      </trkpt>
      <trkpt lat="40.424267" lon="-5.295767">
        <ele>2472.0</ele>
        <time>2018-09-01T12:25:22Z</time>
      </trkpt>
      <trkpt lat="40.424333" lon="-5.295800">
        <ele>2473.0</ele>
        <time>2018-09-01T12:25:23Z</time>
      </trkpt>
      <trkpt lat="40.424383" lon="-5.295817">
        <ele>2474.0</ele>
        <time>2018-09-01T12:25:24Z</time>
      </trkpt>
      <trkpt lat="40.424433" lon="-5.295817">
        <ele>2473.0</ele>
        <time>2018-09-01T12:25:25Z</time>
      </trkpt>
      <trkpt lat="40.424500" lon="-5.295800">
        <ele>2472.0</ele>
        <time>2018-09-01T12:25:26Z</time>
      </trkpt>
      <trkpt lat="40.424567" lon="-5.295800">
        <ele>2470.0</ele>
        <time>2018-09-01T12:25:27Z</time>
      </trkpt>
      <trkpt lat="40.424650" lon="-5.295800">
        <ele>2468.0</ele>
        <time>2018-09-01T12:25:28Z</time>
      </trkpt>
      <trkpt lat="40.424717" lon="-5.295817">
        <ele>2466.0</ele>
        <time>2018-09-01T12:25:29Z</time>
      </trkpt>
      <trkpt lat="40.424767" lon="-5.295833">
        <ele>2464.0</ele>
        <time>2018-09-01T12:25:30Z</time>
      </trkpt>
      <trkpt lat="40.424850" lon="-5.295850">
        <ele>2461.0</ele>
        <time>2018-09-01T12:25:31Z</time>
      </trkpt>
      <trkpt lat="40.424917" lon="-5.295867">
        <ele>2459.0</ele>
        <time>2018-09-01T12:25:32Z</time>
      </trkpt>
      <trkpt lat="40.425000" lon="-5.295850">
        <ele>2456.0</ele>
        <time>2018-09-01T12:25:33Z</time>
      </trkpt>
      <trkpt lat="40.425100" lon="-5.295833">
        <ele>2453.0</ele>
        <time>2018-09-01T12:25:34Z</time>
      </trkpt>
      <trkpt lat="40.425183" lon="-5.295817">
        <ele>2451.0</ele>
        <time>2018-09-01T12:25:35Z</time>
      </trkpt>
      <trkpt lat="40.425267" lon="-5.295817">
        <ele>2449.0</ele>
        <time>2018-09-01T12:25:36Z</time>
      </trkpt>
      <trkpt lat="40.425333" lon="-5.295817">
        <ele>2447.0</ele>
        <time>2018-09-01T12:25:37Z</time>
      </trkpt>
      <trkpt lat="40.425400" lon="-5.295833">
        <ele>2444.0</ele>
        <time>2018-09-01T12:25:38Z</time>
      </trkpt>
      <trkpt lat="40.425483" lon="-5.295850">
        <ele>2440.0</ele>
        <time>2018-09-01T12:25:39Z</time>
      </trkpt>
      <trkpt lat="40.425567" lon="-5.295850">
        <ele>2437.0</ele>
        <time>2018-09-01T12:25:40Z</time>
      </trkpt>
      <trkpt lat="40.425667" lon="-5.295850">
        <ele>2433.0</ele>
        <time>2018-09-01T12:25:41Z</time>
      </trkpt>
      <trkpt lat="40.425767" lon="-5.295833">
        <ele>2430.0</ele>
        <time>2018-09-01T12:25:42Z</time>
      </trkpt>
      <trkpt lat="40.425850" lon="-5.295783">
        <ele>2427.0</ele>
        <time>2018-09-01T12:25:43Z</time>
      </trkpt>
      <trkpt lat="40.425950" lon="-5.295733">
        <ele>2425.0</ele>
        <time>2018-09-01T12:25:44Z</time>
      </trkpt>
      <trkpt lat="40.426033" lon="-5.295667">
        <ele>2423.0</ele>
        <time>2018-09-01T12:25:45Z</time>
      </trkpt>
      <trkpt lat="40.426117" lon="-5.295600">
        <ele>2421.0</ele>
        <time>2018-09-01T12:25:46Z</time>
      </trkpt>
      <trkpt lat="40.426217" lon="-5.295533">
        <ele>2418.0</ele>
        <time>2018-09-01T12:25:47Z</time>
      </trkpt>
      <trkpt lat="40.426300" lon="-5.295467">
        <ele>2415.0</ele>
        <time>2018-09-01T12:25:48Z</time>
      </trkpt>
      <trkpt lat="40.426383" lon="-5.295400">
        <ele>2413.0</ele>
        <time>2018-09-01T12:25:49Z</time>
      </trkpt>
      <trkpt lat="40.426483" lon="-5.295350">
        <ele>2410.0</ele>
        <time>2018-09-01T12:25:50Z</time>
      </trkpt>
      <trkpt lat="40.426567" lon="-5.295333">
        <ele>2408.0</ele>
        <time>2018-09-01T12:25:51Z</time>
      </trkpt>
      <trkpt lat="40.426667" lon="-5.295333">
        <ele>2406.0</ele>
        <time>2018-09-01T12:25:52Z</time>
      </trkpt>
      <trkpt lat="40.426750" lon="-5.295350">
        <ele>2404.0</ele>
        <time>2018-09-01T12:25:53Z</time>
      </trkpt>
      <trkpt lat="40.426817" lon="-5.295367">
        <ele>2402.0</ele>
        <time>2018-09-01T12:25:54Z</time>
      </trkpt>
      <trkpt lat="40.426900" lon="-5.295383">
        <ele>2400.0</ele>
        <time>2018-09-01T12:25:55Z</time>
      </trkpt>
      <trkpt lat="40.426983" lon="-5.295400">
        <ele>2397.0</ele>
        <time>2018-09-01T12:25:56Z</time>
      </trkpt>
      <trkpt lat="40.427083" lon="-5.295417">
        <ele>2396.0</ele>
        <time>2018-09-01T12:25:57Z</time>
      </trkpt>
      <trkpt lat="40.427167" lon="-5.295450">
        <ele>2394.0</ele>
        <time>2018-09-01T12:25:58Z</time>
      </trkpt>
      <trkpt lat="40.427250" lon="-5.295467">
        <ele>2393.0</ele>
        <time>2018-09-01T12:25:59Z</time>
      </trkpt>
      <trkpt lat="40.427350" lon="-5.295467">
        <ele>2391.0</ele>
        <time>2018-09-01T12:26:00Z</time>
      </trkpt>
      <trkpt lat="40.427433" lon="-5.295433">
        <ele>2390.0</ele>
        <time>2018-09-01T12:26:01Z</time>
      </trkpt>
      <trkpt lat="40.427533" lon="-5.295400">
        <ele>2389.0</ele>
        <time>2018-09-01T12:26:02Z</time>
      </trkpt>
      <trkpt lat="40.427617" lon="-5.295333">
        <ele>2388.0</ele>
        <time>2018-09-01T12:26:03Z</time>
      </trkpt>
      <trkpt lat="40.427717" lon="-5.295283">
        <ele>2387.0</ele>
        <time>2018-09-01T12:26:04Z</time>
      </trkpt>
      <trkpt lat="40.427800" lon="-5.295233">
        <ele>2385.0</ele>
        <time>2018-09-01T12:26:05Z</time>
      </trkpt>
      <trkpt lat="40.427883" lon="-5.295167">
        <ele>2383.0</ele>
        <time>2018-09-01T12:26:06Z</time>
      </trkpt>
      <trkpt lat="40.427967" lon="-5.295100">
        <ele>2381.0</ele>
        <time>2018-09-01T12:26:07Z</time>
      </trkpt>
      <trkpt lat="40.428050" lon="-5.295033">
        <ele>2379.0</ele>
        <time>2018-09-01T12:26:08Z</time>
      </trkpt>
      <trkpt lat="40.428133" lon="-5.294933">
        <ele>2378.0</ele>
        <time>2018-09-01T12:26:09Z</time>
      </trkpt>
      <trkpt lat="40.428217" lon="-5.294850">
        <ele>2376.0</ele>
        <time>2018-09-01T12:26:10Z</time>
      </trkpt>
      <trkpt lat="40.428283" lon="-5.294767">
        <ele>2372.0</ele>
        <time>2018-09-01T12:26:11Z</time>
      </trkpt>
      <trkpt lat="40.428383" lon="-5.294717">
        <ele>2369.0</ele>
        <time>2018-09-01T12:26:12Z</time>
      </trkpt>
      <trkpt lat="40.428467" lon="-5.294667">
        <ele>2365.0</ele>
        <time>2018-09-01T12:26:13Z</time>
      </trkpt>
      <trkpt lat="40.428567" lon="-5.294600">
        <ele>2362.0</ele>
        <time>2018-09-01T12:26:14Z</time>
      </trkpt>
      <trkpt lat="40.428650" lon="-5.294533">
        <ele>2359.0</ele>
        <time>2018-09-01T12:26:15Z</time>
      </trkpt>
      <trkpt lat="40.428717" lon="-5.294433">
        <ele>2358.0</ele>
        <time>2018-09-01T12:26:16Z</time>
      </trkpt>
      <trkpt lat="40.428783" lon="-5.294350">
        <ele>2356.0</ele>
        <time>2018-09-01T12:26:17Z</time>
      </trkpt>
      <trkpt lat="40.428850" lon="-5.294283">
        <ele>2354.0</ele>
        <time>2018-09-01T12:26:18Z</time>
      </trkpt>
      <trkpt lat="40.428933" lon="-5.294217">
        <ele>2350.0</ele>
        <time>2018-09-01T12:26:19Z</time>
      </trkpt>
      <trkpt lat="40.429000" lon="-5.294150">
        <ele>2347.0</ele>
        <time>2018-09-01T12:26:20Z</time>
      </trkpt>
      <trkpt lat="40.429083" lon="-5.294083">
        <ele>2345.0</ele>
        <time>2018-09-01T12:26:21Z</time>
      </trkpt>
      <trkpt lat="40.429167" lon="-5.294017">
        <ele>2343.0</ele>
        <time>2018-09-01T12:26:22Z</time>
      </trkpt>
      <trkpt lat="40.429233" lon="-5.293967">
        <ele>2341.0</ele>
        <time>2018-09-01T12:26:23Z</time>
      </trkpt>
      <trkpt lat="40.429317" lon="-5.293933">
        <ele>2340.0</ele>
        <time>2018-09-01T12:26:24Z</time>
      </trkpt>
      <trkpt lat="40.429383" lon="-5.293900">
        <ele>2337.0</ele>
        <time>2018-09-01T12:26:25Z</time>
      </trkpt>
      <trkpt lat="40.429450" lon="-5.293867">
        <ele>2334.0</ele>
        <time>2018-09-01T12:26:26Z</time>
      </trkpt>
      <trkpt lat="40.429533" lon="-5.293833">
        <ele>2331.0</ele>
        <time>2018-09-01T12:26:27Z</time>
      </trkpt>
      <trkpt lat="40.429617" lon="-5.293800">
        <ele>2328.0</ele>
        <time>2018-09-01T12:26:28Z</time>
      </trkpt>
      <trkpt lat="40.429700" lon="-5.293750">
        <ele>2325.0</ele>
        <time>2018-09-01T12:26:29Z</time>
      </trkpt>
      <trkpt lat="40.429783" lon="-5.293717">
        <ele>2323.0</ele>
        <time>2018-09-01T12:26:30Z</time>
      </trkpt>
      <trkpt lat="40.429867" lon="-5.293650">
        <ele>2320.0</ele>
        <time>2018-09-01T12:26:31Z</time>
      </trkpt>
      <trkpt lat="40.429950" lon="-5.293600">
        <ele>2317.0</ele>
        <time>2018-09-01T12:26:32Z</time>
      </trkpt>
      <trkpt lat="40.430033" lon="-5.293550">
        <ele>2314.0</ele>
        <time>2018-09-01T12:26:33Z</time>
      </trkpt>
      <trkpt lat="40.430117" lon="-5.293483">
        <ele>2312.0</ele>
        <time>2018-09-01T12:26:34Z</time>
      </trkpt>
      <trkpt lat="40.430200" lon="-5.293450">
        <ele>2310.0</ele>
        <time>2018-09-01T12:26:35Z</time>
      </trkpt>
      <trkpt lat="40.430283" lon="-5.293417">
        <ele>2309.0</ele>
        <time>2018-09-01T12:26:36Z</time>
      </trkpt>
      <trkpt lat="40.430367" lon="-5.293383">
        <ele>2308.0</ele>
        <time>2018-09-01T12:26:37Z</time>
      </trkpt>
      <trkpt lat="40.430433" lon="-5.293350">
        <ele>2307.0</ele>
        <time>2018-09-01T12:26:38Z</time>
      </trkpt>
      <trkpt lat="40.430517" lon="-5.293333">
        <ele>2306.0</ele>
        <time>2018-09-01T12:26:39Z</time>
      </trkpt>
      <trkpt lat="40.430600" lon="-5.293300">
        <ele>2304.0</ele>
        <time>2018-09-01T12:26:40Z</time>
      </trkpt>
      <trkpt lat="40.430683" lon="-5.293267">
        <ele>2303.0</ele>
        <time>2018-09-01T12:26:41Z</time>
      </trkpt>
      <trkpt lat="40.430767" lon="-5.293217">
        <ele>2301.0</ele>
        <time>2018-09-01T12:26:42Z</time>
      </trkpt>
      <trkpt lat="40.430867" lon="-5.293167">
        <ele>2298.0</ele>
        <time>2018-09-01T12:26:43Z</time>
      </trkpt>
      <trkpt lat="40.430950" lon="-5.293100">
        <ele>2296.0</ele>
        <time>2018-09-01T12:26:44Z</time>
      </trkpt>
      <trkpt lat="40.431050" lon="-5.293050">
        <ele>2295.0</ele>
        <time>2018-09-01T12:26:45Z</time>
      </trkpt>
      <trkpt lat="40.431133" lon="-5.292983">
        <ele>2293.0</ele>
        <time>2018-09-01T12:26:46Z</time>
      </trkpt>
      <trkpt lat="40.431217" lon="-5.292917">
        <ele>2292.0</ele>
        <time>2018-09-01T12:26:47Z</time>
      </trkpt>
      <trkpt lat="40.431300" lon="-5.292850">
        <ele>2290.0</ele>
        <time>2018-09-01T12:26:48Z</time>
      </trkpt>
      <trkpt lat="40.431383" lon="-5.292800">
        <ele>2287.0</ele>
        <time>2018-09-01T12:26:49Z</time>
      </trkpt>
      <trkpt lat="40.431467" lon="-5.292750">
        <ele>2283.0</ele>
        <time>2018-09-01T12:26:50Z</time>
      </trkpt>
      <trkpt lat="40.431567" lon="-5.292717">
        <ele>2280.0</ele>
        <time>2018-09-01T12:26:51Z</time>
      </trkpt>
      <trkpt lat="40.431667" lon="-5.292683">
        <ele>2277.0</ele>
        <time>2018-09-01T12:26:52Z</time>
      </trkpt>
      <trkpt lat="40.431767" lon="-5.292650">
        <ele>2274.0</ele>
        <time>2018-09-01T12:26:53Z</time>
      </trkpt>
      <trkpt lat="40.431850" lon="-5.292617">
        <ele>2271.0</ele>
        <time>2018-09-01T12:26:54Z</time>
      </trkpt>
      <trkpt lat="40.431950" lon="-5.292567">
        <ele>2268.0</ele>
        <time>2018-09-01T12:26:55Z</time>
      </trkpt>
      <trkpt lat="40.432033" lon="-5.292533">
        <ele>2265.0</ele>
        <time>2018-09-01T12:26:56Z</time>
      </trkpt>
      <trkpt lat="40.432133" lon="-5.292500">
        <ele>2261.0</ele>
        <time>2018-09-01T12:26:57Z</time>
      </trkpt>
      <trkpt lat="40.432233" lon="-5.292450">
        <ele>2258.0</ele>
        <time>2018-09-01T12:26:58Z</time>
      </trkpt>
      <trkpt lat="40.432333" lon="-5.292417">
        <ele>2255.0</ele>
        <time>2018-09-01T12:26:59Z</time>
      </trkpt>
      <trkpt lat="40.432433" lon="-5.292400">
        <ele>2252.0</ele>
        <time>2018-09-01T12:27:00Z</time>
      </trkpt>
      <trkpt lat="40.432517" lon="-5.292400">
        <ele>2249.0</ele>
        <time>2018-09-01T12:27:01Z</time>
      </trkpt>
      <trkpt lat="40.432617" lon="-5.292383">
        <ele>2245.0</ele>
        <time>2018-09-01T12:27:02Z</time>
      </trkpt>
      <trkpt lat="40.432717" lon="-5.292400">
        <ele>2242.0</ele>
        <time>2018-09-01T12:27:03Z</time>
      </trkpt>
      <trkpt lat="40.432817" lon="-5.292400">
        <ele>2239.0</ele>
        <time>2018-09-01T12:27:04Z</time>
      </trkpt>
      <trkpt lat="40.432917" lon="-5.292400">
        <ele>2237.0</ele>
        <time>2018-09-01T12:27:05Z</time>
      </trkpt>
      <trkpt lat="40.433017" lon="-5.292400">
        <ele>2235.0</ele>
        <time>2018-09-01T12:27:06Z</time>
      </trkpt>
      <trkpt lat="40.433117" lon="-5.292400">
        <ele>2232.0</ele>
        <time>2018-09-01T12:27:07Z</time>
      </trkpt>
      <trkpt lat="40.433233" lon="-5.292383">
        <ele>2230.0</ele>
        <time>2018-09-01T12:27:08Z</time>
      </trkpt>
      <trkpt lat="40.433333" lon="-5.292367">
        <ele>2228.0</ele>
        <time>2018-09-01T12:27:09Z</time>
      </trkpt>
      <trkpt lat="40.433433" lon="-5.292350">
        <ele>2225.0</ele>
        <time>2018-09-01T12:27:10Z</time>
      </trkpt>
      <trkpt lat="40.433533" lon="-5.292333">
        <ele>2223.0</ele>
        <time>2018-09-01T12:27:11Z</time>
      </trkpt>
      <trkpt lat="40.433650" lon="-5.292283">
        <ele>2220.0</ele>
        <time>2018-09-01T12:27:12Z</time>
      </trkpt>
      <trkpt lat="40.433750" lon="-5.292250">
        <ele>2218.0</ele>
        <time>2018-09-01T12:27:13Z</time>
      </trkpt>
      <trkpt lat="40.433850" lon="-5.292200">
        <ele>2216.0</ele>
        <time>2018-09-01T12:27:14Z</time>
      </trkpt>
      <trkpt lat="40.433967" lon="-5.292167">
        <ele>2214.0</ele>
        <time>2018-09-01T12:27:15Z</time>
      </trkpt>
      <trkpt lat="40.434067" lon="-5.292117">
        <ele>2212.0</ele>
        <time>2018-09-01T12:27:16Z</time>
      </trkpt>
      <trkpt lat="40.434183" lon="-5.292067">
        <ele>2211.0</ele>
        <time>2018-09-01T12:27:17Z</time>
      </trkpt>
      <trkpt lat="40.434283" lon="-5.292017">
        <ele>2210.0</ele>
        <time>2018-09-01T12:27:18Z</time>
      </trkpt>
      <trkpt lat="40.434383" lon="-5.291950">
        <ele>2208.0</ele>
        <time>2018-09-01T12:27:19Z</time>
      </trkpt>
      <trkpt lat="40.434500" lon="-5.291917">
        <ele>2208.0</ele>
        <time>2018-09-01T12:27:20Z</time>
      </trkpt>
      <trkpt lat="40.434600" lon="-5.291883">
        <ele>2208.0</ele>
        <time>2018-09-01T12:27:21Z</time>
      </trkpt>
      <trkpt lat="40.434683" lon="-5.291883">
        <ele>2208.0</ele>
        <time>2018-09-01T12:27:22Z</time>
      </trkpt>
      <trkpt lat="40.434783" lon="-5.291883">
        <ele>2207.0</ele>
        <time>2018-09-01T12:27:23Z</time>
      </trkpt>
      <trkpt lat="40.434867" lon="-5.291883">
        <ele>2206.0</ele>
        <time>2018-09-01T12:27:24Z</time>
      </trkpt>
      <trkpt lat="40.434950" lon="-5.291883">
        <ele>2204.0</ele>
        <time>2018-09-01T12:27:25Z</time>
      </trkpt>
      <trkpt lat="40.435033" lon="-5.291900">
        <ele>2202.0</ele>
        <time>2018-09-01T12:27:26Z</time>
      </trkpt>
      <trkpt lat="40.435133" lon="-5.291933">
        <ele>2200.0</ele>
        <time>2018-09-01T12:27:27Z</time>
      </trkpt>
      <trkpt lat="40.435217" lon="-5.291967">
        <ele>2199.0</ele>
        <time>2018-09-01T12:27:28Z</time>
      </trkpt>
      <trkpt lat="40.435300" lon="-5.291983">
        <ele>2199.0</ele>
        <time>2018-09-01T12:27:29Z</time>
      </trkpt>
      <trkpt lat="40.435383" lon="-5.291983">
        <ele>2199.0</ele>
        <time>2018-09-01T12:27:30Z</time>
      </trkpt>
      <trkpt lat="40.435450" lon="-5.291967">
        <ele>2198.0</ele>
        <time>2018-09-01T12:27:31Z</time>
      </trkpt>
      <trkpt lat="40.435533" lon="-5.291967">
        <ele>2197.0</ele>
        <time>2018-09-01T12:27:32Z</time>
      </trkpt>
      <trkpt lat="40.435600" lon="-5.291950">
        <ele>2195.0</ele>
        <time>2018-09-01T12:27:33Z</time>
      </trkpt>
      <trkpt lat="40.435683" lon="-5.291967">
        <ele>2194.0</ele>
        <time>2018-09-01T12:27:34Z</time>
      </trkpt>
      <trkpt lat="40.435783" lon="-5.291967">
        <ele>2193.0</ele>
        <time>2018-09-01T12:27:35Z</time>
      </trkpt>
      <trkpt lat="40.435867" lon="-5.291950">
        <ele>2193.0</ele>
        <time>2018-09-01T12:27:36Z</time>
      </trkpt>
      <trkpt lat="40.435950" lon="-5.291917">
        <ele>2193.0</ele>
        <time>2018-09-01T12:27:37Z</time>
      </trkpt>
      <trkpt lat="40.436017" lon="-5.291883">
        <ele>2192.0</ele>
        <time>2018-09-01T12:27:38Z</time>
      </trkpt>
      <trkpt lat="40.436100" lon="-5.291850">
        <ele>2191.0</ele>
        <time>2018-09-01T12:27:39Z</time>
      </trkpt>
      <trkpt lat="40.436183" lon="-5.291800">
        <ele>2190.0</ele>
        <time>2018-09-01T12:27:40Z</time>
      </trkpt>
      <trkpt lat="40.436267" lon="-5.291750">
        <ele>2190.0</ele>
        <time>2018-09-01T12:27:41Z</time>
      </trkpt>
      <trkpt lat="40.436333" lon="-5.291733">
        <ele>2189.0</ele>
        <time>2018-09-01T12:27:42Z</time>
      </trkpt>
      <trkpt lat="40.436417" lon="-5.291717">
        <ele>2188.0</ele>
        <time>2018-09-01T12:27:43Z</time>
      </trkpt>
      <trkpt lat="40.436500" lon="-5.291733">
        <ele>2186.0</ele>
        <time>2018-09-01T12:27:44Z</time>
      </trkpt>
      <trkpt lat="40.436583" lon="-5.291767">
        <ele>2184.0</ele>
        <time>2018-09-01T12:27:45Z</time>
      </trkpt>
      <trkpt lat="40.436650" lon="-5.291817">
        <ele>2183.0</ele>
        <time>2018-09-01T12:27:46Z</time>
      </trkpt>
      <trkpt lat="40.436733" lon="-5.291867">
        <ele>2182.0</ele>
        <time>2018-09-01T12:27:47Z</time>
      </trkpt>
      <trkpt lat="40.436800" lon="-5.291917">
        <ele>2181.0</ele>
        <time>2018-09-01T12:27:48Z</time>
      </trkpt>
      <trkpt lat="40.436867" lon="-5.291967">
        <ele>2181.0</ele>
        <time>2018-09-01T12:27:49Z</time>
      </trkpt>
      <trkpt lat="40.436933" lon="-5.292033">
        <ele>2180.0</ele>
        <time>2018-09-01T12:27:50Z</time>
      </trkpt>
      <trkpt lat="40.436983" lon="-5.292100">
        <ele>2178.0</ele>
        <time>2018-09-01T12:27:51Z</time>
      </trkpt>
      <trkpt lat="40.437050" lon="-5.292183">
        <ele>2177.0</ele>
        <time>2018-09-01T12:27:52Z</time>
      </trkpt>
      <trkpt lat="40.437117" lon="-5.292267">
        <ele>2177.0</ele>
        <time>2018-09-01T12:27:53Z</time>
      </trkpt>
      <trkpt lat="40.437167" lon="-5.292333">
        <ele>2176.0</ele>
        <time>2018-09-01T12:27:54Z</time>
      </trkpt>
      <trkpt lat="40.437233" lon="-5.292400">
        <ele>2176.0</ele>
        <time>2018-09-01T12:27:55Z</time>
      </trkpt>
      <trkpt lat="40.437283" lon="-5.292467">
        <ele>2175.0</ele>
        <time>2018-09-01T12:27:56Z</time>
      </trkpt>
      <trkpt lat="40.437350" lon="-5.292550">
        <ele>2174.0</ele>
        <time>2018-09-01T12:27:57Z</time>
      </trkpt>
      <trkpt lat="40.437400" lon="-5.292617">
        <ele>2173.0</ele>
        <time>2018-09-01T12:27:58Z</time>
      </trkpt>
      <trkpt lat="40.437467" lon="-5.292700">
        <ele>2173.0</ele>
        <time>2018-09-01T12:27:59Z</time>
      </trkpt>
      <trkpt lat="40.437517" lon="-5.292767">
        <ele>2172.0</ele>
        <time>2018-09-01T12:28:00Z</time>
      </trkpt>
      <trkpt lat="40.437583" lon="-5.292833">
        <ele>2170.0</ele>
        <time>2018-09-01T12:28:01Z</time>
      </trkpt>
      <trkpt lat="40.437650" lon="-5.292917">
        <ele>2169.0</ele>
        <time>2018-09-01T12:28:02Z</time>
      </trkpt>
      <trkpt lat="40.437717" lon="-5.293017">
        <ele>2168.0</ele>
        <time>2018-09-01T12:28:03Z</time>
      </trkpt>
      <trkpt lat="40.437767" lon="-5.293117">
        <ele>2168.0</ele>
        <time>2018-09-01T12:28:04Z</time>
      </trkpt>
      <trkpt lat="40.437817" lon="-5.293200">
        <ele>2168.0</ele>
        <time>2018-09-01T12:28:05Z</time>
      </trkpt>
      <trkpt lat="40.437867" lon="-5.293267">
        <ele>2168.0</ele>
        <time>2018-09-01T12:28:06Z</time>
      </trkpt>
      <trkpt lat="40.437933" lon="-5.293350">
        <ele>2167.0</ele>
        <time>2018-09-01T12:28:07Z</time>
      </trkpt>
      <trkpt lat="40.437983" lon="-5.293433">
        <ele>2166.0</ele>
        <time>2018-09-01T12:28:08Z</time>
      </trkpt>
      <trkpt lat="40.438017" lon="-5.293533">
        <ele>2166.0</ele>
        <time>2018-09-01T12:28:09Z</time>
      </trkpt>
      <trkpt lat="40.438067" lon="-5.293617">
        <ele>2166.0</ele>
        <time>2018-09-01T12:28:10Z</time>
      </trkpt>
      <trkpt lat="40.438117" lon="-5.293700">
        <ele>2167.0</ele>
        <time>2018-09-01T12:28:11Z</time>
      </trkpt>
      <trkpt lat="40.438167" lon="-5.293783">
        <ele>2167.0</ele>
        <time>2018-09-01T12:28:12Z</time>
      </trkpt>
      <trkpt lat="40.438200" lon="-5.293850">
        <ele>2167.0</ele>
        <time>2018-09-01T12:28:13Z</time>
      </trkpt>
      <trkpt lat="40.438250" lon="-5.293917">
        <ele>2166.0</ele>
        <time>2018-09-01T12:28:14Z</time>
      </trkpt>
      <trkpt lat="40.438300" lon="-5.294000">
        <ele>2165.0</ele>
        <time>2018-09-01T12:28:15Z</time>
      </trkpt>
      <trkpt lat="40.438350" lon="-5.294083">
        <ele>2163.0</ele>
        <time>2018-09-01T12:28:16Z</time>
      </trkpt>
      <trkpt lat="40.438417" lon="-5.294167">
        <ele>2162.0</ele>
        <time>2018-09-01T12:28:17Z</time>
      </trkpt>
      <trkpt lat="40.438500" lon="-5.294250">
        <ele>2161.0</ele>
        <time>2018-09-01T12:28:18Z</time>
      </trkpt>
      <trkpt lat="40.438583" lon="-5.294317">
        <ele>2162.0</ele>
        <time>2018-09-01T12:28:19Z</time>
      </trkpt>
      <trkpt lat="40.438633" lon="-5.294400">
        <ele>2163.0</ele>
        <time>2018-09-01T12:28:20Z</time>
      </trkpt>
      <trkpt lat="40.438683" lon="-5.294467">
        <ele>2164.0</ele>
        <time>2018-09-01T12:28:21Z</time>
      </trkpt>
      <trkpt lat="40.438717" lon="-5.294550">
        <ele>2165.0</ele>
        <time>2018-09-01T12:28:22Z</time>
      </trkpt>
      <trkpt lat="40.438750" lon="-5.294617">
        <ele>2165.0</ele>
        <time>2018-09-01T12:28:23Z</time>
      </trkpt>
      <trkpt lat="40.438783" lon="-5.294700">
        <ele>2164.0</ele>
        <time>2018-09-01T12:28:24Z</time>
      </trkpt>
      <trkpt lat="40.438833" lon="-5.294767">
        <ele>2164.0</ele>
        <time>2018-09-01T12:28:25Z</time>
      </trkpt>
      <trkpt lat="40.438883" lon="-5.294833">
        <ele>2163.0</ele>
        <time>2018-09-01T12:28:26Z</time>
      </trkpt>
      <trkpt lat="40.438933" lon="-5.294917">
        <ele>2162.0</ele>
        <time>2018-09-01T12:28:27Z</time>
      </trkpt>
      <trkpt lat="40.438967" lon="-5.295000">
        <ele>2162.0</ele>
        <time>2018-09-01T12:28:28Z</time>
      </trkpt>
      <trkpt lat="40.438983" lon="-5.295117">
        <ele>2161.0</ele>
        <time>2018-09-01T12:28:29Z</time>
      </trkpt>
      <trkpt lat="40.439017" lon="-5.295233">
        <ele>2162.0</ele>
        <time>2018-09-01T12:28:30Z</time>
      </trkpt>
      <trkpt lat="40.439033" lon="-5.295333">
        <ele>2164.0</ele>
        <time>2018-09-01T12:28:31Z</time>
      </trkpt>
      <trkpt lat="40.439067" lon="-5.295433">
        <ele>2165.0</ele>
        <time>2018-09-01T12:28:32Z</time>
      </trkpt>
      <trkpt lat="40.439083" lon="-5.295517">
        <ele>2166.0</ele>
        <time>2018-09-01T12:28:33Z</time>
      </trkpt>
      <trkpt lat="40.439083" lon="-5.295617">
        <ele>2166.0</ele>
        <time>2018-09-01T12:28:34Z</time>
      </trkpt>
      <trkpt lat="40.439083" lon="-5.295700">
        <ele>2166.0</ele>
        <time>2018-09-01T12:28:35Z</time>
      </trkpt>
      <trkpt lat="40.439067" lon="-5.295800">
        <ele>2167.0</ele>
        <time>2018-09-01T12:28:36Z</time>
      </trkpt>
      <trkpt lat="40.439050" lon="-5.295900">
        <ele>2169.0</ele>
        <time>2018-09-01T12:28:37Z</time>
      </trkpt>
      <trkpt lat="40.439000" lon="-5.296000">
        <ele>2171.0</ele>
        <time>2018-09-01T12:28:38Z</time>
      </trkpt>
      <trkpt lat="40.438950" lon="-5.296067">
        <ele>2173.0</ele>
        <time>2018-09-01T12:28:39Z</time>
      </trkpt>
      <trkpt lat="40.438900" lon="-5.296133">
        <ele>2174.0</ele>
        <time>2018-09-01T12:28:40Z</time>
      </trkpt>
      <trkpt lat="40.438833" lon="-5.296217">
        <ele>2175.0</ele>
        <time>2018-09-01T12:28:41Z</time>
      </trkpt>
      <trkpt lat="40.438767" lon="-5.296283">
        <ele>2175.0</ele>
        <time>2018-09-01T12:28:42Z</time>
      </trkpt>
      <trkpt lat="40.438683" lon="-5.296350">
        <ele>2175.0</ele>
        <time>2018-09-01T12:28:43Z</time>
      </trkpt>
      <trkpt lat="40.438583" lon="-5.296383">
        <ele>2176.0</ele>
        <time>2018-09-01T12:28:44Z</time>
      </trkpt>
      <trkpt lat="40.438467" lon="-5.296400">
        <ele>2177.0</ele>
        <time>2018-09-01T12:28:45Z</time>
      </trkpt>
      <trkpt lat="40.438350" lon="-5.296383">
        <ele>2178.0</ele>
        <time>2018-09-01T12:28:46Z</time>
      </trkpt>
      <trkpt lat="40.438233" lon="-5.296350">
        <ele>2178.0</ele>
        <time>2018-09-01T12:28:47Z</time>
      </trkpt>
      <trkpt lat="40.438117" lon="-5.296267">
        <ele>2179.0</ele>
        <time>2018-09-01T12:28:48Z</time>
      </trkpt>
      <trkpt lat="40.438017" lon="-5.296183">
        <ele>2180.0</ele>
        <time>2018-09-01T12:28:49Z</time>
      </trkpt>
      <trkpt lat="40.437917" lon="-5.296067">
        <ele>2182.0</ele>
        <time>2018-09-01T12:28:50Z</time>
      </trkpt>
      <trkpt lat="40.437833" lon="-5.295933">
        <ele>2183.0</ele>
        <time>2018-09-01T12:28:51Z</time>
      </trkpt>
      <trkpt lat="40.437783" lon="-5.295783">
        <ele>2184.0</ele>
        <time>2018-09-01T12:28:52Z</time>
      </trkpt>
      <trkpt lat="40.437733" lon="-5.295633">
        <ele>2185.0</ele>
        <time>2018-09-01T12:28:53Z</time>
      </trkpt>
      <trkpt lat="40.437717" lon="-5.295467">
        <ele>2186.0</ele>
        <time>2018-09-01T12:28:54Z</time>
      </trkpt>
      <trkpt lat="40.437717" lon="-5.295317">
        <ele>2187.0</ele>
        <time>2018-09-01T12:28:55Z</time>
      </trkpt>
      <trkpt lat="40.437733" lon="-5.295167">
        <ele>2188.0</ele>
        <time>2018-09-01T12:28:56Z</time>
      </trkpt>
      <trkpt lat="40.437783" lon="-5.295050">
        <ele>2189.0</ele>
        <time>2018-09-01T12:28:57Z</time>
      </trkpt>
      <trkpt lat="40.437833" lon="-5.294967">
        <ele>2191.0</ele>
        <time>2018-09-01T12:28:58Z</time>
      </trkpt>
      <trkpt lat="40.437917" lon="-5.294900">
        <ele>2192.0</ele>
        <time>2018-09-01T12:28:59Z</time>
      </trkpt>
      <trkpt lat="40.437983" lon="-5.294867">
        <ele>2193.0</ele>
        <time>2018-09-01T12:29:00Z</time>
      </trkpt>
      <trkpt lat="40.438067" lon="-5.294867">
        <ele>2194.0</ele>
        <time>2018-09-01T12:29:01Z</time>
      </trkpt>
      <trkpt lat="40.438133" lon="-5.294883">
        <ele>2196.0</ele>
        <time>2018-09-01T12:29:02Z</time>
      </trkpt>
      <trkpt lat="40.438183" lon="-5.294917">
        <ele>2199.0</ele>
        <time>2018-09-01T12:29:03Z</time>
      </trkpt>
      <trkpt lat="40.438217" lon="-5.294967">
        <ele>2201.0</ele>
        <time>2018-09-01T12:29:04Z</time>
      </trkpt>
      <trkpt lat="40.438217" lon="-5.295050">
        <ele>2201.0</ele>
        <time>2018-09-01T12:29:05Z</time>
      </trkpt>
      <trkpt lat="40.438200" lon="-5.295133">
        <ele>2200.0</ele>
        <time>2018-09-01T12:29:06Z</time>
      </trkpt>
      <trkpt lat="40.438167" lon="-5.295250">
        <ele>2201.0</ele>
        <time>2018-09-01T12:29:07Z</time>
      </trkpt>
      <trkpt lat="40.438100" lon="-5.295350">
        <ele>2202.0</ele>
        <time>2018-09-01T12:29:08Z</time>
      </trkpt>
      <trkpt lat="40.438033" lon="-5.295417">
        <ele>2205.0</ele>
        <time>2018-09-01T12:29:09Z</time>
      </trkpt>
      <trkpt lat="40.437933" lon="-5.295450">
        <ele>2207.0</ele>
        <time>2018-09-01T12:29:10Z</time>
      </trkpt>
      <trkpt lat="40.437817" lon="-5.295467">
        <ele>2208.0</ele>
        <time>2018-09-01T12:29:11Z</time>
      </trkpt>
      <trkpt lat="40.437717" lon="-5.295450">
        <ele>2208.0</ele>
        <time>2018-09-01T12:29:12Z</time>
      </trkpt>
      <trkpt lat="40.437600" lon="-5.295400">
        <ele>2208.0</ele>
        <time>2018-09-01T12:29:13Z</time>
      </trkpt>
      <trkpt lat="40.437483" lon="-5.295333">
        <ele>2208.0</ele>
        <time>2018-09-01T12:29:14Z</time>
      </trkpt>
      <trkpt lat="40.437367" lon="-5.295217">
        <ele>2209.0</ele>
        <time>2018-09-01T12:29:15Z</time>
      </trkpt>
      <trkpt lat="40.437283" lon="-5.295067">
        <ele>2210.0</ele>
        <time>2018-09-01T12:29:16Z</time>
      </trkpt>
      <trkpt lat="40.437183" lon="-5.294933">
        <ele>2212.0</ele>
        <time>2018-09-01T12:29:17Z</time>
      </trkpt>
      <trkpt lat="40.437117" lon="-5.294800">
        <ele>2214.0</ele>
        <time>2018-09-01T12:29:18Z</time>
      </trkpt>
      <trkpt lat="40.437033" lon="-5.294667">
        <ele>2216.0</ele>
        <time>2018-09-01T12:29:19Z</time>
      </trkpt>
      <trkpt lat="40.436967" lon="-5.294533">
        <ele>2218.0</ele>
        <time>2018-09-01T12:29:20Z</time>
      </trkpt>
      <trkpt lat="40.436933" lon="-5.294383">
        <ele>2218.0</ele>
        <time>2018-09-01T12:29:21Z</time>
      </trkpt>
      <trkpt lat="40.436917" lon="-5.294217">
        <ele>2218.0</ele>
        <time>2018-09-01T12:29:22Z</time>
      </trkpt>
      <trkpt lat="40.436917" lon="-5.294050">
        <ele>2218.0</ele>
        <time>2018-09-01T12:29:23Z</time>
      </trkpt>
      <trkpt lat="40.436950" lon="-5.293900">
        <ele>2219.0</ele>
        <time>2018-09-01T12:29:24Z</time>
      </trkpt>
      <trkpt lat="40.436967" lon="-5.293750">
        <ele>2220.0</ele>
        <time>2018-09-01T12:29:25Z</time>
      </trkpt>
      <trkpt lat="40.437000" lon="-5.293617">
        <ele>2221.0</ele>
        <time>2018-09-01T12:29:26Z</time>
      </trkpt>
      <trkpt lat="40.437033" lon="-5.293483">
        <ele>2221.0</ele>
        <time>2018-09-01T12:29:27Z</time>
      </trkpt>
      <trkpt lat="40.437067" lon="-5.293367">
        <ele>2221.0</ele>
        <time>2018-09-01T12:29:28Z</time>
      </trkpt>
      <trkpt lat="40.437117" lon="-5.293267">
        <ele>2221.0</ele>
        <time>2018-09-01T12:29:29Z</time>
      </trkpt>
      <trkpt lat="40.437183" lon="-5.293183">
        <ele>2221.0</ele>
        <time>2018-09-01T12:29:30Z</time>
      </trkpt>
      <trkpt lat="40.437250" lon="-5.293117">
        <ele>2220.0</ele>
        <time>2018-09-01T12:29:31Z</time>
      </trkpt>
      <trkpt lat="40.437333" lon="-5.293100">
        <ele>2218.0</ele>
        <time>2018-09-01T12:29:32Z</time>
      </trkpt>
      <trkpt lat="40.437417" lon="-5.293100">
        <ele>2217.0</ele>
        <time>2018-09-01T12:29:33Z</time>
      </trkpt>
      <trkpt lat="40.437483" lon="-5.293133">
        <ele>2216.0</ele>
        <time>2018-09-01T12:29:34Z</time>
      </trkpt>
      <trkpt lat="40.437533" lon="-5.293200">
        <ele>2215.0</ele>
        <time>2018-09-01T12:29:35Z</time>
      </trkpt>
      <trkpt lat="40.437567" lon="-5.293300">
        <ele>2215.0</ele>
        <time>2018-09-01T12:29:36Z</time>
      </trkpt>
      <trkpt lat="40.437583" lon="-5.293400">
        <ele>2215.0</ele>
        <time>2018-09-01T12:29:37Z</time>
      </trkpt>
      <trkpt lat="40.437567" lon="-5.293500">
        <ele>2215.0</ele>
        <time>2018-09-01T12:29:38Z</time>
      </trkpt>
      <trkpt lat="40.437550" lon="-5.293600">
        <ele>2216.0</ele>
        <time>2018-09-01T12:29:39Z</time>
      </trkpt>
      <trkpt lat="40.437517" lon="-5.293700">
        <ele>2216.0</ele>
        <time>2018-09-01T12:29:40Z</time>
      </trkpt>
      <trkpt lat="40.437483" lon="-5.293783">
        <ele>2216.0</ele>
        <time>2018-09-01T12:29:41Z</time>
      </trkpt>
      <trkpt lat="40.437400" lon="-5.293883">
        <ele>2215.0</ele>
        <time>2018-09-01T12:29:42Z</time>
      </trkpt>
      <trkpt lat="40.437317" lon="-5.293950">
        <ele>2215.0</ele>
        <time>2018-09-01T12:29:43Z</time>
      </trkpt>
      <trkpt lat="40.437217" lon="-5.294017">
        <ele>2216.0</ele>
        <time>2018-09-01T12:29:44Z</time>
      </trkpt>
      <trkpt lat="40.437133" lon="-5.294067">
        <ele>2218.0</ele>
        <time>2018-09-01T12:29:45Z</time>
      </trkpt>
      <trkpt lat="40.437033" lon="-5.294100">
        <ele>2220.0</ele>
        <time>2018-09-01T12:29:46Z</time>
      </trkpt>
      <trkpt lat="40.436950" lon="-5.294150">
        <ele>2221.0</ele>
        <time>2018-09-01T12:29:47Z</time>
      </trkpt>
      <trkpt lat="40.436850" lon="-5.294200">
        <ele>2221.0</ele>
        <time>2018-09-01T12:29:48Z</time>
      </trkpt>
      <trkpt lat="40.436750" lon="-5.294267">
        <ele>2222.0</ele>
        <time>2018-09-01T12:29:49Z</time>
      </trkpt>
      <trkpt lat="40.436650" lon="-5.294333">
        <ele>2223.0</ele>
        <time>2018-09-01T12:29:50Z</time>
      </trkpt>
      <trkpt lat="40.436550" lon="-5.294400">
        <ele>2226.0</ele>
        <time>2018-09-01T12:29:51Z</time>
      </trkpt>
      <trkpt lat="40.436467" lon="-5.294450">
        <ele>2228.0</ele>
        <time>2018-09-01T12:29:52Z</time>
      </trkpt>
      <trkpt lat="40.436383" lon="-5.294483">
        <ele>2230.0</ele>
        <time>2018-09-01T12:29:53Z</time>
      </trkpt>
      <trkpt lat="40.436300" lon="-5.294533">
        <ele>2231.0</ele>
        <time>2018-09-01T12:29:54Z</time>
      </trkpt>
      <trkpt lat="40.436200" lon="-5.294583">
        <ele>2231.0</ele>
        <time>2018-09-01T12:29:55Z</time>
      </trkpt>
      <trkpt lat="40.436083" lon="-5.294633">
        <ele>2231.0</ele>
        <time>2018-09-01T12:29:56Z</time>
      </trkpt>
      <trkpt lat="40.435950" lon="-5.294667">
        <ele>2231.0</ele>
        <time>2018-09-01T12:29:57Z</time>
      </trkpt>
      <trkpt lat="40.435817" lon="-5.294650">
        <ele>2233.0</ele>
        <time>2018-09-01T12:29:58Z</time>
      </trkpt>
      <trkpt lat="40.435700" lon="-5.294617">
        <ele>2236.0</ele>
        <time>2018-09-01T12:29:59Z</time>
      </trkpt>
      <trkpt lat="40.435583" lon="-5.294550">
        <ele>2238.0</ele>
        <time>2018-09-01T12:30:00Z</time>
      </trkpt>
      <trkpt lat="40.435483" lon="-5.294500">
        <ele>2240.0</ele>
        <time>2018-09-01T12:30:01Z</time>
      </trkpt>
      <trkpt lat="40.435383" lon="-5.294417">
        <ele>2242.0</ele>
        <time>2018-09-01T12:30:02Z</time>
      </trkpt>
      <trkpt lat="40.435300" lon="-5.294317">
        <ele>2242.0</ele>
        <time>2018-09-01T12:30:03Z</time>
      </trkpt>
      <trkpt lat="40.435233" lon="-5.294200">
        <ele>2243.0</ele>
        <time>2018-09-01T12:30:04Z</time>
      </trkpt>
      <trkpt lat="40.435183" lon="-5.294050">
        <ele>2244.0</ele>
        <time>2018-09-01T12:30:05Z</time>
      </trkpt>
      <trkpt lat="40.435167" lon="-5.293917">
        <ele>2244.0</ele>
        <time>2018-09-01T12:30:06Z</time>
      </trkpt>
      <trkpt lat="40.435167" lon="-5.293767">
        <ele>2246.0</ele>
        <time>2018-09-01T12:30:07Z</time>
      </trkpt>
      <trkpt lat="40.435183" lon="-5.293633">
        <ele>2247.0</ele>
        <time>2018-09-01T12:30:08Z</time>
      </trkpt>
      <trkpt lat="40.435217" lon="-5.293500">
        <ele>2248.0</ele>
        <time>2018-09-01T12:30:09Z</time>
      </trkpt>
      <trkpt lat="40.435267" lon="-5.293400">
        <ele>2248.0</ele>
        <time>2018-09-01T12:30:10Z</time>
      </trkpt>
      <trkpt lat="40.435333" lon="-5.293300">
        <ele>2248.0</ele>
        <time>2018-09-01T12:30:11Z</time>
      </trkpt>
      <trkpt lat="40.435417" lon="-5.293233">
        <ele>2248.0</ele>
        <time>2018-09-01T12:30:12Z</time>
      </trkpt>
      <trkpt lat="40.435500" lon="-5.293200">
        <ele>2248.0</ele>
        <time>2018-09-01T12:30:13Z</time>
      </trkpt>
      <trkpt lat="40.435583" lon="-5.293183">
        <ele>2248.0</ele>
        <time>2018-09-01T12:30:14Z</time>
      </trkpt>
      <trkpt lat="40.435667" lon="-5.293200">
        <ele>2248.0</ele>
        <time>2018-09-01T12:30:15Z</time>
      </trkpt>
      <trkpt lat="40.435767" lon="-5.293217">
        <ele>2249.0</ele>
        <time>2018-09-01T12:30:16Z</time>
      </trkpt>
      <trkpt lat="40.435850" lon="-5.293267">
        <ele>2250.0</ele>
        <time>2018-09-01T12:30:17Z</time>
      </trkpt>
      <trkpt lat="40.435917" lon="-5.293317">
        <ele>2253.0</ele>
        <time>2018-09-01T12:30:18Z</time>
      </trkpt>
      <trkpt lat="40.435967" lon="-5.293400">
        <ele>2255.0</ele>
        <time>2018-09-01T12:30:19Z</time>
      </trkpt>
      <trkpt lat="40.436000" lon="-5.293483">
        <ele>2257.0</ele>
        <time>2018-09-01T12:30:20Z</time>
      </trkpt>
      <trkpt lat="40.436017" lon="-5.293583">
        <ele>2258.0</ele>
        <time>2018-09-01T12:30:21Z</time>
      </trkpt>
      <trkpt lat="40.436017" lon="-5.293683">
        <ele>2261.0</ele>
        <time>2018-09-01T12:30:22Z</time>
      </trkpt>
      <trkpt lat="40.436017" lon="-5.293783">
        <ele>2262.0</ele>
        <time>2018-09-01T12:30:23Z</time>
      </trkpt>
      <trkpt lat="40.435983" lon="-5.293867">
        <ele>2264.0</ele>
        <time>2018-09-01T12:30:24Z</time>
      </trkpt>
      <trkpt lat="40.435933" lon="-5.293967">
        <ele>2264.0</ele>
        <time>2018-09-01T12:30:25Z</time>
      </trkpt>
      <trkpt lat="40.435867" lon="-5.294050">
        <ele>2264.0</ele>
        <time>2018-09-01T12:30:26Z</time>
      </trkpt>
      <trkpt lat="40.435767" lon="-5.294133">
        <ele>2264.0</ele>
        <time>2018-09-01T12:30:27Z</time>
      </trkpt>
      <trkpt lat="40.435667" lon="-5.294200">
        <ele>2264.0</ele>
        <time>2018-09-01T12:30:28Z</time>
      </trkpt>
      <trkpt lat="40.435567" lon="-5.294217">
        <ele>2265.0</ele>
        <time>2018-09-01T12:30:29Z</time>
      </trkpt>
      <trkpt lat="40.435450" lon="-5.294233">
        <ele>2265.0</ele>
        <time>2018-09-01T12:30:30Z</time>
      </trkpt>
      <trkpt lat="40.435333" lon="-5.294217">
        <ele>2264.0</ele>
        <time>2018-09-01T12:30:31Z</time>
      </trkpt>
      <trkpt lat="40.435217" lon="-5.294167">
        <ele>2263.0</ele>
        <time>2018-09-01T12:30:32Z</time>
      </trkpt>
      <trkpt lat="40.435100" lon="-5.294100">
        <ele>2263.0</ele>
        <time>2018-09-01T12:30:33Z</time>
      </trkpt>
      <trkpt lat="40.434983" lon="-5.294017">
        <ele>2264.0</ele>
        <time>2018-09-01T12:30:34Z</time>
      </trkpt>
      <trkpt lat="40.434883" lon="-5.293900">
        <ele>2265.0</ele>
        <time>2018-09-01T12:30:35Z</time>
      </trkpt>
      <trkpt lat="40.434800" lon="-5.293783">
        <ele>2266.0</ele>
        <time>2018-09-01T12:30:36Z</time>
      </trkpt>
      <trkpt lat="40.434733" lon="-5.293667">
        <ele>2268.0</ele>
        <time>2018-09-01T12:30:37Z</time>
      </trkpt>
      <trkpt lat="40.434667" lon="-5.293550">
        <ele>2270.0</ele>
        <time>2018-09-01T12:30:38Z</time>
      </trkpt>
      <trkpt lat="40.434617" lon="-5.293417">
        <ele>2271.0</ele>
        <time>2018-09-01T12:30:39Z</time>
      </trkpt>
      <trkpt lat="40.434583" lon="-5.293300">
        <ele>2272.0</ele>
        <time>2018-09-01T12:30:40Z</time>
      </trkpt>
      <trkpt lat="40.434550" lon="-5.293167">
        <ele>2272.0</ele>
        <time>2018-09-01T12:30:41Z</time>
      </trkpt>
      <trkpt lat="40.434550" lon="-5.293033">
        <ele>2271.0</ele>
        <time>2018-09-01T12:30:42Z</time>
      </trkpt>
      <trkpt lat="40.434567" lon="-5.292900">
        <ele>2270.0</ele>
        <time>2018-09-01T12:30:43Z</time>
      </trkpt>
      <trkpt lat="40.434600" lon="-5.292767">
        <ele>2269.0</ele>
        <time>2018-09-01T12:30:44Z</time>
      </trkpt>
      <trkpt lat="40.434667" lon="-5.292667">
        <ele>2269.0</ele>
        <time>2018-09-01T12:30:45Z</time>
      </trkpt>
      <trkpt lat="40.434733" lon="-5.292583">
        <ele>2270.0</ele>
        <time>2018-09-01T12:30:46Z</time>
      </trkpt>
      <trkpt lat="40.434800" lon="-5.292500">
        <ele>2273.0</ele>
        <time>2018-09-01T12:30:47Z</time>
      </trkpt>
      <trkpt lat="40.434850" lon="-5.292433">
        <ele>2275.0</ele>
        <time>2018-09-01T12:30:48Z</time>
      </trkpt>
      <trkpt lat="40.434917" lon="-5.292383">
        <ele>2275.0</ele>
        <time>2018-09-01T12:30:49Z</time>
      </trkpt>
      <trkpt lat="40.434967" lon="-5.292317">
        <ele>2276.0</ele>
        <time>2018-09-01T12:30:50Z</time>
      </trkpt>
      <trkpt lat="40.435033" lon="-5.292267">
        <ele>2276.0</ele>
        <time>2018-09-01T12:30:51Z</time>
      </trkpt>
      <trkpt lat="40.435100" lon="-5.292250">
        <ele>2277.0</ele>
        <time>2018-09-01T12:30:52Z</time>
      </trkpt>
      <trkpt lat="40.435167" lon="-5.292250">
        <ele>2276.0</ele>
        <time>2018-09-01T12:30:53Z</time>
      </trkpt>
      <trkpt lat="40.435233" lon="-5.292283">
        <ele>2275.0</ele>
        <time>2018-09-01T12:30:54Z</time>
      </trkpt>
      <trkpt lat="40.435300" lon="-5.292333">
        <ele>2274.0</ele>
        <time>2018-09-01T12:30:55Z</time>
      </trkpt>
      <trkpt lat="40.435367" lon="-5.292383">
        <ele>2273.0</ele>
        <time>2018-09-01T12:30:56Z</time>
      </trkpt>
      <trkpt lat="40.435433" lon="-5.292450">
        <ele>2273.0</ele>
        <time>2018-09-01T12:30:57Z</time>
      </trkpt>
      <trkpt lat="40.435500" lon="-5.292517">
        <ele>2274.0</ele>
        <time>2018-09-01T12:30:58Z</time>
      </trkpt>
      <trkpt lat="40.435550" lon="-5.292583">
        <ele>2275.0</ele>
        <time>2018-09-01T12:30:59Z</time>
      </trkpt>
      <trkpt lat="40.435583" lon="-5.292667">
        <ele>2277.0</ele>
        <time>2018-09-01T12:31:00Z</time>
      </trkpt>
      <trkpt lat="40.435600" lon="-5.292750">
        <ele>2278.0</ele>
        <time>2018-09-01T12:31:01Z</time>
      </trkpt>
      <trkpt lat="40.435617" lon="-5.292833">
        <ele>2280.0</ele>
        <time>2018-09-01T12:31:02Z</time>
      </trkpt>
      <trkpt lat="40.435617" lon="-5.292933">
        <ele>2280.0</ele>
        <time>2018-09-01T12:31:03Z</time>
      </trkpt>
      <trkpt lat="40.435600" lon="-5.293017">
        <ele>2281.0</ele>
        <time>2018-09-01T12:31:04Z</time>
      </trkpt>
      <trkpt lat="40.435567" lon="-5.293083">
        <ele>2281.0</ele>
        <time>2018-09-01T12:31:05Z</time>
      </trkpt>
      <trkpt lat="40.435517" lon="-5.293133">
        <ele>2280.0</ele>
        <time>2018-09-01T12:31:06Z</time>
      </trkpt>
      <trkpt lat="40.435450" lon="-5.293200">
        <ele>2278.0</ele>
        <time>2018-09-01T12:31:07Z</time>
      </trkpt>
      <trkpt lat="40.435367" lon="-5.293250">
        <ele>2275.0</ele>
        <time>2018-09-01T12:31:08Z</time>
      </trkpt>
      <trkpt lat="40.435283" lon="-5.293317">
        <ele>2273.0</ele>
        <time>2018-09-01T12:31:09Z</time>
      </trkpt>
      <trkpt lat="40.435183" lon="-5.293383">
        <ele>2271.0</ele>
        <time>2018-09-01T12:31:10Z</time>
      </trkpt>
      <trkpt lat="40.435083" lon="-5.293450">
        <ele>2269.0</ele>
        <time>2018-09-01T12:31:11Z</time>
      </trkpt>
      <trkpt lat="40.435000" lon="-5.293500">
        <ele>2268.0</ele>
        <time>2018-09-01T12:31:12Z</time>
      </trkpt>
      <trkpt lat="40.434883" lon="-5.293533">
        <ele>2266.0</ele>
        <time>2018-09-01T12:31:13Z</time>
      </trkpt>
      <trkpt lat="40.434783" lon="-5.293550">
        <ele>2264.0</ele>
        <time>2018-09-01T12:31:14Z</time>
      </trkpt>
      <trkpt lat="40.434667" lon="-5.293550">
        <ele>2262.0</ele>
        <time>2018-09-01T12:31:15Z</time>
      </trkpt>
      <trkpt lat="40.434550" lon="-5.293533">
        <ele>2259.0</ele>
        <time>2018-09-01T12:31:16Z</time>
      </trkpt>
      <trkpt lat="40.434450" lon="-5.293500">
        <ele>2258.0</ele>
        <time>2018-09-01T12:31:17Z</time>
      </trkpt>
      <trkpt lat="40.434350" lon="-5.293467">
        <ele>2255.0</ele>
        <time>2018-09-01T12:31:18Z</time>
      </trkpt>
      <trkpt lat="40.434233" lon="-5.293400">
        <ele>2251.0</ele>
        <time>2018-09-01T12:31:19Z</time>
      </trkpt>
      <trkpt lat="40.434117" lon="-5.293317">
        <ele>2247.0</ele>
        <time>2018-09-01T12:31:20Z</time>
      </trkpt>
      <trkpt lat="40.434000" lon="-5.293183">
        <ele>2243.0</ele>
        <time>2018-09-01T12:31:21Z</time>
      </trkpt>
      <trkpt lat="40.433917" lon="-5.293033">
        <ele>2240.0</ele>
        <time>2018-09-01T12:31:22Z</time>
      </trkpt>
      <trkpt lat="40.433850" lon="-5.292850">
        <ele>2239.0</ele>
        <time>2018-09-01T12:31:23Z</time>
      </trkpt>
      <trkpt lat="40.433817" lon="-5.292667">
        <ele>2238.0</ele>
        <time>2018-09-01T12:31:24Z</time>
      </trkpt>
      <trkpt lat="40.433800" lon="-5.292483">
        <ele>2238.0</ele>
        <time>2018-09-01T12:31:25Z</time>
      </trkpt>
      <trkpt lat="40.433800" lon="-5.292317">
        <ele>2239.0</ele>
        <time>2018-09-01T12:31:26Z</time>
      </trkpt>
      <trkpt lat="40.433817" lon="-5.292167">
        <ele>2239.0</ele>
        <time>2018-09-01T12:31:27Z</time>
      </trkpt>
      <trkpt lat="40.433850" lon="-5.292050">
        <ele>2239.0</ele>
        <time>2018-09-01T12:31:28Z</time>
      </trkpt>
      <trkpt lat="40.433917" lon="-5.291950">
        <ele>2238.0</ele>
        <time>2018-09-01T12:31:29Z</time>
      </trkpt>
      <trkpt lat="40.433983" lon="-5.291850">
        <ele>2237.0</ele>
        <time>2018-09-01T12:31:30Z</time>
      </trkpt>
      <trkpt lat="40.434067" lon="-5.291767">
        <ele>2237.0</ele>
        <time>2018-09-01T12:31:31Z</time>
      </trkpt>
      <trkpt lat="40.434150" lon="-5.291683">
        <ele>2238.0</ele>
        <time>2018-09-01T12:31:32Z</time>
      </trkpt>
      <trkpt lat="40.434233" lon="-5.291600">
        <ele>2240.0</ele>
        <time>2018-09-01T12:31:33Z</time>
      </trkpt>
      <trkpt lat="40.434317" lon="-5.291533">
        <ele>2243.0</ele>
        <time>2018-09-01T12:31:34Z</time>
      </trkpt>
      <trkpt lat="40.434383" lon="-5.291483">
        <ele>2247.0</ele>
        <time>2018-09-01T12:31:35Z</time>
      </trkpt>
      <trkpt lat="40.434433" lon="-5.291433">
        <ele>2249.0</ele>
        <time>2018-09-01T12:31:36Z</time>
      </trkpt>
      <trkpt lat="40.434500" lon="-5.291383">
        <ele>2251.0</ele>
        <time>2018-09-01T12:31:37Z</time>
      </trkpt>
      <trkpt lat="40.434550" lon="-5.291350">
        <ele>2251.0</ele>
        <time>2018-09-01T12:31:38Z</time>
      </trkpt>
      <trkpt lat="40.434617" lon="-5.291300">
        <ele>2252.0</ele>
        <time>2018-09-01T12:31:39Z</time>
      </trkpt>
      <trkpt lat="40.434700" lon="-5.291283">
        <ele>2252.0</ele>
        <time>2018-09-01T12:31:40Z</time>
      </trkpt>
      <trkpt lat="40.434767" lon="-5.291283">
        <ele>2252.0</ele>
        <time>2018-09-01T12:31:41Z</time>
      </trkpt>
      <trkpt lat="40.434850" lon="-5.291300">
        <ele>2253.0</ele>
        <time>2018-09-01T12:31:42Z</time>
      </trkpt>
      <trkpt lat="40.434933" lon="-5.291333">
        <ele>2253.0</ele>
        <time>2018-09-01T12:31:43Z</time>
      </trkpt>
      <trkpt lat="40.435000" lon="-5.291367">
        <ele>2255.0</ele>
        <time>2018-09-01T12:31:44Z</time>
      </trkpt>
      <trkpt lat="40.435067" lon="-5.291417">
        <ele>2256.0</ele>
        <time>2018-09-01T12:31:45Z</time>
      </trkpt>
      <trkpt lat="40.435117" lon="-5.291483">
        <ele>2258.0</ele>
        <time>2018-09-01T12:31:46Z</time>
      </trkpt>
      <trkpt lat="40.435133" lon="-5.291550">
        <ele>2259.0</ele>
        <time>2018-09-01T12:31:47Z</time>
      </trkpt>
      <trkpt lat="40.435150" lon="-5.291633">
        <ele>2259.0</ele>
        <time>2018-09-01T12:31:48Z</time>
      </trkpt>
      <trkpt lat="40.435133" lon="-5.291717">
        <ele>2259.0</ele>
        <time>2018-09-01T12:31:49Z</time>
      </trkpt>
      <trkpt lat="40.435083" lon="-5.291800">
        <ele>2258.0</ele>
        <time>2018-09-01T12:31:50Z</time>
      </trkpt>
      <trkpt lat="40.435000" lon="-5.291850">
        <ele>2257.0</ele>
        <time>2018-09-01T12:31:51Z</time>
      </trkpt>
      <trkpt lat="40.434900" lon="-5.291883">
        <ele>2256.0</ele>
        <time>2018-09-01T12:31:52Z</time>
      </trkpt>
      <trkpt lat="40.434783" lon="-5.291883">
        <ele>2254.0</ele>
        <time>2018-09-01T12:31:53Z</time>
      </trkpt>
      <trkpt lat="40.434650" lon="-5.291833">
        <ele>2252.0</ele>
        <time>2018-09-01T12:31:54Z</time>
      </trkpt>
      <trkpt lat="40.434533" lon="-5.291750">
        <ele>2250.0</ele>
        <time>2018-09-01T12:31:55Z</time>
      </trkpt>
      <trkpt lat="40.434433" lon="-5.291633">
        <ele>2248.0</ele>
        <time>2018-09-01T12:31:56Z</time>
      </trkpt>
      <trkpt lat="40.434350" lon="-5.291483">
        <ele>2247.0</ele>
        <time>2018-09-01T12:31:57Z</time>
      </trkpt>
      <trkpt lat="40.434300" lon="-5.291317">
        <ele>2246.0</ele>
        <time>2018-09-01T12:31:58Z</time>
      </trkpt>
      <trkpt lat="40.434283" lon="-5.291133">
        <ele>2246.0</ele>
        <time>2018-09-01T12:31:59Z</time>
      </trkpt>
      <trkpt lat="40.434317" lon="-5.290983">
        <ele>2248.0</ele>
        <time>2018-09-01T12:32:00Z</time>
      </trkpt>
      <trkpt lat="40.434350" lon="-5.290833">
        <ele>2251.0</ele>
        <time>2018-09-01T12:32:01Z</time>
      </trkpt>
      <trkpt lat="40.434383" lon="-5.290700">
        <ele>2255.0</ele>
        <time>2018-09-01T12:32:02Z</time>
      </trkpt>
      <trkpt lat="40.434433" lon="-5.290583">
        <ele>2258.0</ele>
        <time>2018-09-01T12:32:03Z</time>
      </trkpt>
      <trkpt lat="40.434483" lon="-5.290483">
        <ele>2261.0</ele>
        <time>2018-09-01T12:32:04Z</time>
      </trkpt>
      <trkpt lat="40.434550" lon="-5.290367">
        <ele>2262.0</ele>
        <time>2018-09-01T12:32:05Z</time>
      </trkpt>
      <trkpt lat="40.434617" lon="-5.290267">
        <ele>2263.0</ele>
        <time>2018-09-01T12:32:06Z</time>
      </trkpt>
      <trkpt lat="40.434667" lon="-5.290150">
        <ele>2264.0</ele>
        <time>2018-09-01T12:32:07Z</time>
      </trkpt>
      <trkpt lat="40.434733" lon="-5.290050">
        <ele>2264.0</ele>
        <time>2018-09-01T12:32:08Z</time>
      </trkpt>
      <trkpt lat="40.434817" lon="-5.289950">
        <ele>2265.0</ele>
        <time>2018-09-01T12:32:09Z</time>
      </trkpt>
      <trkpt lat="40.434883" lon="-5.289867">
        <ele>2265.0</ele>
        <time>2018-09-01T12:32:10Z</time>
      </trkpt>
      <trkpt lat="40.434967" lon="-5.289800">
        <ele>2264.0</ele>
        <time>2018-09-01T12:32:11Z</time>
      </trkpt>
      <trkpt lat="40.435067" lon="-5.289733">
        <ele>2263.0</ele>
        <time>2018-09-01T12:32:12Z</time>
      </trkpt>
      <trkpt lat="40.435150" lon="-5.289650">
        <ele>2263.0</ele>
        <time>2018-09-01T12:32:13Z</time>
      </trkpt>
      <trkpt lat="40.435233" lon="-5.289567">
        <ele>2263.0</ele>
        <time>2018-09-01T12:32:14Z</time>
      </trkpt>
      <trkpt lat="40.435333" lon="-5.289500">
        <ele>2263.0</ele>
        <time>2018-09-01T12:32:15Z</time>
      </trkpt>
      <trkpt lat="40.435417" lon="-5.289433">
        <ele>2262.0</ele>
        <time>2018-09-01T12:32:16Z</time>
      </trkpt>
      <trkpt lat="40.435500" lon="-5.289383">
        <ele>2261.0</ele>
        <time>2018-09-01T12:32:17Z</time>
      </trkpt>
      <trkpt lat="40.435583" lon="-5.289333">
        <ele>2260.0</ele>
        <time>2018-09-01T12:32:18Z</time>
      </trkpt>
      <trkpt lat="40.435683" lon="-5.289267">
        <ele>2258.0</ele>
        <time>2018-09-01T12:32:19Z</time>
      </trkpt>
      <trkpt lat="40.435767" lon="-5.289200">
        <ele>2257.0</ele>
        <time>2018-09-01T12:32:20Z</time>
      </trkpt>
      <trkpt lat="40.435850" lon="-5.289133">
        <ele>2257.0</ele>
        <time>2018-09-01T12:32:21Z</time>
      </trkpt>
      <trkpt lat="40.435917" lon="-5.289083">
        <ele>2256.0</ele>
        <time>2018-09-01T12:32:22Z</time>
      </trkpt>
      <trkpt lat="40.436000" lon="-5.289033">
        <ele>2255.0</ele>
        <time>2018-09-01T12:32:23Z</time>
      </trkpt>
      <trkpt lat="40.436083" lon="-5.288967">
        <ele>2253.0</ele>
        <time>2018-09-01T12:32:24Z</time>
      </trkpt>
      <trkpt lat="40.436167" lon="-5.288900">
        <ele>2252.0</ele>
        <time>2018-09-01T12:32:25Z</time>
      </trkpt>
      <trkpt lat="40.436250" lon="-5.288833">
        <ele>2250.0</ele>
        <time>2018-09-01T12:32:26Z</time>
      </trkpt>
      <trkpt lat="40.436333" lon="-5.288783">
        <ele>2249.0</ele>
        <time>2018-09-01T12:32:27Z</time>
      </trkpt>
      <trkpt lat="40.436433" lon="-5.288733">
        <ele>2249.0</ele>
        <time>2018-09-01T12:32:28Z</time>
      </trkpt>
      <trkpt lat="40.436500" lon="-5.288700">
        <ele>2249.0</ele>
        <time>2018-09-01T12:32:29Z</time>
      </trkpt>
      <trkpt lat="40.436583" lon="-5.288667">
        <ele>2249.0</ele>
        <time>2018-09-01T12:32:30Z</time>
      </trkpt>
      <trkpt lat="40.436650" lon="-5.288633">
        <ele>2249.0</ele>
        <time>2018-09-01T12:32:31Z</time>
      </trkpt>
      <trkpt lat="40.436733" lon="-5.288583">
        <ele>2249.0</ele>
        <time>2018-09-01T12:32:32Z</time>
      </trkpt>
      <trkpt lat="40.436800" lon="-5.288533">
        <ele>2248.0</ele>
        <time>2018-09-01T12:32:33Z</time>
      </trkpt>
      <trkpt lat="40.436883" lon="-5.288483">
        <ele>2248.0</ele>
        <time>2018-09-01T12:32:34Z</time>
      </trkpt>
      <trkpt lat="40.436967" lon="-5.288450">
        <ele>2247.0</ele>
        <time>2018-09-01T12:32:35Z</time>
      </trkpt>
      <trkpt lat="40.437067" lon="-5.288417">
        <ele>2246.0</ele>
        <time>2018-09-01T12:32:36Z</time>
      </trkpt>
      <trkpt lat="40.437150" lon="-5.288400">
        <ele>2245.0</ele>
        <time>2018-09-01T12:32:37Z</time>
      </trkpt>
      <trkpt lat="40.437233" lon="-5.288400">
        <ele>2244.0</ele>
        <time>2018-09-01T12:32:38Z</time>
      </trkpt>
      <trkpt lat="40.437333" lon="-5.288383">
        <ele>2243.0</ele>
        <time>2018-09-01T12:32:39Z</time>
      </trkpt>
      <trkpt lat="40.437417" lon="-5.288383">
        <ele>2242.0</ele>
        <time>2018-09-01T12:32:40Z</time>
      </trkpt>
      <trkpt lat="40.437500" lon="-5.288350">
        <ele>2242.0</ele>
        <time>2018-09-01T12:32:41Z</time>
      </trkpt>
      <trkpt lat="40.437600" lon="-5.288300">
        <ele>2242.0</ele>
        <time>2018-09-01T12:32:42Z</time>
      </trkpt>
      <trkpt lat="40.437683" lon="-5.288233">
        <ele>2241.0</ele>
        <time>2018-09-01T12:32:43Z</time>
      </trkpt>
      <trkpt lat="40.437767" lon="-5.288167">
        <ele>2241.0</ele>
        <time>2018-09-01T12:32:44Z</time>
      </trkpt>
      <trkpt lat="40.437833" lon="-5.288100">
        <ele>2240.0</ele>
        <time>2018-09-01T12:32:45Z</time>
      </trkpt>
      <trkpt lat="40.437917" lon="-5.288033">
        <ele>2239.0</ele>
        <time>2018-09-01T12:32:46Z</time>
      </trkpt>
      <trkpt lat="40.438000" lon="-5.287983">
        <ele>2238.0</ele>
        <time>2018-09-01T12:32:47Z</time>
      </trkpt>
      <trkpt lat="40.438083" lon="-5.287933">
        <ele>2236.0</ele>
        <time>2018-09-01T12:32:48Z</time>
      </trkpt>
      <trkpt lat="40.438167" lon="-5.287883">
        <ele>2235.0</ele>
        <time>2018-09-01T12:32:49Z</time>
      </trkpt>
      <trkpt lat="40.438250" lon="-5.287817">
        <ele>2235.0</ele>
        <time>2018-09-01T12:32:50Z</time>
      </trkpt>
      <trkpt lat="40.438333" lon="-5.287750">
        <ele>2234.0</ele>
        <time>2018-09-01T12:32:51Z</time>
      </trkpt>
      <trkpt lat="40.438417" lon="-5.287683">
        <ele>2234.0</ele>
        <time>2018-09-01T12:32:52Z</time>
      </trkpt>
      <trkpt lat="40.438517" lon="-5.287633">
        <ele>2234.0</ele>
        <time>2018-09-01T12:32:53Z</time>
      </trkpt>
      <trkpt lat="40.438600" lon="-5.287583">
        <ele>2234.0</ele>
        <time>2018-09-01T12:32:54Z</time>
      </trkpt>
      <trkpt lat="40.438683" lon="-5.287533">
        <ele>2234.0</ele>
        <time>2018-09-01T12:32:55Z</time>
      </trkpt>
      <trkpt lat="40.438750" lon="-5.287483">
        <ele>2234.0</ele>
        <time>2018-09-01T12:32:56Z</time>
      </trkpt>
      <trkpt lat="40.438833" lon="-5.287450">
        <ele>2233.0</ele>
        <time>2018-09-01T12:32:57Z</time>
      </trkpt>
      <trkpt lat="40.438900" lon="-5.287433">
        <ele>2231.0</ele>
        <time>2018-09-01T12:32:58Z</time>
      </trkpt>
      <trkpt lat="40.438967" lon="-5.287433">
        <ele>2229.0</ele>
        <time>2018-09-01T12:32:59Z</time>
      </trkpt>
      <trkpt lat="40.439050" lon="-5.287450">
        <ele>2226.0</ele>
        <time>2018-09-01T12:33:00Z</time>
      </trkpt>
      <trkpt lat="40.439133" lon="-5.287467">
        <ele>2224.0</ele>
        <time>2018-09-01T12:33:01Z</time>
      </trkpt>
      <trkpt lat="40.439217" lon="-5.287450">
        <ele>2223.0</ele>
        <time>2018-09-01T12:33:02Z</time>
      </trkpt>
      <trkpt lat="40.439317" lon="-5.287433">
        <ele>2223.0</ele>
        <time>2018-09-01T12:33:03Z</time>
      </trkpt>
      <trkpt lat="40.439400" lon="-5.287383">
        <ele>2223.0</ele>
        <time>2018-09-01T12:33:04Z</time>
      </trkpt>
      <trkpt lat="40.439483" lon="-5.287317">
        <ele>2223.0</ele>
        <time>2018-09-01T12:33:05Z</time>
      </trkpt>
      <trkpt lat="40.439550" lon="-5.287233">
        <ele>2222.0</ele>
        <time>2018-09-01T12:33:06Z</time>
      </trkpt>
      <trkpt lat="40.439633" lon="-5.287167">
        <ele>2221.0</ele>
        <time>2018-09-01T12:33:07Z</time>
      </trkpt>
      <trkpt lat="40.439733" lon="-5.287100">
        <ele>2220.0</ele>
        <time>2018-09-01T12:33:08Z</time>
      </trkpt>
      <trkpt lat="40.439817" lon="-5.287033">
        <ele>2219.0</ele>
        <time>2018-09-01T12:33:09Z</time>
      </trkpt>
      <trkpt lat="40.439917" lon="-5.286967">
        <ele>2218.0</ele>
        <time>2018-09-01T12:33:10Z</time>
      </trkpt>
      <trkpt lat="40.440000" lon="-5.286900">
        <ele>2218.0</ele>
        <time>2018-09-01T12:33:11Z</time>
      </trkpt>
      <trkpt lat="40.440100" lon="-5.286833">
        <ele>2218.0</ele>
        <time>2018-09-01T12:33:12Z</time>
      </trkpt>
      <trkpt lat="40.440183" lon="-5.286750">
        <ele>2218.0</ele>
        <time>2018-09-01T12:33:13Z</time>
      </trkpt>
      <trkpt lat="40.440267" lon="-5.286667">
        <ele>2219.0</ele>
        <time>2018-09-01T12:33:14Z</time>
      </trkpt>
      <trkpt lat="40.440350" lon="-5.286617">
        <ele>2219.0</ele>
        <time>2018-09-01T12:33:15Z</time>
      </trkpt>
      <trkpt lat="40.440433" lon="-5.286567">
        <ele>2219.0</ele>
        <time>2018-09-01T12:33:16Z</time>
      </trkpt>
      <trkpt lat="40.440533" lon="-5.286517">
        <ele>2219.0</ele>
        <time>2018-09-01T12:33:17Z</time>
      </trkpt>
      <trkpt lat="40.440633" lon="-5.286467">
        <ele>2220.0</ele>
        <time>2018-09-01T12:33:18Z</time>
      </trkpt>
      <trkpt lat="40.440733" lon="-5.286383">
        <ele>2221.0</ele>
        <time>2018-09-01T12:33:19Z</time>
      </trkpt>
      <trkpt lat="40.440833" lon="-5.286317">
        <ele>2224.0</ele>
        <time>2018-09-01T12:33:20Z</time>
      </trkpt>
      <trkpt lat="40.440900" lon="-5.286250">
        <ele>2227.0</ele>
        <time>2018-09-01T12:33:21Z</time>
      </trkpt>
      <trkpt lat="40.440950" lon="-5.286167">
        <ele>2230.0</ele>
        <time>2018-09-01T12:33:22Z</time>
      </trkpt>
      <trkpt lat="40.441017" lon="-5.286100">
        <ele>2232.0</ele>
        <time>2018-09-01T12:33:23Z</time>
      </trkpt>
      <trkpt lat="40.441083" lon="-5.286050">
        <ele>2232.0</ele>
        <time>2018-09-01T12:33:24Z</time>
      </trkpt>
      <trkpt lat="40.441150" lon="-5.286000">
        <ele>2232.0</ele>
        <time>2018-09-01T12:33:25Z</time>
      </trkpt>
      <trkpt lat="40.441250" lon="-5.285967">
        <ele>2232.0</ele>
        <time>2018-09-01T12:33:26Z</time>
      </trkpt>
      <trkpt lat="40.441333" lon="-5.285983">
        <ele>2233.0</ele>
        <time>2018-09-01T12:33:27Z</time>
      </trkpt>
      <trkpt lat="40.441417" lon="-5.286033">
        <ele>2234.0</ele>
        <time>2018-09-01T12:33:28Z</time>
      </trkpt>
      <trkpt lat="40.441483" lon="-5.286117">
        <ele>2234.0</ele>
        <time>2018-09-01T12:33:29Z</time>
      </trkpt>
      <trkpt lat="40.441533" lon="-5.286217">
        <ele>2235.0</ele>
        <time>2018-09-01T12:33:30Z</time>
      </trkpt>
      <trkpt lat="40.441567" lon="-5.286333">
        <ele>2235.0</ele>
        <time>2018-09-01T12:33:31Z</time>
      </trkpt>
      <trkpt lat="40.441550" lon="-5.286467">
        <ele>2235.0</ele>
        <time>2018-09-01T12:33:32Z</time>
      </trkpt>
      <trkpt lat="40.441517" lon="-5.286617">
        <ele>2234.0</ele>
        <time>2018-09-01T12:33:33Z</time>
      </trkpt>
      <trkpt lat="40.441433" lon="-5.286717">
        <ele>2236.0</ele>
        <time>2018-09-01T12:33:34Z</time>
      </trkpt>
      <trkpt lat="40.441333" lon="-5.286800">
        <ele>2237.0</ele>
        <time>2018-09-01T12:33:35Z</time>
      </trkpt>
      <trkpt lat="40.441233" lon="-5.286817">
        <ele>2239.0</ele>
        <time>2018-09-01T12:33:36Z</time>
      </trkpt>
      <trkpt lat="40.441117" lon="-5.286817">
        <ele>2240.0</ele>
        <time>2018-09-01T12:33:37Z</time>
      </trkpt>
      <trkpt lat="40.441000" lon="-5.286800">
        <ele>2240.0</ele>
        <time>2018-09-01T12:33:38Z</time>
      </trkpt>
      <trkpt lat="40.440883" lon="-5.286783">
        <ele>2241.0</ele>
        <time>2018-09-01T12:33:39Z</time>
      </trkpt>
      <trkpt lat="40.440783" lon="-5.286750">
        <ele>2242.0</ele>
        <time>2018-09-01T12:33:40Z</time>
      </trkpt>
      <trkpt lat="40.440700" lon="-5.286700">
        <ele>2244.0</ele>
        <time>2018-09-01T12:33:41Z</time>
      </trkpt>
      <trkpt lat="40.440600" lon="-5.286650">
        <ele>2246.0</ele>
        <time>2018-09-01T12:33:42Z</time>
      </trkpt>
      <trkpt lat="40.440517" lon="-5.286567">
        <ele>2247.0</ele>
        <time>2018-09-01T12:33:43Z</time>
      </trkpt>
      <trkpt lat="40.440450" lon="-5.286467">
        <ele>2249.0</ele>
        <time>2018-09-01T12:33:44Z</time>
      </trkpt>
      <trkpt lat="40.440400" lon="-5.286350">
        <ele>2250.0</ele>
        <time>2018-09-01T12:33:45Z</time>
      </trkpt>
      <trkpt lat="40.440383" lon="-5.286233">
        <ele>2251.0</ele>
        <time>2018-09-01T12:33:46Z</time>
      </trkpt>
      <trkpt lat="40.440383" lon="-5.286100">
        <ele>2252.0</ele>
        <time>2018-09-01T12:33:47Z</time>
      </trkpt>
      <trkpt lat="40.440383" lon="-5.285983">
        <ele>2253.0</ele>
        <time>2018-09-01T12:33:48Z</time>
      </trkpt>
      <trkpt lat="40.440433" lon="-5.285867">
        <ele>2254.0</ele>
        <time>2018-09-01T12:33:49Z</time>
      </trkpt>
      <trkpt lat="40.440483" lon="-5.285750">
        <ele>2256.0</ele>
        <time>2018-09-01T12:33:50Z</time>
      </trkpt>
      <trkpt lat="40.440550" lon="-5.285667">
        <ele>2258.0</ele>
        <time>2018-09-01T12:33:51Z</time>
      </trkpt>
      <trkpt lat="40.440633" lon="-5.285617">
        <ele>2260.0</ele>
        <time>2018-09-01T12:33:52Z</time>
      </trkpt>
      <trkpt lat="40.440733" lon="-5.285567">
        <ele>2263.0</ele>
        <time>2018-09-01T12:33:53Z</time>
      </trkpt>
      <trkpt lat="40.440817" lon="-5.285533">
        <ele>2266.0</ele>
        <time>2018-09-01T12:33:54Z</time>
      </trkpt>
      <trkpt lat="40.440900" lon="-5.285500">
        <ele>2269.0</ele>
        <time>2018-09-01T12:33:55Z</time>
      </trkpt>
      <trkpt lat="40.440967" lon="-5.285450">
        <ele>2272.0</ele>
        <time>2018-09-01T12:33:56Z</time>
      </trkpt>
      <trkpt lat="40.441033" lon="-5.285400">
        <ele>2276.0</ele>
        <time>2018-09-01T12:33:57Z</time>
      </trkpt>
      <trkpt lat="40.441100" lon="-5.285350">
        <ele>2279.0</ele>
        <time>2018-09-01T12:33:58Z</time>
      </trkpt>
      <trkpt lat="40.441167" lon="-5.285317">
        <ele>2282.0</ele>
        <time>2018-09-01T12:33:59Z</time>
      </trkpt>
      <trkpt lat="40.441233" lon="-5.285283">
        <ele>2285.0</ele>
        <time>2018-09-01T12:34:00Z</time>
      </trkpt>
      <trkpt lat="40.441300" lon="-5.285250">
        <ele>2288.0</ele>
        <time>2018-09-01T12:34:01Z</time>
      </trkpt>
      <trkpt lat="40.441383" lon="-5.285217">
        <ele>2290.0</ele>
        <time>2018-09-01T12:34:02Z</time>
      </trkpt>
      <trkpt lat="40.441450" lon="-5.285183">
        <ele>2290.0</ele>
        <time>2018-09-01T12:34:03Z</time>
      </trkpt>
      <trkpt lat="40.441533" lon="-5.285183">
        <ele>2290.0</ele>
        <time>2018-09-01T12:34:04Z</time>
      </trkpt>
      <trkpt lat="40.441633" lon="-5.285200">
        <ele>2289.0</ele>
        <time>2018-09-01T12:34:05Z</time>
      </trkpt>
      <trkpt lat="40.441733" lon="-5.285267">
        <ele>2287.0</ele>
        <time>2018-09-01T12:34:06Z</time>
      </trkpt>
      <trkpt lat="40.441817" lon="-5.285367">
        <ele>2286.0</ele>
        <time>2018-09-01T12:34:07Z</time>
      </trkpt>
      <trkpt lat="40.441883" lon="-5.285483">
        <ele>2287.0</ele>
        <time>2018-09-01T12:34:08Z</time>
      </trkpt>
      <trkpt lat="40.441917" lon="-5.285617">
        <ele>2288.0</ele>
        <time>2018-09-01T12:34:09Z</time>
      </trkpt>
      <trkpt lat="40.441933" lon="-5.285733">
        <ele>2289.0</ele>
        <time>2018-09-01T12:34:10Z</time>
      </trkpt>
      <trkpt lat="40.441933" lon="-5.285850">
        <ele>2288.0</ele>
        <time>2018-09-01T12:34:11Z</time>
      </trkpt>
      <trkpt lat="40.441933" lon="-5.285983">
        <ele>2288.0</ele>
        <time>2018-09-01T12:34:12Z</time>
      </trkpt>
      <trkpt lat="40.441917" lon="-5.286117">
        <ele>2287.0</ele>
        <time>2018-09-01T12:34:13Z</time>
      </trkpt>
      <trkpt lat="40.441917" lon="-5.286233">
        <ele>2287.0</ele>
        <time>2018-09-01T12:34:14Z</time>
      </trkpt>
      <trkpt lat="40.441900" lon="-5.286350">
        <ele>2288.0</ele>
        <time>2018-09-01T12:34:15Z</time>
      </trkpt>
      <trkpt lat="40.441867" lon="-5.286467">
        <ele>2289.0</ele>
        <time>2018-09-01T12:34:16Z</time>
      </trkpt>
      <trkpt lat="40.441850" lon="-5.286567">
        <ele>2289.0</ele>
        <time>2018-09-01T12:34:17Z</time>
      </trkpt>
      <trkpt lat="40.441817" lon="-5.286667">
        <ele>2290.0</ele>
        <time>2018-09-01T12:34:18Z</time>
      </trkpt>
      <trkpt lat="40.441783" lon="-5.286767">
        <ele>2290.0</ele>
        <time>2018-09-01T12:34:19Z</time>
      </trkpt>
      <trkpt lat="40.441750" lon="-5.286867">
        <ele>2290.0</ele>
        <time>2018-09-01T12:34:20Z</time>
      </trkpt>
      <trkpt lat="40.441683" lon="-5.286950">
        <ele>2289.0</ele>
        <time>2018-09-01T12:34:21Z</time>
      </trkpt>
      <trkpt lat="40.441617" lon="-5.287033">
        <ele>2289.0</ele>
        <time>2018-09-01T12:34:22Z</time>
      </trkpt>
      <trkpt lat="40.441533" lon="-5.287100">
        <ele>2289.0</ele>
        <time>2018-09-01T12:34:23Z</time>
      </trkpt>
      <trkpt lat="40.441433" lon="-5.287133">
        <ele>2288.0</ele>
        <time>2018-09-01T12:34:24Z</time>
      </trkpt>
      <trkpt lat="40.441317" lon="-5.287133">
        <ele>2288.0</ele>
        <time>2018-09-01T12:34:25Z</time>
      </trkpt>
      <trkpt lat="40.441217" lon="-5.287083">
        <ele>2289.0</ele>
        <time>2018-09-01T12:34:26Z</time>
      </trkpt>
      <trkpt lat="40.441117" lon="-5.286983">
        <ele>2290.0</ele>
        <time>2018-09-01T12:34:27Z</time>
      </trkpt>
      <trkpt lat="40.441050" lon="-5.286883">
        <ele>2291.0</ele>
        <time>2018-09-01T12:34:28Z</time>
      </trkpt>
      <trkpt lat="40.441000" lon="-5.286767">
        <ele>2292.0</ele>
        <time>2018-09-01T12:34:29Z</time>
      </trkpt>
      <trkpt lat="40.440933" lon="-5.286667">
        <ele>2293.0</ele>
        <time>2018-09-01T12:34:30Z</time>
      </trkpt>
      <trkpt lat="40.440867" lon="-5.286567">
        <ele>2294.0</ele>
        <time>2018-09-01T12:34:31Z</time>
      </trkpt>
      <trkpt lat="40.440800" lon="-5.286483">
        <ele>2296.0</ele>
        <time>2018-09-01T12:34:32Z</time>
      </trkpt>
      <trkpt lat="40.440750" lon="-5.286383">
        <ele>2298.0</ele>
        <time>2018-09-01T12:34:33Z</time>
      </trkpt>
      <trkpt lat="40.440717" lon="-5.286267">
        <ele>2297.0</ele>
        <time>2018-09-01T12:34:34Z</time>
      </trkpt>
      <trkpt lat="40.440733" lon="-5.286133">
        <ele>2296.0</ele>
        <time>2018-09-01T12:34:35Z</time>
      </trkpt>
      <trkpt lat="40.440750" lon="-5.285983">
        <ele>2296.0</ele>
        <time>2018-09-01T12:34:36Z</time>
      </trkpt>
      <trkpt lat="40.440767" lon="-5.285817">
        <ele>2298.0</ele>
        <time>2018-09-01T12:34:37Z</time>
      </trkpt>
      <trkpt lat="40.440767" lon="-5.285667">
        <ele>2300.0</ele>
        <time>2018-09-01T12:34:38Z</time>
      </trkpt>
      <trkpt lat="40.440750" lon="-5.285517">
        <ele>2304.0</ele>
        <time>2018-09-01T12:34:39Z</time>
      </trkpt>
      <trkpt lat="40.440750" lon="-5.285400">
        <ele>2308.0</ele>
        <time>2018-09-01T12:34:40Z</time>
      </trkpt>
      <trkpt lat="40.440750" lon="-5.285300">
        <ele>2311.0</ele>
        <time>2018-09-01T12:34:41Z</time>
      </trkpt>
      <trkpt lat="40.440767" lon="-5.285200">
        <ele>2313.0</ele>
        <time>2018-09-01T12:34:42Z</time>
      </trkpt>
      <trkpt lat="40.440800" lon="-5.285100">
        <ele>2313.0</ele>
        <time>2018-09-01T12:34:43Z</time>
      </trkpt>
      <trkpt lat="40.440867" lon="-5.285000">
        <ele>2314.0</ele>
        <time>2018-09-01T12:34:44Z</time>
      </trkpt>
      <trkpt lat="40.440933" lon="-5.284900">
        <ele>2316.0</ele>
        <time>2018-09-01T12:34:45Z</time>
      </trkpt>
      <trkpt lat="40.440983" lon="-5.284833">
        <ele>2319.0</ele>
        <time>2018-09-01T12:34:46Z</time>
      </trkpt>
      <trkpt lat="40.441050" lon="-5.284783">
        <ele>2322.0</ele>
        <time>2018-09-01T12:34:47Z</time>
      </trkpt>
      <trkpt lat="40.441117" lon="-5.284733">
        <ele>2325.0</ele>
        <time>2018-09-01T12:34:48Z</time>
      </trkpt>
      <trkpt lat="40.441167" lon="-5.284683">
        <ele>2327.0</ele>
        <time>2018-09-01T12:34:49Z</time>
      </trkpt>
      <trkpt lat="40.441233" lon="-5.284633">
        <ele>2328.0</ele>
        <time>2018-09-01T12:34:50Z</time>
      </trkpt>
      <trkpt lat="40.441283" lon="-5.284567">
        <ele>2328.0</ele>
        <time>2018-09-01T12:34:51Z</time>
      </trkpt>
      <trkpt lat="40.441350" lon="-5.284483">
        <ele>2328.0</ele>
        <time>2018-09-01T12:34:52Z</time>
      </trkpt>
      <trkpt lat="40.441400" lon="-5.284367">
        <ele>2328.0</ele>
        <time>2018-09-01T12:34:53Z</time>
      </trkpt>
      <trkpt lat="40.441417" lon="-5.284250">
        <ele>2328.0</ele>
        <time>2018-09-01T12:34:54Z</time>
      </trkpt>
      <trkpt lat="40.441433" lon="-5.284100">
        <ele>2329.0</ele>
        <time>2018-09-01T12:34:55Z</time>
      </trkpt>
      <trkpt lat="40.441433" lon="-5.283967">
        <ele>2329.0</ele>
        <time>2018-09-01T12:34:56Z</time>
      </trkpt>
      <trkpt lat="40.441433" lon="-5.283817">
        <ele>2329.0</ele>
        <time>2018-09-01T12:34:57Z</time>
      </trkpt>
      <trkpt lat="40.441450" lon="-5.283683">
        <ele>2330.0</ele>
        <time>2018-09-01T12:34:58Z</time>
      </trkpt>
      <trkpt lat="40.441467" lon="-5.283550">
        <ele>2331.0</ele>
        <time>2018-09-01T12:34:59Z</time>
      </trkpt>
      <trkpt lat="40.441500" lon="-5.283433">
        <ele>2332.0</ele>
        <time>2018-09-01T12:35:00Z</time>
      </trkpt>
      <trkpt lat="40.441550" lon="-5.283317">
        <ele>2332.0</ele>
        <time>2018-09-01T12:35:01Z</time>
      </trkpt>
      <trkpt lat="40.441600" lon="-5.283200">
        <ele>2331.0</ele>
        <time>2018-09-01T12:35:02Z</time>
      </trkpt>
      <trkpt lat="40.441683" lon="-5.283100">
        <ele>2331.0</ele>
        <time>2018-09-01T12:35:03Z</time>
      </trkpt>
      <trkpt lat="40.441767" lon="-5.282983">
        <ele>2332.0</ele>
        <time>2018-09-01T12:35:04Z</time>
      </trkpt>
      <trkpt lat="40.441833" lon="-5.282867">
        <ele>2334.0</ele>
        <time>2018-09-01T12:35:05Z</time>
      </trkpt>
      <trkpt lat="40.441900" lon="-5.282767">
        <ele>2337.0</ele>
        <time>2018-09-01T12:35:06Z</time>
      </trkpt>
      <trkpt lat="40.441950" lon="-5.282667">
        <ele>2339.0</ele>
        <time>2018-09-01T12:35:07Z</time>
      </trkpt>
      <trkpt lat="40.442017" lon="-5.282583">
        <ele>2341.0</ele>
        <time>2018-09-01T12:35:08Z</time>
      </trkpt>
      <trkpt lat="40.442083" lon="-5.282500">
        <ele>2343.0</ele>
        <time>2018-09-01T12:35:09Z</time>
      </trkpt>
      <trkpt lat="40.442183" lon="-5.282433">
        <ele>2343.0</ele>
        <time>2018-09-01T12:35:10Z</time>
      </trkpt>
      <trkpt lat="40.442283" lon="-5.282383">
        <ele>2344.0</ele>
        <time>2018-09-01T12:35:11Z</time>
      </trkpt>
      <trkpt lat="40.442400" lon="-5.282350">
        <ele>2346.0</ele>
        <time>2018-09-01T12:35:12Z</time>
      </trkpt>
      <trkpt lat="40.442483" lon="-5.282350">
        <ele>2348.0</ele>
        <time>2018-09-01T12:35:13Z</time>
      </trkpt>
      <trkpt lat="40.442567" lon="-5.282400">
        <ele>2350.0</ele>
        <time>2018-09-01T12:35:14Z</time>
      </trkpt>
      <trkpt lat="40.442617" lon="-5.282450">
        <ele>2352.0</ele>
        <time>2018-09-01T12:35:15Z</time>
      </trkpt>
      <trkpt lat="40.442667" lon="-5.282517">
        <ele>2353.0</ele>
        <time>2018-09-01T12:35:16Z</time>
      </trkpt>
      <trkpt lat="40.442700" lon="-5.282617">
        <ele>2354.0</ele>
        <time>2018-09-01T12:35:17Z</time>
      </trkpt>
      <trkpt lat="40.442700" lon="-5.282750">
        <ele>2354.0</ele>
        <time>2018-09-01T12:35:18Z</time>
      </trkpt>
      <trkpt lat="40.442683" lon="-5.282883">
        <ele>2356.0</ele>
        <time>2018-09-01T12:35:19Z</time>
      </trkpt>
      <trkpt lat="40.442633" lon="-5.283000">
        <ele>2358.0</ele>
        <time>2018-09-01T12:35:20Z</time>
      </trkpt>
      <trkpt lat="40.442567" lon="-5.283083">
        <ele>2363.0</ele>
        <time>2018-09-01T12:35:21Z</time>
      </trkpt>
      <trkpt lat="40.442483" lon="-5.283133">
        <ele>2367.0</ele>
        <time>2018-09-01T12:35:22Z</time>
      </trkpt>
      <trkpt lat="40.442400" lon="-5.283150">
        <ele>2370.0</ele>
        <time>2018-09-01T12:35:23Z</time>
      </trkpt>
      <trkpt lat="40.442317" lon="-5.283167">
        <ele>2372.0</ele>
        <time>2018-09-01T12:35:24Z</time>
      </trkpt>
      <trkpt lat="40.442233" lon="-5.283150">
        <ele>2373.0</ele>
        <time>2018-09-01T12:35:25Z</time>
      </trkpt>
      <trkpt lat="40.442133" lon="-5.283117">
        <ele>2374.0</ele>
        <time>2018-09-01T12:35:26Z</time>
      </trkpt>
      <trkpt lat="40.442033" lon="-5.283050">
        <ele>2374.0</ele>
        <time>2018-09-01T12:35:27Z</time>
      </trkpt>
      <trkpt lat="40.441933" lon="-5.282950">
        <ele>2373.0</ele>
        <time>2018-09-01T12:35:28Z</time>
      </trkpt>
      <trkpt lat="40.441833" lon="-5.282817">
        <ele>2373.0</ele>
        <time>2018-09-01T12:35:29Z</time>
      </trkpt>
      <trkpt lat="40.441767" lon="-5.282667">
        <ele>2375.0</ele>
        <time>2018-09-01T12:35:30Z</time>
      </trkpt>
      <trkpt lat="40.441717" lon="-5.282500">
        <ele>2378.0</ele>
        <time>2018-09-01T12:35:31Z</time>
      </trkpt>
      <trkpt lat="40.441717" lon="-5.282350">
        <ele>2382.0</ele>
        <time>2018-09-01T12:35:32Z</time>
      </trkpt>
      <trkpt lat="40.441733" lon="-5.282217">
        <ele>2384.0</ele>
        <time>2018-09-01T12:35:33Z</time>
      </trkpt>
      <trkpt lat="40.441767" lon="-5.282100">
        <ele>2385.0</ele>
        <time>2018-09-01T12:35:34Z</time>
      </trkpt>
      <trkpt lat="40.441800" lon="-5.281967">
        <ele>2386.0</ele>
        <time>2018-09-01T12:35:35Z</time>
      </trkpt>
      <trkpt lat="40.441850" lon="-5.281833">
        <ele>2386.0</ele>
        <time>2018-09-01T12:35:36Z</time>
      </trkpt>
      <trkpt lat="40.441933" lon="-5.281717">
        <ele>2387.0</ele>
        <time>2018-09-01T12:35:37Z</time>
      </trkpt>
      <trkpt lat="40.442017" lon="-5.281617">
        <ele>2389.0</ele>
        <time>2018-09-01T12:35:38Z</time>
      </trkpt>
      <trkpt lat="40.442100" lon="-5.281550">
        <ele>2390.0</ele>
        <time>2018-09-01T12:35:39Z</time>
      </trkpt>
      <trkpt lat="40.442183" lon="-5.281500">
        <ele>2392.0</ele>
        <time>2018-09-01T12:35:40Z</time>
      </trkpt>
      <trkpt lat="40.442267" lon="-5.281483">
        <ele>2395.0</ele>
        <time>2018-09-01T12:35:41Z</time>
      </trkpt>
      <trkpt lat="40.442350" lon="-5.281483">
        <ele>2397.0</ele>
        <time>2018-09-01T12:35:42Z</time>
      </trkpt>
      <trkpt lat="40.442433" lon="-5.281483">
        <ele>2399.0</ele>
        <time>2018-09-01T12:35:43Z</time>
      </trkpt>
      <trkpt lat="40.442500" lon="-5.281517">
        <ele>2400.0</ele>
        <time>2018-09-01T12:35:44Z</time>
      </trkpt>
      <trkpt lat="40.442550" lon="-5.281583">
        <ele>2400.0</ele>
        <time>2018-09-01T12:35:45Z</time>
      </trkpt>
      <trkpt lat="40.442583" lon="-5.281650">
        <ele>2401.0</ele>
        <time>2018-09-01T12:35:46Z</time>
      </trkpt>
      <trkpt lat="40.442600" lon="-5.281733">
        <ele>2402.0</ele>
        <time>2018-09-01T12:35:47Z</time>
      </trkpt>
      <trkpt lat="40.442583" lon="-5.281817">
        <ele>2403.0</ele>
        <time>2018-09-01T12:35:48Z</time>
      </trkpt>
      <trkpt lat="40.442550" lon="-5.281900">
        <ele>2404.0</ele>
        <time>2018-09-01T12:35:49Z</time>
      </trkpt>
      <trkpt lat="40.442467" lon="-5.281967">
        <ele>2405.0</ele>
        <time>2018-09-01T12:35:50Z</time>
      </trkpt>
      <trkpt lat="40.442383" lon="-5.282000">
        <ele>2406.0</ele>
        <time>2018-09-01T12:35:51Z</time>
      </trkpt>
      <trkpt lat="40.442267" lon="-5.282000">
        <ele>2407.0</ele>
        <time>2018-09-01T12:35:52Z</time>
      </trkpt>
      <trkpt lat="40.442150" lon="-5.281967">
        <ele>2408.0</ele>
        <time>2018-09-01T12:35:53Z</time>
      </trkpt>
      <trkpt lat="40.442050" lon="-5.281900">
        <ele>2409.0</ele>
        <time>2018-09-01T12:35:54Z</time>
      </trkpt>
      <trkpt lat="40.441933" lon="-5.281817">
        <ele>2410.0</ele>
        <time>2018-09-01T12:35:55Z</time>
      </trkpt>
      <trkpt lat="40.441850" lon="-5.281700">
        <ele>2412.0</ele>
        <time>2018-09-01T12:35:56Z</time>
      </trkpt>
      <trkpt lat="40.441767" lon="-5.281550">
        <ele>2414.0</ele>
        <time>2018-09-01T12:35:57Z</time>
      </trkpt>
      <trkpt lat="40.441733" lon="-5.281400">
        <ele>2417.0</ele>
        <time>2018-09-01T12:35:58Z</time>
      </trkpt>
      <trkpt lat="40.441717" lon="-5.281250">
        <ele>2420.0</ele>
        <time>2018-09-01T12:35:59Z</time>
      </trkpt>
      <trkpt lat="40.441750" lon="-5.281100">
        <ele>2422.0</ele>
        <time>2018-09-01T12:36:00Z</time>
      </trkpt>
      <trkpt lat="40.441783" lon="-5.280950">
        <ele>2423.0</ele>
        <time>2018-09-01T12:36:01Z</time>
      </trkpt>
      <trkpt lat="40.441833" lon="-5.280817">
        <ele>2425.0</ele>
        <time>2018-09-01T12:36:02Z</time>
      </trkpt>
      <trkpt lat="40.441900" lon="-5.280683">
        <ele>2427.0</ele>
        <time>2018-09-01T12:36:03Z</time>
      </trkpt>
      <trkpt lat="40.441967" lon="-5.280583">
        <ele>2429.0</ele>
        <time>2018-09-01T12:36:04Z</time>
      </trkpt>
      <trkpt lat="40.442050" lon="-5.280500">
        <ele>2430.0</ele>
        <time>2018-09-01T12:36:05Z</time>
      </trkpt>
      <trkpt lat="40.442133" lon="-5.280417">
        <ele>2431.0</ele>
        <time>2018-09-01T12:36:06Z</time>
      </trkpt>
      <trkpt lat="40.442217" lon="-5.280317">
        <ele>2433.0</ele>
        <time>2018-09-01T12:36:07Z</time>
      </trkpt>
      <trkpt lat="40.442267" lon="-5.280167">
        <ele>2434.0</ele>
        <time>2018-09-01T12:36:08Z</time>
      </trkpt>
      <trkpt lat="40.442317" lon="-5.280000">
        <ele>2435.0</ele>
        <time>2018-09-01T12:36:09Z</time>
      </trkpt>
      <trkpt lat="40.442350" lon="-5.279817">
        <ele>2436.0</ele>
        <time>2018-09-01T12:36:10Z</time>
      </trkpt>
      <trkpt lat="40.442383" lon="-5.279633">
        <ele>2439.0</ele>
        <time>2018-09-01T12:36:11Z</time>
      </trkpt>
      <trkpt lat="40.442417" lon="-5.279467">
        <ele>2441.0</ele>
        <time>2018-09-01T12:36:12Z</time>
      </trkpt>
      <trkpt lat="40.442467" lon="-5.279317">
        <ele>2445.0</ele>
        <time>2018-09-01T12:36:13Z</time>
      </trkpt>
      <trkpt lat="40.442500" lon="-5.279183">
        <ele>2448.0</ele>
        <time>2018-09-01T12:36:14Z</time>
      </trkpt>
      <trkpt lat="40.442567" lon="-5.279067">
        <ele>2452.0</ele>
        <time>2018-09-01T12:36:15Z</time>
      </trkpt>
      <trkpt lat="40.442633" lon="-5.278967">
        <ele>2454.0</ele>
        <time>2018-09-01T12:36:16Z</time>
      </trkpt>
      <trkpt lat="40.442733" lon="-5.278900">
        <ele>2454.0</ele>
        <time>2018-09-01T12:36:17Z</time>
      </trkpt>
      <trkpt lat="40.442850" lon="-5.278867">
        <ele>2455.0</ele>
        <time>2018-09-01T12:36:18Z</time>
      </trkpt>
      <trkpt lat="40.442950" lon="-5.278883">
        <ele>2456.0</ele>
        <time>2018-09-01T12:36:19Z</time>
      </trkpt>
      <trkpt lat="40.443050" lon="-5.278933">
        <ele>2459.0</ele>
        <time>2018-09-01T12:36:20Z</time>
      </trkpt>
      <trkpt lat="40.443117" lon="-5.279017">
        <ele>2463.0</ele>
        <time>2018-09-01T12:36:21Z</time>
      </trkpt>
      <trkpt lat="40.443150" lon="-5.279100">
        <ele>2467.0</ele>
        <time>2018-09-01T12:36:22Z</time>
      </trkpt>
      <trkpt lat="40.443183" lon="-5.279167">
        <ele>2471.0</ele>
        <time>2018-09-01T12:36:23Z</time>
      </trkpt>
      <trkpt lat="40.443183" lon="-5.279250">
        <ele>2474.0</ele>
        <time>2018-09-01T12:36:24Z</time>
      </trkpt>
      <trkpt lat="40.443183" lon="-5.279317">
        <ele>2477.0</ele>
        <time>2018-09-01T12:36:25Z</time>
      </trkpt>
      <trkpt lat="40.443150" lon="-5.279400">
        <ele>2480.0</ele>
        <time>2018-09-01T12:36:26Z</time>
      </trkpt>
      <trkpt lat="40.443100" lon="-5.279483">
        <ele>2482.0</ele>
        <time>2018-09-01T12:36:27Z</time>
      </trkpt>
      <trkpt lat="40.443017" lon="-5.279533">
        <ele>2483.0</ele>
        <time>2018-09-01T12:36:28Z</time>
      </trkpt>
      <trkpt lat="40.442917" lon="-5.279550">
        <ele>2486.0</ele>
        <time>2018-09-01T12:36:29Z</time>
      </trkpt>
      <trkpt lat="40.442800" lon="-5.279533">
        <ele>2488.0</ele>
        <time>2018-09-01T12:36:30Z</time>
      </trkpt>
      <trkpt lat="40.442683" lon="-5.279483">
        <ele>2490.0</ele>
        <time>2018-09-01T12:36:31Z</time>
      </trkpt>
      <trkpt lat="40.442567" lon="-5.279367">
        <ele>2491.0</ele>
        <time>2018-09-01T12:36:32Z</time>
      </trkpt>
      <trkpt lat="40.442467" lon="-5.279233">
        <ele>2492.0</ele>
        <time>2018-09-01T12:36:33Z</time>
      </trkpt>
      <trkpt lat="40.442400" lon="-5.279067">
        <ele>2494.0</ele>
        <time>2018-09-01T12:36:34Z</time>
      </trkpt>
      <trkpt lat="40.442383" lon="-5.278883">
        <ele>2497.0</ele>
        <time>2018-09-01T12:36:35Z</time>
      </trkpt>
      <trkpt lat="40.442383" lon="-5.278733">
        <ele>2501.0</ele>
        <time>2018-09-01T12:36:36Z</time>
      </trkpt>
      <trkpt lat="40.442417" lon="-5.278617">
        <ele>2504.0</ele>
        <time>2018-09-01T12:36:37Z</time>
      </trkpt>
      <trkpt lat="40.442467" lon="-5.278500">
        <ele>2507.0</ele>
        <time>2018-09-01T12:36:38Z</time>
      </trkpt>
      <trkpt lat="40.442517" lon="-5.278400">
        <ele>2508.0</ele>
        <time>2018-09-01T12:36:39Z</time>
      </trkpt>
      <trkpt lat="40.442567" lon="-5.278300">
        <ele>2510.0</ele>
        <time>2018-09-01T12:36:40Z</time>
      </trkpt>
      <trkpt lat="40.442650" lon="-5.278233">
        <ele>2511.0</ele>
        <time>2018-09-01T12:36:41Z</time>
      </trkpt>
      <trkpt lat="40.442733" lon="-5.278200">
        <ele>2512.0</ele>
        <time>2018-09-01T12:36:42Z</time>
      </trkpt>
      <trkpt lat="40.442833" lon="-5.278200">
        <ele>2512.0</ele>
        <time>2018-09-01T12:36:43Z</time>
      </trkpt>
      <trkpt lat="40.442917" lon="-5.278267">
        <ele>2514.0</ele>
        <time>2018-09-01T12:36:44Z</time>
      </trkpt>
      <trkpt lat="40.442983" lon="-5.278333">
        <ele>2518.0</ele>
        <time>2018-09-01T12:36:45Z</time>
      </trkpt>
      <trkpt lat="40.443017" lon="-5.278400">
        <ele>2522.0</ele>
        <time>2018-09-01T12:36:46Z</time>
      </trkpt>
      <trkpt lat="40.443050" lon="-5.278450">
        <ele>2526.0</ele>
        <time>2018-09-01T12:36:47Z</time>
      </trkpt>
      <trkpt lat="40.443067" lon="-5.278517">
        <ele>2529.0</ele>
        <time>2018-09-01T12:36:48Z</time>
      </trkpt>
      <trkpt lat="40.443083" lon="-5.278583">
        <ele>2531.0</ele>
        <time>2018-09-01T12:36:49Z</time>
      </trkpt>
      <trkpt lat="40.443067" lon="-5.278650">
        <ele>2532.0</ele>
        <time>2018-09-01T12:36:50Z</time>
      </trkpt>
      <trkpt lat="40.443017" lon="-5.278733">
        <ele>2532.0</ele>
        <time>2018-09-01T12:36:51Z</time>
      </trkpt>
      <trkpt lat="40.442950" lon="-5.278817">
        <ele>2532.0</ele>
        <time>2018-09-01T12:36:52Z</time>
      </trkpt>
      <trkpt lat="40.442850" lon="-5.278850">
        <ele>2533.0</ele>
        <time>2018-09-01T12:36:53Z</time>
      </trkpt>
      <trkpt lat="40.442733" lon="-5.278850">
        <ele>2535.0</ele>
        <time>2018-09-01T12:36:54Z</time>
      </trkpt>
      <trkpt lat="40.442633" lon="-5.278817">
        <ele>2537.0</ele>
        <time>2018-09-01T12:36:55Z</time>
      </trkpt>
      <trkpt lat="40.442517" lon="-5.278750">
        <ele>2538.0</ele>
        <time>2018-09-01T12:36:56Z</time>
      </trkpt>
      <trkpt lat="40.442417" lon="-5.278650">
        <ele>2539.0</ele>
        <time>2018-09-01T12:36:57Z</time>
      </trkpt>
      <trkpt lat="40.442317" lon="-5.278500">
        <ele>2540.0</ele>
        <time>2018-09-01T12:36:58Z</time>
      </trkpt>
      <trkpt lat="40.442233" lon="-5.278333">
        <ele>2541.0</ele>
        <time>2018-09-01T12:36:59Z</time>
      </trkpt>
      <trkpt lat="40.442183" lon="-5.278150">
        <ele>2544.0</ele>
        <time>2018-09-01T12:37:00Z</time>
      </trkpt>
      <trkpt lat="40.442150" lon="-5.277967">
        <ele>2546.0</ele>
        <time>2018-09-01T12:37:01Z</time>
      </trkpt>
      <trkpt lat="40.442167" lon="-5.277817">
        <ele>2549.0</ele>
        <time>2018-09-01T12:37:02Z</time>
      </trkpt>
      <trkpt lat="40.442200" lon="-5.277683">
        <ele>2552.0</ele>
        <time>2018-09-01T12:37:03Z</time>
      </trkpt>
      <trkpt lat="40.442250" lon="-5.277583">
        <ele>2554.0</ele>
        <time>2018-09-01T12:37:04Z</time>
      </trkpt>
      <trkpt lat="40.442317" lon="-5.277500">
        <ele>2555.0</ele>
        <time>2018-09-01T12:37:05Z</time>
      </trkpt>
      <trkpt lat="40.442383" lon="-5.277450">
        <ele>2556.0</ele>
        <time>2018-09-01T12:37:06Z</time>
      </trkpt>
      <trkpt lat="40.442467" lon="-5.277433">
        <ele>2556.0</ele>
        <time>2018-09-01T12:37:07Z</time>
      </trkpt>
      <trkpt lat="40.442533" lon="-5.277467">
        <ele>2557.0</ele>
        <time>2018-09-01T12:37:08Z</time>
      </trkpt>
      <trkpt lat="40.442600" lon="-5.277550">
        <ele>2558.0</ele>
        <time>2018-09-01T12:37:09Z</time>
      </trkpt>
      <trkpt lat="40.442617" lon="-5.277633">
        <ele>2561.0</ele>
        <time>2018-09-01T12:37:10Z</time>
      </trkpt>
      <trkpt lat="40.442617" lon="-5.277717">
        <ele>2564.0</ele>
        <time>2018-09-01T12:37:11Z</time>
      </trkpt>
      <trkpt lat="40.442567" lon="-5.277783">
        <ele>2568.0</ele>
        <time>2018-09-01T12:37:12Z</time>
      </trkpt>
      <trkpt lat="40.442500" lon="-5.277833">
        <ele>2570.0</ele>
        <time>2018-09-01T12:37:13Z</time>
      </trkpt>
      <trkpt lat="40.442400" lon="-5.277867">
        <ele>2571.0</ele>
        <time>2018-09-01T12:37:14Z</time>
      </trkpt>
      <trkpt lat="40.442283" lon="-5.277883">
        <ele>2572.0</ele>
        <time>2018-09-01T12:37:15Z</time>
      </trkpt>
      <trkpt lat="40.442167" lon="-5.277883">
        <ele>2573.0</ele>
        <time>2018-09-01T12:37:16Z</time>
      </trkpt>
      <trkpt lat="40.442017" lon="-5.277817">
        <ele>2573.0</ele>
        <time>2018-09-01T12:37:17Z</time>
      </trkpt>
      <trkpt lat="40.441900" lon="-5.277717">
        <ele>2575.0</ele>
        <time>2018-09-01T12:37:18Z</time>
      </trkpt>
      <trkpt lat="40.441800" lon="-5.277583">
        <ele>2577.0</ele>
        <time>2018-09-01T12:37:19Z</time>
      </trkpt>
      <trkpt lat="40.441733" lon="-5.277417">
        <ele>2578.0</ele>
        <time>2018-09-01T12:37:20Z</time>
      </trkpt>
      <trkpt lat="40.441717" lon="-5.277250">
        <ele>2580.0</ele>
        <time>2018-09-01T12:37:21Z</time>
      </trkpt>
      <trkpt lat="40.441717" lon="-5.277100">
        <ele>2582.0</ele>
        <time>2018-09-01T12:37:22Z</time>
      </trkpt>
      <trkpt lat="40.441750" lon="-5.276950">
        <ele>2585.0</ele>
        <time>2018-09-01T12:37:23Z</time>
      </trkpt>
      <trkpt lat="40.441800" lon="-5.276833">
        <ele>2586.0</ele>
        <time>2018-09-01T12:37:24Z</time>
      </trkpt>
      <trkpt lat="40.441850" lon="-5.276733">
        <ele>2588.0</ele>
        <time>2018-09-01T12:37:25Z</time>
      </trkpt>
      <trkpt lat="40.441933" lon="-5.276650">
        <ele>2588.0</ele>
        <time>2018-09-01T12:37:26Z</time>
      </trkpt>
      <trkpt lat="40.442017" lon="-5.276600">
        <ele>2589.0</ele>
        <time>2018-09-01T12:37:27Z</time>
      </trkpt>
      <trkpt lat="40.442100" lon="-5.276567">
        <ele>2590.0</ele>
        <time>2018-09-01T12:37:28Z</time>
      </trkpt>
      <trkpt lat="40.442183" lon="-5.276567">
        <ele>2590.0</ele>
        <time>2018-09-01T12:37:29Z</time>
      </trkpt>
      <trkpt lat="40.442267" lon="-5.276600">
        <ele>2592.0</ele>
        <time>2018-09-01T12:37:30Z</time>
      </trkpt>
      <trkpt lat="40.442333" lon="-5.276650">
        <ele>2593.0</ele>
        <time>2018-09-01T12:37:31Z</time>
      </trkpt>
      <trkpt lat="40.442367" lon="-5.276750">
        <ele>2595.0</ele>
        <time>2018-09-01T12:37:32Z</time>
      </trkpt>
      <trkpt lat="40.442400" lon="-5.276850">
        <ele>2597.0</ele>
        <time>2018-09-01T12:37:33Z</time>
      </trkpt>
      <trkpt lat="40.442383" lon="-5.276967">
        <ele>2599.0</ele>
        <time>2018-09-01T12:37:34Z</time>
      </trkpt>
      <trkpt lat="40.442333" lon="-5.277067">
        <ele>2601.0</ele>
        <time>2018-09-01T12:37:35Z</time>
      </trkpt>
      <trkpt lat="40.442267" lon="-5.277167">
        <ele>2603.0</ele>
        <time>2018-09-01T12:37:36Z</time>
      </trkpt>
      <trkpt lat="40.442167" lon="-5.277233">
        <ele>2606.0</ele>
        <time>2018-09-01T12:37:37Z</time>
      </trkpt>
      <trkpt lat="40.442050" lon="-5.277267">
        <ele>2609.0</ele>
        <time>2018-09-01T12:37:38Z</time>
      </trkpt>
      <trkpt lat="40.441933" lon="-5.277283">
        <ele>2613.0</ele>
        <time>2018-09-01T12:37:39Z</time>
      </trkpt>
      <trkpt lat="40.441817" lon="-5.277250">
        <ele>2616.0</ele>
        <time>2018-09-01T12:37:40Z</time>
      </trkpt>
      <trkpt lat="40.441700" lon="-5.277183">
        <ele>2618.0</ele>
        <time>2018-09-01T12:37:41Z</time>
      </trkpt>
      <trkpt lat="40.441600" lon="-5.277083">
        <ele>2621.0</ele>
        <time>2018-09-01T12:37:42Z</time>
      </trkpt>
      <trkpt lat="40.441517" lon="-5.276967">
        <ele>2623.0</ele>
        <time>2018-09-01T12:37:43Z</time>
      </trkpt>
      <trkpt lat="40.441450" lon="-5.276817">
        <ele>2625.0</ele>
        <time>2018-09-01T12:37:44Z</time>
      </trkpt>
      <trkpt lat="40.441400" lon="-5.276667">
        <ele>2626.0</ele>
        <time>2018-09-01T12:37:45Z</time>
      </trkpt>
      <trkpt lat="40.441367" lon="-5.276483">
        <ele>2628.0</ele>
        <time>2018-09-01T12:37:46Z</time>
      </trkpt>
      <trkpt lat="40.441367" lon="-5.276317">
        <ele>2628.0</ele>
        <time>2018-09-01T12:37:47Z</time>
      </trkpt>
      <trkpt lat="40.441383" lon="-5.276150">
        <ele>2630.0</ele>
        <time>2018-09-01T12:37:48Z</time>
      </trkpt>
      <trkpt lat="40.441417" lon="-5.276000">
        <ele>2632.0</ele>
        <time>2018-09-01T12:37:49Z</time>
      </trkpt>
      <trkpt lat="40.441467" lon="-5.275867">
        <ele>2634.0</ele>
        <time>2018-09-01T12:37:50Z</time>
      </trkpt>
      <trkpt lat="40.441517" lon="-5.275767">
        <ele>2636.0</ele>
        <time>2018-09-01T12:37:51Z</time>
      </trkpt>
      <trkpt lat="40.441583" lon="-5.275683">
        <ele>2638.0</ele>
        <time>2018-09-01T12:37:52Z</time>
      </trkpt>
      <trkpt lat="40.441650" lon="-5.275583">
        <ele>2640.0</ele>
        <time>2018-09-01T12:37:53Z</time>
      </trkpt>
      <trkpt lat="40.441717" lon="-5.275500">
        <ele>2642.0</ele>
        <time>2018-09-01T12:37:54Z</time>
      </trkpt>
      <trkpt lat="40.441800" lon="-5.275417">
        <ele>2643.0</ele>
        <time>2018-09-01T12:37:55Z</time>
      </trkpt>
      <trkpt lat="40.441867" lon="-5.275333">
        <ele>2645.0</ele>
        <time>2018-09-01T12:37:56Z</time>
      </trkpt>
      <trkpt lat="40.441950" lon="-5.275267">
        <ele>2647.0</ele>
        <time>2018-09-01T12:37:57Z</time>
      </trkpt>
      <trkpt lat="40.442050" lon="-5.275217">
        <ele>2651.0</ele>
        <time>2018-09-01T12:37:58Z</time>
      </trkpt>
      <trkpt lat="40.442117" lon="-5.275167">
        <ele>2656.0</ele>
        <time>2018-09-01T12:37:59Z</time>
      </trkpt>
      <trkpt lat="40.442200" lon="-5.275100">
        <ele>2660.0</ele>
        <time>2018-09-01T12:38:00Z</time>
      </trkpt>
      <trkpt lat="40.442267" lon="-5.275050">
        <ele>2664.0</ele>
        <time>2018-09-01T12:38:01Z</time>
      </trkpt>
      <trkpt lat="40.442350" lon="-5.275000">
        <ele>2667.0</ele>
        <time>2018-09-01T12:38:02Z</time>
      </trkpt>
      <trkpt lat="40.442433" lon="-5.274967">
        <ele>2670.0</ele>
        <time>2018-09-01T12:38:03Z</time>
      </trkpt>
      <trkpt lat="40.442517" lon="-5.274983">
        <ele>2672.0</ele>
        <time>2018-09-01T12:38:04Z</time>
      </trkpt>
      <trkpt lat="40.442567" lon="-5.275050">
        <ele>2675.0</ele>
        <time>2018-09-01T12:38:05Z</time>
      </trkpt>
      <trkpt lat="40.442600" lon="-5.275150">
        <ele>2678.0</ele>
        <time>2018-09-01T12:38:06Z</time>
      </trkpt>
      <trkpt lat="40.442600" lon="-5.275250">
        <ele>2683.0</ele>
        <time>2018-09-01T12:38:07Z</time>
      </trkpt>
      <trkpt lat="40.442550" lon="-5.275350">
        <ele>2688.0</ele>
        <time>2018-09-01T12:38:08Z</time>
      </trkpt>
      <trkpt lat="40.442467" lon="-5.275417">
        <ele>2692.0</ele>
        <time>2018-09-01T12:38:09Z</time>
      </trkpt>
      <trkpt lat="40.442367" lon="-5.275450">
        <ele>2696.0</ele>
        <time>2018-09-01T12:38:10Z</time>
      </trkpt>
      <trkpt lat="40.442250" lon="-5.275467">
        <ele>2699.0</ele>
        <time>2018-09-01T12:38:11Z</time>
      </trkpt>
      <trkpt lat="40.442150" lon="-5.275433">
        <ele>2702.0</ele>
        <time>2018-09-01T12:38:12Z</time>
      </trkpt>
      <trkpt lat="40.442033" lon="-5.275350">
        <ele>2705.0</ele>
        <time>2018-09-01T12:38:13Z</time>
      </trkpt>
      <trkpt lat="40.441933" lon="-5.275233">
        <ele>2708.0</ele>
        <time>2018-09-01T12:38:14Z</time>
      </trkpt>
      <trkpt lat="40.441850" lon="-5.275067">
        <ele>2710.0</ele>
        <time>2018-09-01T12:38:15Z</time>
      </trkpt>
      <trkpt lat="40.441800" lon="-5.274883">
        <ele>2713.0</ele>
        <time>2018-09-01T12:38:16Z</time>
      </trkpt>
      <trkpt lat="40.441783" lon="-5.274700">
        <ele>2716.0</ele>
        <time>2018-09-01T12:38:17Z</time>
      </trkpt>
      <trkpt lat="40.441800" lon="-5.274533">
        <ele>2719.0</ele>
        <time>2018-09-01T12:38:18Z</time>
      </trkpt>
      <trkpt lat="40.441850" lon="-5.274383">
        <ele>2721.0</ele>
        <time>2018-09-01T12:38:19Z</time>
      </trkpt>
      <trkpt lat="40.441900" lon="-5.274250">
        <ele>2724.0</ele>
        <time>2018-09-01T12:38:20Z</time>
      </trkpt>
      <trkpt lat="40.441983" lon="-5.274133">
        <ele>2726.0</ele>
        <time>2018-09-01T12:38:21Z</time>
      </trkpt>
      <trkpt lat="40.442083" lon="-5.274050">
        <ele>2727.0</ele>
        <time>2018-09-01T12:38:22Z</time>
      </trkpt>
      <trkpt lat="40.442183" lon="-5.274017">
        <ele>2730.0</ele>
        <time>2018-09-01T12:38:23Z</time>
      </trkpt>
      <trkpt lat="40.442267" lon="-5.274017">
        <ele>2734.0</ele>
        <time>2018-09-01T12:38:24Z</time>
      </trkpt>
      <trkpt lat="40.442333" lon="-5.274067">
        <ele>2737.0</ele>
        <time>2018-09-01T12:38:25Z</time>
      </trkpt>
      <trkpt lat="40.442367" lon="-5.274133">
        <ele>2740.0</ele>
        <time>2018-09-01T12:38:26Z</time>
      </trkpt>
      <trkpt lat="40.442400" lon="-5.274233">
        <ele>2743.0</ele>
        <time>2018-09-01T12:38:27Z</time>
      </trkpt>
      <trkpt lat="40.442400" lon="-5.274317">
        <ele>2747.0</ele>
        <time>2018-09-01T12:38:28Z</time>
      </trkpt>
      <trkpt lat="40.442367" lon="-5.274400">
        <ele>2752.0</ele>
        <time>2018-09-01T12:38:29Z</time>
      </trkpt>
      <trkpt lat="40.442333" lon="-5.274483">
        <ele>2756.0</ele>
        <time>2018-09-01T12:38:30Z</time>
      </trkpt>
      <trkpt lat="40.442267" lon="-5.274533">
        <ele>2759.0</ele>
        <time>2018-09-01T12:38:31Z</time>
      </trkpt>
      <trkpt lat="40.442183" lon="-5.274583">
        <ele>2761.0</ele>
        <time>2018-09-01T12:38:32Z</time>
      </trkpt>
      <trkpt lat="40.442083" lon="-5.274600">
        <ele>2763.0</ele>
        <time>2018-09-01T12:38:33Z</time>
      </trkpt>
      <trkpt lat="40.441967" lon="-5.274600">
        <ele>2765.0</ele>
        <time>2018-09-01T12:38:34Z</time>
      </trkpt>
      <trkpt lat="40.441850" lon="-5.274533">
        <ele>2768.0</ele>
        <time>2018-09-01T12:38:35Z</time>
      </trkpt>
      <trkpt lat="40.441717" lon="-5.274450">
        <ele>2771.0</ele>
        <time>2018-09-01T12:38:36Z</time>
      </trkpt>
      <trkpt lat="40.441617" lon="-5.274317">
        <ele>2775.0</ele>
        <time>2018-09-01T12:38:37Z</time>
      </trkpt>
      <trkpt lat="40.441550" lon="-5.274167">
        <ele>2779.0</ele>
        <time>2018-09-01T12:38:38Z</time>
      </trkpt>
      <trkpt lat="40.441483" lon="-5.274000">
        <ele>2782.0</ele>
        <time>2018-09-01T12:38:39Z</time>
      </trkpt>
      <trkpt lat="40.441467" lon="-5.273833">
        <ele>2785.0</ele>
        <time>2018-09-01T12:38:40Z</time>
      </trkpt>
      <trkpt lat="40.441467" lon="-5.273667">
        <ele>2787.0</ele>
        <time>2018-09-01T12:38:41Z</time>
      </trkpt>
      <trkpt lat="40.441517" lon="-5.273500">
        <ele>2787.0</ele>
        <time>2018-09-01T12:38:42Z</time>
      </trkpt>
      <trkpt lat="40.441600" lon="-5.273367">
        <ele>2786.0</ele>
        <time>2018-09-01T12:38:43Z</time>
      </trkpt>
      <trkpt lat="40.441700" lon="-5.273267">
        <ele>2786.0</ele>
        <time>2018-09-01T12:38:44Z</time>
      </trkpt>
      <trkpt lat="40.441817" lon="-5.273233">
        <ele>2788.0</ele>
        <time>2018-09-01T12:38:45Z</time>
      </trkpt>
      <trkpt lat="40.441900" lon="-5.273233">
        <ele>2790.0</ele>
        <time>2018-09-01T12:38:46Z</time>
      </trkpt>
      <trkpt lat="40.441983" lon="-5.273267">
        <ele>2793.0</ele>
        <time>2018-09-01T12:38:47Z</time>
      </trkpt>
      <trkpt lat="40.442050" lon="-5.273317">
        <ele>2795.0</ele>
        <time>2018-09-01T12:38:48Z</time>
      </trkpt>
      <trkpt lat="40.442083" lon="-5.273400">
        <ele>2797.0</ele>
        <time>2018-09-01T12:38:49Z</time>
      </trkpt>
      <trkpt lat="40.442133" lon="-5.273483">
        <ele>2799.0</ele>
        <time>2018-09-01T12:38:50Z</time>
      </trkpt>
      <trkpt lat="40.442150" lon="-5.273617">
        <ele>2803.0</ele>
        <time>2018-09-01T12:38:51Z</time>
      </trkpt>
      <trkpt lat="40.442133" lon="-5.273733">
        <ele>2806.0</ele>
        <time>2018-09-01T12:38:52Z</time>
      </trkpt>
      <trkpt lat="40.442100" lon="-5.273867">
        <ele>2810.0</ele>
        <time>2018-09-01T12:38:53Z</time>
      </trkpt>
      <trkpt lat="40.442017" lon="-5.273933">
        <ele>2813.0</ele>
        <time>2018-09-01T12:38:54Z</time>
      </trkpt>
      <trkpt lat="40.441917" lon="-5.273967">
        <ele>2815.0</ele>
        <time>2018-09-01T12:38:55Z</time>
      </trkpt>
      <trkpt lat="40.441800" lon="-5.273967">
        <ele>2816.0</ele>
        <time>2018-09-01T12:38:56Z</time>
      </trkpt>
      <trkpt lat="40.441667" lon="-5.273917">
        <ele>2818.0</ele>
        <time>2018-09-01T12:38:57Z</time>
      </trkpt>
      <trkpt lat="40.441533" lon="-5.273833">
        <ele>2821.0</ele>
        <time>2018-09-01T12:38:58Z</time>
      </trkpt>
      <trkpt lat="40.441433" lon="-5.273700">
        <ele>2825.0</ele>
        <time>2018-09-01T12:38:59Z</time>
      </trkpt>
      <trkpt lat="40.441367" lon="-5.273550">
        <ele>2830.0</ele>
        <time>2018-09-01T12:39:00Z</time>
      </trkpt>
      <trkpt lat="40.441317" lon="-5.273400">
        <ele>2835.0</ele>
        <time>2018-09-01T12:39:01Z</time>
      </trkpt>
      <trkpt lat="40.441317" lon="-5.273217">
        <ele>2839.0</ele>
        <time>2018-09-01T12:39:02Z</time>
      </trkpt>
      <trkpt lat="40.441333" lon="-5.273050">
        <ele>2842.0</ele>
        <time>2018-09-01T12:39:03Z</time>
      </trkpt>
      <trkpt lat="40.441367" lon="-5.272883">
        <ele>2844.0</ele>
        <time>2018-09-01T12:39:04Z</time>
      </trkpt>
      <trkpt lat="40.441417" lon="-5.272750">
        <ele>2846.0</ele>
        <time>2018-09-01T12:39:05Z</time>
      </trkpt>
      <trkpt lat="40.441500" lon="-5.272650">
        <ele>2846.0</ele>
        <time>2018-09-01T12:39:06Z</time>
      </trkpt>
      <trkpt lat="40.441600" lon="-5.272617">
        <ele>2846.0</ele>
        <time>2018-09-01T12:39:07Z</time>
      </trkpt>
      <trkpt lat="40.441700" lon="-5.272617">
        <ele>2847.0</ele>
        <time>2018-09-01T12:39:08Z</time>
      </trkpt>
      <trkpt lat="40.441800" lon="-5.272650">
        <ele>2848.0</ele>
        <time>2018-09-01T12:39:09Z</time>
      </trkpt>
      <trkpt lat="40.441883" lon="-5.272700">
        <ele>2851.0</ele>
        <time>2018-09-01T12:39:10Z</time>
      </trkpt>
      <trkpt lat="40.441967" lon="-5.272800">
        <ele>2854.0</ele>
        <time>2018-09-01T12:39:11Z</time>
      </trkpt>
      <trkpt lat="40.442017" lon="-5.272900">
        <ele>2858.0</ele>
        <time>2018-09-01T12:39:12Z</time>
      </trkpt>
      <trkpt lat="40.442033" lon="-5.273017">
        <ele>2863.0</ele>
        <time>2018-09-01T12:39:13Z</time>
      </trkpt>
      <trkpt lat="40.442050" lon="-5.273117">
        <ele>2869.0</ele>
        <time>2018-09-01T12:39:14Z</time>
      </trkpt>
      <trkpt lat="40.442033" lon="-5.273200">
        <ele>2874.0</ele>
        <time>2018-09-01T12:39:15Z</time>
      </trkpt>
      <trkpt lat="40.442000" lon="-5.273267">
        <ele>2877.0</ele>
        <time>2018-09-01T12:39:16Z</time>
      </trkpt>
      <trkpt lat="40.441950" lon="-5.273317">
        <ele>2879.0</ele>
        <time>2018-09-01T12:39:17Z</time>
      </trkpt>
      <trkpt lat="40.441883" lon="-5.273400">
        <ele>2880.0</ele>
        <time>2018-09-01T12:39:18Z</time>
      </trkpt>
      <trkpt lat="40.441783" lon="-5.273467">
        <ele>2880.0</ele>
        <time>2018-09-01T12:39:19Z</time>
      </trkpt>
      <trkpt lat="40.441667" lon="-5.273517">
        <ele>2881.0</ele>
        <time>2018-09-01T12:39:20Z</time>
      </trkpt>
      <trkpt lat="40.441533" lon="-5.273550">
        <ele>2884.0</ele>
        <time>2018-09-01T12:39:21Z</time>
      </trkpt>
      <trkpt lat="40.441417" lon="-5.273517">
        <ele>2887.0</ele>
        <time>2018-09-01T12:39:22Z</time>
      </trkpt>
      <trkpt lat="40.441300" lon="-5.273450">
        <ele>2892.0</ele>
        <time>2018-09-01T12:39:23Z</time>
      </trkpt>
      <trkpt lat="40.441200" lon="-5.273367">
        <ele>2897.0</ele>
        <time>2018-09-01T12:39:24Z</time>
      </trkpt>
      <trkpt lat="40.441117" lon="-5.273267">
        <ele>2902.0</ele>
        <time>2018-09-01T12:39:25Z</time>
      </trkpt>
      <trkpt lat="40.441050" lon="-5.273133">
        <ele>2907.0</ele>
        <time>2018-09-01T12:39:26Z</time>
      </trkpt>
      <trkpt lat="40.440983" lon="-5.273000">
        <ele>2912.0</ele>
        <time>2018-09-01T12:39:27Z</time>
      </trkpt>
      <trkpt lat="40.440950" lon="-5.272850">
        <ele>2916.0</ele>
        <time>2018-09-01T12:39:28Z</time>
      </trkpt>
      <trkpt lat="40.440933" lon="-5.272700">
        <ele>2919.0</ele>
        <time>2018-09-01T12:39:29Z</time>
      </trkpt>
      <trkpt lat="40.440933" lon="-5.272550">
        <ele>2922.0</ele>
        <time>2018-09-01T12:39:30Z</time>
      </trkpt>
      <trkpt lat="40.440967" lon="-5.272417">
        <ele>2927.0</ele>
        <time>2018-09-01T12:39:31Z</time>
      </trkpt>
      <trkpt lat="40.441017" lon="-5.272300">
        <ele>2931.0</ele>
        <time>2018-09-01T12:39:32Z</time>
      </trkpt>
      <trkpt lat="40.441100" lon="-5.272217">
        <ele>2935.0</ele>
        <time>2018-09-01T12:39:33Z</time>
      </trkpt>
      <trkpt lat="40.441200" lon="-5.272183">
        <ele>2938.0</ele>
        <time>2018-09-01T12:39:34Z</time>
      </trkpt>
      <trkpt lat="40.441283" lon="-5.272183">
        <ele>2942.0</ele>
        <time>2018-09-01T12:39:35Z</time>
      </trkpt>
      <trkpt lat="40.441383" lon="-5.272233">
        <ele>2946.0</ele>
        <time>2018-09-01T12:39:36Z</time>
      </trkpt>
      <trkpt lat="40.441450" lon="-5.272283">
        <ele>2952.0</ele>
        <time>2018-09-01T12:39:37Z</time>
      </trkpt>
      <trkpt lat="40.441500" lon="-5.272350">
        <ele>2956.0</ele>
        <time>2018-09-01T12:39:38Z</time>
      </trkpt>
      <trkpt lat="40.441533" lon="-5.272433">
        <ele>2960.0</ele>
        <time>2018-09-01T12:39:39Z</time>
      </trkpt>
      <trkpt lat="40.441550" lon="-5.272533">
        <ele>2964.0</ele>
        <time>2018-09-01T12:39:40Z</time>
      </trkpt>
      <trkpt lat="40.441567" lon="-5.272633">
        <ele>2967.0</ele>
        <time>2018-09-01T12:39:41Z</time>
      </trkpt>
      <trkpt lat="40.441583" lon="-5.272733">
        <ele>2970.0</ele>
        <time>2018-09-01T12:39:42Z</time>
      </trkpt>
      <trkpt lat="40.441550" lon="-5.272850">
        <ele>2973.0</ele>
        <time>2018-09-01T12:39:43Z</time>
      </trkpt>
      <trkpt lat="40.441500" lon="-5.272933">
        <ele>2975.0</ele>
        <time>2018-09-01T12:39:44Z</time>
      </trkpt>
      <trkpt lat="40.441433" lon="-5.273017">
        <ele>2977.0</ele>
        <time>2018-09-01T12:39:45Z</time>
      </trkpt>
      <trkpt lat="40.441317" lon="-5.273050">
        <ele>2979.0</ele>
        <time>2018-09-01T12:39:46Z</time>
      </trkpt>
      <trkpt lat="40.441200" lon="-5.273050">
        <ele>2981.0</ele>
        <time>2018-09-01T12:39:47Z</time>
      </trkpt>
      <trkpt lat="40.441083" lon="-5.273033">
        <ele>2984.0</ele>
        <time>2018-09-01T12:39:48Z</time>
      </trkpt>
      <trkpt lat="40.440983" lon="-5.273000">
        <ele>2988.0</ele>
        <time>2018-09-01T12:39:49Z</time>
      </trkpt>
      <trkpt lat="40.440867" lon="-5.272933">
        <ele>2991.0</ele>
        <time>2018-09-01T12:39:50Z</time>
      </trkpt>
      <trkpt lat="40.440767" lon="-5.272833">
        <ele>2994.0</ele>
        <time>2018-09-01T12:39:51Z</time>
      </trkpt>
      <trkpt lat="40.440683" lon="-5.272717">
        <ele>2997.0</ele>
        <time>2018-09-01T12:39:52Z</time>
      </trkpt>
      <trkpt lat="40.440617" lon="-5.272567">
        <ele>3000.0</ele>
        <time>2018-09-01T12:39:53Z</time>
      </trkpt>
      <trkpt lat="40.440583" lon="-5.272417">
        <ele>3003.0</ele>
        <time>2018-09-01T12:39:54Z</time>
      </trkpt>
      <trkpt lat="40.440567" lon="-5.272250">
        <ele>3007.0</ele>
        <time>2018-09-01T12:39:55Z</time>
      </trkpt>
      <trkpt lat="40.440583" lon="-5.272100">
        <ele>3011.0</ele>
        <time>2018-09-01T12:39:56Z</time>
      </trkpt>
      <trkpt lat="40.440617" lon="-5.271967">
        <ele>3015.0</ele>
        <time>2018-09-01T12:39:57Z</time>
      </trkpt>
      <trkpt lat="40.440667" lon="-5.271850">
        <ele>3019.0</ele>
        <time>2018-09-01T12:39:58Z</time>
      </trkpt>
      <trkpt lat="40.440700" lon="-5.271733">
        <ele>3023.0</ele>
        <time>2018-09-01T12:39:59Z</time>
      </trkpt>
      <trkpt lat="40.440767" lon="-5.271633">
        <ele>3027.0</ele>
        <time>2018-09-01T12:40:00Z</time>
      </trkpt>
      <trkpt lat="40.440833" lon="-5.271533">
        <ele>3030.0</ele>
        <time>2018-09-01T12:40:01Z</time>
      </trkpt>
      <trkpt lat="40.440917" lon="-5.271450">
        <ele>3033.0</ele>
        <time>2018-09-01T12:40:02Z</time>
      </trkpt>
      <trkpt lat="40.441000" lon="-5.271400">
        <ele>3035.0</ele>
        <time>2018-09-01T12:40:03Z</time>
      </trkpt>
      <trkpt lat="40.441117" lon="-5.271383">
        <ele>3037.0</ele>
        <time>2018-09-01T12:40:04Z</time>
      </trkpt>
      <trkpt lat="40.441217" lon="-5.271417">
        <ele>3040.0</ele>
        <time>2018-09-01T12:40:05Z</time>
      </trkpt>
      <trkpt lat="40.441300" lon="-5.271500">
        <ele>3043.0</ele>
        <time>2018-09-01T12:40:06Z</time>
      </trkpt>
      <trkpt lat="40.441350" lon="-5.271600">
        <ele>3047.0</ele>
        <time>2018-09-01T12:40:07Z</time>
      </trkpt>
      <trkpt lat="40.441383" lon="-5.271700">
        <ele>3051.0</ele>
        <time>2018-09-01T12:40:08Z</time>
      </trkpt>
      <trkpt lat="40.441383" lon="-5.271817">
        <ele>3054.0</ele>
        <time>2018-09-01T12:40:09Z</time>
      </trkpt>
      <trkpt lat="40.441383" lon="-5.271917">
        <ele>3057.0</ele>
        <time>2018-09-01T12:40:10Z</time>
      </trkpt>
      <trkpt lat="40.441383" lon="-5.272033">
        <ele>3060.0</ele>
        <time>2018-09-01T12:40:11Z</time>
      </trkpt>
      <trkpt lat="40.441367" lon="-5.272150">
        <ele>3063.0</ele>
        <time>2018-09-01T12:40:12Z</time>
      </trkpt>
      <trkpt lat="40.441333" lon="-5.272267">
        <ele>3066.0</ele>
        <time>2018-09-01T12:40:13Z</time>
      </trkpt>
      <trkpt lat="40.441283" lon="-5.272367">
        <ele>3069.0</ele>
        <time>2018-09-01T12:40:14Z</time>
      </trkpt>
      <trkpt lat="40.441217" lon="-5.272433">
        <ele>3072.0</ele>
        <time>2018-09-01T12:40:15Z</time>
      </trkpt>
      <trkpt lat="40.441133" lon="-5.272483">
        <ele>3075.0</ele>
        <time>2018-09-01T12:40:16Z</time>
      </trkpt>
      <trkpt lat="40.441033" lon="-5.272500">
        <ele>3077.0</ele>
        <time>2018-09-01T12:40:17Z</time>
      </trkpt>
      <trkpt lat="40.440933" lon="-5.272517">
        <ele>3079.0</ele>
        <time>2018-09-01T12:40:18Z</time>
      </trkpt>
      <trkpt lat="40.440833" lon="-5.272517">
        <ele>3081.0</ele>
        <time>2018-09-01T12:40:19Z</time>
      </trkpt>
      <trkpt lat="40.440717" lon="-5.272500">
        <ele>3083.0</ele>
        <time>2018-09-01T12:40:20Z</time>
      </trkpt>
      <trkpt lat="40.440617" lon="-5.272450">
        <ele>3085.0</ele>
        <time>2018-09-01T12:40:21Z</time>
      </trkpt>
      <trkpt lat="40.440533" lon="-5.272350">
        <ele>3087.0</ele>
        <time>2018-09-01T12:40:22Z</time>
      </trkpt>
      <trkpt lat="40.440450" lon="-5.272200">
        <ele>3088.0</ele>
        <time>2018-09-01T12:40:23Z</time>
      </trkpt>
      <trkpt lat="40.440417" lon="-5.272050">
        <ele>3091.0</ele>
        <time>2018-09-01T12:40:24Z</time>
      </trkpt>
      <trkpt lat="40.440400" lon="-5.271900">
        <ele>3094.0</ele>
        <time>2018-09-01T12:40:25Z</time>
      </trkpt>
      <trkpt lat="40.440400" lon="-5.271767">
        <ele>3099.0</ele>
        <time>2018-09-01T12:40:26Z</time>
      </trkpt>
      <trkpt lat="40.440433" lon="-5.271633">
        <ele>3102.0</ele>
        <time>2018-09-01T12:40:27Z</time>
      </trkpt>
      <trkpt lat="40.440467" lon="-5.271500">
        <ele>3105.0</ele>
        <time>2018-09-01T12:40:28Z</time>
      </trkpt>
      <trkpt lat="40.440517" lon="-5.271367">
        <ele>3107.0</ele>
        <time>2018-09-01T12:40:29Z</time>
      </trkpt>
      <trkpt lat="40.440583" lon="-5.271250">
        <ele>3110.0</ele>
        <time>2018-09-01T12:40:30Z</time>
      </trkpt>
      <trkpt lat="40.440650" lon="-5.271117">
        <ele>3113.0</ele>
        <time>2018-09-01T12:40:31Z</time>
      </trkpt>
      <trkpt lat="40.440733" lon="-5.271033">
        <ele>3117.0</ele>
        <time>2018-09-01T12:40:32Z</time>
      </trkpt>
      <trkpt lat="40.440800" lon="-5.270967">
        <ele>3122.0</ele>
        <time>2018-09-01T12:40:33Z</time>
      </trkpt>
      <trkpt lat="40.440883" lon="-5.270950">
        <ele>3125.0</ele>
        <time>2018-09-01T12:40:34Z</time>
      </trkpt>
      <trkpt lat="40.440967" lon="-5.270950">
        <ele>3127.0</ele>
        <time>2018-09-01T12:40:35Z</time>
      </trkpt>
      <trkpt lat="40.441050" lon="-5.270983">
        <ele>3128.0</ele>
        <time>2018-09-01T12:40:36Z</time>
      </trkpt>
      <trkpt lat="40.441150" lon="-5.271050">
        <ele>3130.0</ele>
        <time>2018-09-01T12:40:37Z</time>
      </trkpt>
      <trkpt lat="40.441217" lon="-5.271150">
        <ele>3131.0</ele>
        <time>2018-09-01T12:40:38Z</time>
      </trkpt>
      <trkpt lat="40.441250" lon="-5.271283">
        <ele>3133.0</ele>
        <time>2018-09-01T12:40:39Z</time>
      </trkpt>
      <trkpt lat="40.441267" lon="-5.271417">
        <ele>3136.0</ele>
        <time>2018-09-01T12:40:40Z</time>
      </trkpt>
      <trkpt lat="40.441267" lon="-5.271550">
        <ele>3139.0</ele>
        <time>2018-09-01T12:40:41Z</time>
      </trkpt>
      <trkpt lat="40.441250" lon="-5.271683">
        <ele>3142.0</ele>
        <time>2018-09-01T12:40:42Z</time>
      </trkpt>
      <trkpt lat="40.441233" lon="-5.271783">
        <ele>3146.0</ele>
        <time>2018-09-01T12:40:43Z</time>
      </trkpt>
      <trkpt lat="40.441200" lon="-5.271883">
        <ele>3149.0</ele>
        <time>2018-09-01T12:40:44Z</time>
      </trkpt>
      <trkpt lat="40.441133" lon="-5.271967">
        <ele>3151.0</ele>
        <time>2018-09-01T12:40:45Z</time>
      </trkpt>
      <trkpt lat="40.441050" lon="-5.272050">
        <ele>3152.0</ele>
        <time>2018-09-01T12:40:46Z</time>
      </trkpt>
      <trkpt lat="40.440950" lon="-5.272100">
        <ele>3153.0</ele>
        <time>2018-09-01T12:40:47Z</time>
      </trkpt>
      <trkpt lat="40.440833" lon="-5.272133">
        <ele>3155.0</ele>
        <time>2018-09-01T12:40:48Z</time>
      </trkpt>
      <trkpt lat="40.440717" lon="-5.272100">
        <ele>3156.0</ele>
        <time>2018-09-01T12:40:49Z</time>
      </trkpt>
      <trkpt lat="40.440617" lon="-5.272033">
        <ele>3159.0</ele>
        <time>2018-09-01T12:40:50Z</time>
      </trkpt>
      <trkpt lat="40.440533" lon="-5.271917">
        <ele>3161.0</ele>
        <time>2018-09-01T12:40:51Z</time>
      </trkpt>
      <trkpt lat="40.440467" lon="-5.271783">
        <ele>3164.0</ele>
        <time>2018-09-01T12:40:52Z</time>
      </trkpt>
      <trkpt lat="40.440433" lon="-5.271667">
        <ele>3167.0</ele>
        <time>2018-09-01T12:40:53Z</time>
      </trkpt>
      <trkpt lat="40.440433" lon="-5.271533">
        <ele>3169.0</ele>
        <time>2018-09-01T12:40:54Z</time>
      </trkpt>
      <trkpt lat="40.440433" lon="-5.271400">
        <ele>3170.0</ele>
        <time>2018-09-01T12:40:55Z</time>
      </trkpt>
      <trkpt lat="40.440450" lon="-5.271250">
        <ele>3171.0</ele>
        <time>2018-09-01T12:40:56Z</time>
      </trkpt>
      <trkpt lat="40.440483" lon="-5.271117">
        <ele>3172.0</ele>
        <time>2018-09-01T12:40:57Z</time>
      </trkpt>
      <trkpt lat="40.440550" lon="-5.270983">
        <ele>3175.0</ele>
        <time>2018-09-01T12:40:58Z</time>
      </trkpt>
      <trkpt lat="40.440633" lon="-5.270867">
        <ele>3179.0</ele>
        <time>2018-09-01T12:40:59Z</time>
      </trkpt>
      <trkpt lat="40.440717" lon="-5.270783">
        <ele>3184.0</ele>
        <time>2018-09-01T12:41:00Z</time>
      </trkpt>
      <trkpt lat="40.440800" lon="-5.270733">
        <ele>3189.0</ele>
        <time>2018-09-01T12:41:01Z</time>
      </trkpt>
      <trkpt lat="40.440900" lon="-5.270717">
        <ele>3192.0</ele>
        <time>2018-09-01T12:41:02Z</time>
      </trkpt>
      <trkpt lat="40.441017" lon="-5.270717">
        <ele>3195.0</ele>
        <time>2018-09-01T12:41:03Z</time>
      </trkpt>
      <trkpt lat="40.441117" lon="-5.270733">
        <ele>3198.0</ele>
        <time>2018-09-01T12:41:04Z</time>
      </trkpt>
      <trkpt lat="40.441200" lon="-5.270783">
        <ele>3200.0</ele>
        <time>2018-09-01T12:41:05Z</time>
      </trkpt>
      <trkpt lat="40.441300" lon="-5.270867">
        <ele>3201.0</ele>
        <time>2018-09-01T12:41:06Z</time>
      </trkpt>
      <trkpt lat="40.441367" lon="-5.270967">
        <ele>3203.0</ele>
        <time>2018-09-01T12:41:07Z</time>
      </trkpt>
      <trkpt lat="40.441417" lon="-5.271100">
        <ele>3203.0</ele>
        <time>2018-09-01T12:41:08Z</time>
      </trkpt>
      <trkpt lat="40.441450" lon="-5.271233">
        <ele>3205.0</ele>
        <time>2018-09-01T12:41:09Z</time>
      </trkpt>
      <trkpt lat="40.441483" lon="-5.271367">
        <ele>3208.0</ele>
        <time>2018-09-01T12:41:10Z</time>
      </trkpt>
      <trkpt lat="40.441467" lon="-5.271483">
        <ele>3211.0</ele>
        <time>2018-09-01T12:41:11Z</time>
      </trkpt>
      <trkpt lat="40.441433" lon="-5.271600">
        <ele>3213.0</ele>
        <time>2018-09-01T12:41:12Z</time>
      </trkpt>
      <trkpt lat="40.441383" lon="-5.271700">
        <ele>3214.0</ele>
        <time>2018-09-01T12:41:13Z</time>
      </trkpt>
      <trkpt lat="40.441300" lon="-5.271783">
        <ele>3215.0</ele>
        <time>2018-09-01T12:41:14Z</time>
      </trkpt>
      <trkpt lat="40.441217" lon="-5.271833">
        <ele>3216.0</ele>
        <time>2018-09-01T12:41:15Z</time>
      </trkpt>
      <trkpt lat="40.441117" lon="-5.271850">
        <ele>3218.0</ele>
        <time>2018-09-01T12:41:16Z</time>
      </trkpt>
      <trkpt lat="40.441017" lon="-5.271833">
        <ele>3220.0</ele>
        <time>2018-09-01T12:41:17Z</time>
      </trkpt>
      <trkpt lat="40.440917" lon="-5.271800">
        <ele>3222.0</ele>
        <time>2018-09-01T12:41:18Z</time>
      </trkpt>
      <trkpt lat="40.440817" lon="-5.271733">
        <ele>3223.0</ele>
        <time>2018-09-01T12:41:19Z</time>
      </trkpt>
      <trkpt lat="40.440750" lon="-5.271633">
        <ele>3225.0</ele>
        <time>2018-09-01T12:41:20Z</time>
      </trkpt>
      <trkpt lat="40.440700" lon="-5.271517">
        <ele>3227.0</ele>
        <time>2018-09-01T12:41:21Z</time>
      </trkpt>
      <trkpt lat="40.440667" lon="-5.271400">
        <ele>3228.0</ele>
        <time>2018-09-01T12:41:22Z</time>
      </trkpt>
      <trkpt lat="40.440667" lon="-5.271267">
        <ele>3229.0</ele>
        <time>2018-09-01T12:41:23Z</time>
      </trkpt>
      <trkpt lat="40.440683" lon="-5.271117">
        <ele>3229.0</ele>
        <time>2018-09-01T12:41:24Z</time>
      </trkpt>
      <trkpt lat="40.440733" lon="-5.270983">
        <ele>3230.0</ele>
        <time>2018-09-01T12:41:25Z</time>
      </trkpt>
      <trkpt lat="40.440800" lon="-5.270867">
        <ele>3232.0</ele>
        <time>2018-09-01T12:41:26Z</time>
      </trkpt>
      <trkpt lat="40.440900" lon="-5.270767">
        <ele>3235.0</ele>
        <time>2018-09-01T12:41:27Z</time>
      </trkpt>
      <trkpt lat="40.441000" lon="-5.270717">
        <ele>3238.0</ele>
        <time>2018-09-01T12:41:28Z</time>
      </trkpt>
      <trkpt lat="40.441117" lon="-5.270683">
        <ele>3241.0</ele>
        <time>2018-09-01T12:41:29Z</time>
      </trkpt>
      <trkpt lat="40.441217" lon="-5.270700">
        <ele>3243.0</ele>
        <time>2018-09-01T12:41:30Z</time>
      </trkpt>
      <trkpt lat="40.441317" lon="-5.270733">
        <ele>3245.0</ele>
        <time>2018-09-01T12:41:31Z</time>
      </trkpt>
      <trkpt lat="40.441417" lon="-5.270817">
        <ele>3246.0</ele>
        <time>2018-09-01T12:41:32Z</time>
      </trkpt>
      <trkpt lat="40.441500" lon="-5.270917">
        <ele>3246.0</ele>
        <time>2018-09-01T12:41:33Z</time>
      </trkpt>
      <trkpt lat="40.441567" lon="-5.271050">
        <ele>3246.0</ele>
        <time>2018-09-01T12:41:34Z</time>
      </trkpt>
      <trkpt lat="40.441600" lon="-5.271200">
        <ele>3247.0</ele>
        <time>2018-09-01T12:41:35Z</time>
      </trkpt>
      <trkpt lat="40.441633" lon="-5.271317">
        <ele>3250.0</ele>
        <time>2018-09-01T12:41:36Z</time>
      </trkpt>
      <trkpt lat="40.441617" lon="-5.271433">
        <ele>3253.0</ele>
        <time>2018-09-01T12:41:37Z</time>
      </trkpt>
      <trkpt lat="40.441600" lon="-5.271517">
        <ele>3256.0</ele>
        <time>2018-09-01T12:41:38Z</time>
      </trkpt>
      <trkpt lat="40.441550" lon="-5.271600">
        <ele>3257.0</ele>
        <time>2018-09-01T12:41:39Z</time>
      </trkpt>
      <trkpt lat="40.441500" lon="-5.271683">
        <ele>3256.0</ele>
        <time>2018-09-01T12:41:40Z</time>
      </trkpt>
      <trkpt lat="40.441417" lon="-5.271750">
        <ele>3255.0</ele>
        <time>2018-09-01T12:41:41Z</time>
      </trkpt>
      <trkpt lat="40.441317" lon="-5.271817">
        <ele>3254.0</ele>
        <time>2018-09-01T12:41:42Z</time>
      </trkpt>
      <trkpt lat="40.441200" lon="-5.271833">
        <ele>3254.0</ele>
        <time>2018-09-01T12:41:43Z</time>
      </trkpt>
      <trkpt lat="40.441083" lon="-5.271800">
        <ele>3256.0</ele>
        <time>2018-09-01T12:41:44Z</time>
      </trkpt>
      <trkpt lat="40.440983" lon="-5.271733">
        <ele>3257.0</ele>
        <time>2018-09-01T12:41:45Z</time>
      </trkpt>
      <trkpt lat="40.440917" lon="-5.271633">
        <ele>3259.0</ele>
        <time>2018-09-01T12:41:46Z</time>
      </trkpt>
      <trkpt lat="40.440850" lon="-5.271517">
        <ele>3260.0</ele>
        <time>2018-09-01T12:41:47Z</time>
      </trkpt>
      <trkpt lat="40.440817" lon="-5.271400">
        <ele>3262.0</ele>
        <time>2018-09-01T12:41:48Z</time>
      </trkpt>
      <trkpt lat="40.440767" lon="-5.271283">
        <ele>3264.0</ele>
        <time>2018-09-01T12:41:49Z</time>
      </trkpt>
      <trkpt lat="40.440750" lon="-5.271150">
        <ele>3264.0</ele>
        <time>2018-09-01T12:41:50Z</time>
      </trkpt>
      <trkpt lat="40.440733" lon="-5.271017">
        <ele>3264.0</ele>
        <time>2018-09-01T12:41:51Z</time>
      </trkpt>
      <trkpt lat="40.440750" lon="-5.270883">
        <ele>3266.0</ele>
        <time>2018-09-01T12:41:52Z</time>
      </trkpt>
      <trkpt lat="40.440767" lon="-5.270767">
        <ele>3268.0</ele>
        <time>2018-09-01T12:41:53Z</time>
      </trkpt>
      <trkpt lat="40.440800" lon="-5.270667">
        <ele>3271.0</ele>
        <time>2018-09-01T12:41:54Z</time>
      </trkpt>
      <trkpt lat="40.440833" lon="-5.270600">
        <ele>3273.0</ele>
        <time>2018-09-01T12:41:55Z</time>
      </trkpt>
      <trkpt lat="40.440883" lon="-5.270517">
        <ele>3273.0</ele>
        <time>2018-09-01T12:41:56Z</time>
      </trkpt>
      <trkpt lat="40.440950" lon="-5.270433">
        <ele>3273.0</ele>
        <time>2018-09-01T12:41:57Z</time>
      </trkpt>
      <trkpt lat="40.441050" lon="-5.270367">
        <ele>3272.0</ele>
        <time>2018-09-01T12:41:58Z</time>
      </trkpt>
      <trkpt lat="40.441167" lon="-5.270333">
        <ele>3271.0</ele>
        <time>2018-09-01T12:41:59Z</time>
      </trkpt>
      <trkpt lat="40.441283" lon="-5.270333">
        <ele>3273.0</ele>
        <time>2018-09-01T12:42:00Z</time>
      </trkpt>
      <trkpt lat="40.441383" lon="-5.270333">
        <ele>3276.0</ele>
        <time>2018-09-01T12:42:01Z</time>
      </trkpt>
      <trkpt lat="40.441483" lon="-5.270300">
        <ele>3278.0</ele>
        <time>2018-09-01T12:42:02Z</time>
      </trkpt>
      <trkpt lat="40.441583" lon="-5.270267">
        <ele>3280.0</ele>
        <time>2018-09-01T12:42:03Z</time>
      </trkpt>
      <trkpt lat="40.441667" lon="-5.270233">
        <ele>3280.0</ele>
        <time>2018-09-01T12:42:04Z</time>
      </trkpt>
      <trkpt lat="40.441783" lon="-5.270183">
        <ele>3280.0</ele>
        <time>2018-09-01T12:42:05Z</time>
      </trkpt>
      <trkpt lat="40.441900" lon="-5.270133">
        <ele>3279.0</ele>
        <time>2018-09-01T12:42:06Z</time>
      </trkpt>
      <trkpt lat="40.442017" lon="-5.270083">
        <ele>3279.0</ele>
        <time>2018-09-01T12:42:07Z</time>
      </trkpt>
      <trkpt lat="40.442117" lon="-5.270000">
        <ele>3280.0</ele>
        <time>2018-09-01T12:42:08Z</time>
      </trkpt>
      <trkpt lat="40.442233" lon="-5.269933">
        <ele>3282.0</ele>
        <time>2018-09-01T12:42:09Z</time>
      </trkpt>
      <trkpt lat="40.442317" lon="-5.269867">
        <ele>3284.0</ele>
        <time>2018-09-01T12:42:10Z</time>
      </trkpt>
      <trkpt lat="40.442400" lon="-5.269833">
        <ele>3284.0</ele>
        <time>2018-09-01T12:42:11Z</time>
      </trkpt>
      <trkpt lat="40.442500" lon="-5.269783">
        <ele>3283.0</ele>
        <time>2018-09-01T12:42:12Z</time>
      </trkpt>
      <trkpt lat="40.442600" lon="-5.269750">
        <ele>3280.0</ele>
        <time>2018-09-01T12:42:13Z</time>
      </trkpt>
      <trkpt lat="40.442700" lon="-5.269717">
        <ele>3276.0</ele>
        <time>2018-09-01T12:42:14Z</time>
      </trkpt>
      <trkpt lat="40.442833" lon="-5.269667">
        <ele>3273.0</ele>
        <time>2018-09-01T12:42:15Z</time>
      </trkpt>
      <trkpt lat="40.442950" lon="-5.269617">
        <ele>3270.0</ele>
        <time>2018-09-01T12:42:16Z</time>
      </trkpt>
      <trkpt lat="40.443050" lon="-5.269533">
        <ele>3268.0</ele>
        <time>2018-09-01T12:42:17Z</time>
      </trkpt>
      <trkpt lat="40.443167" lon="-5.269467">
        <ele>3266.0</ele>
        <time>2018-09-01T12:42:18Z</time>
      </trkpt>
      <trkpt lat="40.443267" lon="-5.269400">
        <ele>3265.0</ele>
        <time>2018-09-01T12:42:19Z</time>
      </trkpt>
      <trkpt lat="40.443383" lon="-5.269350">
        <ele>3265.0</ele>
        <time>2018-09-01T12:42:20Z</time>
      </trkpt>
      <trkpt lat="40.443483" lon="-5.269283">
        <ele>3263.0</ele>
        <time>2018-09-01T12:42:21Z</time>
      </trkpt>
      <trkpt lat="40.443583" lon="-5.269217">
        <ele>3262.0</ele>
        <time>2018-09-01T12:42:22Z</time>
      </trkpt>
      <trkpt lat="40.443683" lon="-5.269133">
        <ele>3259.0</ele>
        <time>2018-09-01T12:42:23Z</time>
      </trkpt>
      <trkpt lat="40.443767" lon="-5.269033">
        <ele>3256.0</ele>
        <time>2018-09-01T12:42:24Z</time>
      </trkpt>
      <trkpt lat="40.443867" lon="-5.268933">
        <ele>3254.0</ele>
        <time>2018-09-01T12:42:25Z</time>
      </trkpt>
      <trkpt lat="40.443967" lon="-5.268850">
        <ele>3252.0</ele>
        <time>2018-09-01T12:42:26Z</time>
      </trkpt>
      <trkpt lat="40.444067" lon="-5.268767">
        <ele>3250.0</ele>
        <time>2018-09-01T12:42:27Z</time>
      </trkpt>
      <trkpt lat="40.444167" lon="-5.268683">
        <ele>3249.0</ele>
        <time>2018-09-01T12:42:28Z</time>
      </trkpt>
      <trkpt lat="40.444250" lon="-5.268583">
        <ele>3247.0</ele>
        <time>2018-09-01T12:42:29Z</time>
      </trkpt>
      <trkpt lat="40.444350" lon="-5.268500">
        <ele>3245.0</ele>
        <time>2018-09-01T12:42:30Z</time>
      </trkpt>
      <trkpt lat="40.444450" lon="-5.268417">
        <ele>3243.0</ele>
        <time>2018-09-01T12:42:31Z</time>
      </trkpt>
      <trkpt lat="40.444567" lon="-5.268350">
        <ele>3241.0</ele>
        <time>2018-09-01T12:42:32Z</time>
      </trkpt>
      <trkpt lat="40.444667" lon="-5.268267">
        <ele>3239.0</ele>
        <time>2018-09-01T12:42:33Z</time>
      </trkpt>
      <trkpt lat="40.444783" lon="-5.268183">
        <ele>3237.0</ele>
        <time>2018-09-01T12:42:34Z</time>
      </trkpt>
      <trkpt lat="40.444900" lon="-5.268117">
        <ele>3236.0</ele>
        <time>2018-09-01T12:42:35Z</time>
      </trkpt>
      <trkpt lat="40.445017" lon="-5.268050">
        <ele>3235.0</ele>
        <time>2018-09-01T12:42:36Z</time>
      </trkpt>
      <trkpt lat="40.445117" lon="-5.267983">
        <ele>3236.0</ele>
        <time>2018-09-01T12:42:37Z</time>
      </trkpt>
      <trkpt lat="40.445200" lon="-5.267917">
        <ele>3237.0</ele>
        <time>2018-09-01T12:42:38Z</time>
      </trkpt>
      <trkpt lat="40.445267" lon="-5.267833">
        <ele>3236.0</ele>
        <time>2018-09-01T12:42:39Z</time>
      </trkpt>
      <trkpt lat="40.445333" lon="-5.267750">
        <ele>3235.0</ele>
        <time>2018-09-01T12:42:40Z</time>
      </trkpt>
      <trkpt lat="40.445417" lon="-5.267667">
        <ele>3232.0</ele>
        <time>2018-09-01T12:42:41Z</time>
      </trkpt>
      <trkpt lat="40.445500" lon="-5.267600">
        <ele>3229.0</ele>
        <time>2018-09-01T12:42:42Z</time>
      </trkpt>
      <trkpt lat="40.445583" lon="-5.267517">
        <ele>3226.0</ele>
        <time>2018-09-01T12:42:43Z</time>
      </trkpt>
      <trkpt lat="40.445683" lon="-5.267433">
        <ele>3224.0</ele>
        <time>2018-09-01T12:42:44Z</time>
      </trkpt>
      <trkpt lat="40.445783" lon="-5.267350">
        <ele>3224.0</ele>
        <time>2018-09-01T12:42:45Z</time>
      </trkpt>
      <trkpt lat="40.445867" lon="-5.267250">
        <ele>3224.0</ele>
        <time>2018-09-01T12:42:46Z</time>
      </trkpt>
      <trkpt lat="40.445950" lon="-5.267167">
        <ele>3224.0</ele>
        <time>2018-09-01T12:42:47Z</time>
      </trkpt>
      <trkpt lat="40.446033" lon="-5.267067">
        <ele>3223.0</ele>
        <time>2018-09-01T12:42:48Z</time>
      </trkpt>
      <trkpt lat="40.446117" lon="-5.266983">
        <ele>3221.0</ele>
        <time>2018-09-01T12:42:49Z</time>
      </trkpt>
      <trkpt lat="40.446200" lon="-5.266900">
        <ele>3220.0</ele>
        <time>2018-09-01T12:42:50Z</time>
      </trkpt>
      <trkpt lat="40.446283" lon="-5.266817">
        <ele>3218.0</ele>
        <time>2018-09-01T12:42:51Z</time>
      </trkpt>
      <trkpt lat="40.446367" lon="-5.266717">
        <ele>3216.0</ele>
        <time>2018-09-01T12:42:52Z</time>
      </trkpt>
      <trkpt lat="40.446467" lon="-5.266617">
        <ele>3214.0</ele>
        <time>2018-09-01T12:42:53Z</time>
      </trkpt>
      <trkpt lat="40.446550" lon="-5.266500">
        <ele>3213.0</ele>
        <time>2018-09-01T12:42:54Z</time>
      </trkpt>
      <trkpt lat="40.446650" lon="-5.266400">
        <ele>3214.0</ele>
        <time>2018-09-01T12:42:55Z</time>
      </trkpt>
      <trkpt lat="40.446733" lon="-5.266317">
        <ele>3214.0</ele>
        <time>2018-09-01T12:42:56Z</time>
      </trkpt>
      <trkpt lat="40.446833" lon="-5.266233">
        <ele>3214.0</ele>
        <time>2018-09-01T12:42:57Z</time>
      </trkpt>
      <trkpt lat="40.446917" lon="-5.266167">
        <ele>3213.0</ele>
        <time>2018-09-01T12:42:58Z</time>
      </trkpt>
      <trkpt lat="40.447000" lon="-5.266083">
        <ele>3212.0</ele>
        <time>2018-09-01T12:42:59Z</time>
      </trkpt>
      <trkpt lat="40.447083" lon="-5.266000">
        <ele>3209.0</ele>
        <time>2018-09-01T12:43:00Z</time>
      </trkpt>
      <trkpt lat="40.447167" lon="-5.265933">
        <ele>3207.0</ele>
        <time>2018-09-01T12:43:01Z</time>
      </trkpt>
      <trkpt lat="40.447250" lon="-5.265867">
        <ele>3204.0</ele>
        <time>2018-09-01T12:43:02Z</time>
      </trkpt>
      <trkpt lat="40.447350" lon="-5.265817">
        <ele>3202.0</ele>
        <time>2018-09-01T12:43:03Z</time>
      </trkpt>
      <trkpt lat="40.447450" lon="-5.265767">
        <ele>3200.0</ele>
        <time>2018-09-01T12:43:04Z</time>
      </trkpt>
      <trkpt lat="40.447533" lon="-5.265700">
        <ele>3198.0</ele>
        <time>2018-09-01T12:43:05Z</time>
      </trkpt>
      <trkpt lat="40.447617" lon="-5.265633">
        <ele>3195.0</ele>
        <time>2018-09-01T12:43:06Z</time>
      </trkpt>
      <trkpt lat="40.447700" lon="-5.265533">
        <ele>3192.0</ele>
        <time>2018-09-01T12:43:07Z</time>
      </trkpt>
      <trkpt lat="40.447783" lon="-5.265433">
        <ele>3188.0</ele>
        <time>2018-09-01T12:43:08Z</time>
      </trkpt>
      <trkpt lat="40.447867" lon="-5.265350">
        <ele>3186.0</ele>
        <time>2018-09-01T12:43:09Z</time>
      </trkpt>
      <trkpt lat="40.447967" lon="-5.265283">
        <ele>3183.0</ele>
        <time>2018-09-01T12:43:10Z</time>
      </trkpt>
      <trkpt lat="40.448067" lon="-5.265217">
        <ele>3181.0</ele>
        <time>2018-09-01T12:43:11Z</time>
      </trkpt>
      <trkpt lat="40.448150" lon="-5.265167">
        <ele>3179.0</ele>
        <time>2018-09-01T12:43:12Z</time>
      </trkpt>
      <trkpt lat="40.448250" lon="-5.265100">
        <ele>3177.0</ele>
        <time>2018-09-01T12:43:13Z</time>
      </trkpt>
      <trkpt lat="40.448333" lon="-5.265017">
        <ele>3174.0</ele>
        <time>2018-09-01T12:43:14Z</time>
      </trkpt>
      <trkpt lat="40.448433" lon="-5.264933">
        <ele>3172.0</ele>
        <time>2018-09-01T12:43:15Z</time>
      </trkpt>
      <trkpt lat="40.448517" lon="-5.264850">
        <ele>3169.0</ele>
        <time>2018-09-01T12:43:16Z</time>
      </trkpt>
      <trkpt lat="40.448617" lon="-5.264783">
        <ele>3166.0</ele>
        <time>2018-09-01T12:43:17Z</time>
      </trkpt>
      <trkpt lat="40.448717" lon="-5.264700">
        <ele>3163.0</ele>
        <time>2018-09-01T12:43:18Z</time>
      </trkpt>
      <trkpt lat="40.448800" lon="-5.264633">
        <ele>3161.0</ele>
        <time>2018-09-01T12:43:19Z</time>
      </trkpt>
      <trkpt lat="40.448900" lon="-5.264567">
        <ele>3160.0</ele>
        <time>2018-09-01T12:43:20Z</time>
      </trkpt>
      <trkpt lat="40.449000" lon="-5.264517">
        <ele>3158.0</ele>
        <time>2018-09-01T12:43:21Z</time>
      </trkpt>
      <trkpt lat="40.449100" lon="-5.264483">
        <ele>3155.0</ele>
        <time>2018-09-01T12:43:22Z</time>
      </trkpt>
      <trkpt lat="40.449200" lon="-5.264450">
        <ele>3152.0</ele>
        <time>2018-09-01T12:43:23Z</time>
      </trkpt>
      <trkpt lat="40.449300" lon="-5.264400">
        <ele>3149.0</ele>
        <time>2018-09-01T12:43:24Z</time>
      </trkpt>
      <trkpt lat="40.449417" lon="-5.264350">
        <ele>3145.0</ele>
        <time>2018-09-01T12:43:25Z</time>
      </trkpt>
      <trkpt lat="40.449533" lon="-5.264300">
        <ele>3143.0</ele>
        <time>2018-09-01T12:43:26Z</time>
      </trkpt>
      <trkpt lat="40.449650" lon="-5.264233">
        <ele>3141.0</ele>
        <time>2018-09-01T12:43:27Z</time>
      </trkpt>
      <trkpt lat="40.449767" lon="-5.264183">
        <ele>3140.0</ele>
        <time>2018-09-01T12:43:28Z</time>
      </trkpt>
      <trkpt lat="40.449867" lon="-5.264133">
        <ele>3139.0</ele>
        <time>2018-09-01T12:43:29Z</time>
      </trkpt>
      <trkpt lat="40.449983" lon="-5.264100">
        <ele>3139.0</ele>
        <time>2018-09-01T12:43:30Z</time>
      </trkpt>
      <trkpt lat="40.450083" lon="-5.264067">
        <ele>3137.0</ele>
        <time>2018-09-01T12:43:31Z</time>
      </trkpt>
      <trkpt lat="40.450200" lon="-5.264033">
        <ele>3135.0</ele>
        <time>2018-09-01T12:43:32Z</time>
      </trkpt>
      <trkpt lat="40.450317" lon="-5.263983">
        <ele>3133.0</ele>
        <time>2018-09-01T12:43:33Z</time>
      </trkpt>
      <trkpt lat="40.450417" lon="-5.263933">
        <ele>3132.0</ele>
        <time>2018-09-01T12:43:34Z</time>
      </trkpt>
      <trkpt lat="40.450533" lon="-5.263883">
        <ele>3130.0</ele>
        <time>2018-09-01T12:43:35Z</time>
      </trkpt>
      <trkpt lat="40.450633" lon="-5.263833">
        <ele>3129.0</ele>
        <time>2018-09-01T12:43:36Z</time>
      </trkpt>
      <trkpt lat="40.450733" lon="-5.263783">
        <ele>3128.0</ele>
        <time>2018-09-01T12:43:37Z</time>
      </trkpt>
      <trkpt lat="40.450833" lon="-5.263717">
        <ele>3127.0</ele>
        <time>2018-09-01T12:43:38Z</time>
      </trkpt>
      <trkpt lat="40.450900" lon="-5.263650">
        <ele>3127.0</ele>
        <time>2018-09-01T12:43:39Z</time>
      </trkpt>
      <trkpt lat="40.450983" lon="-5.263583">
        <ele>3125.0</ele>
        <time>2018-09-01T12:43:40Z</time>
      </trkpt>
      <trkpt lat="40.451067" lon="-5.263517">
        <ele>3123.0</ele>
        <time>2018-09-01T12:43:41Z</time>
      </trkpt>
      <trkpt lat="40.451167" lon="-5.263450">
        <ele>3120.0</ele>
        <time>2018-09-01T12:43:42Z</time>
      </trkpt>
      <trkpt lat="40.451250" lon="-5.263383">
        <ele>3118.0</ele>
        <time>2018-09-01T12:43:43Z</time>
      </trkpt>
      <trkpt lat="40.451350" lon="-5.263333">
        <ele>3115.0</ele>
        <time>2018-09-01T12:43:44Z</time>
      </trkpt>
      <trkpt lat="40.451433" lon="-5.263300">
        <ele>3114.0</ele>
        <time>2018-09-01T12:43:45Z</time>
      </trkpt>
      <trkpt lat="40.451517" lon="-5.263283">
        <ele>3112.0</ele>
        <time>2018-09-01T12:43:46Z</time>
      </trkpt>
      <trkpt lat="40.451583" lon="-5.263267">
        <ele>3110.0</ele>
        <time>2018-09-01T12:43:47Z</time>
      </trkpt>
      <trkpt lat="40.451667" lon="-5.263250">
        <ele>3108.0</ele>
        <time>2018-09-01T12:43:48Z</time>
      </trkpt>
      <trkpt lat="40.451750" lon="-5.263200">
        <ele>3104.0</ele>
        <time>2018-09-01T12:43:49Z</time>
      </trkpt>
      <trkpt lat="40.451850" lon="-5.263150">
        <ele>3101.0</ele>
        <time>2018-09-01T12:43:50Z</time>
      </trkpt>
      <trkpt lat="40.451933" lon="-5.263100">
        <ele>3099.0</ele>
        <time>2018-09-01T12:43:51Z</time>
      </trkpt>
      <trkpt lat="40.452033" lon="-5.263050">
        <ele>3097.0</ele>
        <time>2018-09-01T12:43:52Z</time>
      </trkpt>
      <trkpt lat="40.452117" lon="-5.263000">
        <ele>3096.0</ele>
        <time>2018-09-01T12:43:53Z</time>
      </trkpt>
      <trkpt lat="40.452200" lon="-5.262967">
        <ele>3095.0</ele>
        <time>2018-09-01T12:43:54Z</time>
      </trkpt>
      <trkpt lat="40.452283" lon="-5.262933">
        <ele>3094.0</ele>
        <time>2018-09-01T12:43:55Z</time>
      </trkpt>
      <trkpt lat="40.452383" lon="-5.262900">
        <ele>3093.0</ele>
        <time>2018-09-01T12:43:56Z</time>
      </trkpt>
      <trkpt lat="40.452467" lon="-5.262867">
        <ele>3092.0</ele>
        <time>2018-09-01T12:43:57Z</time>
      </trkpt>
      <trkpt lat="40.452550" lon="-5.262833">
        <ele>3091.0</ele>
        <time>2018-09-01T12:43:58Z</time>
      </trkpt>
      <trkpt lat="40.452633" lon="-5.262783">
        <ele>3090.0</ele>
        <time>2018-09-01T12:43:59Z</time>
      </trkpt>
      <trkpt lat="40.452717" lon="-5.262750">
        <ele>3089.0</ele>
        <time>2018-09-01T12:44:00Z</time>
      </trkpt>
      <trkpt lat="40.452817" lon="-5.262717">
        <ele>3087.0</ele>
        <time>2018-09-01T12:44:01Z</time>
      </trkpt>
      <trkpt lat="40.452900" lon="-5.262683">
        <ele>3085.0</ele>
        <time>2018-09-01T12:44:02Z</time>
      </trkpt>
      <trkpt lat="40.453000" lon="-5.262650">
        <ele>3082.0</ele>
        <time>2018-09-01T12:44:03Z</time>
      </trkpt>
      <trkpt lat="40.453083" lon="-5.262583">
        <ele>3080.0</ele>
        <time>2018-09-01T12:44:04Z</time>
      </trkpt>
      <trkpt lat="40.453167" lon="-5.262500">
        <ele>3078.0</ele>
        <time>2018-09-01T12:44:05Z</time>
      </trkpt>
      <trkpt lat="40.453250" lon="-5.262417">
        <ele>3077.0</ele>
        <time>2018-09-01T12:44:06Z</time>
      </trkpt>
      <trkpt lat="40.453317" lon="-5.262350">
        <ele>3076.0</ele>
        <time>2018-09-01T12:44:07Z</time>
      </trkpt>
      <trkpt lat="40.453383" lon="-5.262283">
        <ele>3076.0</ele>
        <time>2018-09-01T12:44:08Z</time>
      </trkpt>
      <trkpt lat="40.453450" lon="-5.262217">
        <ele>3074.0</ele>
        <time>2018-09-01T12:44:09Z</time>
      </trkpt>
      <trkpt lat="40.453533" lon="-5.262167">
        <ele>3072.0</ele>
        <time>2018-09-01T12:44:10Z</time>
      </trkpt>
      <trkpt lat="40.453617" lon="-5.262100">
        <ele>3070.0</ele>
        <time>2018-09-01T12:44:11Z</time>
      </trkpt>
      <trkpt lat="40.453700" lon="-5.262050">
        <ele>3069.0</ele>
        <time>2018-09-01T12:44:12Z</time>
      </trkpt>
      <trkpt lat="40.453783" lon="-5.262000">
        <ele>3068.0</ele>
        <time>2018-09-01T12:44:13Z</time>
      </trkpt>
      <trkpt lat="40.453850" lon="-5.261950">
        <ele>3067.0</ele>
        <time>2018-09-01T12:44:14Z</time>
      </trkpt>
      <trkpt lat="40.453933" lon="-5.261900">
        <ele>3065.0</ele>
        <time>2018-09-01T12:44:15Z</time>
      </trkpt>
      <trkpt lat="40.454017" lon="-5.261833">
        <ele>3063.0</ele>
        <time>2018-09-01T12:44:16Z</time>
      </trkpt>
      <trkpt lat="40.454100" lon="-5.261783">
        <ele>3060.0</ele>
        <time>2018-09-01T12:44:17Z</time>
      </trkpt>
      <trkpt lat="40.454200" lon="-5.261750">
        <ele>3057.0</ele>
        <time>2018-09-01T12:44:18Z</time>
      </trkpt>
      <trkpt lat="40.454317" lon="-5.261700">
        <ele>3054.0</ele>
        <time>2018-09-01T12:44:19Z</time>
      </trkpt>
      <trkpt lat="40.454417" lon="-5.261667">
        <ele>3053.0</ele>
        <time>2018-09-01T12:44:20Z</time>
      </trkpt>
      <trkpt lat="40.454517" lon="-5.261617">
        <ele>3051.0</ele>
        <time>2018-09-01T12:44:21Z</time>
      </trkpt>
      <trkpt lat="40.454617" lon="-5.261567">
        <ele>3050.0</ele>
        <time>2018-09-01T12:44:22Z</time>
      </trkpt>
      <trkpt lat="40.454717" lon="-5.261500">
        <ele>3049.0</ele>
        <time>2018-09-01T12:44:23Z</time>
      </trkpt>
      <trkpt lat="40.454800" lon="-5.261417">
        <ele>3048.0</ele>
        <time>2018-09-01T12:44:24Z</time>
      </trkpt>
      <trkpt lat="40.454883" lon="-5.261350">
        <ele>3046.0</ele>
        <time>2018-09-01T12:44:25Z</time>
      </trkpt>
      <trkpt lat="40.454967" lon="-5.261283">
        <ele>3045.0</ele>
        <time>2018-09-01T12:44:26Z</time>
      </trkpt>
      <trkpt lat="40.455050" lon="-5.261200">
        <ele>3043.0</ele>
        <time>2018-09-01T12:44:27Z</time>
      </trkpt>
      <trkpt lat="40.455133" lon="-5.261117">
        <ele>3040.0</ele>
        <time>2018-09-01T12:44:28Z</time>
      </trkpt>
      <trkpt lat="40.455217" lon="-5.261033">
        <ele>3037.0</ele>
        <time>2018-09-01T12:44:29Z</time>
      </trkpt>
      <trkpt lat="40.455300" lon="-5.260950">
        <ele>3035.0</ele>
        <time>2018-09-01T12:44:30Z</time>
      </trkpt>
      <trkpt lat="40.455400" lon="-5.260867">
        <ele>3032.0</ele>
        <time>2018-09-01T12:44:31Z</time>
      </trkpt>
      <trkpt lat="40.455500" lon="-5.260800">
        <ele>3029.0</ele>
        <time>2018-09-01T12:44:32Z</time>
      </trkpt>
      <trkpt lat="40.455617" lon="-5.260750">
        <ele>3026.0</ele>
        <time>2018-09-01T12:44:33Z</time>
      </trkpt>
      <trkpt lat="40.455733" lon="-5.260700">
        <ele>3024.0</ele>
        <time>2018-09-01T12:44:34Z</time>
      </trkpt>
      <trkpt lat="40.455833" lon="-5.260633">
        <ele>3022.0</ele>
        <time>2018-09-01T12:44:35Z</time>
      </trkpt>
      <trkpt lat="40.455933" lon="-5.260583">
        <ele>3020.0</ele>
        <time>2018-09-01T12:44:36Z</time>
      </trkpt>
      <trkpt lat="40.456033" lon="-5.260500">
        <ele>3019.0</ele>
        <time>2018-09-01T12:44:37Z</time>
      </trkpt>
      <trkpt lat="40.456117" lon="-5.260433">
        <ele>3017.0</ele>
        <time>2018-09-01T12:44:38Z</time>
      </trkpt>
      <trkpt lat="40.456217" lon="-5.260367">
        <ele>3015.0</ele>
        <time>2018-09-01T12:44:39Z</time>
      </trkpt>
      <trkpt lat="40.456300" lon="-5.260300">
        <ele>3012.0</ele>
        <time>2018-09-01T12:44:40Z</time>
      </trkpt>
      <trkpt lat="40.456417" lon="-5.260233">
        <ele>3009.0</ele>
        <time>2018-09-01T12:44:41Z</time>
      </trkpt>
      <trkpt lat="40.456517" lon="-5.260183">
        <ele>3007.0</ele>
        <time>2018-09-01T12:44:42Z</time>
      </trkpt>
      <trkpt lat="40.456617" lon="-5.260150">
        <ele>3007.0</ele>
        <time>2018-09-01T12:44:43Z</time>
      </trkpt>
      <trkpt lat="40.456700" lon="-5.260150">
        <ele>3006.0</ele>
        <time>2018-09-01T12:44:44Z</time>
      </trkpt>
      <trkpt lat="40.456783" lon="-5.260150">
        <ele>3006.0</ele>
        <time>2018-09-01T12:44:45Z</time>
      </trkpt>
      <trkpt lat="40.456850" lon="-5.260133">
        <ele>3005.0</ele>
        <time>2018-09-01T12:44:46Z</time>
      </trkpt>
      <trkpt lat="40.456917" lon="-5.260117">
        <ele>3003.0</ele>
        <time>2018-09-01T12:44:47Z</time>
      </trkpt>
      <trkpt lat="40.457000" lon="-5.260100">
        <ele>2999.0</ele>
        <time>2018-09-01T12:44:48Z</time>
      </trkpt>
      <trkpt lat="40.457100" lon="-5.260083">
        <ele>2996.0</ele>
        <time>2018-09-01T12:44:49Z</time>
      </trkpt>
      <trkpt lat="40.457200" lon="-5.260083">
        <ele>2993.0</ele>
        <time>2018-09-01T12:44:50Z</time>
      </trkpt>
      <trkpt lat="40.457300" lon="-5.260067">
        <ele>2991.0</ele>
        <time>2018-09-01T12:44:51Z</time>
      </trkpt>
      <trkpt lat="40.457400" lon="-5.260033">
        <ele>2988.0</ele>
        <time>2018-09-01T12:44:52Z</time>
      </trkpt>
      <trkpt lat="40.457483" lon="-5.260000">
        <ele>2986.0</ele>
        <time>2018-09-01T12:44:53Z</time>
      </trkpt>
      <trkpt lat="40.457567" lon="-5.259950">
        <ele>2985.0</ele>
        <time>2018-09-01T12:44:54Z</time>
      </trkpt>
      <trkpt lat="40.457650" lon="-5.259900">
        <ele>2982.0</ele>
        <time>2018-09-01T12:44:55Z</time>
      </trkpt>
      <trkpt lat="40.457717" lon="-5.259850">
        <ele>2979.0</ele>
        <time>2018-09-01T12:44:56Z</time>
      </trkpt>
      <trkpt lat="40.457817" lon="-5.259817">
        <ele>2976.0</ele>
        <time>2018-09-01T12:44:57Z</time>
      </trkpt>
      <trkpt lat="40.457900" lon="-5.259800">
        <ele>2973.0</ele>
        <time>2018-09-01T12:44:58Z</time>
      </trkpt>
      <trkpt lat="40.457983" lon="-5.259767">
        <ele>2970.0</ele>
        <time>2018-09-01T12:44:59Z</time>
      </trkpt>
      <trkpt lat="40.458067" lon="-5.259733">
        <ele>2968.0</ele>
        <time>2018-09-01T12:45:00Z</time>
      </trkpt>
      <trkpt lat="40.458150" lon="-5.259700">
        <ele>2966.0</ele>
        <time>2018-09-01T12:45:01Z</time>
      </trkpt>
      <trkpt lat="40.458217" lon="-5.259667">
        <ele>2964.0</ele>
        <time>2018-09-01T12:45:02Z</time>
      </trkpt>
      <trkpt lat="40.458300" lon="-5.259617">
        <ele>2961.0</ele>
        <time>2018-09-01T12:45:03Z</time>
      </trkpt>
      <trkpt lat="40.458383" lon="-5.259583">
        <ele>2958.0</ele>
        <time>2018-09-01T12:45:04Z</time>
      </trkpt>
      <trkpt lat="40.458483" lon="-5.259533">
        <ele>2955.0</ele>
        <time>2018-09-01T12:45:05Z</time>
      </trkpt>
      <trkpt lat="40.458567" lon="-5.259500">
        <ele>2952.0</ele>
        <time>2018-09-01T12:45:06Z</time>
      </trkpt>
      <trkpt lat="40.458650" lon="-5.259450">
        <ele>2949.0</ele>
        <time>2018-09-01T12:45:07Z</time>
      </trkpt>
      <trkpt lat="40.458733" lon="-5.259383">
        <ele>2946.0</ele>
        <time>2018-09-01T12:45:08Z</time>
      </trkpt>
      <trkpt lat="40.458817" lon="-5.259333">
        <ele>2944.0</ele>
        <time>2018-09-01T12:45:09Z</time>
      </trkpt>
      <trkpt lat="40.458900" lon="-5.259267">
        <ele>2942.0</ele>
        <time>2018-09-01T12:45:10Z</time>
      </trkpt>
      <trkpt lat="40.458967" lon="-5.259183">
        <ele>2940.0</ele>
        <time>2018-09-01T12:45:11Z</time>
      </trkpt>
      <trkpt lat="40.459050" lon="-5.259100">
        <ele>2937.0</ele>
        <time>2018-09-01T12:45:12Z</time>
      </trkpt>
      <trkpt lat="40.459117" lon="-5.259000">
        <ele>2935.0</ele>
        <time>2018-09-01T12:45:13Z</time>
      </trkpt>
      <trkpt lat="40.459167" lon="-5.258917">
        <ele>2932.0</ele>
        <time>2018-09-01T12:45:14Z</time>
      </trkpt>
      <trkpt lat="40.459233" lon="-5.258800">
        <ele>2930.0</ele>
        <time>2018-09-01T12:45:15Z</time>
      </trkpt>
      <trkpt lat="40.459283" lon="-5.258700">
        <ele>2927.0</ele>
        <time>2018-09-01T12:45:16Z</time>
      </trkpt>
      <trkpt lat="40.459350" lon="-5.258600">
        <ele>2925.0</ele>
        <time>2018-09-01T12:45:17Z</time>
      </trkpt>
      <trkpt lat="40.459417" lon="-5.258500">
        <ele>2922.0</ele>
        <time>2018-09-01T12:45:18Z</time>
      </trkpt>
      <trkpt lat="40.459483" lon="-5.258400">
        <ele>2919.0</ele>
        <time>2018-09-01T12:45:19Z</time>
      </trkpt>
      <trkpt lat="40.459533" lon="-5.258283">
        <ele>2916.0</ele>
        <time>2018-09-01T12:45:20Z</time>
      </trkpt>
      <trkpt lat="40.459600" lon="-5.258183">
        <ele>2914.0</ele>
        <time>2018-09-01T12:45:21Z</time>
      </trkpt>
      <trkpt lat="40.459667" lon="-5.258083">
        <ele>2912.0</ele>
        <time>2018-09-01T12:45:22Z</time>
      </trkpt>
      <trkpt lat="40.459717" lon="-5.258000">
        <ele>2909.0</ele>
        <time>2018-09-01T12:45:23Z</time>
      </trkpt>
      <trkpt lat="40.459783" lon="-5.257900">
        <ele>2906.0</ele>
        <time>2018-09-01T12:45:24Z</time>
      </trkpt>
      <trkpt lat="40.459850" lon="-5.257817">
        <ele>2904.0</ele>
        <time>2018-09-01T12:45:25Z</time>
      </trkpt>
      <trkpt lat="40.459917" lon="-5.257700">
        <ele>2901.0</ele>
        <time>2018-09-01T12:45:26Z</time>
      </trkpt>
      <trkpt lat="40.459983" lon="-5.257617">
        <ele>2898.0</ele>
        <time>2018-09-01T12:45:27Z</time>
      </trkpt>
      <trkpt lat="40.460050" lon="-5.257533">
        <ele>2896.0</ele>
        <time>2018-09-01T12:45:28Z</time>
      </trkpt>
      <trkpt lat="40.460133" lon="-5.257467">
        <ele>2893.0</ele>
        <time>2018-09-01T12:45:29Z</time>
      </trkpt>
      <trkpt lat="40.460217" lon="-5.257383">
        <ele>2890.0</ele>
        <time>2018-09-01T12:45:30Z</time>
      </trkpt>
      <trkpt lat="40.460300" lon="-5.257317">
        <ele>2886.0</ele>
        <time>2018-09-01T12:45:31Z</time>
      </trkpt>
      <trkpt lat="40.460383" lon="-5.257217">
        <ele>2883.0</ele>
        <time>2018-09-01T12:45:32Z</time>
      </trkpt>
      <trkpt lat="40.460450" lon="-5.257133">
        <ele>2880.0</ele>
        <time>2018-09-01T12:45:33Z</time>
      </trkpt>
      <trkpt lat="40.460533" lon="-5.257050">
        <ele>2878.0</ele>
        <time>2018-09-01T12:45:34Z</time>
      </trkpt>
      <trkpt lat="40.460617" lon="-5.256967">
        <ele>2876.0</ele>
        <time>2018-09-01T12:45:35Z</time>
      </trkpt>
      <trkpt lat="40.460700" lon="-5.256900">
        <ele>2873.0</ele>
        <time>2018-09-01T12:45:36Z</time>
      </trkpt>
      <trkpt lat="40.460800" lon="-5.256800">
        <ele>2870.0</ele>
        <time>2018-09-01T12:45:37Z</time>
      </trkpt>
      <trkpt lat="40.460883" lon="-5.256717">
        <ele>2867.0</ele>
        <time>2018-09-01T12:45:38Z</time>
      </trkpt>
      <trkpt lat="40.460967" lon="-5.256617">
        <ele>2866.0</ele>
        <time>2018-09-01T12:45:39Z</time>
      </trkpt>
      <trkpt lat="40.461050" lon="-5.256517">
        <ele>2864.0</ele>
        <time>2018-09-01T12:45:40Z</time>
      </trkpt>
      <trkpt lat="40.461133" lon="-5.256417">
        <ele>2863.0</ele>
        <time>2018-09-01T12:45:41Z</time>
      </trkpt>
      <trkpt lat="40.461200" lon="-5.256317">
        <ele>2862.0</ele>
        <time>2018-09-01T12:45:42Z</time>
      </trkpt>
      <trkpt lat="40.461267" lon="-5.256200">
        <ele>2860.0</ele>
        <time>2018-09-01T12:45:43Z</time>
      </trkpt>
      <trkpt lat="40.461333" lon="-5.256083">
        <ele>2858.0</ele>
        <time>2018-09-01T12:45:44Z</time>
      </trkpt>
      <trkpt lat="40.461400" lon="-5.255967">
        <ele>2857.0</ele>
        <time>2018-09-01T12:45:45Z</time>
      </trkpt>
      <trkpt lat="40.461467" lon="-5.255850">
        <ele>2857.0</ele>
        <time>2018-09-01T12:45:46Z</time>
      </trkpt>
      <trkpt lat="40.461533" lon="-5.255750">
        <ele>2857.0</ele>
        <time>2018-09-01T12:45:47Z</time>
      </trkpt>
      <trkpt lat="40.461600" lon="-5.255650">
        <ele>2856.0</ele>
        <time>2018-09-01T12:45:48Z</time>
      </trkpt>
      <trkpt lat="40.461667" lon="-5.255567">
        <ele>2854.0</ele>
        <time>2018-09-01T12:45:49Z</time>
      </trkpt>
      <trkpt lat="40.461750" lon="-5.255467">
        <ele>2852.0</ele>
        <time>2018-09-01T12:45:50Z</time>
      </trkpt>
      <trkpt lat="40.461833" lon="-5.255367">
        <ele>2850.0</ele>
        <time>2018-09-01T12:45:51Z</time>
      </trkpt>
      <trkpt lat="40.461917" lon="-5.255250">
        <ele>2847.0</ele>
        <time>2018-09-01T12:45:52Z</time>
      </trkpt>
      <trkpt lat="40.461983" lon="-5.255133">
        <ele>2845.0</ele>
        <time>2018-09-01T12:45:53Z</time>
      </trkpt>
      <trkpt lat="40.462050" lon="-5.255017">
        <ele>2844.0</ele>
        <time>2018-09-01T12:45:54Z</time>
      </trkpt>
      <trkpt lat="40.462133" lon="-5.254883">
        <ele>2842.0</ele>
        <time>2018-09-01T12:45:55Z</time>
      </trkpt>
      <trkpt lat="40.462200" lon="-5.254767">
        <ele>2840.0</ele>
        <time>2018-09-01T12:45:56Z</time>
      </trkpt>
      <trkpt lat="40.462283" lon="-5.254650">
        <ele>2839.0</ele>
        <time>2018-09-01T12:45:57Z</time>
      </trkpt>
      <trkpt lat="40.462350" lon="-5.254550">
        <ele>2839.0</ele>
        <time>2018-09-01T12:45:58Z</time>
      </trkpt>
      <trkpt lat="40.462417" lon="-5.254450">
        <ele>2838.0</ele>
        <time>2018-09-01T12:45:59Z</time>
      </trkpt>
      <trkpt lat="40.462483" lon="-5.254350">
        <ele>2837.0</ele>
        <time>2018-09-01T12:46:00Z</time>
      </trkpt>
      <trkpt lat="40.462550" lon="-5.254250">
        <ele>2836.0</ele>
        <time>2018-09-01T12:46:01Z</time>
      </trkpt>
      <trkpt lat="40.462617" lon="-5.254150">
        <ele>2834.0</ele>
        <time>2018-09-01T12:46:02Z</time>
      </trkpt>
      <trkpt lat="40.462700" lon="-5.254033">
        <ele>2831.0</ele>
        <time>2018-09-01T12:46:03Z</time>
      </trkpt>
      <trkpt lat="40.462783" lon="-5.253917">
        <ele>2829.0</ele>
        <time>2018-09-01T12:46:04Z</time>
      </trkpt>
      <trkpt lat="40.462867" lon="-5.253800">
        <ele>2828.0</ele>
        <time>2018-09-01T12:46:05Z</time>
      </trkpt>
      <trkpt lat="40.462933" lon="-5.253667">
        <ele>2828.0</ele>
        <time>2018-09-01T12:46:06Z</time>
      </trkpt>
      <trkpt lat="40.463000" lon="-5.253533">
        <ele>2828.0</ele>
        <time>2018-09-01T12:46:07Z</time>
      </trkpt>
      <trkpt lat="40.463067" lon="-5.253417">
        <ele>2828.0</ele>
        <time>2018-09-01T12:46:08Z</time>
      </trkpt>
      <trkpt lat="40.463133" lon="-5.253283">
        <ele>2827.0</ele>
        <time>2018-09-01T12:46:09Z</time>
      </trkpt>
      <trkpt lat="40.463200" lon="-5.253150">
        <ele>2827.0</ele>
        <time>2018-09-01T12:46:10Z</time>
      </trkpt>
      <trkpt lat="40.463267" lon="-5.253017">
        <ele>2826.0</ele>
        <time>2018-09-01T12:46:11Z</time>
      </trkpt>
      <trkpt lat="40.463333" lon="-5.252867">
        <ele>2826.0</ele>
        <time>2018-09-01T12:46:12Z</time>
      </trkpt>
      <trkpt lat="40.463400" lon="-5.252733">
        <ele>2826.0</ele>
        <time>2018-09-01T12:46:13Z</time>
      </trkpt>
      <trkpt lat="40.463467" lon="-5.252633">
        <ele>2827.0</ele>
        <time>2018-09-01T12:46:14Z</time>
      </trkpt>
      <trkpt lat="40.463550" lon="-5.252533">
        <ele>2827.0</ele>
        <time>2018-09-01T12:46:15Z</time>
      </trkpt>
      <trkpt lat="40.463617" lon="-5.252433">
        <ele>2826.0</ele>
        <time>2018-09-01T12:46:16Z</time>
      </trkpt>
      <trkpt lat="40.463700" lon="-5.252317">
        <ele>2825.0</ele>
        <time>2018-09-01T12:46:17Z</time>
      </trkpt>
      <trkpt lat="40.463783" lon="-5.252200">
        <ele>2823.0</ele>
        <time>2018-09-01T12:46:18Z</time>
      </trkpt>
      <trkpt lat="40.463883" lon="-5.252083">
        <ele>2822.0</ele>
        <time>2018-09-01T12:46:19Z</time>
      </trkpt>
      <trkpt lat="40.463967" lon="-5.251933">
        <ele>2823.0</ele>
        <time>2018-09-01T12:46:20Z</time>
      </trkpt>
      <trkpt lat="40.464033" lon="-5.251800">
        <ele>2824.0</ele>
        <time>2018-09-01T12:46:21Z</time>
      </trkpt>
      <trkpt lat="40.464100" lon="-5.251667">
        <ele>2825.0</ele>
        <time>2018-09-01T12:46:22Z</time>
      </trkpt>
      <trkpt lat="40.464167" lon="-5.251550">
        <ele>2825.0</ele>
        <time>2018-09-01T12:46:23Z</time>
      </trkpt>
      <trkpt lat="40.464233" lon="-5.251433">
        <ele>2824.0</ele>
        <time>2018-09-01T12:46:24Z</time>
      </trkpt>
      <trkpt lat="40.464317" lon="-5.251317">
        <ele>2823.0</ele>
        <time>2018-09-01T12:46:25Z</time>
      </trkpt>
      <trkpt lat="40.464400" lon="-5.251200">
        <ele>2822.0</ele>
        <time>2018-09-01T12:46:26Z</time>
      </trkpt>
      <trkpt lat="40.464483" lon="-5.251083">
        <ele>2820.0</ele>
        <time>2018-09-01T12:46:27Z</time>
      </trkpt>
      <trkpt lat="40.464567" lon="-5.250967">
        <ele>2820.0</ele>
        <time>2018-09-01T12:46:28Z</time>
      </trkpt>
      <trkpt lat="40.464650" lon="-5.250867">
        <ele>2819.0</ele>
        <time>2018-09-01T12:46:29Z</time>
      </trkpt>
      <trkpt lat="40.464750" lon="-5.250783">
        <ele>2819.0</ele>
        <time>2018-09-01T12:46:30Z</time>
      </trkpt>
      <trkpt lat="40.464833" lon="-5.250683">
        <ele>2819.0</ele>
        <time>2018-09-01T12:46:31Z</time>
      </trkpt>
      <trkpt lat="40.464917" lon="-5.250600">
        <ele>2818.0</ele>
        <time>2018-09-01T12:46:32Z</time>
      </trkpt>
      <trkpt lat="40.465000" lon="-5.250483">
        <ele>2817.0</ele>
        <time>2018-09-01T12:46:33Z</time>
      </trkpt>
      <trkpt lat="40.465083" lon="-5.250383">
        <ele>2816.0</ele>
        <time>2018-09-01T12:46:34Z</time>
      </trkpt>
      <trkpt lat="40.465167" lon="-5.250283">
        <ele>2816.0</ele>
        <time>2018-09-01T12:46:35Z</time>
      </trkpt>
      <trkpt lat="40.465233" lon="-5.250183">
        <ele>2815.0</ele>
        <time>2018-09-01T12:46:36Z</time>
      </trkpt>
      <trkpt lat="40.465317" lon="-5.250067">
        <ele>2815.0</ele>
        <time>2018-09-01T12:46:37Z</time>
      </trkpt>
      <trkpt lat="40.465383" lon="-5.249967">
        <ele>2813.0</ele>
        <time>2018-09-01T12:46:38Z</time>
      </trkpt>
      <trkpt lat="40.465467" lon="-5.249850">
        <ele>2812.0</ele>
        <time>2018-09-01T12:46:39Z</time>
      </trkpt>
      <trkpt lat="40.465550" lon="-5.249750">
        <ele>2811.0</ele>
        <time>2018-09-01T12:46:40Z</time>
      </trkpt>
      <trkpt lat="40.465650" lon="-5.249633">
        <ele>2810.0</ele>
        <time>2018-09-01T12:46:41Z</time>
      </trkpt>
      <trkpt lat="40.465733" lon="-5.249533">
        <ele>2810.0</ele>
        <time>2018-09-01T12:46:42Z</time>
      </trkpt>
      <trkpt lat="40.465800" lon="-5.249417">
        <ele>2810.0</ele>
        <time>2018-09-01T12:46:43Z</time>
      </trkpt>
      <trkpt lat="40.465883" lon="-5.249317">
        <ele>2811.0</ele>
        <time>2018-09-01T12:46:44Z</time>
      </trkpt>
      <trkpt lat="40.465950" lon="-5.249200">
        <ele>2811.0</ele>
        <time>2018-09-01T12:46:45Z</time>
      </trkpt>
      <trkpt lat="40.466017" lon="-5.249083">
        <ele>2811.0</ele>
        <time>2018-09-01T12:46:46Z</time>
      </trkpt>
      <trkpt lat="40.466100" lon="-5.248983">
        <ele>2810.0</ele>
        <time>2018-09-01T12:46:47Z</time>
      </trkpt>
      <trkpt lat="40.466183" lon="-5.248900">
        <ele>2809.0</ele>
        <time>2018-09-01T12:46:48Z</time>
      </trkpt>
      <trkpt lat="40.466300" lon="-5.248833">
        <ele>2807.0</ele>
        <time>2018-09-01T12:46:49Z</time>
      </trkpt>
      <trkpt lat="40.466400" lon="-5.248767">
        <ele>2806.0</ele>
        <time>2018-09-01T12:46:50Z</time>
      </trkpt>
      <trkpt lat="40.466500" lon="-5.248733">
        <ele>2805.0</ele>
        <time>2018-09-01T12:46:51Z</time>
      </trkpt>
      <trkpt lat="40.466600" lon="-5.248683">
        <ele>2805.0</ele>
        <time>2018-09-01T12:46:52Z</time>
      </trkpt>
      <trkpt lat="40.466683" lon="-5.248650">
        <ele>2804.0</ele>
        <time>2018-09-01T12:46:53Z</time>
      </trkpt>
      <trkpt lat="40.466783" lon="-5.248617">
        <ele>2802.0</ele>
        <time>2018-09-01T12:46:54Z</time>
      </trkpt>
      <trkpt lat="40.466883" lon="-5.248600">
        <ele>2800.0</ele>
        <time>2018-09-01T12:46:55Z</time>
      </trkpt>
      <trkpt lat="40.466983" lon="-5.248567">
        <ele>2799.0</ele>
        <time>2018-09-01T12:46:56Z</time>
      </trkpt>
      <trkpt lat="40.467100" lon="-5.248533">
        <ele>2798.0</ele>
        <time>2018-09-01T12:46:57Z</time>
      </trkpt>
      <trkpt lat="40.467200" lon="-5.248467">
        <ele>2798.0</ele>
        <time>2018-09-01T12:46:58Z</time>
      </trkpt>
      <trkpt lat="40.467283" lon="-5.248383">
        <ele>2798.0</ele>
        <time>2018-09-01T12:46:59Z</time>
      </trkpt>
      <trkpt lat="40.467367" lon="-5.248300">
        <ele>2798.0</ele>
        <time>2018-09-01T12:47:00Z</time>
      </trkpt>
      <trkpt lat="40.467450" lon="-5.248200">
        <ele>2798.0</ele>
        <time>2018-09-01T12:47:01Z</time>
      </trkpt>
      <trkpt lat="40.467533" lon="-5.248117">
        <ele>2797.0</ele>
        <time>2018-09-01T12:47:02Z</time>
      </trkpt>
      <trkpt lat="40.467633" lon="-5.248017">
        <ele>2797.0</ele>
        <time>2018-09-01T12:47:03Z</time>
      </trkpt>
      <trkpt lat="40.467717" lon="-5.247917">
        <ele>2796.0</ele>
        <time>2018-09-01T12:47:04Z</time>
      </trkpt>
      <trkpt lat="40.467800" lon="-5.247817">
        <ele>2797.0</ele>
        <time>2018-09-01T12:47:05Z</time>
      </trkpt>
      <trkpt lat="40.467883" lon="-5.247717">
        <ele>2797.0</ele>
        <time>2018-09-01T12:47:06Z</time>
      </trkpt>
      <trkpt lat="40.467967" lon="-5.247600">
        <ele>2797.0</ele>
        <time>2018-09-01T12:47:07Z</time>
      </trkpt>
      <trkpt lat="40.468033" lon="-5.247500">
        <ele>2796.0</ele>
        <time>2018-09-01T12:47:08Z</time>
      </trkpt>
      <trkpt lat="40.468117" lon="-5.247383">
        <ele>2795.0</ele>
        <time>2018-09-01T12:47:09Z</time>
      </trkpt>
      <trkpt lat="40.468200" lon="-5.247283">
        <ele>2793.0</ele>
        <time>2018-09-01T12:47:10Z</time>
      </trkpt>
      <trkpt lat="40.468283" lon="-5.247183">
        <ele>2791.0</ele>
        <time>2018-09-01T12:47:11Z</time>
      </trkpt>
      <trkpt lat="40.468383" lon="-5.247083">
        <ele>2790.0</ele>
        <time>2018-09-01T12:47:12Z</time>
      </trkpt>
      <trkpt lat="40.468467" lon="-5.246983">
        <ele>2790.0</ele>
        <time>2018-09-01T12:47:13Z</time>
      </trkpt>
      <trkpt lat="40.468550" lon="-5.246883">
        <ele>2791.0</ele>
        <time>2018-09-01T12:47:14Z</time>
      </trkpt>
      <trkpt lat="40.468633" lon="-5.246800">
        <ele>2791.0</ele>
        <time>2018-09-01T12:47:15Z</time>
      </trkpt>
      <trkpt lat="40.468717" lon="-5.246700">
        <ele>2791.0</ele>
        <time>2018-09-01T12:47:16Z</time>
      </trkpt>
      <trkpt lat="40.468783" lon="-5.246617">
        <ele>2791.0</ele>
        <time>2018-09-01T12:47:17Z</time>
      </trkpt>
      <trkpt lat="40.468867" lon="-5.246533">
        <ele>2790.0</ele>
        <time>2018-09-01T12:47:18Z</time>
      </trkpt>
      <trkpt lat="40.468950" lon="-5.246450">
        <ele>2789.0</ele>
        <time>2018-09-01T12:47:19Z</time>
      </trkpt>
      <trkpt lat="40.469050" lon="-5.246383">
        <ele>2787.0</ele>
        <time>2018-09-01T12:47:20Z</time>
      </trkpt>
      <trkpt lat="40.469150" lon="-5.246300">
        <ele>2786.0</ele>
        <time>2018-09-01T12:47:21Z</time>
      </trkpt>
      <trkpt lat="40.469250" lon="-5.246233">
        <ele>2786.0</ele>
        <time>2018-09-01T12:47:22Z</time>
      </trkpt>
      <trkpt lat="40.469333" lon="-5.246150">
        <ele>2786.0</ele>
        <time>2018-09-01T12:47:23Z</time>
      </trkpt>
      <trkpt lat="40.469433" lon="-5.246067">
        <ele>2785.0</ele>
        <time>2018-09-01T12:47:24Z</time>
      </trkpt>
      <trkpt lat="40.469517" lon="-5.245983">
        <ele>2784.0</ele>
        <time>2018-09-01T12:47:25Z</time>
      </trkpt>
      <trkpt lat="40.469617" lon="-5.245900">
        <ele>2782.0</ele>
        <time>2018-09-01T12:47:26Z</time>
      </trkpt>
      <trkpt lat="40.469717" lon="-5.245833">
        <ele>2781.0</ele>
        <time>2018-09-01T12:47:27Z</time>
      </trkpt>
      <trkpt lat="40.469817" lon="-5.245750">
        <ele>2781.0</ele>
        <time>2018-09-01T12:47:28Z</time>
      </trkpt>
      <trkpt lat="40.469917" lon="-5.245700">
        <ele>2781.0</ele>
        <time>2018-09-01T12:47:29Z</time>
      </trkpt>
      <trkpt lat="40.470017" lon="-5.245617">
        <ele>2781.0</ele>
        <time>2018-09-01T12:47:30Z</time>
      </trkpt>
      <trkpt lat="40.470117" lon="-5.245517">
        <ele>2781.0</ele>
        <time>2018-09-01T12:47:31Z</time>
      </trkpt>
      <trkpt lat="40.470217" lon="-5.245433">
        <ele>2780.0</ele>
        <time>2018-09-01T12:47:32Z</time>
      </trkpt>
      <trkpt lat="40.470300" lon="-5.245350">
        <ele>2780.0</ele>
        <time>2018-09-01T12:47:33Z</time>
      </trkpt>
      <trkpt lat="40.470417" lon="-5.245283">
        <ele>2779.0</ele>
        <time>2018-09-01T12:47:34Z</time>
      </trkpt>
      <trkpt lat="40.470517" lon="-5.245200">
        <ele>2779.0</ele>
        <time>2018-09-01T12:47:35Z</time>
      </trkpt>
      <trkpt lat="40.470617" lon="-5.245117">
        <ele>2779.0</ele>
        <time>2018-09-01T12:47:36Z</time>
      </trkpt>
      <trkpt lat="40.470717" lon="-5.245017">
        <ele>2779.0</ele>
        <time>2018-09-01T12:47:37Z</time>
      </trkpt>
      <trkpt lat="40.470800" lon="-5.244933">
        <ele>2780.0</ele>
        <time>2018-09-01T12:47:38Z</time>
      </trkpt>
      <trkpt lat="40.470900" lon="-5.244850">
        <ele>2780.0</ele>
        <time>2018-09-01T12:47:39Z</time>
      </trkpt>
      <trkpt lat="40.470983" lon="-5.244783">
        <ele>2781.0</ele>
        <time>2018-09-01T12:47:40Z</time>
      </trkpt>
      <trkpt lat="40.471067" lon="-5.244733">
        <ele>2781.0</ele>
        <time>2018-09-01T12:47:41Z</time>
      </trkpt>
      <trkpt lat="40.471150" lon="-5.244650">
        <ele>2780.0</ele>
        <time>2018-09-01T12:47:42Z</time>
      </trkpt>
      <trkpt lat="40.471250" lon="-5.244583">
        <ele>2778.0</ele>
        <time>2018-09-01T12:47:43Z</time>
      </trkpt>
      <trkpt lat="40.471350" lon="-5.244500">
        <ele>2776.0</ele>
        <time>2018-09-01T12:47:44Z</time>
      </trkpt>
      <trkpt lat="40.471450" lon="-5.244417">
        <ele>2775.0</ele>
        <time>2018-09-01T12:47:45Z</time>
      </trkpt>
      <trkpt lat="40.471550" lon="-5.244350">
        <ele>2774.0</ele>
        <time>2018-09-01T12:47:46Z</time>
      </trkpt>
      <trkpt lat="40.471633" lon="-5.244267">
        <ele>2774.0</ele>
        <time>2018-09-01T12:47:47Z</time>
      </trkpt>
      <trkpt lat="40.471733" lon="-5.244183">
        <ele>2774.0</ele>
        <time>2018-09-01T12:47:48Z</time>
      </trkpt>
      <trkpt lat="40.471833" lon="-5.244117">
        <ele>2774.0</ele>
        <time>2018-09-01T12:47:49Z</time>
      </trkpt>
      <trkpt lat="40.471917" lon="-5.244033">
        <ele>2774.0</ele>
        <time>2018-09-01T12:47:50Z</time>
      </trkpt>
      <trkpt lat="40.472017" lon="-5.243983">
        <ele>2774.0</ele>
        <time>2018-09-01T12:47:51Z</time>
      </trkpt>
      <trkpt lat="40.472133" lon="-5.243917">
        <ele>2775.0</ele>
        <time>2018-09-01T12:47:52Z</time>
      </trkpt>
      <trkpt lat="40.472233" lon="-5.243867">
        <ele>2776.0</ele>
        <time>2018-09-01T12:47:53Z</time>
      </trkpt>
      <trkpt lat="40.472317" lon="-5.243817">
        <ele>2777.0</ele>
        <time>2018-09-01T12:47:54Z</time>
      </trkpt>
      <trkpt lat="40.472417" lon="-5.243750">
        <ele>2777.0</ele>
        <time>2018-09-01T12:47:55Z</time>
      </trkpt>
      <trkpt lat="40.472517" lon="-5.243683">
        <ele>2776.0</ele>
        <time>2018-09-01T12:47:56Z</time>
      </trkpt>
      <trkpt lat="40.472600" lon="-5.243617">
        <ele>2775.0</ele>
        <time>2018-09-01T12:47:57Z</time>
      </trkpt>
      <trkpt lat="40.472700" lon="-5.243550">
        <ele>2774.0</ele>
        <time>2018-09-01T12:47:58Z</time>
      </trkpt>
      <trkpt lat="40.472800" lon="-5.243483">
        <ele>2772.0</ele>
        <time>2018-09-01T12:47:59Z</time>
      </trkpt>
      <trkpt lat="40.472883" lon="-5.243433">
        <ele>2771.0</ele>
        <time>2018-09-01T12:48:00Z</time>
      </trkpt>
      <trkpt lat="40.472983" lon="-5.243350">
        <ele>2770.0</ele>
        <time>2018-09-01T12:48:01Z</time>
      </trkpt>
      <trkpt lat="40.473083" lon="-5.243283">
        <ele>2769.0</ele>
        <time>2018-09-01T12:48:02Z</time>
      </trkpt>
      <trkpt lat="40.473167" lon="-5.243200">
        <ele>2769.0</ele>
        <time>2018-09-01T12:48:03Z</time>
      </trkpt>
      <trkpt lat="40.473267" lon="-5.243133">
        <ele>2768.0</ele>
        <time>2018-09-01T12:48:04Z</time>
      </trkpt>
      <trkpt lat="40.473350" lon="-5.243067">
        <ele>2767.0</ele>
        <time>2018-09-01T12:48:05Z</time>
      </trkpt>
      <trkpt lat="40.473433" lon="-5.243000">
        <ele>2764.0</ele>
        <time>2018-09-01T12:48:06Z</time>
      </trkpt>
      <trkpt lat="40.473550" lon="-5.242917">
        <ele>2762.0</ele>
        <time>2018-09-01T12:48:07Z</time>
      </trkpt>
      <trkpt lat="40.473650" lon="-5.242850">
        <ele>2761.0</ele>
        <time>2018-09-01T12:48:08Z</time>
      </trkpt>
      <trkpt lat="40.473767" lon="-5.242767">
        <ele>2760.0</ele>
        <time>2018-09-01T12:48:09Z</time>
      </trkpt>
      <trkpt lat="40.473867" lon="-5.242683">
        <ele>2761.0</ele>
        <time>2018-09-01T12:48:10Z</time>
      </trkpt>
      <trkpt lat="40.473967" lon="-5.242617">
        <ele>2762.0</ele>
        <time>2018-09-01T12:48:11Z</time>
      </trkpt>
      <trkpt lat="40.474067" lon="-5.242550">
        <ele>2764.0</ele>
        <time>2018-09-01T12:48:12Z</time>
      </trkpt>
      <trkpt lat="40.474167" lon="-5.242467">
        <ele>2765.0</ele>
        <time>2018-09-01T12:48:13Z</time>
      </trkpt>
      <trkpt lat="40.474250" lon="-5.242383">
        <ele>2765.0</ele>
        <time>2018-09-01T12:48:14Z</time>
      </trkpt>
      <trkpt lat="40.474350" lon="-5.242317">
        <ele>2766.0</ele>
        <time>2018-09-01T12:48:15Z</time>
      </trkpt>
      <trkpt lat="40.474450" lon="-5.242250">
        <ele>2767.0</ele>
        <time>2018-09-01T12:48:16Z</time>
      </trkpt>
      <trkpt lat="40.474533" lon="-5.242167">
        <ele>2768.0</ele>
        <time>2018-09-01T12:48:17Z</time>
      </trkpt>
      <trkpt lat="40.474633" lon="-5.242083">
        <ele>2770.0</ele>
        <time>2018-09-01T12:48:18Z</time>
      </trkpt>
      <trkpt lat="40.474717" lon="-5.241983">
        <ele>2771.0</ele>
        <time>2018-09-01T12:48:19Z</time>
      </trkpt>
      <trkpt lat="40.474783" lon="-5.241883">
        <ele>2772.0</ele>
        <time>2018-09-01T12:48:20Z</time>
      </trkpt>
      <trkpt lat="40.474867" lon="-5.241800">
        <ele>2773.0</ele>
        <time>2018-09-01T12:48:21Z</time>
      </trkpt>
      <trkpt lat="40.474950" lon="-5.241733">
        <ele>2773.0</ele>
        <time>2018-09-01T12:48:22Z</time>
      </trkpt>
      <trkpt lat="40.475017" lon="-5.241700">
        <ele>2773.0</ele>
        <time>2018-09-01T12:48:23Z</time>
      </trkpt>
      <trkpt lat="40.475083" lon="-5.241683">
        <ele>2772.0</ele>
        <time>2018-09-01T12:48:24Z</time>
      </trkpt>
      <trkpt lat="40.475150" lon="-5.241683">
        <ele>2772.0</ele>
        <time>2018-09-01T12:48:25Z</time>
      </trkpt>
      <trkpt lat="40.475233" lon="-5.241683">
        <ele>2771.0</ele>
        <time>2018-09-01T12:48:26Z</time>
      </trkpt>
      <trkpt lat="40.475300" lon="-5.241700">
        <ele>2770.0</ele>
        <time>2018-09-01T12:48:27Z</time>
      </trkpt>
      <trkpt lat="40.475383" lon="-5.241700">
        <ele>2770.0</ele>
        <time>2018-09-01T12:48:28Z</time>
      </trkpt>
      <trkpt lat="40.475467" lon="-5.241700">
        <ele>2769.0</ele>
        <time>2018-09-01T12:48:29Z</time>
      </trkpt>
      <trkpt lat="40.475567" lon="-5.241683">
        <ele>2769.0</ele>
        <time>2018-09-01T12:48:30Z</time>
      </trkpt>
      <trkpt lat="40.475650" lon="-5.241650">
        <ele>2769.0</ele>
        <time>2018-09-01T12:48:31Z</time>
      </trkpt>
      <trkpt lat="40.475733" lon="-5.241600">
        <ele>2769.0</ele>
        <time>2018-09-01T12:48:32Z</time>
      </trkpt>
      <trkpt lat="40.475817" lon="-5.241550">
        <ele>2769.0</ele>
        <time>2018-09-01T12:48:33Z</time>
      </trkpt>
      <trkpt lat="40.475900" lon="-5.241467">
        <ele>2769.0</ele>
        <time>2018-09-01T12:48:34Z</time>
      </trkpt>
      <trkpt lat="40.476000" lon="-5.241417">
        <ele>2769.0</ele>
        <time>2018-09-01T12:48:35Z</time>
      </trkpt>
      <trkpt lat="40.476083" lon="-5.241350">
        <ele>2769.0</ele>
        <time>2018-09-01T12:48:36Z</time>
      </trkpt>
      <trkpt lat="40.476167" lon="-5.241283">
        <ele>2770.0</ele>
        <time>2018-09-01T12:48:37Z</time>
      </trkpt>
      <trkpt lat="40.476250" lon="-5.241217">
        <ele>2770.0</ele>
        <time>2018-09-01T12:48:38Z</time>
      </trkpt>
      <trkpt lat="40.476333" lon="-5.241100">
        <ele>2770.0</ele>
        <time>2018-09-01T12:48:39Z</time>
      </trkpt>
      <trkpt lat="40.476400" lon="-5.240950">
        <ele>2769.0</ele>
        <time>2018-09-01T12:48:40Z</time>
      </trkpt>
      <trkpt lat="40.476450" lon="-5.240800">
        <ele>2770.0</ele>
        <time>2018-09-01T12:48:41Z</time>
      </trkpt>
      <trkpt lat="40.476467" lon="-5.240617">
        <ele>2770.0</ele>
        <time>2018-09-01T12:48:42Z</time>
      </trkpt>
      <trkpt lat="40.476467" lon="-5.240450">
        <ele>2771.0</ele>
        <time>2018-09-01T12:48:43Z</time>
      </trkpt>
      <trkpt lat="40.476467" lon="-5.240267">
        <ele>2772.0</ele>
        <time>2018-09-01T12:48:44Z</time>
      </trkpt>
      <trkpt lat="40.476483" lon="-5.240100">
        <ele>2773.0</ele>
        <time>2018-09-01T12:48:45Z</time>
      </trkpt>
      <trkpt lat="40.476517" lon="-5.239933">
        <ele>2774.0</ele>
        <time>2018-09-01T12:48:46Z</time>
      </trkpt>
      <trkpt lat="40.476583" lon="-5.239800">
        <ele>2773.0</ele>
        <time>2018-09-01T12:48:47Z</time>
      </trkpt>
      <trkpt lat="40.476683" lon="-5.239700">
        <ele>2773.0</ele>
        <time>2018-09-01T12:48:48Z</time>
      </trkpt>
      <trkpt lat="40.476783" lon="-5.239633">
        <ele>2774.0</ele>
        <time>2018-09-01T12:48:49Z</time>
      </trkpt>
      <trkpt lat="40.476883" lon="-5.239633">
        <ele>2776.0</ele>
        <time>2018-09-01T12:48:50Z</time>
      </trkpt>
      <trkpt lat="40.476967" lon="-5.239667">
        <ele>2778.0</ele>
        <time>2018-09-01T12:48:51Z</time>
      </trkpt>
      <trkpt lat="40.477017" lon="-5.239733">
        <ele>2780.0</ele>
        <time>2018-09-01T12:48:52Z</time>
      </trkpt>
      <trkpt lat="40.477033" lon="-5.239817">
        <ele>2781.0</ele>
        <time>2018-09-01T12:48:53Z</time>
      </trkpt>
      <trkpt lat="40.477017" lon="-5.239900">
        <ele>2781.0</ele>
        <time>2018-09-01T12:48:54Z</time>
      </trkpt>
      <trkpt lat="40.476967" lon="-5.239983">
        <ele>2782.0</ele>
        <time>2018-09-01T12:48:55Z</time>
      </trkpt>
      <trkpt lat="40.476900" lon="-5.240033">
        <ele>2783.0</ele>
        <time>2018-09-01T12:48:56Z</time>
      </trkpt>
      <trkpt lat="40.476800" lon="-5.240033">
        <ele>2784.0</ele>
        <time>2018-09-01T12:48:57Z</time>
      </trkpt>
      <trkpt lat="40.476700" lon="-5.240017">
        <ele>2786.0</ele>
        <time>2018-09-01T12:48:58Z</time>
      </trkpt>
      <trkpt lat="40.476600" lon="-5.239967">
        <ele>2787.0</ele>
        <time>2018-09-01T12:48:59Z</time>
      </trkpt>
      <trkpt lat="40.476517" lon="-5.239883">
        <ele>2788.0</ele>
        <time>2018-09-01T12:49:00Z</time>
      </trkpt>
      <trkpt lat="40.476417" lon="-5.239767">
        <ele>2788.0</ele>
        <time>2018-09-01T12:49:01Z</time>
      </trkpt>
      <trkpt lat="40.476333" lon="-5.239617">
        <ele>2788.0</ele>
        <time>2018-09-01T12:49:02Z</time>
      </trkpt>
      <trkpt lat="40.476283" lon="-5.239433">
        <ele>2788.0</ele>
        <time>2018-09-01T12:49:03Z</time>
      </trkpt>
      <trkpt lat="40.476267" lon="-5.239250">
        <ele>2788.0</ele>
        <time>2018-09-01T12:49:04Z</time>
      </trkpt>
      <trkpt lat="40.476283" lon="-5.239067">
        <ele>2788.0</ele>
        <time>2018-09-01T12:49:05Z</time>
      </trkpt>
      <trkpt lat="40.476333" lon="-5.238900">
        <ele>2789.0</ele>
        <time>2018-09-01T12:49:06Z</time>
      </trkpt>
      <trkpt lat="40.476400" lon="-5.238767">
        <ele>2791.0</ele>
        <time>2018-09-01T12:49:07Z</time>
      </trkpt>
      <trkpt lat="40.476467" lon="-5.238650">
        <ele>2792.0</ele>
        <time>2018-09-01T12:49:08Z</time>
      </trkpt>
      <trkpt lat="40.476550" lon="-5.238567">
        <ele>2794.0</ele>
        <time>2018-09-01T12:49:09Z</time>
      </trkpt>
      <trkpt lat="40.476633" lon="-5.238500">
        <ele>2794.0</ele>
        <time>2018-09-01T12:49:10Z</time>
      </trkpt>
      <trkpt lat="40.476733" lon="-5.238450">
        <ele>2795.0</ele>
        <time>2018-09-01T12:49:11Z</time>
      </trkpt>
      <trkpt lat="40.476817" lon="-5.238450">
        <ele>2796.0</ele>
        <time>2018-09-01T12:49:12Z</time>
      </trkpt>
      <trkpt lat="40.476883" lon="-5.238500">
        <ele>2796.0</ele>
        <time>2018-09-01T12:49:13Z</time>
      </trkpt>
      <trkpt lat="40.476950" lon="-5.238567">
        <ele>2796.0</ele>
        <time>2018-09-01T12:49:14Z</time>
      </trkpt>
      <trkpt lat="40.476967" lon="-5.238650">
        <ele>2797.0</ele>
        <time>2018-09-01T12:49:15Z</time>
      </trkpt>
      <trkpt lat="40.476950" lon="-5.238733">
        <ele>2798.0</ele>
        <time>2018-09-01T12:49:16Z</time>
      </trkpt>
      <trkpt lat="40.476917" lon="-5.238800">
        <ele>2799.0</ele>
        <time>2018-09-01T12:49:17Z</time>
      </trkpt>
      <trkpt lat="40.476850" lon="-5.238850">
        <ele>2800.0</ele>
        <time>2018-09-01T12:49:18Z</time>
      </trkpt>
      <trkpt lat="40.476767" lon="-5.238867">
        <ele>2801.0</ele>
        <time>2018-09-01T12:49:19Z</time>
      </trkpt>
      <trkpt lat="40.476667" lon="-5.238850">
        <ele>2802.0</ele>
        <time>2018-09-01T12:49:20Z</time>
      </trkpt>
      <trkpt lat="40.476550" lon="-5.238800">
        <ele>2803.0</ele>
        <time>2018-09-01T12:49:21Z</time>
      </trkpt>
      <trkpt lat="40.476450" lon="-5.238700">
        <ele>2803.0</ele>
        <time>2018-09-01T12:49:22Z</time>
      </trkpt>
      <trkpt lat="40.476367" lon="-5.238583">
        <ele>2804.0</ele>
        <time>2018-09-01T12:49:23Z</time>
      </trkpt>
      <trkpt lat="40.476300" lon="-5.238417">
        <ele>2805.0</ele>
        <time>2018-09-01T12:49:24Z</time>
      </trkpt>
      <trkpt lat="40.476250" lon="-5.238250">
        <ele>2805.0</ele>
        <time>2018-09-01T12:49:25Z</time>
      </trkpt>
      <trkpt lat="40.476233" lon="-5.238050">
        <ele>2805.0</ele>
        <time>2018-09-01T12:49:26Z</time>
      </trkpt>
      <trkpt lat="40.476250" lon="-5.237867">
        <ele>2805.0</ele>
        <time>2018-09-01T12:49:27Z</time>
      </trkpt>
      <trkpt lat="40.476283" lon="-5.237683">
        <ele>2805.0</ele>
        <time>2018-09-01T12:49:28Z</time>
      </trkpt>
      <trkpt lat="40.476333" lon="-5.237517">
        <ele>2807.0</ele>
        <time>2018-09-01T12:49:29Z</time>
      </trkpt>
      <trkpt lat="40.476383" lon="-5.237383">
        <ele>2807.0</ele>
        <time>2018-09-01T12:49:30Z</time>
      </trkpt>
      <trkpt lat="40.476450" lon="-5.237250">
        <ele>2808.0</ele>
        <time>2018-09-01T12:49:31Z</time>
      </trkpt>
      <trkpt lat="40.476533" lon="-5.237133">
        <ele>2809.0</ele>
        <time>2018-09-01T12:49:32Z</time>
      </trkpt>
      <trkpt lat="40.476617" lon="-5.237017">
        <ele>2810.0</ele>
        <time>2018-09-01T12:49:33Z</time>
      </trkpt>
      <trkpt lat="40.476700" lon="-5.236917">
        <ele>2811.0</ele>
        <time>2018-09-01T12:49:34Z</time>
      </trkpt>
      <trkpt lat="40.476800" lon="-5.236817">
        <ele>2812.0</ele>
        <time>2018-09-01T12:49:35Z</time>
      </trkpt>
      <trkpt lat="40.476900" lon="-5.236717">
        <ele>2813.0</ele>
        <time>2018-09-01T12:49:36Z</time>
      </trkpt>
      <trkpt lat="40.477000" lon="-5.236633">
        <ele>2814.0</ele>
        <time>2018-09-01T12:49:37Z</time>
      </trkpt>
      <trkpt lat="40.477083" lon="-5.236517">
        <ele>2815.0</ele>
        <time>2018-09-01T12:49:38Z</time>
      </trkpt>
      <trkpt lat="40.477150" lon="-5.236367">
        <ele>2816.0</ele>
        <time>2018-09-01T12:49:39Z</time>
      </trkpt>
      <trkpt lat="40.477217" lon="-5.236217">
        <ele>2817.0</ele>
        <time>2018-09-01T12:49:40Z</time>
      </trkpt>
      <trkpt lat="40.477250" lon="-5.236050">
        <ele>2818.0</ele>
        <time>2018-09-01T12:49:41Z</time>
      </trkpt>
      <trkpt lat="40.477267" lon="-5.235883">
        <ele>2818.0</ele>
        <time>2018-09-01T12:49:42Z</time>
      </trkpt>
      <trkpt lat="40.477250" lon="-5.235717">
        <ele>2818.0</ele>
        <time>2018-09-01T12:49:43Z</time>
      </trkpt>
      <trkpt lat="40.477200" lon="-5.235550">
        <ele>2817.0</ele>
        <time>2018-09-01T12:49:44Z</time>
      </trkpt>
      <trkpt lat="40.477117" lon="-5.235400">
        <ele>2816.0</ele>
        <time>2018-09-01T12:49:45Z</time>
      </trkpt>
      <trkpt lat="40.477033" lon="-5.235283">
        <ele>2815.0</ele>
        <time>2018-09-01T12:49:46Z</time>
      </trkpt>
      <trkpt lat="40.476933" lon="-5.235217">
        <ele>2814.0</ele>
        <time>2018-09-01T12:49:47Z</time>
      </trkpt>
      <trkpt lat="40.476833" lon="-5.235167">
        <ele>2812.0</ele>
        <time>2018-09-01T12:49:48Z</time>
      </trkpt>
      <trkpt lat="40.476733" lon="-5.235167">
        <ele>2809.0</ele>
        <time>2018-09-01T12:49:49Z</time>
      </trkpt>
      <trkpt lat="40.476650" lon="-5.235183">
        <ele>2806.0</ele>
        <time>2018-09-01T12:49:50Z</time>
      </trkpt>
      <trkpt lat="40.476550" lon="-5.235217">
        <ele>2804.0</ele>
        <time>2018-09-01T12:49:51Z</time>
      </trkpt>
      <trkpt lat="40.476467" lon="-5.235267">
        <ele>2803.0</ele>
        <time>2018-09-01T12:49:52Z</time>
      </trkpt>
      <trkpt lat="40.476400" lon="-5.235317">
        <ele>2803.0</ele>
        <time>2018-09-01T12:49:53Z</time>
      </trkpt>
      <trkpt lat="40.476333" lon="-5.235400">
        <ele>2802.0</ele>
        <time>2018-09-01T12:49:54Z</time>
      </trkpt>
      <trkpt lat="40.476300" lon="-5.235483">
        <ele>2803.0</ele>
        <time>2018-09-01T12:49:55Z</time>
      </trkpt>
      <trkpt lat="40.476283" lon="-5.235583">
        <ele>2804.0</ele>
        <time>2018-09-01T12:49:56Z</time>
      </trkpt>
      <trkpt lat="40.476283" lon="-5.235650">
        <ele>2806.0</ele>
        <time>2018-09-01T12:49:57Z</time>
      </trkpt>
      <trkpt lat="40.476283" lon="-5.235717">
        <ele>2808.0</ele>
        <time>2018-09-01T12:49:58Z</time>
      </trkpt>
      <trkpt lat="40.476283" lon="-5.235783">
        <ele>2810.0</ele>
        <time>2018-09-01T12:49:59Z</time>
      </trkpt>
      <trkpt lat="40.476300" lon="-5.235833">
        <ele>2811.0</ele>
        <time>2018-09-01T12:50:00Z</time>
      </trkpt>
      <trkpt lat="40.476317" lon="-5.235900">
        <ele>2811.0</ele>
        <time>2018-09-01T12:50:01Z</time>
      </trkpt>
      <trkpt lat="40.476333" lon="-5.235967">
        <ele>2811.0</ele>
        <time>2018-09-01T12:50:02Z</time>
      </trkpt>
      <trkpt lat="40.476383" lon="-5.236033">
        <ele>2810.0</ele>
        <time>2018-09-01T12:50:03Z</time>
      </trkpt>
      <trkpt lat="40.476433" lon="-5.236100">
        <ele>2810.0</ele>
        <time>2018-09-01T12:50:04Z</time>
      </trkpt>
      <trkpt lat="40.476517" lon="-5.236133">
        <ele>2810.0</ele>
        <time>2018-09-01T12:50:05Z</time>
      </trkpt>
      <trkpt lat="40.476617" lon="-5.236150">
        <ele>2811.0</ele>
        <time>2018-09-01T12:50:06Z</time>
      </trkpt>
      <trkpt lat="40.476733" lon="-5.236133">
        <ele>2813.0</ele>
        <time>2018-09-01T12:50:07Z</time>
      </trkpt>
      <trkpt lat="40.476817" lon="-5.236100">
        <ele>2815.0</ele>
        <time>2018-09-01T12:50:08Z</time>
      </trkpt>
      <trkpt lat="40.476917" lon="-5.236067">
        <ele>2816.0</ele>
        <time>2018-09-01T12:50:09Z</time>
      </trkpt>
      <trkpt lat="40.477017" lon="-5.236017">
        <ele>2816.0</ele>
        <time>2018-09-01T12:50:10Z</time>
      </trkpt>
      <trkpt lat="40.477133" lon="-5.235933">
        <ele>2816.0</ele>
        <time>2018-09-01T12:50:11Z</time>
      </trkpt>
      <trkpt lat="40.477233" lon="-5.235850">
        <ele>2816.0</ele>
        <time>2018-09-01T12:50:12Z</time>
      </trkpt>
      <trkpt lat="40.477350" lon="-5.235750">
        <ele>2816.0</ele>
        <time>2018-09-01T12:50:13Z</time>
      </trkpt>
      <trkpt lat="40.477450" lon="-5.235650">
        <ele>2817.0</ele>
        <time>2018-09-01T12:50:14Z</time>
      </trkpt>
      <trkpt lat="40.477550" lon="-5.235583">
        <ele>2819.0</ele>
        <time>2018-09-01T12:50:15Z</time>
      </trkpt>
      <trkpt lat="40.477667" lon="-5.235517">
        <ele>2820.0</ele>
        <time>2018-09-01T12:50:16Z</time>
      </trkpt>
      <trkpt lat="40.477767" lon="-5.235433">
        <ele>2821.0</ele>
        <time>2018-09-01T12:50:17Z</time>
      </trkpt>
      <trkpt lat="40.477867" lon="-5.235367">
        <ele>2823.0</ele>
        <time>2018-09-01T12:50:18Z</time>
      </trkpt>
      <trkpt lat="40.477983" lon="-5.235317">
        <ele>2824.0</ele>
        <time>2018-09-01T12:50:19Z</time>
      </trkpt>
      <trkpt lat="40.478083" lon="-5.235267">
        <ele>2825.0</ele>
        <time>2018-09-01T12:50:20Z</time>
      </trkpt>
      <trkpt lat="40.478183" lon="-5.235217">
        <ele>2827.0</ele>
        <time>2018-09-01T12:50:21Z</time>
      </trkpt>
      <trkpt lat="40.478300" lon="-5.235167">
        <ele>2828.0</ele>
        <time>2018-09-01T12:50:22Z</time>
      </trkpt>
      <trkpt lat="40.478400" lon="-5.235117">
        <ele>2829.0</ele>
        <time>2018-09-01T12:50:23Z</time>
      </trkpt>
      <trkpt lat="40.478500" lon="-5.235100">
        <ele>2830.0</ele>
        <time>2018-09-01T12:50:24Z</time>
      </trkpt>
      <trkpt lat="40.478583" lon="-5.235100">
        <ele>2831.0</ele>
        <time>2018-09-01T12:50:25Z</time>
      </trkpt>
      <trkpt lat="40.478667" lon="-5.235133">
        <ele>2831.0</ele>
        <time>2018-09-01T12:50:26Z</time>
      </trkpt>
      <trkpt lat="40.478733" lon="-5.235200">
        <ele>2831.0</ele>
        <time>2018-09-01T12:50:27Z</time>
      </trkpt>
      <trkpt lat="40.478767" lon="-5.235283">
        <ele>2832.0</ele>
        <time>2018-09-01T12:50:28Z</time>
      </trkpt>
      <trkpt lat="40.478783" lon="-5.235367">
        <ele>2833.0</ele>
        <time>2018-09-01T12:50:29Z</time>
      </trkpt>
      <trkpt lat="40.478750" lon="-5.235450">
        <ele>2833.0</ele>
        <time>2018-09-01T12:50:30Z</time>
      </trkpt>
      <trkpt lat="40.478683" lon="-5.235500">
        <ele>2834.0</ele>
        <time>2018-09-01T12:50:31Z</time>
      </trkpt>
      <trkpt lat="40.478600" lon="-5.235550">
        <ele>2835.0</ele>
        <time>2018-09-01T12:50:32Z</time>
      </trkpt>
      <trkpt lat="40.478500" lon="-5.235533">
        <ele>2836.0</ele>
        <time>2018-09-01T12:50:33Z</time>
      </trkpt>
      <trkpt lat="40.478383" lon="-5.235467">
        <ele>2838.0</ele>
        <time>2018-09-01T12:50:34Z</time>
      </trkpt>
      <trkpt lat="40.478300" lon="-5.235367">
        <ele>2839.0</ele>
        <time>2018-09-01T12:50:35Z</time>
      </trkpt>
      <trkpt lat="40.478217" lon="-5.235217">
        <ele>2841.0</ele>
        <time>2018-09-01T12:50:36Z</time>
      </trkpt>
      <trkpt lat="40.478183" lon="-5.235050">
        <ele>2842.0</ele>
        <time>2018-09-01T12:50:37Z</time>
      </trkpt>
      <trkpt lat="40.478167" lon="-5.234883">
        <ele>2844.0</ele>
        <time>2018-09-01T12:50:38Z</time>
      </trkpt>
      <trkpt lat="40.478167" lon="-5.234700">
        <ele>2844.0</ele>
        <time>2018-09-01T12:50:39Z</time>
      </trkpt>
      <trkpt lat="40.478200" lon="-5.234533">
        <ele>2844.0</ele>
        <time>2018-09-01T12:50:40Z</time>
      </trkpt>
      <trkpt lat="40.478250" lon="-5.234350">
        <ele>2844.0</ele>
        <time>2018-09-01T12:50:41Z</time>
      </trkpt>
      <trkpt lat="40.478333" lon="-5.234217">
        <ele>2845.0</ele>
        <time>2018-09-01T12:50:42Z</time>
      </trkpt>
      <trkpt lat="40.478433" lon="-5.234100">
        <ele>2845.0</ele>
        <time>2018-09-01T12:50:43Z</time>
      </trkpt>
      <trkpt lat="40.478533" lon="-5.234017">
        <ele>2846.0</ele>
        <time>2018-09-01T12:50:44Z</time>
      </trkpt>
      <trkpt lat="40.478633" lon="-5.233983">
        <ele>2846.0</ele>
        <time>2018-09-01T12:50:45Z</time>
      </trkpt>
      <trkpt lat="40.478733" lon="-5.233967">
        <ele>2846.0</ele>
        <time>2018-09-01T12:50:46Z</time>
      </trkpt>
      <trkpt lat="40.478833" lon="-5.233983">
        <ele>2847.0</ele>
        <time>2018-09-01T12:50:47Z</time>
      </trkpt>
      <trkpt lat="40.478900" lon="-5.234017">
        <ele>2848.0</ele>
        <time>2018-09-01T12:50:48Z</time>
      </trkpt>
      <trkpt lat="40.478950" lon="-5.234067">
        <ele>2848.0</ele>
        <time>2018-09-01T12:50:49Z</time>
      </trkpt>
      <trkpt lat="40.478983" lon="-5.234133">
        <ele>2849.0</ele>
        <time>2018-09-01T12:50:50Z</time>
      </trkpt>
      <trkpt lat="40.478967" lon="-5.234217">
        <ele>2849.0</ele>
        <time>2018-09-01T12:50:51Z</time>
      </trkpt>
      <trkpt lat="40.478950" lon="-5.234283">
        <ele>2850.0</ele>
        <time>2018-09-01T12:50:52Z</time>
      </trkpt>
      <trkpt lat="40.478883" lon="-5.234350">
        <ele>2851.0</ele>
        <time>2018-09-01T12:50:53Z</time>
      </trkpt>
      <trkpt lat="40.478817" lon="-5.234383">
        <ele>2854.0</ele>
        <time>2018-09-01T12:50:54Z</time>
      </trkpt>
      <trkpt lat="40.478750" lon="-5.234383">
        <ele>2856.0</ele>
        <time>2018-09-01T12:50:55Z</time>
      </trkpt>
      <trkpt lat="40.478650" lon="-5.234367">
        <ele>2859.0</ele>
        <time>2018-09-01T12:50:56Z</time>
      </trkpt>
      <trkpt lat="40.478567" lon="-5.234300">
        <ele>2859.0</ele>
        <time>2018-09-01T12:50:57Z</time>
      </trkpt>
      <trkpt lat="40.478467" lon="-5.234200">
        <ele>2860.0</ele>
        <time>2018-09-01T12:50:58Z</time>
      </trkpt>
      <trkpt lat="40.478383" lon="-5.234067">
        <ele>2860.0</ele>
        <time>2018-09-01T12:50:59Z</time>
      </trkpt>
      <trkpt lat="40.478317" lon="-5.233900">
        <ele>2861.0</ele>
        <time>2018-09-01T12:51:00Z</time>
      </trkpt>
      <trkpt lat="40.478267" lon="-5.233717">
        <ele>2862.0</ele>
        <time>2018-09-01T12:51:01Z</time>
      </trkpt>
      <trkpt lat="40.478250" lon="-5.233517">
        <ele>2863.0</ele>
        <time>2018-09-01T12:51:02Z</time>
      </trkpt>
      <trkpt lat="40.478250" lon="-5.233333">
        <ele>2865.0</ele>
        <time>2018-09-01T12:51:03Z</time>
      </trkpt>
      <trkpt lat="40.478283" lon="-5.233150">
        <ele>2866.0</ele>
        <time>2018-09-01T12:51:04Z</time>
      </trkpt>
      <trkpt lat="40.478350" lon="-5.232983">
        <ele>2866.0</ele>
        <time>2018-09-01T12:51:05Z</time>
      </trkpt>
      <trkpt lat="40.478433" lon="-5.232850">
        <ele>2866.0</ele>
        <time>2018-09-01T12:51:06Z</time>
      </trkpt>
      <trkpt lat="40.478550" lon="-5.232733">
        <ele>2866.0</ele>
        <time>2018-09-01T12:51:07Z</time>
      </trkpt>
      <trkpt lat="40.478650" lon="-5.232633">
        <ele>2866.0</ele>
        <time>2018-09-01T12:51:08Z</time>
      </trkpt>
      <trkpt lat="40.478767" lon="-5.232583">
        <ele>2866.0</ele>
        <time>2018-09-01T12:51:09Z</time>
      </trkpt>
      <trkpt lat="40.478867" lon="-5.232567">
        <ele>2867.0</ele>
        <time>2018-09-01T12:51:10Z</time>
      </trkpt>
      <trkpt lat="40.478950" lon="-5.232583">
        <ele>2866.0</ele>
        <time>2018-09-01T12:51:11Z</time>
      </trkpt>
      <trkpt lat="40.479017" lon="-5.232617">
        <ele>2866.0</ele>
        <time>2018-09-01T12:51:12Z</time>
      </trkpt>
      <trkpt lat="40.479067" lon="-5.232700">
        <ele>2865.0</ele>
        <time>2018-09-01T12:51:13Z</time>
      </trkpt>
      <trkpt lat="40.479100" lon="-5.232783">
        <ele>2865.0</ele>
        <time>2018-09-01T12:51:14Z</time>
      </trkpt>
      <trkpt lat="40.479117" lon="-5.232867">
        <ele>2865.0</ele>
        <time>2018-09-01T12:51:15Z</time>
      </trkpt>
      <trkpt lat="40.479117" lon="-5.232950">
        <ele>2866.0</ele>
        <time>2018-09-01T12:51:16Z</time>
      </trkpt>
      <trkpt lat="40.479100" lon="-5.233033">
        <ele>2868.0</ele>
        <time>2018-09-01T12:51:17Z</time>
      </trkpt>
      <trkpt lat="40.479067" lon="-5.233083">
        <ele>2870.0</ele>
        <time>2018-09-01T12:51:18Z</time>
      </trkpt>
      <trkpt lat="40.479033" lon="-5.233133">
        <ele>2872.0</ele>
        <time>2018-09-01T12:51:19Z</time>
      </trkpt>
      <trkpt lat="40.478967" lon="-5.233150">
        <ele>2873.0</ele>
        <time>2018-09-01T12:51:20Z</time>
      </trkpt>
      <trkpt lat="40.478900" lon="-5.233167">
        <ele>2874.0</ele>
        <time>2018-09-01T12:51:21Z</time>
      </trkpt>
      <trkpt lat="40.478817" lon="-5.233167">
        <ele>2875.0</ele>
        <time>2018-09-01T12:51:22Z</time>
      </trkpt>
      <trkpt lat="40.478733" lon="-5.233150">
        <ele>2877.0</ele>
        <time>2018-09-01T12:51:23Z</time>
      </trkpt>
      <trkpt lat="40.478650" lon="-5.233100">
        <ele>2878.0</ele>
        <time>2018-09-01T12:51:24Z</time>
      </trkpt>
      <trkpt lat="40.478550" lon="-5.233017">
        <ele>2878.0</ele>
        <time>2018-09-01T12:51:25Z</time>
      </trkpt>
      <trkpt lat="40.478467" lon="-5.232900">
        <ele>2878.0</ele>
        <time>2018-09-01T12:51:26Z</time>
      </trkpt>
      <trkpt lat="40.478383" lon="-5.232750">
        <ele>2878.0</ele>
        <time>2018-09-01T12:51:27Z</time>
      </trkpt>
      <trkpt lat="40.478300" lon="-5.232583">
        <ele>2878.0</ele>
        <time>2018-09-01T12:51:28Z</time>
      </trkpt>
      <trkpt lat="40.478250" lon="-5.232417">
        <ele>2880.0</ele>
        <time>2018-09-01T12:51:29Z</time>
      </trkpt>
      <trkpt lat="40.478200" lon="-5.232233">
        <ele>2882.0</ele>
        <time>2018-09-01T12:51:30Z</time>
      </trkpt>
      <trkpt lat="40.478183" lon="-5.232050">
        <ele>2884.0</ele>
        <time>2018-09-01T12:51:31Z</time>
      </trkpt>
      <trkpt lat="40.478167" lon="-5.231850">
        <ele>2885.0</ele>
        <time>2018-09-01T12:51:32Z</time>
      </trkpt>
      <trkpt lat="40.478183" lon="-5.231667">
        <ele>2886.0</ele>
        <time>2018-09-01T12:51:33Z</time>
      </trkpt>
      <trkpt lat="40.478217" lon="-5.231467">
        <ele>2887.0</ele>
        <time>2018-09-01T12:51:34Z</time>
      </trkpt>
      <trkpt lat="40.478267" lon="-5.231283">
        <ele>2888.0</ele>
        <time>2018-09-01T12:51:35Z</time>
      </trkpt>
      <trkpt lat="40.478333" lon="-5.231100">
        <ele>2889.0</ele>
        <time>2018-09-01T12:51:36Z</time>
      </trkpt>
      <trkpt lat="40.478400" lon="-5.230950">
        <ele>2890.0</ele>
        <time>2018-09-01T12:51:37Z</time>
      </trkpt>
      <trkpt lat="40.478500" lon="-5.230817">
        <ele>2890.0</ele>
        <time>2018-09-01T12:51:38Z</time>
      </trkpt>
      <trkpt lat="40.478600" lon="-5.230700">
        <ele>2890.0</ele>
        <time>2018-09-01T12:51:39Z</time>
      </trkpt>
      <trkpt lat="40.478700" lon="-5.230617">
        <ele>2890.0</ele>
        <time>2018-09-01T12:51:40Z</time>
      </trkpt>
      <trkpt lat="40.478817" lon="-5.230550">
        <ele>2890.0</ele>
        <time>2018-09-01T12:51:41Z</time>
      </trkpt>
      <trkpt lat="40.478917" lon="-5.230500">
        <ele>2890.0</ele>
        <time>2018-09-01T12:51:42Z</time>
      </trkpt>
      <trkpt lat="40.479017" lon="-5.230467">
        <ele>2890.0</ele>
        <time>2018-09-01T12:51:43Z</time>
      </trkpt>
      <trkpt lat="40.479133" lon="-5.230433">
        <ele>2890.0</ele>
        <time>2018-09-01T12:51:44Z</time>
      </trkpt>
      <trkpt lat="40.479233" lon="-5.230383">
        <ele>2890.0</ele>
        <time>2018-09-01T12:51:45Z</time>
      </trkpt>
      <trkpt lat="40.479350" lon="-5.230317">
        <ele>2888.0</ele>
        <time>2018-09-01T12:51:46Z</time>
      </trkpt>
      <trkpt lat="40.479450" lon="-5.230233">
        <ele>2887.0</ele>
        <time>2018-09-01T12:51:47Z</time>
      </trkpt>
      <trkpt lat="40.479583" lon="-5.230150">
        <ele>2886.0</ele>
        <time>2018-09-01T12:51:48Z</time>
      </trkpt>
      <trkpt lat="40.479700" lon="-5.230083">
        <ele>2886.0</ele>
        <time>2018-09-01T12:51:49Z</time>
      </trkpt>
      <trkpt lat="40.479817" lon="-5.230033">
        <ele>2886.0</ele>
        <time>2018-09-01T12:51:50Z</time>
      </trkpt>
      <trkpt lat="40.479933" lon="-5.229967">
        <ele>2886.0</ele>
        <time>2018-09-01T12:51:51Z</time>
      </trkpt>
      <trkpt lat="40.480050" lon="-5.229917">
        <ele>2885.0</ele>
        <time>2018-09-01T12:51:52Z</time>
      </trkpt>
      <trkpt lat="40.480150" lon="-5.229850">
        <ele>2884.0</ele>
        <time>2018-09-01T12:51:53Z</time>
      </trkpt>
      <trkpt lat="40.480250" lon="-5.229783">
        <ele>2881.0</ele>
        <time>2018-09-01T12:51:54Z</time>
      </trkpt>
      <trkpt lat="40.480350" lon="-5.229717">
        <ele>2878.0</ele>
        <time>2018-09-01T12:51:55Z</time>
      </trkpt>
      <trkpt lat="40.480467" lon="-5.229683">
        <ele>2875.0</ele>
        <time>2018-09-01T12:51:56Z</time>
      </trkpt>
      <trkpt lat="40.480583" lon="-5.229650">
        <ele>2871.0</ele>
        <time>2018-09-01T12:51:57Z</time>
      </trkpt>
      <trkpt lat="40.480717" lon="-5.229633">
        <ele>2867.0</ele>
        <time>2018-09-01T12:51:58Z</time>
      </trkpt>
      <trkpt lat="40.480850" lon="-5.229617">
        <ele>2863.0</ele>
        <time>2018-09-01T12:51:59Z</time>
      </trkpt>
      <trkpt lat="40.480983" lon="-5.229583">
        <ele>2860.0</ele>
        <time>2018-09-01T12:52:00Z</time>
      </trkpt>
      <trkpt lat="40.481100" lon="-5.229550">
        <ele>2857.0</ele>
        <time>2018-09-01T12:52:01Z</time>
      </trkpt>
      <trkpt lat="40.481233" lon="-5.229517">
        <ele>2855.0</ele>
        <time>2018-09-01T12:52:02Z</time>
      </trkpt>
      <trkpt lat="40.481350" lon="-5.229500">
        <ele>2852.0</ele>
        <time>2018-09-01T12:52:03Z</time>
      </trkpt>
      <trkpt lat="40.481467" lon="-5.229483">
        <ele>2849.0</ele>
        <time>2018-09-01T12:52:04Z</time>
      </trkpt>
      <trkpt lat="40.481583" lon="-5.229450">
        <ele>2845.0</ele>
        <time>2018-09-01T12:52:05Z</time>
      </trkpt>
      <trkpt lat="40.481717" lon="-5.229417">
        <ele>2839.0</ele>
        <time>2018-09-01T12:52:06Z</time>
      </trkpt>
      <trkpt lat="40.481867" lon="-5.229400">
        <ele>2834.0</ele>
        <time>2018-09-01T12:52:07Z</time>
      </trkpt>
      <trkpt lat="40.482000" lon="-5.229383">
        <ele>2830.0</ele>
        <time>2018-09-01T12:52:08Z</time>
      </trkpt>
      <trkpt lat="40.482150" lon="-5.229350">
        <ele>2826.0</ele>
        <time>2018-09-01T12:52:09Z</time>
      </trkpt>
      <trkpt lat="40.482283" lon="-5.229333">
        <ele>2822.0</ele>
        <time>2018-09-01T12:52:10Z</time>
      </trkpt>
      <trkpt lat="40.482417" lon="-5.229300">
        <ele>2819.0</ele>
        <time>2018-09-01T12:52:11Z</time>
      </trkpt>
      <trkpt lat="40.482550" lon="-5.229267">
        <ele>2815.0</ele>
        <time>2018-09-01T12:52:12Z</time>
      </trkpt>
      <trkpt lat="40.482683" lon="-5.229233">
        <ele>2811.0</ele>
        <time>2018-09-01T12:52:13Z</time>
      </trkpt>
      <trkpt lat="40.482817" lon="-5.229200">
        <ele>2806.0</ele>
        <time>2018-09-01T12:52:14Z</time>
      </trkpt>
      <trkpt lat="40.482967" lon="-5.229183">
        <ele>2801.0</ele>
        <time>2018-09-01T12:52:15Z</time>
      </trkpt>
      <trkpt lat="40.483100" lon="-5.229150">
        <ele>2798.0</ele>
        <time>2018-09-01T12:52:16Z</time>
      </trkpt>
      <trkpt lat="40.483217" lon="-5.229117">
        <ele>2795.0</ele>
        <time>2018-09-01T12:52:17Z</time>
      </trkpt>
      <trkpt lat="40.483333" lon="-5.229067">
        <ele>2792.0</ele>
        <time>2018-09-01T12:52:18Z</time>
      </trkpt>
      <trkpt lat="40.483450" lon="-5.229033">
        <ele>2787.0</ele>
        <time>2018-09-01T12:52:19Z</time>
      </trkpt>
      <trkpt lat="40.483567" lon="-5.228983">
        <ele>2781.0</ele>
        <time>2018-09-01T12:52:20Z</time>
      </trkpt>
      <trkpt lat="40.483700" lon="-5.228933">
        <ele>2776.0</ele>
        <time>2018-09-01T12:52:21Z</time>
      </trkpt>
      <trkpt lat="40.483833" lon="-5.228867">
        <ele>2771.0</ele>
        <time>2018-09-01T12:52:22Z</time>
      </trkpt>
      <trkpt lat="40.483967" lon="-5.228833">
        <ele>2767.0</ele>
        <time>2018-09-01T12:52:23Z</time>
      </trkpt>
      <trkpt lat="40.484117" lon="-5.228800">
        <ele>2764.0</ele>
        <time>2018-09-01T12:52:24Z</time>
      </trkpt>
      <trkpt lat="40.484250" lon="-5.228767">
        <ele>2762.0</ele>
        <time>2018-09-01T12:52:25Z</time>
      </trkpt>
      <trkpt lat="40.484367" lon="-5.228733">
        <ele>2759.0</ele>
        <time>2018-09-01T12:52:26Z</time>
      </trkpt>
      <trkpt lat="40.484500" lon="-5.228700">
        <ele>2755.0</ele>
        <time>2018-09-01T12:52:27Z</time>
      </trkpt>
      <trkpt lat="40.484617" lon="-5.228650">
        <ele>2751.0</ele>
        <time>2018-09-01T12:52:28Z</time>
      </trkpt>
      <trkpt lat="40.484750" lon="-5.228617">
        <ele>2747.0</ele>
        <time>2018-09-01T12:52:29Z</time>
      </trkpt>
      <trkpt lat="40.484883" lon="-5.228583">
        <ele>2743.0</ele>
        <time>2018-09-01T12:52:30Z</time>
      </trkpt>
      <trkpt lat="40.485000" lon="-5.228533">
        <ele>2739.0</ele>
        <time>2018-09-01T12:52:31Z</time>
      </trkpt>
      <trkpt lat="40.485133" lon="-5.228483">
        <ele>2735.0</ele>
        <time>2018-09-01T12:52:32Z</time>
      </trkpt>
      <trkpt lat="40.485250" lon="-5.228433">
        <ele>2730.0</ele>
        <time>2018-09-01T12:52:33Z</time>
      </trkpt>
      <trkpt lat="40.485367" lon="-5.228383">
        <ele>2725.0</ele>
        <time>2018-09-01T12:52:34Z</time>
      </trkpt>
      <trkpt lat="40.485500" lon="-5.228333">
        <ele>2720.0</ele>
        <time>2018-09-01T12:52:35Z</time>
      </trkpt>
      <trkpt lat="40.485617" lon="-5.228300">
        <ele>2715.0</ele>
        <time>2018-09-01T12:52:36Z</time>
      </trkpt>
      <trkpt lat="40.485750" lon="-5.228250">
        <ele>2710.0</ele>
        <time>2018-09-01T12:52:37Z</time>
      </trkpt>
      <trkpt lat="40.485883" lon="-5.228200">
        <ele>2706.0</ele>
        <time>2018-09-01T12:52:38Z</time>
      </trkpt>
      <trkpt lat="40.486000" lon="-5.228133">
        <ele>2702.0</ele>
        <time>2018-09-01T12:52:39Z</time>
      </trkpt>
      <trkpt lat="40.486100" lon="-5.228067">
        <ele>2698.0</ele>
        <time>2018-09-01T12:52:40Z</time>
      </trkpt>
      <trkpt lat="40.486217" lon="-5.228000">
        <ele>2694.0</ele>
        <time>2018-09-01T12:52:41Z</time>
      </trkpt>
      <trkpt lat="40.486333" lon="-5.227933">
        <ele>2690.0</ele>
        <time>2018-09-01T12:52:42Z</time>
      </trkpt>
      <trkpt lat="40.486450" lon="-5.227867">
        <ele>2686.0</ele>
        <time>2018-09-01T12:52:43Z</time>
      </trkpt>
      <trkpt lat="40.486567" lon="-5.227817">
        <ele>2682.0</ele>
        <time>2018-09-01T12:52:44Z</time>
      </trkpt>
      <trkpt lat="40.486683" lon="-5.227767">
        <ele>2679.0</ele>
        <time>2018-09-01T12:52:45Z</time>
      </trkpt>
      <trkpt lat="40.486817" lon="-5.227733">
        <ele>2676.0</ele>
        <time>2018-09-01T12:52:46Z</time>
      </trkpt>
      <trkpt lat="40.486950" lon="-5.227700">
        <ele>2673.0</ele>
        <time>2018-09-01T12:52:47Z</time>
      </trkpt>
      <trkpt lat="40.487067" lon="-5.227667">
        <ele>2670.0</ele>
        <time>2018-09-01T12:52:48Z</time>
      </trkpt>
      <trkpt lat="40.487200" lon="-5.227650">
        <ele>2667.0</ele>
        <time>2018-09-01T12:52:49Z</time>
      </trkpt>
      <trkpt lat="40.487317" lon="-5.227650">
        <ele>2664.0</ele>
        <time>2018-09-01T12:52:50Z</time>
      </trkpt>
      <trkpt lat="40.487450" lon="-5.227650">
        <ele>2660.0</ele>
        <time>2018-09-01T12:52:51Z</time>
      </trkpt>
      <trkpt lat="40.487567" lon="-5.227650">
        <ele>2656.0</ele>
        <time>2018-09-01T12:52:52Z</time>
      </trkpt>
      <trkpt lat="40.487700" lon="-5.227633">
        <ele>2651.0</ele>
        <time>2018-09-01T12:52:53Z</time>
      </trkpt>
      <trkpt lat="40.487850" lon="-5.227617">
        <ele>2647.0</ele>
        <time>2018-09-01T12:52:54Z</time>
      </trkpt>
      <trkpt lat="40.487983" lon="-5.227583">
        <ele>2643.0</ele>
        <time>2018-09-01T12:52:55Z</time>
      </trkpt>
      <trkpt lat="40.488117" lon="-5.227583">
        <ele>2640.0</ele>
        <time>2018-09-01T12:52:56Z</time>
      </trkpt>
      <trkpt lat="40.488250" lon="-5.227567">
        <ele>2637.0</ele>
        <time>2018-09-01T12:52:57Z</time>
      </trkpt>
      <trkpt lat="40.488383" lon="-5.227567">
        <ele>2634.0</ele>
        <time>2018-09-01T12:52:58Z</time>
      </trkpt>
      <trkpt lat="40.488500" lon="-5.227567">
        <ele>2630.0</ele>
        <time>2018-09-01T12:52:59Z</time>
      </trkpt>
      <trkpt lat="40.488633" lon="-5.227550">
        <ele>2627.0</ele>
        <time>2018-09-01T12:53:00Z</time>
      </trkpt>
      <trkpt lat="40.488767" lon="-5.227533">
        <ele>2623.0</ele>
        <time>2018-09-01T12:53:01Z</time>
      </trkpt>
      <trkpt lat="40.488883" lon="-5.227517">
        <ele>2619.0</ele>
        <time>2018-09-01T12:53:02Z</time>
      </trkpt>
      <trkpt lat="40.489017" lon="-5.227500">
        <ele>2615.0</ele>
        <time>2018-09-01T12:53:03Z</time>
      </trkpt>
      <trkpt lat="40.489150" lon="-5.227483">
        <ele>2611.0</ele>
        <time>2018-09-01T12:53:04Z</time>
      </trkpt>
      <trkpt lat="40.489283" lon="-5.227450">
        <ele>2608.0</ele>
        <time>2018-09-01T12:53:05Z</time>
      </trkpt>
      <trkpt lat="40.489417" lon="-5.227417">
        <ele>2604.0</ele>
        <time>2018-09-01T12:53:06Z</time>
      </trkpt>
      <trkpt lat="40.489550" lon="-5.227400">
        <ele>2601.0</ele>
        <time>2018-09-01T12:53:07Z</time>
      </trkpt>
      <trkpt lat="40.489683" lon="-5.227367">
        <ele>2598.0</ele>
        <time>2018-09-01T12:53:08Z</time>
      </trkpt>
      <trkpt lat="40.489800" lon="-5.227350">
        <ele>2595.0</ele>
        <time>2018-09-01T12:53:09Z</time>
      </trkpt>
      <trkpt lat="40.489933" lon="-5.227317">
        <ele>2593.0</ele>
        <time>2018-09-01T12:53:10Z</time>
      </trkpt>
      <trkpt lat="40.490050" lon="-5.227267">
        <ele>2592.0</ele>
        <time>2018-09-01T12:53:11Z</time>
      </trkpt>
      <trkpt lat="40.490150" lon="-5.227217">
        <ele>2590.0</ele>
        <time>2018-09-01T12:53:12Z</time>
      </trkpt>
      <trkpt lat="40.490250" lon="-5.227167">
        <ele>2588.0</ele>
        <time>2018-09-01T12:53:13Z</time>
      </trkpt>
      <trkpt lat="40.490350" lon="-5.227100">
        <ele>2584.0</ele>
        <time>2018-09-01T12:53:14Z</time>
      </trkpt>
      <trkpt lat="40.490450" lon="-5.227050">
        <ele>2579.0</ele>
        <time>2018-09-01T12:53:15Z</time>
      </trkpt>
      <trkpt lat="40.490567" lon="-5.227000">
        <ele>2575.0</ele>
        <time>2018-09-01T12:53:16Z</time>
      </trkpt>
      <trkpt lat="40.490683" lon="-5.226933">
        <ele>2571.0</ele>
        <time>2018-09-01T12:53:17Z</time>
      </trkpt>
      <trkpt lat="40.490817" lon="-5.226883">
        <ele>2568.0</ele>
        <time>2018-09-01T12:53:18Z</time>
      </trkpt>
      <trkpt lat="40.490917" lon="-5.226833">
        <ele>2564.0</ele>
        <time>2018-09-01T12:53:19Z</time>
      </trkpt>
      <trkpt lat="40.491033" lon="-5.226800">
        <ele>2561.0</ele>
        <time>2018-09-01T12:53:20Z</time>
      </trkpt>
      <trkpt lat="40.491133" lon="-5.226767">
        <ele>2557.0</ele>
        <time>2018-09-01T12:53:21Z</time>
      </trkpt>
      <trkpt lat="40.491250" lon="-5.226733">
        <ele>2554.0</ele>
        <time>2018-09-01T12:53:22Z</time>
      </trkpt>
      <trkpt lat="40.491350" lon="-5.226683">
        <ele>2551.0</ele>
        <time>2018-09-01T12:53:23Z</time>
      </trkpt>
      <trkpt lat="40.491450" lon="-5.226633">
        <ele>2548.0</ele>
        <time>2018-09-01T12:53:24Z</time>
      </trkpt>
      <trkpt lat="40.491550" lon="-5.226600">
        <ele>2543.0</ele>
        <time>2018-09-01T12:53:25Z</time>
      </trkpt>
      <trkpt lat="40.491667" lon="-5.226550">
        <ele>2539.0</ele>
        <time>2018-09-01T12:53:26Z</time>
      </trkpt>
      <trkpt lat="40.491783" lon="-5.226533">
        <ele>2535.0</ele>
        <time>2018-09-01T12:53:27Z</time>
      </trkpt>
      <trkpt lat="40.491883" lon="-5.226517">
        <ele>2532.0</ele>
        <time>2018-09-01T12:53:28Z</time>
      </trkpt>
      <trkpt lat="40.492000" lon="-5.226467">
        <ele>2530.0</ele>
        <time>2018-09-01T12:53:29Z</time>
      </trkpt>
      <trkpt lat="40.492100" lon="-5.226433">
        <ele>2527.0</ele>
        <time>2018-09-01T12:53:30Z</time>
      </trkpt>
      <trkpt lat="40.492200" lon="-5.226383">
        <ele>2524.0</ele>
        <time>2018-09-01T12:53:31Z</time>
      </trkpt>
      <trkpt lat="40.492300" lon="-5.226317">
        <ele>2521.0</ele>
        <time>2018-09-01T12:53:32Z</time>
      </trkpt>
      <trkpt lat="40.492417" lon="-5.226283">
        <ele>2518.0</ele>
        <time>2018-09-01T12:53:33Z</time>
      </trkpt>
      <trkpt lat="40.492517" lon="-5.226233">
        <ele>2515.0</ele>
        <time>2018-09-01T12:53:34Z</time>
      </trkpt>
      <trkpt lat="40.492617" lon="-5.226200">
        <ele>2513.0</ele>
        <time>2018-09-01T12:53:35Z</time>
      </trkpt>
      <trkpt lat="40.492700" lon="-5.226183">
        <ele>2512.0</ele>
        <time>2018-09-01T12:53:36Z</time>
      </trkpt>
      <trkpt lat="40.492783" lon="-5.226150">
        <ele>2511.0</ele>
        <time>2018-09-01T12:53:37Z</time>
      </trkpt>
      <trkpt lat="40.492867" lon="-5.226133">
        <ele>2509.0</ele>
        <time>2018-09-01T12:53:38Z</time>
      </trkpt>
      <trkpt lat="40.492950" lon="-5.226083">
        <ele>2509.0</ele>
        <time>2018-09-01T12:53:39Z</time>
      </trkpt>
      <trkpt lat="40.493033" lon="-5.226033">
        <ele>2509.0</ele>
        <time>2018-09-01T12:53:40Z</time>
      </trkpt>
      <trkpt lat="40.493100" lon="-5.226000">
        <ele>2509.0</ele>
        <time>2018-09-01T12:53:41Z</time>
      </trkpt>
      <trkpt lat="40.493183" lon="-5.225950">
        <ele>2510.0</ele>
        <time>2018-09-01T12:53:42Z</time>
      </trkpt>
      <trkpt lat="40.493267" lon="-5.225900">
        <ele>2510.0</ele>
        <time>2018-09-01T12:53:43Z</time>
      </trkpt>
      <trkpt lat="40.493350" lon="-5.225850">
        <ele>2510.0</ele>
        <time>2018-09-01T12:53:44Z</time>
      </trkpt>
      <trkpt lat="40.493433" lon="-5.225817">
        <ele>2510.0</ele>
        <time>2018-09-01T12:53:45Z</time>
      </trkpt>
      <trkpt lat="40.493533" lon="-5.225783">
        <ele>2510.0</ele>
        <time>2018-09-01T12:53:46Z</time>
      </trkpt>
      <trkpt lat="40.493633" lon="-5.225767">
        <ele>2510.0</ele>
        <time>2018-09-01T12:53:47Z</time>
      </trkpt>
      <trkpt lat="40.493717" lon="-5.225750">
        <ele>2510.0</ele>
        <time>2018-09-01T12:53:48Z</time>
      </trkpt>
      <trkpt lat="40.493800" lon="-5.225750">
        <ele>2510.0</ele>
        <time>2018-09-01T12:53:49Z</time>
      </trkpt>
      <trkpt lat="40.493883" lon="-5.225717">
        <ele>2510.0</ele>
        <time>2018-09-01T12:53:50Z</time>
      </trkpt>
      <trkpt lat="40.493967" lon="-5.225700">
        <ele>2509.0</ele>
        <time>2018-09-01T12:53:51Z</time>
      </trkpt>
      <trkpt lat="40.494050" lon="-5.225683">
        <ele>2509.0</ele>
        <time>2018-09-01T12:53:52Z</time>
      </trkpt>
      <trkpt lat="40.494133" lon="-5.225667">
        <ele>2508.0</ele>
        <time>2018-09-01T12:53:53Z</time>
      </trkpt>
      <trkpt lat="40.494217" lon="-5.225650">
        <ele>2508.0</ele>
        <time>2018-09-01T12:53:54Z</time>
      </trkpt>
      <trkpt lat="40.494300" lon="-5.225650">
        <ele>2507.0</ele>
        <time>2018-09-01T12:53:55Z</time>
      </trkpt>
      <trkpt lat="40.494383" lon="-5.225650">
        <ele>2506.0</ele>
        <time>2018-09-01T12:53:56Z</time>
      </trkpt>
      <trkpt lat="40.494467" lon="-5.225633">
        <ele>2506.0</ele>
        <time>2018-09-01T12:53:57Z</time>
      </trkpt>
      <trkpt lat="40.494567" lon="-5.225617">
        <ele>2506.0</ele>
        <time>2018-09-01T12:53:58Z</time>
      </trkpt>
      <trkpt lat="40.494650" lon="-5.225583">
        <ele>2506.0</ele>
        <time>2018-09-01T12:53:59Z</time>
      </trkpt>
      <trkpt lat="40.494733" lon="-5.225533">
        <ele>2506.0</ele>
        <time>2018-09-01T12:54:00Z</time>
      </trkpt>
      <trkpt lat="40.494833" lon="-5.225483">
        <ele>2506.0</ele>
        <time>2018-09-01T12:54:01Z</time>
      </trkpt>
      <trkpt lat="40.494917" lon="-5.225450">
        <ele>2507.0</ele>
        <time>2018-09-01T12:54:02Z</time>
      </trkpt>
      <trkpt lat="40.495000" lon="-5.225433">
        <ele>2508.0</ele>
        <time>2018-09-01T12:54:03Z</time>
      </trkpt>
      <trkpt lat="40.495083" lon="-5.225417">
        <ele>2508.0</ele>
        <time>2018-09-01T12:54:04Z</time>
      </trkpt>
      <trkpt lat="40.495167" lon="-5.225400">
        <ele>2508.0</ele>
        <time>2018-09-01T12:54:05Z</time>
      </trkpt>
      <trkpt lat="40.495250" lon="-5.225367">
        <ele>2509.0</ele>
        <time>2018-09-01T12:54:06Z</time>
      </trkpt>
      <trkpt lat="40.495333" lon="-5.225333">
        <ele>2509.0</ele>
        <time>2018-09-01T12:54:07Z</time>
      </trkpt>
      <trkpt lat="40.495400" lon="-5.225283">
        <ele>2510.0</ele>
        <time>2018-09-01T12:54:08Z</time>
      </trkpt>
      <trkpt lat="40.495483" lon="-5.225233">
        <ele>2511.0</ele>
        <time>2018-09-01T12:54:09Z</time>
      </trkpt>
      <trkpt lat="40.495567" lon="-5.225200">
        <ele>2512.0</ele>
        <time>2018-09-01T12:54:10Z</time>
      </trkpt>
      <trkpt lat="40.495650" lon="-5.225150">
        <ele>2513.0</ele>
        <time>2018-09-01T12:54:11Z</time>
      </trkpt>
      <trkpt lat="40.495717" lon="-5.225117">
        <ele>2513.0</ele>
        <time>2018-09-01T12:54:12Z</time>
      </trkpt>
      <trkpt lat="40.495800" lon="-5.225100">
        <ele>2514.0</ele>
        <time>2018-09-01T12:54:13Z</time>
      </trkpt>
      <trkpt lat="40.495867" lon="-5.225083">
        <ele>2514.0</ele>
        <time>2018-09-01T12:54:14Z</time>
      </trkpt>
      <trkpt lat="40.495950" lon="-5.225067">
        <ele>2513.0</ele>
        <time>2018-09-01T12:54:15Z</time>
      </trkpt>
      <trkpt lat="40.496017" lon="-5.225033">
        <ele>2512.0</ele>
        <time>2018-09-01T12:54:16Z</time>
      </trkpt>
      <trkpt lat="40.496083" lon="-5.225000">
        <ele>2511.0</ele>
        <time>2018-09-01T12:54:17Z</time>
      </trkpt>
      <trkpt lat="40.496167" lon="-5.224983">
        <ele>2510.0</ele>
        <time>2018-09-01T12:54:18Z</time>
      </trkpt>
      <trkpt lat="40.496250" lon="-5.224950">
        <ele>2510.0</ele>
        <time>2018-09-01T12:54:19Z</time>
      </trkpt>
      <trkpt lat="40.496317" lon="-5.224917">
        <ele>2511.0</ele>
        <time>2018-09-01T12:54:20Z</time>
      </trkpt>
      <trkpt lat="40.496383" lon="-5.224867">
        <ele>2511.0</ele>
        <time>2018-09-01T12:54:21Z</time>
      </trkpt>
      <trkpt lat="40.496450" lon="-5.224817">
        <ele>2512.0</ele>
        <time>2018-09-01T12:54:22Z</time>
      </trkpt>
      <trkpt lat="40.496517" lon="-5.224767">
        <ele>2512.0</ele>
        <time>2018-09-01T12:54:23Z</time>
      </trkpt>
      <trkpt lat="40.496583" lon="-5.224733">
        <ele>2512.0</ele>
        <time>2018-09-01T12:54:24Z</time>
      </trkpt>
      <trkpt lat="40.496667" lon="-5.224683">
        <ele>2512.0</ele>
        <time>2018-09-01T12:54:25Z</time>
      </trkpt>
      <trkpt lat="40.496733" lon="-5.224650">
        <ele>2512.0</ele>
        <time>2018-09-01T12:54:26Z</time>
      </trkpt>
      <trkpt lat="40.496800" lon="-5.224617">
        <ele>2513.0</ele>
        <time>2018-09-01T12:54:27Z</time>
      </trkpt>
      <trkpt lat="40.496883" lon="-5.224583">
        <ele>2515.0</ele>
        <time>2018-09-01T12:54:28Z</time>
      </trkpt>
      <trkpt lat="40.496950" lon="-5.224567">
        <ele>2515.0</ele>
        <time>2018-09-01T12:54:29Z</time>
      </trkpt>
      <trkpt lat="40.497033" lon="-5.224550">
        <ele>2515.0</ele>
        <time>2018-09-01T12:54:30Z</time>
      </trkpt>
      <trkpt lat="40.497133" lon="-5.224533">
        <ele>2515.0</ele>
        <time>2018-09-01T12:54:31Z</time>
      </trkpt>
      <trkpt lat="40.497233" lon="-5.224533">
        <ele>2517.0</ele>
        <time>2018-09-01T12:54:32Z</time>
      </trkpt>
      <trkpt lat="40.497333" lon="-5.224533">
        <ele>2518.0</ele>
        <time>2018-09-01T12:54:33Z</time>
      </trkpt>
      <trkpt lat="40.497433" lon="-5.224550">
        <ele>2521.0</ele>
        <time>2018-09-01T12:54:34Z</time>
      </trkpt>
      <trkpt lat="40.497533" lon="-5.224550">
        <ele>2523.0</ele>
        <time>2018-09-01T12:54:35Z</time>
      </trkpt>
      <trkpt lat="40.497617" lon="-5.224550">
        <ele>2526.0</ele>
        <time>2018-09-01T12:54:36Z</time>
      </trkpt>
      <trkpt lat="40.497700" lon="-5.224550">
        <ele>2528.0</ele>
        <time>2018-09-01T12:54:37Z</time>
      </trkpt>
      <trkpt lat="40.497800" lon="-5.224533">
        <ele>2530.0</ele>
        <time>2018-09-01T12:54:38Z</time>
      </trkpt>
      <trkpt lat="40.497883" lon="-5.224517">
        <ele>2533.0</ele>
        <time>2018-09-01T12:54:39Z</time>
      </trkpt>
      <trkpt lat="40.497967" lon="-5.224533">
        <ele>2535.0</ele>
        <time>2018-09-01T12:54:40Z</time>
      </trkpt>
      <trkpt lat="40.498050" lon="-5.224550">
        <ele>2536.0</ele>
        <time>2018-09-01T12:54:41Z</time>
      </trkpt>
      <trkpt lat="40.498117" lon="-5.224617">
        <ele>2538.0</ele>
        <time>2018-09-01T12:54:42Z</time>
      </trkpt>
      <trkpt lat="40.498167" lon="-5.224733">
        <ele>2540.0</ele>
        <time>2018-09-01T12:54:43Z</time>
      </trkpt>
      <trkpt lat="40.498200" lon="-5.224850">
        <ele>2542.0</ele>
        <time>2018-09-01T12:54:44Z</time>
      </trkpt>
      <trkpt lat="40.498183" lon="-5.224950">
        <ele>2546.0</ele>
        <time>2018-09-01T12:54:45Z</time>
      </trkpt>
      <trkpt lat="40.498150" lon="-5.225050">
        <ele>2549.0</ele>
        <time>2018-09-01T12:54:46Z</time>
      </trkpt>
      <trkpt lat="40.498083" lon="-5.225117">
        <ele>2552.0</ele>
        <time>2018-09-01T12:54:47Z</time>
      </trkpt>
      <trkpt lat="40.498000" lon="-5.225150">
        <ele>2554.0</ele>
        <time>2018-09-01T12:54:48Z</time>
      </trkpt>
      <trkpt lat="40.497900" lon="-5.225183">
        <ele>2555.0</ele>
        <time>2018-09-01T12:54:49Z</time>
      </trkpt>
      <trkpt lat="40.497800" lon="-5.225183">
        <ele>2555.0</ele>
        <time>2018-09-01T12:54:50Z</time>
      </trkpt>
      <trkpt lat="40.497667" lon="-5.225167">
        <ele>2555.0</ele>
        <time>2018-09-01T12:54:51Z</time>
      </trkpt>
      <trkpt lat="40.497550" lon="-5.225100">
        <ele>2556.0</ele>
        <time>2018-09-01T12:54:52Z</time>
      </trkpt>
      <trkpt lat="40.497450" lon="-5.225000">
        <ele>2557.0</ele>
        <time>2018-09-01T12:54:53Z</time>
      </trkpt>
      <trkpt lat="40.497383" lon="-5.224867">
        <ele>2558.0</ele>
        <time>2018-09-01T12:54:54Z</time>
      </trkpt>
      <trkpt lat="40.497350" lon="-5.224733">
        <ele>2559.0</ele>
        <time>2018-09-01T12:54:55Z</time>
      </trkpt>
      <trkpt lat="40.497350" lon="-5.224583">
        <ele>2558.0</ele>
        <time>2018-09-01T12:54:56Z</time>
      </trkpt>
      <trkpt lat="40.497367" lon="-5.224433">
        <ele>2558.0</ele>
        <time>2018-09-01T12:54:57Z</time>
      </trkpt>
      <trkpt lat="40.497417" lon="-5.224300">
        <ele>2558.0</ele>
        <time>2018-09-01T12:54:58Z</time>
      </trkpt>
      <trkpt lat="40.497467" lon="-5.224183">
        <ele>2559.0</ele>
        <time>2018-09-01T12:54:59Z</time>
      </trkpt>
      <trkpt lat="40.497550" lon="-5.224083">
        <ele>2561.0</ele>
        <time>2018-09-01T12:55:00Z</time>
      </trkpt>
      <trkpt lat="40.497617" lon="-5.223983">
        <ele>2563.0</ele>
        <time>2018-09-01T12:55:01Z</time>
      </trkpt>
      <trkpt lat="40.497700" lon="-5.223883">
        <ele>2566.0</ele>
        <time>2018-09-01T12:55:02Z</time>
      </trkpt>
      <trkpt lat="40.497783" lon="-5.223783">
        <ele>2568.0</ele>
        <time>2018-09-01T12:55:03Z</time>
      </trkpt>
      <trkpt lat="40.497867" lon="-5.223667">
        <ele>2571.0</ele>
        <time>2018-09-01T12:55:04Z</time>
      </trkpt>
      <trkpt lat="40.497967" lon="-5.223567">
        <ele>2574.0</ele>
        <time>2018-09-01T12:55:05Z</time>
      </trkpt>
      <trkpt lat="40.498050" lon="-5.223483">
        <ele>2578.0</ele>
        <time>2018-09-01T12:55:06Z</time>
      </trkpt>
      <trkpt lat="40.498117" lon="-5.223400">
        <ele>2580.0</ele>
        <time>2018-09-01T12:55:07Z</time>
      </trkpt>
      <trkpt lat="40.498167" lon="-5.223317">
        <ele>2582.0</ele>
        <time>2018-09-01T12:55:08Z</time>
      </trkpt>
      <trkpt lat="40.498233" lon="-5.223250">
        <ele>2583.0</ele>
        <time>2018-09-01T12:55:09Z</time>
      </trkpt>
      <trkpt lat="40.498300" lon="-5.223200">
        <ele>2583.0</ele>
        <time>2018-09-01T12:55:10Z</time>
      </trkpt>
      <trkpt lat="40.498383" lon="-5.223200">
        <ele>2582.0</ele>
        <time>2018-09-01T12:55:11Z</time>
      </trkpt>
      <trkpt lat="40.498483" lon="-5.223233">
        <ele>2581.0</ele>
        <time>2018-09-01T12:55:12Z</time>
      </trkpt>
      <trkpt lat="40.498567" lon="-5.223317">
        <ele>2581.0</ele>
        <time>2018-09-01T12:55:13Z</time>
      </trkpt>
      <trkpt lat="40.498617" lon="-5.223400">
        <ele>2583.0</ele>
        <time>2018-09-01T12:55:14Z</time>
      </trkpt>
      <trkpt lat="40.498633" lon="-5.223500">
        <ele>2585.0</ele>
        <time>2018-09-01T12:55:15Z</time>
      </trkpt>
      <trkpt lat="40.498633" lon="-5.223600">
        <ele>2586.0</ele>
        <time>2018-09-01T12:55:16Z</time>
      </trkpt>
      <trkpt lat="40.498583" lon="-5.223683">
        <ele>2587.0</ele>
        <time>2018-09-01T12:55:17Z</time>
      </trkpt>
      <trkpt lat="40.498533" lon="-5.223767">
        <ele>2588.0</ele>
        <time>2018-09-01T12:55:18Z</time>
      </trkpt>
      <trkpt lat="40.498450" lon="-5.223850">
        <ele>2589.0</ele>
        <time>2018-09-01T12:55:19Z</time>
      </trkpt>
      <trkpt lat="40.498367" lon="-5.223900">
        <ele>2591.0</ele>
        <time>2018-09-01T12:55:20Z</time>
      </trkpt>
      <trkpt lat="40.498267" lon="-5.223933">
        <ele>2593.0</ele>
        <time>2018-09-01T12:55:21Z</time>
      </trkpt>
      <trkpt lat="40.498150" lon="-5.223933">
        <ele>2595.0</ele>
        <time>2018-09-01T12:55:22Z</time>
      </trkpt>
      <trkpt lat="40.498050" lon="-5.223900">
        <ele>2597.0</ele>
        <time>2018-09-01T12:55:23Z</time>
      </trkpt>
      <trkpt lat="40.497933" lon="-5.223867">
        <ele>2599.0</ele>
        <time>2018-09-01T12:55:24Z</time>
      </trkpt>
      <trkpt lat="40.497817" lon="-5.223800">
        <ele>2601.0</ele>
        <time>2018-09-01T12:55:25Z</time>
      </trkpt>
      <trkpt lat="40.497733" lon="-5.223700">
        <ele>2603.0</ele>
        <time>2018-09-01T12:55:26Z</time>
      </trkpt>
      <trkpt lat="40.497650" lon="-5.223567">
        <ele>2605.0</ele>
        <time>2018-09-01T12:55:27Z</time>
      </trkpt>
      <trkpt lat="40.497617" lon="-5.223433">
        <ele>2606.0</ele>
        <time>2018-09-01T12:55:28Z</time>
      </trkpt>
      <trkpt lat="40.497617" lon="-5.223283">
        <ele>2607.0</ele>
        <time>2018-09-01T12:55:29Z</time>
      </trkpt>
      <trkpt lat="40.497633" lon="-5.223150">
        <ele>2610.0</ele>
        <time>2018-09-01T12:55:30Z</time>
      </trkpt>
      <trkpt lat="40.497650" lon="-5.223033">
        <ele>2613.0</ele>
        <time>2018-09-01T12:55:31Z</time>
      </trkpt>
      <trkpt lat="40.497700" lon="-5.222933">
        <ele>2616.0</ele>
        <time>2018-09-01T12:55:32Z</time>
      </trkpt>
      <trkpt lat="40.497750" lon="-5.222867">
        <ele>2617.0</ele>
        <time>2018-09-01T12:55:33Z</time>
      </trkpt>
      <trkpt lat="40.497817" lon="-5.222817">
        <ele>2618.0</ele>
        <time>2018-09-01T12:55:34Z</time>
      </trkpt>
      <trkpt lat="40.497900" lon="-5.222817">
        <ele>2619.0</ele>
        <time>2018-09-01T12:55:35Z</time>
      </trkpt>
      <trkpt lat="40.497983" lon="-5.222850">
        <ele>2619.0</ele>
        <time>2018-09-01T12:55:36Z</time>
      </trkpt>
      <trkpt lat="40.498050" lon="-5.222950">
        <ele>2620.0</ele>
        <time>2018-09-01T12:55:37Z</time>
      </trkpt>
      <trkpt lat="40.498083" lon="-5.223067">
        <ele>2620.0</ele>
        <time>2018-09-01T12:55:38Z</time>
      </trkpt>
      <trkpt lat="40.498067" lon="-5.223200">
        <ele>2621.0</ele>
        <time>2018-09-01T12:55:39Z</time>
      </trkpt>
      <trkpt lat="40.498033" lon="-5.223333">
        <ele>2622.0</ele>
        <time>2018-09-01T12:55:40Z</time>
      </trkpt>
      <trkpt lat="40.497967" lon="-5.223450">
        <ele>2623.0</ele>
        <time>2018-09-01T12:55:41Z</time>
      </trkpt>
      <trkpt lat="40.497867" lon="-5.223550">
        <ele>2624.0</ele>
        <time>2018-09-01T12:55:42Z</time>
      </trkpt>
      <trkpt lat="40.497767" lon="-5.223617">
        <ele>2626.0</ele>
        <time>2018-09-01T12:55:43Z</time>
      </trkpt>
      <trkpt lat="40.497650" lon="-5.223633">
        <ele>2626.0</ele>
        <time>2018-09-01T12:55:44Z</time>
      </trkpt>
      <trkpt lat="40.497533" lon="-5.223617">
        <ele>2627.0</ele>
        <time>2018-09-01T12:55:45Z</time>
      </trkpt>
      <trkpt lat="40.497400" lon="-5.223567">
        <ele>2628.0</ele>
        <time>2018-09-01T12:55:46Z</time>
      </trkpt>
      <trkpt lat="40.497300" lon="-5.223467">
        <ele>2630.0</ele>
        <time>2018-09-01T12:55:47Z</time>
      </trkpt>
      <trkpt lat="40.497217" lon="-5.223350">
        <ele>2632.0</ele>
        <time>2018-09-01T12:55:48Z</time>
      </trkpt>
      <trkpt lat="40.497150" lon="-5.223217">
        <ele>2633.0</ele>
        <time>2018-09-01T12:55:49Z</time>
      </trkpt>
      <trkpt lat="40.497117" lon="-5.223067">
        <ele>2635.0</ele>
        <time>2018-09-01T12:55:50Z</time>
      </trkpt>
      <trkpt lat="40.497100" lon="-5.222917">
        <ele>2637.0</ele>
        <time>2018-09-01T12:55:51Z</time>
      </trkpt>
      <trkpt lat="40.497117" lon="-5.222783">
        <ele>2640.0</ele>
        <time>2018-09-01T12:55:52Z</time>
      </trkpt>
      <trkpt lat="40.497133" lon="-5.222650">
        <ele>2644.0</ele>
        <time>2018-09-01T12:55:53Z</time>
      </trkpt>
      <trkpt lat="40.497167" lon="-5.222550">
        <ele>2646.0</ele>
        <time>2018-09-01T12:55:54Z</time>
      </trkpt>
      <trkpt lat="40.497217" lon="-5.222450">
        <ele>2648.0</ele>
        <time>2018-09-01T12:55:55Z</time>
      </trkpt>
      <trkpt lat="40.497267" lon="-5.222383">
        <ele>2650.0</ele>
        <time>2018-09-01T12:55:56Z</time>
      </trkpt>
      <trkpt lat="40.497333" lon="-5.222317">
        <ele>2652.0</ele>
        <time>2018-09-01T12:55:57Z</time>
      </trkpt>
      <trkpt lat="40.497417" lon="-5.222283">
        <ele>2654.0</ele>
        <time>2018-09-01T12:55:58Z</time>
      </trkpt>
      <trkpt lat="40.497483" lon="-5.222283">
        <ele>2655.0</ele>
        <time>2018-09-01T12:55:59Z</time>
      </trkpt>
      <trkpt lat="40.497550" lon="-5.222350">
        <ele>2656.0</ele>
        <time>2018-09-01T12:56:00Z</time>
      </trkpt>
      <trkpt lat="40.497600" lon="-5.222433">
        <ele>2657.0</ele>
        <time>2018-09-01T12:56:01Z</time>
      </trkpt>
      <trkpt lat="40.497633" lon="-5.222550">
        <ele>2658.0</ele>
        <time>2018-09-01T12:56:02Z</time>
      </trkpt>
      <trkpt lat="40.497617" lon="-5.222667">
        <ele>2659.0</ele>
        <time>2018-09-01T12:56:03Z</time>
      </trkpt>
      <trkpt lat="40.497583" lon="-5.222800">
        <ele>2660.0</ele>
        <time>2018-09-01T12:56:04Z</time>
      </trkpt>
      <trkpt lat="40.497533" lon="-5.222917">
        <ele>2661.0</ele>
        <time>2018-09-01T12:56:05Z</time>
      </trkpt>
      <trkpt lat="40.497433" lon="-5.223000">
        <ele>2662.0</ele>
        <time>2018-09-01T12:56:06Z</time>
      </trkpt>
      <trkpt lat="40.497333" lon="-5.223067">
        <ele>2664.0</ele>
        <time>2018-09-01T12:56:07Z</time>
      </trkpt>
      <trkpt lat="40.497200" lon="-5.223083">
        <ele>2665.0</ele>
        <time>2018-09-01T12:56:08Z</time>
      </trkpt>
      <trkpt lat="40.497083" lon="-5.223050">
        <ele>2667.0</ele>
        <time>2018-09-01T12:56:09Z</time>
      </trkpt>
      <trkpt lat="40.496967" lon="-5.223000">
        <ele>2669.0</ele>
        <time>2018-09-01T12:56:10Z</time>
      </trkpt>
      <trkpt lat="40.496867" lon="-5.222917">
        <ele>2670.0</ele>
        <time>2018-09-01T12:56:11Z</time>
      </trkpt>
      <trkpt lat="40.496783" lon="-5.222800">
        <ele>2671.0</ele>
        <time>2018-09-01T12:56:12Z</time>
      </trkpt>
      <trkpt lat="40.496717" lon="-5.222667">
        <ele>2671.0</ele>
        <time>2018-09-01T12:56:13Z</time>
      </trkpt>
      <trkpt lat="40.496683" lon="-5.222500">
        <ele>2671.0</ele>
        <time>2018-09-01T12:56:14Z</time>
      </trkpt>
      <trkpt lat="40.496683" lon="-5.222333">
        <ele>2672.0</ele>
        <time>2018-09-01T12:56:15Z</time>
      </trkpt>
      <trkpt lat="40.496717" lon="-5.222183">
        <ele>2674.0</ele>
        <time>2018-09-01T12:56:16Z</time>
      </trkpt>
      <trkpt lat="40.496767" lon="-5.222067">
        <ele>2676.0</ele>
        <time>2018-09-01T12:56:17Z</time>
      </trkpt>
      <trkpt lat="40.496817" lon="-5.221983">
        <ele>2679.0</ele>
        <time>2018-09-01T12:56:18Z</time>
      </trkpt>
      <trkpt lat="40.496883" lon="-5.221900">
        <ele>2681.0</ele>
        <time>2018-09-01T12:56:19Z</time>
      </trkpt>
      <trkpt lat="40.496950" lon="-5.221850">
        <ele>2683.0</ele>
        <time>2018-09-01T12:56:20Z</time>
      </trkpt>
      <trkpt lat="40.497017" lon="-5.221833">
        <ele>2685.0</ele>
        <time>2018-09-01T12:56:21Z</time>
      </trkpt>
      <trkpt lat="40.497083" lon="-5.221833">
        <ele>2686.0</ele>
        <time>2018-09-01T12:56:22Z</time>
      </trkpt>
      <trkpt lat="40.497150" lon="-5.221883">
        <ele>2687.0</ele>
        <time>2018-09-01T12:56:23Z</time>
      </trkpt>
      <trkpt lat="40.497200" lon="-5.221950">
        <ele>2688.0</ele>
        <time>2018-09-01T12:56:24Z</time>
      </trkpt>
      <trkpt lat="40.497250" lon="-5.222050">
        <ele>2688.0</ele>
        <time>2018-09-01T12:56:25Z</time>
      </trkpt>
      <trkpt lat="40.497267" lon="-5.222183">
        <ele>2688.0</ele>
        <time>2018-09-01T12:56:26Z</time>
      </trkpt>
      <trkpt lat="40.497250" lon="-5.222300">
        <ele>2689.0</ele>
        <time>2018-09-01T12:56:27Z</time>
      </trkpt>
      <trkpt lat="40.497200" lon="-5.222433">
        <ele>2689.0</ele>
        <time>2018-09-01T12:56:28Z</time>
      </trkpt>
      <trkpt lat="40.497133" lon="-5.222550">
        <ele>2690.0</ele>
        <time>2018-09-01T12:56:29Z</time>
      </trkpt>
      <trkpt lat="40.497050" lon="-5.222650">
        <ele>2690.0</ele>
        <time>2018-09-01T12:56:30Z</time>
      </trkpt>
      <trkpt lat="40.496933" lon="-5.222733">
        <ele>2690.0</ele>
        <time>2018-09-01T12:56:31Z</time>
      </trkpt>
      <trkpt lat="40.496817" lon="-5.222783">
        <ele>2691.0</ele>
        <time>2018-09-01T12:56:32Z</time>
      </trkpt>
      <trkpt lat="40.496700" lon="-5.222783">
        <ele>2693.0</ele>
        <time>2018-09-01T12:56:33Z</time>
      </trkpt>
      <trkpt lat="40.496567" lon="-5.222750">
        <ele>2694.0</ele>
        <time>2018-09-01T12:56:34Z</time>
      </trkpt>
      <trkpt lat="40.496450" lon="-5.222683">
        <ele>2694.0</ele>
        <time>2018-09-01T12:56:35Z</time>
      </trkpt>
      <trkpt lat="40.496333" lon="-5.222583">
        <ele>2694.0</ele>
        <time>2018-09-01T12:56:36Z</time>
      </trkpt>
      <trkpt lat="40.496250" lon="-5.222467">
        <ele>2695.0</ele>
        <time>2018-09-01T12:56:37Z</time>
      </trkpt>
      <trkpt lat="40.496167" lon="-5.222350">
        <ele>2696.0</ele>
        <time>2018-09-01T12:56:38Z</time>
      </trkpt>
      <trkpt lat="40.496117" lon="-5.222200">
        <ele>2696.0</ele>
        <time>2018-09-01T12:56:39Z</time>
      </trkpt>
      <trkpt lat="40.496100" lon="-5.222050">
        <ele>2695.0</ele>
        <time>2018-09-01T12:56:40Z</time>
      </trkpt>
      <trkpt lat="40.496117" lon="-5.221883">
        <ele>2693.0</ele>
        <time>2018-09-01T12:56:41Z</time>
      </trkpt>
      <trkpt lat="40.496167" lon="-5.221733">
        <ele>2693.0</ele>
        <time>2018-09-01T12:56:42Z</time>
      </trkpt>
      <trkpt lat="40.496200" lon="-5.221600">
        <ele>2695.0</ele>
        <time>2018-09-01T12:56:43Z</time>
      </trkpt>
      <trkpt lat="40.496250" lon="-5.221500">
        <ele>2697.0</ele>
        <time>2018-09-01T12:56:44Z</time>
      </trkpt>
      <trkpt lat="40.496300" lon="-5.221433">
        <ele>2698.0</ele>
        <time>2018-09-01T12:56:45Z</time>
      </trkpt>
      <trkpt lat="40.496367" lon="-5.221383">
        <ele>2699.0</ele>
        <time>2018-09-01T12:56:46Z</time>
      </trkpt>
      <trkpt lat="40.496433" lon="-5.221350">
        <ele>2699.0</ele>
        <time>2018-09-01T12:56:47Z</time>
      </trkpt>
      <trkpt lat="40.496517" lon="-5.221333">
        <ele>2699.0</ele>
        <time>2018-09-01T12:56:48Z</time>
      </trkpt>
      <trkpt lat="40.496583" lon="-5.221350">
        <ele>2700.0</ele>
        <time>2018-09-01T12:56:49Z</time>
      </trkpt>
      <trkpt lat="40.496650" lon="-5.221417">
        <ele>2702.0</ele>
        <time>2018-09-01T12:56:50Z</time>
      </trkpt>
      <trkpt lat="40.496700" lon="-5.221500">
        <ele>2704.0</ele>
        <time>2018-09-01T12:56:51Z</time>
      </trkpt>
      <trkpt lat="40.496717" lon="-5.221600">
        <ele>2705.0</ele>
        <time>2018-09-01T12:56:52Z</time>
      </trkpt>
      <trkpt lat="40.496717" lon="-5.221733">
        <ele>2706.0</ele>
        <time>2018-09-01T12:56:53Z</time>
      </trkpt>
      <trkpt lat="40.496683" lon="-5.221850">
        <ele>2706.0</ele>
        <time>2018-09-01T12:56:54Z</time>
      </trkpt>
      <trkpt lat="40.496633" lon="-5.221967">
        <ele>2706.0</ele>
        <time>2018-09-01T12:56:55Z</time>
      </trkpt>
      <trkpt lat="40.496567" lon="-5.222067">
        <ele>2707.0</ele>
        <time>2018-09-01T12:56:56Z</time>
      </trkpt>
      <trkpt lat="40.496467" lon="-5.222150">
        <ele>2707.0</ele>
        <time>2018-09-01T12:56:57Z</time>
      </trkpt>
      <trkpt lat="40.496350" lon="-5.222217">
        <ele>2707.0</ele>
        <time>2018-09-01T12:56:58Z</time>
      </trkpt>
      <trkpt lat="40.496233" lon="-5.222233">
        <ele>2707.0</ele>
        <time>2018-09-01T12:56:59Z</time>
      </trkpt>
      <trkpt lat="40.496083" lon="-5.222217">
        <ele>2707.0</ele>
        <time>2018-09-01T12:57:00Z</time>
      </trkpt>
      <trkpt lat="40.495950" lon="-5.222183">
        <ele>2707.0</ele>
        <time>2018-09-01T12:57:01Z</time>
      </trkpt>
      <trkpt lat="40.495833" lon="-5.222100">
        <ele>2708.0</ele>
        <time>2018-09-01T12:57:02Z</time>
      </trkpt>
      <trkpt lat="40.495733" lon="-5.222017">
        <ele>2708.0</ele>
        <time>2018-09-01T12:57:03Z</time>
      </trkpt>
      <trkpt lat="40.495633" lon="-5.221900">
        <ele>2708.0</ele>
        <time>2018-09-01T12:57:04Z</time>
      </trkpt>
      <trkpt lat="40.495567" lon="-5.221767">
        <ele>2707.0</ele>
        <time>2018-09-01T12:57:05Z</time>
      </trkpt>
      <trkpt lat="40.495500" lon="-5.221617">
        <ele>2706.0</ele>
        <time>2018-09-01T12:57:06Z</time>
      </trkpt>
      <trkpt lat="40.495467" lon="-5.221450">
        <ele>2704.0</ele>
        <time>2018-09-01T12:57:07Z</time>
      </trkpt>
      <trkpt lat="40.495450" lon="-5.221267">
        <ele>2703.0</ele>
        <time>2018-09-01T12:57:08Z</time>
      </trkpt>
      <trkpt lat="40.495433" lon="-5.221083">
        <ele>2702.0</ele>
        <time>2018-09-01T12:57:09Z</time>
      </trkpt>
      <trkpt lat="40.495383" lon="-5.220917">
        <ele>2702.0</ele>
        <time>2018-09-01T12:57:10Z</time>
      </trkpt>
      <trkpt lat="40.495333" lon="-5.220767">
        <ele>2702.0</ele>
        <time>2018-09-01T12:57:11Z</time>
      </trkpt>
      <trkpt lat="40.495267" lon="-5.220600">
        <ele>2702.0</ele>
        <time>2018-09-01T12:57:12Z</time>
      </trkpt>
      <trkpt lat="40.495200" lon="-5.220467">
        <ele>2702.0</ele>
        <time>2018-09-01T12:57:13Z</time>
      </trkpt>
      <trkpt lat="40.495133" lon="-5.220333">
        <ele>2703.0</ele>
        <time>2018-09-01T12:57:14Z</time>
      </trkpt>
      <trkpt lat="40.495050" lon="-5.220200">
        <ele>2703.0</ele>
        <time>2018-09-01T12:57:15Z</time>
      </trkpt>
      <trkpt lat="40.494983" lon="-5.220083">
        <ele>2704.0</ele>
        <time>2018-09-01T12:57:16Z</time>
      </trkpt>
      <trkpt lat="40.494917" lon="-5.219967">
        <ele>2706.0</ele>
        <time>2018-09-01T12:57:17Z</time>
      </trkpt>
      <trkpt lat="40.494850" lon="-5.219850">
        <ele>2706.0</ele>
        <time>2018-09-01T12:57:18Z</time>
      </trkpt>
      <trkpt lat="40.494800" lon="-5.219733">
        <ele>2707.0</ele>
        <time>2018-09-01T12:57:19Z</time>
      </trkpt>
      <trkpt lat="40.494750" lon="-5.219600">
        <ele>2708.0</ele>
        <time>2018-09-01T12:57:20Z</time>
      </trkpt>
      <trkpt lat="40.494717" lon="-5.219467">
        <ele>2708.0</ele>
        <time>2018-09-01T12:57:21Z</time>
      </trkpt>
      <trkpt lat="40.494700" lon="-5.219317">
        <ele>2709.0</ele>
        <time>2018-09-01T12:57:22Z</time>
      </trkpt>
      <trkpt lat="40.494683" lon="-5.219200">
        <ele>2710.0</ele>
        <time>2018-09-01T12:57:23Z</time>
      </trkpt>
      <trkpt lat="40.494683" lon="-5.219067">
        <ele>2710.0</ele>
        <time>2018-09-01T12:57:24Z</time>
      </trkpt>
      <trkpt lat="40.494700" lon="-5.218950">
        <ele>2709.0</ele>
        <time>2018-09-01T12:57:25Z</time>
      </trkpt>
      <trkpt lat="40.494717" lon="-5.218817">
        <ele>2708.0</ele>
        <time>2018-09-01T12:57:26Z</time>
      </trkpt>
      <trkpt lat="40.494750" lon="-5.218700">
        <ele>2708.0</ele>
        <time>2018-09-01T12:57:27Z</time>
      </trkpt>
      <trkpt lat="40.494783" lon="-5.218567">
        <ele>2707.0</ele>
        <time>2018-09-01T12:57:28Z</time>
      </trkpt>
      <trkpt lat="40.494817" lon="-5.218450">
        <ele>2707.0</ele>
        <time>2018-09-01T12:57:29Z</time>
      </trkpt>
      <trkpt lat="40.494867" lon="-5.218350">
        <ele>2707.0</ele>
        <time>2018-09-01T12:57:30Z</time>
      </trkpt>
      <trkpt lat="40.494917" lon="-5.218233">
        <ele>2707.0</ele>
        <time>2018-09-01T12:57:31Z</time>
      </trkpt>
      <trkpt lat="40.494983" lon="-5.218150">
        <ele>2707.0</ele>
        <time>2018-09-01T12:57:32Z</time>
      </trkpt>
      <trkpt lat="40.495050" lon="-5.218067">
        <ele>2707.0</ele>
        <time>2018-09-01T12:57:33Z</time>
      </trkpt>
      <trkpt lat="40.495133" lon="-5.218000">
        <ele>2707.0</ele>
        <time>2018-09-01T12:57:34Z</time>
      </trkpt>
      <trkpt lat="40.495217" lon="-5.217933">
        <ele>2707.0</ele>
        <time>2018-09-01T12:57:35Z</time>
      </trkpt>
      <trkpt lat="40.495300" lon="-5.217883">
        <ele>2707.0</ele>
        <time>2018-09-01T12:57:36Z</time>
      </trkpt>
      <trkpt lat="40.495383" lon="-5.217817">
        <ele>2707.0</ele>
        <time>2018-09-01T12:57:37Z</time>
      </trkpt>
      <trkpt lat="40.495467" lon="-5.217767">
        <ele>2707.0</ele>
        <time>2018-09-01T12:57:38Z</time>
      </trkpt>
      <trkpt lat="40.495533" lon="-5.217733">
        <ele>2708.0</ele>
        <time>2018-09-01T12:57:39Z</time>
      </trkpt>
      <trkpt lat="40.495617" lon="-5.217700">
        <ele>2707.0</ele>
        <time>2018-09-01T12:57:40Z</time>
      </trkpt>
      <trkpt lat="40.495717" lon="-5.217683">
        <ele>2707.0</ele>
        <time>2018-09-01T12:57:41Z</time>
      </trkpt>
      <trkpt lat="40.495800" lon="-5.217667">
        <ele>2707.0</ele>
        <time>2018-09-01T12:57:42Z</time>
      </trkpt>
      <trkpt lat="40.495900" lon="-5.217650">
        <ele>2708.0</ele>
        <time>2018-09-01T12:57:43Z</time>
      </trkpt>
      <trkpt lat="40.495983" lon="-5.217667">
        <ele>2710.0</ele>
        <time>2018-09-01T12:57:44Z</time>
      </trkpt>
      <trkpt lat="40.496033" lon="-5.217667">
        <ele>2713.0</ele>
        <time>2018-09-01T12:57:45Z</time>
      </trkpt>
      <trkpt lat="40.496083" lon="-5.217683">
        <ele>2714.0</ele>
        <time>2018-09-01T12:57:46Z</time>
      </trkpt>
      <trkpt lat="40.496150" lon="-5.217700">
        <ele>2714.0</ele>
        <time>2018-09-01T12:57:47Z</time>
      </trkpt>
      <trkpt lat="40.496200" lon="-5.217717">
        <ele>2715.0</ele>
        <time>2018-09-01T12:57:48Z</time>
      </trkpt>
      <trkpt lat="40.496283" lon="-5.217733">
        <ele>2715.0</ele>
        <time>2018-09-01T12:57:49Z</time>
      </trkpt>
      <trkpt lat="40.496350" lon="-5.217767">
        <ele>2716.0</ele>
        <time>2018-09-01T12:57:50Z</time>
      </trkpt>
      <trkpt lat="40.496400" lon="-5.217817">
        <ele>2717.0</ele>
        <time>2018-09-01T12:57:51Z</time>
      </trkpt>
      <trkpt lat="40.496450" lon="-5.217900">
        <ele>2718.0</ele>
        <time>2018-09-01T12:57:52Z</time>
      </trkpt>
      <trkpt lat="40.496450" lon="-5.217983">
        <ele>2718.0</ele>
        <time>2018-09-01T12:57:53Z</time>
      </trkpt>
      <trkpt lat="40.496450" lon="-5.218100">
        <ele>2718.0</ele>
        <time>2018-09-01T12:57:54Z</time>
      </trkpt>
      <trkpt lat="40.496417" lon="-5.218217">
        <ele>2718.0</ele>
        <time>2018-09-01T12:57:55Z</time>
      </trkpt>
      <trkpt lat="40.496367" lon="-5.218333">
        <ele>2717.0</ele>
        <time>2018-09-01T12:57:56Z</time>
      </trkpt>
      <trkpt lat="40.496300" lon="-5.218450">
        <ele>2716.0</ele>
        <time>2018-09-01T12:57:57Z</time>
      </trkpt>
      <trkpt lat="40.496233" lon="-5.218567">
        <ele>2716.0</ele>
        <time>2018-09-01T12:57:58Z</time>
      </trkpt>
      <trkpt lat="40.496167" lon="-5.218667">
        <ele>2715.0</ele>
        <time>2018-09-01T12:57:59Z</time>
      </trkpt>
      <trkpt lat="40.496083" lon="-5.218750">
        <ele>2714.0</ele>
        <time>2018-09-01T12:58:00Z</time>
      </trkpt>
      <trkpt lat="40.495983" lon="-5.218817">
        <ele>2714.0</ele>
        <time>2018-09-01T12:58:01Z</time>
      </trkpt>
      <trkpt lat="40.495867" lon="-5.218850">
        <ele>2713.0</ele>
        <time>2018-09-01T12:58:02Z</time>
      </trkpt>
      <trkpt lat="40.495750" lon="-5.218850">
        <ele>2713.0</ele>
        <time>2018-09-01T12:58:03Z</time>
      </trkpt>
      <trkpt lat="40.495650" lon="-5.218833">
        <ele>2713.0</ele>
        <time>2018-09-01T12:58:04Z</time>
      </trkpt>
      <trkpt lat="40.495533" lon="-5.218783">
        <ele>2712.0</ele>
        <time>2018-09-01T12:58:05Z</time>
      </trkpt>
      <trkpt lat="40.495433" lon="-5.218733">
        <ele>2712.0</ele>
        <time>2018-09-01T12:58:06Z</time>
      </trkpt>
      <trkpt lat="40.495333" lon="-5.218650">
        <ele>2712.0</ele>
        <time>2018-09-01T12:58:07Z</time>
      </trkpt>
      <trkpt lat="40.495250" lon="-5.218583">
        <ele>2711.0</ele>
        <time>2018-09-01T12:58:08Z</time>
      </trkpt>
      <trkpt lat="40.495167" lon="-5.218500">
        <ele>2710.0</ele>
        <time>2018-09-01T12:58:09Z</time>
      </trkpt>
      <trkpt lat="40.495067" lon="-5.218400">
        <ele>2710.0</ele>
        <time>2018-09-01T12:58:10Z</time>
      </trkpt>
      <trkpt lat="40.494983" lon="-5.218300">
        <ele>2709.0</ele>
        <time>2018-09-01T12:58:11Z</time>
      </trkpt>
      <trkpt lat="40.494917" lon="-5.218167">
        <ele>2709.0</ele>
        <time>2018-09-01T12:58:12Z</time>
      </trkpt>
      <trkpt lat="40.494850" lon="-5.218033">
        <ele>2710.0</ele>
        <time>2018-09-01T12:58:13Z</time>
      </trkpt>
      <trkpt lat="40.494800" lon="-5.217900">
        <ele>2712.0</ele>
        <time>2018-09-01T12:58:14Z</time>
      </trkpt>
      <trkpt lat="40.494767" lon="-5.217783">
        <ele>2712.0</ele>
        <time>2018-09-01T12:58:15Z</time>
      </trkpt>
      <trkpt lat="40.494750" lon="-5.217667">
        <ele>2712.0</ele>
        <time>2018-09-01T12:58:16Z</time>
      </trkpt>
      <trkpt lat="40.494733" lon="-5.217533">
        <ele>2712.0</ele>
        <time>2018-09-01T12:58:17Z</time>
      </trkpt>
      <trkpt lat="40.494733" lon="-5.217400">
        <ele>2711.0</ele>
        <time>2018-09-01T12:58:18Z</time>
      </trkpt>
      <trkpt lat="40.494750" lon="-5.217283">
        <ele>2710.0</ele>
        <time>2018-09-01T12:58:19Z</time>
      </trkpt>
      <trkpt lat="40.494783" lon="-5.217150">
        <ele>2708.0</ele>
        <time>2018-09-01T12:58:20Z</time>
      </trkpt>
      <trkpt lat="40.494833" lon="-5.217033">
        <ele>2707.0</ele>
        <time>2018-09-01T12:58:21Z</time>
      </trkpt>
      <trkpt lat="40.494900" lon="-5.216933">
        <ele>2706.0</ele>
        <time>2018-09-01T12:58:22Z</time>
      </trkpt>
      <trkpt lat="40.494967" lon="-5.216833">
        <ele>2705.0</ele>
        <time>2018-09-01T12:58:23Z</time>
      </trkpt>
      <trkpt lat="40.495067" lon="-5.216750">
        <ele>2704.0</ele>
        <time>2018-09-01T12:58:24Z</time>
      </trkpt>
      <trkpt lat="40.495167" lon="-5.216650">
        <ele>2703.0</ele>
        <time>2018-09-01T12:58:25Z</time>
      </trkpt>
      <trkpt lat="40.495267" lon="-5.216567">
        <ele>2702.0</ele>
        <time>2018-09-01T12:58:26Z</time>
      </trkpt>
      <trkpt lat="40.495367" lon="-5.216500">
        <ele>2702.0</ele>
        <time>2018-09-01T12:58:27Z</time>
      </trkpt>
      <trkpt lat="40.495450" lon="-5.216433">
        <ele>2701.0</ele>
        <time>2018-09-01T12:58:28Z</time>
      </trkpt>
      <trkpt lat="40.495550" lon="-5.216350">
        <ele>2700.0</ele>
        <time>2018-09-01T12:58:29Z</time>
      </trkpt>
      <trkpt lat="40.495650" lon="-5.216283">
        <ele>2699.0</ele>
        <time>2018-09-01T12:58:30Z</time>
      </trkpt>
      <trkpt lat="40.495733" lon="-5.216217">
        <ele>2698.0</ele>
        <time>2018-09-01T12:58:31Z</time>
      </trkpt>
      <trkpt lat="40.495833" lon="-5.216150">
        <ele>2699.0</ele>
        <time>2018-09-01T12:58:32Z</time>
      </trkpt>
      <trkpt lat="40.495917" lon="-5.216067">
        <ele>2699.0</ele>
        <time>2018-09-01T12:58:33Z</time>
      </trkpt>
      <trkpt lat="40.495983" lon="-5.215983">
        <ele>2701.0</ele>
        <time>2018-09-01T12:58:34Z</time>
      </trkpt>
      <trkpt lat="40.496067" lon="-5.215933">
        <ele>2702.0</ele>
        <time>2018-09-01T12:58:35Z</time>
      </trkpt>
      <trkpt lat="40.496133" lon="-5.215883">
        <ele>2702.0</ele>
        <time>2018-09-01T12:58:36Z</time>
      </trkpt>
      <trkpt lat="40.496217" lon="-5.215850">
        <ele>2701.0</ele>
        <time>2018-09-01T12:58:37Z</time>
      </trkpt>
      <trkpt lat="40.496300" lon="-5.215817">
        <ele>2700.0</ele>
        <time>2018-09-01T12:58:38Z</time>
      </trkpt>
      <trkpt lat="40.496400" lon="-5.215800">
        <ele>2700.0</ele>
        <time>2018-09-01T12:58:39Z</time>
      </trkpt>
      <trkpt lat="40.496483" lon="-5.215817">
        <ele>2700.0</ele>
        <time>2018-09-01T12:58:40Z</time>
      </trkpt>
      <trkpt lat="40.496550" lon="-5.215833">
        <ele>2702.0</ele>
        <time>2018-09-01T12:58:41Z</time>
      </trkpt>
      <trkpt lat="40.496617" lon="-5.215850">
        <ele>2705.0</ele>
        <time>2018-09-01T12:58:42Z</time>
      </trkpt>
      <trkpt lat="40.496650" lon="-5.215883">
        <ele>2706.0</ele>
        <time>2018-09-01T12:58:43Z</time>
      </trkpt>
      <trkpt lat="40.496683" lon="-5.215950">
        <ele>2706.0</ele>
        <time>2018-09-01T12:58:44Z</time>
      </trkpt>
      <trkpt lat="40.496700" lon="-5.216017">
        <ele>2705.0</ele>
        <time>2018-09-01T12:58:45Z</time>
      </trkpt>
      <trkpt lat="40.496683" lon="-5.216117">
        <ele>2703.0</ele>
        <time>2018-09-01T12:58:46Z</time>
      </trkpt>
      <trkpt lat="40.496650" lon="-5.216217">
        <ele>2703.0</ele>
        <time>2018-09-01T12:58:47Z</time>
      </trkpt>
      <trkpt lat="40.496583" lon="-5.216300">
        <ele>2702.0</ele>
        <time>2018-09-01T12:58:48Z</time>
      </trkpt>
      <trkpt lat="40.496517" lon="-5.216367">
        <ele>2704.0</ele>
        <time>2018-09-01T12:58:49Z</time>
      </trkpt>
      <trkpt lat="40.496467" lon="-5.216417">
        <ele>2706.0</ele>
        <time>2018-09-01T12:58:50Z</time>
      </trkpt>
      <trkpt lat="40.496400" lon="-5.216433">
        <ele>2708.0</ele>
        <time>2018-09-01T12:58:51Z</time>
      </trkpt>
      <trkpt lat="40.496350" lon="-5.216450">
        <ele>2708.0</ele>
        <time>2018-09-01T12:58:52Z</time>
      </trkpt>
      <trkpt lat="40.496283" lon="-5.216467">
        <ele>2708.0</ele>
        <time>2018-09-01T12:58:53Z</time>
      </trkpt>
      <trkpt lat="40.496183" lon="-5.216467">
        <ele>2706.0</ele>
        <time>2018-09-01T12:58:54Z</time>
      </trkpt>
      <trkpt lat="40.496067" lon="-5.216433">
        <ele>2705.0</ele>
        <time>2018-09-01T12:58:55Z</time>
      </trkpt>
      <trkpt lat="40.495950" lon="-5.216383">
        <ele>2705.0</ele>
        <time>2018-09-01T12:58:56Z</time>
      </trkpt>
      <trkpt lat="40.495850" lon="-5.216267">
        <ele>2706.0</ele>
        <time>2018-09-01T12:58:57Z</time>
      </trkpt>
      <trkpt lat="40.495767" lon="-5.216133">
        <ele>2707.0</ele>
        <time>2018-09-01T12:58:58Z</time>
      </trkpt>
      <trkpt lat="40.495717" lon="-5.215983">
        <ele>2708.0</ele>
        <time>2018-09-01T12:58:59Z</time>
      </trkpt>
      <trkpt lat="40.495700" lon="-5.215817">
        <ele>2707.0</ele>
        <time>2018-09-01T12:59:00Z</time>
      </trkpt>
      <trkpt lat="40.495700" lon="-5.215633">
        <ele>2706.0</ele>
        <time>2018-09-01T12:59:01Z</time>
      </trkpt>
      <trkpt lat="40.495717" lon="-5.215450">
        <ele>2705.0</ele>
        <time>2018-09-01T12:59:02Z</time>
      </trkpt>
      <trkpt lat="40.495750" lon="-5.215267">
        <ele>2704.0</ele>
        <time>2018-09-01T12:59:03Z</time>
      </trkpt>
      <trkpt lat="40.495783" lon="-5.215100">
        <ele>2703.0</ele>
        <time>2018-09-01T12:59:04Z</time>
      </trkpt>
      <trkpt lat="40.495833" lon="-5.214933">
        <ele>2702.0</ele>
        <time>2018-09-01T12:59:05Z</time>
      </trkpt>
      <trkpt lat="40.495900" lon="-5.214783">
        <ele>2701.0</ele>
        <time>2018-09-01T12:59:06Z</time>
      </trkpt>
      <trkpt lat="40.495983" lon="-5.214633">
        <ele>2701.0</ele>
        <time>2018-09-01T12:59:07Z</time>
      </trkpt>
      <trkpt lat="40.496050" lon="-5.214500">
        <ele>2700.0</ele>
        <time>2018-09-01T12:59:08Z</time>
      </trkpt>
      <trkpt lat="40.496133" lon="-5.214367">
        <ele>2701.0</ele>
        <time>2018-09-01T12:59:09Z</time>
      </trkpt>
      <trkpt lat="40.496217" lon="-5.214250">
        <ele>2702.0</ele>
        <time>2018-09-01T12:59:10Z</time>
      </trkpt>
      <trkpt lat="40.496283" lon="-5.214133">
        <ele>2704.0</ele>
        <time>2018-09-01T12:59:11Z</time>
      </trkpt>
      <trkpt lat="40.496367" lon="-5.214033">
        <ele>2707.0</ele>
        <time>2018-09-01T12:59:12Z</time>
      </trkpt>
      <trkpt lat="40.496433" lon="-5.213950">
        <ele>2708.0</ele>
        <time>2018-09-01T12:59:13Z</time>
      </trkpt>
      <trkpt lat="40.496500" lon="-5.213850">
        <ele>2710.0</ele>
        <time>2018-09-01T12:59:14Z</time>
      </trkpt>
      <trkpt lat="40.496583" lon="-5.213750">
        <ele>2711.0</ele>
        <time>2018-09-01T12:59:15Z</time>
      </trkpt>
      <trkpt lat="40.496667" lon="-5.213650">
        <ele>2712.0</ele>
        <time>2018-09-01T12:59:16Z</time>
      </trkpt>
      <trkpt lat="40.496750" lon="-5.213583">
        <ele>2713.0</ele>
        <time>2018-09-01T12:59:17Z</time>
      </trkpt>
      <trkpt lat="40.496833" lon="-5.213517">
        <ele>2714.0</ele>
        <time>2018-09-01T12:59:18Z</time>
      </trkpt>
      <trkpt lat="40.496933" lon="-5.213467">
        <ele>2717.0</ele>
        <time>2018-09-01T12:59:19Z</time>
      </trkpt>
      <trkpt lat="40.497017" lon="-5.213417">
        <ele>2718.0</ele>
        <time>2018-09-01T12:59:20Z</time>
      </trkpt>
      <trkpt lat="40.497083" lon="-5.213367">
        <ele>2720.0</ele>
        <time>2018-09-01T12:59:21Z</time>
      </trkpt>
      <trkpt lat="40.497167" lon="-5.213350">
        <ele>2721.0</ele>
        <time>2018-09-01T12:59:22Z</time>
      </trkpt>
      <trkpt lat="40.497250" lon="-5.213350">
        <ele>2723.0</ele>
        <time>2018-09-01T12:59:23Z</time>
      </trkpt>
      <trkpt lat="40.497350" lon="-5.213367">
        <ele>2724.0</ele>
        <time>2018-09-01T12:59:24Z</time>
      </trkpt>
      <trkpt lat="40.497433" lon="-5.213383">
        <ele>2726.0</ele>
        <time>2018-09-01T12:59:25Z</time>
      </trkpt>
      <trkpt lat="40.497533" lon="-5.213417">
        <ele>2728.0</ele>
        <time>2018-09-01T12:59:26Z</time>
      </trkpt>
      <trkpt lat="40.497617" lon="-5.213467">
        <ele>2730.0</ele>
        <time>2018-09-01T12:59:27Z</time>
      </trkpt>
      <trkpt lat="40.497700" lon="-5.213500">
        <ele>2732.0</ele>
        <time>2018-09-01T12:59:28Z</time>
      </trkpt>
      <trkpt lat="40.497783" lon="-5.213533">
        <ele>2735.0</ele>
        <time>2018-09-01T12:59:29Z</time>
      </trkpt>
      <trkpt lat="40.497883" lon="-5.213550">
        <ele>2737.0</ele>
        <time>2018-09-01T12:59:30Z</time>
      </trkpt>
      <trkpt lat="40.497950" lon="-5.213567">
        <ele>2740.0</ele>
        <time>2018-09-01T12:59:31Z</time>
      </trkpt>
      <trkpt lat="40.498017" lon="-5.213600">
        <ele>2742.0</ele>
        <time>2018-09-01T12:59:32Z</time>
      </trkpt>
      <trkpt lat="40.498083" lon="-5.213650">
        <ele>2743.0</ele>
        <time>2018-09-01T12:59:33Z</time>
      </trkpt>
      <trkpt lat="40.498133" lon="-5.213733">
        <ele>2744.0</ele>
        <time>2018-09-01T12:59:34Z</time>
      </trkpt>
      <trkpt lat="40.498133" lon="-5.213817">
        <ele>2745.0</ele>
        <time>2018-09-01T12:59:35Z</time>
      </trkpt>
      <trkpt lat="40.498133" lon="-5.213917">
        <ele>2747.0</ele>
        <time>2018-09-01T12:59:36Z</time>
      </trkpt>
      <trkpt lat="40.498083" lon="-5.214000">
        <ele>2747.0</ele>
        <time>2018-09-01T12:59:37Z</time>
      </trkpt>
      <trkpt lat="40.498017" lon="-5.214083">
        <ele>2748.0</ele>
        <time>2018-09-01T12:59:38Z</time>
      </trkpt>
      <trkpt lat="40.497933" lon="-5.214150">
        <ele>2749.0</ele>
        <time>2018-09-01T12:59:39Z</time>
      </trkpt>
      <trkpt lat="40.497833" lon="-5.214183">
        <ele>2750.0</ele>
        <time>2018-09-01T12:59:40Z</time>
      </trkpt>
      <trkpt lat="40.497717" lon="-5.214150">
        <ele>2752.0</ele>
        <time>2018-09-01T12:59:41Z</time>
      </trkpt>
      <trkpt lat="40.497617" lon="-5.214067">
        <ele>2752.0</ele>
        <time>2018-09-01T12:59:42Z</time>
      </trkpt>
      <trkpt lat="40.497533" lon="-5.213933">
        <ele>2753.0</ele>
        <time>2018-09-01T12:59:43Z</time>
      </trkpt>
      <trkpt lat="40.497467" lon="-5.213783">
        <ele>2755.0</ele>
        <time>2018-09-01T12:59:44Z</time>
      </trkpt>
      <trkpt lat="40.497433" lon="-5.213633">
        <ele>2758.0</ele>
        <time>2018-09-01T12:59:45Z</time>
      </trkpt>
      <trkpt lat="40.497433" lon="-5.213483">
        <ele>2761.0</ele>
        <time>2018-09-01T12:59:46Z</time>
      </trkpt>
      <trkpt lat="40.497450" lon="-5.213350">
        <ele>2763.0</ele>
        <time>2018-09-01T12:59:47Z</time>
      </trkpt>
      <trkpt lat="40.497483" lon="-5.213217">
        <ele>2764.0</ele>
        <time>2018-09-01T12:59:48Z</time>
      </trkpt>
      <trkpt lat="40.497517" lon="-5.213083">
        <ele>2765.0</ele>
        <time>2018-09-01T12:59:49Z</time>
      </trkpt>
      <trkpt lat="40.497567" lon="-5.212950">
        <ele>2766.0</ele>
        <time>2018-09-01T12:59:50Z</time>
      </trkpt>
      <trkpt lat="40.497633" lon="-5.212850">
        <ele>2767.0</ele>
        <time>2018-09-01T12:59:51Z</time>
      </trkpt>
      <trkpt lat="40.497733" lon="-5.212750">
        <ele>2767.0</ele>
        <time>2018-09-01T12:59:52Z</time>
      </trkpt>
      <trkpt lat="40.497817" lon="-5.212700">
        <ele>2768.0</ele>
        <time>2018-09-01T12:59:53Z</time>
      </trkpt>
      <trkpt lat="40.497917" lon="-5.212667">
        <ele>2771.0</ele>
        <time>2018-09-01T12:59:54Z</time>
      </trkpt>
      <trkpt lat="40.498017" lon="-5.212650">
        <ele>2774.0</ele>
        <time>2018-09-01T12:59:55Z</time>
      </trkpt>
      <trkpt lat="40.498100" lon="-5.212617">
        <ele>2778.0</ele>
        <time>2018-09-01T12:59:56Z</time>
      </trkpt>
      <trkpt lat="40.498183" lon="-5.212583">
        <ele>2780.0</ele>
        <time>2018-09-01T12:59:57Z</time>
      </trkpt>
      <trkpt lat="40.498267" lon="-5.212550">
        <ele>2781.0</ele>
        <time>2018-09-01T12:59:58Z</time>
      </trkpt>
      <trkpt lat="40.498350" lon="-5.212533">
        <ele>2781.0</ele>
        <time>2018-09-01T12:59:59Z</time>
      </trkpt>
      <trkpt lat="40.498433" lon="-5.212550">
        <ele>2781.0</ele>
        <time>2018-09-01T13:00:00Z</time>
      </trkpt>
      <trkpt lat="40.498500" lon="-5.212583">
        <ele>2780.0</ele>
        <time>2018-09-01T13:00:01Z</time>
      </trkpt>
      <trkpt lat="40.498550" lon="-5.212667">
        <ele>2779.0</ele>
        <time>2018-09-01T13:00:02Z</time>
      </trkpt>
      <trkpt lat="40.498567" lon="-5.212750">
        <ele>2777.0</ele>
        <time>2018-09-01T13:00:03Z</time>
      </trkpt>
      <trkpt lat="40.498550" lon="-5.212850">
        <ele>2775.0</ele>
        <time>2018-09-01T13:00:04Z</time>
      </trkpt>
      <trkpt lat="40.498517" lon="-5.212933">
        <ele>2775.0</ele>
        <time>2018-09-01T13:00:05Z</time>
      </trkpt>
      <trkpt lat="40.498483" lon="-5.213033">
        <ele>2777.0</ele>
        <time>2018-09-01T13:00:06Z</time>
      </trkpt>
      <trkpt lat="40.498450" lon="-5.213117">
        <ele>2779.0</ele>
        <time>2018-09-01T13:00:07Z</time>
      </trkpt>
      <trkpt lat="40.498400" lon="-5.213183">
        <ele>2780.0</ele>
        <time>2018-09-01T13:00:08Z</time>
      </trkpt>
      <trkpt lat="40.498350" lon="-5.213233">
        <ele>2781.0</ele>
        <time>2018-09-01T13:00:09Z</time>
      </trkpt>
      <trkpt lat="40.498267" lon="-5.213267">
        <ele>2783.0</ele>
        <time>2018-09-01T13:00:10Z</time>
      </trkpt>
      <trkpt lat="40.498167" lon="-5.213283">
        <ele>2785.0</ele>
        <time>2018-09-01T13:00:11Z</time>
      </trkpt>
      <trkpt lat="40.498083" lon="-5.213250">
        <ele>2787.0</ele>
        <time>2018-09-01T13:00:12Z</time>
      </trkpt>
      <trkpt lat="40.498000" lon="-5.213200">
        <ele>2788.0</ele>
        <time>2018-09-01T13:00:13Z</time>
      </trkpt>
      <trkpt lat="40.497917" lon="-5.213133">
        <ele>2789.0</ele>
        <time>2018-09-01T13:00:14Z</time>
      </trkpt>
      <trkpt lat="40.497833" lon="-5.213033">
        <ele>2789.0</ele>
        <time>2018-09-01T13:00:15Z</time>
      </trkpt>
      <trkpt lat="40.497750" lon="-5.212917">
        <ele>2789.0</ele>
        <time>2018-09-01T13:00:16Z</time>
      </trkpt>
      <trkpt lat="40.497683" lon="-5.212783">
        <ele>2790.0</ele>
        <time>2018-09-01T13:00:17Z</time>
      </trkpt>
      <trkpt lat="40.497650" lon="-5.212617">
        <ele>2791.0</ele>
        <time>2018-09-01T13:00:18Z</time>
      </trkpt>
      <trkpt lat="40.497650" lon="-5.212433">
        <ele>2792.0</ele>
        <time>2018-09-01T13:00:19Z</time>
      </trkpt>
      <trkpt lat="40.497667" lon="-5.212250">
        <ele>2794.0</ele>
        <time>2018-09-01T13:00:20Z</time>
      </trkpt>
      <trkpt lat="40.497700" lon="-5.212067">
        <ele>2796.0</ele>
        <time>2018-09-01T13:00:21Z</time>
      </trkpt>
      <trkpt lat="40.497733" lon="-5.211900">
        <ele>2800.0</ele>
        <time>2018-09-01T13:00:22Z</time>
      </trkpt>
      <trkpt lat="40.497783" lon="-5.211750">
        <ele>2803.0</ele>
        <time>2018-09-01T13:00:23Z</time>
      </trkpt>
      <trkpt lat="40.497833" lon="-5.211617">
        <ele>2806.0</ele>
        <time>2018-09-01T13:00:24Z</time>
      </trkpt>
      <trkpt lat="40.497883" lon="-5.211500">
        <ele>2807.0</ele>
        <time>2018-09-01T13:00:25Z</time>
      </trkpt>
      <trkpt lat="40.497967" lon="-5.211400">
        <ele>2808.0</ele>
        <time>2018-09-01T13:00:26Z</time>
      </trkpt>
      <trkpt lat="40.498050" lon="-5.211333">
        <ele>2808.0</ele>
        <time>2018-09-01T13:00:27Z</time>
      </trkpt>
      <trkpt lat="40.498150" lon="-5.211267">
        <ele>2808.0</ele>
        <time>2018-09-01T13:00:28Z</time>
      </trkpt>
      <trkpt lat="40.498267" lon="-5.211233">
        <ele>2808.0</ele>
        <time>2018-09-01T13:00:29Z</time>
      </trkpt>
      <trkpt lat="40.498367" lon="-5.211233">
        <ele>2810.0</ele>
        <time>2018-09-01T13:00:30Z</time>
      </trkpt>
      <trkpt lat="40.498433" lon="-5.211267">
        <ele>2811.0</ele>
        <time>2018-09-01T13:00:31Z</time>
      </trkpt>
      <trkpt lat="40.498500" lon="-5.211300">
        <ele>2812.0</ele>
        <time>2018-09-01T13:00:32Z</time>
      </trkpt>
      <trkpt lat="40.498550" lon="-5.211350">
        <ele>2813.0</ele>
        <time>2018-09-01T13:00:33Z</time>
      </trkpt>
      <trkpt lat="40.498583" lon="-5.211400">
        <ele>2813.0</ele>
        <time>2018-09-01T13:00:34Z</time>
      </trkpt>
      <trkpt lat="40.498600" lon="-5.211467">
        <ele>2811.0</ele>
        <time>2018-09-01T13:00:35Z</time>
      </trkpt>
      <trkpt lat="40.498600" lon="-5.211550">
        <ele>2809.0</ele>
        <time>2018-09-01T13:00:36Z</time>
      </trkpt>
      <trkpt lat="40.498583" lon="-5.211633">
        <ele>2807.0</ele>
        <time>2018-09-01T13:00:37Z</time>
      </trkpt>
      <trkpt lat="40.498533" lon="-5.211733">
        <ele>2806.0</ele>
        <time>2018-09-01T13:00:38Z</time>
      </trkpt>
      <trkpt lat="40.498483" lon="-5.211817">
        <ele>2805.0</ele>
        <time>2018-09-01T13:00:39Z</time>
      </trkpt>
      <trkpt lat="40.498417" lon="-5.211883">
        <ele>2805.0</ele>
        <time>2018-09-01T13:00:40Z</time>
      </trkpt>
      <trkpt lat="40.498350" lon="-5.211933">
        <ele>2805.0</ele>
        <time>2018-09-01T13:00:41Z</time>
      </trkpt>
      <trkpt lat="40.498267" lon="-5.211967">
        <ele>2805.0</ele>
        <time>2018-09-01T13:00:42Z</time>
      </trkpt>
      <trkpt lat="40.498150" lon="-5.211983">
        <ele>2805.0</ele>
        <time>2018-09-01T13:00:43Z</time>
      </trkpt>
      <trkpt lat="40.498033" lon="-5.211983">
        <ele>2805.0</ele>
        <time>2018-09-01T13:00:44Z</time>
      </trkpt>
      <trkpt lat="40.497917" lon="-5.211967">
        <ele>2806.0</ele>
        <time>2018-09-01T13:00:45Z</time>
      </trkpt>
      <trkpt lat="40.497800" lon="-5.211933">
        <ele>2809.0</ele>
        <time>2018-09-01T13:00:46Z</time>
      </trkpt>
      <trkpt lat="40.497700" lon="-5.211900">
        <ele>2812.0</ele>
        <time>2018-09-01T13:00:47Z</time>
      </trkpt>
      <trkpt lat="40.497600" lon="-5.211850">
        <ele>2815.0</ele>
        <time>2018-09-01T13:00:48Z</time>
      </trkpt>
      <trkpt lat="40.497517" lon="-5.211783">
        <ele>2817.0</ele>
        <time>2018-09-01T13:00:49Z</time>
      </trkpt>
      <trkpt lat="40.497417" lon="-5.211700">
        <ele>2818.0</ele>
        <time>2018-09-01T13:00:50Z</time>
      </trkpt>
      <trkpt lat="40.497333" lon="-5.211617">
        <ele>2819.0</ele>
        <time>2018-09-01T13:00:51Z</time>
      </trkpt>
      <trkpt lat="40.497233" lon="-5.211517">
        <ele>2820.0</ele>
        <time>2018-09-01T13:00:52Z</time>
      </trkpt>
      <trkpt lat="40.497167" lon="-5.211383">
        <ele>2822.0</ele>
        <time>2018-09-01T13:00:53Z</time>
      </trkpt>
      <trkpt lat="40.497083" lon="-5.211250">
        <ele>2825.0</ele>
        <time>2018-09-01T13:00:54Z</time>
      </trkpt>
      <trkpt lat="40.497033" lon="-5.211083">
        <ele>2828.0</ele>
        <time>2018-09-01T13:00:55Z</time>
      </trkpt>
      <trkpt lat="40.497017" lon="-5.210917">
        <ele>2830.0</ele>
        <time>2018-09-01T13:00:56Z</time>
      </trkpt>
      <trkpt lat="40.497000" lon="-5.210750">
        <ele>2832.0</ele>
        <time>2018-09-01T13:00:57Z</time>
      </trkpt>
      <trkpt lat="40.497017" lon="-5.210600">
        <ele>2833.0</ele>
        <time>2018-09-01T13:00:58Z</time>
      </trkpt>
      <trkpt lat="40.497050" lon="-5.210433">
        <ele>2834.0</ele>
        <time>2018-09-01T13:00:59Z</time>
      </trkpt>
      <trkpt lat="40.497100" lon="-5.210283">
        <ele>2835.0</ele>
        <time>2018-09-01T13:01:00Z</time>
      </trkpt>
      <trkpt lat="40.497167" lon="-5.210183">
        <ele>2837.0</ele>
        <time>2018-09-01T13:01:01Z</time>
      </trkpt>
      <trkpt lat="40.497250" lon="-5.210100">
        <ele>2839.0</ele>
        <time>2018-09-01T13:01:02Z</time>
      </trkpt>
      <trkpt lat="40.497317" lon="-5.210083">
        <ele>2840.0</ele>
        <time>2018-09-01T13:01:03Z</time>
      </trkpt>
      <trkpt lat="40.497417" lon="-5.210083">
        <ele>2840.0</ele>
        <time>2018-09-01T13:01:04Z</time>
      </trkpt>
      <trkpt lat="40.497500" lon="-5.210117">
        <ele>2838.0</ele>
        <time>2018-09-01T13:01:05Z</time>
      </trkpt>
      <trkpt lat="40.497583" lon="-5.210200">
        <ele>2837.0</ele>
        <time>2018-09-01T13:01:06Z</time>
      </trkpt>
      <trkpt lat="40.497667" lon="-5.210283">
        <ele>2837.0</ele>
        <time>2018-09-01T13:01:07Z</time>
      </trkpt>
      <trkpt lat="40.497733" lon="-5.210367">
        <ele>2837.0</ele>
        <time>2018-09-01T13:01:08Z</time>
      </trkpt>
      <trkpt lat="40.497800" lon="-5.210467">
        <ele>2839.0</ele>
        <time>2018-09-01T13:01:09Z</time>
      </trkpt>
      <trkpt lat="40.497850" lon="-5.210550">
        <ele>2841.0</ele>
        <time>2018-09-01T13:01:10Z</time>
      </trkpt>
      <trkpt lat="40.497900" lon="-5.210633">
        <ele>2843.0</ele>
        <time>2018-09-01T13:01:11Z</time>
      </trkpt>
      <trkpt lat="40.497950" lon="-5.210700">
        <ele>2844.0</ele>
        <time>2018-09-01T13:01:12Z</time>
      </trkpt>
      <trkpt lat="40.497967" lon="-5.210767">
        <ele>2846.0</ele>
        <time>2018-09-01T13:01:13Z</time>
      </trkpt>
      <trkpt lat="40.498000" lon="-5.210817">
        <ele>2848.0</ele>
        <time>2018-09-01T13:01:14Z</time>
      </trkpt>
      <trkpt lat="40.498017" lon="-5.210867">
        <ele>2849.0</ele>
        <time>2018-09-01T13:01:15Z</time>
      </trkpt>
      <trkpt lat="40.498050" lon="-5.210933">
        <ele>2850.0</ele>
        <time>2018-09-01T13:01:16Z</time>
      </trkpt>
      <trkpt lat="40.498100" lon="-5.211000">
        <ele>2850.0</ele>
        <time>2018-09-01T13:01:17Z</time>
      </trkpt>
      <trkpt lat="40.498150" lon="-5.211083">
        <ele>2850.0</ele>
        <time>2018-09-01T13:01:18Z</time>
      </trkpt>
      <trkpt lat="40.498183" lon="-5.211183">
        <ele>2851.0</ele>
        <time>2018-09-01T13:01:19Z</time>
      </trkpt>
      <trkpt lat="40.498217" lon="-5.211283">
        <ele>2853.0</ele>
        <time>2018-09-01T13:01:20Z</time>
      </trkpt>
      <trkpt lat="40.498233" lon="-5.211383">
        <ele>2855.0</ele>
        <time>2018-09-01T13:01:21Z</time>
      </trkpt>
      <trkpt lat="40.498217" lon="-5.211500">
        <ele>2857.0</ele>
        <time>2018-09-01T13:01:22Z</time>
      </trkpt>
      <trkpt lat="40.498200" lon="-5.211600">
        <ele>2859.0</ele>
        <time>2018-09-01T13:01:23Z</time>
      </trkpt>
      <trkpt lat="40.498150" lon="-5.211700">
        <ele>2860.0</ele>
        <time>2018-09-01T13:01:24Z</time>
      </trkpt>
      <trkpt lat="40.498083" lon="-5.211767">
        <ele>2862.0</ele>
        <time>2018-09-01T13:01:25Z</time>
      </trkpt>
      <trkpt lat="40.498000" lon="-5.211833">
        <ele>2862.0</ele>
        <time>2018-09-01T13:01:26Z</time>
      </trkpt>
      <trkpt lat="40.497900" lon="-5.211883">
        <ele>2863.0</ele>
        <time>2018-09-01T13:01:27Z</time>
      </trkpt>
      <trkpt lat="40.497783" lon="-5.211883">
        <ele>2865.0</ele>
        <time>2018-09-01T13:01:28Z</time>
      </trkpt>
      <trkpt lat="40.497667" lon="-5.211867">
        <ele>2868.0</ele>
        <time>2018-09-01T13:01:29Z</time>
      </trkpt>
      <trkpt lat="40.497567" lon="-5.211800">
        <ele>2871.0</ele>
        <time>2018-09-01T13:01:30Z</time>
      </trkpt>
      <trkpt lat="40.497483" lon="-5.211717">
        <ele>2874.0</ele>
        <time>2018-09-01T13:01:31Z</time>
      </trkpt>
      <trkpt lat="40.497400" lon="-5.211600">
        <ele>2876.0</ele>
        <time>2018-09-01T13:01:32Z</time>
      </trkpt>
      <trkpt lat="40.497350" lon="-5.211483">
        <ele>2877.0</ele>
        <time>2018-09-01T13:01:33Z</time>
      </trkpt>
      <trkpt lat="40.497317" lon="-5.211333">
        <ele>2878.0</ele>
        <time>2018-09-01T13:01:34Z</time>
      </trkpt>
      <trkpt lat="40.497300" lon="-5.211167">
        <ele>2880.0</ele>
        <time>2018-09-01T13:01:35Z</time>
      </trkpt>
      <trkpt lat="40.497317" lon="-5.211033">
        <ele>2883.0</ele>
        <time>2018-09-01T13:01:36Z</time>
      </trkpt>
      <trkpt lat="40.497367" lon="-5.210900">
        <ele>2886.0</ele>
        <time>2018-09-01T13:01:37Z</time>
      </trkpt>
      <trkpt lat="40.497433" lon="-5.210817">
        <ele>2888.0</ele>
        <time>2018-09-01T13:01:38Z</time>
      </trkpt>
      <trkpt lat="40.497517" lon="-5.210767">
        <ele>2889.0</ele>
        <time>2018-09-01T13:01:39Z</time>
      </trkpt>
      <trkpt lat="40.497600" lon="-5.210750">
        <ele>2889.0</ele>
        <time>2018-09-01T13:01:40Z</time>
      </trkpt>
      <trkpt lat="40.497700" lon="-5.210783">
        <ele>2890.0</ele>
        <time>2018-09-01T13:01:41Z</time>
      </trkpt>
      <trkpt lat="40.497767" lon="-5.210850">
        <ele>2890.0</ele>
        <time>2018-09-01T13:01:42Z</time>
      </trkpt>
      <trkpt lat="40.497800" lon="-5.210967">
        <ele>2891.0</ele>
        <time>2018-09-01T13:01:43Z</time>
      </trkpt>
      <trkpt lat="40.497800" lon="-5.211083">
        <ele>2892.0</ele>
        <time>2018-09-01T13:01:44Z</time>
      </trkpt>
      <trkpt lat="40.497767" lon="-5.211183">
        <ele>2894.0</ele>
        <time>2018-09-01T13:01:45Z</time>
      </trkpt>
      <trkpt lat="40.497700" lon="-5.211267">
        <ele>2896.0</ele>
        <time>2018-09-01T13:01:46Z</time>
      </trkpt>
      <trkpt lat="40.497633" lon="-5.211333">
        <ele>2898.0</ele>
        <time>2018-09-01T13:01:47Z</time>
      </trkpt>
      <trkpt lat="40.497533" lon="-5.211383">
        <ele>2900.0</ele>
        <time>2018-09-01T13:01:48Z</time>
      </trkpt>
      <trkpt lat="40.497417" lon="-5.211400">
        <ele>2901.0</ele>
        <time>2018-09-01T13:01:49Z</time>
      </trkpt>
      <trkpt lat="40.497300" lon="-5.211383">
        <ele>2902.0</ele>
        <time>2018-09-01T13:01:50Z</time>
      </trkpt>
      <trkpt lat="40.497183" lon="-5.211317">
        <ele>2904.0</ele>
        <time>2018-09-01T13:01:51Z</time>
      </trkpt>
      <trkpt lat="40.497083" lon="-5.211217">
        <ele>2906.0</ele>
        <time>2018-09-01T13:01:52Z</time>
      </trkpt>
      <trkpt lat="40.497000" lon="-5.211067">
        <ele>2907.0</ele>
        <time>2018-09-01T13:01:53Z</time>
      </trkpt>
      <trkpt lat="40.496967" lon="-5.210900">
        <ele>2907.0</ele>
        <time>2018-09-01T13:01:54Z</time>
      </trkpt>
      <trkpt lat="40.496933" lon="-5.210717">
        <ele>2908.0</ele>
        <time>2018-09-01T13:01:55Z</time>
      </trkpt>
      <trkpt lat="40.496917" lon="-5.210533">
        <ele>2910.0</ele>
        <time>2018-09-01T13:01:56Z</time>
      </trkpt>
      <trkpt lat="40.496933" lon="-5.210367">
        <ele>2915.0</ele>
        <time>2018-09-01T13:01:57Z</time>
      </trkpt>
      <trkpt lat="40.496983" lon="-5.210233">
        <ele>2919.0</ele>
        <time>2018-09-01T13:01:58Z</time>
      </trkpt>
      <trkpt lat="40.497033" lon="-5.210133">
        <ele>2922.0</ele>
        <time>2018-09-01T13:01:59Z</time>
      </trkpt>
      <trkpt lat="40.497100" lon="-5.210050">
        <ele>2925.0</ele>
        <time>2018-09-01T13:02:00Z</time>
      </trkpt>
      <trkpt lat="40.497150" lon="-5.209983">
        <ele>2928.0</ele>
        <time>2018-09-01T13:02:01Z</time>
      </trkpt>
      <trkpt lat="40.497217" lon="-5.209933">
        <ele>2930.0</ele>
        <time>2018-09-01T13:02:02Z</time>
      </trkpt>
      <trkpt lat="40.497283" lon="-5.209917">
        <ele>2930.0</ele>
        <time>2018-09-01T13:02:03Z</time>
      </trkpt>
      <trkpt lat="40.497367" lon="-5.209933">
        <ele>2930.0</ele>
        <time>2018-09-01T13:02:04Z</time>
      </trkpt>
      <trkpt lat="40.497433" lon="-5.209983">
        <ele>2931.0</ele>
        <time>2018-09-01T13:02:05Z</time>
      </trkpt>
      <trkpt lat="40.497483" lon="-5.210083">
        <ele>2933.0</ele>
        <time>2018-09-01T13:02:06Z</time>
      </trkpt>
      <trkpt lat="40.497483" lon="-5.210183">
        <ele>2934.0</ele>
        <time>2018-09-01T13:02:07Z</time>
      </trkpt>
      <trkpt lat="40.497450" lon="-5.210283">
        <ele>2935.0</ele>
        <time>2018-09-01T13:02:08Z</time>
      </trkpt>
      <trkpt lat="40.497400" lon="-5.210383">
        <ele>2934.0</ele>
        <time>2018-09-01T13:02:09Z</time>
      </trkpt>
      <trkpt lat="40.497333" lon="-5.210483">
        <ele>2934.0</ele>
        <time>2018-09-01T13:02:10Z</time>
      </trkpt>
      <trkpt lat="40.497250" lon="-5.210567">
        <ele>2934.0</ele>
        <time>2018-09-01T13:02:11Z</time>
      </trkpt>
      <trkpt lat="40.497133" lon="-5.210633">
        <ele>2935.0</ele>
        <time>2018-09-01T13:02:12Z</time>
      </trkpt>
      <trkpt lat="40.497033" lon="-5.210650">
        <ele>2937.0</ele>
        <time>2018-09-01T13:02:13Z</time>
      </trkpt>
      <trkpt lat="40.496917" lon="-5.210617">
        <ele>2939.0</ele>
        <time>2018-09-01T13:02:14Z</time>
      </trkpt>
      <trkpt lat="40.496800" lon="-5.210550">
        <ele>2941.0</ele>
        <time>2018-09-01T13:02:15Z</time>
      </trkpt>
      <trkpt lat="40.496717" lon="-5.210433">
        <ele>2941.0</ele>
        <time>2018-09-01T13:02:16Z</time>
      </trkpt>
      <trkpt lat="40.496650" lon="-5.210300">
        <ele>2942.0</ele>
        <time>2018-09-01T13:02:17Z</time>
      </trkpt>
      <trkpt lat="40.496600" lon="-5.210150">
        <ele>2943.0</ele>
        <time>2018-09-01T13:02:18Z</time>
      </trkpt>
      <trkpt lat="40.496583" lon="-5.209983">
        <ele>2945.0</ele>
        <time>2018-09-01T13:02:19Z</time>
      </trkpt>
      <trkpt lat="40.496583" lon="-5.209833">
        <ele>2946.0</ele>
        <time>2018-09-01T13:02:20Z</time>
      </trkpt>
      <trkpt lat="40.496600" lon="-5.209700">
        <ele>2947.0</ele>
        <time>2018-09-01T13:02:21Z</time>
      </trkpt>
      <trkpt lat="40.496650" lon="-5.209567">
        <ele>2948.0</ele>
        <time>2018-09-01T13:02:22Z</time>
      </trkpt>
      <trkpt lat="40.496700" lon="-5.209450">
        <ele>2950.0</ele>
        <time>2018-09-01T13:02:23Z</time>
      </trkpt>
      <trkpt lat="40.496767" lon="-5.209350">
        <ele>2952.0</ele>
        <time>2018-09-01T13:02:24Z</time>
      </trkpt>
      <trkpt lat="40.496850" lon="-5.209283">
        <ele>2953.0</ele>
        <time>2018-09-01T13:02:25Z</time>
      </trkpt>
      <trkpt lat="40.496933" lon="-5.209233">
        <ele>2954.0</ele>
        <time>2018-09-01T13:02:26Z</time>
      </trkpt>
      <trkpt lat="40.497017" lon="-5.209217">
        <ele>2955.0</ele>
        <time>2018-09-01T13:02:27Z</time>
      </trkpt>
      <trkpt lat="40.497100" lon="-5.209200">
        <ele>2957.0</ele>
        <time>2018-09-01T13:02:28Z</time>
      </trkpt>
      <trkpt lat="40.497167" lon="-5.209217">
        <ele>2960.0</ele>
        <time>2018-09-01T13:02:29Z</time>
      </trkpt>
      <trkpt lat="40.497233" lon="-5.209233">
        <ele>2962.0</ele>
        <time>2018-09-01T13:02:30Z</time>
      </trkpt>
      <trkpt lat="40.497283" lon="-5.209283">
        <ele>2962.0</ele>
        <time>2018-09-01T13:02:31Z</time>
      </trkpt>
      <trkpt lat="40.497317" lon="-5.209350">
        <ele>2960.0</ele>
        <time>2018-09-01T13:02:32Z</time>
      </trkpt>
      <trkpt lat="40.497333" lon="-5.209450">
        <ele>2958.0</ele>
        <time>2018-09-01T13:02:33Z</time>
      </trkpt>
      <trkpt lat="40.497317" lon="-5.209567">
        <ele>2956.0</ele>
        <time>2018-09-01T13:02:34Z</time>
      </trkpt>
      <trkpt lat="40.497267" lon="-5.209683">
        <ele>2954.0</ele>
        <time>2018-09-01T13:02:35Z</time>
      </trkpt>
      <trkpt lat="40.497167" lon="-5.209783">
        <ele>2952.0</ele>
        <time>2018-09-01T13:02:36Z</time>
      </trkpt>
      <trkpt lat="40.497050" lon="-5.209850">
        <ele>2951.0</ele>
        <time>2018-09-01T13:02:37Z</time>
      </trkpt>
      <trkpt lat="40.496933" lon="-5.209883">
        <ele>2951.0</ele>
        <time>2018-09-01T13:02:38Z</time>
      </trkpt>
      <trkpt lat="40.496800" lon="-5.209900">
        <ele>2953.0</ele>
        <time>2018-09-01T13:02:39Z</time>
      </trkpt>
      <trkpt lat="40.496667" lon="-5.209900">
        <ele>2956.0</ele>
        <time>2018-09-01T13:02:40Z</time>
      </trkpt>
      <trkpt lat="40.496550" lon="-5.209883">
        <ele>2959.0</ele>
        <time>2018-09-01T13:02:41Z</time>
      </trkpt>
      <trkpt lat="40.496450" lon="-5.209833">
        <ele>2960.0</ele>
        <time>2018-09-01T13:02:42Z</time>
      </trkpt>
      <trkpt lat="40.496333" lon="-5.209750">
        <ele>2961.0</ele>
        <time>2018-09-01T13:02:43Z</time>
      </trkpt>
      <trkpt lat="40.496233" lon="-5.209650">
        <ele>2962.0</ele>
        <time>2018-09-01T13:02:44Z</time>
      </trkpt>
      <trkpt lat="40.496133" lon="-5.209533">
        <ele>2963.0</ele>
        <time>2018-09-01T13:02:45Z</time>
      </trkpt>
      <trkpt lat="40.496067" lon="-5.209417">
        <ele>2964.0</ele>
        <time>2018-09-01T13:02:46Z</time>
      </trkpt>
      <trkpt lat="40.496017" lon="-5.209283">
        <ele>2964.0</ele>
        <time>2018-09-01T13:02:47Z</time>
      </trkpt>
      <trkpt lat="40.495983" lon="-5.209133">
        <ele>2966.0</ele>
        <time>2018-09-01T13:02:48Z</time>
      </trkpt>
      <trkpt lat="40.495967" lon="-5.209000">
        <ele>2966.0</ele>
        <time>2018-09-01T13:02:49Z</time>
      </trkpt>
      <trkpt lat="40.495967" lon="-5.208867">
        <ele>2965.0</ele>
        <time>2018-09-01T13:02:50Z</time>
      </trkpt>
      <trkpt lat="40.495983" lon="-5.208733">
        <ele>2965.0</ele>
        <time>2018-09-01T13:02:51Z</time>
      </trkpt>
      <trkpt lat="40.496017" lon="-5.208617">
        <ele>2964.0</ele>
        <time>2018-09-01T13:02:52Z</time>
      </trkpt>
      <trkpt lat="40.496067" lon="-5.208483">
        <ele>2965.0</ele>
        <time>2018-09-01T13:02:53Z</time>
      </trkpt>
      <trkpt lat="40.496133" lon="-5.208383">
        <ele>2965.0</ele>
        <time>2018-09-01T13:02:54Z</time>
      </trkpt>
      <trkpt lat="40.496183" lon="-5.208283">
        <ele>2967.0</ele>
        <time>2018-09-01T13:02:55Z</time>
      </trkpt>
      <trkpt lat="40.496250" lon="-5.208200">
        <ele>2969.0</ele>
        <time>2018-09-01T13:02:56Z</time>
      </trkpt>
      <trkpt lat="40.496333" lon="-5.208167">
        <ele>2970.0</ele>
        <time>2018-09-01T13:02:57Z</time>
      </trkpt>
      <trkpt lat="40.496400" lon="-5.208150">
        <ele>2971.0</ele>
        <time>2018-09-01T13:02:58Z</time>
      </trkpt>
      <trkpt lat="40.496467" lon="-5.208167">
        <ele>2972.0</ele>
        <time>2018-09-01T13:02:59Z</time>
      </trkpt>
      <trkpt lat="40.496550" lon="-5.208200">
        <ele>2974.0</ele>
        <time>2018-09-01T13:03:00Z</time>
      </trkpt>
      <trkpt lat="40.496600" lon="-5.208250">
        <ele>2975.0</ele>
        <time>2018-09-01T13:03:01Z</time>
      </trkpt>
      <trkpt lat="40.496667" lon="-5.208317">
        <ele>2978.0</ele>
        <time>2018-09-01T13:03:02Z</time>
      </trkpt>
      <trkpt lat="40.496683" lon="-5.208400">
        <ele>2980.0</ele>
        <time>2018-09-01T13:03:03Z</time>
      </trkpt>
      <trkpt lat="40.496700" lon="-5.208500">
        <ele>2981.0</ele>
        <time>2018-09-01T13:03:04Z</time>
      </trkpt>
      <trkpt lat="40.496683" lon="-5.208600">
        <ele>2981.0</ele>
        <time>2018-09-01T13:03:05Z</time>
      </trkpt>
      <trkpt lat="40.496633" lon="-5.208733">
        <ele>2982.0</ele>
        <time>2018-09-01T13:03:06Z</time>
      </trkpt>
      <trkpt lat="40.496583" lon="-5.208850">
        <ele>2983.0</ele>
        <time>2018-09-01T13:03:07Z</time>
      </trkpt>
      <trkpt lat="40.496517" lon="-5.208967">
        <ele>2985.0</ele>
        <time>2018-09-01T13:03:08Z</time>
      </trkpt>
      <trkpt lat="40.496433" lon="-5.209050">
        <ele>2986.0</ele>
        <time>2018-09-01T13:03:09Z</time>
      </trkpt>
      <trkpt lat="40.496333" lon="-5.209100">
        <ele>2986.0</ele>
        <time>2018-09-01T13:03:10Z</time>
      </trkpt>
      <trkpt lat="40.496200" lon="-5.209117">
        <ele>2985.0</ele>
        <time>2018-09-01T13:03:11Z</time>
      </trkpt>
      <trkpt lat="40.496050" lon="-5.209117">
        <ele>2985.0</ele>
        <time>2018-09-01T13:03:12Z</time>
      </trkpt>
      <trkpt lat="40.495917" lon="-5.209067">
        <ele>2987.0</ele>
        <time>2018-09-01T13:03:13Z</time>
      </trkpt>
      <trkpt lat="40.495800" lon="-5.209000">
        <ele>2989.0</ele>
        <time>2018-09-01T13:03:14Z</time>
      </trkpt>
      <trkpt lat="40.495700" lon="-5.208900">
        <ele>2990.0</ele>
        <time>2018-09-01T13:03:15Z</time>
      </trkpt>
      <trkpt lat="40.495600" lon="-5.208800">
        <ele>2991.0</ele>
        <time>2018-09-01T13:03:16Z</time>
      </trkpt>
      <trkpt lat="40.495533" lon="-5.208667">
        <ele>2991.0</ele>
        <time>2018-09-01T13:03:17Z</time>
      </trkpt>
      <trkpt lat="40.495483" lon="-5.208550">
        <ele>2990.0</ele>
        <time>2018-09-01T13:03:18Z</time>
      </trkpt>
      <trkpt lat="40.495450" lon="-5.208417">
        <ele>2989.0</ele>
        <time>2018-09-01T13:03:19Z</time>
      </trkpt>
      <trkpt lat="40.495433" lon="-5.208267">
        <ele>2988.0</ele>
        <time>2018-09-01T13:03:20Z</time>
      </trkpt>
      <trkpt lat="40.495433" lon="-5.208117">
        <ele>2986.0</ele>
        <time>2018-09-01T13:03:21Z</time>
      </trkpt>
      <trkpt lat="40.495450" lon="-5.207967">
        <ele>2984.0</ele>
        <time>2018-09-01T13:03:22Z</time>
      </trkpt>
      <trkpt lat="40.495500" lon="-5.207833">
        <ele>2984.0</ele>
        <time>2018-09-01T13:03:23Z</time>
      </trkpt>
      <trkpt lat="40.495550" lon="-5.207717">
        <ele>2984.0</ele>
        <time>2018-09-01T13:03:24Z</time>
      </trkpt>
      <trkpt lat="40.495617" lon="-5.207633">
        <ele>2985.0</ele>
        <time>2018-09-01T13:03:25Z</time>
      </trkpt>
      <trkpt lat="40.495700" lon="-5.207567">
        <ele>2985.0</ele>
        <time>2018-09-01T13:03:26Z</time>
      </trkpt>
      <trkpt lat="40.495767" lon="-5.207500">
        <ele>2986.0</ele>
        <time>2018-09-01T13:03:27Z</time>
      </trkpt>
      <trkpt lat="40.495850" lon="-5.207483">
        <ele>2988.0</ele>
        <time>2018-09-01T13:03:28Z</time>
      </trkpt>
      <trkpt lat="40.495933" lon="-5.207483">
        <ele>2988.0</ele>
        <time>2018-09-01T13:03:29Z</time>
      </trkpt>
      <trkpt lat="40.496000" lon="-5.207517">
        <ele>2989.0</ele>
        <time>2018-09-01T13:03:30Z</time>
      </trkpt>
      <trkpt lat="40.496067" lon="-5.207567">
        <ele>2990.0</ele>
        <time>2018-09-01T13:03:31Z</time>
      </trkpt>
      <trkpt lat="40.496117" lon="-5.207650">
        <ele>2992.0</ele>
        <time>2018-09-01T13:03:32Z</time>
      </trkpt>
      <trkpt lat="40.496150" lon="-5.207750">
        <ele>2994.0</ele>
        <time>2018-09-01T13:03:33Z</time>
      </trkpt>
      <trkpt lat="40.496150" lon="-5.207850">
        <ele>2996.0</ele>
        <time>2018-09-01T13:03:34Z</time>
      </trkpt>
      <trkpt lat="40.496117" lon="-5.207967">
        <ele>2996.0</ele>
        <time>2018-09-01T13:03:35Z</time>
      </trkpt>
      <trkpt lat="40.496083" lon="-5.208083">
        <ele>2996.0</ele>
        <time>2018-09-01T13:03:36Z</time>
      </trkpt>
      <trkpt lat="40.496017" lon="-5.208200">
        <ele>2996.0</ele>
        <time>2018-09-01T13:03:37Z</time>
      </trkpt>
      <trkpt lat="40.495933" lon="-5.208300">
        <ele>2995.0</ele>
        <time>2018-09-01T13:03:38Z</time>
      </trkpt>
      <trkpt lat="40.495817" lon="-5.208350">
        <ele>2994.0</ele>
        <time>2018-09-01T13:03:39Z</time>
      </trkpt>
      <trkpt lat="40.495683" lon="-5.208367">
        <ele>2994.0</ele>
        <time>2018-09-01T13:03:40Z</time>
      </trkpt>
      <trkpt lat="40.495550" lon="-5.208317">
        <ele>2994.0</ele>
        <time>2018-09-01T13:03:41Z</time>
      </trkpt>
      <trkpt lat="40.495417" lon="-5.208250">
        <ele>2994.0</ele>
        <time>2018-09-01T13:03:42Z</time>
      </trkpt>
      <trkpt lat="40.495317" lon="-5.208150">
        <ele>2994.0</ele>
        <time>2018-09-01T13:03:43Z</time>
      </trkpt>
      <trkpt lat="40.495217" lon="-5.208050">
        <ele>2994.0</ele>
        <time>2018-09-01T13:03:44Z</time>
      </trkpt>
      <trkpt lat="40.495133" lon="-5.207917">
        <ele>2993.0</ele>
        <time>2018-09-01T13:03:45Z</time>
      </trkpt>
      <trkpt lat="40.495083" lon="-5.207783">
        <ele>2991.0</ele>
        <time>2018-09-01T13:03:46Z</time>
      </trkpt>
      <trkpt lat="40.495067" lon="-5.207617">
        <ele>2989.0</ele>
        <time>2018-09-01T13:03:47Z</time>
      </trkpt>
      <trkpt lat="40.495067" lon="-5.207450">
        <ele>2987.0</ele>
        <time>2018-09-01T13:03:48Z</time>
      </trkpt>
      <trkpt lat="40.495100" lon="-5.207300">
        <ele>2987.0</ele>
        <time>2018-09-01T13:03:49Z</time>
      </trkpt>
      <trkpt lat="40.495133" lon="-5.207183">
        <ele>2989.0</ele>
        <time>2018-09-01T13:03:50Z</time>
      </trkpt>
      <trkpt lat="40.495167" lon="-5.207083">
        <ele>2990.0</ele>
        <time>2018-09-01T13:03:51Z</time>
      </trkpt>
      <trkpt lat="40.495233" lon="-5.207017">
        <ele>2990.0</ele>
        <time>2018-09-01T13:03:52Z</time>
      </trkpt>
      <trkpt lat="40.495300" lon="-5.206950">
        <ele>2989.0</ele>
        <time>2018-09-01T13:03:53Z</time>
      </trkpt>
      <trkpt lat="40.495383" lon="-5.206900">
        <ele>2988.0</ele>
        <time>2018-09-01T13:03:54Z</time>
      </trkpt>
      <trkpt lat="40.495483" lon="-5.206850">
        <ele>2988.0</ele>
        <time>2018-09-01T13:03:55Z</time>
      </trkpt>
      <trkpt lat="40.495567" lon="-5.206817">
        <ele>2989.0</ele>
        <time>2018-09-01T13:03:56Z</time>
      </trkpt>
      <trkpt lat="40.495650" lon="-5.206783">
        <ele>2990.0</ele>
        <time>2018-09-01T13:03:57Z</time>
      </trkpt>
      <trkpt lat="40.495733" lon="-5.206767">
        <ele>2992.0</ele>
        <time>2018-09-01T13:03:58Z</time>
      </trkpt>
      <trkpt lat="40.495800" lon="-5.206733">
        <ele>2993.0</ele>
        <time>2018-09-01T13:03:59Z</time>
      </trkpt>
      <trkpt lat="40.495867" lon="-5.206683">
        <ele>2994.0</ele>
        <time>2018-09-01T13:04:00Z</time>
      </trkpt>
      <trkpt lat="40.495950" lon="-5.206650">
        <ele>2994.0</ele>
        <time>2018-09-01T13:04:01Z</time>
      </trkpt>
      <trkpt lat="40.496033" lon="-5.206633">
        <ele>2994.0</ele>
        <time>2018-09-01T13:04:02Z</time>
      </trkpt>
      <trkpt lat="40.496133" lon="-5.206650">
        <ele>2994.0</ele>
        <time>2018-09-01T13:04:03Z</time>
      </trkpt>
      <trkpt lat="40.496233" lon="-5.206700">
        <ele>2994.0</ele>
        <time>2018-09-01T13:04:04Z</time>
      </trkpt>
      <trkpt lat="40.496317" lon="-5.206800">
        <ele>2996.0</ele>
        <time>2018-09-01T13:04:05Z</time>
      </trkpt>
      <trkpt lat="40.496383" lon="-5.206900">
        <ele>3000.0</ele>
        <time>2018-09-01T13:04:06Z</time>
      </trkpt>
      <trkpt lat="40.496433" lon="-5.206983">
        <ele>3004.0</ele>
        <time>2018-09-01T13:04:07Z</time>
      </trkpt>
      <trkpt lat="40.496483" lon="-5.207050">
        <ele>3007.0</ele>
        <time>2018-09-01T13:04:08Z</time>
      </trkpt>
      <trkpt lat="40.496517" lon="-5.207117">
        <ele>3010.0</ele>
        <time>2018-09-01T13:04:09Z</time>
      </trkpt>
      <trkpt lat="40.496550" lon="-5.207200">
        <ele>3011.0</ele>
        <time>2018-09-01T13:04:10Z</time>
      </trkpt>
      <trkpt lat="40.496550" lon="-5.207300">
        <ele>3011.0</ele>
        <time>2018-09-01T13:04:11Z</time>
      </trkpt>
      <trkpt lat="40.496533" lon="-5.207417">
        <ele>3011.0</ele>
        <time>2018-09-01T13:04:12Z</time>
      </trkpt>
      <trkpt lat="40.496500" lon="-5.207533">
        <ele>3011.0</ele>
        <time>2018-09-01T13:04:13Z</time>
      </trkpt>
      <trkpt lat="40.496433" lon="-5.207650">
        <ele>3011.0</ele>
        <time>2018-09-01T13:04:14Z</time>
      </trkpt>
      <trkpt lat="40.496350" lon="-5.207733">
        <ele>3011.0</ele>
        <time>2018-09-01T13:04:15Z</time>
      </trkpt>
      <trkpt lat="40.496233" lon="-5.207783">
        <ele>3012.0</ele>
        <time>2018-09-01T13:04:16Z</time>
      </trkpt>
      <trkpt lat="40.496117" lon="-5.207800">
        <ele>3012.0</ele>
        <time>2018-09-01T13:04:17Z</time>
      </trkpt>
      <trkpt lat="40.496000" lon="-5.207767">
        <ele>3012.0</ele>
        <time>2018-09-01T13:04:18Z</time>
      </trkpt>
      <trkpt lat="40.495883" lon="-5.207700">
        <ele>3012.0</ele>
        <time>2018-09-01T13:04:19Z</time>
      </trkpt>
      <trkpt lat="40.495800" lon="-5.207617">
        <ele>3013.0</ele>
        <time>2018-09-01T13:04:20Z</time>
      </trkpt>
      <trkpt lat="40.495717" lon="-5.207500">
        <ele>3012.0</ele>
        <time>2018-09-01T13:04:21Z</time>
      </trkpt>
      <trkpt lat="40.495650" lon="-5.207383">
        <ele>3012.0</ele>
        <time>2018-09-01T13:04:22Z</time>
      </trkpt>
      <trkpt lat="40.495600" lon="-5.207233">
        <ele>3012.0</ele>
        <time>2018-09-01T13:04:23Z</time>
      </trkpt>
      <trkpt lat="40.495583" lon="-5.207083">
        <ele>3011.0</ele>
        <time>2018-09-01T13:04:24Z</time>
      </trkpt>
      <trkpt lat="40.495600" lon="-5.206933">
        <ele>3011.0</ele>
        <time>2018-09-01T13:04:25Z</time>
      </trkpt>
      <trkpt lat="40.495617" lon="-5.206800">
        <ele>3011.0</ele>
        <time>2018-09-01T13:04:26Z</time>
      </trkpt>
      <trkpt lat="40.495650" lon="-5.206667">
        <ele>3013.0</ele>
        <time>2018-09-01T13:04:27Z</time>
      </trkpt>
      <trkpt lat="40.495683" lon="-5.206550">
        <ele>3015.0</ele>
        <time>2018-09-01T13:04:28Z</time>
      </trkpt>
      <trkpt lat="40.495717" lon="-5.206433">
        <ele>3017.0</ele>
        <time>2018-09-01T13:04:29Z</time>
      </trkpt>
      <trkpt lat="40.495767" lon="-5.206350">
        <ele>3019.0</ele>
        <time>2018-09-01T13:04:30Z</time>
      </trkpt>
      <trkpt lat="40.495817" lon="-5.206250">
        <ele>3020.0</ele>
        <time>2018-09-01T13:04:31Z</time>
      </trkpt>
      <trkpt lat="40.495883" lon="-5.206183">
        <ele>3021.0</ele>
        <time>2018-09-01T13:04:32Z</time>
      </trkpt>
      <trkpt lat="40.495950" lon="-5.206117">
        <ele>3021.0</ele>
        <time>2018-09-01T13:04:33Z</time>
      </trkpt>
      <trkpt lat="40.496033" lon="-5.206083">
        <ele>3022.0</ele>
        <time>2018-09-01T13:04:34Z</time>
      </trkpt>
      <trkpt lat="40.496133" lon="-5.206083">
        <ele>3023.0</ele>
        <time>2018-09-01T13:04:35Z</time>
      </trkpt>
      <trkpt lat="40.496200" lon="-5.206100">
        <ele>3025.0</ele>
        <time>2018-09-01T13:04:36Z</time>
      </trkpt>
      <trkpt lat="40.496283" lon="-5.206133">
        <ele>3026.0</ele>
        <time>2018-09-01T13:04:37Z</time>
      </trkpt>
      <trkpt lat="40.496350" lon="-5.206200">
        <ele>3028.0</ele>
        <time>2018-09-01T13:04:38Z</time>
      </trkpt>
      <trkpt lat="40.496400" lon="-5.206300">
        <ele>3030.0</ele>
        <time>2018-09-01T13:04:39Z</time>
      </trkpt>
      <trkpt lat="40.496433" lon="-5.206417">
        <ele>3031.0</ele>
        <time>2018-09-01T13:04:40Z</time>
      </trkpt>
      <trkpt lat="40.496433" lon="-5.206533">
        <ele>3033.0</ele>
        <time>2018-09-01T13:04:41Z</time>
      </trkpt>
      <trkpt lat="40.496417" lon="-5.206667">
        <ele>3036.0</ele>
        <time>2018-09-01T13:04:42Z</time>
      </trkpt>
      <trkpt lat="40.496383" lon="-5.206750">
        <ele>3038.0</ele>
        <time>2018-09-01T13:04:43Z</time>
      </trkpt>
      <trkpt lat="40.496333" lon="-5.206833">
        <ele>3039.0</ele>
        <time>2018-09-01T13:04:44Z</time>
      </trkpt>
      <trkpt lat="40.496250" lon="-5.206900">
        <ele>3038.0</ele>
        <time>2018-09-01T13:04:45Z</time>
      </trkpt>
      <trkpt lat="40.496150" lon="-5.206983">
        <ele>3036.0</ele>
        <time>2018-09-01T13:04:46Z</time>
      </trkpt>
      <trkpt lat="40.496033" lon="-5.207033">
        <ele>3035.0</ele>
        <time>2018-09-01T13:04:47Z</time>
      </trkpt>
      <trkpt lat="40.495900" lon="-5.207033">
        <ele>3035.0</ele>
        <time>2018-09-01T13:04:48Z</time>
      </trkpt>
      <trkpt lat="40.495783" lon="-5.206983">
        <ele>3035.0</ele>
        <time>2018-09-01T13:04:49Z</time>
      </trkpt>
      <trkpt lat="40.495683" lon="-5.206883">
        <ele>3035.0</ele>
        <time>2018-09-01T13:04:50Z</time>
      </trkpt>
      <trkpt lat="40.495600" lon="-5.206750">
        <ele>3035.0</ele>
        <time>2018-09-01T13:04:51Z</time>
      </trkpt>
      <trkpt lat="40.495550" lon="-5.206600">
        <ele>3036.0</ele>
        <time>2018-09-01T13:04:52Z</time>
      </trkpt>
      <trkpt lat="40.495517" lon="-5.206467">
        <ele>3037.0</ele>
        <time>2018-09-01T13:04:53Z</time>
      </trkpt>
      <trkpt lat="40.495483" lon="-5.206317">
        <ele>3038.0</ele>
        <time>2018-09-01T13:04:54Z</time>
      </trkpt>
      <trkpt lat="40.495483" lon="-5.206183">
        <ele>3037.0</ele>
        <time>2018-09-01T13:04:55Z</time>
      </trkpt>
      <trkpt lat="40.495500" lon="-5.206050">
        <ele>3036.0</ele>
        <time>2018-09-01T13:04:56Z</time>
      </trkpt>
      <trkpt lat="40.495550" lon="-5.205900">
        <ele>3036.0</ele>
        <time>2018-09-01T13:04:57Z</time>
      </trkpt>
      <trkpt lat="40.495600" lon="-5.205767">
        <ele>3037.0</ele>
        <time>2018-09-01T13:04:58Z</time>
      </trkpt>
      <trkpt lat="40.495650" lon="-5.205650">
        <ele>3039.0</ele>
        <time>2018-09-01T13:04:59Z</time>
      </trkpt>
      <trkpt lat="40.495717" lon="-5.205550">
        <ele>3040.0</ele>
        <time>2018-09-01T13:05:00Z</time>
      </trkpt>
      <trkpt lat="40.495783" lon="-5.205467">
        <ele>3042.0</ele>
        <time>2018-09-01T13:05:01Z</time>
      </trkpt>
      <trkpt lat="40.495850" lon="-5.205383">
        <ele>3043.0</ele>
        <time>2018-09-01T13:05:02Z</time>
      </trkpt>
      <trkpt lat="40.495917" lon="-5.205300">
        <ele>3044.0</ele>
        <time>2018-09-01T13:05:03Z</time>
      </trkpt>
      <trkpt lat="40.495983" lon="-5.205217">
        <ele>3046.0</ele>
        <time>2018-09-01T13:05:04Z</time>
      </trkpt>
      <trkpt lat="40.496050" lon="-5.205150">
        <ele>3048.0</ele>
        <time>2018-09-01T13:05:05Z</time>
      </trkpt>
      <trkpt lat="40.496133" lon="-5.205100">
        <ele>3049.0</ele>
        <time>2018-09-01T13:05:06Z</time>
      </trkpt>
      <trkpt lat="40.496200" lon="-5.205117">
        <ele>3050.0</ele>
        <time>2018-09-01T13:05:07Z</time>
      </trkpt>
      <trkpt lat="40.496267" lon="-5.205167">
        <ele>3050.0</ele>
        <time>2018-09-01T13:05:08Z</time>
      </trkpt>
      <trkpt lat="40.496300" lon="-5.205267">
        <ele>3050.0</ele>
        <time>2018-09-01T13:05:09Z</time>
      </trkpt>
      <trkpt lat="40.496317" lon="-5.205383">
        <ele>3049.0</ele>
        <time>2018-09-01T13:05:10Z</time>
      </trkpt>
      <trkpt lat="40.496300" lon="-5.205517">
        <ele>3049.0</ele>
        <time>2018-09-01T13:05:11Z</time>
      </trkpt>
      <trkpt lat="40.496250" lon="-5.205650">
        <ele>3049.0</ele>
        <time>2018-09-01T13:05:12Z</time>
      </trkpt>
      <trkpt lat="40.496167" lon="-5.205750">
        <ele>3051.0</ele>
        <time>2018-09-01T13:05:13Z</time>
      </trkpt>
      <trkpt lat="40.496083" lon="-5.205817">
        <ele>3054.0</ele>
        <time>2018-09-01T13:05:14Z</time>
      </trkpt>
      <trkpt lat="40.495983" lon="-5.205867">
        <ele>3057.0</ele>
        <time>2018-09-01T13:05:15Z</time>
      </trkpt>
      <trkpt lat="40.495883" lon="-5.205867">
        <ele>3058.0</ele>
        <time>2018-09-01T13:05:16Z</time>
      </trkpt>
      <trkpt lat="40.495767" lon="-5.205850">
        <ele>3059.0</ele>
        <time>2018-09-01T13:05:17Z</time>
      </trkpt>
      <trkpt lat="40.495650" lon="-5.205783">
        <ele>3058.0</ele>
        <time>2018-09-01T13:05:18Z</time>
      </trkpt>
      <trkpt lat="40.495533" lon="-5.205717">
        <ele>3059.0</ele>
        <time>2018-09-01T13:05:19Z</time>
      </trkpt>
      <trkpt lat="40.495433" lon="-5.205600">
        <ele>3060.0</ele>
        <time>2018-09-01T13:05:20Z</time>
      </trkpt>
      <trkpt lat="40.495367" lon="-5.205483">
        <ele>3063.0</ele>
        <time>2018-09-01T13:05:21Z</time>
      </trkpt>
      <trkpt lat="40.495317" lon="-5.205367">
        <ele>3064.0</ele>
        <time>2018-09-01T13:05:22Z</time>
      </trkpt>
      <trkpt lat="40.495300" lon="-5.205250">
        <ele>3065.0</ele>
        <time>2018-09-01T13:05:23Z</time>
      </trkpt>
      <trkpt lat="40.495283" lon="-5.205117">
        <ele>3064.0</ele>
        <time>2018-09-01T13:05:24Z</time>
      </trkpt>
      <trkpt lat="40.495283" lon="-5.204967">
        <ele>3062.0</ele>
        <time>2018-09-01T13:05:25Z</time>
      </trkpt>
      <trkpt lat="40.495317" lon="-5.204833">
        <ele>3061.0</ele>
        <time>2018-09-01T13:05:26Z</time>
      </trkpt>
      <trkpt lat="40.495367" lon="-5.204700">
        <ele>3060.0</ele>
        <time>2018-09-01T13:05:27Z</time>
      </trkpt>
      <trkpt lat="40.495417" lon="-5.204583">
        <ele>3060.0</ele>
        <time>2018-09-01T13:05:28Z</time>
      </trkpt>
      <trkpt lat="40.495483" lon="-5.204500">
        <ele>3061.0</ele>
        <time>2018-09-01T13:05:29Z</time>
      </trkpt>
      <trkpt lat="40.495550" lon="-5.204433">
        <ele>3061.0</ele>
        <time>2018-09-01T13:05:30Z</time>
      </trkpt>
      <trkpt lat="40.495600" lon="-5.204367">
        <ele>3062.0</ele>
        <time>2018-09-01T13:05:31Z</time>
      </trkpt>
      <trkpt lat="40.495667" lon="-5.204317">
        <ele>3062.0</ele>
        <time>2018-09-01T13:05:32Z</time>
      </trkpt>
      <trkpt lat="40.495733" lon="-5.204283">
        <ele>3062.0</ele>
        <time>2018-09-01T13:05:33Z</time>
      </trkpt>
      <trkpt lat="40.495800" lon="-5.204267">
        <ele>3059.0</ele>
        <time>2018-09-01T13:05:34Z</time>
      </trkpt>
      <trkpt lat="40.495883" lon="-5.204283">
        <ele>3057.0</ele>
        <time>2018-09-01T13:05:35Z</time>
      </trkpt>
      <trkpt lat="40.495967" lon="-5.204333">
        <ele>3056.0</ele>
        <time>2018-09-01T13:05:36Z</time>
      </trkpt>
      <trkpt lat="40.496033" lon="-5.204383">
        <ele>3056.0</ele>
        <time>2018-09-01T13:05:37Z</time>
      </trkpt>
      <trkpt lat="40.496083" lon="-5.204433">
        <ele>3056.0</ele>
        <time>2018-09-01T13:05:38Z</time>
      </trkpt>
      <trkpt lat="40.496133" lon="-5.204483">
        <ele>3054.0</ele>
        <time>2018-09-01T13:05:39Z</time>
      </trkpt>
      <trkpt lat="40.496183" lon="-5.204533">
        <ele>3052.0</ele>
        <time>2018-09-01T13:05:40Z</time>
      </trkpt>
      <trkpt lat="40.496250" lon="-5.204583">
        <ele>3048.0</ele>
        <time>2018-09-01T13:05:41Z</time>
      </trkpt>
      <trkpt lat="40.496333" lon="-5.204617">
        <ele>3045.0</ele>
        <time>2018-09-01T13:05:42Z</time>
      </trkpt>
      <trkpt lat="40.496433" lon="-5.204667">
        <ele>3042.0</ele>
        <time>2018-09-01T13:05:43Z</time>
      </trkpt>
      <trkpt lat="40.496517" lon="-5.204683">
        <ele>3041.0</ele>
        <time>2018-09-01T13:05:44Z</time>
      </trkpt>
      <trkpt lat="40.496600" lon="-5.204700">
        <ele>3040.0</ele>
        <time>2018-09-01T13:05:45Z</time>
      </trkpt>
      <trkpt lat="40.496667" lon="-5.204683">
        <ele>3039.0</ele>
        <time>2018-09-01T13:05:46Z</time>
      </trkpt>
      <trkpt lat="40.496750" lon="-5.204667">
        <ele>3036.0</ele>
        <time>2018-09-01T13:05:47Z</time>
      </trkpt>
      <trkpt lat="40.496833" lon="-5.204633">
        <ele>3033.0</ele>
        <time>2018-09-01T13:05:48Z</time>
      </trkpt>
      <trkpt lat="40.496933" lon="-5.204617">
        <ele>3030.0</ele>
        <time>2018-09-01T13:05:49Z</time>
      </trkpt>
      <trkpt lat="40.497033" lon="-5.204617">
        <ele>3027.0</ele>
        <time>2018-09-01T13:05:50Z</time>
      </trkpt>
      <trkpt lat="40.497117" lon="-5.204600">
        <ele>3024.0</ele>
        <time>2018-09-01T13:05:51Z</time>
      </trkpt>
      <trkpt lat="40.497217" lon="-5.204600">
        <ele>3022.0</ele>
        <time>2018-09-01T13:05:52Z</time>
      </trkpt>
      <trkpt lat="40.497300" lon="-5.204567">
        <ele>3020.0</ele>
        <time>2018-09-01T13:05:53Z</time>
      </trkpt>
      <trkpt lat="40.497383" lon="-5.204533">
        <ele>3018.0</ele>
        <time>2018-09-01T13:05:54Z</time>
      </trkpt>
      <trkpt lat="40.497467" lon="-5.204517">
        <ele>3016.0</ele>
        <time>2018-09-01T13:05:55Z</time>
      </trkpt>
      <trkpt lat="40.497550" lon="-5.204500">
        <ele>3013.0</ele>
        <time>2018-09-01T13:05:56Z</time>
      </trkpt>
      <trkpt lat="40.497633" lon="-5.204483">
        <ele>3011.0</ele>
        <time>2018-09-01T13:05:57Z</time>
      </trkpt>
      <trkpt lat="40.497717" lon="-5.204467">
        <ele>3007.0</ele>
        <time>2018-09-01T13:05:58Z</time>
      </trkpt>
      <trkpt lat="40.497800" lon="-5.204450">
        <ele>3003.0</ele>
        <time>2018-09-01T13:05:59Z</time>
      </trkpt>
      <trkpt lat="40.497900" lon="-5.204417">
        <ele>2999.0</ele>
        <time>2018-09-01T13:06:00Z</time>
      </trkpt>
      <trkpt lat="40.498017" lon="-5.204383">
        <ele>2997.0</ele>
        <time>2018-09-01T13:06:01Z</time>
      </trkpt>
      <trkpt lat="40.498117" lon="-5.204350">
        <ele>2996.0</ele>
        <time>2018-09-01T13:06:02Z</time>
      </trkpt>
      <trkpt lat="40.498217" lon="-5.204350">
        <ele>2998.0</ele>
        <time>2018-09-01T13:06:03Z</time>
      </trkpt>
      <trkpt lat="40.498300" lon="-5.204333">
        <ele>2999.0</ele>
        <time>2018-09-01T13:06:04Z</time>
      </trkpt>
      <trkpt lat="40.498383" lon="-5.204300">
        <ele>3000.0</ele>
        <time>2018-09-01T13:06:05Z</time>
      </trkpt>
      <trkpt lat="40.498467" lon="-5.204250">
        <ele>3001.0</ele>
        <time>2018-09-01T13:06:06Z</time>
      </trkpt>
      <trkpt lat="40.498567" lon="-5.204200">
        <ele>3001.0</ele>
        <time>2018-09-01T13:06:07Z</time>
      </trkpt>
      <trkpt lat="40.498650" lon="-5.204133">
        <ele>3001.0</ele>
        <time>2018-09-01T13:06:08Z</time>
      </trkpt>
      <trkpt lat="40.498733" lon="-5.204067">
        <ele>3001.0</ele>
        <time>2018-09-01T13:06:09Z</time>
      </trkpt>
      <trkpt lat="40.498817" lon="-5.204000">
        <ele>3000.0</ele>
        <time>2018-09-01T13:06:10Z</time>
      </trkpt>
      <trkpt lat="40.498900" lon="-5.203933">
        <ele>2999.0</ele>
        <time>2018-09-01T13:06:11Z</time>
      </trkpt>
      <trkpt lat="40.499000" lon="-5.203883">
        <ele>2997.0</ele>
        <time>2018-09-01T13:06:12Z</time>
      </trkpt>
      <trkpt lat="40.499083" lon="-5.203833">
        <ele>2996.0</ele>
        <time>2018-09-01T13:06:13Z</time>
      </trkpt>
      <trkpt lat="40.499167" lon="-5.203767">
        <ele>2994.0</ele>
        <time>2018-09-01T13:06:14Z</time>
      </trkpt>
      <trkpt lat="40.499267" lon="-5.203717">
        <ele>2993.0</ele>
        <time>2018-09-01T13:06:15Z</time>
      </trkpt>
      <trkpt lat="40.499350" lon="-5.203650">
        <ele>2992.0</ele>
        <time>2018-09-01T13:06:16Z</time>
      </trkpt>
      <trkpt lat="40.499450" lon="-5.203583">
        <ele>2991.0</ele>
        <time>2018-09-01T13:06:17Z</time>
      </trkpt>
      <trkpt lat="40.499533" lon="-5.203517">
        <ele>2990.0</ele>
        <time>2018-09-01T13:06:18Z</time>
      </trkpt>
      <trkpt lat="40.499617" lon="-5.203450">
        <ele>2990.0</ele>
        <time>2018-09-01T13:06:19Z</time>
      </trkpt>
      <trkpt lat="40.499700" lon="-5.203367">
        <ele>2989.0</ele>
        <time>2018-09-01T13:06:20Z</time>
      </trkpt>
      <trkpt lat="40.499783" lon="-5.203300">
        <ele>2987.0</ele>
        <time>2018-09-01T13:06:21Z</time>
      </trkpt>
      <trkpt lat="40.499867" lon="-5.203233">
        <ele>2985.0</ele>
        <time>2018-09-01T13:06:22Z</time>
      </trkpt>
      <trkpt lat="40.499950" lon="-5.203183">
        <ele>2982.0</ele>
        <time>2018-09-01T13:06:23Z</time>
      </trkpt>
      <trkpt lat="40.500033" lon="-5.203150">
        <ele>2979.0</ele>
        <time>2018-09-01T13:06:24Z</time>
      </trkpt>
      <trkpt lat="40.500133" lon="-5.203117">
        <ele>2976.0</ele>
        <time>2018-09-01T13:06:25Z</time>
      </trkpt>
      <trkpt lat="40.500233" lon="-5.203100">
        <ele>2973.0</ele>
        <time>2018-09-01T13:06:26Z</time>
      </trkpt>
      <trkpt lat="40.500333" lon="-5.203083">
        <ele>2971.0</ele>
        <time>2018-09-01T13:06:27Z</time>
      </trkpt>
      <trkpt lat="40.500417" lon="-5.203033">
        <ele>2968.0</ele>
        <time>2018-09-01T13:06:28Z</time>
      </trkpt>
      <trkpt lat="40.500500" lon="-5.202983">
        <ele>2965.0</ele>
        <time>2018-09-01T13:06:29Z</time>
      </trkpt>
      <trkpt lat="40.500583" lon="-5.202933">
        <ele>2961.0</ele>
        <time>2018-09-01T13:06:30Z</time>
      </trkpt>
      <trkpt lat="40.500667" lon="-5.202867">
        <ele>2957.0</ele>
        <time>2018-09-01T13:06:31Z</time>
      </trkpt>
      <trkpt lat="40.500750" lon="-5.202817">
        <ele>2953.0</ele>
        <time>2018-09-01T13:06:32Z</time>
      </trkpt>
      <trkpt lat="40.500850" lon="-5.202767">
        <ele>2950.0</ele>
        <time>2018-09-01T13:06:33Z</time>
      </trkpt>
      <trkpt lat="40.500933" lon="-5.202717">
        <ele>2948.0</ele>
        <time>2018-09-01T13:06:34Z</time>
      </trkpt>
      <trkpt lat="40.501000" lon="-5.202667">
        <ele>2945.0</ele>
        <time>2018-09-01T13:06:35Z</time>
      </trkpt>
      <trkpt lat="40.501083" lon="-5.202633">
        <ele>2942.0</ele>
        <time>2018-09-01T13:06:36Z</time>
      </trkpt>
      <trkpt lat="40.501167" lon="-5.202583">
        <ele>2938.0</ele>
        <time>2018-09-01T13:06:37Z</time>
      </trkpt>
      <trkpt lat="40.501267" lon="-5.202550">
        <ele>2935.0</ele>
        <time>2018-09-01T13:06:38Z</time>
      </trkpt>
      <trkpt lat="40.501367" lon="-5.202517">
        <ele>2931.0</ele>
        <time>2018-09-01T13:06:39Z</time>
      </trkpt>
      <trkpt lat="40.501450" lon="-5.202467">
        <ele>2929.0</ele>
        <time>2018-09-01T13:06:40Z</time>
      </trkpt>
      <trkpt lat="40.501533" lon="-5.202400">
        <ele>2927.0</ele>
        <time>2018-09-01T13:06:41Z</time>
      </trkpt>
      <trkpt lat="40.501617" lon="-5.202317">
        <ele>2925.0</ele>
        <time>2018-09-01T13:06:42Z</time>
      </trkpt>
      <trkpt lat="40.501700" lon="-5.202250">
        <ele>2923.0</ele>
        <time>2018-09-01T13:06:43Z</time>
      </trkpt>
      <trkpt lat="40.501783" lon="-5.202200">
        <ele>2920.0</ele>
        <time>2018-09-01T13:06:44Z</time>
      </trkpt>
      <trkpt lat="40.501867" lon="-5.202133">
        <ele>2917.0</ele>
        <time>2018-09-01T13:06:45Z</time>
      </trkpt>
      <trkpt lat="40.501950" lon="-5.202067">
        <ele>2914.0</ele>
        <time>2018-09-01T13:06:46Z</time>
      </trkpt>
      <trkpt lat="40.502033" lon="-5.201983">
        <ele>2911.0</ele>
        <time>2018-09-01T13:06:47Z</time>
      </trkpt>
      <trkpt lat="40.502100" lon="-5.201900">
        <ele>2908.0</ele>
        <time>2018-09-01T13:06:48Z</time>
      </trkpt>
      <trkpt lat="40.502183" lon="-5.201817">
        <ele>2905.0</ele>
        <time>2018-09-01T13:06:49Z</time>
      </trkpt>
      <trkpt lat="40.502250" lon="-5.201733">
        <ele>2902.0</ele>
        <time>2018-09-01T13:06:50Z</time>
      </trkpt>
      <trkpt lat="40.502333" lon="-5.201667">
        <ele>2899.0</ele>
        <time>2018-09-01T13:06:51Z</time>
      </trkpt>
      <trkpt lat="40.502417" lon="-5.201600">
        <ele>2895.0</ele>
        <time>2018-09-01T13:06:52Z</time>
      </trkpt>
      <trkpt lat="40.502517" lon="-5.201550">
        <ele>2891.0</ele>
        <time>2018-09-01T13:06:53Z</time>
      </trkpt>
      <trkpt lat="40.502617" lon="-5.201517">
        <ele>2888.0</ele>
        <time>2018-09-01T13:06:54Z</time>
      </trkpt>
      <trkpt lat="40.502733" lon="-5.201483">
        <ele>2884.0</ele>
        <time>2018-09-01T13:06:55Z</time>
      </trkpt>
      <trkpt lat="40.502833" lon="-5.201433">
        <ele>2882.0</ele>
        <time>2018-09-01T13:06:56Z</time>
      </trkpt>
      <trkpt lat="40.502933" lon="-5.201383">
        <ele>2879.0</ele>
        <time>2018-09-01T13:06:57Z</time>
      </trkpt>
      <trkpt lat="40.503017" lon="-5.201350">
        <ele>2876.0</ele>
        <time>2018-09-01T13:06:58Z</time>
      </trkpt>
      <trkpt lat="40.503117" lon="-5.201300">
        <ele>2873.0</ele>
        <time>2018-09-01T13:06:59Z</time>
      </trkpt>
      <trkpt lat="40.503217" lon="-5.201283">
        <ele>2870.0</ele>
        <time>2018-09-01T13:07:00Z</time>
      </trkpt>
      <trkpt lat="40.503333" lon="-5.201250">
        <ele>2866.0</ele>
        <time>2018-09-01T13:07:01Z</time>
      </trkpt>
      <trkpt lat="40.503433" lon="-5.201200">
        <ele>2862.0</ele>
        <time>2018-09-01T13:07:02Z</time>
      </trkpt>
      <trkpt lat="40.503533" lon="-5.201150">
        <ele>2859.0</ele>
        <time>2018-09-01T13:07:03Z</time>
      </trkpt>
      <trkpt lat="40.503633" lon="-5.201100">
        <ele>2856.0</ele>
        <time>2018-09-01T13:07:04Z</time>
      </trkpt>
      <trkpt lat="40.503733" lon="-5.201050">
        <ele>2853.0</ele>
        <time>2018-09-01T13:07:05Z</time>
      </trkpt>
      <trkpt lat="40.503833" lon="-5.201017">
        <ele>2849.0</ele>
        <time>2018-09-01T13:07:06Z</time>
      </trkpt>
      <trkpt lat="40.503950" lon="-5.200967">
        <ele>2846.0</ele>
        <time>2018-09-01T13:07:07Z</time>
      </trkpt>
      <trkpt lat="40.504050" lon="-5.200933">
        <ele>2842.0</ele>
        <time>2018-09-01T13:07:08Z</time>
      </trkpt>
      <trkpt lat="40.504167" lon="-5.200883">
        <ele>2838.0</ele>
        <time>2018-09-01T13:07:09Z</time>
      </trkpt>
      <trkpt lat="40.504267" lon="-5.200817">
        <ele>2835.0</ele>
        <time>2018-09-01T13:07:10Z</time>
      </trkpt>
      <trkpt lat="40.504367" lon="-5.200750">
        <ele>2832.0</ele>
        <time>2018-09-01T13:07:11Z</time>
      </trkpt>
      <trkpt lat="40.504467" lon="-5.200700">
        <ele>2829.0</ele>
        <time>2018-09-01T13:07:12Z</time>
      </trkpt>
      <trkpt lat="40.504583" lon="-5.200650">
        <ele>2826.0</ele>
        <time>2018-09-01T13:07:13Z</time>
      </trkpt>
      <trkpt lat="40.504683" lon="-5.200600">
        <ele>2823.0</ele>
        <time>2018-09-01T13:07:14Z</time>
      </trkpt>
      <trkpt lat="40.504783" lon="-5.200533">
        <ele>2819.0</ele>
        <time>2018-09-01T13:07:15Z</time>
      </trkpt>
      <trkpt lat="40.504900" lon="-5.200483">
        <ele>2816.0</ele>
        <time>2018-09-01T13:07:16Z</time>
      </trkpt>
      <trkpt lat="40.505000" lon="-5.200433">
        <ele>2812.0</ele>
        <time>2018-09-01T13:07:17Z</time>
      </trkpt>
      <trkpt lat="40.505117" lon="-5.200383">
        <ele>2809.0</ele>
        <time>2018-09-01T13:07:18Z</time>
      </trkpt>
      <trkpt lat="40.505217" lon="-5.200333">
        <ele>2805.0</ele>
        <time>2018-09-01T13:07:19Z</time>
      </trkpt>
      <trkpt lat="40.505333" lon="-5.200283">
        <ele>2802.0</ele>
        <time>2018-09-01T13:07:20Z</time>
      </trkpt>
      <trkpt lat="40.505433" lon="-5.200233">
        <ele>2798.0</ele>
        <time>2018-09-01T13:07:21Z</time>
      </trkpt>
      <trkpt lat="40.505550" lon="-5.200200">
        <ele>2794.0</ele>
        <time>2018-09-01T13:07:22Z</time>
      </trkpt>
      <trkpt lat="40.505667" lon="-5.200150">
        <ele>2790.0</ele>
        <time>2018-09-01T13:07:23Z</time>
      </trkpt>
      <trkpt lat="40.505783" lon="-5.200100">
        <ele>2787.0</ele>
        <time>2018-09-01T13:07:24Z</time>
      </trkpt>
      <trkpt lat="40.505883" lon="-5.200050">
        <ele>2784.0</ele>
        <time>2018-09-01T13:07:25Z</time>
      </trkpt>
      <trkpt lat="40.506000" lon="-5.199983">
        <ele>2781.0</ele>
        <time>2018-09-01T13:07:26Z</time>
      </trkpt>
      <trkpt lat="40.506100" lon="-5.199933">
        <ele>2777.0</ele>
        <time>2018-09-01T13:07:27Z</time>
      </trkpt>
      <trkpt lat="40.506200" lon="-5.199867">
        <ele>2773.0</ele>
        <time>2018-09-01T13:07:28Z</time>
      </trkpt>
      <trkpt lat="40.506317" lon="-5.199800">
        <ele>2769.0</ele>
        <time>2018-09-01T13:07:29Z</time>
      </trkpt>
      <trkpt lat="40.506433" lon="-5.199767">
        <ele>2764.0</ele>
        <time>2018-09-01T13:07:30Z</time>
      </trkpt>
      <trkpt lat="40.506550" lon="-5.199717">
        <ele>2760.0</ele>
        <time>2018-09-01T13:07:31Z</time>
      </trkpt>
      <trkpt lat="40.506667" lon="-5.199650">
        <ele>2756.0</ele>
        <time>2018-09-01T13:07:32Z</time>
      </trkpt>
      <trkpt lat="40.506767" lon="-5.199600">
        <ele>2752.0</ele>
        <time>2018-09-01T13:07:33Z</time>
      </trkpt>
      <trkpt lat="40.506883" lon="-5.199533">
        <ele>2749.0</ele>
        <time>2018-09-01T13:07:34Z</time>
      </trkpt>
      <trkpt lat="40.506983" lon="-5.199483">
        <ele>2745.0</ele>
        <time>2018-09-01T13:07:35Z</time>
      </trkpt>
      <trkpt lat="40.507100" lon="-5.199433">
        <ele>2741.0</ele>
        <time>2018-09-01T13:07:36Z</time>
      </trkpt>
      <trkpt lat="40.507217" lon="-5.199400">
        <ele>2737.0</ele>
        <time>2018-09-01T13:07:37Z</time>
      </trkpt>
      <trkpt lat="40.507317" lon="-5.199367">
        <ele>2733.0</ele>
        <time>2018-09-01T13:07:38Z</time>
      </trkpt>
      <trkpt lat="40.507433" lon="-5.199317">
        <ele>2729.0</ele>
        <time>2018-09-01T13:07:39Z</time>
      </trkpt>
      <trkpt lat="40.507550" lon="-5.199267">
        <ele>2724.0</ele>
        <time>2018-09-01T13:07:40Z</time>
      </trkpt>
      <trkpt lat="40.507667" lon="-5.199200">
        <ele>2719.0</ele>
        <time>2018-09-01T13:07:41Z</time>
      </trkpt>
      <trkpt lat="40.507767" lon="-5.199133">
        <ele>2715.0</ele>
        <time>2018-09-01T13:07:42Z</time>
      </trkpt>
      <trkpt lat="40.507867" lon="-5.199050">
        <ele>2711.0</ele>
        <time>2018-09-01T13:07:43Z</time>
      </trkpt>
      <trkpt lat="40.507983" lon="-5.198983">
        <ele>2706.0</ele>
        <time>2018-09-01T13:07:44Z</time>
      </trkpt>
      <trkpt lat="40.508083" lon="-5.198900">
        <ele>2702.0</ele>
        <time>2018-09-01T13:07:45Z</time>
      </trkpt>
      <trkpt lat="40.508200" lon="-5.198850">
        <ele>2698.0</ele>
        <time>2018-09-01T13:07:46Z</time>
      </trkpt>
      <trkpt lat="40.508317" lon="-5.198817">
        <ele>2695.0</ele>
        <time>2018-09-01T13:07:47Z</time>
      </trkpt>
      <trkpt lat="40.508433" lon="-5.198783">
        <ele>2693.0</ele>
        <time>2018-09-01T13:07:48Z</time>
      </trkpt>
      <trkpt lat="40.508533" lon="-5.198750">
        <ele>2690.0</ele>
        <time>2018-09-01T13:07:49Z</time>
      </trkpt>
      <trkpt lat="40.508633" lon="-5.198700">
        <ele>2686.0</ele>
        <time>2018-09-01T13:07:50Z</time>
      </trkpt>
      <trkpt lat="40.508733" lon="-5.198633">
        <ele>2680.0</ele>
        <time>2018-09-01T13:07:51Z</time>
      </trkpt>
      <trkpt lat="40.508850" lon="-5.198550">
        <ele>2676.0</ele>
        <time>2018-09-01T13:07:52Z</time>
      </trkpt>
      <trkpt lat="40.508967" lon="-5.198483">
        <ele>2672.0</ele>
        <time>2018-09-01T13:07:53Z</time>
      </trkpt>
      <trkpt lat="40.509100" lon="-5.198417">
        <ele>2670.0</ele>
        <time>2018-09-01T13:07:54Z</time>
      </trkpt>
      <trkpt lat="40.509200" lon="-5.198367">
        <ele>2668.0</ele>
        <time>2018-09-01T13:07:55Z</time>
      </trkpt>
      <trkpt lat="40.509300" lon="-5.198283">
        <ele>2667.0</ele>
        <time>2018-09-01T13:07:56Z</time>
      </trkpt>
      <trkpt lat="40.509400" lon="-5.198183">
        <ele>2665.0</ele>
        <time>2018-09-01T13:07:57Z</time>
      </trkpt>
      <trkpt lat="40.509500" lon="-5.198083">
        <ele>2662.0</ele>
        <time>2018-09-01T13:07:58Z</time>
      </trkpt>
      <trkpt lat="40.509600" lon="-5.197983">
        <ele>2659.0</ele>
        <time>2018-09-01T13:07:59Z</time>
      </trkpt>
      <trkpt lat="40.509700" lon="-5.197883">
        <ele>2656.0</ele>
        <time>2018-09-01T13:08:00Z</time>
      </trkpt>
      <trkpt lat="40.509800" lon="-5.197800">
        <ele>2654.0</ele>
        <time>2018-09-01T13:08:01Z</time>
      </trkpt>
      <trkpt lat="40.509917" lon="-5.197683">
        <ele>2651.0</ele>
        <time>2018-09-01T13:08:02Z</time>
      </trkpt>
      <trkpt lat="40.510017" lon="-5.197567">
        <ele>2649.0</ele>
        <time>2018-09-01T13:08:03Z</time>
      </trkpt>
      <trkpt lat="40.510133" lon="-5.197450">
        <ele>2647.0</ele>
        <time>2018-09-01T13:08:04Z</time>
      </trkpt>
      <trkpt lat="40.510233" lon="-5.197317">
        <ele>2645.0</ele>
        <time>2018-09-01T13:08:05Z</time>
      </trkpt>
      <trkpt lat="40.510350" lon="-5.197200">
        <ele>2644.0</ele>
        <time>2018-09-01T13:08:06Z</time>
      </trkpt>
      <trkpt lat="40.510450" lon="-5.197083">
        <ele>2643.0</ele>
        <time>2018-09-01T13:08:07Z</time>
      </trkpt>
      <trkpt lat="40.510550" lon="-5.196967">
        <ele>2641.0</ele>
        <time>2018-09-01T13:08:08Z</time>
      </trkpt>
      <trkpt lat="40.510667" lon="-5.196833">
        <ele>2639.0</ele>
        <time>2018-09-01T13:08:09Z</time>
      </trkpt>
      <trkpt lat="40.510783" lon="-5.196717">
        <ele>2636.0</ele>
        <time>2018-09-01T13:08:10Z</time>
      </trkpt>
      <trkpt lat="40.510900" lon="-5.196583">
        <ele>2634.0</ele>
        <time>2018-09-01T13:08:11Z</time>
      </trkpt>
      <trkpt lat="40.511017" lon="-5.196450">
        <ele>2633.0</ele>
        <time>2018-09-01T13:08:12Z</time>
      </trkpt>
      <trkpt lat="40.511133" lon="-5.196317">
        <ele>2632.0</ele>
        <time>2018-09-01T13:08:13Z</time>
      </trkpt>
      <trkpt lat="40.511233" lon="-5.196183">
        <ele>2631.0</ele>
        <time>2018-09-01T13:08:14Z</time>
      </trkpt>
      <trkpt lat="40.511350" lon="-5.196067">
        <ele>2630.0</ele>
        <time>2018-09-01T13:08:15Z</time>
      </trkpt>
      <trkpt lat="40.511450" lon="-5.195933">
        <ele>2628.0</ele>
        <time>2018-09-01T13:08:16Z</time>
      </trkpt>
      <trkpt lat="40.511567" lon="-5.195800">
        <ele>2626.0</ele>
        <time>2018-09-01T13:08:17Z</time>
      </trkpt>
      <trkpt lat="40.511683" lon="-5.195683">
        <ele>2623.0</ele>
        <time>2018-09-01T13:08:18Z</time>
      </trkpt>
      <trkpt lat="40.511800" lon="-5.195567">
        <ele>2622.0</ele>
        <time>2018-09-01T13:08:19Z</time>
      </trkpt>
      <trkpt lat="40.511917" lon="-5.195433">
        <ele>2621.0</ele>
        <time>2018-09-01T13:08:20Z</time>
      </trkpt>
      <trkpt lat="40.512017" lon="-5.195300">
        <ele>2621.0</ele>
        <time>2018-09-01T13:08:21Z</time>
      </trkpt>
      <trkpt lat="40.512117" lon="-5.195183">
        <ele>2621.0</ele>
        <time>2018-09-01T13:08:22Z</time>
      </trkpt>
      <trkpt lat="40.512200" lon="-5.195083">
        <ele>2621.0</ele>
        <time>2018-09-01T13:08:23Z</time>
      </trkpt>
      <trkpt lat="40.512283" lon="-5.194983">
        <ele>2620.0</ele>
        <time>2018-09-01T13:08:24Z</time>
      </trkpt>
      <trkpt lat="40.512367" lon="-5.194883">
        <ele>2619.0</ele>
        <time>2018-09-01T13:08:25Z</time>
      </trkpt>
      <trkpt lat="40.512467" lon="-5.194783">
        <ele>2617.0</ele>
        <time>2018-09-01T13:08:26Z</time>
      </trkpt>
      <trkpt lat="40.512567" lon="-5.194683">
        <ele>2614.0</ele>
        <time>2018-09-01T13:08:27Z</time>
      </trkpt>
      <trkpt lat="40.512683" lon="-5.194583">
        <ele>2611.0</ele>
        <time>2018-09-01T13:08:28Z</time>
      </trkpt>
      <trkpt lat="40.512800" lon="-5.194483">
        <ele>2609.0</ele>
        <time>2018-09-01T13:08:29Z</time>
      </trkpt>
      <trkpt lat="40.512917" lon="-5.194367">
        <ele>2607.0</ele>
        <time>2018-09-01T13:08:30Z</time>
      </trkpt>
      <trkpt lat="40.513033" lon="-5.194267">
        <ele>2606.0</ele>
        <time>2018-09-01T13:08:31Z</time>
      </trkpt>
      <trkpt lat="40.513150" lon="-5.194150">
        <ele>2605.0</ele>
        <time>2018-09-01T13:08:32Z</time>
      </trkpt>
      <trkpt lat="40.513267" lon="-5.194050">
        <ele>2605.0</ele>
        <time>2018-09-01T13:08:33Z</time>
      </trkpt>
      <trkpt lat="40.513367" lon="-5.193933">
        <ele>2606.0</ele>
        <time>2018-09-01T13:08:34Z</time>
      </trkpt>
      <trkpt lat="40.513483" lon="-5.193833">
        <ele>2606.0</ele>
        <time>2018-09-01T13:08:35Z</time>
      </trkpt>
      <trkpt lat="40.513600" lon="-5.193733">
        <ele>2607.0</ele>
        <time>2018-09-01T13:08:36Z</time>
      </trkpt>
      <trkpt lat="40.513717" lon="-5.193633">
        <ele>2608.0</ele>
        <time>2018-09-01T13:08:37Z</time>
      </trkpt>
      <trkpt lat="40.513817" lon="-5.193517">
        <ele>2609.0</ele>
        <time>2018-09-01T13:08:38Z</time>
      </trkpt>
      <trkpt lat="40.513933" lon="-5.193400">
        <ele>2613.0</ele>
        <time>2018-09-01T13:08:39Z</time>
      </trkpt>
      <trkpt lat="40.514033" lon="-5.193283">
        <ele>2618.0</ele>
        <time>2018-09-01T13:08:40Z</time>
      </trkpt>
      <trkpt lat="40.514133" lon="-5.193183">
        <ele>2623.0</ele>
        <time>2018-09-01T13:08:41Z</time>
      </trkpt>
      <trkpt lat="40.514217" lon="-5.193083">
        <ele>2627.0</ele>
        <time>2018-09-01T13:08:42Z</time>
      </trkpt>
      <trkpt lat="40.514283" lon="-5.193000">
        <ele>2630.0</ele>
        <time>2018-09-01T13:08:43Z</time>
      </trkpt>
      <trkpt lat="40.514367" lon="-5.192917">
        <ele>2632.0</ele>
        <time>2018-09-01T13:08:44Z</time>
      </trkpt>
      <trkpt lat="40.514467" lon="-5.192833">
        <ele>2633.0</ele>
        <time>2018-09-01T13:08:45Z</time>
      </trkpt>
      <trkpt lat="40.514567" lon="-5.192733">
        <ele>2634.0</ele>
        <time>2018-09-01T13:08:46Z</time>
      </trkpt>
      <trkpt lat="40.514683" lon="-5.192633">
        <ele>2636.0</ele>
        <time>2018-09-01T13:08:47Z</time>
      </trkpt>
      <trkpt lat="40.514783" lon="-5.192533">
        <ele>2638.0</ele>
        <time>2018-09-01T13:08:48Z</time>
      </trkpt>
      <trkpt lat="40.514883" lon="-5.192433">
        <ele>2640.0</ele>
        <time>2018-09-01T13:08:49Z</time>
      </trkpt>
      <trkpt lat="40.514983" lon="-5.192350">
        <ele>2643.0</ele>
        <time>2018-09-01T13:08:50Z</time>
      </trkpt>
      <trkpt lat="40.515083" lon="-5.192267">
        <ele>2645.0</ele>
        <time>2018-09-01T13:08:51Z</time>
      </trkpt>
      <trkpt lat="40.515167" lon="-5.192217">
        <ele>2647.0</ele>
        <time>2018-09-01T13:08:52Z</time>
      </trkpt>
      <trkpt lat="40.515267" lon="-5.192150">
        <ele>2648.0</ele>
        <time>2018-09-01T13:08:53Z</time>
      </trkpt>
      <trkpt lat="40.515367" lon="-5.192100">
        <ele>2649.0</ele>
        <time>2018-09-01T13:08:54Z</time>
      </trkpt>
      <trkpt lat="40.515483" lon="-5.192033">
        <ele>2650.0</ele>
        <time>2018-09-01T13:08:55Z</time>
      </trkpt>
      <trkpt lat="40.515600" lon="-5.191967">
        <ele>2651.0</ele>
        <time>2018-09-01T13:08:56Z</time>
      </trkpt>
      <trkpt lat="40.515700" lon="-5.191917">
        <ele>2653.0</ele>
        <time>2018-09-01T13:08:57Z</time>
      </trkpt>
      <trkpt lat="40.515817" lon="-5.191850">
        <ele>2655.0</ele>
        <time>2018-09-01T13:08:58Z</time>
      </trkpt>
      <trkpt lat="40.515917" lon="-5.191800">
        <ele>2657.0</ele>
        <time>2018-09-01T13:08:59Z</time>
      </trkpt>
      <trkpt lat="40.516033" lon="-5.191733">
        <ele>2658.0</ele>
        <time>2018-09-01T13:09:00Z</time>
      </trkpt>
      <trkpt lat="40.516133" lon="-5.191650">
        <ele>2660.0</ele>
        <time>2018-09-01T13:09:01Z</time>
      </trkpt>
      <trkpt lat="40.516233" lon="-5.191533">
        <ele>2663.0</ele>
        <time>2018-09-01T13:09:02Z</time>
      </trkpt>
      <trkpt lat="40.516333" lon="-5.191417">
        <ele>2666.0</ele>
        <time>2018-09-01T13:09:03Z</time>
      </trkpt>
      <trkpt lat="40.516417" lon="-5.191267">
        <ele>2669.0</ele>
        <time>2018-09-01T13:09:04Z</time>
      </trkpt>
      <trkpt lat="40.516500" lon="-5.191117">
        <ele>2672.0</ele>
        <time>2018-09-01T13:09:05Z</time>
      </trkpt>
      <trkpt lat="40.516567" lon="-5.190950">
        <ele>2675.0</ele>
        <time>2018-09-01T13:09:06Z</time>
      </trkpt>
      <trkpt lat="40.516617" lon="-5.190767">
        <ele>2678.0</ele>
        <time>2018-09-01T13:09:07Z</time>
      </trkpt>
      <trkpt lat="40.516633" lon="-5.190567">
        <ele>2679.0</ele>
        <time>2018-09-01T13:09:08Z</time>
      </trkpt>
      <trkpt lat="40.516633" lon="-5.190350">
        <ele>2682.0</ele>
        <time>2018-09-01T13:09:09Z</time>
      </trkpt>
      <trkpt lat="40.516600" lon="-5.190150">
        <ele>2685.0</ele>
        <time>2018-09-01T13:09:10Z</time>
      </trkpt>
      <trkpt lat="40.516550" lon="-5.190000">
        <ele>2691.0</ele>
        <time>2018-09-01T13:09:11Z</time>
      </trkpt>
      <trkpt lat="40.516500" lon="-5.189900">
        <ele>2695.0</ele>
        <time>2018-09-01T13:09:12Z</time>
      </trkpt>
      <trkpt lat="40.516433" lon="-5.189817">
        <ele>2698.0</ele>
        <time>2018-09-01T13:09:13Z</time>
      </trkpt>
      <trkpt lat="40.516350" lon="-5.189783">
        <ele>2699.0</ele>
        <time>2018-09-01T13:09:14Z</time>
      </trkpt>
      <trkpt lat="40.516267" lon="-5.189733">
        <ele>2701.0</ele>
        <time>2018-09-01T13:09:15Z</time>
      </trkpt>
      <trkpt lat="40.516200" lon="-5.189717">
        <ele>2703.0</ele>
        <time>2018-09-01T13:09:16Z</time>
      </trkpt>
      <trkpt lat="40.516133" lon="-5.189717">
        <ele>2706.0</ele>
        <time>2018-09-01T13:09:17Z</time>
      </trkpt>
      <trkpt lat="40.516067" lon="-5.189767">
        <ele>2708.0</ele>
        <time>2018-09-01T13:09:18Z</time>
      </trkpt>
      <trkpt lat="40.516033" lon="-5.189833">
        <ele>2709.0</ele>
        <time>2018-09-01T13:09:19Z</time>
      </trkpt>
      <trkpt lat="40.516017" lon="-5.189917">
        <ele>2711.0</ele>
        <time>2018-09-01T13:09:20Z</time>
      </trkpt>
      <trkpt lat="40.516017" lon="-5.189983">
        <ele>2713.0</ele>
        <time>2018-09-01T13:09:21Z</time>
      </trkpt>
      <trkpt lat="40.516033" lon="-5.190067">
        <ele>2715.0</ele>
        <time>2018-09-01T13:09:22Z</time>
      </trkpt>
      <trkpt lat="40.516067" lon="-5.190150">
        <ele>2716.0</ele>
        <time>2018-09-01T13:09:23Z</time>
      </trkpt>
      <trkpt lat="40.516117" lon="-5.190217">
        <ele>2717.0</ele>
        <time>2018-09-01T13:09:24Z</time>
      </trkpt>
      <trkpt lat="40.516200" lon="-5.190283">
        <ele>2718.0</ele>
        <time>2018-09-01T13:09:25Z</time>
      </trkpt>
      <trkpt lat="40.516300" lon="-5.190333">
        <ele>2720.0</ele>
        <time>2018-09-01T13:09:26Z</time>
      </trkpt>
      <trkpt lat="40.516417" lon="-5.190367">
        <ele>2722.0</ele>
        <time>2018-09-01T13:09:27Z</time>
      </trkpt>
      <trkpt lat="40.516550" lon="-5.190367">
        <ele>2725.0</ele>
        <time>2018-09-01T13:09:28Z</time>
      </trkpt>
      <trkpt lat="40.516667" lon="-5.190350">
        <ele>2729.0</ele>
        <time>2018-09-01T13:09:29Z</time>
      </trkpt>
      <trkpt lat="40.516783" lon="-5.190300">
        <ele>2731.0</ele>
        <time>2018-09-01T13:09:30Z</time>
      </trkpt>
      <trkpt lat="40.516900" lon="-5.190217">
        <ele>2733.0</ele>
        <time>2018-09-01T13:09:31Z</time>
      </trkpt>
      <trkpt lat="40.517017" lon="-5.190100">
        <ele>2734.0</ele>
        <time>2018-09-01T13:09:32Z</time>
      </trkpt>
      <trkpt lat="40.517133" lon="-5.189967">
        <ele>2736.0</ele>
        <time>2018-09-01T13:09:33Z</time>
      </trkpt>
      <trkpt lat="40.517217" lon="-5.189817">
        <ele>2739.0</ele>
        <time>2018-09-01T13:09:34Z</time>
      </trkpt>
      <trkpt lat="40.517283" lon="-5.189633">
        <ele>2743.0</ele>
        <time>2018-09-01T13:09:35Z</time>
      </trkpt>
      <trkpt lat="40.517317" lon="-5.189467">
        <ele>2746.0</ele>
        <time>2018-09-01T13:09:36Z</time>
      </trkpt>
      <trkpt lat="40.517333" lon="-5.189300">
        <ele>2750.0</ele>
        <time>2018-09-01T13:09:37Z</time>
      </trkpt>
      <trkpt lat="40.517333" lon="-5.189150">
        <ele>2753.0</ele>
        <time>2018-09-01T13:09:38Z</time>
      </trkpt>
      <trkpt lat="40.517300" lon="-5.189000">
        <ele>2755.0</ele>
        <time>2018-09-01T13:09:39Z</time>
      </trkpt>
      <trkpt lat="40.517250" lon="-5.188883">
        <ele>2757.0</ele>
        <time>2018-09-01T13:09:40Z</time>
      </trkpt>
      <trkpt lat="40.517183" lon="-5.188767">
        <ele>2758.0</ele>
        <time>2018-09-01T13:09:41Z</time>
      </trkpt>
      <trkpt lat="40.517100" lon="-5.188700">
        <ele>2759.0</ele>
        <time>2018-09-01T13:09:42Z</time>
      </trkpt>
      <trkpt lat="40.517017" lon="-5.188650">
        <ele>2761.0</ele>
        <time>2018-09-01T13:09:43Z</time>
      </trkpt>
      <trkpt lat="40.516917" lon="-5.188650">
        <ele>2763.0</ele>
        <time>2018-09-01T13:09:44Z</time>
      </trkpt>
      <trkpt lat="40.516833" lon="-5.188650">
        <ele>2766.0</ele>
        <time>2018-09-01T13:09:45Z</time>
      </trkpt>
      <trkpt lat="40.516767" lon="-5.188683">
        <ele>2769.0</ele>
        <time>2018-09-01T13:09:46Z</time>
      </trkpt>
      <trkpt lat="40.516700" lon="-5.188733">
        <ele>2771.0</ele>
        <time>2018-09-01T13:09:47Z</time>
      </trkpt>
      <trkpt lat="40.516667" lon="-5.188800">
        <ele>2773.0</ele>
        <time>2018-09-01T13:09:48Z</time>
      </trkpt>
      <trkpt lat="40.516617" lon="-5.188867">
        <ele>2775.0</ele>
        <time>2018-09-01T13:09:49Z</time>
      </trkpt>
      <trkpt lat="40.516600" lon="-5.188967">
        <ele>2777.0</ele>
        <time>2018-09-01T13:09:50Z</time>
      </trkpt>
      <trkpt lat="40.516600" lon="-5.189050">
        <ele>2779.0</ele>
        <time>2018-09-01T13:09:51Z</time>
      </trkpt>
      <trkpt lat="40.516617" lon="-5.189150">
        <ele>2781.0</ele>
        <time>2018-09-01T13:09:52Z</time>
      </trkpt>
      <trkpt lat="40.516667" lon="-5.189250">
        <ele>2783.0</ele>
        <time>2018-09-01T13:09:53Z</time>
      </trkpt>
      <trkpt lat="40.516750" lon="-5.189333">
        <ele>2785.0</ele>
        <time>2018-09-01T13:09:54Z</time>
      </trkpt>
      <trkpt lat="40.516817" lon="-5.189400">
        <ele>2788.0</ele>
        <time>2018-09-01T13:09:55Z</time>
      </trkpt>
      <trkpt lat="40.516900" lon="-5.189450">
        <ele>2792.0</ele>
        <time>2018-09-01T13:09:56Z</time>
      </trkpt>
      <trkpt lat="40.517000" lon="-5.189483">
        <ele>2795.0</ele>
        <time>2018-09-01T13:09:57Z</time>
      </trkpt>
      <trkpt lat="40.517100" lon="-5.189517">
        <ele>2797.0</ele>
        <time>2018-09-01T13:09:58Z</time>
      </trkpt>
      <trkpt lat="40.517217" lon="-5.189517">
        <ele>2799.0</ele>
        <time>2018-09-01T13:09:59Z</time>
      </trkpt>
      <trkpt lat="40.517333" lon="-5.189517">
        <ele>2800.0</ele>
        <time>2018-09-01T13:10:00Z</time>
      </trkpt>
      <trkpt lat="40.517467" lon="-5.189500">
        <ele>2802.0</ele>
        <time>2018-09-01T13:10:01Z</time>
      </trkpt>
      <trkpt lat="40.517600" lon="-5.189450">
        <ele>2805.0</ele>
        <time>2018-09-01T13:10:02Z</time>
      </trkpt>
      <trkpt lat="40.517717" lon="-5.189367">
        <ele>2807.0</ele>
        <time>2018-09-01T13:10:03Z</time>
      </trkpt>
      <trkpt lat="40.517833" lon="-5.189267">
        <ele>2809.0</ele>
        <time>2018-09-01T13:10:04Z</time>
      </trkpt>
      <trkpt lat="40.517933" lon="-5.189133">
        <ele>2811.0</ele>
        <time>2018-09-01T13:10:05Z</time>
      </trkpt>
      <trkpt lat="40.518033" lon="-5.189000">
        <ele>2813.0</ele>
        <time>2018-09-01T13:10:06Z</time>
      </trkpt>
      <trkpt lat="40.518117" lon="-5.188850">
        <ele>2816.0</ele>
        <time>2018-09-01T13:10:07Z</time>
      </trkpt>
      <trkpt lat="40.518200" lon="-5.188683">
        <ele>2818.0</ele>
        <time>2018-09-01T13:10:08Z</time>
      </trkpt>
      <trkpt lat="40.518250" lon="-5.188517">
        <ele>2820.0</ele>
        <time>2018-09-01T13:10:09Z</time>
      </trkpt>
      <trkpt lat="40.518267" lon="-5.188333">
        <ele>2821.0</ele>
        <time>2018-09-01T13:10:10Z</time>
      </trkpt>
      <trkpt lat="40.518267" lon="-5.188167">
        <ele>2824.0</ele>
        <time>2018-09-01T13:10:11Z</time>
      </trkpt>
      <trkpt lat="40.518250" lon="-5.188017">
        <ele>2826.0</ele>
        <time>2018-09-01T13:10:12Z</time>
      </trkpt>
      <trkpt lat="40.518200" lon="-5.187883">
        <ele>2829.0</ele>
        <time>2018-09-01T13:10:13Z</time>
      </trkpt>
      <trkpt lat="40.518150" lon="-5.187783">
        <ele>2831.0</ele>
        <time>2018-09-01T13:10:14Z</time>
      </trkpt>
      <trkpt lat="40.518083" lon="-5.187700">
        <ele>2832.0</ele>
        <time>2018-09-01T13:10:15Z</time>
      </trkpt>
      <trkpt lat="40.518000" lon="-5.187650">
        <ele>2833.0</ele>
        <time>2018-09-01T13:10:16Z</time>
      </trkpt>
      <trkpt lat="40.517900" lon="-5.187633">
        <ele>2834.0</ele>
        <time>2018-09-01T13:10:17Z</time>
      </trkpt>
      <trkpt lat="40.517817" lon="-5.187667">
        <ele>2836.0</ele>
        <time>2018-09-01T13:10:18Z</time>
      </trkpt>
      <trkpt lat="40.517733" lon="-5.187700">
        <ele>2839.0</ele>
        <time>2018-09-01T13:10:19Z</time>
      </trkpt>
      <trkpt lat="40.517667" lon="-5.187750">
        <ele>2842.0</ele>
        <time>2018-09-01T13:10:20Z</time>
      </trkpt>
      <trkpt lat="40.517633" lon="-5.187800">
        <ele>2845.0</ele>
        <time>2018-09-01T13:10:21Z</time>
      </trkpt>
      <trkpt lat="40.517583" lon="-5.187850">
        <ele>2847.0</ele>
        <time>2018-09-01T13:10:22Z</time>
      </trkpt>
      <trkpt lat="40.517567" lon="-5.187933">
        <ele>2849.0</ele>
        <time>2018-09-01T13:10:23Z</time>
      </trkpt>
      <trkpt lat="40.517567" lon="-5.188017">
        <ele>2850.0</ele>
        <time>2018-09-01T13:10:24Z</time>
      </trkpt>
      <trkpt lat="40.517567" lon="-5.188133">
        <ele>2850.0</ele>
        <time>2018-09-01T13:10:25Z</time>
      </trkpt>
      <trkpt lat="40.517583" lon="-5.188250">
        <ele>2852.0</ele>
        <time>2018-09-01T13:10:26Z</time>
      </trkpt>
      <trkpt lat="40.517600" lon="-5.188350">
        <ele>2855.0</ele>
        <time>2018-09-01T13:10:27Z</time>
      </trkpt>
      <trkpt lat="40.517650" lon="-5.188450">
        <ele>2859.0</ele>
        <time>2018-09-01T13:10:28Z</time>
      </trkpt>
      <trkpt lat="40.517700" lon="-5.188517">
        <ele>2862.0</ele>
        <time>2018-09-01T13:10:29Z</time>
      </trkpt>
      <trkpt lat="40.517783" lon="-5.188600">
        <ele>2865.0</ele>
        <time>2018-09-01T13:10:30Z</time>
      </trkpt>
      <trkpt lat="40.517867" lon="-5.188650">
        <ele>2867.0</ele>
        <time>2018-09-01T13:10:31Z</time>
      </trkpt>
      <trkpt lat="40.517967" lon="-5.188717">
        <ele>2868.0</ele>
        <time>2018-09-01T13:10:32Z</time>
      </trkpt>
      <trkpt lat="40.518083" lon="-5.188750">
        <ele>2870.0</ele>
        <time>2018-09-01T13:10:33Z</time>
      </trkpt>
      <trkpt lat="40.518233" lon="-5.188733">
        <ele>2872.0</ele>
        <time>2018-09-01T13:10:34Z</time>
      </trkpt>
      <trkpt lat="40.518367" lon="-5.188683">
        <ele>2874.0</ele>
        <time>2018-09-01T13:10:35Z</time>
      </trkpt>
      <trkpt lat="40.518500" lon="-5.188600">
        <ele>2877.0</ele>
        <time>2018-09-01T13:10:36Z</time>
      </trkpt>
      <trkpt lat="40.518617" lon="-5.188500">
        <ele>2881.0</ele>
        <time>2018-09-01T13:10:37Z</time>
      </trkpt>
      <trkpt lat="40.518717" lon="-5.188417">
        <ele>2885.0</ele>
        <time>2018-09-01T13:10:38Z</time>
      </trkpt>
      <trkpt lat="40.518833" lon="-5.188383">
        <ele>2889.0</ele>
        <time>2018-09-01T13:10:39Z</time>
      </trkpt>
      <trkpt lat="40.518950" lon="-5.188333">
        <ele>2891.0</ele>
        <time>2018-09-01T13:10:40Z</time>
      </trkpt>
      <trkpt lat="40.519083" lon="-5.188300">
        <ele>2892.0</ele>
        <time>2018-09-01T13:10:41Z</time>
      </trkpt>
      <trkpt lat="40.519217" lon="-5.188250">
        <ele>2894.0</ele>
        <time>2018-09-01T13:10:42Z</time>
      </trkpt>
      <trkpt lat="40.519350" lon="-5.188233">
        <ele>2897.0</ele>
        <time>2018-09-01T13:10:43Z</time>
      </trkpt>
      <trkpt lat="40.519483" lon="-5.188250">
        <ele>2901.0</ele>
        <time>2018-09-01T13:10:44Z</time>
      </trkpt>
      <trkpt lat="40.519583" lon="-5.188300">
        <ele>2904.0</ele>
        <time>2018-09-01T13:10:45Z</time>
      </trkpt>
      <trkpt lat="40.519683" lon="-5.188400">
        <ele>2907.0</ele>
        <time>2018-09-01T13:10:46Z</time>
      </trkpt>
      <trkpt lat="40.519733" lon="-5.188533">
        <ele>2910.0</ele>
        <time>2018-09-01T13:10:47Z</time>
      </trkpt>
      <trkpt lat="40.519767" lon="-5.188650">
        <ele>2914.0</ele>
        <time>2018-09-01T13:10:48Z</time>
      </trkpt>
      <trkpt lat="40.519783" lon="-5.188767">
        <ele>2918.0</ele>
        <time>2018-09-01T13:10:49Z</time>
      </trkpt>
      <trkpt lat="40.519767" lon="-5.188867">
        <ele>2922.0</ele>
        <time>2018-09-01T13:10:50Z</time>
      </trkpt>
      <trkpt lat="40.519733" lon="-5.188950">
        <ele>2926.0</ele>
        <time>2018-09-01T13:10:51Z</time>
      </trkpt>
      <trkpt lat="40.519667" lon="-5.189017">
        <ele>2928.0</ele>
        <time>2018-09-01T13:10:52Z</time>
      </trkpt>
      <trkpt lat="40.519583" lon="-5.189033">
        <ele>2931.0</ele>
        <time>2018-09-01T13:10:53Z</time>
      </trkpt>
      <trkpt lat="40.519500" lon="-5.189017">
        <ele>2935.0</ele>
        <time>2018-09-01T13:10:54Z</time>
      </trkpt>
      <trkpt lat="40.519433" lon="-5.188950">
        <ele>2939.0</ele>
        <time>2018-09-01T13:10:55Z</time>
      </trkpt>
      <trkpt lat="40.519367" lon="-5.188833">
        <ele>2943.0</ele>
        <time>2018-09-01T13:10:56Z</time>
      </trkpt>
      <trkpt lat="40.519350" lon="-5.188700">
        <ele>2947.0</ele>
        <time>2018-09-01T13:10:57Z</time>
      </trkpt>
      <trkpt lat="40.519350" lon="-5.188550">
        <ele>2951.0</ele>
        <time>2018-09-01T13:10:58Z</time>
      </trkpt>
      <trkpt lat="40.519400" lon="-5.188400">
        <ele>2954.0</ele>
        <time>2018-09-01T13:10:59Z</time>
      </trkpt>
      <trkpt lat="40.519483" lon="-5.188267">
        <ele>2957.0</ele>
        <time>2018-09-01T13:11:00Z</time>
      </trkpt>
      <trkpt lat="40.519583" lon="-5.188150">
        <ele>2959.0</ele>
        <time>2018-09-01T13:11:01Z</time>
      </trkpt>
      <trkpt lat="40.519717" lon="-5.188083">
        <ele>2962.0</ele>
        <time>2018-09-01T13:11:02Z</time>
      </trkpt>
      <trkpt lat="40.519850" lon="-5.188050">
        <ele>2966.0</ele>
        <time>2018-09-01T13:11:03Z</time>
      </trkpt>
      <trkpt lat="40.519983" lon="-5.188067">
        <ele>2970.0</ele>
        <time>2018-09-01T13:11:04Z</time>
      </trkpt>
      <trkpt lat="40.520100" lon="-5.188100">
        <ele>2974.0</ele>
        <time>2018-09-01T13:11:05Z</time>
      </trkpt>
      <trkpt lat="40.520200" lon="-5.188133">
        <ele>2979.0</ele>
        <time>2018-09-01T13:11:06Z</time>
      </trkpt>
      <trkpt lat="40.520300" lon="-5.188200">
        <ele>2983.0</ele>
        <time>2018-09-01T13:11:07Z</time>
      </trkpt>
      <trkpt lat="40.520367" lon="-5.188300">
        <ele>2986.0</ele>
        <time>2018-09-01T13:11:08Z</time>
      </trkpt>
      <trkpt lat="40.520417" lon="-5.188417">
        <ele>2989.0</ele>
        <time>2018-09-01T13:11:09Z</time>
      </trkpt>
      <trkpt lat="40.520450" lon="-5.188550">
        <ele>2992.0</ele>
        <time>2018-09-01T13:11:10Z</time>
      </trkpt>
      <trkpt lat="40.520450" lon="-5.188683">
        <ele>2996.0</ele>
        <time>2018-09-01T13:11:11Z</time>
      </trkpt>
      <trkpt lat="40.520417" lon="-5.188783">
        <ele>3000.0</ele>
        <time>2018-09-01T13:11:12Z</time>
      </trkpt>
      <trkpt lat="40.520350" lon="-5.188833">
        <ele>3003.0</ele>
        <time>2018-09-01T13:11:13Z</time>
      </trkpt>
      <trkpt lat="40.520267" lon="-5.188850">
        <ele>3006.0</ele>
        <time>2018-09-01T13:11:14Z</time>
      </trkpt>
      <trkpt lat="40.520183" lon="-5.188817">
        <ele>3010.0</ele>
        <time>2018-09-01T13:11:15Z</time>
      </trkpt>
      <trkpt lat="40.520117" lon="-5.188750">
        <ele>3014.0</ele>
        <time>2018-09-01T13:11:16Z</time>
      </trkpt>
      <trkpt lat="40.520067" lon="-5.188633">
        <ele>3018.0</ele>
        <time>2018-09-01T13:11:17Z</time>
      </trkpt>
      <trkpt lat="40.520050" lon="-5.188483">
        <ele>3022.0</ele>
        <time>2018-09-01T13:11:18Z</time>
      </trkpt>
      <trkpt lat="40.520067" lon="-5.188333">
        <ele>3026.0</ele>
        <time>2018-09-01T13:11:19Z</time>
      </trkpt>
      <trkpt lat="40.520100" lon="-5.188183">
        <ele>3030.0</ele>
        <time>2018-09-01T13:11:20Z</time>
      </trkpt>
      <trkpt lat="40.520150" lon="-5.188033">
        <ele>3034.0</ele>
        <time>2018-09-01T13:11:21Z</time>
      </trkpt>
      <trkpt lat="40.520217" lon="-5.187917">
        <ele>3038.0</ele>
        <time>2018-09-01T13:11:22Z</time>
      </trkpt>
      <trkpt lat="40.520283" lon="-5.187783">
        <ele>3042.0</ele>
        <time>2018-09-01T13:11:23Z</time>
      </trkpt>
      <trkpt lat="40.520367" lon="-5.187683">
        <ele>3046.0</ele>
        <time>2018-09-01T13:11:24Z</time>
      </trkpt>
      <trkpt lat="40.520450" lon="-5.187567">
        <ele>3051.0</ele>
        <time>2018-09-01T13:11:25Z</time>
      </trkpt>
      <trkpt lat="40.520550" lon="-5.187467">
        <ele>3056.0</ele>
        <time>2018-09-01T13:11:26Z</time>
      </trkpt>
      <trkpt lat="40.520633" lon="-5.187367">
        <ele>3060.0</ele>
        <time>2018-09-01T13:11:27Z</time>
      </trkpt>
      <trkpt lat="40.520733" lon="-5.187267">
        <ele>3064.0</ele>
        <time>2018-09-01T13:11:28Z</time>
      </trkpt>
      <trkpt lat="40.520850" lon="-5.187167">
        <ele>3067.0</ele>
        <time>2018-09-01T13:11:29Z</time>
      </trkpt>
      <trkpt lat="40.520967" lon="-5.187067">
        <ele>3072.0</ele>
        <time>2018-09-01T13:11:30Z</time>
      </trkpt>
      <trkpt lat="40.521100" lon="-5.187000">
        <ele>3077.0</ele>
        <time>2018-09-01T13:11:31Z</time>
      </trkpt>
      <trkpt lat="40.521233" lon="-5.186967">
        <ele>3081.0</ele>
        <time>2018-09-01T13:11:32Z</time>
      </trkpt>
      <trkpt lat="40.521350" lon="-5.186950">
        <ele>3085.0</ele>
        <time>2018-09-01T13:11:33Z</time>
      </trkpt>
      <trkpt lat="40.521483" lon="-5.186983">
        <ele>3089.0</ele>
        <time>2018-09-01T13:11:34Z</time>
      </trkpt>
      <trkpt lat="40.521583" lon="-5.187033">
        <ele>3094.0</ele>
        <time>2018-09-01T13:11:35Z</time>
      </trkpt>
      <trkpt lat="40.521650" lon="-5.187100">
        <ele>3099.0</ele>
        <time>2018-09-01T13:11:36Z</time>
      </trkpt>
      <trkpt lat="40.521683" lon="-5.187183">
        <ele>3103.0</ele>
        <time>2018-09-01T13:11:37Z</time>
      </trkpt>
      <trkpt lat="40.521700" lon="-5.187267">
        <ele>3106.0</ele>
        <time>2018-09-01T13:11:38Z</time>
      </trkpt>
      <trkpt lat="40.521700" lon="-5.187367">
        <ele>3108.0</ele>
        <time>2018-09-01T13:11:39Z</time>
      </trkpt>
      <trkpt lat="40.521700" lon="-5.187483">
        <ele>3111.0</ele>
        <time>2018-09-01T13:11:40Z</time>
      </trkpt>
      <trkpt lat="40.521683" lon="-5.187617">
        <ele>3114.0</ele>
        <time>2018-09-01T13:11:41Z</time>
      </trkpt>
      <trkpt lat="40.521667" lon="-5.187733">
        <ele>3118.0</ele>
        <time>2018-09-01T13:11:42Z</time>
      </trkpt>
      <trkpt lat="40.521650" lon="-5.187867">
        <ele>3124.0</ele>
        <time>2018-09-01T13:11:43Z</time>
      </trkpt>
      <trkpt lat="40.521633" lon="-5.187967">
        <ele>3131.0</ele>
        <time>2018-09-01T13:11:44Z</time>
      </trkpt>
      <trkpt lat="40.521617" lon="-5.188067">
        <ele>3137.0</ele>
        <time>2018-09-01T13:11:45Z</time>
      </trkpt>
      <trkpt lat="40.521600" lon="-5.188167">
        <ele>3143.0</ele>
        <time>2018-09-01T13:11:46Z</time>
      </trkpt>
      <trkpt lat="40.521583" lon="-5.188283">
        <ele>3148.0</ele>
        <time>2018-09-01T13:11:47Z</time>
      </trkpt>
      <trkpt lat="40.521550" lon="-5.188383">
        <ele>3152.0</ele>
        <time>2018-09-01T13:11:48Z</time>
      </trkpt>
      <trkpt lat="40.521500" lon="-5.188450">
        <ele>3157.0</ele>
        <time>2018-09-01T13:11:49Z</time>
      </trkpt>
      <trkpt lat="40.521433" lon="-5.188483">
        <ele>3162.0</ele>
        <time>2018-09-01T13:11:50Z</time>
      </trkpt>
      <trkpt lat="40.521367" lon="-5.188483">
        <ele>3166.0</ele>
        <time>2018-09-01T13:11:51Z</time>
      </trkpt>
      <trkpt lat="40.521283" lon="-5.188467">
        <ele>3170.0</ele>
        <time>2018-09-01T13:11:52Z</time>
      </trkpt>
      <trkpt lat="40.521217" lon="-5.188433">
        <ele>3175.0</ele>
        <time>2018-09-01T13:11:53Z</time>
      </trkpt>
      <trkpt lat="40.521150" lon="-5.188417">
        <ele>3180.0</ele>
        <time>2018-09-01T13:11:54Z</time>
      </trkpt>
      <trkpt lat="40.521100" lon="-5.188383">
        <ele>3184.0</ele>
        <time>2018-09-01T13:11:55Z</time>
      </trkpt>
      <trkpt lat="40.521033" lon="-5.188333">
        <ele>3188.0</ele>
        <time>2018-09-01T13:11:56Z</time>
      </trkpt>
      <trkpt lat="40.520983" lon="-5.188283">
        <ele>3192.0</ele>
        <time>2018-09-01T13:11:57Z</time>
      </trkpt>
      <trkpt lat="40.520933" lon="-5.188217">
        <ele>3196.0</ele>
        <time>2018-09-01T13:11:58Z</time>
      </trkpt>
      <trkpt lat="40.520900" lon="-5.188133">
        <ele>3199.0</ele>
        <time>2018-09-01T13:11:59Z</time>
      </trkpt>
      <trkpt lat="40.520850" lon="-5.188033">
        <ele>3201.0</ele>
        <time>2018-09-01T13:12:00Z</time>
      </trkpt>
      <trkpt lat="40.520817" lon="-5.187917">
        <ele>3203.0</ele>
        <time>2018-09-01T13:12:01Z</time>
      </trkpt>
      <trkpt lat="40.520817" lon="-5.187783">
        <ele>3206.0</ele>
        <time>2018-09-01T13:12:02Z</time>
      </trkpt>
      <trkpt lat="40.520817" lon="-5.187650">
        <ele>3209.0</ele>
        <time>2018-09-01T13:12:03Z</time>
      </trkpt>
      <trkpt lat="40.520850" lon="-5.187500">
        <ele>3212.0</ele>
        <time>2018-09-01T13:12:04Z</time>
      </trkpt>
      <trkpt lat="40.520883" lon="-5.187350">
        <ele>3216.0</ele>
        <time>2018-09-01T13:12:05Z</time>
      </trkpt>
      <trkpt lat="40.520933" lon="-5.187200">
        <ele>3221.0</ele>
        <time>2018-09-01T13:12:06Z</time>
      </trkpt>
      <trkpt lat="40.520983" lon="-5.187083">
        <ele>3225.0</ele>
        <time>2018-09-01T13:12:07Z</time>
      </trkpt>
      <trkpt lat="40.521050" lon="-5.186950">
        <ele>3229.0</ele>
        <time>2018-09-01T13:12:08Z</time>
      </trkpt>
      <trkpt lat="40.521117" lon="-5.186833">
        <ele>3231.0</ele>
        <time>2018-09-01T13:12:09Z</time>
      </trkpt>
      <trkpt lat="40.521200" lon="-5.186717">
        <ele>3234.0</ele>
        <time>2018-09-01T13:12:10Z</time>
      </trkpt>
      <trkpt lat="40.521300" lon="-5.186600">
        <ele>3236.0</ele>
        <time>2018-09-01T13:12:11Z</time>
      </trkpt>
      <trkpt lat="40.521400" lon="-5.186483">
        <ele>3239.0</ele>
        <time>2018-09-01T13:12:12Z</time>
      </trkpt>
      <trkpt lat="40.521500" lon="-5.186367">
        <ele>3243.0</ele>
        <time>2018-09-01T13:12:13Z</time>
      </trkpt>
      <trkpt lat="40.521600" lon="-5.186250">
        <ele>3248.0</ele>
        <time>2018-09-01T13:12:14Z</time>
      </trkpt>
      <trkpt lat="40.521683" lon="-5.186150">
        <ele>3254.0</ele>
        <time>2018-09-01T13:12:15Z</time>
      </trkpt>
      <trkpt lat="40.521783" lon="-5.186067">
        <ele>3259.0</ele>
        <time>2018-09-01T13:12:16Z</time>
      </trkpt>
      <trkpt lat="40.521867" lon="-5.186000">
        <ele>3263.0</ele>
        <time>2018-09-01T13:12:17Z</time>
      </trkpt>
      <trkpt lat="40.521967" lon="-5.185917">
        <ele>3267.0</ele>
        <time>2018-09-01T13:12:18Z</time>
      </trkpt>
      <trkpt lat="40.522067" lon="-5.185833">
        <ele>3270.0</ele>
        <time>2018-09-01T13:12:19Z</time>
      </trkpt>
      <trkpt lat="40.522183" lon="-5.185767">
        <ele>3274.0</ele>
        <time>2018-09-01T13:12:20Z</time>
      </trkpt>
      <trkpt lat="40.522300" lon="-5.185717">
        <ele>3277.0</ele>
        <time>2018-09-01T13:12:21Z</time>
      </trkpt>
      <trkpt lat="40.522417" lon="-5.185700">
        <ele>3281.0</ele>
        <time>2018-09-01T13:12:22Z</time>
      </trkpt>
      <trkpt lat="40.522517" lon="-5.185700">
        <ele>3283.0</ele>
        <time>2018-09-01T13:12:23Z</time>
      </trkpt>
      <trkpt lat="40.522633" lon="-5.185717">
        <ele>3286.0</ele>
        <time>2018-09-01T13:12:24Z</time>
      </trkpt>
      <trkpt lat="40.522733" lon="-5.185750">
        <ele>3289.0</ele>
        <time>2018-09-01T13:12:25Z</time>
      </trkpt>
      <trkpt lat="40.522833" lon="-5.185817">
        <ele>3291.0</ele>
        <time>2018-09-01T13:12:26Z</time>
      </trkpt>
      <trkpt lat="40.522900" lon="-5.185917">
        <ele>3292.0</ele>
        <time>2018-09-01T13:12:27Z</time>
      </trkpt>
      <trkpt lat="40.522933" lon="-5.186033">
        <ele>3293.0</ele>
        <time>2018-09-01T13:12:28Z</time>
      </trkpt>
      <trkpt lat="40.522950" lon="-5.186167">
        <ele>3293.0</ele>
        <time>2018-09-01T13:12:29Z</time>
      </trkpt>
      <trkpt lat="40.522917" lon="-5.186300">
        <ele>3294.0</ele>
        <time>2018-09-01T13:12:30Z</time>
      </trkpt>
      <trkpt lat="40.522867" lon="-5.186417">
        <ele>3295.0</ele>
        <time>2018-09-01T13:12:31Z</time>
      </trkpt>
      <trkpt lat="40.522817" lon="-5.186517">
        <ele>3298.0</ele>
        <time>2018-09-01T13:12:32Z</time>
      </trkpt>
      <trkpt lat="40.522750" lon="-5.186583">
        <ele>3301.0</ele>
        <time>2018-09-01T13:12:33Z</time>
      </trkpt>
      <trkpt lat="40.522667" lon="-5.186650">
        <ele>3305.0</ele>
        <time>2018-09-01T13:12:34Z</time>
      </trkpt>
      <trkpt lat="40.522583" lon="-5.186683">
        <ele>3310.0</ele>
        <time>2018-09-01T13:12:35Z</time>
      </trkpt>
      <trkpt lat="40.522500" lon="-5.186700">
        <ele>3314.0</ele>
        <time>2018-09-01T13:12:36Z</time>
      </trkpt>
      <trkpt lat="40.522417" lon="-5.186717">
        <ele>3319.0</ele>
        <time>2018-09-01T13:12:37Z</time>
      </trkpt>
      <trkpt lat="40.522333" lon="-5.186717">
        <ele>3323.0</ele>
        <time>2018-09-01T13:12:38Z</time>
      </trkpt>
      <trkpt lat="40.522267" lon="-5.186717">
        <ele>3327.0</ele>
        <time>2018-09-01T13:12:39Z</time>
      </trkpt>
      <trkpt lat="40.522183" lon="-5.186700">
        <ele>3331.0</ele>
        <time>2018-09-01T13:12:40Z</time>
      </trkpt>
      <trkpt lat="40.522117" lon="-5.186667">
        <ele>3335.0</ele>
        <time>2018-09-01T13:12:41Z</time>
      </trkpt>
      <trkpt lat="40.522050" lon="-5.186650">
        <ele>3339.0</ele>
        <time>2018-09-01T13:12:42Z</time>
      </trkpt>
      <trkpt lat="40.521983" lon="-5.186650">
        <ele>3343.0</ele>
        <time>2018-09-01T13:12:43Z</time>
      </trkpt>
      <trkpt lat="40.521917" lon="-5.186650">
        <ele>3346.0</ele>
        <time>2018-09-01T13:12:44Z</time>
      </trkpt>
      <trkpt lat="40.521833" lon="-5.186650">
        <ele>3348.0</ele>
        <time>2018-09-01T13:12:45Z</time>
      </trkpt>
      <trkpt lat="40.521750" lon="-5.186633">
        <ele>3352.0</ele>
        <time>2018-09-01T13:12:46Z</time>
      </trkpt>
      <trkpt lat="40.521683" lon="-5.186617">
        <ele>3356.0</ele>
        <time>2018-09-01T13:12:47Z</time>
      </trkpt>
      <trkpt lat="40.521600" lon="-5.186583">
        <ele>3361.0</ele>
        <time>2018-09-01T13:12:48Z</time>
      </trkpt>
      <trkpt lat="40.521550" lon="-5.186533">
        <ele>3365.0</ele>
        <time>2018-09-01T13:12:49Z</time>
      </trkpt>
      <trkpt lat="40.521483" lon="-5.186450">
        <ele>3368.0</ele>
        <time>2018-09-01T13:12:50Z</time>
      </trkpt>
      <trkpt lat="40.521433" lon="-5.186333">
        <ele>3371.0</ele>
        <time>2018-09-01T13:12:51Z</time>
      </trkpt>
      <trkpt lat="40.521383" lon="-5.186200">
        <ele>3374.0</ele>
        <time>2018-09-01T13:12:52Z</time>
      </trkpt>
      <trkpt lat="40.521350" lon="-5.186067">
        <ele>3378.0</ele>
        <time>2018-09-01T13:12:53Z</time>
      </trkpt>
      <trkpt lat="40.521333" lon="-5.185933">
        <ele>3383.0</ele>
        <time>2018-09-01T13:12:54Z</time>
      </trkpt>
      <trkpt lat="40.521317" lon="-5.185800">
        <ele>3389.0</ele>
        <time>2018-09-01T13:12:55Z</time>
      </trkpt>
      <trkpt lat="40.521317" lon="-5.185683">
        <ele>3395.0</ele>
        <time>2018-09-01T13:12:56Z</time>
      </trkpt>
      <trkpt lat="40.521333" lon="-5.185550">
        <ele>3399.0</ele>
        <time>2018-09-01T13:12:57Z</time>
      </trkpt>
      <trkpt lat="40.521350" lon="-5.185417">
        <ele>3403.0</ele>
        <time>2018-09-01T13:12:58Z</time>
      </trkpt>
      <trkpt lat="40.521383" lon="-5.185267">
        <ele>3406.0</ele>
        <time>2018-09-01T13:12:59Z</time>
      </trkpt>
      <trkpt lat="40.521417" lon="-5.185117">
        <ele>3410.0</ele>
        <time>2018-09-01T13:13:00Z</time>
      </trkpt>
      <trkpt lat="40.521450" lon="-5.184967">
        <ele>3414.0</ele>
        <time>2018-09-01T13:13:01Z</time>
      </trkpt>
      <trkpt lat="40.521517" lon="-5.184833">
        <ele>3418.0</ele>
        <time>2018-09-01T13:13:02Z</time>
      </trkpt>
      <trkpt lat="40.521583" lon="-5.184700">
        <ele>3421.0</ele>
        <time>2018-09-01T13:13:03Z</time>
      </trkpt>
      <trkpt lat="40.521667" lon="-5.184583">
        <ele>3424.0</ele>
        <time>2018-09-01T13:13:04Z</time>
      </trkpt>
      <trkpt lat="40.521783" lon="-5.184483">
        <ele>3427.0</ele>
        <time>2018-09-01T13:13:05Z</time>
      </trkpt>
      <trkpt lat="40.521883" lon="-5.184383">
        <ele>3430.0</ele>
        <time>2018-09-01T13:13:06Z</time>
      </trkpt>
      <trkpt lat="40.522000" lon="-5.184283">
        <ele>3433.0</ele>
        <time>2018-09-01T13:13:07Z</time>
      </trkpt>
      <trkpt lat="40.522117" lon="-5.184200">
        <ele>3436.0</ele>
        <time>2018-09-01T13:13:08Z</time>
      </trkpt>
      <trkpt lat="40.522233" lon="-5.184100">
        <ele>3439.0</ele>
        <time>2018-09-01T13:13:09Z</time>
      </trkpt>
      <trkpt lat="40.522350" lon="-5.184033">
        <ele>3442.0</ele>
        <time>2018-09-01T13:13:10Z</time>
      </trkpt>
      <trkpt lat="40.522483" lon="-5.183983">
        <ele>3446.0</ele>
        <time>2018-09-01T13:13:11Z</time>
      </trkpt>
      <trkpt lat="40.522600" lon="-5.183933">
        <ele>3450.0</ele>
        <time>2018-09-01T13:13:12Z</time>
      </trkpt>
      <trkpt lat="40.522733" lon="-5.183900">
        <ele>3454.0</ele>
        <time>2018-09-01T13:13:13Z</time>
      </trkpt>
      <trkpt lat="40.522833" lon="-5.183867">
        <ele>3458.0</ele>
        <time>2018-09-01T13:13:14Z</time>
      </trkpt>
      <trkpt lat="40.522950" lon="-5.183867">
        <ele>3461.0</ele>
        <time>2018-09-01T13:13:15Z</time>
      </trkpt>
      <trkpt lat="40.523067" lon="-5.183883">
        <ele>3463.0</ele>
        <time>2018-09-01T13:13:16Z</time>
      </trkpt>
      <trkpt lat="40.523167" lon="-5.183917">
        <ele>3464.0</ele>
        <time>2018-09-01T13:13:17Z</time>
      </trkpt>
      <trkpt lat="40.523283" lon="-5.183967">
        <ele>3464.0</ele>
        <time>2018-09-01T13:13:18Z</time>
      </trkpt>
      <trkpt lat="40.523400" lon="-5.184017">
        <ele>3465.0</ele>
        <time>2018-09-01T13:13:19Z</time>
      </trkpt>
      <trkpt lat="40.523500" lon="-5.184067">
        <ele>3466.0</ele>
        <time>2018-09-01T13:13:20Z</time>
      </trkpt>
      <trkpt lat="40.523600" lon="-5.184117">
        <ele>3467.0</ele>
        <time>2018-09-01T13:13:21Z</time>
      </trkpt>
      <trkpt lat="40.523683" lon="-5.184200">
        <ele>3468.0</ele>
        <time>2018-09-01T13:13:22Z</time>
      </trkpt>
      <trkpt lat="40.523783" lon="-5.184283">
        <ele>3468.0</ele>
        <time>2018-09-01T13:13:23Z</time>
      </trkpt>
      <trkpt lat="40.523867" lon="-5.184383">
        <ele>3467.0</ele>
        <time>2018-09-01T13:13:24Z</time>
      </trkpt>
      <trkpt lat="40.523950" lon="-5.184500">
        <ele>3467.0</ele>
        <time>2018-09-01T13:13:25Z</time>
      </trkpt>
      <trkpt lat="40.524000" lon="-5.184633">
        <ele>3467.0</ele>
        <time>2018-09-01T13:13:26Z</time>
      </trkpt>
      <trkpt lat="40.524017" lon="-5.184767">
        <ele>3468.0</ele>
        <time>2018-09-01T13:13:27Z</time>
      </trkpt>
      <trkpt lat="40.524017" lon="-5.184900">
        <ele>3469.0</ele>
        <time>2018-09-01T13:13:28Z</time>
      </trkpt>
      <trkpt lat="40.523967" lon="-5.185017">
        <ele>3470.0</ele>
        <time>2018-09-01T13:13:29Z</time>
      </trkpt>
      <trkpt lat="40.523917" lon="-5.185100">
        <ele>3471.0</ele>
        <time>2018-09-01T13:13:30Z</time>
      </trkpt>
      <trkpt lat="40.523833" lon="-5.185167">
        <ele>3471.0</ele>
        <time>2018-09-01T13:13:31Z</time>
      </trkpt>
      <trkpt lat="40.523750" lon="-5.185217">
        <ele>3472.0</ele>
        <time>2018-09-01T13:13:32Z</time>
      </trkpt>
      <trkpt lat="40.523650" lon="-5.185233">
        <ele>3473.0</ele>
        <time>2018-09-01T13:13:33Z</time>
      </trkpt>
      <trkpt lat="40.523550" lon="-5.185200">
        <ele>3475.0</ele>
        <time>2018-09-01T13:13:34Z</time>
      </trkpt>
      <trkpt lat="40.523450" lon="-5.185150">
        <ele>3476.0</ele>
        <time>2018-09-01T13:13:35Z</time>
      </trkpt>
      <trkpt lat="40.523350" lon="-5.185083">
        <ele>3478.0</ele>
        <time>2018-09-01T13:13:36Z</time>
      </trkpt>
      <trkpt lat="40.523267" lon="-5.185000">
        <ele>3480.0</ele>
        <time>2018-09-01T13:13:37Z</time>
      </trkpt>
      <trkpt lat="40.523200" lon="-5.184917">
        <ele>3482.0</ele>
        <time>2018-09-01T13:13:38Z</time>
      </trkpt>
      <trkpt lat="40.523117" lon="-5.184850">
        <ele>3485.0</ele>
        <time>2018-09-01T13:13:39Z</time>
      </trkpt>
      <trkpt lat="40.523050" lon="-5.184767">
        <ele>3487.0</ele>
        <time>2018-09-01T13:13:40Z</time>
      </trkpt>
      <trkpt lat="40.522967" lon="-5.184700">
        <ele>3489.0</ele>
        <time>2018-09-01T13:13:41Z</time>
      </trkpt>
      <trkpt lat="40.522883" lon="-5.184617">
        <ele>3492.0</ele>
        <time>2018-09-01T13:13:42Z</time>
      </trkpt>
      <trkpt lat="40.522800" lon="-5.184550">
        <ele>3495.0</ele>
        <time>2018-09-01T13:13:43Z</time>
      </trkpt>
      <trkpt lat="40.522733" lon="-5.184483">
        <ele>3499.0</ele>
        <time>2018-09-01T13:13:44Z</time>
      </trkpt>
      <trkpt lat="40.522650" lon="-5.184433">
        <ele>3503.0</ele>
        <time>2018-09-01T13:13:45Z</time>
      </trkpt>
      <trkpt lat="40.522583" lon="-5.184367">
        <ele>3506.0</ele>
        <time>2018-09-01T13:13:46Z</time>
      </trkpt>
      <trkpt lat="40.522500" lon="-5.184300">
        <ele>3509.0</ele>
        <time>2018-09-01T13:13:47Z</time>
      </trkpt>
      <trkpt lat="40.522433" lon="-5.184217">
        <ele>3513.0</ele>
        <time>2018-09-01T13:13:48Z</time>
      </trkpt>
      <trkpt lat="40.522367" lon="-5.184133">
        <ele>3516.0</ele>
        <time>2018-09-01T13:13:49Z</time>
      </trkpt>
      <trkpt lat="40.522300" lon="-5.184050">
        <ele>3520.0</ele>
        <time>2018-09-01T13:13:50Z</time>
      </trkpt>
      <trkpt lat="40.522250" lon="-5.183950">
        <ele>3524.0</ele>
        <time>2018-09-01T13:13:51Z</time>
      </trkpt>
      <trkpt lat="40.522200" lon="-5.183850">
        <ele>3527.0</ele>
        <time>2018-09-01T13:13:52Z</time>
      </trkpt>
      <trkpt lat="40.522167" lon="-5.183717">
        <ele>3529.0</ele>
        <time>2018-09-01T13:13:53Z</time>
      </trkpt>
      <trkpt lat="40.522133" lon="-5.183567">
        <ele>3532.0</ele>
        <time>2018-09-01T13:13:54Z</time>
      </trkpt>
      <trkpt lat="40.522117" lon="-5.183433">
        <ele>3536.0</ele>
        <time>2018-09-01T13:13:55Z</time>
      </trkpt>
      <trkpt lat="40.522117" lon="-5.183267">
        <ele>3540.0</ele>
        <time>2018-09-01T13:13:56Z</time>
      </trkpt>
      <trkpt lat="40.522133" lon="-5.183100">
        <ele>3546.0</ele>
        <time>2018-09-01T13:13:57Z</time>
      </trkpt>
      <trkpt lat="40.522167" lon="-5.182950">
        <ele>3552.0</ele>
        <time>2018-09-01T13:13:58Z</time>
      </trkpt>
      <trkpt lat="40.522233" lon="-5.182817">
        <ele>3558.0</ele>
        <time>2018-09-01T13:13:59Z</time>
      </trkpt>
      <trkpt lat="40.522317" lon="-5.182700">
        <ele>3562.0</ele>
        <time>2018-09-01T13:14:00Z</time>
      </trkpt>
      <trkpt lat="40.522417" lon="-5.182600">
        <ele>3566.0</ele>
        <time>2018-09-01T13:14:01Z</time>
      </trkpt>
      <trkpt lat="40.522550" lon="-5.182517">
        <ele>3570.0</ele>
        <time>2018-09-01T13:14:02Z</time>
      </trkpt>
      <trkpt lat="40.522700" lon="-5.182467">
        <ele>3573.0</ele>
        <time>2018-09-01T13:14:03Z</time>
      </trkpt>
      <trkpt lat="40.522833" lon="-5.182483">
        <ele>3576.0</ele>
        <time>2018-09-01T13:14:04Z</time>
      </trkpt>
      <trkpt lat="40.522967" lon="-5.182550">
        <ele>3578.0</ele>
        <time>2018-09-01T13:14:05Z</time>
      </trkpt>
      <trkpt lat="40.523050" lon="-5.182650">
        <ele>3580.0</ele>
        <time>2018-09-01T13:14:06Z</time>
      </trkpt>
      <trkpt lat="40.523117" lon="-5.182783">
        <ele>3582.0</ele>
        <time>2018-09-01T13:14:07Z</time>
      </trkpt>
      <trkpt lat="40.523133" lon="-5.182900">
        <ele>3583.0</ele>
        <time>2018-09-01T13:14:08Z</time>
      </trkpt>
      <trkpt lat="40.523133" lon="-5.183017">
        <ele>3584.0</ele>
        <time>2018-09-01T13:14:09Z</time>
      </trkpt>
      <trkpt lat="40.523117" lon="-5.183133">
        <ele>3585.0</ele>
        <time>2018-09-01T13:14:10Z</time>
      </trkpt>
      <trkpt lat="40.523067" lon="-5.183217">
        <ele>3587.0</ele>
        <time>2018-09-01T13:14:11Z</time>
      </trkpt>
      <trkpt lat="40.522983" lon="-5.183283">
        <ele>3588.0</ele>
        <time>2018-09-01T13:14:12Z</time>
      </trkpt>
      <trkpt lat="40.522900" lon="-5.183317">
        <ele>3590.0</ele>
        <time>2018-09-01T13:14:13Z</time>
      </trkpt>
      <trkpt lat="40.522800" lon="-5.183300">
        <ele>3593.0</ele>
        <time>2018-09-01T13:14:14Z</time>
      </trkpt>
      <trkpt lat="40.522717" lon="-5.183250">
        <ele>3596.0</ele>
        <time>2018-09-01T13:14:15Z</time>
      </trkpt>
      <trkpt lat="40.522633" lon="-5.183183">
        <ele>3599.0</ele>
        <time>2018-09-01T13:14:16Z</time>
      </trkpt>
      <trkpt lat="40.522567" lon="-5.183100">
        <ele>3602.0</ele>
        <time>2018-09-01T13:14:17Z</time>
      </trkpt>
      <trkpt lat="40.522483" lon="-5.183017">
        <ele>3606.0</ele>
        <time>2018-09-01T13:14:18Z</time>
      </trkpt>
      <trkpt lat="40.522417" lon="-5.182933">
        <ele>3610.0</ele>
        <time>2018-09-01T13:14:19Z</time>
      </trkpt>
      <trkpt lat="40.522333" lon="-5.182850">
        <ele>3614.0</ele>
        <time>2018-09-01T13:14:20Z</time>
      </trkpt>
      <trkpt lat="40.522267" lon="-5.182783">
        <ele>3619.0</ele>
        <time>2018-09-01T13:14:21Z</time>
      </trkpt>
      <trkpt lat="40.522200" lon="-5.182717">
        <ele>3624.0</ele>
        <time>2018-09-01T13:14:22Z</time>
      </trkpt>
      <trkpt lat="40.522150" lon="-5.182650">
        <ele>3629.0</ele>
        <time>2018-09-01T13:14:23Z</time>
      </trkpt>
      <trkpt lat="40.522083" lon="-5.182583">
        <ele>3633.0</ele>
        <time>2018-09-01T13:14:24Z</time>
      </trkpt>
      <trkpt lat="40.522033" lon="-5.182517">
        <ele>3636.0</ele>
        <time>2018-09-01T13:14:25Z</time>
      </trkpt>
      <trkpt lat="40.521967" lon="-5.182417">
        <ele>3638.0</ele>
        <time>2018-09-01T13:14:26Z</time>
      </trkpt>
      <trkpt lat="40.521917" lon="-5.182317">
        <ele>3640.0</ele>
        <time>2018-09-01T13:14:27Z</time>
      </trkpt>
      <trkpt lat="40.521883" lon="-5.182167">
        <ele>3643.0</ele>
        <time>2018-09-01T13:14:28Z</time>
      </trkpt>
      <trkpt lat="40.521867" lon="-5.182033">
        <ele>3645.0</ele>
        <time>2018-09-01T13:14:29Z</time>
      </trkpt>
      <trkpt lat="40.521867" lon="-5.181867">
        <ele>3647.0</ele>
        <time>2018-09-01T13:14:30Z</time>
      </trkpt>
      <trkpt lat="40.521900" lon="-5.181717">
        <ele>3649.0</ele>
        <time>2018-09-01T13:14:31Z</time>
      </trkpt>
      <trkpt lat="40.521950" lon="-5.181533">
        <ele>3652.0</ele>
        <time>2018-09-01T13:14:32Z</time>
      </trkpt>
      <trkpt lat="40.522000" lon="-5.181383">
        <ele>3657.0</ele>
        <time>2018-09-01T13:14:33Z</time>
      </trkpt>
      <trkpt lat="40.522067" lon="-5.181250">
        <ele>3663.0</ele>
        <time>2018-09-01T13:14:34Z</time>
      </trkpt>
      <trkpt lat="40.522150" lon="-5.181150">
        <ele>3668.0</ele>
        <time>2018-09-01T13:14:35Z</time>
      </trkpt>
      <trkpt lat="40.522217" lon="-5.181050">
        <ele>3672.0</ele>
        <time>2018-09-01T13:14:36Z</time>
      </trkpt>
      <trkpt lat="40.522317" lon="-5.180933">
        <ele>3675.0</ele>
        <time>2018-09-01T13:14:37Z</time>
      </trkpt>
      <trkpt lat="40.522400" lon="-5.180817">
        <ele>3677.0</ele>
        <time>2018-09-01T13:14:38Z</time>
      </trkpt>
      <trkpt lat="40.522517" lon="-5.180700">
        <ele>3679.0</ele>
        <time>2018-09-01T13:14:39Z</time>
      </trkpt>
      <trkpt lat="40.522617" lon="-5.180583">
        <ele>3682.0</ele>
        <time>2018-09-01T13:14:40Z</time>
      </trkpt>
      <trkpt lat="40.522733" lon="-5.180467">
        <ele>3685.0</ele>
        <time>2018-09-01T13:14:41Z</time>
      </trkpt>
      <trkpt lat="40.522850" lon="-5.180367">
        <ele>3688.0</ele>
        <time>2018-09-01T13:14:42Z</time>
      </trkpt>
      <trkpt lat="40.522967" lon="-5.180267">
        <ele>3691.0</ele>
        <time>2018-09-01T13:14:43Z</time>
      </trkpt>
      <trkpt lat="40.523067" lon="-5.180167">
        <ele>3693.0</ele>
        <time>2018-09-01T13:14:44Z</time>
      </trkpt>
      <trkpt lat="40.523183" lon="-5.180083">
        <ele>3694.0</ele>
        <time>2018-09-01T13:14:45Z</time>
      </trkpt>
      <trkpt lat="40.523317" lon="-5.179983">
        <ele>3694.0</ele>
        <time>2018-09-01T13:14:46Z</time>
      </trkpt>
      <trkpt lat="40.523467" lon="-5.179900">
        <ele>3695.0</ele>
        <time>2018-09-01T13:14:47Z</time>
      </trkpt>
      <trkpt lat="40.523600" lon="-5.179817">
        <ele>3697.0</ele>
        <time>2018-09-01T13:14:48Z</time>
      </trkpt>
      <trkpt lat="40.523733" lon="-5.179717">
        <ele>3700.0</ele>
        <time>2018-09-01T13:14:49Z</time>
      </trkpt>
      <trkpt lat="40.523867" lon="-5.179617">
        <ele>3703.0</ele>
        <time>2018-09-01T13:14:50Z</time>
      </trkpt>
      <trkpt lat="40.524000" lon="-5.179500">
        <ele>3705.0</ele>
        <time>2018-09-01T13:14:51Z</time>
      </trkpt>
      <trkpt lat="40.524117" lon="-5.179417">
        <ele>3708.0</ele>
        <time>2018-09-01T13:14:52Z</time>
      </trkpt>
      <trkpt lat="40.524233" lon="-5.179333">
        <ele>3711.0</ele>
        <time>2018-09-01T13:14:53Z</time>
      </trkpt>
      <trkpt lat="40.524367" lon="-5.179250">
        <ele>3713.0</ele>
        <time>2018-09-01T13:14:54Z</time>
      </trkpt>
      <trkpt lat="40.524500" lon="-5.179167">
        <ele>3714.0</ele>
        <time>2018-09-01T13:14:55Z</time>
      </trkpt>
      <trkpt lat="40.524617" lon="-5.179067">
        <ele>3716.0</ele>
        <time>2018-09-01T13:14:56Z</time>
      </trkpt>
      <trkpt lat="40.524750" lon="-5.178967">
        <ele>3717.0</ele>
        <time>2018-09-01T13:14:57Z</time>
      </trkpt>
      <trkpt lat="40.524883" lon="-5.178867">
        <ele>3720.0</ele>
        <time>2018-09-01T13:14:58Z</time>
      </trkpt>
      <trkpt lat="40.525017" lon="-5.178783">
        <ele>3723.0</ele>
        <time>2018-09-01T13:14:59Z</time>
      </trkpt>
      <trkpt lat="40.525150" lon="-5.178733">
        <ele>3728.0</ele>
        <time>2018-09-01T13:15:00Z</time>
      </trkpt>
      <trkpt lat="40.525283" lon="-5.178700">
        <ele>3732.0</ele>
        <time>2018-09-01T13:15:01Z</time>
      </trkpt>
      <trkpt lat="40.525400" lon="-5.178700">
        <ele>3735.0</ele>
        <time>2018-09-01T13:15:02Z</time>
      </trkpt>
      <trkpt lat="40.525533" lon="-5.178717">
        <ele>3737.0</ele>
        <time>2018-09-01T13:15:03Z</time>
      </trkpt>
      <trkpt lat="40.525667" lon="-5.178733">
        <ele>3739.0</ele>
        <time>2018-09-01T13:15:04Z</time>
      </trkpt>
      <trkpt lat="40.525817" lon="-5.178767">
        <ele>3740.0</ele>
        <time>2018-09-01T13:15:05Z</time>
      </trkpt>
      <trkpt lat="40.525967" lon="-5.178783">
        <ele>3742.0</ele>
        <time>2018-09-01T13:15:06Z</time>
      </trkpt>
      <trkpt lat="40.526117" lon="-5.178817">
        <ele>3745.0</ele>
        <time>2018-09-01T13:15:07Z</time>
      </trkpt>
      <trkpt lat="40.526267" lon="-5.178833">
        <ele>3748.0</ele>
        <time>2018-09-01T13:15:08Z</time>
      </trkpt>
      <trkpt lat="40.526417" lon="-5.178867">
        <ele>3752.0</ele>
        <time>2018-09-01T13:15:09Z</time>
      </trkpt>
      <trkpt lat="40.526567" lon="-5.178917">
        <ele>3756.0</ele>
        <time>2018-09-01T13:15:10Z</time>
      </trkpt>
      <trkpt lat="40.526700" lon="-5.178950">
        <ele>3759.0</ele>
        <time>2018-09-01T13:15:11Z</time>
      </trkpt>
      <trkpt lat="40.526850" lon="-5.178983">
        <ele>3763.0</ele>
        <time>2018-09-01T13:15:12Z</time>
      </trkpt>
      <trkpt lat="40.527000" lon="-5.179017">
        <ele>3766.0</ele>
        <time>2018-09-01T13:15:13Z</time>
      </trkpt>
      <trkpt lat="40.527167" lon="-5.179033">
        <ele>3770.0</ele>
        <time>2018-09-01T13:15:14Z</time>
      </trkpt>
      <trkpt lat="40.527300" lon="-5.179083">
        <ele>3773.0</ele>
        <time>2018-09-01T13:15:15Z</time>
      </trkpt>
      <trkpt lat="40.527450" lon="-5.179167">
        <ele>3775.0</ele>
        <time>2018-09-01T13:15:16Z</time>
      </trkpt>
      <trkpt lat="40.527583" lon="-5.179267">
        <ele>3777.0</ele>
        <time>2018-09-01T13:15:17Z</time>
      </trkpt>
      <trkpt lat="40.527700" lon="-5.179367">
        <ele>3777.0</ele>
        <time>2018-09-01T13:15:18Z</time>
      </trkpt>
      <trkpt lat="40.527833" lon="-5.179450">
        <ele>3776.0</ele>
        <time>2018-09-01T13:15:19Z</time>
      </trkpt>
      <trkpt lat="40.527983" lon="-5.179500">
        <ele>3775.0</ele>
        <time>2018-09-01T13:15:20Z</time>
      </trkpt>
      <trkpt lat="40.528133" lon="-5.179500">
        <ele>3775.0</ele>
        <time>2018-09-01T13:15:21Z</time>
      </trkpt>
      <trkpt lat="40.528283" lon="-5.179500">
        <ele>3776.0</ele>
        <time>2018-09-01T13:15:22Z</time>
      </trkpt>
      <trkpt lat="40.528417" lon="-5.179500">
        <ele>3777.0</ele>
        <time>2018-09-01T13:15:23Z</time>
      </trkpt>
      <trkpt lat="40.528567" lon="-5.179533">
        <ele>3776.0</ele>
        <time>2018-09-01T13:15:24Z</time>
      </trkpt>
      <trkpt lat="40.528717" lon="-5.179567">
        <ele>3775.0</ele>
        <time>2018-09-01T13:15:25Z</time>
      </trkpt>
      <trkpt lat="40.528867" lon="-5.179633">
        <ele>3774.0</ele>
        <time>2018-09-01T13:15:26Z</time>
      </trkpt>
      <trkpt lat="40.529017" lon="-5.179700">
        <ele>3773.0</ele>
        <time>2018-09-01T13:15:27Z</time>
      </trkpt>
      <trkpt lat="40.529167" lon="-5.179750">
        <ele>3773.0</ele>
        <time>2018-09-01T13:15:28Z</time>
      </trkpt>
      <trkpt lat="40.529317" lon="-5.179817">
        <ele>3773.0</ele>
        <time>2018-09-01T13:15:29Z</time>
      </trkpt>
      <trkpt lat="40.529467" lon="-5.179867">
        <ele>3774.0</ele>
        <time>2018-09-01T13:15:30Z</time>
      </trkpt>
      <trkpt lat="40.529600" lon="-5.179900">
        <ele>3775.0</ele>
        <time>2018-09-01T13:15:31Z</time>
      </trkpt>
      <trkpt lat="40.529733" lon="-5.179950">
        <ele>3776.0</ele>
        <time>2018-09-01T13:15:32Z</time>
      </trkpt>
      <trkpt lat="40.529867" lon="-5.179983">
        <ele>3776.0</ele>
        <time>2018-09-01T13:15:33Z</time>
      </trkpt>
      <trkpt lat="40.530000" lon="-5.180017">
        <ele>3774.0</ele>
        <time>2018-09-01T13:15:34Z</time>
      </trkpt>
      <trkpt lat="40.530150" lon="-5.180033">
        <ele>3773.0</ele>
        <time>2018-09-01T13:15:35Z</time>
      </trkpt>
      <trkpt lat="40.530317" lon="-5.180050">
        <ele>3771.0</ele>
        <time>2018-09-01T13:15:36Z</time>
      </trkpt>
      <trkpt lat="40.530483" lon="-5.180083">
        <ele>3770.0</ele>
        <time>2018-09-01T13:15:37Z</time>
      </trkpt>
      <trkpt lat="40.530633" lon="-5.180117">
        <ele>3769.0</ele>
        <time>2018-09-01T13:15:38Z</time>
      </trkpt>
      <trkpt lat="40.530767" lon="-5.180117">
        <ele>3769.0</ele>
        <time>2018-09-01T13:15:39Z</time>
      </trkpt>
      <trkpt lat="40.530900" lon="-5.180117">
        <ele>3768.0</ele>
        <time>2018-09-01T13:15:40Z</time>
      </trkpt>
      <trkpt lat="40.531033" lon="-5.180083">
        <ele>3765.0</ele>
        <time>2018-09-01T13:15:41Z</time>
      </trkpt>
      <trkpt lat="40.531167" lon="-5.180067">
        <ele>3763.0</ele>
        <time>2018-09-01T13:15:42Z</time>
      </trkpt>
      <trkpt lat="40.531300" lon="-5.180033">
        <ele>3760.0</ele>
        <time>2018-09-01T13:15:43Z</time>
      </trkpt>
      <trkpt lat="40.531417" lon="-5.180000">
        <ele>3758.0</ele>
        <time>2018-09-01T13:15:44Z</time>
      </trkpt>
      <trkpt lat="40.531550" lon="-5.179983">
        <ele>3755.0</ele>
        <time>2018-09-01T13:15:45Z</time>
      </trkpt>
      <trkpt lat="40.531667" lon="-5.179983">
        <ele>3752.0</ele>
        <time>2018-09-01T13:15:46Z</time>
      </trkpt>
      <trkpt lat="40.531800" lon="-5.179983">
        <ele>3748.0</ele>
        <time>2018-09-01T13:15:47Z</time>
      </trkpt>
      <trkpt lat="40.531933" lon="-5.179967">
        <ele>3743.0</ele>
        <time>2018-09-01T13:15:48Z</time>
      </trkpt>
      <trkpt lat="40.532083" lon="-5.179967">
        <ele>3738.0</ele>
        <time>2018-09-01T13:15:49Z</time>
      </trkpt>
      <trkpt lat="40.532233" lon="-5.179983">
        <ele>3734.0</ele>
        <time>2018-09-01T13:15:50Z</time>
      </trkpt>
      <trkpt lat="40.532367" lon="-5.179983">
        <ele>3730.0</ele>
        <time>2018-09-01T13:15:51Z</time>
      </trkpt>
      <trkpt lat="40.532500" lon="-5.180000">
        <ele>3727.0</ele>
        <time>2018-09-01T13:15:52Z</time>
      </trkpt>
      <trkpt lat="40.532633" lon="-5.179967">
        <ele>3723.0</ele>
        <time>2018-09-01T13:15:53Z</time>
      </trkpt>
      <trkpt lat="40.532767" lon="-5.179917">
        <ele>3719.0</ele>
        <time>2018-09-01T13:15:54Z</time>
      </trkpt>
      <trkpt lat="40.532883" lon="-5.179833">
        <ele>3713.0</ele>
        <time>2018-09-01T13:15:55Z</time>
      </trkpt>
      <trkpt lat="40.533000" lon="-5.179733">
        <ele>3709.0</ele>
        <time>2018-09-01T13:15:56Z</time>
      </trkpt>
      <trkpt lat="40.533100" lon="-5.179617">
        <ele>3705.0</ele>
        <time>2018-09-01T13:15:57Z</time>
      </trkpt>
      <trkpt lat="40.533200" lon="-5.179517">
        <ele>3703.0</ele>
        <time>2018-09-01T13:15:58Z</time>
      </trkpt>
      <trkpt lat="40.533283" lon="-5.179400">
        <ele>3701.0</ele>
        <time>2018-09-01T13:15:59Z</time>
      </trkpt>
      <trkpt lat="40.533350" lon="-5.179283">
        <ele>3700.0</ele>
        <time>2018-09-01T13:16:00Z</time>
      </trkpt>
      <trkpt lat="40.533417" lon="-5.179183">
        <ele>3699.0</ele>
        <time>2018-09-01T13:16:01Z</time>
      </trkpt>
      <trkpt lat="40.533500" lon="-5.179083">
        <ele>3698.0</ele>
        <time>2018-09-01T13:16:02Z</time>
      </trkpt>
      <trkpt lat="40.533617" lon="-5.179000">
        <ele>3695.0</ele>
        <time>2018-09-01T13:16:03Z</time>
      </trkpt>
      <trkpt lat="40.533733" lon="-5.178950">
        <ele>3692.0</ele>
        <time>2018-09-01T13:16:04Z</time>
      </trkpt>
      <trkpt lat="40.533867" lon="-5.178900">
        <ele>3690.0</ele>
        <time>2018-09-01T13:16:05Z</time>
      </trkpt>
      <trkpt lat="40.534000" lon="-5.178883">
        <ele>3689.0</ele>
        <time>2018-09-01T13:16:06Z</time>
      </trkpt>
      <trkpt lat="40.534133" lon="-5.178867">
        <ele>3687.0</ele>
        <time>2018-09-01T13:16:07Z</time>
      </trkpt>
      <trkpt lat="40.534250" lon="-5.178883">
        <ele>3684.0</ele>
        <time>2018-09-01T13:16:08Z</time>
      </trkpt>
      <trkpt lat="40.534367" lon="-5.178883">
        <ele>3680.0</ele>
        <time>2018-09-01T13:16:09Z</time>
      </trkpt>
      <trkpt lat="40.534483" lon="-5.178867">
        <ele>3676.0</ele>
        <time>2018-09-01T13:16:10Z</time>
      </trkpt>
      <trkpt lat="40.534583" lon="-5.178817">
        <ele>3672.0</ele>
        <time>2018-09-01T13:16:11Z</time>
      </trkpt>
      <trkpt lat="40.534683" lon="-5.178750">
        <ele>3667.0</ele>
        <time>2018-09-01T13:16:12Z</time>
      </trkpt>
      <trkpt lat="40.534783" lon="-5.178683">
        <ele>3663.0</ele>
        <time>2018-09-01T13:16:13Z</time>
      </trkpt>
      <trkpt lat="40.534883" lon="-5.178583">
        <ele>3659.0</ele>
        <time>2018-09-01T13:16:14Z</time>
      </trkpt>
      <trkpt lat="40.534983" lon="-5.178500">
        <ele>3656.0</ele>
        <time>2018-09-01T13:16:15Z</time>
      </trkpt>
      <trkpt lat="40.535083" lon="-5.178433">
        <ele>3653.0</ele>
        <time>2018-09-01T13:16:16Z</time>
      </trkpt>
      <trkpt lat="40.535167" lon="-5.178367">
        <ele>3649.0</ele>
        <time>2018-09-01T13:16:17Z</time>
      </trkpt>
      <trkpt lat="40.535267" lon="-5.178317">
        <ele>3645.0</ele>
        <time>2018-09-01T13:16:18Z</time>
      </trkpt>
      <trkpt lat="40.535350" lon="-5.178250">
        <ele>3639.0</ele>
        <time>2018-09-01T13:16:19Z</time>
      </trkpt>
      <trkpt lat="40.535467" lon="-5.178200">
        <ele>3634.0</ele>
        <time>2018-09-01T13:16:20Z</time>
      </trkpt>
      <trkpt lat="40.535583" lon="-5.178133">
        <ele>3628.0</ele>
        <time>2018-09-01T13:16:21Z</time>
      </trkpt>
      <trkpt lat="40.535717" lon="-5.178067">
        <ele>3622.0</ele>
        <time>2018-09-01T13:16:22Z</time>
      </trkpt>
      <trkpt lat="40.535850" lon="-5.177983">
        <ele>3617.0</ele>
        <time>2018-09-01T13:16:23Z</time>
      </trkpt>
      <trkpt lat="40.535950" lon="-5.177883">
        <ele>3612.0</ele>
        <time>2018-09-01T13:16:24Z</time>
      </trkpt>
      <trkpt lat="40.536033" lon="-5.177767">
        <ele>3607.0</ele>
        <time>2018-09-01T13:16:25Z</time>
      </trkpt>
      <trkpt lat="40.536083" lon="-5.177650">
        <ele>3602.0</ele>
        <time>2018-09-01T13:16:26Z</time>
      </trkpt>
      <trkpt lat="40.536117" lon="-5.177517">
        <ele>3597.0</ele>
        <time>2018-09-01T13:16:27Z</time>
      </trkpt>
      <trkpt lat="40.536167" lon="-5.177400">
        <ele>3593.0</ele>
        <time>2018-09-01T13:16:28Z</time>
      </trkpt>
      <trkpt lat="40.536217" lon="-5.177267">
        <ele>3590.0</ele>
        <time>2018-09-01T13:16:29Z</time>
      </trkpt>
      <trkpt lat="40.536250" lon="-5.177133">
        <ele>3587.0</ele>
        <time>2018-09-01T13:16:30Z</time>
      </trkpt>
      <trkpt lat="40.536283" lon="-5.177017">
        <ele>3583.0</ele>
        <time>2018-09-01T13:16:31Z</time>
      </trkpt>
      <trkpt lat="40.536333" lon="-5.176900">
        <ele>3579.0</ele>
        <time>2018-09-01T13:16:32Z</time>
      </trkpt>
      <trkpt lat="40.536367" lon="-5.176767">
        <ele>3574.0</ele>
        <time>2018-09-01T13:16:33Z</time>
      </trkpt>
      <trkpt lat="40.536433" lon="-5.176633">
        <ele>3569.0</ele>
        <time>2018-09-01T13:16:34Z</time>
      </trkpt>
      <trkpt lat="40.536500" lon="-5.176467">
        <ele>3565.0</ele>
        <time>2018-09-01T13:16:35Z</time>
      </trkpt>
      <trkpt lat="40.536583" lon="-5.176300">
        <ele>3562.0</ele>
        <time>2018-09-01T13:16:36Z</time>
      </trkpt>
      <trkpt lat="40.536667" lon="-5.176133">
        <ele>3562.0</ele>
        <time>2018-09-01T13:16:37Z</time>
      </trkpt>
      <trkpt lat="40.536750" lon="-5.175983">
        <ele>3562.0</ele>
        <time>2018-09-01T13:16:38Z</time>
      </trkpt>
      <trkpt lat="40.536817" lon="-5.175833">
        <ele>3563.0</ele>
        <time>2018-09-01T13:16:39Z</time>
      </trkpt>
      <trkpt lat="40.536900" lon="-5.175700">
        <ele>3563.0</ele>
        <time>2018-09-01T13:16:40Z</time>
      </trkpt>
      <trkpt lat="40.537000" lon="-5.175567">
        <ele>3564.0</ele>
        <time>2018-09-01T13:16:41Z</time>
      </trkpt>
      <trkpt lat="40.537083" lon="-5.175433">
        <ele>3565.0</ele>
        <time>2018-09-01T13:16:42Z</time>
      </trkpt>
      <trkpt lat="40.537183" lon="-5.175300">
        <ele>3566.0</ele>
        <time>2018-09-01T13:16:43Z</time>
      </trkpt>
      <trkpt lat="40.537283" lon="-5.175183">
        <ele>3568.0</ele>
        <time>2018-09-01T13:16:44Z</time>
      </trkpt>
      <trkpt lat="40.537367" lon="-5.175050">
        <ele>3569.0</ele>
        <time>2018-09-01T13:16:45Z</time>
      </trkpt>
      <trkpt lat="40.537450" lon="-5.174917">
        <ele>3570.0</ele>
        <time>2018-09-01T13:16:46Z</time>
      </trkpt>
      <trkpt lat="40.537533" lon="-5.174783">
        <ele>3571.0</ele>
        <time>2018-09-01T13:16:47Z</time>
      </trkpt>
      <trkpt lat="40.537617" lon="-5.174667">
        <ele>3573.0</ele>
        <time>2018-09-01T13:16:48Z</time>
      </trkpt>
      <trkpt lat="40.537717" lon="-5.174533">
        <ele>3574.0</ele>
        <time>2018-09-01T13:16:49Z</time>
      </trkpt>
      <trkpt lat="40.537817" lon="-5.174400">
        <ele>3575.0</ele>
        <time>2018-09-01T13:16:50Z</time>
      </trkpt>
      <trkpt lat="40.537917" lon="-5.174267">
        <ele>3576.0</ele>
        <time>2018-09-01T13:16:51Z</time>
      </trkpt>
      <trkpt lat="40.538033" lon="-5.174150">
        <ele>3578.0</ele>
        <time>2018-09-01T13:16:52Z</time>
      </trkpt>
      <trkpt lat="40.538133" lon="-5.174017">
        <ele>3579.0</ele>
        <time>2018-09-01T13:16:53Z</time>
      </trkpt>
      <trkpt lat="40.538233" lon="-5.173883">
        <ele>3580.0</ele>
        <time>2018-09-01T13:16:54Z</time>
      </trkpt>
      <trkpt lat="40.538350" lon="-5.173750">
        <ele>3581.0</ele>
        <time>2018-09-01T13:16:55Z</time>
      </trkpt>
      <trkpt lat="40.538450" lon="-5.173600">
        <ele>3583.0</ele>
        <time>2018-09-01T13:16:56Z</time>
      </trkpt>
      <trkpt lat="40.538550" lon="-5.173467">
        <ele>3584.0</ele>
        <time>2018-09-01T13:16:57Z</time>
      </trkpt>
      <trkpt lat="40.538633" lon="-5.173317">
        <ele>3585.0</ele>
        <time>2018-09-01T13:16:58Z</time>
      </trkpt>
      <trkpt lat="40.538733" lon="-5.173167">
        <ele>3587.0</ele>
        <time>2018-09-01T13:16:59Z</time>
      </trkpt>
      <trkpt lat="40.538833" lon="-5.173017">
        <ele>3588.0</ele>
        <time>2018-09-01T13:17:00Z</time>
      </trkpt>
      <trkpt lat="40.538933" lon="-5.172883">
        <ele>3590.0</ele>
        <time>2018-09-01T13:17:01Z</time>
      </trkpt>
      <trkpt lat="40.539050" lon="-5.172750">
        <ele>3591.0</ele>
        <time>2018-09-01T13:17:02Z</time>
      </trkpt>
      <trkpt lat="40.539167" lon="-5.172617">
        <ele>3593.0</ele>
        <time>2018-09-01T13:17:03Z</time>
      </trkpt>
      <trkpt lat="40.539267" lon="-5.172467">
        <ele>3595.0</ele>
        <time>2018-09-01T13:17:04Z</time>
      </trkpt>
      <trkpt lat="40.539367" lon="-5.172333">
        <ele>3597.0</ele>
        <time>2018-09-01T13:17:05Z</time>
      </trkpt>
      <trkpt lat="40.539483" lon="-5.172200">
        <ele>3599.0</ele>
        <time>2018-09-01T13:17:06Z</time>
      </trkpt>
      <trkpt lat="40.539583" lon="-5.172083">
        <ele>3601.0</ele>
        <time>2018-09-01T13:17:07Z</time>
      </trkpt>
      <trkpt lat="40.539700" lon="-5.171950">
        <ele>3603.0</ele>
        <time>2018-09-01T13:17:08Z</time>
      </trkpt>
      <trkpt lat="40.539800" lon="-5.171833">
        <ele>3604.0</ele>
        <time>2018-09-01T13:17:09Z</time>
      </trkpt>
      <trkpt lat="40.539900" lon="-5.171700">
        <ele>3606.0</ele>
        <time>2018-09-01T13:17:10Z</time>
      </trkpt>
      <trkpt lat="40.540017" lon="-5.171600">
        <ele>3607.0</ele>
        <time>2018-09-01T13:17:11Z</time>
      </trkpt>
      <trkpt lat="40.540133" lon="-5.171483">
        <ele>3607.0</ele>
        <time>2018-09-01T13:17:12Z</time>
      </trkpt>
      <trkpt lat="40.540250" lon="-5.171383">
        <ele>3607.0</ele>
        <time>2018-09-01T13:17:13Z</time>
      </trkpt>
      <trkpt lat="40.540367" lon="-5.171267">
        <ele>3607.0</ele>
        <time>2018-09-01T13:17:14Z</time>
      </trkpt>
      <trkpt lat="40.540483" lon="-5.171133">
        <ele>3607.0</ele>
        <time>2018-09-01T13:17:15Z</time>
      </trkpt>
      <trkpt lat="40.540600" lon="-5.171017">
        <ele>3606.0</ele>
        <time>2018-09-01T13:17:16Z</time>
      </trkpt>
      <trkpt lat="40.540700" lon="-5.170883">
        <ele>3606.0</ele>
        <time>2018-09-01T13:17:17Z</time>
      </trkpt>
      <trkpt lat="40.540817" lon="-5.170750">
        <ele>3607.0</ele>
        <time>2018-09-01T13:17:18Z</time>
      </trkpt>
      <trkpt lat="40.540933" lon="-5.170633">
        <ele>3607.0</ele>
        <time>2018-09-01T13:17:19Z</time>
      </trkpt>
      <trkpt lat="40.541033" lon="-5.170500">
        <ele>3607.0</ele>
        <time>2018-09-01T13:17:20Z</time>
      </trkpt>
      <trkpt lat="40.541133" lon="-5.170383">
        <ele>3606.0</ele>
        <time>2018-09-01T13:17:21Z</time>
      </trkpt>
      <trkpt lat="40.541250" lon="-5.170267">
        <ele>3605.0</ele>
        <time>2018-09-01T13:17:22Z</time>
      </trkpt>
      <trkpt lat="40.541367" lon="-5.170133">
        <ele>3604.0</ele>
        <time>2018-09-01T13:17:23Z</time>
      </trkpt>
      <trkpt lat="40.541467" lon="-5.170000">
        <ele>3603.0</ele>
        <time>2018-09-01T13:17:24Z</time>
      </trkpt>
      <trkpt lat="40.541550" lon="-5.169867">
        <ele>3603.0</ele>
        <time>2018-09-01T13:17:25Z</time>
      </trkpt>
      <trkpt lat="40.541633" lon="-5.169733">
        <ele>3603.0</ele>
        <time>2018-09-01T13:17:26Z</time>
      </trkpt>
      <trkpt lat="40.541717" lon="-5.169600">
        <ele>3604.0</ele>
        <time>2018-09-01T13:17:27Z</time>
      </trkpt>
      <trkpt lat="40.541817" lon="-5.169483">
        <ele>3604.0</ele>
        <time>2018-09-01T13:17:28Z</time>
      </trkpt>
      <trkpt lat="40.541933" lon="-5.169367">
        <ele>3603.0</ele>
        <time>2018-09-01T13:17:29Z</time>
      </trkpt>
      <trkpt lat="40.542033" lon="-5.169250">
        <ele>3604.0</ele>
        <time>2018-09-01T13:17:30Z</time>
      </trkpt>
      <trkpt lat="40.542150" lon="-5.169133">
        <ele>3604.0</ele>
        <time>2018-09-01T13:17:31Z</time>
      </trkpt>
      <trkpt lat="40.542250" lon="-5.169017">
        <ele>3605.0</ele>
        <time>2018-09-01T13:17:32Z</time>
      </trkpt>
      <trkpt lat="40.542383" lon="-5.168933">
        <ele>3605.0</ele>
        <time>2018-09-01T13:17:33Z</time>
      </trkpt>
      <trkpt lat="40.542517" lon="-5.168867">
        <ele>3605.0</ele>
        <time>2018-09-01T13:17:34Z</time>
      </trkpt>
      <trkpt lat="40.542650" lon="-5.168783">
        <ele>3606.0</ele>
        <time>2018-09-01T13:17:35Z</time>
      </trkpt>
      <trkpt lat="40.542767" lon="-5.168683">
        <ele>3605.0</ele>
        <time>2018-09-01T13:17:36Z</time>
      </trkpt>
      <trkpt lat="40.542900" lon="-5.168583">
        <ele>3605.0</ele>
        <time>2018-09-01T13:17:37Z</time>
      </trkpt>
      <trkpt lat="40.543017" lon="-5.168467">
        <ele>3605.0</ele>
        <time>2018-09-01T13:17:38Z</time>
      </trkpt>
      <trkpt lat="40.543133" lon="-5.168367">
        <ele>3605.0</ele>
        <time>2018-09-01T13:17:39Z</time>
      </trkpt>
      <trkpt lat="40.543250" lon="-5.168250">
        <ele>3606.0</ele>
        <time>2018-09-01T13:17:40Z</time>
      </trkpt>
      <trkpt lat="40.543367" lon="-5.168150">
        <ele>3607.0</ele>
        <time>2018-09-01T13:17:41Z</time>
      </trkpt>
      <trkpt lat="40.543483" lon="-5.168033">
        <ele>3607.0</ele>
        <time>2018-09-01T13:17:42Z</time>
      </trkpt>
      <trkpt lat="40.543600" lon="-5.167933">
        <ele>3607.0</ele>
        <time>2018-09-01T13:17:43Z</time>
      </trkpt>
      <trkpt lat="40.543733" lon="-5.167833">
        <ele>3607.0</ele>
        <time>2018-09-01T13:17:44Z</time>
      </trkpt>
      <trkpt lat="40.543833" lon="-5.167717">
        <ele>3606.0</ele>
        <time>2018-09-01T13:17:45Z</time>
      </trkpt>
      <trkpt lat="40.543950" lon="-5.167583">
        <ele>3607.0</ele>
        <time>2018-09-01T13:17:46Z</time>
      </trkpt>
      <trkpt lat="40.544067" lon="-5.167483">
        <ele>3607.0</ele>
        <time>2018-09-01T13:17:47Z</time>
      </trkpt>
      <trkpt lat="40.544200" lon="-5.167400">
        <ele>3607.0</ele>
        <time>2018-09-01T13:17:48Z</time>
      </trkpt>
      <trkpt lat="40.544333" lon="-5.167317">
        <ele>3607.0</ele>
        <time>2018-09-01T13:17:49Z</time>
      </trkpt>
      <trkpt lat="40.544450" lon="-5.167233">
        <ele>3608.0</ele>
        <time>2018-09-01T13:17:50Z</time>
      </trkpt>
      <trkpt lat="40.544567" lon="-5.167150">
        <ele>3607.0</ele>
        <time>2018-09-01T13:17:51Z</time>
      </trkpt>
      <trkpt lat="40.544683" lon="-5.167083">
        <ele>3606.0</ele>
        <time>2018-09-01T13:17:52Z</time>
      </trkpt>
      <trkpt lat="40.544817" lon="-5.167017">
        <ele>3604.0</ele>
        <time>2018-09-01T13:17:53Z</time>
      </trkpt>
      <trkpt lat="40.544950" lon="-5.166900">
        <ele>3602.0</ele>
        <time>2018-09-01T13:17:54Z</time>
      </trkpt>
      <trkpt lat="40.545067" lon="-5.166767">
        <ele>3602.0</ele>
        <time>2018-09-01T13:17:55Z</time>
      </trkpt>
      <trkpt lat="40.545150" lon="-5.166633">
        <ele>3604.0</ele>
        <time>2018-09-01T13:17:56Z</time>
      </trkpt>
      <trkpt lat="40.545250" lon="-5.166533">
        <ele>3607.0</ele>
        <time>2018-09-01T13:17:57Z</time>
      </trkpt>
      <trkpt lat="40.545333" lon="-5.166467">
        <ele>3609.0</ele>
        <time>2018-09-01T13:17:58Z</time>
      </trkpt>
      <trkpt lat="40.545417" lon="-5.166417">
        <ele>3610.0</ele>
        <time>2018-09-01T13:17:59Z</time>
      </trkpt>
      <trkpt lat="40.545517" lon="-5.166333">
        <ele>3608.0</ele>
        <time>2018-09-01T13:18:00Z</time>
      </trkpt>
      <trkpt lat="40.545600" lon="-5.166233">
        <ele>3605.0</ele>
        <time>2018-09-01T13:18:01Z</time>
      </trkpt>
      <trkpt lat="40.545717" lon="-5.166117">
        <ele>3602.0</ele>
        <time>2018-09-01T13:18:02Z</time>
      </trkpt>
      <trkpt lat="40.545850" lon="-5.166033">
        <ele>3600.0</ele>
        <time>2018-09-01T13:18:03Z</time>
      </trkpt>
      <trkpt lat="40.546000" lon="-5.165967">
        <ele>3600.0</ele>
        <time>2018-09-01T13:18:04Z</time>
      </trkpt>
      <trkpt lat="40.546117" lon="-5.165883">
        <ele>3600.0</ele>
        <time>2018-09-01T13:18:05Z</time>
      </trkpt>
      <trkpt lat="40.546233" lon="-5.165817">
        <ele>3600.0</ele>
        <time>2018-09-01T13:18:06Z</time>
      </trkpt>
      <trkpt lat="40.546333" lon="-5.165733">
        <ele>3599.0</ele>
        <time>2018-09-01T13:18:07Z</time>
      </trkpt>
      <trkpt lat="40.546467" lon="-5.165650">
        <ele>3597.0</ele>
        <time>2018-09-01T13:18:08Z</time>
      </trkpt>
      <trkpt lat="40.546583" lon="-5.165567">
        <ele>3595.0</ele>
        <time>2018-09-01T13:18:09Z</time>
      </trkpt>
      <trkpt lat="40.546717" lon="-5.165483">
        <ele>3592.0</ele>
        <time>2018-09-01T13:18:10Z</time>
      </trkpt>
      <trkpt lat="40.546833" lon="-5.165367">
        <ele>3591.0</ele>
        <time>2018-09-01T13:18:11Z</time>
      </trkpt>
      <trkpt lat="40.546933" lon="-5.165250">
        <ele>3590.0</ele>
        <time>2018-09-01T13:18:12Z</time>
      </trkpt>
      <trkpt lat="40.547033" lon="-5.165150">
        <ele>3588.0</ele>
        <time>2018-09-01T13:18:13Z</time>
      </trkpt>
      <trkpt lat="40.547150" lon="-5.165050">
        <ele>3587.0</ele>
        <time>2018-09-01T13:18:14Z</time>
      </trkpt>
      <trkpt lat="40.547267" lon="-5.164967">
        <ele>3584.0</ele>
        <time>2018-09-01T13:18:15Z</time>
      </trkpt>
      <trkpt lat="40.547400" lon="-5.164883">
        <ele>3582.0</ele>
        <time>2018-09-01T13:18:16Z</time>
      </trkpt>
      <trkpt lat="40.547500" lon="-5.164783">
        <ele>3580.0</ele>
        <time>2018-09-01T13:18:17Z</time>
      </trkpt>
      <trkpt lat="40.547617" lon="-5.164683">
        <ele>3578.0</ele>
        <time>2018-09-01T13:18:18Z</time>
      </trkpt>
      <trkpt lat="40.547733" lon="-5.164600">
        <ele>3576.0</ele>
        <time>2018-09-01T13:18:19Z</time>
      </trkpt>
      <trkpt lat="40.547867" lon="-5.164533">
        <ele>3574.0</ele>
        <time>2018-09-01T13:18:20Z</time>
      </trkpt>
      <trkpt lat="40.548000" lon="-5.164467">
        <ele>3573.0</ele>
        <time>2018-09-01T13:18:21Z</time>
      </trkpt>
      <trkpt lat="40.548117" lon="-5.164367">
        <ele>3572.0</ele>
        <time>2018-09-01T13:18:22Z</time>
      </trkpt>
      <trkpt lat="40.548200" lon="-5.164250">
        <ele>3571.0</ele>
        <time>2018-09-01T13:18:23Z</time>
      </trkpt>
      <trkpt lat="40.548267" lon="-5.164117">
        <ele>3569.0</ele>
        <time>2018-09-01T13:18:24Z</time>
      </trkpt>
      <trkpt lat="40.548333" lon="-5.163983">
        <ele>3569.0</ele>
        <time>2018-09-01T13:18:25Z</time>
      </trkpt>
      <trkpt lat="40.548400" lon="-5.163850">
        <ele>3569.0</ele>
        <time>2018-09-01T13:18:26Z</time>
      </trkpt>
      <trkpt lat="40.548483" lon="-5.163750">
        <ele>3569.0</ele>
        <time>2018-09-01T13:18:27Z</time>
      </trkpt>
      <trkpt lat="40.548567" lon="-5.163633">
        <ele>3569.0</ele>
        <time>2018-09-01T13:18:28Z</time>
      </trkpt>
      <trkpt lat="40.548633" lon="-5.163533">
        <ele>3567.0</ele>
        <time>2018-09-01T13:18:29Z</time>
      </trkpt>
      <trkpt lat="40.548717" lon="-5.163400">
        <ele>3566.0</ele>
        <time>2018-09-01T13:18:30Z</time>
      </trkpt>
      <trkpt lat="40.548800" lon="-5.163267">
        <ele>3565.0</ele>
        <time>2018-09-01T13:18:31Z</time>
      </trkpt>
      <trkpt lat="40.548917" lon="-5.163150">
        <ele>3564.0</ele>
        <time>2018-09-01T13:18:32Z</time>
      </trkpt>
      <trkpt lat="40.549033" lon="-5.163050">
        <ele>3564.0</ele>
        <time>2018-09-01T13:18:33Z</time>
      </trkpt>
      <trkpt lat="40.549150" lon="-5.162950">
        <ele>3564.0</ele>
        <time>2018-09-01T13:18:34Z</time>
      </trkpt>
      <trkpt lat="40.549250" lon="-5.162850">
        <ele>3565.0</ele>
        <time>2018-09-01T13:18:35Z</time>
      </trkpt>
      <trkpt lat="40.549350" lon="-5.162750">
        <ele>3564.0</ele>
        <time>2018-09-01T13:18:36Z</time>
      </trkpt>
      <trkpt lat="40.549450" lon="-5.162650">
        <ele>3562.0</ele>
        <time>2018-09-01T13:18:37Z</time>
      </trkpt>
      <trkpt lat="40.549583" lon="-5.162550">
        <ele>3560.0</ele>
        <time>2018-09-01T13:18:38Z</time>
      </trkpt>
      <trkpt lat="40.549717" lon="-5.162450">
        <ele>3557.0</ele>
        <time>2018-09-01T13:18:39Z</time>
      </trkpt>
      <trkpt lat="40.549867" lon="-5.162350">
        <ele>3555.0</ele>
        <time>2018-09-01T13:18:40Z</time>
      </trkpt>
      <trkpt lat="40.550000" lon="-5.162250">
        <ele>3554.0</ele>
        <time>2018-09-01T13:18:41Z</time>
      </trkpt>
      <trkpt lat="40.550133" lon="-5.162150">
        <ele>3553.0</ele>
        <time>2018-09-01T13:18:42Z</time>
      </trkpt>
      <trkpt lat="40.550233" lon="-5.162033">
        <ele>3552.0</ele>
        <time>2018-09-01T13:18:43Z</time>
      </trkpt>
      <trkpt lat="40.550350" lon="-5.161917">
        <ele>3551.0</ele>
        <time>2018-09-01T13:18:44Z</time>
      </trkpt>
      <trkpt lat="40.550483" lon="-5.161800">
        <ele>3548.0</ele>
        <time>2018-09-01T13:18:45Z</time>
      </trkpt>
      <trkpt lat="40.550600" lon="-5.161683">
        <ele>3546.0</ele>
        <time>2018-09-01T13:18:46Z</time>
      </trkpt>
      <trkpt lat="40.550733" lon="-5.161550">
        <ele>3544.0</ele>
        <time>2018-09-01T13:18:47Z</time>
      </trkpt>
      <trkpt lat="40.550867" lon="-5.161417">
        <ele>3544.0</ele>
        <time>2018-09-01T13:18:48Z</time>
      </trkpt>
      <trkpt lat="40.550983" lon="-5.161300">
        <ele>3543.0</ele>
        <time>2018-09-01T13:18:49Z</time>
      </trkpt>
      <trkpt lat="40.551083" lon="-5.161183">
        <ele>3542.0</ele>
        <time>2018-09-01T13:18:50Z</time>
      </trkpt>
      <trkpt lat="40.551183" lon="-5.161050">
        <ele>3541.0</ele>
        <time>2018-09-01T13:18:51Z</time>
      </trkpt>
      <trkpt lat="40.551283" lon="-5.160933">
        <ele>3539.0</ele>
        <time>2018-09-01T13:18:52Z</time>
      </trkpt>
      <trkpt lat="40.551400" lon="-5.160817">
        <ele>3537.0</ele>
        <time>2018-09-01T13:18:53Z</time>
      </trkpt>
      <trkpt lat="40.551517" lon="-5.160700">
        <ele>3536.0</ele>
        <time>2018-09-01T13:18:54Z</time>
      </trkpt>
      <trkpt lat="40.551633" lon="-5.160567">
        <ele>3535.0</ele>
        <time>2018-09-01T13:18:55Z</time>
      </trkpt>
      <trkpt lat="40.551750" lon="-5.160467">
        <ele>3534.0</ele>
        <time>2018-09-01T13:18:56Z</time>
      </trkpt>
      <trkpt lat="40.551850" lon="-5.160350">
        <ele>3534.0</ele>
        <time>2018-09-01T13:18:57Z</time>
      </trkpt>
      <trkpt lat="40.551967" lon="-5.160233">
        <ele>3533.0</ele>
        <time>2018-09-01T13:18:58Z</time>
      </trkpt>
      <trkpt lat="40.552050" lon="-5.160117">
        <ele>3531.0</ele>
        <time>2018-09-01T13:18:59Z</time>
      </trkpt>
      <trkpt lat="40.552167" lon="-5.159983">
        <ele>3530.0</ele>
        <time>2018-09-01T13:19:00Z</time>
      </trkpt>
      <trkpt lat="40.552267" lon="-5.159833">
        <ele>3529.0</ele>
        <time>2018-09-01T13:19:01Z</time>
      </trkpt>
      <trkpt lat="40.552367" lon="-5.159700">
        <ele>3529.0</ele>
        <time>2018-09-01T13:19:02Z</time>
      </trkpt>
      <trkpt lat="40.552483" lon="-5.159567">
        <ele>3528.0</ele>
        <time>2018-09-01T13:19:03Z</time>
      </trkpt>
      <trkpt lat="40.552600" lon="-5.159450">
        <ele>3528.0</ele>
        <time>2018-09-01T13:19:04Z</time>
      </trkpt>
      <trkpt lat="40.552700" lon="-5.159333">
        <ele>3528.0</ele>
        <time>2018-09-01T13:19:05Z</time>
      </trkpt>
      <trkpt lat="40.552800" lon="-5.159217">
        <ele>3527.0</ele>
        <time>2018-09-01T13:19:06Z</time>
      </trkpt>
      <trkpt lat="40.552917" lon="-5.159100">
        <ele>3526.0</ele>
        <time>2018-09-01T13:19:07Z</time>
      </trkpt>
      <trkpt lat="40.553017" lon="-5.159000">
        <ele>3524.0</ele>
        <time>2018-09-01T13:19:08Z</time>
      </trkpt>
      <trkpt lat="40.553117" lon="-5.158883">
        <ele>3523.0</ele>
        <time>2018-09-01T13:19:09Z</time>
      </trkpt>
      <trkpt lat="40.553217" lon="-5.158750">
        <ele>3523.0</ele>
        <time>2018-09-01T13:19:10Z</time>
      </trkpt>
      <trkpt lat="40.553317" lon="-5.158617">
        <ele>3522.0</ele>
        <time>2018-09-01T13:19:11Z</time>
      </trkpt>
      <trkpt lat="40.553400" lon="-5.158483">
        <ele>3523.0</ele>
        <time>2018-09-01T13:19:12Z</time>
      </trkpt>
      <trkpt lat="40.553500" lon="-5.158367">
        <ele>3523.0</ele>
        <time>2018-09-01T13:19:13Z</time>
      </trkpt>
      <trkpt lat="40.553583" lon="-5.158250">
        <ele>3523.0</ele>
        <time>2018-09-01T13:19:14Z</time>
      </trkpt>
      <trkpt lat="40.553667" lon="-5.158133">
        <ele>3523.0</ele>
        <time>2018-09-01T13:19:15Z</time>
      </trkpt>
      <trkpt lat="40.553767" lon="-5.158000">
        <ele>3523.0</ele>
        <time>2018-09-01T13:19:16Z</time>
      </trkpt>
      <trkpt lat="40.553850" lon="-5.157867">
        <ele>3522.0</ele>
        <time>2018-09-01T13:19:17Z</time>
      </trkpt>
      <trkpt lat="40.553950" lon="-5.157733">
        <ele>3521.0</ele>
        <time>2018-09-01T13:19:18Z</time>
      </trkpt>
      <trkpt lat="40.554050" lon="-5.157600">
        <ele>3521.0</ele>
        <time>2018-09-01T13:19:19Z</time>
      </trkpt>
      <trkpt lat="40.554150" lon="-5.157467">
        <ele>3522.0</ele>
        <time>2018-09-01T13:19:20Z</time>
      </trkpt>
      <trkpt lat="40.554250" lon="-5.157333">
        <ele>3524.0</ele>
        <time>2018-09-01T13:19:21Z</time>
      </trkpt>
      <trkpt lat="40.554350" lon="-5.157200">
        <ele>3526.0</ele>
        <time>2018-09-01T13:19:22Z</time>
      </trkpt>
      <trkpt lat="40.554450" lon="-5.157083">
        <ele>3529.0</ele>
        <time>2018-09-01T13:19:23Z</time>
      </trkpt>
      <trkpt lat="40.554517" lon="-5.156950">
        <ele>3532.0</ele>
        <time>2018-09-01T13:19:24Z</time>
      </trkpt>
      <trkpt lat="40.554567" lon="-5.156800">
        <ele>3533.0</ele>
        <time>2018-09-01T13:19:25Z</time>
      </trkpt>
      <trkpt lat="40.554583" lon="-5.156633">
        <ele>3534.0</ele>
        <time>2018-09-01T13:19:26Z</time>
      </trkpt>
      <trkpt lat="40.554567" lon="-5.156483">
        <ele>3533.0</ele>
        <time>2018-09-01T13:19:27Z</time>
      </trkpt>
      <trkpt lat="40.554517" lon="-5.156350">
        <ele>3532.0</ele>
        <time>2018-09-01T13:19:28Z</time>
      </trkpt>
      <trkpt lat="40.554450" lon="-5.156250">
        <ele>3532.0</ele>
        <time>2018-09-01T13:19:29Z</time>
      </trkpt>
      <trkpt lat="40.554367" lon="-5.156183">
        <ele>3531.0</ele>
        <time>2018-09-01T13:19:30Z</time>
      </trkpt>
      <trkpt lat="40.554267" lon="-5.156150">
        <ele>3530.0</ele>
        <time>2018-09-01T13:19:31Z</time>
      </trkpt>
      <trkpt lat="40.554183" lon="-5.156183">
        <ele>3530.0</ele>
        <time>2018-09-01T13:19:32Z</time>
      </trkpt>
      <trkpt lat="40.554117" lon="-5.156233">
        <ele>3531.0</ele>
        <time>2018-09-01T13:19:33Z</time>
      </trkpt>
      <trkpt lat="40.554067" lon="-5.156300">
        <ele>3533.0</ele>
        <time>2018-09-01T13:19:34Z</time>
      </trkpt>
      <trkpt lat="40.554017" lon="-5.156367">
        <ele>3536.0</ele>
        <time>2018-09-01T13:19:35Z</time>
      </trkpt>
      <trkpt lat="40.554000" lon="-5.156417">
        <ele>3538.0</ele>
        <time>2018-09-01T13:19:36Z</time>
      </trkpt>
      <trkpt lat="40.553967" lon="-5.156483">
        <ele>3539.0</ele>
        <time>2018-09-01T13:19:37Z</time>
      </trkpt>
      <trkpt lat="40.553950" lon="-5.156550">
        <ele>3540.0</ele>
        <time>2018-09-01T13:19:38Z</time>
      </trkpt>
      <trkpt lat="40.553950" lon="-5.156617">
        <ele>3540.0</ele>
        <time>2018-09-01T13:19:39Z</time>
      </trkpt>
      <trkpt lat="40.553967" lon="-5.156700">
        <ele>3540.0</ele>
        <time>2018-09-01T13:19:40Z</time>
      </trkpt>
      <trkpt lat="40.554000" lon="-5.156767">
        <ele>3539.0</ele>
        <time>2018-09-01T13:19:41Z</time>
      </trkpt>
      <trkpt lat="40.554050" lon="-5.156850">
        <ele>3538.0</ele>
        <time>2018-09-01T13:19:42Z</time>
      </trkpt>
      <trkpt lat="40.554117" lon="-5.156917">
        <ele>3537.0</ele>
        <time>2018-09-01T13:19:43Z</time>
      </trkpt>
      <trkpt lat="40.554200" lon="-5.156967">
        <ele>3536.0</ele>
        <time>2018-09-01T13:19:44Z</time>
      </trkpt>
      <trkpt lat="40.554317" lon="-5.157017">
        <ele>3535.0</ele>
        <time>2018-09-01T13:19:45Z</time>
      </trkpt>
      <trkpt lat="40.554417" lon="-5.157033">
        <ele>3535.0</ele>
        <time>2018-09-01T13:19:46Z</time>
      </trkpt>
      <trkpt lat="40.554533" lon="-5.157033">
        <ele>3535.0</ele>
        <time>2018-09-01T13:19:47Z</time>
      </trkpt>
      <trkpt lat="40.554667" lon="-5.157000">
        <ele>3535.0</ele>
        <time>2018-09-01T13:19:48Z</time>
      </trkpt>
      <trkpt lat="40.554800" lon="-5.156933">
        <ele>3535.0</ele>
        <time>2018-09-01T13:19:49Z</time>
      </trkpt>
      <trkpt lat="40.554933" lon="-5.156850">
        <ele>3535.0</ele>
        <time>2018-09-01T13:19:50Z</time>
      </trkpt>
      <trkpt lat="40.555050" lon="-5.156750">
        <ele>3537.0</ele>
        <time>2018-09-01T13:19:51Z</time>
      </trkpt>
      <trkpt lat="40.555183" lon="-5.156667">
        <ele>3539.0</ele>
        <time>2018-09-01T13:19:52Z</time>
      </trkpt>
      <trkpt lat="40.555300" lon="-5.156567">
        <ele>3540.0</ele>
        <time>2018-09-01T13:19:53Z</time>
      </trkpt>
      <trkpt lat="40.555417" lon="-5.156467">
        <ele>3542.0</ele>
        <time>2018-09-01T13:19:54Z</time>
      </trkpt>
      <trkpt lat="40.555517" lon="-5.156367">
        <ele>3543.0</ele>
        <time>2018-09-01T13:19:55Z</time>
      </trkpt>
      <trkpt lat="40.555617" lon="-5.156283">
        <ele>3544.0</ele>
        <time>2018-09-01T13:19:56Z</time>
      </trkpt>
      <trkpt lat="40.555717" lon="-5.156183">
        <ele>3545.0</ele>
        <time>2018-09-01T13:19:57Z</time>
      </trkpt>
      <trkpt lat="40.555800" lon="-5.156083">
        <ele>3544.0</ele>
        <time>2018-09-01T13:19:58Z</time>
      </trkpt>
      <trkpt lat="40.555883" lon="-5.155950">
        <ele>3543.0</ele>
        <time>2018-09-01T13:19:59Z</time>
      </trkpt>
      <trkpt lat="40.555967" lon="-5.155817">
        <ele>3543.0</ele>
        <time>2018-09-01T13:20:00Z</time>
      </trkpt>
      <trkpt lat="40.556033" lon="-5.155667">
        <ele>3542.0</ele>
        <time>2018-09-01T13:20:01Z</time>
      </trkpt>
      <trkpt lat="40.556100" lon="-5.155533">
        <ele>3542.0</ele>
        <time>2018-09-01T13:20:02Z</time>
      </trkpt>
      <trkpt lat="40.556167" lon="-5.155383">
        <ele>3543.0</ele>
        <time>2018-09-01T13:20:03Z</time>
      </trkpt>
      <trkpt lat="40.556217" lon="-5.155233">
        <ele>3542.0</ele>
        <time>2018-09-01T13:20:04Z</time>
      </trkpt>
      <trkpt lat="40.556267" lon="-5.155067">
        <ele>3541.0</ele>
        <time>2018-09-01T13:20:05Z</time>
      </trkpt>
      <trkpt lat="40.556317" lon="-5.154900">
        <ele>3539.0</ele>
        <time>2018-09-01T13:20:06Z</time>
      </trkpt>
      <trkpt lat="40.556367" lon="-5.154733">
        <ele>3539.0</ele>
        <time>2018-09-01T13:20:07Z</time>
      </trkpt>
      <trkpt lat="40.556400" lon="-5.154600">
        <ele>3539.0</ele>
        <time>2018-09-01T13:20:08Z</time>
      </trkpt>
      <trkpt lat="40.556417" lon="-5.154450">
        <ele>3537.0</ele>
        <time>2018-09-01T13:20:09Z</time>
      </trkpt>
      <trkpt lat="40.556400" lon="-5.154317">
        <ele>3535.0</ele>
        <time>2018-09-01T13:20:10Z</time>
      </trkpt>
      <trkpt lat="40.556400" lon="-5.154183">
        <ele>3532.0</ele>
        <time>2018-09-01T13:20:11Z</time>
      </trkpt>
      <trkpt lat="40.556400" lon="-5.154050">
        <ele>3528.0</ele>
        <time>2018-09-01T13:20:12Z</time>
      </trkpt>
      <trkpt lat="40.556417" lon="-5.153900">
        <ele>3524.0</ele>
        <time>2018-09-01T13:20:13Z</time>
      </trkpt>
      <trkpt lat="40.556467" lon="-5.153733">
        <ele>3519.0</ele>
        <time>2018-09-01T13:20:14Z</time>
      </trkpt>
      <trkpt lat="40.556517" lon="-5.153583">
        <ele>3515.0</ele>
        <time>2018-09-01T13:20:15Z</time>
      </trkpt>
      <trkpt lat="40.556567" lon="-5.153417">
        <ele>3511.0</ele>
        <time>2018-09-01T13:20:16Z</time>
      </trkpt>
      <trkpt lat="40.556617" lon="-5.153267">
        <ele>3509.0</ele>
        <time>2018-09-01T13:20:17Z</time>
      </trkpt>
      <trkpt lat="40.556650" lon="-5.153117">
        <ele>3507.0</ele>
        <time>2018-09-01T13:20:18Z</time>
      </trkpt>
      <trkpt lat="40.556683" lon="-5.152967">
        <ele>3504.0</ele>
        <time>2018-09-01T13:20:19Z</time>
      </trkpt>
      <trkpt lat="40.556733" lon="-5.152833">
        <ele>3501.0</ele>
        <time>2018-09-01T13:20:20Z</time>
      </trkpt>
      <trkpt lat="40.556783" lon="-5.152683">
        <ele>3497.0</ele>
        <time>2018-09-01T13:20:21Z</time>
      </trkpt>
      <trkpt lat="40.556833" lon="-5.152533">
        <ele>3493.0</ele>
        <time>2018-09-01T13:20:22Z</time>
      </trkpt>
      <trkpt lat="40.556917" lon="-5.152383">
        <ele>3488.0</ele>
        <time>2018-09-01T13:20:23Z</time>
      </trkpt>
      <trkpt lat="40.556983" lon="-5.152233">
        <ele>3484.0</ele>
        <time>2018-09-01T13:20:24Z</time>
      </trkpt>
      <trkpt lat="40.557067" lon="-5.152083">
        <ele>3481.0</ele>
        <time>2018-09-01T13:20:25Z</time>
      </trkpt>
      <trkpt lat="40.557150" lon="-5.151950">
        <ele>3477.0</ele>
        <time>2018-09-01T13:20:26Z</time>
      </trkpt>
      <trkpt lat="40.557233" lon="-5.151817">
        <ele>3473.0</ele>
        <time>2018-09-01T13:20:27Z</time>
      </trkpt>
      <trkpt lat="40.557333" lon="-5.151683">
        <ele>3469.0</ele>
        <time>2018-09-01T13:20:28Z</time>
      </trkpt>
      <trkpt lat="40.557433" lon="-5.151567">
        <ele>3465.0</ele>
        <time>2018-09-01T13:20:29Z</time>
      </trkpt>
      <trkpt lat="40.557533" lon="-5.151433">
        <ele>3460.0</ele>
        <time>2018-09-01T13:20:30Z</time>
      </trkpt>
      <trkpt lat="40.557633" lon="-5.151317">
        <ele>3455.0</ele>
        <time>2018-09-01T13:20:31Z</time>
      </trkpt>
      <trkpt lat="40.557733" lon="-5.151183">
        <ele>3450.0</ele>
        <time>2018-09-01T13:20:32Z</time>
      </trkpt>
      <trkpt lat="40.557833" lon="-5.151050">
        <ele>3445.0</ele>
        <time>2018-09-01T13:20:33Z</time>
      </trkpt>
      <trkpt lat="40.557950" lon="-5.150917">
        <ele>3441.0</ele>
        <time>2018-09-01T13:20:34Z</time>
      </trkpt>
      <trkpt lat="40.558050" lon="-5.150800">
        <ele>3438.0</ele>
        <time>2018-09-01T13:20:35Z</time>
      </trkpt>
      <trkpt lat="40.558150" lon="-5.150700">
        <ele>3434.0</ele>
        <time>2018-09-01T13:20:36Z</time>
      </trkpt>
      <trkpt lat="40.558250" lon="-5.150583">
        <ele>3430.0</ele>
        <time>2018-09-01T13:20:37Z</time>
      </trkpt>
      <trkpt lat="40.558350" lon="-5.150483">
        <ele>3425.0</ele>
        <time>2018-09-01T13:20:38Z</time>
      </trkpt>
      <trkpt lat="40.558450" lon="-5.150367">
        <ele>3420.0</ele>
        <time>2018-09-01T13:20:39Z</time>
      </trkpt>
      <trkpt lat="40.558550" lon="-5.150250">
        <ele>3416.0</ele>
        <time>2018-09-01T13:20:40Z</time>
      </trkpt>
      <trkpt lat="40.558667" lon="-5.150150">
        <ele>3413.0</ele>
        <time>2018-09-01T13:20:41Z</time>
      </trkpt>
      <trkpt lat="40.558767" lon="-5.150067">
        <ele>3411.0</ele>
        <time>2018-09-01T13:20:42Z</time>
      </trkpt>
      <trkpt lat="40.558867" lon="-5.149967">
        <ele>3408.0</ele>
        <time>2018-09-01T13:20:43Z</time>
      </trkpt>
      <trkpt lat="40.558967" lon="-5.149867">
        <ele>3404.0</ele>
        <time>2018-09-01T13:20:44Z</time>
      </trkpt>
      <trkpt lat="40.559067" lon="-5.149767">
        <ele>3401.0</ele>
        <time>2018-09-01T13:20:45Z</time>
      </trkpt>
      <trkpt lat="40.559167" lon="-5.149667">
        <ele>3399.0</ele>
        <time>2018-09-01T13:20:46Z</time>
      </trkpt>
      <trkpt lat="40.559267" lon="-5.149567">
        <ele>3396.0</ele>
        <time>2018-09-01T13:20:47Z</time>
      </trkpt>
      <trkpt lat="40.559367" lon="-5.149467">
        <ele>3395.0</ele>
        <time>2018-09-01T13:20:48Z</time>
      </trkpt>
      <trkpt lat="40.559450" lon="-5.149367">
        <ele>3393.0</ele>
        <time>2018-09-01T13:20:49Z</time>
      </trkpt>
      <trkpt lat="40.559550" lon="-5.149283">
        <ele>3392.0</ele>
        <time>2018-09-01T13:20:50Z</time>
      </trkpt>
      <trkpt lat="40.559633" lon="-5.149183">
        <ele>3391.0</ele>
        <time>2018-09-01T13:20:51Z</time>
      </trkpt>
      <trkpt lat="40.559717" lon="-5.149117">
        <ele>3390.0</ele>
        <time>2018-09-01T13:20:52Z</time>
      </trkpt>
      <trkpt lat="40.559817" lon="-5.149033">
        <ele>3388.0</ele>
        <time>2018-09-01T13:20:53Z</time>
      </trkpt>
      <trkpt lat="40.559900" lon="-5.148933">
        <ele>3385.0</ele>
        <time>2018-09-01T13:20:54Z</time>
      </trkpt>
      <trkpt lat="40.559983" lon="-5.148833">
        <ele>3381.0</ele>
        <time>2018-09-01T13:20:55Z</time>
      </trkpt>
      <trkpt lat="40.560100" lon="-5.148733">
        <ele>3378.0</ele>
        <time>2018-09-01T13:20:56Z</time>
      </trkpt>
      <trkpt lat="40.560200" lon="-5.148633">
        <ele>3375.0</ele>
        <time>2018-09-01T13:20:57Z</time>
      </trkpt>
      <trkpt lat="40.560300" lon="-5.148550">
        <ele>3373.0</ele>
        <time>2018-09-01T13:20:58Z</time>
      </trkpt>
      <trkpt lat="40.560400" lon="-5.148467">
        <ele>3373.0</ele>
        <time>2018-09-01T13:20:59Z</time>
      </trkpt>
      <trkpt lat="40.560483" lon="-5.148367">
        <ele>3373.0</ele>
        <time>2018-09-01T13:21:00Z</time>
      </trkpt>
      <trkpt lat="40.560567" lon="-5.148300">
        <ele>3372.0</ele>
        <time>2018-09-01T13:21:01Z</time>
      </trkpt>
      <trkpt lat="40.560650" lon="-5.148217">
        <ele>3370.0</ele>
        <time>2018-09-01T13:21:02Z</time>
      </trkpt>
      <trkpt lat="40.560750" lon="-5.148150">
        <ele>3368.0</ele>
        <time>2018-09-01T13:21:03Z</time>
      </trkpt>
      <trkpt lat="40.560850" lon="-5.148083">
        <ele>3365.0</ele>
        <time>2018-09-01T13:21:04Z</time>
      </trkpt>
      <trkpt lat="40.560950" lon="-5.148000">
        <ele>3363.0</ele>
        <time>2018-09-01T13:21:05Z</time>
      </trkpt>
      <trkpt lat="40.561033" lon="-5.147900">
        <ele>3361.0</ele>
        <time>2018-09-01T13:21:06Z</time>
      </trkpt>
      <trkpt lat="40.561117" lon="-5.147817">
        <ele>3359.0</ele>
        <time>2018-09-01T13:21:07Z</time>
      </trkpt>
      <trkpt lat="40.561217" lon="-5.147733">
        <ele>3358.0</ele>
        <time>2018-09-01T13:21:08Z</time>
      </trkpt>
      <trkpt lat="40.561317" lon="-5.147667">
        <ele>3356.0</ele>
        <time>2018-09-01T13:21:09Z</time>
      </trkpt>
      <trkpt lat="40.561417" lon="-5.147583">
        <ele>3353.0</ele>
        <time>2018-09-01T13:21:10Z</time>
      </trkpt>
      <trkpt lat="40.561500" lon="-5.147483">
        <ele>3351.0</ele>
        <time>2018-09-01T13:21:11Z</time>
      </trkpt>
      <trkpt lat="40.561600" lon="-5.147383">
        <ele>3349.0</ele>
        <time>2018-09-01T13:21:12Z</time>
      </trkpt>
      <trkpt lat="40.561683" lon="-5.147283">
        <ele>3347.0</ele>
        <time>2018-09-01T13:21:13Z</time>
      </trkpt>
      <trkpt lat="40.561800" lon="-5.147200">
        <ele>3345.0</ele>
        <time>2018-09-01T13:21:14Z</time>
      </trkpt>
      <trkpt lat="40.561917" lon="-5.147150">
        <ele>3343.0</ele>
        <time>2018-09-01T13:21:15Z</time>
      </trkpt>
      <trkpt lat="40.562033" lon="-5.147133">
        <ele>3340.0</ele>
        <time>2018-09-01T13:21:16Z</time>
      </trkpt>
      <trkpt lat="40.562167" lon="-5.147133">
        <ele>3338.0</ele>
        <time>2018-09-01T13:21:17Z</time>
      </trkpt>
      <trkpt lat="40.562283" lon="-5.147117">
        <ele>3337.0</ele>
        <time>2018-09-01T13:21:18Z</time>
      </trkpt>
      <trkpt lat="40.562400" lon="-5.147083">
        <ele>3335.0</ele>
        <time>2018-09-01T13:21:19Z</time>
      </trkpt>
      <trkpt lat="40.562517" lon="-5.147050">
        <ele>3333.0</ele>
        <time>2018-09-01T13:21:20Z</time>
      </trkpt>
      <trkpt lat="40.562617" lon="-5.147000">
        <ele>3331.0</ele>
        <time>2018-09-01T13:21:21Z</time>
      </trkpt>
      <trkpt lat="40.562733" lon="-5.146933">
        <ele>3328.0</ele>
        <time>2018-09-01T13:21:22Z</time>
      </trkpt>
      <trkpt lat="40.562850" lon="-5.146867">
        <ele>3326.0</ele>
        <time>2018-09-01T13:21:23Z</time>
      </trkpt>
      <trkpt lat="40.562967" lon="-5.146817">
        <ele>3324.0</ele>
        <time>2018-09-01T13:21:24Z</time>
      </trkpt>
      <trkpt lat="40.563083" lon="-5.146767">
        <ele>3323.0</ele>
        <time>2018-09-01T13:21:25Z</time>
      </trkpt>
      <trkpt lat="40.563200" lon="-5.146733">
        <ele>3321.0</ele>
        <time>2018-09-01T13:21:26Z</time>
      </trkpt>
      <trkpt lat="40.563317" lon="-5.146700">
        <ele>3320.0</ele>
        <time>2018-09-01T13:21:27Z</time>
      </trkpt>
      <trkpt lat="40.563417" lon="-5.146633">
        <ele>3318.0</ele>
        <time>2018-09-01T13:21:28Z</time>
      </trkpt>
      <trkpt lat="40.563517" lon="-5.146583">
        <ele>3316.0</ele>
        <time>2018-09-01T13:21:29Z</time>
      </trkpt>
      <trkpt lat="40.563633" lon="-5.146533">
        <ele>3315.0</ele>
        <time>2018-09-01T13:21:30Z</time>
      </trkpt>
      <trkpt lat="40.563733" lon="-5.146467">
        <ele>3314.0</ele>
        <time>2018-09-01T13:21:31Z</time>
      </trkpt>
      <trkpt lat="40.563817" lon="-5.146417">
        <ele>3312.0</ele>
        <time>2018-09-01T13:21:32Z</time>
      </trkpt>
      <trkpt lat="40.563917" lon="-5.146333">
        <ele>3310.0</ele>
        <time>2018-09-01T13:21:33Z</time>
      </trkpt>
      <trkpt lat="40.564017" lon="-5.146283">
        <ele>3308.0</ele>
        <time>2018-09-01T13:21:34Z</time>
      </trkpt>
      <trkpt lat="40.564117" lon="-5.146233">
        <ele>3306.0</ele>
        <time>2018-09-01T13:21:35Z</time>
      </trkpt>
      <trkpt lat="40.564233" lon="-5.146200">
        <ele>3303.0</ele>
        <time>2018-09-01T13:21:36Z</time>
      </trkpt>
      <trkpt lat="40.564350" lon="-5.146167">
        <ele>3300.0</ele>
        <time>2018-09-01T13:21:37Z</time>
      </trkpt>
      <trkpt lat="40.564467" lon="-5.146150">
        <ele>3297.0</ele>
        <time>2018-09-01T13:21:38Z</time>
      </trkpt>
      <trkpt lat="40.564583" lon="-5.146117">
        <ele>3295.0</ele>
        <time>2018-09-01T13:21:39Z</time>
      </trkpt>
      <trkpt lat="40.564700" lon="-5.146083">
        <ele>3294.0</ele>
        <time>2018-09-01T13:21:40Z</time>
      </trkpt>
      <trkpt lat="40.564800" lon="-5.146050">
        <ele>3292.0</ele>
        <time>2018-09-01T13:21:41Z</time>
      </trkpt>
      <trkpt lat="40.564900" lon="-5.146000">
        <ele>3290.0</ele>
        <time>2018-09-01T13:21:42Z</time>
      </trkpt>
      <trkpt lat="40.565017" lon="-5.145967">
        <ele>3288.0</ele>
        <time>2018-09-01T13:21:43Z</time>
      </trkpt>
      <trkpt lat="40.565133" lon="-5.145900">
        <ele>3285.0</ele>
        <time>2018-09-01T13:21:44Z</time>
      </trkpt>
      <trkpt lat="40.565233" lon="-5.145850">
        <ele>3284.0</ele>
        <time>2018-09-01T13:21:45Z</time>
      </trkpt>
      <trkpt lat="40.565350" lon="-5.145800">
        <ele>3283.0</ele>
        <time>2018-09-01T13:21:46Z</time>
      </trkpt>
      <trkpt lat="40.565450" lon="-5.145750">
        <ele>3283.0</ele>
        <time>2018-09-01T13:21:47Z</time>
      </trkpt>
      <trkpt lat="40.565567" lon="-5.145717">
        <ele>3281.0</ele>
        <time>2018-09-01T13:21:48Z</time>
      </trkpt>
      <trkpt lat="40.565683" lon="-5.145683">
        <ele>3280.0</ele>
        <time>2018-09-01T13:21:49Z</time>
      </trkpt>
      <trkpt lat="40.565783" lon="-5.145617">
        <ele>3278.0</ele>
        <time>2018-09-01T13:21:50Z</time>
      </trkpt>
      <trkpt lat="40.565883" lon="-5.145533">
        <ele>3275.0</ele>
        <time>2018-09-01T13:21:51Z</time>
      </trkpt>
      <trkpt lat="40.565967" lon="-5.145433">
        <ele>3273.0</ele>
        <time>2018-09-01T13:21:52Z</time>
      </trkpt>
      <trkpt lat="40.566067" lon="-5.145317">
        <ele>3270.0</ele>
        <time>2018-09-01T13:21:53Z</time>
      </trkpt>
      <trkpt lat="40.566150" lon="-5.145217">
        <ele>3269.0</ele>
        <time>2018-09-01T13:21:54Z</time>
      </trkpt>
      <trkpt lat="40.566233" lon="-5.145133">
        <ele>3266.0</ele>
        <time>2018-09-01T13:21:55Z</time>
      </trkpt>
      <trkpt lat="40.566317" lon="-5.145033">
        <ele>3264.0</ele>
        <time>2018-09-01T13:21:56Z</time>
      </trkpt>
      <trkpt lat="40.566400" lon="-5.144933">
        <ele>3260.0</ele>
        <time>2018-09-01T13:21:57Z</time>
      </trkpt>
      <trkpt lat="40.566467" lon="-5.144817">
        <ele>3256.0</ele>
        <time>2018-09-01T13:21:58Z</time>
      </trkpt>
      <trkpt lat="40.566533" lon="-5.144683">
        <ele>3252.0</ele>
        <time>2018-09-01T13:21:59Z</time>
      </trkpt>
      <trkpt lat="40.566600" lon="-5.144517">
        <ele>3249.0</ele>
        <time>2018-09-01T13:22:00Z</time>
      </trkpt>
      <trkpt lat="40.566650" lon="-5.144367">
        <ele>3247.0</ele>
        <time>2018-09-01T13:22:01Z</time>
      </trkpt>
      <trkpt lat="40.566683" lon="-5.144233">
        <ele>3245.0</ele>
        <time>2018-09-01T13:22:02Z</time>
      </trkpt>
      <trkpt lat="40.566717" lon="-5.144083">
        <ele>3244.0</ele>
        <time>2018-09-01T13:22:03Z</time>
      </trkpt>
      <trkpt lat="40.566733" lon="-5.143933">
        <ele>3241.0</ele>
        <time>2018-09-01T13:22:04Z</time>
      </trkpt>
      <trkpt lat="40.566733" lon="-5.143783">
        <ele>3238.0</ele>
        <time>2018-09-01T13:22:05Z</time>
      </trkpt>
      <trkpt lat="40.566750" lon="-5.143617">
        <ele>3235.0</ele>
        <time>2018-09-01T13:22:06Z</time>
      </trkpt>
      <trkpt lat="40.566767" lon="-5.143450">
        <ele>3232.0</ele>
        <time>2018-09-01T13:22:07Z</time>
      </trkpt>
      <trkpt lat="40.566783" lon="-5.143300">
        <ele>3231.0</ele>
        <time>2018-09-01T13:22:08Z</time>
      </trkpt>
      <trkpt lat="40.566817" lon="-5.143150">
        <ele>3230.0</ele>
        <time>2018-09-01T13:22:09Z</time>
      </trkpt>
      <trkpt lat="40.566867" lon="-5.143017">
        <ele>3228.0</ele>
        <time>2018-09-01T13:22:10Z</time>
      </trkpt>
      <trkpt lat="40.566900" lon="-5.142883">
        <ele>3226.0</ele>
        <time>2018-09-01T13:22:11Z</time>
      </trkpt>
      <trkpt lat="40.566933" lon="-5.142733">
        <ele>3223.0</ele>
        <time>2018-09-01T13:22:12Z</time>
      </trkpt>
      <trkpt lat="40.566967" lon="-5.142600">
        <ele>3220.0</ele>
        <time>2018-09-01T13:22:13Z</time>
      </trkpt>
      <trkpt lat="40.567000" lon="-5.142450">
        <ele>3218.0</ele>
        <time>2018-09-01T13:22:14Z</time>
      </trkpt>
      <trkpt lat="40.567050" lon="-5.142300">
        <ele>3216.0</ele>
        <time>2018-09-01T13:22:15Z</time>
      </trkpt>
      <trkpt lat="40.567067" lon="-5.142150">
        <ele>3214.0</ele>
        <time>2018-09-01T13:22:16Z</time>
      </trkpt>
      <trkpt lat="40.567100" lon="-5.142017">
        <ele>3212.0</ele>
        <time>2018-09-01T13:22:17Z</time>
      </trkpt>
      <trkpt lat="40.567117" lon="-5.141867">
        <ele>3210.0</ele>
        <time>2018-09-01T13:22:18Z</time>
      </trkpt>
      <trkpt lat="40.567150" lon="-5.141717">
        <ele>3208.0</ele>
        <time>2018-09-01T13:22:19Z</time>
      </trkpt>
      <trkpt lat="40.567183" lon="-5.141550">
        <ele>3206.0</ele>
        <time>2018-09-01T13:22:20Z</time>
      </trkpt>
      <trkpt lat="40.567233" lon="-5.141400">
        <ele>3204.0</ele>
        <time>2018-09-01T13:22:21Z</time>
      </trkpt>
      <trkpt lat="40.567267" lon="-5.141250">
        <ele>3203.0</ele>
        <time>2018-09-01T13:22:22Z</time>
      </trkpt>
      <trkpt lat="40.567300" lon="-5.141100">
        <ele>3201.0</ele>
        <time>2018-09-01T13:22:23Z</time>
      </trkpt>
      <trkpt lat="40.567350" lon="-5.140967">
        <ele>3199.0</ele>
        <time>2018-09-01T13:22:24Z</time>
      </trkpt>
      <trkpt lat="40.567383" lon="-5.140817">
        <ele>3198.0</ele>
        <time>2018-09-01T13:22:25Z</time>
      </trkpt>
      <trkpt lat="40.567417" lon="-5.140683">
        <ele>3196.0</ele>
        <time>2018-09-01T13:22:26Z</time>
      </trkpt>
      <trkpt lat="40.567467" lon="-5.140533">
        <ele>3195.0</ele>
        <time>2018-09-01T13:22:27Z</time>
      </trkpt>
      <trkpt lat="40.567483" lon="-5.140417">
        <ele>3195.0</ele>
        <time>2018-09-01T13:22:28Z</time>
      </trkpt>
      <trkpt lat="40.567500" lon="-5.140300">
        <ele>3195.0</ele>
        <time>2018-09-01T13:22:29Z</time>
      </trkpt>
      <trkpt lat="40.567517" lon="-5.140183">
        <ele>3194.0</ele>
        <time>2018-09-01T13:22:30Z</time>
      </trkpt>
      <trkpt lat="40.567533" lon="-5.140083">
        <ele>3194.0</ele>
        <time>2018-09-01T13:22:31Z</time>
      </trkpt>
      <trkpt lat="40.567550" lon="-5.139983">
        <ele>3192.0</ele>
        <time>2018-09-01T13:22:32Z</time>
      </trkpt>
      <trkpt lat="40.567583" lon="-5.139867">
        <ele>3190.0</ele>
        <time>2018-09-01T13:22:33Z</time>
      </trkpt>
      <trkpt lat="40.567600" lon="-5.139733">
        <ele>3188.0</ele>
        <time>2018-09-01T13:22:34Z</time>
      </trkpt>
      <trkpt lat="40.567617" lon="-5.139617">
        <ele>3187.0</ele>
        <time>2018-09-01T13:22:35Z</time>
      </trkpt>
      <trkpt lat="40.567633" lon="-5.139483">
        <ele>3185.0</ele>
        <time>2018-09-01T13:22:36Z</time>
      </trkpt>
      <trkpt lat="40.567667" lon="-5.139367">
        <ele>3184.0</ele>
        <time>2018-09-01T13:22:37Z</time>
      </trkpt>
      <trkpt lat="40.567700" lon="-5.139233">
        <ele>3182.0</ele>
        <time>2018-09-01T13:22:38Z</time>
      </trkpt>
      <trkpt lat="40.567733" lon="-5.139100">
        <ele>3180.0</ele>
        <time>2018-09-01T13:22:39Z</time>
      </trkpt>
      <trkpt lat="40.567767" lon="-5.138967">
        <ele>3179.0</ele>
        <time>2018-09-01T13:22:40Z</time>
      </trkpt>
      <trkpt lat="40.567783" lon="-5.138833">
        <ele>3178.0</ele>
        <time>2018-09-01T13:22:41Z</time>
      </trkpt>
      <trkpt lat="40.567817" lon="-5.138717">
        <ele>3177.0</ele>
        <time>2018-09-01T13:22:42Z</time>
      </trkpt>
      <trkpt lat="40.567867" lon="-5.138600">
        <ele>3176.0</ele>
        <time>2018-09-01T13:22:43Z</time>
      </trkpt>
      <trkpt lat="40.567933" lon="-5.138483">
        <ele>3174.0</ele>
        <time>2018-09-01T13:22:44Z</time>
      </trkpt>
      <trkpt lat="40.568000" lon="-5.138367">
        <ele>3171.0</ele>
        <time>2018-09-01T13:22:45Z</time>
      </trkpt>
      <trkpt lat="40.568067" lon="-5.138250">
        <ele>3169.0</ele>
        <time>2018-09-01T13:22:46Z</time>
      </trkpt>
      <trkpt lat="40.568133" lon="-5.138133">
        <ele>3166.0</ele>
        <time>2018-09-01T13:22:47Z</time>
      </trkpt>
      <trkpt lat="40.568200" lon="-5.138000">
        <ele>3164.0</ele>
        <time>2018-09-01T13:22:48Z</time>
      </trkpt>
      <trkpt lat="40.568267" lon="-5.137883">
        <ele>3162.0</ele>
        <time>2018-09-01T13:22:49Z</time>
      </trkpt>
      <trkpt lat="40.568333" lon="-5.137783">
        <ele>3160.0</ele>
        <time>2018-09-01T13:22:50Z</time>
      </trkpt>
      <trkpt lat="40.568400" lon="-5.137667">
        <ele>3158.0</ele>
        <time>2018-09-01T13:22:51Z</time>
      </trkpt>
      <trkpt lat="40.568467" lon="-5.137567">
        <ele>3157.0</ele>
        <time>2018-09-01T13:22:52Z</time>
      </trkpt>
      <trkpt lat="40.568533" lon="-5.137450">
        <ele>3155.0</ele>
        <time>2018-09-01T13:22:53Z</time>
      </trkpt>
      <trkpt lat="40.568583" lon="-5.137333">
        <ele>3153.0</ele>
        <time>2018-09-01T13:22:54Z</time>
      </trkpt>
      <trkpt lat="40.568650" lon="-5.137217">
        <ele>3151.0</ele>
        <time>2018-09-01T13:22:55Z</time>
      </trkpt>
      <trkpt lat="40.568733" lon="-5.137117">
        <ele>3149.0</ele>
        <time>2018-09-01T13:22:56Z</time>
      </trkpt>
      <trkpt lat="40.568800" lon="-5.137000">
        <ele>3147.0</ele>
        <time>2018-09-01T13:22:57Z</time>
      </trkpt>
      <trkpt lat="40.568867" lon="-5.136900">
        <ele>3145.0</ele>
        <time>2018-09-01T13:22:58Z</time>
      </trkpt>
      <trkpt lat="40.568933" lon="-5.136783">
        <ele>3143.0</ele>
        <time>2018-09-01T13:22:59Z</time>
      </trkpt>
      <trkpt lat="40.569017" lon="-5.136683">
        <ele>3140.0</ele>
        <time>2018-09-01T13:23:00Z</time>
      </trkpt>
      <trkpt lat="40.569100" lon="-5.136567">
        <ele>3137.0</ele>
        <time>2018-09-01T13:23:01Z</time>
      </trkpt>
      <trkpt lat="40.569183" lon="-5.136450">
        <ele>3135.0</ele>
        <time>2018-09-01T13:23:02Z</time>
      </trkpt>
      <trkpt lat="40.569250" lon="-5.136317">
        <ele>3133.0</ele>
        <time>2018-09-01T13:23:03Z</time>
      </trkpt>
      <trkpt lat="40.569317" lon="-5.136183">
        <ele>3132.0</ele>
        <time>2018-09-01T13:23:04Z</time>
      </trkpt>
      <trkpt lat="40.569383" lon="-5.136050">
        <ele>3131.0</ele>
        <time>2018-09-01T13:23:05Z</time>
      </trkpt>
      <trkpt lat="40.569433" lon="-5.135917">
        <ele>3130.0</ele>
        <time>2018-09-01T13:23:06Z</time>
      </trkpt>
      <trkpt lat="40.569483" lon="-5.135783">
        <ele>3130.0</ele>
        <time>2018-09-01T13:23:07Z</time>
      </trkpt>
      <trkpt lat="40.569533" lon="-5.135633">
        <ele>3130.0</ele>
        <time>2018-09-01T13:23:08Z</time>
      </trkpt>
      <trkpt lat="40.569600" lon="-5.135517">
        <ele>3130.0</ele>
        <time>2018-09-01T13:23:09Z</time>
      </trkpt>
      <trkpt lat="40.569650" lon="-5.135383">
        <ele>3131.0</ele>
        <time>2018-09-01T13:23:10Z</time>
      </trkpt>
      <trkpt lat="40.569683" lon="-5.135267">
        <ele>3132.0</ele>
        <time>2018-09-01T13:23:11Z</time>
      </trkpt>
      <trkpt lat="40.569700" lon="-5.135150">
        <ele>3132.0</ele>
        <time>2018-09-01T13:23:12Z</time>
      </trkpt>
      <trkpt lat="40.569717" lon="-5.135033">
        <ele>3133.0</ele>
        <time>2018-09-01T13:23:13Z</time>
      </trkpt>
      <trkpt lat="40.569717" lon="-5.134917">
        <ele>3135.0</ele>
        <time>2018-09-01T13:23:14Z</time>
      </trkpt>
      <trkpt lat="40.569733" lon="-5.134817">
        <ele>3138.0</ele>
        <time>2018-09-01T13:23:15Z</time>
      </trkpt>
      <trkpt lat="40.569783" lon="-5.134717">
        <ele>3140.0</ele>
        <time>2018-09-01T13:23:16Z</time>
      </trkpt>
      <trkpt lat="40.569817" lon="-5.134633">
        <ele>3141.0</ele>
        <time>2018-09-01T13:23:17Z</time>
      </trkpt>
      <trkpt lat="40.569867" lon="-5.134550">
        <ele>3142.0</ele>
        <time>2018-09-01T13:23:18Z</time>
      </trkpt>
      <trkpt lat="40.569917" lon="-5.134450">
        <ele>3142.0</ele>
        <time>2018-09-01T13:23:19Z</time>
      </trkpt>
      <trkpt lat="40.569950" lon="-5.134367">
        <ele>3143.0</ele>
        <time>2018-09-01T13:23:20Z</time>
      </trkpt>
      <trkpt lat="40.569983" lon="-5.134250">
        <ele>3143.0</ele>
        <time>2018-09-01T13:23:21Z</time>
      </trkpt>
      <trkpt lat="40.570033" lon="-5.134150">
        <ele>3142.0</ele>
        <time>2018-09-01T13:23:22Z</time>
      </trkpt>
      <trkpt lat="40.570083" lon="-5.134033">
        <ele>3142.0</ele>
        <time>2018-09-01T13:23:23Z</time>
      </trkpt>
      <trkpt lat="40.570150" lon="-5.133933">
        <ele>3142.0</ele>
        <time>2018-09-01T13:23:24Z</time>
      </trkpt>
      <trkpt lat="40.570217" lon="-5.133817">
        <ele>3142.0</ele>
        <time>2018-09-01T13:23:25Z</time>
      </trkpt>
      <trkpt lat="40.570267" lon="-5.133717">
        <ele>3143.0</ele>
        <time>2018-09-01T13:23:26Z</time>
      </trkpt>
      <trkpt lat="40.570300" lon="-5.133600">
        <ele>3142.0</ele>
        <time>2018-09-01T13:23:27Z</time>
      </trkpt>
      <trkpt lat="40.570333" lon="-5.133500">
        <ele>3142.0</ele>
        <time>2018-09-01T13:23:28Z</time>
      </trkpt>
      <trkpt lat="40.570383" lon="-5.133400">
        <ele>3141.0</ele>
        <time>2018-09-01T13:23:29Z</time>
      </trkpt>
      <trkpt lat="40.570417" lon="-5.133317">
        <ele>3140.0</ele>
        <time>2018-09-01T13:23:30Z</time>
      </trkpt>
      <trkpt lat="40.570467" lon="-5.133233">
        <ele>3139.0</ele>
        <time>2018-09-01T13:23:31Z</time>
      </trkpt>
      <trkpt lat="40.570500" lon="-5.133150">
        <ele>3138.0</ele>
        <time>2018-09-01T13:23:32Z</time>
      </trkpt>
      <trkpt lat="40.570550" lon="-5.133067">
        <ele>3136.0</ele>
        <time>2018-09-01T13:23:33Z</time>
      </trkpt>
      <trkpt lat="40.570600" lon="-5.133000">
        <ele>3134.0</ele>
        <time>2018-09-01T13:23:34Z</time>
      </trkpt>
      <trkpt lat="40.570650" lon="-5.132900">
        <ele>3132.0</ele>
        <time>2018-09-01T13:23:35Z</time>
      </trkpt>
      <trkpt lat="40.570717" lon="-5.132817">
        <ele>3130.0</ele>
        <time>2018-09-01T13:23:36Z</time>
      </trkpt>
      <trkpt lat="40.570783" lon="-5.132700">
        <ele>3128.0</ele>
        <time>2018-09-01T13:23:37Z</time>
      </trkpt>
      <trkpt lat="40.570883" lon="-5.132600">
        <ele>3129.0</ele>
        <time>2018-09-01T13:23:38Z</time>
      </trkpt>
      <trkpt lat="40.570983" lon="-5.132517">
        <ele>3130.0</ele>
        <time>2018-09-01T13:23:39Z</time>
      </trkpt>
      <trkpt lat="40.571083" lon="-5.132433">
        <ele>3133.0</ele>
        <time>2018-09-01T13:23:40Z</time>
      </trkpt>
      <trkpt lat="40.571150" lon="-5.132350">
        <ele>3135.0</ele>
        <time>2018-09-01T13:23:41Z</time>
      </trkpt>
      <trkpt lat="40.571233" lon="-5.132267">
        <ele>3136.0</ele>
        <time>2018-09-01T13:23:42Z</time>
      </trkpt>
      <trkpt lat="40.571317" lon="-5.132183">
        <ele>3137.0</ele>
        <time>2018-09-01T13:23:43Z</time>
      </trkpt>
      <trkpt lat="40.571417" lon="-5.132083">
        <ele>3137.0</ele>
        <time>2018-09-01T13:23:44Z</time>
      </trkpt>
      <trkpt lat="40.571517" lon="-5.132000">
        <ele>3138.0</ele>
        <time>2018-09-01T13:23:45Z</time>
      </trkpt>
      <trkpt lat="40.571617" lon="-5.131917">
        <ele>3138.0</ele>
        <time>2018-09-01T13:23:46Z</time>
      </trkpt>
      <trkpt lat="40.571717" lon="-5.131833">
        <ele>3137.0</ele>
        <time>2018-09-01T13:23:47Z</time>
      </trkpt>
      <trkpt lat="40.571817" lon="-5.131733">
        <ele>3135.0</ele>
        <time>2018-09-01T13:23:48Z</time>
      </trkpt>
      <trkpt lat="40.571900" lon="-5.131633">
        <ele>3133.0</ele>
        <time>2018-09-01T13:23:49Z</time>
      </trkpt>
      <trkpt lat="40.571967" lon="-5.131533">
        <ele>3129.0</ele>
        <time>2018-09-01T13:23:50Z</time>
      </trkpt>
      <trkpt lat="40.572050" lon="-5.131450">
        <ele>3126.0</ele>
        <time>2018-09-01T13:23:51Z</time>
      </trkpt>
      <trkpt lat="40.572133" lon="-5.131367">
        <ele>3122.0</ele>
        <time>2018-09-01T13:23:52Z</time>
      </trkpt>
      <trkpt lat="40.572217" lon="-5.131267">
        <ele>3117.0</ele>
        <time>2018-09-01T13:23:53Z</time>
      </trkpt>
      <trkpt lat="40.572317" lon="-5.131150">
        <ele>3113.0</ele>
        <time>2018-09-01T13:23:54Z</time>
      </trkpt>
      <trkpt lat="40.572417" lon="-5.131033">
        <ele>3110.0</ele>
        <time>2018-09-01T13:23:55Z</time>
      </trkpt>
      <trkpt lat="40.572517" lon="-5.130933">
        <ele>3108.0</ele>
        <time>2018-09-01T13:23:56Z</time>
      </trkpt>
      <trkpt lat="40.572633" lon="-5.130833">
        <ele>3107.0</ele>
        <time>2018-09-01T13:23:57Z</time>
      </trkpt>
      <trkpt lat="40.572733" lon="-5.130733">
        <ele>3106.0</ele>
        <time>2018-09-01T13:23:58Z</time>
      </trkpt>
      <trkpt lat="40.572833" lon="-5.130633">
        <ele>3104.0</ele>
        <time>2018-09-01T13:23:59Z</time>
      </trkpt>
      <trkpt lat="40.572917" lon="-5.130517">
        <ele>3103.0</ele>
        <time>2018-09-01T13:24:00Z</time>
      </trkpt>
      <trkpt lat="40.573017" lon="-5.130417">
        <ele>3103.0</ele>
        <time>2018-09-01T13:24:01Z</time>
      </trkpt>
      <trkpt lat="40.573100" lon="-5.130300">
        <ele>3103.0</ele>
        <time>2018-09-01T13:24:02Z</time>
      </trkpt>
      <trkpt lat="40.573183" lon="-5.130200">
        <ele>3102.0</ele>
        <time>2018-09-01T13:24:03Z</time>
      </trkpt>
      <trkpt lat="40.573267" lon="-5.130083">
        <ele>3103.0</ele>
        <time>2018-09-01T13:24:04Z</time>
      </trkpt>
      <trkpt lat="40.573333" lon="-5.129983">
        <ele>3103.0</ele>
        <time>2018-09-01T13:24:05Z</time>
      </trkpt>
      <trkpt lat="40.573400" lon="-5.129883">
        <ele>3103.0</ele>
        <time>2018-09-01T13:24:06Z</time>
      </trkpt>
      <trkpt lat="40.573467" lon="-5.129783">
        <ele>3104.0</ele>
        <time>2018-09-01T13:24:07Z</time>
      </trkpt>
      <trkpt lat="40.573550" lon="-5.129667">
        <ele>3105.0</ele>
        <time>2018-09-01T13:24:08Z</time>
      </trkpt>
      <trkpt lat="40.573617" lon="-5.129550">
        <ele>3105.0</ele>
        <time>2018-09-01T13:24:09Z</time>
      </trkpt>
      <trkpt lat="40.573683" lon="-5.129450">
        <ele>3106.0</ele>
        <time>2018-09-01T13:24:10Z</time>
      </trkpt>
      <trkpt lat="40.573767" lon="-5.129333">
        <ele>3106.0</ele>
        <time>2018-09-01T13:24:11Z</time>
      </trkpt>
      <trkpt lat="40.573850" lon="-5.129217">
        <ele>3105.0</ele>
        <time>2018-09-01T13:24:12Z</time>
      </trkpt>
      <trkpt lat="40.573933" lon="-5.129117">
        <ele>3105.0</ele>
        <time>2018-09-01T13:24:13Z</time>
      </trkpt>
      <trkpt lat="40.574033" lon="-5.129017">
        <ele>3106.0</ele>
        <time>2018-09-01T13:24:14Z</time>
      </trkpt>
      <trkpt lat="40.574117" lon="-5.128933">
        <ele>3108.0</ele>
        <time>2018-09-01T13:24:15Z</time>
      </trkpt>
      <trkpt lat="40.574167" lon="-5.128867">
        <ele>3109.0</ele>
        <time>2018-09-01T13:24:16Z</time>
      </trkpt>
      <trkpt lat="40.574217" lon="-5.128783">
        <ele>3108.0</ele>
        <time>2018-09-01T13:24:17Z</time>
      </trkpt>
      <trkpt lat="40.574250" lon="-5.128717">
        <ele>3106.0</ele>
        <time>2018-09-01T13:24:18Z</time>
      </trkpt>
      <trkpt lat="40.574300" lon="-5.128617">
        <ele>3103.0</ele>
        <time>2018-09-01T13:24:19Z</time>
      </trkpt>
      <trkpt lat="40.574367" lon="-5.128517">
        <ele>3099.0</ele>
        <time>2018-09-01T13:24:20Z</time>
      </trkpt>
      <trkpt lat="40.574450" lon="-5.128417">
        <ele>3096.0</ele>
        <time>2018-09-01T13:24:21Z</time>
      </trkpt>
      <trkpt lat="40.574517" lon="-5.128317">
        <ele>3094.0</ele>
        <time>2018-09-01T13:24:22Z</time>
      </trkpt>
      <trkpt lat="40.574583" lon="-5.128217">
        <ele>3093.0</ele>
        <time>2018-09-01T13:24:23Z</time>
      </trkpt>
      <trkpt lat="40.574633" lon="-5.128100">
        <ele>3091.0</ele>
        <time>2018-09-01T13:24:24Z</time>
      </trkpt>
      <trkpt lat="40.574683" lon="-5.128000">
        <ele>3089.0</ele>
        <time>2018-09-01T13:24:25Z</time>
      </trkpt>
      <trkpt lat="40.574733" lon="-5.127883">
        <ele>3087.0</ele>
        <time>2018-09-01T13:24:26Z</time>
      </trkpt>
      <trkpt lat="40.574800" lon="-5.127767">
        <ele>3085.0</ele>
        <time>2018-09-01T13:24:27Z</time>
      </trkpt>
      <trkpt lat="40.574867" lon="-5.127650">
        <ele>3084.0</ele>
        <time>2018-09-01T13:24:28Z</time>
      </trkpt>
      <trkpt lat="40.574917" lon="-5.127550">
        <ele>3083.0</ele>
        <time>2018-09-01T13:24:29Z</time>
      </trkpt>
      <trkpt lat="40.574967" lon="-5.127450">
        <ele>3083.0</ele>
        <time>2018-09-01T13:24:30Z</time>
      </trkpt>
      <trkpt lat="40.575017" lon="-5.127367">
        <ele>3082.0</ele>
        <time>2018-09-01T13:24:31Z</time>
      </trkpt>
      <trkpt lat="40.575083" lon="-5.127267">
        <ele>3080.0</ele>
        <time>2018-09-01T13:24:32Z</time>
      </trkpt>
      <trkpt lat="40.575150" lon="-5.127167">
        <ele>3077.0</ele>
        <time>2018-09-01T13:24:33Z</time>
      </trkpt>
      <trkpt lat="40.575200" lon="-5.127050">
        <ele>3075.0</ele>
        <time>2018-09-01T13:24:34Z</time>
      </trkpt>
      <trkpt lat="40.575267" lon="-5.126933">
        <ele>3074.0</ele>
        <time>2018-09-01T13:24:35Z</time>
      </trkpt>
      <trkpt lat="40.575317" lon="-5.126817">
        <ele>3073.0</ele>
        <time>2018-09-01T13:24:36Z</time>
      </trkpt>
      <trkpt lat="40.575367" lon="-5.126717">
        <ele>3072.0</ele>
        <time>2018-09-01T13:24:37Z</time>
      </trkpt>
      <trkpt lat="40.575417" lon="-5.126617">
        <ele>3072.0</ele>
        <time>2018-09-01T13:24:38Z</time>
      </trkpt>
      <trkpt lat="40.575467" lon="-5.126500">
        <ele>3071.0</ele>
        <time>2018-09-01T13:24:39Z</time>
      </trkpt>
      <trkpt lat="40.575517" lon="-5.126400">
        <ele>3069.0</ele>
        <time>2018-09-01T13:24:40Z</time>
      </trkpt>
      <trkpt lat="40.575583" lon="-5.126300">
        <ele>3066.0</ele>
        <time>2018-09-01T13:24:41Z</time>
      </trkpt>
      <trkpt lat="40.575650" lon="-5.126183">
        <ele>3063.0</ele>
        <time>2018-09-01T13:24:42Z</time>
      </trkpt>
      <trkpt lat="40.575733" lon="-5.126083">
        <ele>3060.0</ele>
        <time>2018-09-01T13:24:43Z</time>
      </trkpt>
      <trkpt lat="40.575817" lon="-5.125983">
        <ele>3057.0</ele>
        <time>2018-09-01T13:24:44Z</time>
      </trkpt>
      <trkpt lat="40.575917" lon="-5.125900">
        <ele>3055.0</ele>
        <time>2018-09-01T13:24:45Z</time>
      </trkpt>
      <trkpt lat="40.576017" lon="-5.125817">
        <ele>3052.0</ele>
        <time>2018-09-01T13:24:46Z</time>
      </trkpt>
      <trkpt lat="40.576117" lon="-5.125733">
        <ele>3049.0</ele>
        <time>2018-09-01T13:24:47Z</time>
      </trkpt>
      <trkpt lat="40.576217" lon="-5.125650">
        <ele>3046.0</ele>
        <time>2018-09-01T13:24:48Z</time>
      </trkpt>
      <trkpt lat="40.576317" lon="-5.125550">
        <ele>3044.0</ele>
        <time>2018-09-01T13:24:49Z</time>
      </trkpt>
      <trkpt lat="40.576417" lon="-5.125450">
        <ele>3042.0</ele>
        <time>2018-09-01T13:24:50Z</time>
      </trkpt>
      <trkpt lat="40.576500" lon="-5.125350">
        <ele>3042.0</ele>
        <time>2018-09-01T13:24:51Z</time>
      </trkpt>
      <trkpt lat="40.576583" lon="-5.125250">
        <ele>3042.0</ele>
        <time>2018-09-01T13:24:52Z</time>
      </trkpt>
      <trkpt lat="40.576667" lon="-5.125150">
        <ele>3042.0</ele>
        <time>2018-09-01T13:24:53Z</time>
      </trkpt>
      <trkpt lat="40.576733" lon="-5.125050">
        <ele>3042.0</ele>
        <time>2018-09-01T13:24:54Z</time>
      </trkpt>
      <trkpt lat="40.576783" lon="-5.124933">
        <ele>3042.0</ele>
        <time>2018-09-01T13:24:55Z</time>
      </trkpt>
      <trkpt lat="40.576850" lon="-5.124817">
        <ele>3040.0</ele>
        <time>2018-09-01T13:24:56Z</time>
      </trkpt>
      <trkpt lat="40.576883" lon="-5.124700">
        <ele>3039.0</ele>
        <time>2018-09-01T13:24:57Z</time>
      </trkpt>
      <trkpt lat="40.576933" lon="-5.124567">
        <ele>3037.0</ele>
        <time>2018-09-01T13:24:58Z</time>
      </trkpt>
      <trkpt lat="40.576983" lon="-5.124450">
        <ele>3035.0</ele>
        <time>2018-09-01T13:24:59Z</time>
      </trkpt>
      <trkpt lat="40.577017" lon="-5.124317">
        <ele>3033.0</ele>
        <time>2018-09-01T13:25:00Z</time>
      </trkpt>
      <trkpt lat="40.577050" lon="-5.124167">
        <ele>3031.0</ele>
        <time>2018-09-01T13:25:01Z</time>
      </trkpt>
      <trkpt lat="40.577083" lon="-5.124033">
        <ele>3029.0</ele>
        <time>2018-09-01T13:25:02Z</time>
      </trkpt>
      <trkpt lat="40.577117" lon="-5.123883">
        <ele>3027.0</ele>
        <time>2018-09-01T13:25:03Z</time>
      </trkpt>
      <trkpt lat="40.577133" lon="-5.123750">
        <ele>3026.0</ele>
        <time>2018-09-01T13:25:04Z</time>
      </trkpt>
      <trkpt lat="40.577183" lon="-5.123633">
        <ele>3026.0</ele>
        <time>2018-09-01T13:25:05Z</time>
      </trkpt>
      <trkpt lat="40.577233" lon="-5.123517">
        <ele>3025.0</ele>
        <time>2018-09-01T13:25:06Z</time>
      </trkpt>
      <trkpt lat="40.577300" lon="-5.123400">
        <ele>3025.0</ele>
        <time>2018-09-01T13:25:07Z</time>
      </trkpt>
      <trkpt lat="40.577383" lon="-5.123300">
        <ele>3025.0</ele>
        <time>2018-09-01T13:25:08Z</time>
      </trkpt>
      <trkpt lat="40.577450" lon="-5.123200">
        <ele>3024.0</ele>
        <time>2018-09-01T13:25:09Z</time>
      </trkpt>
      <trkpt lat="40.577517" lon="-5.123083">
        <ele>3024.0</ele>
        <time>2018-09-01T13:25:10Z</time>
      </trkpt>
      <trkpt lat="40.577567" lon="-5.122950">
        <ele>3024.0</ele>
        <time>2018-09-01T13:25:11Z</time>
      </trkpt>
      <trkpt lat="40.577633" lon="-5.122800">
        <ele>3024.0</ele>
        <time>2018-09-01T13:25:12Z</time>
      </trkpt>
      <trkpt lat="40.577683" lon="-5.122667">
        <ele>3025.0</ele>
        <time>2018-09-01T13:25:13Z</time>
      </trkpt>
      <trkpt lat="40.577750" lon="-5.122517">
        <ele>3026.0</ele>
        <time>2018-09-01T13:25:14Z</time>
      </trkpt>
      <trkpt lat="40.577817" lon="-5.122383">
        <ele>3027.0</ele>
        <time>2018-09-01T13:25:15Z</time>
      </trkpt>
      <trkpt lat="40.577867" lon="-5.122250">
        <ele>3029.0</ele>
        <time>2018-09-01T13:25:16Z</time>
      </trkpt>
      <trkpt lat="40.577917" lon="-5.122117">
        <ele>3029.0</ele>
        <time>2018-09-01T13:25:17Z</time>
      </trkpt>
      <trkpt lat="40.577967" lon="-5.122000">
        <ele>3029.0</ele>
        <time>2018-09-01T13:25:18Z</time>
      </trkpt>
      <trkpt lat="40.578017" lon="-5.121883">
        <ele>3028.0</ele>
        <time>2018-09-01T13:25:19Z</time>
      </trkpt>
      <trkpt lat="40.578067" lon="-5.121767">
        <ele>3026.0</ele>
        <time>2018-09-01T13:25:20Z</time>
      </trkpt>
      <trkpt lat="40.578117" lon="-5.121633">
        <ele>3024.0</ele>
        <time>2018-09-01T13:25:21Z</time>
      </trkpt>
      <trkpt lat="40.578167" lon="-5.121517">
        <ele>3022.0</ele>
        <time>2018-09-01T13:25:22Z</time>
      </trkpt>
      <trkpt lat="40.578233" lon="-5.121383">
        <ele>3019.0</ele>
        <time>2018-09-01T13:25:23Z</time>
      </trkpt>
      <trkpt lat="40.578283" lon="-5.121267">
        <ele>3017.0</ele>
        <time>2018-09-01T13:25:24Z</time>
      </trkpt>
      <trkpt lat="40.578350" lon="-5.121133">
        <ele>3015.0</ele>
        <time>2018-09-01T13:25:25Z</time>
      </trkpt>
      <trkpt lat="40.578383" lon="-5.121000">
        <ele>3013.0</ele>
        <time>2018-09-01T13:25:26Z</time>
      </trkpt>
      <trkpt lat="40.578400" lon="-5.120867">
        <ele>3011.0</ele>
        <time>2018-09-01T13:25:27Z</time>
      </trkpt>
      <trkpt lat="40.578417" lon="-5.120733">
        <ele>3008.0</ele>
        <time>2018-09-01T13:25:28Z</time>
      </trkpt>
      <trkpt lat="40.578433" lon="-5.120617">
        <ele>3005.0</ele>
        <time>2018-09-01T13:25:29Z</time>
      </trkpt>
      <trkpt lat="40.578450" lon="-5.120483">
        <ele>3003.0</ele>
        <time>2018-09-01T13:25:30Z</time>
      </trkpt>
      <trkpt lat="40.578500" lon="-5.120333">
        <ele>3002.0</ele>
        <time>2018-09-01T13:25:31Z</time>
      </trkpt>
      <trkpt lat="40.578550" lon="-5.120200">
        <ele>3002.0</ele>
        <time>2018-09-01T13:25:32Z</time>
      </trkpt>
      <trkpt lat="40.578617" lon="-5.120067">
        <ele>3002.0</ele>
        <time>2018-09-01T13:25:33Z</time>
      </trkpt>
      <trkpt lat="40.578683" lon="-5.119950">
        <ele>3003.0</ele>
        <time>2018-09-01T13:25:34Z</time>
      </trkpt>
      <trkpt lat="40.578733" lon="-5.119817">
        <ele>3002.0</ele>
        <time>2018-09-01T13:25:35Z</time>
      </trkpt>
      <trkpt lat="40.578767" lon="-5.119667">
        <ele>3002.0</ele>
        <time>2018-09-01T13:25:36Z</time>
      </trkpt>
      <trkpt lat="40.578800" lon="-5.119533">
        <ele>3003.0</ele>
        <time>2018-09-01T13:25:37Z</time>
      </trkpt>
      <trkpt lat="40.578833" lon="-5.119400">
        <ele>3003.0</ele>
        <time>2018-09-01T13:25:38Z</time>
      </trkpt>
      <trkpt lat="40.578867" lon="-5.119267">
        <ele>3004.0</ele>
        <time>2018-09-01T13:25:39Z</time>
      </trkpt>
      <trkpt lat="40.578917" lon="-5.119133">
        <ele>3006.0</ele>
        <time>2018-09-01T13:25:40Z</time>
      </trkpt>
      <trkpt lat="40.578967" lon="-5.119000">
        <ele>3008.0</ele>
        <time>2018-09-01T13:25:41Z</time>
      </trkpt>
      <trkpt lat="40.579000" lon="-5.118883">
        <ele>3010.0</ele>
        <time>2018-09-01T13:25:42Z</time>
      </trkpt>
      <trkpt lat="40.579017" lon="-5.118783">
        <ele>3012.0</ele>
        <time>2018-09-01T13:25:43Z</time>
      </trkpt>
      <trkpt lat="40.579050" lon="-5.118667">
        <ele>3013.0</ele>
        <time>2018-09-01T13:25:44Z</time>
      </trkpt>
      <trkpt lat="40.579100" lon="-5.118567">
        <ele>3014.0</ele>
        <time>2018-09-01T13:25:45Z</time>
      </trkpt>
      <trkpt lat="40.579133" lon="-5.118450">
        <ele>3015.0</ele>
        <time>2018-09-01T13:25:46Z</time>
      </trkpt>
      <trkpt lat="40.579183" lon="-5.118350">
        <ele>3016.0</ele>
        <time>2018-09-01T13:25:47Z</time>
      </trkpt>
      <trkpt lat="40.579217" lon="-5.118233">
        <ele>3018.0</ele>
        <time>2018-09-01T13:25:48Z</time>
      </trkpt>
      <trkpt lat="40.579250" lon="-5.118117">
        <ele>3020.0</ele>
        <time>2018-09-01T13:25:49Z</time>
      </trkpt>
      <trkpt lat="40.579267" lon="-5.118000">
        <ele>3023.0</ele>
        <time>2018-09-01T13:25:50Z</time>
      </trkpt>
      <trkpt lat="40.579283" lon="-5.117900">
        <ele>3025.0</ele>
        <time>2018-09-01T13:25:51Z</time>
      </trkpt>
      <trkpt lat="40.579300" lon="-5.117800">
        <ele>3025.0</ele>
        <time>2018-09-01T13:25:52Z</time>
      </trkpt>
      <trkpt lat="40.579317" lon="-5.117700">
        <ele>3025.0</ele>
        <time>2018-09-01T13:25:53Z</time>
      </trkpt>
      <trkpt lat="40.579350" lon="-5.117583">
        <ele>3024.0</ele>
        <time>2018-09-01T13:25:54Z</time>
      </trkpt>
      <trkpt lat="40.579383" lon="-5.117433">
        <ele>3024.0</ele>
        <time>2018-09-01T13:25:55Z</time>
      </trkpt>
      <trkpt lat="40.579417" lon="-5.117283">
        <ele>3025.0</ele>
        <time>2018-09-01T13:25:56Z</time>
      </trkpt>
      <trkpt lat="40.579433" lon="-5.117150">
        <ele>3028.0</ele>
        <time>2018-09-01T13:25:57Z</time>
      </trkpt>
      <trkpt lat="40.579433" lon="-5.117000">
        <ele>3032.0</ele>
        <time>2018-09-01T13:25:58Z</time>
      </trkpt>
      <trkpt lat="40.579417" lon="-5.116883">
        <ele>3036.0</ele>
        <time>2018-09-01T13:25:59Z</time>
      </trkpt>
      <trkpt lat="40.579400" lon="-5.116767">
        <ele>3039.0</ele>
        <time>2018-09-01T13:26:00Z</time>
      </trkpt>
      <trkpt lat="40.579400" lon="-5.116650">
        <ele>3042.0</ele>
        <time>2018-09-01T13:26:01Z</time>
      </trkpt>
      <trkpt lat="40.579400" lon="-5.116517">
        <ele>3045.0</ele>
        <time>2018-09-01T13:26:02Z</time>
      </trkpt>
      <trkpt lat="40.579433" lon="-5.116400">
        <ele>3048.0</ele>
        <time>2018-09-01T13:26:03Z</time>
      </trkpt>
      <trkpt lat="40.579467" lon="-5.116267">
        <ele>3051.0</ele>
        <time>2018-09-01T13:26:04Z</time>
      </trkpt>
      <trkpt lat="40.579500" lon="-5.116150">
        <ele>3055.0</ele>
        <time>2018-09-01T13:26:05Z</time>
      </trkpt>
      <trkpt lat="40.579517" lon="-5.116033">
        <ele>3059.0</ele>
        <time>2018-09-01T13:26:06Z</time>
      </trkpt>
      <trkpt lat="40.579550" lon="-5.115917">
        <ele>3063.0</ele>
        <time>2018-09-01T13:26:07Z</time>
      </trkpt>
      <trkpt lat="40.579583" lon="-5.115800">
        <ele>3067.0</ele>
        <time>2018-09-01T13:26:08Z</time>
      </trkpt>
      <trkpt lat="40.579617" lon="-5.115683">
        <ele>3070.0</ele>
        <time>2018-09-01T13:26:09Z</time>
      </trkpt>
      <trkpt lat="40.579633" lon="-5.115533">
        <ele>3072.0</ele>
        <time>2018-09-01T13:26:10Z</time>
      </trkpt>
      <trkpt lat="40.579650" lon="-5.115383">
        <ele>3075.0</ele>
        <time>2018-09-01T13:26:11Z</time>
      </trkpt>
      <trkpt lat="40.579683" lon="-5.115250">
        <ele>3078.0</ele>
        <time>2018-09-01T13:26:12Z</time>
      </trkpt>
      <trkpt lat="40.579733" lon="-5.115133">
        <ele>3082.0</ele>
        <time>2018-09-01T13:26:13Z</time>
      </trkpt>
      <trkpt lat="40.579767" lon="-5.115050">
        <ele>3085.0</ele>
        <time>2018-09-01T13:26:14Z</time>
      </trkpt>
      <trkpt lat="40.579800" lon="-5.114967">
        <ele>3087.0</ele>
        <time>2018-09-01T13:26:15Z</time>
      </trkpt>
      <trkpt lat="40.579817" lon="-5.114867">
        <ele>3088.0</ele>
        <time>2018-09-01T13:26:16Z</time>
      </trkpt>
      <trkpt lat="40.579833" lon="-5.114733">
        <ele>3088.0</ele>
        <time>2018-09-01T13:26:17Z</time>
      </trkpt>
      <trkpt lat="40.579833" lon="-5.114583">
        <ele>3088.0</ele>
        <time>2018-09-01T13:26:18Z</time>
      </trkpt>
      <trkpt lat="40.579817" lon="-5.114450">
        <ele>3089.0</ele>
        <time>2018-09-01T13:26:19Z</time>
      </trkpt>
      <trkpt lat="40.579783" lon="-5.114317">
        <ele>3092.0</ele>
        <time>2018-09-01T13:26:20Z</time>
      </trkpt>
      <trkpt lat="40.579733" lon="-5.114183">
        <ele>3093.0</ele>
        <time>2018-09-01T13:26:21Z</time>
      </trkpt>
      <trkpt lat="40.579667" lon="-5.114083">
        <ele>3094.0</ele>
        <time>2018-09-01T13:26:22Z</time>
      </trkpt>
      <trkpt lat="40.579583" lon="-5.113967">
        <ele>3094.0</ele>
        <time>2018-09-01T13:26:23Z</time>
      </trkpt>
      <trkpt lat="40.579483" lon="-5.113883">
        <ele>3093.0</ele>
        <time>2018-09-01T13:26:24Z</time>
      </trkpt>
      <trkpt lat="40.579367" lon="-5.113800">
        <ele>3093.0</ele>
        <time>2018-09-01T13:26:25Z</time>
      </trkpt>
      <trkpt lat="40.579250" lon="-5.113733">
        <ele>3094.0</ele>
        <time>2018-09-01T13:26:26Z</time>
      </trkpt>
      <trkpt lat="40.579133" lon="-5.113700">
        <ele>3095.0</ele>
        <time>2018-09-01T13:26:27Z</time>
      </trkpt>
      <trkpt lat="40.579017" lon="-5.113700">
        <ele>3096.0</ele>
        <time>2018-09-01T13:26:28Z</time>
      </trkpt>
      <trkpt lat="40.578917" lon="-5.113733">
        <ele>3096.0</ele>
        <time>2018-09-01T13:26:29Z</time>
      </trkpt>
      <trkpt lat="40.578783" lon="-5.113767">
        <ele>3097.0</ele>
        <time>2018-09-01T13:26:30Z</time>
      </trkpt>
      <trkpt lat="40.578667" lon="-5.113800">
        <ele>3099.0</ele>
        <time>2018-09-01T13:26:31Z</time>
      </trkpt>
      <trkpt lat="40.578567" lon="-5.113833">
        <ele>3102.0</ele>
        <time>2018-09-01T13:26:32Z</time>
      </trkpt>
      <trkpt lat="40.578467" lon="-5.113883">
        <ele>3105.0</ele>
        <time>2018-09-01T13:26:33Z</time>
      </trkpt>
      <trkpt lat="40.578383" lon="-5.113967">
        <ele>3107.0</ele>
        <time>2018-09-01T13:26:34Z</time>
      </trkpt>
      <trkpt lat="40.578300" lon="-5.114050">
        <ele>3108.0</ele>
        <time>2018-09-01T13:26:35Z</time>
      </trkpt>
      <trkpt lat="40.578233" lon="-5.114133">
        <ele>3110.0</ele>
        <time>2018-09-01T13:26:36Z</time>
      </trkpt>
      <trkpt lat="40.578167" lon="-5.114217">
        <ele>3112.0</ele>
        <time>2018-09-01T13:26:37Z</time>
      </trkpt>
      <trkpt lat="40.578100" lon="-5.114300">
        <ele>3113.0</ele>
        <time>2018-09-01T13:26:38Z</time>
      </trkpt>
      <trkpt lat="40.578050" lon="-5.114417">
        <ele>3113.0</ele>
        <time>2018-09-01T13:26:39Z</time>
      </trkpt>
      <trkpt lat="40.578017" lon="-5.114533">
        <ele>3113.0</ele>
        <time>2018-09-01T13:26:40Z</time>
      </trkpt>
      <trkpt lat="40.577983" lon="-5.114667">
        <ele>3113.0</ele>
        <time>2018-09-01T13:26:41Z</time>
      </trkpt>
      <trkpt lat="40.577967" lon="-5.114800">
        <ele>3114.0</ele>
        <time>2018-09-01T13:26:42Z</time>
      </trkpt>
      <trkpt lat="40.577950" lon="-5.114933">
        <ele>3115.0</ele>
        <time>2018-09-01T13:26:43Z</time>
      </trkpt>
      <trkpt lat="40.577933" lon="-5.115050">
        <ele>3116.0</ele>
        <time>2018-09-01T13:26:44Z</time>
      </trkpt>
      <trkpt lat="40.577933" lon="-5.115167">
        <ele>3116.0</ele>
        <time>2018-09-01T13:26:45Z</time>
      </trkpt>
      <trkpt lat="40.577967" lon="-5.115283">
        <ele>3116.0</ele>
        <time>2018-09-01T13:26:46Z</time>
      </trkpt>
      <trkpt lat="40.578017" lon="-5.115400">
        <ele>3117.0</ele>
        <time>2018-09-01T13:26:47Z</time>
      </trkpt>
      <trkpt lat="40.578083" lon="-5.115500">
        <ele>3118.0</ele>
        <time>2018-09-01T13:26:48Z</time>
      </trkpt>
      <trkpt lat="40.578167" lon="-5.115567">
        <ele>3121.0</ele>
        <time>2018-09-01T13:26:49Z</time>
      </trkpt>
      <trkpt lat="40.578250" lon="-5.115617">
        <ele>3126.0</ele>
        <time>2018-09-01T13:26:50Z</time>
      </trkpt>
      <trkpt lat="40.578317" lon="-5.115667">
        <ele>3132.0</ele>
        <time>2018-09-01T13:26:51Z</time>
      </trkpt>
      <trkpt lat="40.578367" lon="-5.115683">
        <ele>3138.0</ele>
        <time>2018-09-01T13:26:52Z</time>
      </trkpt>
      <trkpt lat="40.578433" lon="-5.115717">
        <ele>3142.0</ele>
        <time>2018-09-01T13:26:53Z</time>
      </trkpt>
      <trkpt lat="40.578483" lon="-5.115750">
        <ele>3145.0</ele>
        <time>2018-09-01T13:26:54Z</time>
      </trkpt>
      <trkpt lat="40.578533" lon="-5.115800">
        <ele>3147.0</ele>
        <time>2018-09-01T13:26:55Z</time>
      </trkpt>
      <trkpt lat="40.578600" lon="-5.115850">
        <ele>3149.0</ele>
        <time>2018-09-01T13:26:56Z</time>
      </trkpt>
      <trkpt lat="40.578667" lon="-5.115900">
        <ele>3150.0</ele>
        <time>2018-09-01T13:26:57Z</time>
      </trkpt>
      <trkpt lat="40.578733" lon="-5.115950">
        <ele>3150.0</ele>
        <time>2018-09-01T13:26:58Z</time>
      </trkpt>
      <trkpt lat="40.578800" lon="-5.115967">
        <ele>3151.0</ele>
        <time>2018-09-01T13:26:59Z</time>
      </trkpt>
      <trkpt lat="40.578883" lon="-5.115950">
        <ele>3152.0</ele>
        <time>2018-09-01T13:27:00Z</time>
      </trkpt>
      <trkpt lat="40.578950" lon="-5.115883">
        <ele>3153.0</ele>
        <time>2018-09-01T13:27:01Z</time>
      </trkpt>
      <trkpt lat="40.579017" lon="-5.115800">
        <ele>3153.0</ele>
        <time>2018-09-01T13:27:02Z</time>
      </trkpt>
      <trkpt lat="40.579067" lon="-5.115667">
        <ele>3153.0</ele>
        <time>2018-09-01T13:27:03Z</time>
      </trkpt>
      <trkpt lat="40.579083" lon="-5.115517">
        <ele>3155.0</ele>
        <time>2018-09-01T13:27:04Z</time>
      </trkpt>
      <trkpt lat="40.579083" lon="-5.115367">
        <ele>3156.0</ele>
        <time>2018-09-01T13:27:05Z</time>
      </trkpt>
      <trkpt lat="40.579067" lon="-5.115233">
        <ele>3158.0</ele>
        <time>2018-09-01T13:27:06Z</time>
      </trkpt>
      <trkpt lat="40.579033" lon="-5.115083">
        <ele>3161.0</ele>
        <time>2018-09-01T13:27:07Z</time>
      </trkpt>
      <trkpt lat="40.578983" lon="-5.114967">
        <ele>3163.0</ele>
        <time>2018-09-01T13:27:08Z</time>
      </trkpt>
      <trkpt lat="40.578933" lon="-5.114850">
        <ele>3165.0</ele>
        <time>2018-09-01T13:27:09Z</time>
      </trkpt>
      <trkpt lat="40.578867" lon="-5.114750">
        <ele>3167.0</ele>
        <time>2018-09-01T13:27:10Z</time>
      </trkpt>
      <trkpt lat="40.578783" lon="-5.114650">
        <ele>3169.0</ele>
        <time>2018-09-01T13:27:11Z</time>
      </trkpt>
      <trkpt lat="40.578683" lon="-5.114583">
        <ele>3169.0</ele>
        <time>2018-09-01T13:27:12Z</time>
      </trkpt>
      <trkpt lat="40.578567" lon="-5.114517">
        <ele>3170.0</ele>
        <time>2018-09-01T13:27:13Z</time>
      </trkpt>
      <trkpt lat="40.578450" lon="-5.114483">
        <ele>3172.0</ele>
        <time>2018-09-01T13:27:14Z</time>
      </trkpt>
      <trkpt lat="40.578317" lon="-5.114467">
        <ele>3175.0</ele>
        <time>2018-09-01T13:27:15Z</time>
      </trkpt>
      <trkpt lat="40.578217" lon="-5.114483">
        <ele>3178.0</ele>
        <time>2018-09-01T13:27:16Z</time>
      </trkpt>
      <trkpt lat="40.578133" lon="-5.114517">
        <ele>3181.0</ele>
        <time>2018-09-01T13:27:17Z</time>
      </trkpt>
      <trkpt lat="40.578050" lon="-5.114583">
        <ele>3184.0</ele>
        <time>2018-09-01T13:27:18Z</time>
      </trkpt>
      <trkpt lat="40.577983" lon="-5.114667">
        <ele>3185.0</ele>
        <time>2018-09-01T13:27:19Z</time>
      </trkpt>
      <trkpt lat="40.577950" lon="-5.114767">
        <ele>3186.0</ele>
        <time>2018-09-01T13:27:20Z</time>
      </trkpt>
      <trkpt lat="40.577933" lon="-5.114900">
        <ele>3186.0</ele>
        <time>2018-09-01T13:27:21Z</time>
      </trkpt>
      <trkpt lat="40.577933" lon="-5.115033">
        <ele>3187.0</ele>
        <time>2018-09-01T13:27:22Z</time>
      </trkpt>
      <trkpt lat="40.577950" lon="-5.115167">
        <ele>3190.0</ele>
        <time>2018-09-01T13:27:23Z</time>
      </trkpt>
      <trkpt lat="40.577983" lon="-5.115267">
        <ele>3194.0</ele>
        <time>2018-09-01T13:27:24Z</time>
      </trkpt>
      <trkpt lat="40.578017" lon="-5.115367">
        <ele>3199.0</ele>
        <time>2018-09-01T13:27:25Z</time>
      </trkpt>
      <trkpt lat="40.578050" lon="-5.115433">
        <ele>3203.0</ele>
        <time>2018-09-01T13:27:26Z</time>
      </trkpt>
      <trkpt lat="40.578100" lon="-5.115517">
        <ele>3207.0</ele>
        <time>2018-09-01T13:27:27Z</time>
      </trkpt>
      <trkpt lat="40.578133" lon="-5.115583">
        <ele>3210.0</ele>
        <time>2018-09-01T13:27:28Z</time>
      </trkpt>
      <trkpt lat="40.578150" lon="-5.115667">
        <ele>3211.0</ele>
        <time>2018-09-01T13:27:29Z</time>
      </trkpt>
      <trkpt lat="40.578150" lon="-5.115767">
        <ele>3212.0</ele>
        <time>2018-09-01T13:27:30Z</time>
      </trkpt>
      <trkpt lat="40.578183" lon="-5.115850">
        <ele>3212.0</ele>
        <time>2018-09-01T13:27:31Z</time>
      </trkpt>
      <trkpt lat="40.578233" lon="-5.115933">
        <ele>3212.0</ele>
        <time>2018-09-01T13:27:32Z</time>
      </trkpt>
      <trkpt lat="40.578317" lon="-5.115967">
        <ele>3213.0</ele>
        <time>2018-09-01T13:27:33Z</time>
      </trkpt>
      <trkpt lat="40.578400" lon="-5.115967">
        <ele>3213.0</ele>
        <time>2018-09-01T13:27:34Z</time>
      </trkpt>
      <trkpt lat="40.578483" lon="-5.115950">
        <ele>3215.0</ele>
        <time>2018-09-01T13:27:35Z</time>
      </trkpt>
      <trkpt lat="40.578567" lon="-5.115917">
        <ele>3216.0</ele>
        <time>2018-09-01T13:27:36Z</time>
      </trkpt>
      <trkpt lat="40.578633" lon="-5.115867">
        <ele>3218.0</ele>
        <time>2018-09-01T13:27:37Z</time>
      </trkpt>
      <trkpt lat="40.578700" lon="-5.115817">
        <ele>3218.0</ele>
        <time>2018-09-01T13:27:38Z</time>
      </trkpt>
      <trkpt lat="40.578767" lon="-5.115750">
        <ele>3218.0</ele>
        <time>2018-09-01T13:27:39Z</time>
      </trkpt>
      <trkpt lat="40.578833" lon="-5.115683">
        <ele>3218.0</ele>
        <time>2018-09-01T13:27:40Z</time>
      </trkpt>
      <trkpt lat="40.578900" lon="-5.115617">
        <ele>3218.0</ele>
        <time>2018-09-01T13:27:41Z</time>
      </trkpt>
      <trkpt lat="40.578983" lon="-5.115533">
        <ele>3218.0</ele>
        <time>2018-09-01T13:27:42Z</time>
      </trkpt>
      <trkpt lat="40.579050" lon="-5.115467">
        <ele>3218.0</ele>
        <time>2018-09-01T13:27:43Z</time>
      </trkpt>
      <trkpt lat="40.579117" lon="-5.115383">
        <ele>3219.0</ele>
        <time>2018-09-01T13:27:44Z</time>
      </trkpt>
      <trkpt lat="40.579167" lon="-5.115300">
        <ele>3219.0</ele>
        <time>2018-09-01T13:27:45Z</time>
      </trkpt>
      <trkpt lat="40.579217" lon="-5.115200">
        <ele>3219.0</ele>
        <time>2018-09-01T13:27:46Z</time>
      </trkpt>
      <trkpt lat="40.579283" lon="-5.115117">
        <ele>3218.0</ele>
        <time>2018-09-01T13:27:47Z</time>
      </trkpt>
      <trkpt lat="40.579333" lon="-5.115017">
        <ele>3218.0</ele>
        <time>2018-09-01T13:27:48Z</time>
      </trkpt>
      <trkpt lat="40.579400" lon="-5.114917">
        <ele>3218.0</ele>
        <time>2018-09-01T13:27:49Z</time>
      </trkpt>
      <trkpt lat="40.579450" lon="-5.114800">
        <ele>3218.0</ele>
        <time>2018-09-01T13:27:50Z</time>
      </trkpt>
      <trkpt lat="40.579500" lon="-5.114683">
        <ele>3219.0</ele>
        <time>2018-09-01T13:27:51Z</time>
      </trkpt>
      <trkpt lat="40.579533" lon="-5.114550">
        <ele>3220.0</ele>
        <time>2018-09-01T13:27:52Z</time>
      </trkpt>
      <trkpt lat="40.579550" lon="-5.114400">
        <ele>3221.0</ele>
        <time>2018-09-01T13:27:53Z</time>
      </trkpt>
      <trkpt lat="40.579567" lon="-5.114250">
        <ele>3221.0</ele>
        <time>2018-09-01T13:27:54Z</time>
      </trkpt>
      <trkpt lat="40.579567" lon="-5.114100">
        <ele>3223.0</ele>
        <time>2018-09-01T13:27:55Z</time>
      </trkpt>
      <trkpt lat="40.579567" lon="-5.113950">
        <ele>3224.0</ele>
        <time>2018-09-01T13:27:56Z</time>
      </trkpt>
      <trkpt lat="40.579550" lon="-5.113817">
        <ele>3226.0</ele>
        <time>2018-09-01T13:27:57Z</time>
      </trkpt>
      <trkpt lat="40.579500" lon="-5.113683">
        <ele>3228.0</ele>
        <time>2018-09-01T13:27:58Z</time>
      </trkpt>
      <trkpt lat="40.579433" lon="-5.113550">
        <ele>3229.0</ele>
        <time>2018-09-01T13:27:59Z</time>
      </trkpt>
      <trkpt lat="40.579350" lon="-5.113450">
        <ele>3231.0</ele>
        <time>2018-09-01T13:28:00Z</time>
      </trkpt>
      <trkpt lat="40.579250" lon="-5.113367">
        <ele>3232.0</ele>
        <time>2018-09-01T13:28:01Z</time>
      </trkpt>
      <trkpt lat="40.579150" lon="-5.113333">
        <ele>3234.0</ele>
        <time>2018-09-01T13:28:02Z</time>
      </trkpt>
      <trkpt lat="40.579067" lon="-5.113333">
        <ele>3236.0</ele>
        <time>2018-09-01T13:28:03Z</time>
      </trkpt>
      <trkpt lat="40.578967" lon="-5.113350">
        <ele>3236.0</ele>
        <time>2018-09-01T13:28:04Z</time>
      </trkpt>
      <trkpt lat="40.578883" lon="-5.113400">
        <ele>3236.0</ele>
        <time>2018-09-01T13:28:05Z</time>
      </trkpt>
      <trkpt lat="40.578800" lon="-5.113483">
        <ele>3237.0</ele>
        <time>2018-09-01T13:28:06Z</time>
      </trkpt>
      <trkpt lat="40.578733" lon="-5.113550">
        <ele>3238.0</ele>
        <time>2018-09-01T13:28:07Z</time>
      </trkpt>
      <trkpt lat="40.578700" lon="-5.113633">
        <ele>3238.0</ele>
        <time>2018-09-01T13:28:08Z</time>
      </trkpt>
      <trkpt lat="40.578667" lon="-5.113733">
        <ele>3239.0</ele>
        <time>2018-09-01T13:28:09Z</time>
      </trkpt>
      <trkpt lat="40.578633" lon="-5.113833">
        <ele>3239.0</ele>
        <time>2018-09-01T13:28:10Z</time>
      </trkpt>
      <trkpt lat="40.578617" lon="-5.113950">
        <ele>3239.0</ele>
        <time>2018-09-01T13:28:11Z</time>
      </trkpt>
      <trkpt lat="40.578617" lon="-5.114067">
        <ele>3240.0</ele>
        <time>2018-09-01T13:28:12Z</time>
      </trkpt>
      <trkpt lat="40.578617" lon="-5.114183">
        <ele>3241.0</ele>
        <time>2018-09-01T13:28:13Z</time>
      </trkpt>
      <trkpt lat="40.578633" lon="-5.114300">
        <ele>3243.0</ele>
        <time>2018-09-01T13:28:14Z</time>
      </trkpt>
      <trkpt lat="40.578667" lon="-5.114417">
        <ele>3244.0</ele>
        <time>2018-09-01T13:28:15Z</time>
      </trkpt>
      <trkpt lat="40.578683" lon="-5.114517">
        <ele>3245.0</ele>
        <time>2018-09-01T13:28:16Z</time>
      </trkpt>
      <trkpt lat="40.578733" lon="-5.114617">
        <ele>3246.0</ele>
        <time>2018-09-01T13:28:17Z</time>
      </trkpt>
      <trkpt lat="40.578783" lon="-5.114717">
        <ele>3247.0</ele>
        <time>2018-09-01T13:28:18Z</time>
      </trkpt>
      <trkpt lat="40.578833" lon="-5.114783">
        <ele>3247.0</ele>
        <time>2018-09-01T13:28:19Z</time>
      </trkpt>
      <trkpt lat="40.578883" lon="-5.114850">
        <ele>3246.0</ele>
        <time>2018-09-01T13:28:20Z</time>
      </trkpt>
      <trkpt lat="40.578967" lon="-5.114917">
        <ele>3246.0</ele>
        <time>2018-09-01T13:28:21Z</time>
      </trkpt>
      <trkpt lat="40.579033" lon="-5.114967">
        <ele>3245.0</ele>
        <time>2018-09-01T13:28:22Z</time>
      </trkpt>
      <trkpt lat="40.579117" lon="-5.115000">
        <ele>3245.0</ele>
        <time>2018-09-01T13:28:23Z</time>
      </trkpt>
      <trkpt lat="40.579200" lon="-5.115033">
        <ele>3246.0</ele>
        <time>2018-09-01T13:28:24Z</time>
      </trkpt>
      <trkpt lat="40.579267" lon="-5.115033">
        <ele>3246.0</ele>
        <time>2018-09-01T13:28:25Z</time>
      </trkpt>
      <trkpt lat="40.579350" lon="-5.115017">
        <ele>3246.0</ele>
        <time>2018-09-01T13:28:26Z</time>
      </trkpt>
      <trkpt lat="40.579433" lon="-5.114983">
        <ele>3246.0</ele>
        <time>2018-09-01T13:28:27Z</time>
      </trkpt>
      <trkpt lat="40.579500" lon="-5.114917">
        <ele>3245.0</ele>
        <time>2018-09-01T13:28:28Z</time>
      </trkpt>
      <trkpt lat="40.579583" lon="-5.114833">
        <ele>3244.0</ele>
        <time>2018-09-01T13:28:29Z</time>
      </trkpt>
      <trkpt lat="40.579650" lon="-5.114733">
        <ele>3244.0</ele>
        <time>2018-09-01T13:28:30Z</time>
      </trkpt>
      <trkpt lat="40.579700" lon="-5.114633">
        <ele>3244.0</ele>
        <time>2018-09-01T13:28:31Z</time>
      </trkpt>
      <trkpt lat="40.579717" lon="-5.114500">
        <ele>3243.0</ele>
        <time>2018-09-01T13:28:32Z</time>
      </trkpt>
      <trkpt lat="40.579733" lon="-5.114367">
        <ele>3241.0</ele>
        <time>2018-09-01T13:28:33Z</time>
      </trkpt>
      <trkpt lat="40.579700" lon="-5.114233">
        <ele>3239.0</ele>
        <time>2018-09-01T13:28:34Z</time>
      </trkpt>
      <trkpt lat="40.579667" lon="-5.114100">
        <ele>3237.0</ele>
        <time>2018-09-01T13:28:35Z</time>
      </trkpt>
      <trkpt lat="40.579617" lon="-5.113983">
        <ele>3236.0</ele>
        <time>2018-09-01T13:28:36Z</time>
      </trkpt>
      <trkpt lat="40.579550" lon="-5.113850">
        <ele>3236.0</ele>
        <time>2018-09-01T13:28:37Z</time>
      </trkpt>
      <trkpt lat="40.579483" lon="-5.113733">
        <ele>3236.0</ele>
        <time>2018-09-01T13:28:38Z</time>
      </trkpt>
      <trkpt lat="40.579417" lon="-5.113617">
        <ele>3235.0</ele>
        <time>2018-09-01T13:28:39Z</time>
      </trkpt>
      <trkpt lat="40.579333" lon="-5.113483">
        <ele>3235.0</ele>
        <time>2018-09-01T13:28:40Z</time>
      </trkpt>
      <trkpt lat="40.579267" lon="-5.113333">
        <ele>3235.0</ele>
        <time>2018-09-01T13:28:41Z</time>
      </trkpt>
      <trkpt lat="40.579200" lon="-5.113200">
        <ele>3235.0</ele>
        <time>2018-09-01T13:28:42Z</time>
      </trkpt>
      <trkpt lat="40.579133" lon="-5.113067">
        <ele>3236.0</ele>
        <time>2018-09-01T13:28:43Z</time>
      </trkpt>
      <trkpt lat="40.579083" lon="-5.112933">
        <ele>3237.0</ele>
        <time>2018-09-01T13:28:44Z</time>
      </trkpt>
      <trkpt lat="40.579017" lon="-5.112800">
        <ele>3237.0</ele>
        <time>2018-09-01T13:28:45Z</time>
      </trkpt>
      <trkpt lat="40.578967" lon="-5.112650">
        <ele>3237.0</ele>
        <time>2018-09-01T13:28:46Z</time>
      </trkpt>
      <trkpt lat="40.578900" lon="-5.112483">
        <ele>3236.0</ele>
        <time>2018-09-01T13:28:47Z</time>
      </trkpt>
      <trkpt lat="40.578850" lon="-5.112317">
        <ele>3236.0</ele>
        <time>2018-09-01T13:28:48Z</time>
      </trkpt>
      <trkpt lat="40.578783" lon="-5.112167">
        <ele>3236.0</ele>
        <time>2018-09-01T13:28:49Z</time>
      </trkpt>
      <trkpt lat="40.578717" lon="-5.112017">
        <ele>3236.0</ele>
        <time>2018-09-01T13:28:50Z</time>
      </trkpt>
      <trkpt lat="40.578667" lon="-5.111867">
        <ele>3237.0</ele>
        <time>2018-09-01T13:28:51Z</time>
      </trkpt>
      <trkpt lat="40.578617" lon="-5.111700">
        <ele>3237.0</ele>
        <time>2018-09-01T13:28:52Z</time>
      </trkpt>
      <trkpt lat="40.578567" lon="-5.111517">
        <ele>3237.0</ele>
        <time>2018-09-01T13:28:53Z</time>
      </trkpt>
      <trkpt lat="40.578533" lon="-5.111333">
        <ele>3239.0</ele>
        <time>2018-09-01T13:28:54Z</time>
      </trkpt>
      <trkpt lat="40.578500" lon="-5.111183">
        <ele>3241.0</ele>
        <time>2018-09-01T13:28:55Z</time>
      </trkpt>
      <trkpt lat="40.578467" lon="-5.111033">
        <ele>3243.0</ele>
        <time>2018-09-01T13:28:56Z</time>
      </trkpt>
      <trkpt lat="40.578450" lon="-5.110883">
        <ele>3243.0</ele>
        <time>2018-09-01T13:28:57Z</time>
      </trkpt>
      <trkpt lat="40.578417" lon="-5.110733">
        <ele>3241.0</ele>
        <time>2018-09-01T13:28:58Z</time>
      </trkpt>
      <trkpt lat="40.578383" lon="-5.110567">
        <ele>3240.0</ele>
        <time>2018-09-01T13:28:59Z</time>
      </trkpt>
      <trkpt lat="40.578317" lon="-5.110400">
        <ele>3239.0</ele>
        <time>2018-09-01T13:29:00Z</time>
      </trkpt>
      <trkpt lat="40.578250" lon="-5.110250">
        <ele>3240.0</ele>
        <time>2018-09-01T13:29:01Z</time>
      </trkpt>
      <trkpt lat="40.578167" lon="-5.110133">
        <ele>3242.0</ele>
        <time>2018-09-01T13:29:02Z</time>
      </trkpt>
      <trkpt lat="40.578100" lon="-5.110017">
        <ele>3245.0</ele>
        <time>2018-09-01T13:29:03Z</time>
      </trkpt>
      <trkpt lat="40.578017" lon="-5.109917">
        <ele>3246.0</ele>
        <time>2018-09-01T13:29:04Z</time>
      </trkpt>
      <trkpt lat="40.577950" lon="-5.109817">
        <ele>3246.0</ele>
        <time>2018-09-01T13:29:05Z</time>
      </trkpt>
      <trkpt lat="40.577867" lon="-5.109733">
        <ele>3246.0</ele>
        <time>2018-09-01T13:29:06Z</time>
      </trkpt>
      <trkpt lat="40.577783" lon="-5.109617">
        <ele>3245.0</ele>
        <time>2018-09-01T13:29:07Z</time>
      </trkpt>
      <trkpt lat="40.577700" lon="-5.109500">
        <ele>3245.0</ele>
        <time>2018-09-01T13:29:08Z</time>
      </trkpt>
      <trkpt lat="40.577600" lon="-5.109400">
        <ele>3245.0</ele>
        <time>2018-09-01T13:29:09Z</time>
      </trkpt>
      <trkpt lat="40.577500" lon="-5.109283">
        <ele>3246.0</ele>
        <time>2018-09-01T13:29:10Z</time>
      </trkpt>
      <trkpt lat="40.577400" lon="-5.109167">
        <ele>3248.0</ele>
        <time>2018-09-01T13:29:11Z</time>
      </trkpt>
      <trkpt lat="40.577300" lon="-5.109050">
        <ele>3250.0</ele>
        <time>2018-09-01T13:29:12Z</time>
      </trkpt>
      <trkpt lat="40.577200" lon="-5.108933">
        <ele>3254.0</ele>
        <time>2018-09-01T13:29:13Z</time>
      </trkpt>
      <trkpt lat="40.577100" lon="-5.108800">
        <ele>3257.0</ele>
        <time>2018-09-01T13:29:14Z</time>
      </trkpt>
      <trkpt lat="40.577017" lon="-5.108683">
        <ele>3262.0</ele>
        <time>2018-09-01T13:29:15Z</time>
      </trkpt>
      <trkpt lat="40.576933" lon="-5.108583">
        <ele>3266.0</ele>
        <time>2018-09-01T13:29:16Z</time>
      </trkpt>
      <trkpt lat="40.576850" lon="-5.108500">
        <ele>3269.0</ele>
        <time>2018-09-01T13:29:17Z</time>
      </trkpt>
      <trkpt lat="40.576750" lon="-5.108450">
        <ele>3272.0</ele>
        <time>2018-09-01T13:29:18Z</time>
      </trkpt>
      <trkpt lat="40.576650" lon="-5.108417">
        <ele>3273.0</ele>
        <time>2018-09-01T13:29:19Z</time>
      </trkpt>
      <trkpt lat="40.576550" lon="-5.108417">
        <ele>3274.0</ele>
        <time>2018-09-01T13:29:20Z</time>
      </trkpt>
      <trkpt lat="40.576450" lon="-5.108450">
        <ele>3275.0</ele>
        <time>2018-09-01T13:29:21Z</time>
      </trkpt>
      <trkpt lat="40.576367" lon="-5.108517">
        <ele>3276.0</ele>
        <time>2018-09-01T13:29:22Z</time>
      </trkpt>
      <trkpt lat="40.576300" lon="-5.108600">
        <ele>3278.0</ele>
        <time>2018-09-01T13:29:23Z</time>
      </trkpt>
      <trkpt lat="40.576267" lon="-5.108700">
        <ele>3279.0</ele>
        <time>2018-09-01T13:29:24Z</time>
      </trkpt>
      <trkpt lat="40.576250" lon="-5.108817">
        <ele>3282.0</ele>
        <time>2018-09-01T13:29:25Z</time>
      </trkpt>
      <trkpt lat="40.576267" lon="-5.108917">
        <ele>3284.0</ele>
        <time>2018-09-01T13:29:26Z</time>
      </trkpt>
      <trkpt lat="40.576283" lon="-5.109017">
        <ele>3287.0</ele>
        <time>2018-09-01T13:29:27Z</time>
      </trkpt>
      <trkpt lat="40.576333" lon="-5.109100">
        <ele>3289.0</ele>
        <time>2018-09-01T13:29:28Z</time>
      </trkpt>
      <trkpt lat="40.576400" lon="-5.109200">
        <ele>3292.0</ele>
        <time>2018-09-01T13:29:29Z</time>
      </trkpt>
      <trkpt lat="40.576467" lon="-5.109283">
        <ele>3295.0</ele>
        <time>2018-09-01T13:29:30Z</time>
      </trkpt>
      <trkpt lat="40.576533" lon="-5.109333">
        <ele>3299.0</ele>
        <time>2018-09-01T13:29:31Z</time>
      </trkpt>
      <trkpt lat="40.576617" lon="-5.109350">
        <ele>3303.0</ele>
        <time>2018-09-01T13:29:32Z</time>
      </trkpt>
      <trkpt lat="40.576700" lon="-5.109333">
        <ele>3306.0</ele>
        <time>2018-09-01T13:29:33Z</time>
      </trkpt>
      <trkpt lat="40.576783" lon="-5.109300">
        <ele>3308.0</ele>
        <time>2018-09-01T13:29:34Z</time>
      </trkpt>
      <trkpt lat="40.576867" lon="-5.109250">
        <ele>3311.0</ele>
        <time>2018-09-01T13:29:35Z</time>
      </trkpt>
      <trkpt lat="40.576950" lon="-5.109167">
        <ele>3313.0</ele>
        <time>2018-09-01T13:29:36Z</time>
      </trkpt>
      <trkpt lat="40.577017" lon="-5.109067">
        <ele>3315.0</ele>
        <time>2018-09-01T13:29:37Z</time>
      </trkpt>
      <trkpt lat="40.577067" lon="-5.108933">
        <ele>3316.0</ele>
        <time>2018-09-01T13:29:38Z</time>
      </trkpt>
      <trkpt lat="40.577100" lon="-5.108783">
        <ele>3318.0</ele>
        <time>2018-09-01T13:29:39Z</time>
      </trkpt>
      <trkpt lat="40.577133" lon="-5.108617">
        <ele>3319.0</ele>
        <time>2018-09-01T13:29:40Z</time>
      </trkpt>
      <trkpt lat="40.577150" lon="-5.108450">
        <ele>3321.0</ele>
        <time>2018-09-01T13:29:41Z</time>
      </trkpt>
      <trkpt lat="40.577133" lon="-5.108283">
        <ele>3325.0</ele>
        <time>2018-09-01T13:29:42Z</time>
      </trkpt>
      <trkpt lat="40.577117" lon="-5.108133">
        <ele>3328.0</ele>
        <time>2018-09-01T13:29:43Z</time>
      </trkpt>
      <trkpt lat="40.577067" lon="-5.108000">
        <ele>3331.0</ele>
        <time>2018-09-01T13:29:44Z</time>
      </trkpt>
      <trkpt lat="40.577000" lon="-5.107850">
        <ele>3333.0</ele>
        <time>2018-09-01T13:29:45Z</time>
      </trkpt>
      <trkpt lat="40.576900" lon="-5.107733">
        <ele>3334.0</ele>
        <time>2018-09-01T13:29:46Z</time>
      </trkpt>
      <trkpt lat="40.576800" lon="-5.107617">
        <ele>3337.0</ele>
        <time>2018-09-01T13:29:47Z</time>
      </trkpt>
      <trkpt lat="40.576700" lon="-5.107533">
        <ele>3339.0</ele>
        <time>2018-09-01T13:29:48Z</time>
      </trkpt>
      <trkpt lat="40.576583" lon="-5.107483">
        <ele>3343.0</ele>
        <time>2018-09-01T13:29:49Z</time>
      </trkpt>
      <trkpt lat="40.576483" lon="-5.107483">
        <ele>3345.0</ele>
        <time>2018-09-01T13:29:50Z</time>
      </trkpt>
      <trkpt lat="40.576383" lon="-5.107517">
        <ele>3347.0</ele>
        <time>2018-09-01T13:29:51Z</time>
      </trkpt>
      <trkpt lat="40.576300" lon="-5.107567">
        <ele>3349.0</ele>
        <time>2018-09-01T13:29:52Z</time>
      </trkpt>
      <trkpt lat="40.576217" lon="-5.107650">
        <ele>3351.0</ele>
        <time>2018-09-01T13:29:53Z</time>
      </trkpt>
      <trkpt lat="40.576167" lon="-5.107750">
        <ele>3353.0</ele>
        <time>2018-09-01T13:29:54Z</time>
      </trkpt>
      <trkpt lat="40.576150" lon="-5.107867">
        <ele>3355.0</ele>
        <time>2018-09-01T13:29:55Z</time>
      </trkpt>
      <trkpt lat="40.576150" lon="-5.107983">
        <ele>3358.0</ele>
        <time>2018-09-01T13:29:56Z</time>
      </trkpt>
      <trkpt lat="40.576183" lon="-5.108100">
        <ele>3360.0</ele>
        <time>2018-09-01T13:29:57Z</time>
      </trkpt>
      <trkpt lat="40.576233" lon="-5.108183">
        <ele>3362.0</ele>
        <time>2018-09-01T13:29:58Z</time>
      </trkpt>
      <trkpt lat="40.576283" lon="-5.108267">
        <ele>3364.0</ele>
        <time>2018-09-01T13:29:59Z</time>
      </trkpt>
      <trkpt lat="40.576367" lon="-5.108333">
        <ele>3366.0</ele>
        <time>2018-09-01T13:30:00Z</time>
      </trkpt>
      <trkpt lat="40.576450" lon="-5.108383">
        <ele>3369.0</ele>
        <time>2018-09-01T13:30:01Z</time>
      </trkpt>
      <trkpt lat="40.576550" lon="-5.108417">
        <ele>3372.0</ele>
        <time>2018-09-01T13:30:02Z</time>
      </trkpt>
      <trkpt lat="40.576633" lon="-5.108417">
        <ele>3375.0</ele>
        <time>2018-09-01T13:30:03Z</time>
      </trkpt>
      <trkpt lat="40.576717" lon="-5.108400">
        <ele>3378.0</ele>
        <time>2018-09-01T13:30:04Z</time>
      </trkpt>
      <trkpt lat="40.576800" lon="-5.108350">
        <ele>3380.0</ele>
        <time>2018-09-01T13:30:05Z</time>
      </trkpt>
      <trkpt lat="40.576883" lon="-5.108283">
        <ele>3382.0</ele>
        <time>2018-09-01T13:30:06Z</time>
      </trkpt>
      <trkpt lat="40.576967" lon="-5.108200">
        <ele>3383.0</ele>
        <time>2018-09-01T13:30:07Z</time>
      </trkpt>
      <trkpt lat="40.577050" lon="-5.108100">
        <ele>3384.0</ele>
        <time>2018-09-01T13:30:08Z</time>
      </trkpt>
      <trkpt lat="40.577117" lon="-5.108017">
        <ele>3385.0</ele>
        <time>2018-09-01T13:30:09Z</time>
      </trkpt>
      <trkpt lat="40.577183" lon="-5.107900">
        <ele>3385.0</ele>
        <time>2018-09-01T13:30:10Z</time>
      </trkpt>
      <trkpt lat="40.577233" lon="-5.107783">
        <ele>3385.0</ele>
        <time>2018-09-01T13:30:11Z</time>
      </trkpt>
      <trkpt lat="40.577267" lon="-5.107650">
        <ele>3384.0</ele>
        <time>2018-09-01T13:30:12Z</time>
      </trkpt>
      <trkpt lat="40.577283" lon="-5.107483">
        <ele>3383.0</ele>
        <time>2018-09-01T13:30:13Z</time>
      </trkpt>
      <trkpt lat="40.577283" lon="-5.107317">
        <ele>3381.0</ele>
        <time>2018-09-01T13:30:14Z</time>
      </trkpt>
      <trkpt lat="40.577283" lon="-5.107133">
        <ele>3381.0</ele>
        <time>2018-09-01T13:30:15Z</time>
      </trkpt>
      <trkpt lat="40.577250" lon="-5.106950">
        <ele>3381.0</ele>
        <time>2018-09-01T13:30:16Z</time>
      </trkpt>
      <trkpt lat="40.577200" lon="-5.106783">
        <ele>3381.0</ele>
        <time>2018-09-01T13:30:17Z</time>
      </trkpt>
      <trkpt lat="40.577133" lon="-5.106633">
        <ele>3380.0</ele>
        <time>2018-09-01T13:30:18Z</time>
      </trkpt>
      <trkpt lat="40.577033" lon="-5.106500">
        <ele>3380.0</ele>
        <time>2018-09-01T13:30:19Z</time>
      </trkpt>
      <trkpt lat="40.576933" lon="-5.106383">
        <ele>3381.0</ele>
        <time>2018-09-01T13:30:20Z</time>
      </trkpt>
      <trkpt lat="40.576833" lon="-5.106300">
        <ele>3383.0</ele>
        <time>2018-09-01T13:30:21Z</time>
      </trkpt>
      <trkpt lat="40.576733" lon="-5.106217">
        <ele>3385.0</ele>
        <time>2018-09-01T13:30:22Z</time>
      </trkpt>
      <trkpt lat="40.576617" lon="-5.106167">
        <ele>3387.0</ele>
        <time>2018-09-01T13:30:23Z</time>
      </trkpt>
      <trkpt lat="40.576500" lon="-5.106133">
        <ele>3388.0</ele>
        <time>2018-09-01T13:30:24Z</time>
      </trkpt>
      <trkpt lat="40.576383" lon="-5.106117">
        <ele>3389.0</ele>
        <time>2018-09-01T13:30:25Z</time>
      </trkpt>
      <trkpt lat="40.576267" lon="-5.106117">
        <ele>3390.0</ele>
        <time>2018-09-01T13:30:26Z</time>
      </trkpt>
      <trkpt lat="40.576133" lon="-5.106133">
        <ele>3391.0</ele>
        <time>2018-09-01T13:30:27Z</time>
      </trkpt>
      <trkpt lat="40.576017" lon="-5.106183">
        <ele>3394.0</ele>
        <time>2018-09-01T13:30:28Z</time>
      </trkpt>
      <trkpt lat="40.575917" lon="-5.106233">
        <ele>3397.0</ele>
        <time>2018-09-01T13:30:29Z</time>
      </trkpt>
      <trkpt lat="40.575817" lon="-5.106283">
        <ele>3401.0</ele>
        <time>2018-09-01T13:30:30Z</time>
      </trkpt>
      <trkpt lat="40.575733" lon="-5.106350">
        <ele>3406.0</ele>
        <time>2018-09-01T13:30:31Z</time>
      </trkpt>
      <trkpt lat="40.575667" lon="-5.106433">
        <ele>3410.0</ele>
        <time>2018-09-01T13:30:32Z</time>
      </trkpt>
      <trkpt lat="40.575600" lon="-5.106517">
        <ele>3414.0</ele>
        <time>2018-09-01T13:30:33Z</time>
      </trkpt>
      <trkpt lat="40.575550" lon="-5.106617">
        <ele>3416.0</ele>
        <time>2018-09-01T13:30:34Z</time>
      </trkpt>
      <trkpt lat="40.575533" lon="-5.106717">
        <ele>3418.0</ele>
        <time>2018-09-01T13:30:35Z</time>
      </trkpt>
      <trkpt lat="40.575517" lon="-5.106817">
        <ele>3420.0</ele>
        <time>2018-09-01T13:30:36Z</time>
      </trkpt>
      <trkpt lat="40.575517" lon="-5.106933">
        <ele>3421.0</ele>
        <time>2018-09-01T13:30:37Z</time>
      </trkpt>
      <trkpt lat="40.575517" lon="-5.107033">
        <ele>3423.0</ele>
        <time>2018-09-01T13:30:38Z</time>
      </trkpt>
      <trkpt lat="40.575533" lon="-5.107133">
        <ele>3425.0</ele>
        <time>2018-09-01T13:30:39Z</time>
      </trkpt>
      <trkpt lat="40.575567" lon="-5.107217">
        <ele>3428.0</ele>
        <time>2018-09-01T13:30:40Z</time>
      </trkpt>
      <trkpt lat="40.575617" lon="-5.107283">
        <ele>3430.0</ele>
        <time>2018-09-01T13:30:41Z</time>
      </trkpt>
      <trkpt lat="40.575667" lon="-5.107333">
        <ele>3431.0</ele>
        <time>2018-09-01T13:30:42Z</time>
      </trkpt>
      <trkpt lat="40.575750" lon="-5.107367">
        <ele>3432.0</ele>
        <time>2018-09-01T13:30:43Z</time>
      </trkpt>
      <trkpt lat="40.575833" lon="-5.107367">
        <ele>3433.0</ele>
        <time>2018-09-01T13:30:44Z</time>
      </trkpt>
      <trkpt lat="40.575917" lon="-5.107350">
        <ele>3434.0</ele>
        <time>2018-09-01T13:30:45Z</time>
      </trkpt>
      <trkpt lat="40.576000" lon="-5.107300">
        <ele>3435.0</ele>
        <time>2018-09-01T13:30:46Z</time>
      </trkpt>
      <trkpt lat="40.576083" lon="-5.107250">
        <ele>3436.0</ele>
        <time>2018-09-01T13:30:47Z</time>
      </trkpt>
      <trkpt lat="40.576150" lon="-5.107167">
        <ele>3437.0</ele>
        <time>2018-09-01T13:30:48Z</time>
      </trkpt>
      <trkpt lat="40.576217" lon="-5.107067">
        <ele>3438.0</ele>
        <time>2018-09-01T13:30:49Z</time>
      </trkpt>
      <trkpt lat="40.576250" lon="-5.106933">
        <ele>3438.0</ele>
        <time>2018-09-01T13:30:50Z</time>
      </trkpt>
      <trkpt lat="40.576267" lon="-5.106800">
        <ele>3437.0</ele>
        <time>2018-09-01T13:30:51Z</time>
      </trkpt>
      <trkpt lat="40.576283" lon="-5.106650">
        <ele>3437.0</ele>
        <time>2018-09-01T13:30:52Z</time>
      </trkpt>
      <trkpt lat="40.576267" lon="-5.106483">
        <ele>3438.0</ele>
        <time>2018-09-01T13:30:53Z</time>
      </trkpt>
      <trkpt lat="40.576267" lon="-5.106333">
        <ele>3439.0</ele>
        <time>2018-09-01T13:30:54Z</time>
      </trkpt>
      <trkpt lat="40.576250" lon="-5.106167">
        <ele>3440.0</ele>
        <time>2018-09-01T13:30:55Z</time>
      </trkpt>
      <trkpt lat="40.576250" lon="-5.106000">
        <ele>3442.0</ele>
        <time>2018-09-01T13:30:56Z</time>
      </trkpt>
      <trkpt lat="40.576217" lon="-5.105833">
        <ele>3444.0</ele>
        <time>2018-09-01T13:30:57Z</time>
      </trkpt>
      <trkpt lat="40.576167" lon="-5.105683">
        <ele>3446.0</ele>
        <time>2018-09-01T13:30:58Z</time>
      </trkpt>
      <trkpt lat="40.576100" lon="-5.105533">
        <ele>3449.0</ele>
        <time>2018-09-01T13:30:59Z</time>
      </trkpt>
      <trkpt lat="40.576033" lon="-5.105400">
        <ele>3452.0</ele>
        <time>2018-09-01T13:31:00Z</time>
      </trkpt>
      <trkpt lat="40.575967" lon="-5.105267">
        <ele>3455.0</ele>
        <time>2018-09-01T13:31:01Z</time>
      </trkpt>
      <trkpt lat="40.575883" lon="-5.105167">
        <ele>3457.0</ele>
        <time>2018-09-01T13:31:02Z</time>
      </trkpt>
      <trkpt lat="40.575783" lon="-5.105083">
        <ele>3458.0</ele>
        <time>2018-09-01T13:31:03Z</time>
      </trkpt>
      <trkpt lat="40.575667" lon="-5.105017">
        <ele>3460.0</ele>
        <time>2018-09-01T13:31:04Z</time>
      </trkpt>
      <trkpt lat="40.575550" lon="-5.104983">
        <ele>3461.0</ele>
        <time>2018-09-01T13:31:05Z</time>
      </trkpt>
      <trkpt lat="40.575433" lon="-5.104983">
        <ele>3463.0</ele>
        <time>2018-09-01T13:31:06Z</time>
      </trkpt>
      <trkpt lat="40.575317" lon="-5.105000">
        <ele>3465.0</ele>
        <time>2018-09-01T13:31:07Z</time>
      </trkpt>
      <trkpt lat="40.575200" lon="-5.105033">
        <ele>3468.0</ele>
        <time>2018-09-01T13:31:08Z</time>
      </trkpt>
      <trkpt lat="40.575117" lon="-5.105100">
        <ele>3471.0</ele>
        <time>2018-09-01T13:31:09Z</time>
      </trkpt>
      <trkpt lat="40.575033" lon="-5.105167">
        <ele>3474.0</ele>
        <time>2018-09-01T13:31:10Z</time>
      </trkpt>
      <trkpt lat="40.574950" lon="-5.105267">
        <ele>3476.0</ele>
        <time>2018-09-01T13:31:11Z</time>
      </trkpt>
      <trkpt lat="40.574900" lon="-5.105367">
        <ele>3479.0</ele>
        <time>2018-09-01T13:31:12Z</time>
      </trkpt>
      <trkpt lat="40.574850" lon="-5.105467">
        <ele>3482.0</ele>
        <time>2018-09-01T13:31:13Z</time>
      </trkpt>
      <trkpt lat="40.574833" lon="-5.105567">
        <ele>3485.0</ele>
        <time>2018-09-01T13:31:14Z</time>
      </trkpt>
      <trkpt lat="40.574833" lon="-5.105650">
        <ele>3488.0</ele>
        <time>2018-09-01T13:31:15Z</time>
      </trkpt>
      <trkpt lat="40.574867" lon="-5.105733">
        <ele>3489.0</ele>
        <time>2018-09-01T13:31:16Z</time>
      </trkpt>
      <trkpt lat="40.574900" lon="-5.105800">
        <ele>3491.0</ele>
        <time>2018-09-01T13:31:17Z</time>
      </trkpt>
      <trkpt lat="40.574967" lon="-5.105850">
        <ele>3493.0</ele>
        <time>2018-09-01T13:31:18Z</time>
      </trkpt>
      <trkpt lat="40.575017" lon="-5.105900">
        <ele>3494.0</ele>
        <time>2018-09-01T13:31:19Z</time>
      </trkpt>
      <trkpt lat="40.575083" lon="-5.105950">
        <ele>3496.0</ele>
        <time>2018-09-01T13:31:20Z</time>
      </trkpt>
      <trkpt lat="40.575167" lon="-5.105967">
        <ele>3498.0</ele>
        <time>2018-09-01T13:31:21Z</time>
      </trkpt>
      <trkpt lat="40.575250" lon="-5.105950">
        <ele>3500.0</ele>
        <time>2018-09-01T13:31:22Z</time>
      </trkpt>
      <trkpt lat="40.575333" lon="-5.105917">
        <ele>3502.0</ele>
        <time>2018-09-01T13:31:23Z</time>
      </trkpt>
      <trkpt lat="40.575400" lon="-5.105850">
        <ele>3504.0</ele>
        <time>2018-09-01T13:31:24Z</time>
      </trkpt>
      <trkpt lat="40.575467" lon="-5.105767">
        <ele>3506.0</ele>
        <time>2018-09-01T13:31:25Z</time>
      </trkpt>
      <trkpt lat="40.575517" lon="-5.105650">
        <ele>3507.0</ele>
        <time>2018-09-01T13:31:26Z</time>
      </trkpt>
      <trkpt lat="40.575567" lon="-5.105517">
        <ele>3509.0</ele>
        <time>2018-09-01T13:31:27Z</time>
      </trkpt>
      <trkpt lat="40.575600" lon="-5.105383">
        <ele>3511.0</ele>
        <time>2018-09-01T13:31:28Z</time>
      </trkpt>
      <trkpt lat="40.575600" lon="-5.105233">
        <ele>3513.0</ele>
        <time>2018-09-01T13:31:29Z</time>
      </trkpt>
      <trkpt lat="40.575583" lon="-5.105083">
        <ele>3515.0</ele>
        <time>2018-09-01T13:31:30Z</time>
      </trkpt>
      <trkpt lat="40.575533" lon="-5.104917">
        <ele>3516.0</ele>
        <time>2018-09-01T13:31:31Z</time>
      </trkpt>
      <trkpt lat="40.575450" lon="-5.104783">
        <ele>3518.0</ele>
        <time>2018-09-01T13:31:32Z</time>
      </trkpt>
      <trkpt lat="40.575367" lon="-5.104650">
        <ele>3521.0</ele>
        <time>2018-09-01T13:31:33Z</time>
      </trkpt>
      <trkpt lat="40.575283" lon="-5.104533">
        <ele>3524.0</ele>
        <time>2018-09-01T13:31:34Z</time>
      </trkpt>
      <trkpt lat="40.575183" lon="-5.104450">
        <ele>3527.0</ele>
        <time>2018-09-01T13:31:35Z</time>
      </trkpt>
      <trkpt lat="40.575083" lon="-5.104367">
        <ele>3529.0</ele>
        <time>2018-09-01T13:31:36Z</time>
      </trkpt>
      <trkpt lat="40.574983" lon="-5.104317">
        <ele>3530.0</ele>
        <time>2018-09-01T13:31:37Z</time>
      </trkpt>
      <trkpt lat="40.574867" lon="-5.104283">
        <ele>3531.0</ele>
        <time>2018-09-01T13:31:38Z</time>
      </trkpt>
      <trkpt lat="40.574750" lon="-5.104267">
        <ele>3533.0</ele>
        <time>2018-09-01T13:31:39Z</time>
      </trkpt>
      <trkpt lat="40.574633" lon="-5.104283">
        <ele>3535.0</ele>
        <time>2018-09-01T13:31:40Z</time>
      </trkpt>
      <trkpt lat="40.574517" lon="-5.104317">
        <ele>3537.0</ele>
        <time>2018-09-01T13:31:41Z</time>
      </trkpt>
      <trkpt lat="40.574433" lon="-5.104383">
        <ele>3540.0</ele>
        <time>2018-09-01T13:31:42Z</time>
      </trkpt>
      <trkpt lat="40.574350" lon="-5.104467">
        <ele>3542.0</ele>
        <time>2018-09-01T13:31:43Z</time>
      </trkpt>
      <trkpt lat="40.574300" lon="-5.104567">
        <ele>3544.0</ele>
        <time>2018-09-01T13:31:44Z</time>
      </trkpt>
      <trkpt lat="40.574250" lon="-5.104667">
        <ele>3546.0</ele>
        <time>2018-09-01T13:31:45Z</time>
      </trkpt>
      <trkpt lat="40.574233" lon="-5.104783">
        <ele>3547.0</ele>
        <time>2018-09-01T13:31:46Z</time>
      </trkpt>
      <trkpt lat="40.574217" lon="-5.104917">
        <ele>3549.0</ele>
        <time>2018-09-01T13:31:47Z</time>
      </trkpt>
      <trkpt lat="40.574233" lon="-5.105033">
        <ele>3551.0</ele>
        <time>2018-09-01T13:31:48Z</time>
      </trkpt>
      <trkpt lat="40.574267" lon="-5.105133">
        <ele>3552.0</ele>
        <time>2018-09-01T13:31:49Z</time>
      </trkpt>
      <trkpt lat="40.574317" lon="-5.105250">
        <ele>3553.0</ele>
        <time>2018-09-01T13:31:50Z</time>
      </trkpt>
      <trkpt lat="40.574383" lon="-5.105333">
        <ele>3554.0</ele>
        <time>2018-09-01T13:31:51Z</time>
      </trkpt>
      <trkpt lat="40.574450" lon="-5.105417">
        <ele>3556.0</ele>
        <time>2018-09-01T13:31:52Z</time>
      </trkpt>
      <trkpt lat="40.574533" lon="-5.105483">
        <ele>3557.0</ele>
        <time>2018-09-01T13:31:53Z</time>
      </trkpt>
      <trkpt lat="40.574617" lon="-5.105500">
        <ele>3559.0</ele>
        <time>2018-09-01T13:31:54Z</time>
      </trkpt>
      <trkpt lat="40.574717" lon="-5.105500">
        <ele>3562.0</ele>
        <time>2018-09-01T13:31:55Z</time>
      </trkpt>
      <trkpt lat="40.574783" lon="-5.105483">
        <ele>3564.0</ele>
        <time>2018-09-01T13:31:56Z</time>
      </trkpt>
      <trkpt lat="40.574867" lon="-5.105433">
        <ele>3566.0</ele>
        <time>2018-09-01T13:31:57Z</time>
      </trkpt>
      <trkpt lat="40.574950" lon="-5.105400">
        <ele>3567.0</ele>
        <time>2018-09-01T13:31:58Z</time>
      </trkpt>
      <trkpt lat="40.575017" lon="-5.105367">
        <ele>3568.0</ele>
        <time>2018-09-01T13:31:59Z</time>
      </trkpt>
      <trkpt lat="40.575100" lon="-5.105300">
        <ele>3567.0</ele>
        <time>2018-09-01T13:32:00Z</time>
      </trkpt>
      <trkpt lat="40.575167" lon="-5.105217">
        <ele>3566.0</ele>
        <time>2018-09-01T13:32:01Z</time>
      </trkpt>
      <trkpt lat="40.575217" lon="-5.105083">
        <ele>3565.0</ele>
        <time>2018-09-01T13:32:02Z</time>
      </trkpt>
      <trkpt lat="40.575267" lon="-5.104933">
        <ele>3564.0</ele>
        <time>2018-09-01T13:32:03Z</time>
      </trkpt>
      <trkpt lat="40.575283" lon="-5.104750">
        <ele>3565.0</ele>
        <time>2018-09-01T13:32:04Z</time>
      </trkpt>
      <trkpt lat="40.575283" lon="-5.104583">
        <ele>3566.0</ele>
        <time>2018-09-01T13:32:05Z</time>
      </trkpt>
      <trkpt lat="40.575267" lon="-5.104417">
        <ele>3567.0</ele>
        <time>2018-09-01T13:32:06Z</time>
      </trkpt>
      <trkpt lat="40.575233" lon="-5.104250">
        <ele>3569.0</ele>
        <time>2018-09-01T13:32:07Z</time>
      </trkpt>
      <trkpt lat="40.575200" lon="-5.104100">
        <ele>3572.0</ele>
        <time>2018-09-01T13:32:08Z</time>
      </trkpt>
      <trkpt lat="40.575167" lon="-5.103967">
        <ele>3575.0</ele>
        <time>2018-09-01T13:32:09Z</time>
      </trkpt>
      <trkpt lat="40.575100" lon="-5.103850">
        <ele>3577.0</ele>
        <time>2018-09-01T13:32:10Z</time>
      </trkpt>
      <trkpt lat="40.575017" lon="-5.103750">
        <ele>3578.0</ele>
        <time>2018-09-01T13:32:11Z</time>
      </trkpt>
      <trkpt lat="40.574933" lon="-5.103667">
        <ele>3579.0</ele>
        <time>2018-09-01T13:32:12Z</time>
      </trkpt>
      <trkpt lat="40.574833" lon="-5.103600">
        <ele>3581.0</ele>
        <time>2018-09-01T13:32:13Z</time>
      </trkpt>
      <trkpt lat="40.574717" lon="-5.103550">
        <ele>3582.0</ele>
        <time>2018-09-01T13:32:14Z</time>
      </trkpt>
      <trkpt lat="40.574617" lon="-5.103517">
        <ele>3584.0</ele>
        <time>2018-09-01T13:32:15Z</time>
      </trkpt>
      <trkpt lat="40.574517" lon="-5.103500">
        <ele>3585.0</ele>
        <time>2018-09-01T13:32:16Z</time>
      </trkpt>
      <trkpt lat="40.574400" lon="-5.103500">
        <ele>3586.0</ele>
        <time>2018-09-01T13:32:17Z</time>
      </trkpt>
      <trkpt lat="40.574300" lon="-5.103517">
        <ele>3587.0</ele>
        <time>2018-09-01T13:32:18Z</time>
      </trkpt>
      <trkpt lat="40.574200" lon="-5.103550">
        <ele>3588.0</ele>
        <time>2018-09-01T13:32:19Z</time>
      </trkpt>
      <trkpt lat="40.574100" lon="-5.103617">
        <ele>3589.0</ele>
        <time>2018-09-01T13:32:20Z</time>
      </trkpt>
      <trkpt lat="40.574017" lon="-5.103700">
        <ele>3590.0</ele>
        <time>2018-09-01T13:32:21Z</time>
      </trkpt>
      <trkpt lat="40.573967" lon="-5.103800">
        <ele>3591.0</ele>
        <time>2018-09-01T13:32:22Z</time>
      </trkpt>
      <trkpt lat="40.573933" lon="-5.103917">
        <ele>3592.0</ele>
        <time>2018-09-01T13:32:23Z</time>
      </trkpt>
      <trkpt lat="40.573917" lon="-5.104050">
        <ele>3592.0</ele>
        <time>2018-09-01T13:32:24Z</time>
      </trkpt>
      <trkpt lat="40.573917" lon="-5.104183">
        <ele>3594.0</ele>
        <time>2018-09-01T13:32:25Z</time>
      </trkpt>
      <trkpt lat="40.573933" lon="-5.104300">
        <ele>3595.0</ele>
        <time>2018-09-01T13:32:26Z</time>
      </trkpt>
      <trkpt lat="40.573967" lon="-5.104417">
        <ele>3597.0</ele>
        <time>2018-09-01T13:32:27Z</time>
      </trkpt>
      <trkpt lat="40.574000" lon="-5.104500">
        <ele>3597.0</ele>
        <time>2018-09-01T13:32:28Z</time>
      </trkpt>
      <trkpt lat="40.574067" lon="-5.104567">
        <ele>3597.0</ele>
        <time>2018-09-01T13:32:29Z</time>
      </trkpt>
      <trkpt lat="40.574150" lon="-5.104633">
        <ele>3597.0</ele>
        <time>2018-09-01T13:32:30Z</time>
      </trkpt>
      <trkpt lat="40.574250" lon="-5.104650">
        <ele>3597.0</ele>
        <time>2018-09-01T13:32:31Z</time>
      </trkpt>
      <trkpt lat="40.574350" lon="-5.104667">
        <ele>3597.0</ele>
        <time>2018-09-01T13:32:32Z</time>
      </trkpt>
      <trkpt lat="40.574450" lon="-5.104650">
        <ele>3599.0</ele>
        <time>2018-09-01T13:32:33Z</time>
      </trkpt>
      <trkpt lat="40.574550" lon="-5.104617">
        <ele>3600.0</ele>
        <time>2018-09-01T13:32:34Z</time>
      </trkpt>
      <trkpt lat="40.574617" lon="-5.104567">
        <ele>3601.0</ele>
        <time>2018-09-01T13:32:35Z</time>
      </trkpt>
      <trkpt lat="40.574700" lon="-5.104500">
        <ele>3602.0</ele>
        <time>2018-09-01T13:32:36Z</time>
      </trkpt>
      <trkpt lat="40.574783" lon="-5.104433">
        <ele>3602.0</ele>
        <time>2018-09-01T13:32:37Z</time>
      </trkpt>
      <trkpt lat="40.574867" lon="-5.104367">
        <ele>3602.0</ele>
        <time>2018-09-01T13:32:38Z</time>
      </trkpt>
      <trkpt lat="40.574950" lon="-5.104300">
        <ele>3601.0</ele>
        <time>2018-09-01T13:32:39Z</time>
      </trkpt>
      <trkpt lat="40.575033" lon="-5.104217">
        <ele>3601.0</ele>
        <time>2018-09-01T13:32:40Z</time>
      </trkpt>
      <trkpt lat="40.575117" lon="-5.104133">
        <ele>3600.0</ele>
        <time>2018-09-01T13:32:41Z</time>
      </trkpt>
      <trkpt lat="40.575217" lon="-5.104050">
        <ele>3600.0</ele>
        <time>2018-09-01T13:32:42Z</time>
      </trkpt>
      <trkpt lat="40.575300" lon="-5.103967">
        <ele>3600.0</ele>
        <time>2018-09-01T13:32:43Z</time>
      </trkpt>
      <trkpt lat="40.575383" lon="-5.103883">
        <ele>3600.0</ele>
        <time>2018-09-01T13:32:44Z</time>
      </trkpt>
      <trkpt lat="40.575467" lon="-5.103817">
        <ele>3601.0</ele>
        <time>2018-09-01T13:32:45Z</time>
      </trkpt>
      <trkpt lat="40.575533" lon="-5.103733">
        <ele>3601.0</ele>
        <time>2018-09-01T13:32:46Z</time>
      </trkpt>
      <trkpt lat="40.575617" lon="-5.103650">
        <ele>3600.0</ele>
        <time>2018-09-01T13:32:47Z</time>
      </trkpt>
      <trkpt lat="40.575700" lon="-5.103567">
        <ele>3599.0</ele>
        <time>2018-09-01T13:32:48Z</time>
      </trkpt>
      <trkpt lat="40.575767" lon="-5.103467">
        <ele>3598.0</ele>
        <time>2018-09-01T13:32:49Z</time>
      </trkpt>
      <trkpt lat="40.575850" lon="-5.103367">
        <ele>3597.0</ele>
        <time>2018-09-01T13:32:50Z</time>
      </trkpt>
      <trkpt lat="40.575933" lon="-5.103267">
        <ele>3596.0</ele>
        <time>2018-09-01T13:32:51Z</time>
      </trkpt>
      <trkpt lat="40.576017" lon="-5.103167">
        <ele>3596.0</ele>
        <time>2018-09-01T13:32:52Z</time>
      </trkpt>
      <trkpt lat="40.576100" lon="-5.103083">
        <ele>3595.0</ele>
        <time>2018-09-01T13:32:53Z</time>
      </trkpt>
      <trkpt lat="40.576183" lon="-5.103000">
        <ele>3595.0</ele>
        <time>2018-09-01T13:32:54Z</time>
      </trkpt>
      <trkpt lat="40.576250" lon="-5.102917">
        <ele>3594.0</ele>
        <time>2018-09-01T13:32:55Z</time>
      </trkpt>
      <trkpt lat="40.576333" lon="-5.102850">
        <ele>3593.0</ele>
        <time>2018-09-01T13:32:56Z</time>
      </trkpt>
      <trkpt lat="40.576417" lon="-5.102767">
        <ele>3592.0</ele>
        <time>2018-09-01T13:32:57Z</time>
      </trkpt>
      <trkpt lat="40.576500" lon="-5.102700">
        <ele>3590.0</ele>
        <time>2018-09-01T13:32:58Z</time>
      </trkpt>
      <trkpt lat="40.576600" lon="-5.102633">
        <ele>3588.0</ele>
        <time>2018-09-01T13:32:59Z</time>
      </trkpt>
      <trkpt lat="40.576683" lon="-5.102550">
        <ele>3586.0</ele>
        <time>2018-09-01T13:33:00Z</time>
      </trkpt>
      <trkpt lat="40.576783" lon="-5.102483">
        <ele>3585.0</ele>
        <time>2018-09-01T13:33:01Z</time>
      </trkpt>
      <trkpt lat="40.576883" lon="-5.102417">
        <ele>3584.0</ele>
        <time>2018-09-01T13:33:02Z</time>
      </trkpt>
      <trkpt lat="40.577000" lon="-5.102367">
        <ele>3583.0</ele>
        <time>2018-09-01T13:33:03Z</time>
      </trkpt>
      <trkpt lat="40.577083" lon="-5.102300">
        <ele>3582.0</ele>
        <time>2018-09-01T13:33:04Z</time>
      </trkpt>
      <trkpt lat="40.577183" lon="-5.102250">
        <ele>3582.0</ele>
        <time>2018-09-01T13:33:05Z</time>
      </trkpt>
      <trkpt lat="40.577283" lon="-5.102183">
        <ele>3581.0</ele>
        <time>2018-09-01T13:33:06Z</time>
      </trkpt>
      <trkpt lat="40.577367" lon="-5.102133">
        <ele>3580.0</ele>
        <time>2018-09-01T13:33:07Z</time>
      </trkpt>
      <trkpt lat="40.577450" lon="-5.102067">
        <ele>3579.0</ele>
        <time>2018-09-01T13:33:08Z</time>
      </trkpt>
      <trkpt lat="40.577550" lon="-5.102000">
        <ele>3579.0</ele>
        <time>2018-09-01T13:33:09Z</time>
      </trkpt>
      <trkpt lat="40.577617" lon="-5.101917">
        <ele>3578.0</ele>
        <time>2018-09-01T13:33:10Z</time>
      </trkpt>
      <trkpt lat="40.577700" lon="-5.101850">
        <ele>3577.0</ele>
        <time>2018-09-01T13:33:11Z</time>
      </trkpt>
      <trkpt lat="40.577800" lon="-5.101767">
        <ele>3576.0</ele>
        <time>2018-09-01T13:33:12Z</time>
      </trkpt>
      <trkpt lat="40.577883" lon="-5.101700">
        <ele>3574.0</ele>
        <time>2018-09-01T13:33:13Z</time>
      </trkpt>
      <trkpt lat="40.577983" lon="-5.101617">
        <ele>3574.0</ele>
        <time>2018-09-01T13:33:14Z</time>
      </trkpt>
      <trkpt lat="40.578067" lon="-5.101533">
        <ele>3573.0</ele>
        <time>2018-09-01T13:33:15Z</time>
      </trkpt>
      <trkpt lat="40.578167" lon="-5.101450">
        <ele>3573.0</ele>
        <time>2018-09-01T13:33:16Z</time>
      </trkpt>
      <trkpt lat="40.578250" lon="-5.101383">
        <ele>3573.0</ele>
        <time>2018-09-01T13:33:17Z</time>
      </trkpt>
      <trkpt lat="40.578350" lon="-5.101317">
        <ele>3572.0</ele>
        <time>2018-09-01T13:33:18Z</time>
      </trkpt>
      <trkpt lat="40.578450" lon="-5.101250">
        <ele>3571.0</ele>
        <time>2018-09-01T13:33:19Z</time>
      </trkpt>
      <trkpt lat="40.578550" lon="-5.101217">
        <ele>3571.0</ele>
        <time>2018-09-01T13:33:20Z</time>
      </trkpt>
      <trkpt lat="40.578650" lon="-5.101167">
        <ele>3572.0</ele>
        <time>2018-09-01T13:33:21Z</time>
      </trkpt>
      <trkpt lat="40.578733" lon="-5.101150">
        <ele>3573.0</ele>
        <time>2018-09-01T13:33:22Z</time>
      </trkpt>
      <trkpt lat="40.578817" lon="-5.101133">
        <ele>3575.0</ele>
        <time>2018-09-01T13:33:23Z</time>
      </trkpt>
      <trkpt lat="40.578883" lon="-5.101100">
        <ele>3575.0</ele>
        <time>2018-09-01T13:33:24Z</time>
      </trkpt>
      <trkpt lat="40.578950" lon="-5.101083">
        <ele>3574.0</ele>
        <time>2018-09-01T13:33:25Z</time>
      </trkpt>
      <trkpt lat="40.579033" lon="-5.101050">
        <ele>3573.0</ele>
        <time>2018-09-01T13:33:26Z</time>
      </trkpt>
      <trkpt lat="40.579133" lon="-5.101017">
        <ele>3571.0</ele>
        <time>2018-09-01T13:33:27Z</time>
      </trkpt>
      <trkpt lat="40.579233" lon="-5.100983">
        <ele>3570.0</ele>
        <time>2018-09-01T13:33:28Z</time>
      </trkpt>
      <trkpt lat="40.579333" lon="-5.100950">
        <ele>3570.0</ele>
        <time>2018-09-01T13:33:29Z</time>
      </trkpt>
      <trkpt lat="40.579433" lon="-5.100917">
        <ele>3570.0</ele>
        <time>2018-09-01T13:33:30Z</time>
      </trkpt>
      <trkpt lat="40.579533" lon="-5.100883">
        <ele>3571.0</ele>
        <time>2018-09-01T13:33:31Z</time>
      </trkpt>
      <trkpt lat="40.579617" lon="-5.100850">
        <ele>3571.0</ele>
        <time>2018-09-01T13:33:32Z</time>
      </trkpt>
      <trkpt lat="40.579717" lon="-5.100833">
        <ele>3570.0</ele>
        <time>2018-09-01T13:33:33Z</time>
      </trkpt>
      <trkpt lat="40.579817" lon="-5.100800">
        <ele>3570.0</ele>
        <time>2018-09-01T13:33:34Z</time>
      </trkpt>
      <trkpt lat="40.579917" lon="-5.100800">
        <ele>3568.0</ele>
        <time>2018-09-01T13:33:35Z</time>
      </trkpt>
      <trkpt lat="40.580017" lon="-5.100783">
        <ele>3568.0</ele>
        <time>2018-09-01T13:33:36Z</time>
      </trkpt>
      <trkpt lat="40.580117" lon="-5.100750">
        <ele>3567.0</ele>
        <time>2018-09-01T13:33:37Z</time>
      </trkpt>
      <trkpt lat="40.580217" lon="-5.100717">
        <ele>3567.0</ele>
        <time>2018-09-01T13:33:38Z</time>
      </trkpt>
      <trkpt lat="40.580317" lon="-5.100683">
        <ele>3567.0</ele>
        <time>2018-09-01T13:33:39Z</time>
      </trkpt>
      <trkpt lat="40.580400" lon="-5.100650">
        <ele>3567.0</ele>
        <time>2018-09-01T13:33:40Z</time>
      </trkpt>
      <trkpt lat="40.580483" lon="-5.100633">
        <ele>3566.0</ele>
        <time>2018-09-01T13:33:41Z</time>
      </trkpt>
      <trkpt lat="40.580583" lon="-5.100600">
        <ele>3564.0</ele>
        <time>2018-09-01T13:33:42Z</time>
      </trkpt>
      <trkpt lat="40.580683" lon="-5.100550">
        <ele>3562.0</ele>
        <time>2018-09-01T13:33:43Z</time>
      </trkpt>
      <trkpt lat="40.580767" lon="-5.100517">
        <ele>3560.0</ele>
        <time>2018-09-01T13:33:44Z</time>
      </trkpt>
      <trkpt lat="40.580867" lon="-5.100467">
        <ele>3559.0</ele>
        <time>2018-09-01T13:33:45Z</time>
      </trkpt>
      <trkpt lat="40.580967" lon="-5.100417">
        <ele>3557.0</ele>
        <time>2018-09-01T13:33:46Z</time>
      </trkpt>
      <trkpt lat="40.581067" lon="-5.100350">
        <ele>3557.0</ele>
        <time>2018-09-01T13:33:47Z</time>
      </trkpt>
      <trkpt lat="40.581150" lon="-5.100283">
        <ele>3556.0</ele>
        <time>2018-09-01T13:33:48Z</time>
      </trkpt>
      <trkpt lat="40.581233" lon="-5.100200">
        <ele>3556.0</ele>
        <time>2018-09-01T13:33:49Z</time>
      </trkpt>
      <trkpt lat="40.581333" lon="-5.100117">
        <ele>3555.0</ele>
        <time>2018-09-01T13:33:50Z</time>
      </trkpt>
      <trkpt lat="40.581417" lon="-5.100017">
        <ele>3554.0</ele>
        <time>2018-09-01T13:33:51Z</time>
      </trkpt>
      <trkpt lat="40.581500" lon="-5.099933">
        <ele>3553.0</ele>
        <time>2018-09-01T13:33:52Z</time>
      </trkpt>
      <trkpt lat="40.581583" lon="-5.099850">
        <ele>3553.0</ele>
        <time>2018-09-01T13:33:53Z</time>
      </trkpt>
      <trkpt lat="40.581667" lon="-5.099783">
        <ele>3552.0</ele>
        <time>2018-09-01T13:33:54Z</time>
      </trkpt>
      <trkpt lat="40.581750" lon="-5.099700">
        <ele>3552.0</ele>
        <time>2018-09-01T13:33:55Z</time>
      </trkpt>
      <trkpt lat="40.581833" lon="-5.099600">
        <ele>3551.0</ele>
        <time>2018-09-01T13:33:56Z</time>
      </trkpt>
      <trkpt lat="40.581917" lon="-5.099517">
        <ele>3549.0</ele>
        <time>2018-09-01T13:33:57Z</time>
      </trkpt>
      <trkpt lat="40.581983" lon="-5.099417">
        <ele>3549.0</ele>
        <time>2018-09-01T13:33:58Z</time>
      </trkpt>
      <trkpt lat="40.582067" lon="-5.099333">
        <ele>3548.0</ele>
        <time>2018-09-01T13:33:59Z</time>
      </trkpt>
      <trkpt lat="40.582150" lon="-5.099250">
        <ele>3548.0</ele>
        <time>2018-09-01T13:34:00Z</time>
      </trkpt>
      <trkpt lat="40.582233" lon="-5.099167">
        <ele>3548.0</ele>
        <time>2018-09-01T13:34:01Z</time>
      </trkpt>
      <trkpt lat="40.582317" lon="-5.099083">
        <ele>3547.0</ele>
        <time>2018-09-01T13:34:02Z</time>
      </trkpt>
      <trkpt lat="40.582400" lon="-5.098983">
        <ele>3545.0</ele>
        <time>2018-09-01T13:34:03Z</time>
      </trkpt>
      <trkpt lat="40.582483" lon="-5.098867">
        <ele>3543.0</ele>
        <time>2018-09-01T13:34:04Z</time>
      </trkpt>
      <trkpt lat="40.582550" lon="-5.098783">
        <ele>3541.0</ele>
        <time>2018-09-01T13:34:05Z</time>
      </trkpt>
      <trkpt lat="40.582633" lon="-5.098700">
        <ele>3540.0</ele>
        <time>2018-09-01T13:34:06Z</time>
      </trkpt>
      <trkpt lat="40.582733" lon="-5.098617">
        <ele>3538.0</ele>
        <time>2018-09-01T13:34:07Z</time>
      </trkpt>
      <trkpt lat="40.582817" lon="-5.098550">
        <ele>3536.0</ele>
        <time>2018-09-01T13:34:08Z</time>
      </trkpt>
      <trkpt lat="40.582917" lon="-5.098483">
        <ele>3535.0</ele>
        <time>2018-09-01T13:34:09Z</time>
      </trkpt>
      <trkpt lat="40.583017" lon="-5.098417">
        <ele>3533.0</ele>
        <time>2018-09-01T13:34:10Z</time>
      </trkpt>
      <trkpt lat="40.583100" lon="-5.098333">
        <ele>3531.0</ele>
        <time>2018-09-01T13:34:11Z</time>
      </trkpt>
      <trkpt lat="40.583183" lon="-5.098233">
        <ele>3529.0</ele>
        <time>2018-09-01T13:34:12Z</time>
      </trkpt>
      <trkpt lat="40.583250" lon="-5.098117">
        <ele>3527.0</ele>
        <time>2018-09-01T13:34:13Z</time>
      </trkpt>
      <trkpt lat="40.583317" lon="-5.098000">
        <ele>3527.0</ele>
        <time>2018-09-01T13:34:14Z</time>
      </trkpt>
      <trkpt lat="40.583400" lon="-5.097900">
        <ele>3529.0</ele>
        <time>2018-09-01T13:34:15Z</time>
      </trkpt>
      <trkpt lat="40.583467" lon="-5.097833">
        <ele>3530.0</ele>
        <time>2018-09-01T13:34:16Z</time>
      </trkpt>
      <trkpt lat="40.583533" lon="-5.097767">
        <ele>3531.0</ele>
        <time>2018-09-01T13:34:17Z</time>
      </trkpt>
      <trkpt lat="40.583600" lon="-5.097683">
        <ele>3530.0</ele>
        <time>2018-09-01T13:34:18Z</time>
      </trkpt>
      <trkpt lat="40.583667" lon="-5.097600">
        <ele>3528.0</ele>
        <time>2018-09-01T13:34:19Z</time>
      </trkpt>
      <trkpt lat="40.583733" lon="-5.097517">
        <ele>3527.0</ele>
        <time>2018-09-01T13:34:20Z</time>
      </trkpt>
      <trkpt lat="40.583817" lon="-5.097433">
        <ele>3526.0</ele>
        <time>2018-09-01T13:34:21Z</time>
      </trkpt>
      <trkpt lat="40.583900" lon="-5.097350">
        <ele>3525.0</ele>
        <time>2018-09-01T13:34:22Z</time>
      </trkpt>
      <trkpt lat="40.583983" lon="-5.097267">
        <ele>3524.0</ele>
        <time>2018-09-01T13:34:23Z</time>
      </trkpt>
      <trkpt lat="40.584067" lon="-5.097183">
        <ele>3524.0</ele>
        <time>2018-09-01T13:34:24Z</time>
      </trkpt>
      <trkpt lat="40.584150" lon="-5.097100">
        <ele>3524.0</ele>
        <time>2018-09-01T13:34:25Z</time>
      </trkpt>
      <trkpt lat="40.584233" lon="-5.097017">
        <ele>3523.0</ele>
        <time>2018-09-01T13:34:26Z</time>
      </trkpt>
      <trkpt lat="40.584317" lon="-5.096933">
        <ele>3522.0</ele>
        <time>2018-09-01T13:34:27Z</time>
      </trkpt>
      <trkpt lat="40.584400" lon="-5.096833">
        <ele>3521.0</ele>
        <time>2018-09-01T13:34:28Z</time>
      </trkpt>
      <trkpt lat="40.584467" lon="-5.096733">
        <ele>3520.0</ele>
        <time>2018-09-01T13:34:29Z</time>
      </trkpt>
      <trkpt lat="40.584550" lon="-5.096633">
        <ele>3519.0</ele>
        <time>2018-09-01T13:34:30Z</time>
      </trkpt>
      <trkpt lat="40.584633" lon="-5.096517">
        <ele>3519.0</ele>
        <time>2018-09-01T13:34:31Z</time>
      </trkpt>
      <trkpt lat="40.584717" lon="-5.096417">
        <ele>3518.0</ele>
        <time>2018-09-01T13:34:32Z</time>
      </trkpt>
      <trkpt lat="40.584783" lon="-5.096317">
        <ele>3518.0</ele>
        <time>2018-09-01T13:34:33Z</time>
      </trkpt>
      <trkpt lat="40.584850" lon="-5.096200">
        <ele>3517.0</ele>
        <time>2018-09-01T13:34:34Z</time>
      </trkpt>
      <trkpt lat="40.584917" lon="-5.096083">
        <ele>3516.0</ele>
        <time>2018-09-01T13:34:35Z</time>
      </trkpt>
      <trkpt lat="40.584983" lon="-5.095967">
        <ele>3514.0</ele>
        <time>2018-09-01T13:34:36Z</time>
      </trkpt>
      <trkpt lat="40.585050" lon="-5.095850">
        <ele>3513.0</ele>
        <time>2018-09-01T13:34:37Z</time>
      </trkpt>
      <trkpt lat="40.585117" lon="-5.095733">
        <ele>3511.0</ele>
        <time>2018-09-01T13:34:38Z</time>
      </trkpt>
      <trkpt lat="40.585183" lon="-5.095600">
        <ele>3509.0</ele>
        <time>2018-09-01T13:34:39Z</time>
      </trkpt>
      <trkpt lat="40.585233" lon="-5.095483">
        <ele>3508.0</ele>
        <time>2018-09-01T13:34:40Z</time>
      </trkpt>
      <trkpt lat="40.585300" lon="-5.095367">
        <ele>3506.0</ele>
        <time>2018-09-01T13:34:41Z</time>
      </trkpt>
      <trkpt lat="40.585367" lon="-5.095250">
        <ele>3504.0</ele>
        <time>2018-09-01T13:34:42Z</time>
      </trkpt>
      <trkpt lat="40.585417" lon="-5.095117">
        <ele>3502.0</ele>
        <time>2018-09-01T13:34:43Z</time>
      </trkpt>
      <trkpt lat="40.585483" lon="-5.094983">
        <ele>3500.0</ele>
        <time>2018-09-01T13:34:44Z</time>
      </trkpt>
      <trkpt lat="40.585567" lon="-5.094867">
        <ele>3498.0</ele>
        <time>2018-09-01T13:34:45Z</time>
      </trkpt>
      <trkpt lat="40.585650" lon="-5.094750">
        <ele>3496.0</ele>
        <time>2018-09-01T13:34:46Z</time>
      </trkpt>
      <trkpt lat="40.585733" lon="-5.094650">
        <ele>3495.0</ele>
        <time>2018-09-01T13:34:47Z</time>
      </trkpt>
      <trkpt lat="40.585817" lon="-5.094567">
        <ele>3494.0</ele>
        <time>2018-09-01T13:34:48Z</time>
      </trkpt>
      <trkpt lat="40.585900" lon="-5.094483">
        <ele>3493.0</ele>
        <time>2018-09-01T13:34:49Z</time>
      </trkpt>
      <trkpt lat="40.585983" lon="-5.094383">
        <ele>3492.0</ele>
        <time>2018-09-01T13:34:50Z</time>
      </trkpt>
      <trkpt lat="40.586067" lon="-5.094283">
        <ele>3489.0</ele>
        <time>2018-09-01T13:34:51Z</time>
      </trkpt>
      <trkpt lat="40.586150" lon="-5.094183">
        <ele>3488.0</ele>
        <time>2018-09-01T13:34:52Z</time>
      </trkpt>
      <trkpt lat="40.586233" lon="-5.094083">
        <ele>3486.0</ele>
        <time>2018-09-01T13:34:53Z</time>
      </trkpt>
      <trkpt lat="40.586317" lon="-5.094000">
        <ele>3485.0</ele>
        <time>2018-09-01T13:34:54Z</time>
      </trkpt>
      <trkpt lat="40.586400" lon="-5.093900">
        <ele>3484.0</ele>
        <time>2018-09-01T13:34:55Z</time>
      </trkpt>
      <trkpt lat="40.586483" lon="-5.093833">
        <ele>3483.0</ele>
        <time>2018-09-01T13:34:56Z</time>
      </trkpt>
      <trkpt lat="40.586567" lon="-5.093750">
        <ele>3482.0</ele>
        <time>2018-09-01T13:34:57Z</time>
      </trkpt>
      <trkpt lat="40.586650" lon="-5.093667">
        <ele>3481.0</ele>
        <time>2018-09-01T13:34:58Z</time>
      </trkpt>
      <trkpt lat="40.586750" lon="-5.093583">
        <ele>3479.0</ele>
        <time>2018-09-01T13:34:59Z</time>
      </trkpt>
      <trkpt lat="40.586833" lon="-5.093500">
        <ele>3478.0</ele>
        <time>2018-09-01T13:35:00Z</time>
      </trkpt>
      <trkpt lat="40.586933" lon="-5.093417">
        <ele>3477.0</ele>
        <time>2018-09-01T13:35:01Z</time>
      </trkpt>
      <trkpt lat="40.587017" lon="-5.093333">
        <ele>3477.0</ele>
        <time>2018-09-01T13:35:02Z</time>
      </trkpt>
      <trkpt lat="40.587100" lon="-5.093250">
        <ele>3477.0</ele>
        <time>2018-09-01T13:35:03Z</time>
      </trkpt>
      <trkpt lat="40.587183" lon="-5.093150">
        <ele>3476.0</ele>
        <time>2018-09-01T13:35:04Z</time>
      </trkpt>
      <trkpt lat="40.587250" lon="-5.093050">
        <ele>3475.0</ele>
        <time>2018-09-01T13:35:05Z</time>
      </trkpt>
      <trkpt lat="40.587333" lon="-5.092933">
        <ele>3473.0</ele>
        <time>2018-09-01T13:35:06Z</time>
      </trkpt>
      <trkpt lat="40.587400" lon="-5.092800">
        <ele>3472.0</ele>
        <time>2018-09-01T13:35:07Z</time>
      </trkpt>
      <trkpt lat="40.587467" lon="-5.092667">
        <ele>3472.0</ele>
        <time>2018-09-01T13:35:08Z</time>
      </trkpt>
      <trkpt lat="40.587533" lon="-5.092550">
        <ele>3473.0</ele>
        <time>2018-09-01T13:35:09Z</time>
      </trkpt>
      <trkpt lat="40.587600" lon="-5.092433">
        <ele>3474.0</ele>
        <time>2018-09-01T13:35:10Z</time>
      </trkpt>
      <trkpt lat="40.587667" lon="-5.092317">
        <ele>3474.0</ele>
        <time>2018-09-01T13:35:11Z</time>
      </trkpt>
      <trkpt lat="40.587733" lon="-5.092217">
        <ele>3474.0</ele>
        <time>2018-09-01T13:35:12Z</time>
      </trkpt>
      <trkpt lat="40.587817" lon="-5.092100">
        <ele>3473.0</ele>
        <time>2018-09-01T13:35:13Z</time>
      </trkpt>
      <trkpt lat="40.587883" lon="-5.091983">
        <ele>3473.0</ele>
        <time>2018-09-01T13:35:14Z</time>
      </trkpt>
      <trkpt lat="40.587967" lon="-5.091867">
        <ele>3473.0</ele>
        <time>2018-09-01T13:35:15Z</time>
      </trkpt>
      <trkpt lat="40.588050" lon="-5.091767">
        <ele>3472.0</ele>
        <time>2018-09-01T13:35:16Z</time>
      </trkpt>
      <trkpt lat="40.588150" lon="-5.091650">
        <ele>3472.0</ele>
        <time>2018-09-01T13:35:17Z</time>
      </trkpt>
      <trkpt lat="40.588233" lon="-5.091533">
        <ele>3472.0</ele>
        <time>2018-09-01T13:35:18Z</time>
      </trkpt>
      <trkpt lat="40.588317" lon="-5.091417">
        <ele>3472.0</ele>
        <time>2018-09-01T13:35:19Z</time>
      </trkpt>
      <trkpt lat="40.588417" lon="-5.091300">
        <ele>3472.0</ele>
        <time>2018-09-01T13:35:20Z</time>
      </trkpt>
      <trkpt lat="40.588500" lon="-5.091217">
        <ele>3472.0</ele>
        <time>2018-09-01T13:35:21Z</time>
      </trkpt>
      <trkpt lat="40.588600" lon="-5.091117">
        <ele>3471.0</ele>
        <time>2018-09-01T13:35:22Z</time>
      </trkpt>
      <trkpt lat="40.588683" lon="-5.091000">
        <ele>3471.0</ele>
        <time>2018-09-01T13:35:23Z</time>
      </trkpt>
      <trkpt lat="40.588767" lon="-5.090883">
        <ele>3470.0</ele>
        <time>2018-09-01T13:35:24Z</time>
      </trkpt>
      <trkpt lat="40.588867" lon="-5.090767">
        <ele>3470.0</ele>
        <time>2018-09-01T13:35:25Z</time>
      </trkpt>
      <trkpt lat="40.588950" lon="-5.090650">
        <ele>3470.0</ele>
        <time>2018-09-01T13:35:26Z</time>
      </trkpt>
      <trkpt lat="40.589033" lon="-5.090533">
        <ele>3470.0</ele>
        <time>2018-09-01T13:35:27Z</time>
      </trkpt>
      <trkpt lat="40.589117" lon="-5.090400">
        <ele>3471.0</ele>
        <time>2018-09-01T13:35:28Z</time>
      </trkpt>
      <trkpt lat="40.589200" lon="-5.090283">
        <ele>3472.0</ele>
        <time>2018-09-01T13:35:29Z</time>
      </trkpt>
      <trkpt lat="40.589300" lon="-5.090183">
        <ele>3472.0</ele>
        <time>2018-09-01T13:35:30Z</time>
      </trkpt>
      <trkpt lat="40.589383" lon="-5.090067">
        <ele>3473.0</ele>
        <time>2018-09-01T13:35:31Z</time>
      </trkpt>
      <trkpt lat="40.589450" lon="-5.089967">
        <ele>3474.0</ele>
        <time>2018-09-01T13:35:32Z</time>
      </trkpt>
      <trkpt lat="40.589533" lon="-5.089867">
        <ele>3474.0</ele>
        <time>2018-09-01T13:35:33Z</time>
      </trkpt>
      <trkpt lat="40.589617" lon="-5.089767">
        <ele>3473.0</ele>
        <time>2018-09-01T13:35:34Z</time>
      </trkpt>
      <trkpt lat="40.589700" lon="-5.089683">
        <ele>3471.0</ele>
        <time>2018-09-01T13:35:35Z</time>
      </trkpt>
      <trkpt lat="40.589800" lon="-5.089600">
        <ele>3469.0</ele>
        <time>2018-09-01T13:35:36Z</time>
      </trkpt>
      <trkpt lat="40.589900" lon="-5.089517">
        <ele>3468.0</ele>
        <time>2018-09-01T13:35:37Z</time>
      </trkpt>
      <trkpt lat="40.590000" lon="-5.089433">
        <ele>3467.0</ele>
        <time>2018-09-01T13:35:38Z</time>
      </trkpt>
      <trkpt lat="40.590100" lon="-5.089367">
        <ele>3467.0</ele>
        <time>2018-09-01T13:35:39Z</time>
      </trkpt>
      <trkpt lat="40.590183" lon="-5.089300">
        <ele>3467.0</ele>
        <time>2018-09-01T13:35:40Z</time>
      </trkpt>
      <trkpt lat="40.590283" lon="-5.089217">
        <ele>3466.0</ele>
        <time>2018-09-01T13:35:41Z</time>
      </trkpt>
      <trkpt lat="40.590367" lon="-5.089150">
        <ele>3465.0</ele>
        <time>2018-09-01T13:35:42Z</time>
      </trkpt>
      <trkpt lat="40.590467" lon="-5.089083">
        <ele>3465.0</ele>
        <time>2018-09-01T13:35:43Z</time>
      </trkpt>
      <trkpt lat="40.590567" lon="-5.089017">
        <ele>3465.0</ele>
        <time>2018-09-01T13:35:44Z</time>
      </trkpt>
      <trkpt lat="40.590667" lon="-5.088967">
        <ele>3465.0</ele>
        <time>2018-09-01T13:35:45Z</time>
      </trkpt>
      <trkpt lat="40.590767" lon="-5.088917">
        <ele>3465.0</ele>
        <time>2018-09-01T13:35:46Z</time>
      </trkpt>
      <trkpt lat="40.590867" lon="-5.088867">
        <ele>3465.0</ele>
        <time>2018-09-01T13:35:47Z</time>
      </trkpt>
      <trkpt lat="40.590967" lon="-5.088833">
        <ele>3466.0</ele>
        <time>2018-09-01T13:35:48Z</time>
      </trkpt>
      <trkpt lat="40.591067" lon="-5.088783">
        <ele>3465.0</ele>
        <time>2018-09-01T13:35:49Z</time>
      </trkpt>
      <trkpt lat="40.591167" lon="-5.088717">
        <ele>3465.0</ele>
        <time>2018-09-01T13:35:50Z</time>
      </trkpt>
      <trkpt lat="40.591283" lon="-5.088633">
        <ele>3465.0</ele>
        <time>2018-09-01T13:35:51Z</time>
      </trkpt>
      <trkpt lat="40.591400" lon="-5.088550">
        <ele>3466.0</ele>
        <time>2018-09-01T13:35:52Z</time>
      </trkpt>
      <trkpt lat="40.591500" lon="-5.088483">
        <ele>3467.0</ele>
        <time>2018-09-01T13:35:53Z</time>
      </trkpt>
      <trkpt lat="40.591617" lon="-5.088433">
        <ele>3467.0</ele>
        <time>2018-09-01T13:35:54Z</time>
      </trkpt>
      <trkpt lat="40.591717" lon="-5.088367">
        <ele>3466.0</ele>
        <time>2018-09-01T13:35:55Z</time>
      </trkpt>
      <trkpt lat="40.591833" lon="-5.088317">
        <ele>3467.0</ele>
        <time>2018-09-01T13:35:56Z</time>
      </trkpt>
      <trkpt lat="40.591933" lon="-5.088250">
        <ele>3467.0</ele>
        <time>2018-09-01T13:35:57Z</time>
      </trkpt>
      <trkpt lat="40.592033" lon="-5.088200">
        <ele>3467.0</ele>
        <time>2018-09-01T13:35:58Z</time>
      </trkpt>
      <trkpt lat="40.592117" lon="-5.088133">
        <ele>3467.0</ele>
        <time>2018-09-01T13:35:59Z</time>
      </trkpt>
      <trkpt lat="40.592217" lon="-5.088083">
        <ele>3467.0</ele>
        <time>2018-09-01T13:36:00Z</time>
      </trkpt>
      <trkpt lat="40.592317" lon="-5.088050">
        <ele>3467.0</ele>
        <time>2018-09-01T13:36:01Z</time>
      </trkpt>
      <trkpt lat="40.592417" lon="-5.088000">
        <ele>3468.0</ele>
        <time>2018-09-01T13:36:02Z</time>
      </trkpt>
      <trkpt lat="40.592517" lon="-5.087933">
        <ele>3467.0</ele>
        <time>2018-09-01T13:36:03Z</time>
      </trkpt>
      <trkpt lat="40.592617" lon="-5.087883">
        <ele>3466.0</ele>
        <time>2018-09-01T13:36:04Z</time>
      </trkpt>
      <trkpt lat="40.592717" lon="-5.087817">
        <ele>3466.0</ele>
        <time>2018-09-01T13:36:05Z</time>
      </trkpt>
      <trkpt lat="40.592817" lon="-5.087733">
        <ele>3465.0</ele>
        <time>2018-09-01T13:36:06Z</time>
      </trkpt>
      <trkpt lat="40.592917" lon="-5.087650">
        <ele>3463.0</ele>
        <time>2018-09-01T13:36:07Z</time>
      </trkpt>
      <trkpt lat="40.593000" lon="-5.087567">
        <ele>3462.0</ele>
        <time>2018-09-01T13:36:08Z</time>
      </trkpt>
      <trkpt lat="40.593100" lon="-5.087483">
        <ele>3461.0</ele>
        <time>2018-09-01T13:36:09Z</time>
      </trkpt>
      <trkpt lat="40.593183" lon="-5.087417">
        <ele>3460.0</ele>
        <time>2018-09-01T13:36:10Z</time>
      </trkpt>
      <trkpt lat="40.593267" lon="-5.087333">
        <ele>3461.0</ele>
        <time>2018-09-01T13:36:11Z</time>
      </trkpt>
      <trkpt lat="40.593317" lon="-5.087250">
        <ele>3461.0</ele>
        <time>2018-09-01T13:36:12Z</time>
      </trkpt>
      <trkpt lat="40.593383" lon="-5.087150">
        <ele>3460.0</ele>
        <time>2018-09-01T13:36:13Z</time>
      </trkpt>
      <trkpt lat="40.593450" lon="-5.087067">
        <ele>3459.0</ele>
        <time>2018-09-01T13:36:14Z</time>
      </trkpt>
      <trkpt lat="40.593533" lon="-5.087000">
        <ele>3456.0</ele>
        <time>2018-09-01T13:36:15Z</time>
      </trkpt>
      <trkpt lat="40.593617" lon="-5.086917">
        <ele>3453.0</ele>
        <time>2018-09-01T13:36:16Z</time>
      </trkpt>
      <trkpt lat="40.593717" lon="-5.086850">
        <ele>3452.0</ele>
        <time>2018-09-01T13:36:17Z</time>
      </trkpt>
      <trkpt lat="40.593800" lon="-5.086767">
        <ele>3452.0</ele>
        <time>2018-09-01T13:36:18Z</time>
      </trkpt>
      <trkpt lat="40.593867" lon="-5.086667">
        <ele>3452.0</ele>
        <time>2018-09-01T13:36:19Z</time>
      </trkpt>
      <trkpt lat="40.593950" lon="-5.086583">
        <ele>3452.0</ele>
        <time>2018-09-01T13:36:20Z</time>
      </trkpt>
      <trkpt lat="40.594017" lon="-5.086500">
        <ele>3450.0</ele>
        <time>2018-09-01T13:36:21Z</time>
      </trkpt>
      <trkpt lat="40.594100" lon="-5.086417">
        <ele>3448.0</ele>
        <time>2018-09-01T13:36:22Z</time>
      </trkpt>
      <trkpt lat="40.594183" lon="-5.086317">
        <ele>3446.0</ele>
        <time>2018-09-01T13:36:23Z</time>
      </trkpt>
      <trkpt lat="40.594267" lon="-5.086233">
        <ele>3444.0</ele>
        <time>2018-09-01T13:36:24Z</time>
      </trkpt>
      <trkpt lat="40.594350" lon="-5.086133">
        <ele>3442.0</ele>
        <time>2018-09-01T13:36:25Z</time>
      </trkpt>
      <trkpt lat="40.594417" lon="-5.086050">
        <ele>3441.0</ele>
        <time>2018-09-01T13:36:26Z</time>
      </trkpt>
      <trkpt lat="40.594500" lon="-5.085967">
        <ele>3439.0</ele>
        <time>2018-09-01T13:36:27Z</time>
      </trkpt>
      <trkpt lat="40.594583" lon="-5.085867">
        <ele>3436.0</ele>
        <time>2018-09-01T13:36:28Z</time>
      </trkpt>
      <trkpt lat="40.594667" lon="-5.085750">
        <ele>3433.0</ele>
        <time>2018-09-01T13:36:29Z</time>
      </trkpt>
      <trkpt lat="40.594750" lon="-5.085650">
        <ele>3430.0</ele>
        <time>2018-09-01T13:36:30Z</time>
      </trkpt>
      <trkpt lat="40.594850" lon="-5.085550">
        <ele>3427.0</ele>
        <time>2018-09-01T13:36:31Z</time>
      </trkpt>
      <trkpt lat="40.594950" lon="-5.085450">
        <ele>3426.0</ele>
        <time>2018-09-01T13:36:32Z</time>
      </trkpt>
      <trkpt lat="40.595033" lon="-5.085350">
        <ele>3425.0</ele>
        <time>2018-09-01T13:36:33Z</time>
      </trkpt>
      <trkpt lat="40.595117" lon="-5.085250">
        <ele>3424.0</ele>
        <time>2018-09-01T13:36:34Z</time>
      </trkpt>
      <trkpt lat="40.595183" lon="-5.085150">
        <ele>3423.0</ele>
        <time>2018-09-01T13:36:35Z</time>
      </trkpt>
      <trkpt lat="40.595267" lon="-5.085050">
        <ele>3421.0</ele>
        <time>2018-09-01T13:36:36Z</time>
      </trkpt>
      <trkpt lat="40.595333" lon="-5.084950">
        <ele>3418.0</ele>
        <time>2018-09-01T13:36:37Z</time>
      </trkpt>
      <trkpt lat="40.595400" lon="-5.084850">
        <ele>3416.0</ele>
        <time>2018-09-01T13:36:38Z</time>
      </trkpt>
      <trkpt lat="40.595483" lon="-5.084733">
        <ele>3413.0</ele>
        <time>2018-09-01T13:36:39Z</time>
      </trkpt>
      <trkpt lat="40.595550" lon="-5.084617">
        <ele>3410.0</ele>
        <time>2018-09-01T13:36:40Z</time>
      </trkpt>
      <trkpt lat="40.595617" lon="-5.084517">
        <ele>3406.0</ele>
        <time>2018-09-01T13:36:41Z</time>
      </trkpt>
      <trkpt lat="40.595700" lon="-5.084417">
        <ele>3403.0</ele>
        <time>2018-09-01T13:36:42Z</time>
      </trkpt>
      <trkpt lat="40.595800" lon="-5.084350">
        <ele>3400.0</ele>
        <time>2018-09-01T13:36:43Z</time>
      </trkpt>
      <trkpt lat="40.595883" lon="-5.084283">
        <ele>3397.0</ele>
        <time>2018-09-01T13:36:44Z</time>
      </trkpt>
      <trkpt lat="40.595983" lon="-5.084233">
        <ele>3395.0</ele>
        <time>2018-09-01T13:36:45Z</time>
      </trkpt>
      <trkpt lat="40.596067" lon="-5.084167">
        <ele>3392.0</ele>
        <time>2018-09-01T13:36:46Z</time>
      </trkpt>
      <trkpt lat="40.596133" lon="-5.084100">
        <ele>3389.0</ele>
        <time>2018-09-01T13:36:47Z</time>
      </trkpt>
      <trkpt lat="40.596217" lon="-5.084033">
        <ele>3387.0</ele>
        <time>2018-09-01T13:36:48Z</time>
      </trkpt>
      <trkpt lat="40.596283" lon="-5.083967">
        <ele>3384.0</ele>
        <time>2018-09-01T13:36:49Z</time>
      </trkpt>
      <trkpt lat="40.596350" lon="-5.083883">
        <ele>3381.0</ele>
        <time>2018-09-01T13:36:50Z</time>
      </trkpt>
      <trkpt lat="40.596417" lon="-5.083783">
        <ele>3378.0</ele>
        <time>2018-09-01T13:36:51Z</time>
      </trkpt>
      <trkpt lat="40.596467" lon="-5.083683">
        <ele>3376.0</ele>
        <time>2018-09-01T13:36:52Z</time>
      </trkpt>
      <trkpt lat="40.596533" lon="-5.083567">
        <ele>3372.0</ele>
        <time>2018-09-01T13:36:53Z</time>
      </trkpt>
      <trkpt lat="40.596600" lon="-5.083467">
        <ele>3369.0</ele>
        <time>2018-09-01T13:36:54Z</time>
      </trkpt>
      <trkpt lat="40.596667" lon="-5.083367">
        <ele>3366.0</ele>
        <time>2018-09-01T13:36:55Z</time>
      </trkpt>
      <trkpt lat="40.596733" lon="-5.083267">
        <ele>3363.0</ele>
        <time>2018-09-01T13:36:56Z</time>
      </trkpt>
      <trkpt lat="40.596783" lon="-5.083150">
        <ele>3360.0</ele>
        <time>2018-09-01T13:36:57Z</time>
      </trkpt>
      <trkpt lat="40.596833" lon="-5.083033">
        <ele>3357.0</ele>
        <time>2018-09-01T13:36:58Z</time>
      </trkpt>
      <trkpt lat="40.596900" lon="-5.082933">
        <ele>3353.0</ele>
        <time>2018-09-01T13:36:59Z</time>
      </trkpt>
      <trkpt lat="40.596950" lon="-5.082800">
        <ele>3349.0</ele>
        <time>2018-09-01T13:37:00Z</time>
      </trkpt>
      <trkpt lat="40.597000" lon="-5.082683">
        <ele>3345.0</ele>
        <time>2018-09-01T13:37:01Z</time>
      </trkpt>
      <trkpt lat="40.597050" lon="-5.082550">
        <ele>3341.0</ele>
        <time>2018-09-01T13:37:02Z</time>
      </trkpt>
      <trkpt lat="40.597117" lon="-5.082400">
        <ele>3337.0</ele>
        <time>2018-09-01T13:37:03Z</time>
      </trkpt>
      <trkpt lat="40.597167" lon="-5.082267">
        <ele>3334.0</ele>
        <time>2018-09-01T13:37:04Z</time>
      </trkpt>
      <trkpt lat="40.597233" lon="-5.082167">
        <ele>3332.0</ele>
        <time>2018-09-01T13:37:05Z</time>
      </trkpt>
      <trkpt lat="40.597283" lon="-5.082050">
        <ele>3329.0</ele>
        <time>2018-09-01T13:37:06Z</time>
      </trkpt>
      <trkpt lat="40.597350" lon="-5.081950">
        <ele>3326.0</ele>
        <time>2018-09-01T13:37:07Z</time>
      </trkpt>
      <trkpt lat="40.597400" lon="-5.081817">
        <ele>3323.0</ele>
        <time>2018-09-01T13:37:08Z</time>
      </trkpt>
      <trkpt lat="40.597467" lon="-5.081683">
        <ele>3321.0</ele>
        <time>2018-09-01T13:37:09Z</time>
      </trkpt>
      <trkpt lat="40.597517" lon="-5.081550">
        <ele>3319.0</ele>
        <time>2018-09-01T13:37:10Z</time>
      </trkpt>
      <trkpt lat="40.597567" lon="-5.081433">
        <ele>3317.0</ele>
        <time>2018-09-01T13:37:11Z</time>
      </trkpt>
      <trkpt lat="40.597617" lon="-5.081300">
        <ele>3313.0</ele>
        <time>2018-09-01T13:37:12Z</time>
      </trkpt>
      <trkpt lat="40.597650" lon="-5.081150">
        <ele>3309.0</ele>
        <time>2018-09-01T13:37:13Z</time>
      </trkpt>
      <trkpt lat="40.597700" lon="-5.081000">
        <ele>3304.0</ele>
        <time>2018-09-01T13:37:14Z</time>
      </trkpt>
      <trkpt lat="40.597750" lon="-5.080850">
        <ele>3299.0</ele>
        <time>2018-09-01T13:37:15Z</time>
      </trkpt>
      <trkpt lat="40.597817" lon="-5.080700">
        <ele>3294.0</ele>
        <time>2018-09-01T13:37:16Z</time>
      </trkpt>
      <trkpt lat="40.597883" lon="-5.080567">
        <ele>3290.0</ele>
        <time>2018-09-01T13:37:17Z</time>
      </trkpt>
      <trkpt lat="40.597950" lon="-5.080433">
        <ele>3286.0</ele>
        <time>2018-09-01T13:37:18Z</time>
      </trkpt>
      <trkpt lat="40.598017" lon="-5.080283">
        <ele>3282.0</ele>
        <time>2018-09-01T13:37:19Z</time>
      </trkpt>
      <trkpt lat="40.598067" lon="-5.080117">
        <ele>3278.0</ele>
        <time>2018-09-01T13:37:20Z</time>
      </trkpt>
      <trkpt lat="40.598133" lon="-5.079950">
        <ele>3274.0</ele>
        <time>2018-09-01T13:37:21Z</time>
      </trkpt>
      <trkpt lat="40.598183" lon="-5.079800">
        <ele>3270.0</ele>
        <time>2018-09-01T13:37:22Z</time>
      </trkpt>
      <trkpt lat="40.598250" lon="-5.079667">
        <ele>3267.0</ele>
        <time>2018-09-01T13:37:23Z</time>
      </trkpt>
      <trkpt lat="40.598300" lon="-5.079533">
        <ele>3263.0</ele>
        <time>2018-09-01T13:37:24Z</time>
      </trkpt>
      <trkpt lat="40.598367" lon="-5.079417">
        <ele>3259.0</ele>
        <time>2018-09-01T13:37:25Z</time>
      </trkpt>
      <trkpt lat="40.598433" lon="-5.079300">
        <ele>3254.0</ele>
        <time>2018-09-01T13:37:26Z</time>
      </trkpt>
      <trkpt lat="40.598533" lon="-5.079217">
        <ele>3248.0</ele>
        <time>2018-09-01T13:37:27Z</time>
      </trkpt>
      <trkpt lat="40.598633" lon="-5.079133">
        <ele>3243.0</ele>
        <time>2018-09-01T13:37:28Z</time>
      </trkpt>
      <trkpt lat="40.598733" lon="-5.079050">
        <ele>3238.0</ele>
        <time>2018-09-01T13:37:29Z</time>
      </trkpt>
      <trkpt lat="40.598833" lon="-5.078967">
        <ele>3235.0</ele>
        <time>2018-09-01T13:37:30Z</time>
      </trkpt>
      <trkpt lat="40.598917" lon="-5.078883">
        <ele>3232.0</ele>
        <time>2018-09-01T13:37:31Z</time>
      </trkpt>
      <trkpt lat="40.599000" lon="-5.078817">
        <ele>3229.0</ele>
        <time>2018-09-01T13:37:32Z</time>
      </trkpt>
      <trkpt lat="40.599100" lon="-5.078733">
        <ele>3225.0</ele>
        <time>2018-09-01T13:37:33Z</time>
      </trkpt>
      <trkpt lat="40.599183" lon="-5.078667">
        <ele>3221.0</ele>
        <time>2018-09-01T13:37:34Z</time>
      </trkpt>
      <trkpt lat="40.599283" lon="-5.078583">
        <ele>3218.0</ele>
        <time>2018-09-01T13:37:35Z</time>
      </trkpt>
      <trkpt lat="40.599383" lon="-5.078517">
        <ele>3215.0</ele>
        <time>2018-09-01T13:37:36Z</time>
      </trkpt>
      <trkpt lat="40.599467" lon="-5.078417">
        <ele>3213.0</ele>
        <time>2018-09-01T13:37:37Z</time>
      </trkpt>
      <trkpt lat="40.599550" lon="-5.078300">
        <ele>3211.0</ele>
        <time>2018-09-01T13:37:38Z</time>
      </trkpt>
      <trkpt lat="40.599633" lon="-5.078183">
        <ele>3209.0</ele>
        <time>2018-09-01T13:37:39Z</time>
      </trkpt>
      <trkpt lat="40.599717" lon="-5.078067">
        <ele>3207.0</ele>
        <time>2018-09-01T13:37:40Z</time>
      </trkpt>
      <trkpt lat="40.599817" lon="-5.077950">
        <ele>3205.0</ele>
        <time>2018-09-01T13:37:41Z</time>
      </trkpt>
      <trkpt lat="40.599900" lon="-5.077833">
        <ele>3203.0</ele>
        <time>2018-09-01T13:37:42Z</time>
      </trkpt>
      <trkpt lat="40.599983" lon="-5.077700">
        <ele>3201.0</ele>
        <time>2018-09-01T13:37:43Z</time>
      </trkpt>
      <trkpt lat="40.600067" lon="-5.077583">
        <ele>3198.0</ele>
        <time>2018-09-01T13:37:44Z</time>
      </trkpt>
      <trkpt lat="40.600167" lon="-5.077450">
        <ele>3196.0</ele>
        <time>2018-09-01T13:37:45Z</time>
      </trkpt>
      <trkpt lat="40.600250" lon="-5.077317">
        <ele>3193.0</ele>
        <time>2018-09-01T13:37:46Z</time>
      </trkpt>
      <trkpt lat="40.600333" lon="-5.077200">
        <ele>3191.0</ele>
        <time>2018-09-01T13:37:47Z</time>
      </trkpt>
      <trkpt lat="40.600417" lon="-5.077067">
        <ele>3189.0</ele>
        <time>2018-09-01T13:37:48Z</time>
      </trkpt>
      <trkpt lat="40.600517" lon="-5.076950">
        <ele>3186.0</ele>
        <time>2018-09-01T13:37:49Z</time>
      </trkpt>
      <trkpt lat="40.600617" lon="-5.076850">
        <ele>3184.0</ele>
        <time>2018-09-01T13:37:50Z</time>
      </trkpt>
      <trkpt lat="40.600717" lon="-5.076750">
        <ele>3182.0</ele>
        <time>2018-09-01T13:37:51Z</time>
      </trkpt>
      <trkpt lat="40.600817" lon="-5.076650">
        <ele>3182.0</ele>
        <time>2018-09-01T13:37:52Z</time>
      </trkpt>
      <trkpt lat="40.600900" lon="-5.076567">
        <ele>3181.0</ele>
        <time>2018-09-01T13:37:53Z</time>
      </trkpt>
      <trkpt lat="40.600967" lon="-5.076450">
        <ele>3180.0</ele>
        <time>2018-09-01T13:37:54Z</time>
      </trkpt>
      <trkpt lat="40.601033" lon="-5.076350">
        <ele>3178.0</ele>
        <time>2018-09-01T13:37:55Z</time>
      </trkpt>
      <trkpt lat="40.601100" lon="-5.076233">
        <ele>3175.0</ele>
        <time>2018-09-01T13:37:56Z</time>
      </trkpt>
      <trkpt lat="40.601200" lon="-5.076117">
        <ele>3172.0</ele>
        <time>2018-09-01T13:37:57Z</time>
      </trkpt>
      <trkpt lat="40.601283" lon="-5.076000">
        <ele>3170.0</ele>
        <time>2018-09-01T13:37:58Z</time>
      </trkpt>
      <trkpt lat="40.601367" lon="-5.075867">
        <ele>3168.0</ele>
        <time>2018-09-01T13:37:59Z</time>
      </trkpt>
      <trkpt lat="40.601433" lon="-5.075733">
        <ele>3167.0</ele>
        <time>2018-09-01T13:38:00Z</time>
      </trkpt>
      <trkpt lat="40.601517" lon="-5.075583">
        <ele>3165.0</ele>
        <time>2018-09-01T13:38:01Z</time>
      </trkpt>
      <trkpt lat="40.601583" lon="-5.075450">
        <ele>3164.0</ele>
        <time>2018-09-01T13:38:02Z</time>
      </trkpt>
      <trkpt lat="40.601667" lon="-5.075300">
        <ele>3164.0</ele>
        <time>2018-09-01T13:38:03Z</time>
      </trkpt>
      <trkpt lat="40.601750" lon="-5.075183">
        <ele>3163.0</ele>
        <time>2018-09-01T13:38:04Z</time>
      </trkpt>
      <trkpt lat="40.601833" lon="-5.075067">
        <ele>3161.0</ele>
        <time>2018-09-01T13:38:05Z</time>
      </trkpt>
      <trkpt lat="40.601917" lon="-5.074950">
        <ele>3161.0</ele>
        <time>2018-09-01T13:38:06Z</time>
      </trkpt>
      <trkpt lat="40.602000" lon="-5.074817">
        <ele>3160.0</ele>
        <time>2018-09-01T13:38:07Z</time>
      </trkpt>
      <trkpt lat="40.602083" lon="-5.074717">
        <ele>3159.0</ele>
        <time>2018-09-01T13:38:08Z</time>
      </trkpt>
      <trkpt lat="40.602167" lon="-5.074617">
        <ele>3157.0</ele>
        <time>2018-09-01T13:38:09Z</time>
      </trkpt>
      <trkpt lat="40.602267" lon="-5.074500">
        <ele>3156.0</ele>
        <time>2018-09-01T13:38:10Z</time>
      </trkpt>
      <trkpt lat="40.602367" lon="-5.074400">
        <ele>3155.0</ele>
        <time>2018-09-01T13:38:11Z</time>
      </trkpt>
      <trkpt lat="40.602467" lon="-5.074300">
        <ele>3156.0</ele>
        <time>2018-09-01T13:38:12Z</time>
      </trkpt>
      <trkpt lat="40.602567" lon="-5.074217">
        <ele>3156.0</ele>
        <time>2018-09-01T13:38:13Z</time>
      </trkpt>
      <trkpt lat="40.602650" lon="-5.074133">
        <ele>3156.0</ele>
        <time>2018-09-01T13:38:14Z</time>
      </trkpt>
      <trkpt lat="40.602750" lon="-5.074033">
        <ele>3155.0</ele>
        <time>2018-09-01T13:38:15Z</time>
      </trkpt>
      <trkpt lat="40.602867" lon="-5.073950">
        <ele>3154.0</ele>
        <time>2018-09-01T13:38:16Z</time>
      </trkpt>
      <trkpt lat="40.602983" lon="-5.073850">
        <ele>3154.0</ele>
        <time>2018-09-01T13:38:17Z</time>
      </trkpt>
      <trkpt lat="40.603083" lon="-5.073767">
        <ele>3155.0</ele>
        <time>2018-09-01T13:38:18Z</time>
      </trkpt>
      <trkpt lat="40.603167" lon="-5.073667">
        <ele>3157.0</ele>
        <time>2018-09-01T13:38:19Z</time>
      </trkpt>
      <trkpt lat="40.603250" lon="-5.073550">
        <ele>3158.0</ele>
        <time>2018-09-01T13:38:20Z</time>
      </trkpt>
      <trkpt lat="40.603333" lon="-5.073450">
        <ele>3159.0</ele>
        <time>2018-09-01T13:38:21Z</time>
      </trkpt>
      <trkpt lat="40.603417" lon="-5.073333">
        <ele>3159.0</ele>
        <time>2018-09-01T13:38:22Z</time>
      </trkpt>
      <trkpt lat="40.603517" lon="-5.073233">
        <ele>3159.0</ele>
        <time>2018-09-01T13:38:23Z</time>
      </trkpt>
      <trkpt lat="40.603600" lon="-5.073133">
        <ele>3158.0</ele>
        <time>2018-09-01T13:38:24Z</time>
      </trkpt>
      <trkpt lat="40.603700" lon="-5.073033">
        <ele>3157.0</ele>
        <time>2018-09-01T13:38:25Z</time>
      </trkpt>
      <trkpt lat="40.603800" lon="-5.072900">
        <ele>3155.0</ele>
        <time>2018-09-01T13:38:26Z</time>
      </trkpt>
      <trkpt lat="40.603883" lon="-5.072783">
        <ele>3154.0</ele>
        <time>2018-09-01T13:38:27Z</time>
      </trkpt>
      <trkpt lat="40.603983" lon="-5.072683">
        <ele>3153.0</ele>
        <time>2018-09-01T13:38:28Z</time>
      </trkpt>
      <trkpt lat="40.604083" lon="-5.072567">
        <ele>3152.0</ele>
        <time>2018-09-01T13:38:29Z</time>
      </trkpt>
      <trkpt lat="40.604183" lon="-5.072450">
        <ele>3149.0</ele>
        <time>2018-09-01T13:38:30Z</time>
      </trkpt>
      <trkpt lat="40.604283" lon="-5.072333">
        <ele>3147.0</ele>
        <time>2018-09-01T13:38:31Z</time>
      </trkpt>
      <trkpt lat="40.604383" lon="-5.072217">
        <ele>3146.0</ele>
        <time>2018-09-01T13:38:32Z</time>
      </trkpt>
      <trkpt lat="40.604467" lon="-5.072100">
        <ele>3146.0</ele>
        <time>2018-09-01T13:38:33Z</time>
      </trkpt>
      <trkpt lat="40.604550" lon="-5.072000">
        <ele>3146.0</ele>
        <time>2018-09-01T13:38:34Z</time>
      </trkpt>
      <trkpt lat="40.604617" lon="-5.071883">
        <ele>3146.0</ele>
        <time>2018-09-01T13:38:35Z</time>
      </trkpt>
      <trkpt lat="40.604683" lon="-5.071767">
        <ele>3145.0</ele>
        <time>2018-09-01T13:38:36Z</time>
      </trkpt>
      <trkpt lat="40.604750" lon="-5.071650">
        <ele>3142.0</ele>
        <time>2018-09-01T13:38:37Z</time>
      </trkpt>
      <trkpt lat="40.604833" lon="-5.071517">
        <ele>3140.0</ele>
        <time>2018-09-01T13:38:38Z</time>
      </trkpt>
      <trkpt lat="40.604917" lon="-5.071400">
        <ele>3137.0</ele>
        <time>2018-09-01T13:38:39Z</time>
      </trkpt>
      <trkpt lat="40.605000" lon="-5.071283">
        <ele>3134.0</ele>
        <time>2018-09-01T13:38:40Z</time>
      </trkpt>
      <trkpt lat="40.605083" lon="-5.071167">
        <ele>3132.0</ele>
        <time>2018-09-01T13:38:41Z</time>
      </trkpt>
      <trkpt lat="40.605167" lon="-5.071050">
        <ele>3131.0</ele>
        <time>2018-09-01T13:38:42Z</time>
      </trkpt>
      <trkpt lat="40.605250" lon="-5.070933">
        <ele>3129.0</ele>
        <time>2018-09-01T13:38:43Z</time>
      </trkpt>
      <trkpt lat="40.605333" lon="-5.070800">
        <ele>3126.0</ele>
        <time>2018-09-01T13:38:44Z</time>
      </trkpt>
      <trkpt lat="40.605417" lon="-5.070683">
        <ele>3123.0</ele>
        <time>2018-09-01T13:38:45Z</time>
      </trkpt>
      <trkpt lat="40.605500" lon="-5.070567">
        <ele>3121.0</ele>
        <time>2018-09-01T13:38:46Z</time>
      </trkpt>
      <trkpt lat="40.605600" lon="-5.070467">
        <ele>3118.0</ele>
        <time>2018-09-01T13:38:47Z</time>
      </trkpt>
      <trkpt lat="40.605700" lon="-5.070367">
        <ele>3115.0</ele>
        <time>2018-09-01T13:38:48Z</time>
      </trkpt>
      <trkpt lat="40.605800" lon="-5.070283">
        <ele>3112.0</ele>
        <time>2018-09-01T13:38:49Z</time>
      </trkpt>
      <trkpt lat="40.605917" lon="-5.070217">
        <ele>3110.0</ele>
        <time>2018-09-01T13:38:50Z</time>
      </trkpt>
      <trkpt lat="40.606033" lon="-5.070167">
        <ele>3108.0</ele>
        <time>2018-09-01T13:38:51Z</time>
      </trkpt>
      <trkpt lat="40.606150" lon="-5.070117">
        <ele>3106.0</ele>
        <time>2018-09-01T13:38:52Z</time>
      </trkpt>
      <trkpt lat="40.606250" lon="-5.070083">
        <ele>3104.0</ele>
        <time>2018-09-01T13:38:53Z</time>
      </trkpt>
      <trkpt lat="40.606350" lon="-5.070033">
        <ele>3103.0</ele>
        <time>2018-09-01T13:38:54Z</time>
      </trkpt>
      <trkpt lat="40.606467" lon="-5.069983">
        <ele>3100.0</ele>
        <time>2018-09-01T13:38:55Z</time>
      </trkpt>
      <trkpt lat="40.606583" lon="-5.069917">
        <ele>3098.0</ele>
        <time>2018-09-01T13:38:56Z</time>
      </trkpt>
      <trkpt lat="40.606700" lon="-5.069833">
        <ele>3096.0</ele>
        <time>2018-09-01T13:38:57Z</time>
      </trkpt>
      <trkpt lat="40.606817" lon="-5.069733">
        <ele>3095.0</ele>
        <time>2018-09-01T13:38:58Z</time>
      </trkpt>
      <trkpt lat="40.606917" lon="-5.069633">
        <ele>3093.0</ele>
        <time>2018-09-01T13:38:59Z</time>
      </trkpt>
      <trkpt lat="40.607017" lon="-5.069533">
        <ele>3091.0</ele>
        <time>2018-09-01T13:39:00Z</time>
      </trkpt>
      <trkpt lat="40.607117" lon="-5.069433">
        <ele>3089.0</ele>
        <time>2018-09-01T13:39:01Z</time>
      </trkpt>
      <trkpt lat="40.607233" lon="-5.069350">
        <ele>3086.0</ele>
        <time>2018-09-01T13:39:02Z</time>
      </trkpt>
      <trkpt lat="40.607350" lon="-5.069267">
        <ele>3084.0</ele>
        <time>2018-09-01T13:39:03Z</time>
      </trkpt>
      <trkpt lat="40.607450" lon="-5.069200">
        <ele>3082.0</ele>
        <time>2018-09-01T13:39:04Z</time>
      </trkpt>
      <trkpt lat="40.607567" lon="-5.069150">
        <ele>3078.0</ele>
        <time>2018-09-01T13:39:05Z</time>
      </trkpt>
      <trkpt lat="40.607683" lon="-5.069117">
        <ele>3075.0</ele>
        <time>2018-09-01T13:39:06Z</time>
      </trkpt>
      <trkpt lat="40.607800" lon="-5.069067">
        <ele>3071.0</ele>
        <time>2018-09-01T13:39:07Z</time>
      </trkpt>
      <trkpt lat="40.607900" lon="-5.069017">
        <ele>3069.0</ele>
        <time>2018-09-01T13:39:08Z</time>
      </trkpt>
      <trkpt lat="40.608017" lon="-5.068950">
        <ele>3067.0</ele>
        <time>2018-09-01T13:39:09Z</time>
      </trkpt>
      <trkpt lat="40.608117" lon="-5.068883">
        <ele>3064.0</ele>
        <time>2018-09-01T13:39:10Z</time>
      </trkpt>
      <trkpt lat="40.608233" lon="-5.068833">
        <ele>3062.0</ele>
        <time>2018-09-01T13:39:11Z</time>
      </trkpt>
      <trkpt lat="40.608333" lon="-5.068767">
        <ele>3061.0</ele>
        <time>2018-09-01T13:39:12Z</time>
      </trkpt>
      <trkpt lat="40.608433" lon="-5.068683">
        <ele>3059.0</ele>
        <time>2018-09-01T13:39:13Z</time>
      </trkpt>
      <trkpt lat="40.608533" lon="-5.068583">
        <ele>3058.0</ele>
        <time>2018-09-01T13:39:14Z</time>
      </trkpt>
      <trkpt lat="40.608617" lon="-5.068483">
        <ele>3056.0</ele>
        <time>2018-09-01T13:39:15Z</time>
      </trkpt>
      <trkpt lat="40.608700" lon="-5.068400">
        <ele>3056.0</ele>
        <time>2018-09-01T13:39:16Z</time>
      </trkpt>
      <trkpt lat="40.608783" lon="-5.068300">
        <ele>3055.0</ele>
        <time>2018-09-01T13:39:17Z</time>
      </trkpt>
      <trkpt lat="40.608850" lon="-5.068200">
        <ele>3053.0</ele>
        <time>2018-09-01T13:39:18Z</time>
      </trkpt>
      <trkpt lat="40.608917" lon="-5.068100">
        <ele>3051.0</ele>
        <time>2018-09-01T13:39:19Z</time>
      </trkpt>
      <trkpt lat="40.609000" lon="-5.067983">
        <ele>3048.0</ele>
        <time>2018-09-01T13:39:20Z</time>
      </trkpt>
      <trkpt lat="40.609067" lon="-5.067883">
        <ele>3046.0</ele>
        <time>2018-09-01T13:39:21Z</time>
      </trkpt>
      <trkpt lat="40.609150" lon="-5.067783">
        <ele>3044.0</ele>
        <time>2018-09-01T13:39:22Z</time>
      </trkpt>
      <trkpt lat="40.609233" lon="-5.067683">
        <ele>3042.0</ele>
        <time>2018-09-01T13:39:23Z</time>
      </trkpt>
      <trkpt lat="40.609300" lon="-5.067567">
        <ele>3040.0</ele>
        <time>2018-09-01T13:39:24Z</time>
      </trkpt>
      <trkpt lat="40.609383" lon="-5.067483">
        <ele>3039.0</ele>
        <time>2018-09-01T13:39:25Z</time>
      </trkpt>
      <trkpt lat="40.609450" lon="-5.067383">
        <ele>3037.0</ele>
        <time>2018-09-01T13:39:26Z</time>
      </trkpt>
      <trkpt lat="40.609550" lon="-5.067300">
        <ele>3034.0</ele>
        <time>2018-09-01T13:39:27Z</time>
      </trkpt>
      <trkpt lat="40.609633" lon="-5.067233">
        <ele>3032.0</ele>
        <time>2018-09-01T13:39:28Z</time>
      </trkpt>
      <trkpt lat="40.609733" lon="-5.067183">
        <ele>3031.0</ele>
        <time>2018-09-01T13:39:29Z</time>
      </trkpt>
      <trkpt lat="40.609817" lon="-5.067117">
        <ele>3029.0</ele>
        <time>2018-09-01T13:39:30Z</time>
      </trkpt>
      <trkpt lat="40.609900" lon="-5.067050">
        <ele>3028.0</ele>
        <time>2018-09-01T13:39:31Z</time>
      </trkpt>
      <trkpt lat="40.609983" lon="-5.067000">
        <ele>3026.0</ele>
        <time>2018-09-01T13:39:32Z</time>
      </trkpt>
      <trkpt lat="40.610083" lon="-5.066950">
        <ele>3025.0</ele>
        <time>2018-09-01T13:39:33Z</time>
      </trkpt>
      <trkpt lat="40.610167" lon="-5.066917">
        <ele>3023.0</ele>
        <time>2018-09-01T13:39:34Z</time>
      </trkpt>
      <trkpt lat="40.610267" lon="-5.066867">
        <ele>3022.0</ele>
        <time>2018-09-01T13:39:35Z</time>
      </trkpt>
      <trkpt lat="40.610350" lon="-5.066817">
        <ele>3021.0</ele>
        <time>2018-09-01T13:39:36Z</time>
      </trkpt>
      <trkpt lat="40.610417" lon="-5.066750">
        <ele>3020.0</ele>
        <time>2018-09-01T13:39:37Z</time>
      </trkpt>
      <trkpt lat="40.610500" lon="-5.066683">
        <ele>3018.0</ele>
        <time>2018-09-01T13:39:38Z</time>
      </trkpt>
      <trkpt lat="40.610583" lon="-5.066600">
        <ele>3016.0</ele>
        <time>2018-09-01T13:39:39Z</time>
      </trkpt>
      <trkpt lat="40.610667" lon="-5.066533">
        <ele>3014.0</ele>
        <time>2018-09-01T13:39:40Z</time>
      </trkpt>
      <trkpt lat="40.610750" lon="-5.066467">
        <ele>3012.0</ele>
        <time>2018-09-01T13:39:41Z</time>
      </trkpt>
      <trkpt lat="40.610850" lon="-5.066400">
        <ele>3009.0</ele>
        <time>2018-09-01T13:39:42Z</time>
      </trkpt>
      <trkpt lat="40.610950" lon="-5.066317">
        <ele>3007.0</ele>
        <time>2018-09-01T13:39:43Z</time>
      </trkpt>
      <trkpt lat="40.611033" lon="-5.066233">
        <ele>3005.0</ele>
        <time>2018-09-01T13:39:44Z</time>
      </trkpt>
      <trkpt lat="40.611133" lon="-5.066150">
        <ele>3003.0</ele>
        <time>2018-09-01T13:39:45Z</time>
      </trkpt>
      <trkpt lat="40.611217" lon="-5.066050">
        <ele>3001.0</ele>
        <time>2018-09-01T13:39:46Z</time>
      </trkpt>
      <trkpt lat="40.611317" lon="-5.065967">
        <ele>2999.0</ele>
        <time>2018-09-01T13:39:47Z</time>
      </trkpt>
      <trkpt lat="40.611400" lon="-5.065883">
        <ele>2998.0</ele>
        <time>2018-09-01T13:39:48Z</time>
      </trkpt>
      <trkpt lat="40.611500" lon="-5.065800">
        <ele>2996.0</ele>
        <time>2018-09-01T13:39:49Z</time>
      </trkpt>
      <trkpt lat="40.611583" lon="-5.065700">
        <ele>2994.0</ele>
        <time>2018-09-01T13:39:50Z</time>
      </trkpt>
      <trkpt lat="40.611667" lon="-5.065600">
        <ele>2992.0</ele>
        <time>2018-09-01T13:39:51Z</time>
      </trkpt>
      <trkpt lat="40.611750" lon="-5.065483">
        <ele>2990.0</ele>
        <time>2018-09-01T13:39:52Z</time>
      </trkpt>
      <trkpt lat="40.611833" lon="-5.065367">
        <ele>2989.0</ele>
        <time>2018-09-01T13:39:53Z</time>
      </trkpt>
      <trkpt lat="40.611900" lon="-5.065267">
        <ele>2988.0</ele>
        <time>2018-09-01T13:39:54Z</time>
      </trkpt>
      <trkpt lat="40.611967" lon="-5.065150">
        <ele>2986.0</ele>
        <time>2018-09-01T13:39:55Z</time>
      </trkpt>
      <trkpt lat="40.612050" lon="-5.065033">
        <ele>2984.0</ele>
        <time>2018-09-01T13:39:56Z</time>
      </trkpt>
      <trkpt lat="40.612117" lon="-5.064917">
        <ele>2982.0</ele>
        <time>2018-09-01T13:39:57Z</time>
      </trkpt>
      <trkpt lat="40.612183" lon="-5.064783">
        <ele>2980.0</ele>
        <time>2018-09-01T13:39:58Z</time>
      </trkpt>
      <trkpt lat="40.612267" lon="-5.064650">
        <ele>2978.0</ele>
        <time>2018-09-01T13:39:59Z</time>
      </trkpt>
      <trkpt lat="40.612333" lon="-5.064533">
        <ele>2976.0</ele>
        <time>2018-09-01T13:40:00Z</time>
      </trkpt>
      <trkpt lat="40.612400" lon="-5.064417">
        <ele>2974.0</ele>
        <time>2018-09-01T13:40:01Z</time>
      </trkpt>
      <trkpt lat="40.612483" lon="-5.064283">
        <ele>2973.0</ele>
        <time>2018-09-01T13:40:02Z</time>
      </trkpt>
      <trkpt lat="40.612533" lon="-5.064167">
        <ele>2971.0</ele>
        <time>2018-09-01T13:40:03Z</time>
      </trkpt>
      <trkpt lat="40.612600" lon="-5.064050">
        <ele>2969.0</ele>
        <time>2018-09-01T13:40:04Z</time>
      </trkpt>
      <trkpt lat="40.612667" lon="-5.063917">
        <ele>2967.0</ele>
        <time>2018-09-01T13:40:05Z</time>
      </trkpt>
      <trkpt lat="40.612733" lon="-5.063783">
        <ele>2964.0</ele>
        <time>2018-09-01T13:40:06Z</time>
      </trkpt>
      <trkpt lat="40.612817" lon="-5.063650">
        <ele>2962.0</ele>
        <time>2018-09-01T13:40:07Z</time>
      </trkpt>
      <trkpt lat="40.612883" lon="-5.063517">
        <ele>2960.0</ele>
        <time>2018-09-01T13:40:08Z</time>
      </trkpt>
      <trkpt lat="40.612950" lon="-5.063400">
        <ele>2959.0</ele>
        <time>2018-09-01T13:40:09Z</time>
      </trkpt>
      <trkpt lat="40.613000" lon="-5.063267">
        <ele>2958.0</ele>
        <time>2018-09-01T13:40:10Z</time>
      </trkpt>
      <trkpt lat="40.613067" lon="-5.063150">
        <ele>2957.0</ele>
        <time>2018-09-01T13:40:11Z</time>
      </trkpt>
      <trkpt lat="40.613117" lon="-5.063033">
        <ele>2955.0</ele>
        <time>2018-09-01T13:40:12Z</time>
      </trkpt>
      <trkpt lat="40.613183" lon="-5.062933">
        <ele>2954.0</ele>
        <time>2018-09-01T13:40:13Z</time>
      </trkpt>
      <trkpt lat="40.613250" lon="-5.062833">
        <ele>2952.0</ele>
        <time>2018-09-01T13:40:14Z</time>
      </trkpt>
      <trkpt lat="40.613333" lon="-5.062750">
        <ele>2951.0</ele>
        <time>2018-09-01T13:40:15Z</time>
      </trkpt>
      <trkpt lat="40.613400" lon="-5.062633">
        <ele>2950.0</ele>
        <time>2018-09-01T13:40:16Z</time>
      </trkpt>
      <trkpt lat="40.613467" lon="-5.062550">
        <ele>2948.0</ele>
        <time>2018-09-01T13:40:17Z</time>
      </trkpt>
      <trkpt lat="40.613533" lon="-5.062450">
        <ele>2946.0</ele>
        <time>2018-09-01T13:40:18Z</time>
      </trkpt>
      <trkpt lat="40.613617" lon="-5.062367">
        <ele>2945.0</ele>
        <time>2018-09-01T13:40:19Z</time>
      </trkpt>
      <trkpt lat="40.613683" lon="-5.062267">
        <ele>2944.0</ele>
        <time>2018-09-01T13:40:20Z</time>
      </trkpt>
      <trkpt lat="40.613750" lon="-5.062183">
        <ele>2944.0</ele>
        <time>2018-09-01T13:40:21Z</time>
      </trkpt>
      <trkpt lat="40.613817" lon="-5.062083">
        <ele>2943.0</ele>
        <time>2018-09-01T13:40:22Z</time>
      </trkpt>
      <trkpt lat="40.613883" lon="-5.061967">
        <ele>2942.0</ele>
        <time>2018-09-01T13:40:23Z</time>
      </trkpt>
      <trkpt lat="40.613950" lon="-5.061867">
        <ele>2942.0</ele>
        <time>2018-09-01T13:40:24Z</time>
      </trkpt>
      <trkpt lat="40.614000" lon="-5.061750">
        <ele>2941.0</ele>
        <time>2018-09-01T13:40:25Z</time>
      </trkpt>
      <trkpt lat="40.614067" lon="-5.061633">
        <ele>2940.0</ele>
        <time>2018-09-01T13:40:26Z</time>
      </trkpt>
      <trkpt lat="40.614117" lon="-5.061533">
        <ele>2939.0</ele>
        <time>2018-09-01T13:40:27Z</time>
      </trkpt>
      <trkpt lat="40.614167" lon="-5.061417">
        <ele>2939.0</ele>
        <time>2018-09-01T13:40:28Z</time>
      </trkpt>
      <trkpt lat="40.614217" lon="-5.061300">
        <ele>2938.0</ele>
        <time>2018-09-01T13:40:29Z</time>
      </trkpt>
      <trkpt lat="40.614267" lon="-5.061183">
        <ele>2937.0</ele>
        <time>2018-09-01T13:40:30Z</time>
      </trkpt>
      <trkpt lat="40.614317" lon="-5.061067">
        <ele>2935.0</ele>
        <time>2018-09-01T13:40:31Z</time>
      </trkpt>
      <trkpt lat="40.614383" lon="-5.060967">
        <ele>2934.0</ele>
        <time>2018-09-01T13:40:32Z</time>
      </trkpt>
      <trkpt lat="40.614450" lon="-5.060867">
        <ele>2932.0</ele>
        <time>2018-09-01T13:40:33Z</time>
      </trkpt>
      <trkpt lat="40.614533" lon="-5.060783">
        <ele>2931.0</ele>
        <time>2018-09-01T13:40:34Z</time>
      </trkpt>
      <trkpt lat="40.614617" lon="-5.060683">
        <ele>2929.0</ele>
        <time>2018-09-01T13:40:35Z</time>
      </trkpt>
      <trkpt lat="40.614700" lon="-5.060600">
        <ele>2928.0</ele>
        <time>2018-09-01T13:40:36Z</time>
      </trkpt>
      <trkpt lat="40.614800" lon="-5.060517">
        <ele>2927.0</ele>
        <time>2018-09-01T13:40:37Z</time>
      </trkpt>
      <trkpt lat="40.614883" lon="-5.060450">
        <ele>2927.0</ele>
        <time>2018-09-01T13:40:38Z</time>
      </trkpt>
      <trkpt lat="40.614983" lon="-5.060383">
        <ele>2927.0</ele>
        <time>2018-09-01T13:40:39Z</time>
      </trkpt>
      <trkpt lat="40.615067" lon="-5.060317">
        <ele>2926.0</ele>
        <time>2018-09-01T13:40:40Z</time>
      </trkpt>
      <trkpt lat="40.615167" lon="-5.060233">
        <ele>2926.0</ele>
        <time>2018-09-01T13:40:41Z</time>
      </trkpt>
      <trkpt lat="40.615267" lon="-5.060167">
        <ele>2926.0</ele>
        <time>2018-09-01T13:40:42Z</time>
      </trkpt>
      <trkpt lat="40.615350" lon="-5.060100">
        <ele>2927.0</ele>
        <time>2018-09-01T13:40:43Z</time>
      </trkpt>
      <trkpt lat="40.615450" lon="-5.060033">
        <ele>2929.0</ele>
        <time>2018-09-01T13:40:44Z</time>
      </trkpt>
      <trkpt lat="40.615550" lon="-5.060000">
        <ele>2931.0</ele>
        <time>2018-09-01T13:40:45Z</time>
      </trkpt>
      <trkpt lat="40.615633" lon="-5.059967">
        <ele>2932.0</ele>
        <time>2018-09-01T13:40:46Z</time>
      </trkpt>
      <trkpt lat="40.615717" lon="-5.059900">
        <ele>2934.0</ele>
        <time>2018-09-01T13:40:47Z</time>
      </trkpt>
      <trkpt lat="40.615800" lon="-5.059833">
        <ele>2936.0</ele>
        <time>2018-09-01T13:40:48Z</time>
      </trkpt>
      <trkpt lat="40.615900" lon="-5.059767">
        <ele>2938.0</ele>
        <time>2018-09-01T13:40:49Z</time>
      </trkpt>
      <trkpt lat="40.616000" lon="-5.059700">
        <ele>2939.0</ele>
        <time>2018-09-01T13:40:50Z</time>
      </trkpt>
      <trkpt lat="40.616083" lon="-5.059650">
        <ele>2941.0</ele>
        <time>2018-09-01T13:40:51Z</time>
      </trkpt>
      <trkpt lat="40.616183" lon="-5.059617">
        <ele>2943.0</ele>
        <time>2018-09-01T13:40:52Z</time>
      </trkpt>
      <trkpt lat="40.616283" lon="-5.059600">
        <ele>2944.0</ele>
        <time>2018-09-01T13:40:53Z</time>
      </trkpt>
      <trkpt lat="40.616367" lon="-5.059567">
        <ele>2947.0</ele>
        <time>2018-09-01T13:40:54Z</time>
      </trkpt>
      <trkpt lat="40.616433" lon="-5.059533">
        <ele>2951.0</ele>
        <time>2018-09-01T13:40:55Z</time>
      </trkpt>
      <trkpt lat="40.616500" lon="-5.059483">
        <ele>2955.0</ele>
        <time>2018-09-01T13:40:56Z</time>
      </trkpt>
      <trkpt lat="40.616550" lon="-5.059433">
        <ele>2957.0</ele>
        <time>2018-09-01T13:40:57Z</time>
      </trkpt>
      <trkpt lat="40.616600" lon="-5.059367">
        <ele>2959.0</ele>
        <time>2018-09-01T13:40:58Z</time>
      </trkpt>
      <trkpt lat="40.616633" lon="-5.059283">
        <ele>2960.0</ele>
        <time>2018-09-01T13:40:59Z</time>
      </trkpt>
      <trkpt lat="40.616650" lon="-5.059167">
        <ele>2959.0</ele>
        <time>2018-09-01T13:41:00Z</time>
      </trkpt>
      <trkpt lat="40.616683" lon="-5.059017">
        <ele>2957.0</ele>
        <time>2018-09-01T13:41:01Z</time>
      </trkpt>
      <trkpt lat="40.616683" lon="-5.058850">
        <ele>2957.0</ele>
        <time>2018-09-01T13:41:02Z</time>
      </trkpt>
      <trkpt lat="40.616667" lon="-5.058683">
        <ele>2957.0</ele>
        <time>2018-09-01T13:41:03Z</time>
      </trkpt>
      <trkpt lat="40.616617" lon="-5.058517">
        <ele>2959.0</ele>
        <time>2018-09-01T13:41:04Z</time>
      </trkpt>
      <trkpt lat="40.616550" lon="-5.058383">
        <ele>2961.0</ele>
        <time>2018-09-01T13:41:05Z</time>
      </trkpt>
      <trkpt lat="40.616483" lon="-5.058250">
        <ele>2962.0</ele>
        <time>2018-09-01T13:41:06Z</time>
      </trkpt>
      <trkpt lat="40.616417" lon="-5.058150">
        <ele>2964.0</ele>
        <time>2018-09-01T13:41:07Z</time>
      </trkpt>
      <trkpt lat="40.616317" lon="-5.058033">
        <ele>2964.0</ele>
        <time>2018-09-01T13:41:08Z</time>
      </trkpt>
      <trkpt lat="40.616233" lon="-5.057933">
        <ele>2964.0</ele>
        <time>2018-09-01T13:41:09Z</time>
      </trkpt>
      <trkpt lat="40.616117" lon="-5.057850">
        <ele>2966.0</ele>
        <time>2018-09-01T13:41:10Z</time>
      </trkpt>
      <trkpt lat="40.616000" lon="-5.057767">
        <ele>2968.0</ele>
        <time>2018-09-01T13:41:11Z</time>
      </trkpt>
      <trkpt lat="40.615883" lon="-5.057733">
        <ele>2970.0</ele>
        <time>2018-09-01T13:41:12Z</time>
      </trkpt>
      <trkpt lat="40.615767" lon="-5.057700">
        <ele>2972.0</ele>
        <time>2018-09-01T13:41:13Z</time>
      </trkpt>
      <trkpt lat="40.615667" lon="-5.057667">
        <ele>2975.0</ele>
        <time>2018-09-01T13:41:14Z</time>
      </trkpt>
      <trkpt lat="40.615567" lon="-5.057667">
        <ele>2977.0</ele>
        <time>2018-09-01T13:41:15Z</time>
      </trkpt>
      <trkpt lat="40.615467" lon="-5.057667">
        <ele>2978.0</ele>
        <time>2018-09-01T13:41:16Z</time>
      </trkpt>
      <trkpt lat="40.615367" lon="-5.057700">
        <ele>2978.0</ele>
        <time>2018-09-01T13:41:17Z</time>
      </trkpt>
      <trkpt lat="40.615283" lon="-5.057750">
        <ele>2979.0</ele>
        <time>2018-09-01T13:41:18Z</time>
      </trkpt>
      <trkpt lat="40.615200" lon="-5.057817">
        <ele>2980.0</ele>
        <time>2018-09-01T13:41:19Z</time>
      </trkpt>
      <trkpt lat="40.615133" lon="-5.057900">
        <ele>2981.0</ele>
        <time>2018-09-01T13:41:20Z</time>
      </trkpt>
      <trkpt lat="40.615083" lon="-5.058000">
        <ele>2982.0</ele>
        <time>2018-09-01T13:41:21Z</time>
      </trkpt>
      <trkpt lat="40.615067" lon="-5.058133">
        <ele>2982.0</ele>
        <time>2018-09-01T13:41:22Z</time>
      </trkpt>
      <trkpt lat="40.615083" lon="-5.058250">
        <ele>2982.0</ele>
        <time>2018-09-01T13:41:23Z</time>
      </trkpt>
      <trkpt lat="40.615117" lon="-5.058350">
        <ele>2982.0</ele>
        <time>2018-09-01T13:41:24Z</time>
      </trkpt>
      <trkpt lat="40.615167" lon="-5.058433">
        <ele>2983.0</ele>
        <time>2018-09-01T13:41:25Z</time>
      </trkpt>
      <trkpt lat="40.615217" lon="-5.058517">
        <ele>2984.0</ele>
        <time>2018-09-01T13:41:26Z</time>
      </trkpt>
      <trkpt lat="40.615267" lon="-5.058583">
        <ele>2985.0</ele>
        <time>2018-09-01T13:41:27Z</time>
      </trkpt>
      <trkpt lat="40.615333" lon="-5.058633">
        <ele>2986.0</ele>
        <time>2018-09-01T13:41:28Z</time>
      </trkpt>
      <trkpt lat="40.615400" lon="-5.058667">
        <ele>2986.0</ele>
        <time>2018-09-01T13:41:29Z</time>
      </trkpt>
      <trkpt lat="40.615483" lon="-5.058717">
        <ele>2987.0</ele>
        <time>2018-09-01T13:41:30Z</time>
      </trkpt>
      <trkpt lat="40.615550" lon="-5.058750">
        <ele>2988.0</ele>
        <time>2018-09-01T13:41:31Z</time>
      </trkpt>
      <trkpt lat="40.615617" lon="-5.058783">
        <ele>2990.0</ele>
        <time>2018-09-01T13:41:32Z</time>
      </trkpt>
      <trkpt lat="40.615683" lon="-5.058817">
        <ele>2992.0</ele>
        <time>2018-09-01T13:41:33Z</time>
      </trkpt>
      <trkpt lat="40.615733" lon="-5.058850">
        <ele>2995.0</ele>
        <time>2018-09-01T13:41:34Z</time>
      </trkpt>
      <trkpt lat="40.615783" lon="-5.058867">
        <ele>2996.0</ele>
        <time>2018-09-01T13:41:35Z</time>
      </trkpt>
      <trkpt lat="40.615833" lon="-5.058883">
        <ele>2997.0</ele>
        <time>2018-09-01T13:41:36Z</time>
      </trkpt>
      <trkpt lat="40.615900" lon="-5.058900">
        <ele>2998.0</ele>
        <time>2018-09-01T13:41:37Z</time>
      </trkpt>
      <trkpt lat="40.615983" lon="-5.058900">
        <ele>2999.0</ele>
        <time>2018-09-01T13:41:38Z</time>
      </trkpt>
      <trkpt lat="40.616050" lon="-5.058883">
        <ele>3001.0</ele>
        <time>2018-09-01T13:41:39Z</time>
      </trkpt>
      <trkpt lat="40.616133" lon="-5.058867">
        <ele>3004.0</ele>
        <time>2018-09-01T13:41:40Z</time>
      </trkpt>
      <trkpt lat="40.616217" lon="-5.058850">
        <ele>3007.0</ele>
        <time>2018-09-01T13:41:41Z</time>
      </trkpt>
      <trkpt lat="40.616283" lon="-5.058850">
        <ele>3010.0</ele>
        <time>2018-09-01T13:41:42Z</time>
      </trkpt>
      <trkpt lat="40.616367" lon="-5.058833">
        <ele>3014.0</ele>
        <time>2018-09-01T13:41:43Z</time>
      </trkpt>
      <trkpt lat="40.616450" lon="-5.058833">
        <ele>3018.0</ele>
        <time>2018-09-01T13:41:44Z</time>
      </trkpt>
      <trkpt lat="40.616517" lon="-5.058833">
        <ele>3022.0</ele>
        <time>2018-09-01T13:41:45Z</time>
      </trkpt>
      <trkpt lat="40.616583" lon="-5.058800">
        <ele>3027.0</ele>
        <time>2018-09-01T13:41:46Z</time>
      </trkpt>
      <trkpt lat="40.616633" lon="-5.058750">
        <ele>3030.0</ele>
        <time>2018-09-01T13:41:47Z</time>
      </trkpt>
      <trkpt lat="40.616683" lon="-5.058667">
        <ele>3032.0</ele>
        <time>2018-09-01T13:41:48Z</time>
      </trkpt>
      <trkpt lat="40.616683" lon="-5.058567">
        <ele>3034.0</ele>
        <time>2018-09-01T13:41:49Z</time>
      </trkpt>
      <trkpt lat="40.616667" lon="-5.058433">
        <ele>3036.0</ele>
        <time>2018-09-01T13:41:50Z</time>
      </trkpt>
      <trkpt lat="40.616600" lon="-5.058317">
        <ele>3038.0</ele>
        <time>2018-09-01T13:41:51Z</time>
      </trkpt>
      <trkpt lat="40.616517" lon="-5.058217">
        <ele>3040.0</ele>
        <time>2018-09-01T13:41:52Z</time>
      </trkpt>
      <trkpt lat="40.616400" lon="-5.058150">
        <ele>3043.0</ele>
        <time>2018-09-01T13:41:53Z</time>
      </trkpt>
      <trkpt lat="40.616283" lon="-5.058133">
        <ele>3046.0</ele>
        <time>2018-09-01T13:41:54Z</time>
      </trkpt>
      <trkpt lat="40.616167" lon="-5.058167">
        <ele>3049.0</ele>
        <time>2018-09-01T13:41:55Z</time>
      </trkpt>
      <trkpt lat="40.616050" lon="-5.058250">
        <ele>3053.0</ele>
        <time>2018-09-01T13:41:56Z</time>
      </trkpt>
      <trkpt lat="40.615967" lon="-5.058367">
        <ele>3056.0</ele>
        <time>2018-09-01T13:41:57Z</time>
      </trkpt>
      <trkpt lat="40.615917" lon="-5.058483">
        <ele>3059.0</ele>
        <time>2018-09-01T13:41:58Z</time>
      </trkpt>
      <trkpt lat="40.615900" lon="-5.058600">
        <ele>3064.0</ele>
        <time>2018-09-01T13:41:59Z</time>
      </trkpt>
      <trkpt lat="40.615900" lon="-5.058717">
        <ele>3068.0</ele>
        <time>2018-09-01T13:42:00Z</time>
      </trkpt>
      <trkpt lat="40.615933" lon="-5.058800">
        <ele>3072.0</ele>
        <time>2018-09-01T13:42:01Z</time>
      </trkpt>
      <trkpt lat="40.615983" lon="-5.058883">
        <ele>3075.0</ele>
        <time>2018-09-01T13:42:02Z</time>
      </trkpt>
      <trkpt lat="40.616050" lon="-5.058917">
        <ele>3078.0</ele>
        <time>2018-09-01T13:42:03Z</time>
      </trkpt>
      <trkpt lat="40.616150" lon="-5.058917">
        <ele>3080.0</ele>
        <time>2018-09-01T13:42:04Z</time>
      </trkpt>
      <trkpt lat="40.616233" lon="-5.058867">
        <ele>3082.0</ele>
        <time>2018-09-01T13:42:05Z</time>
      </trkpt>
      <trkpt lat="40.616300" lon="-5.058750">
        <ele>3084.0</ele>
        <time>2018-09-01T13:42:06Z</time>
      </trkpt>
      <trkpt lat="40.616317" lon="-5.058617">
        <ele>3086.0</ele>
        <time>2018-09-01T13:42:07Z</time>
      </trkpt>
      <trkpt lat="40.616267" lon="-5.058483">
        <ele>3089.0</ele>
        <time>2018-09-01T13:42:08Z</time>
      </trkpt>
      <trkpt lat="40.616200" lon="-5.058367">
        <ele>3093.0</ele>
        <time>2018-09-01T13:42:09Z</time>
      </trkpt>
      <trkpt lat="40.616100" lon="-5.058300">
        <ele>3097.0</ele>
        <time>2018-09-01T13:42:10Z</time>
      </trkpt>
      <trkpt lat="40.615983" lon="-5.058267">
        <ele>3100.0</ele>
        <time>2018-09-01T13:42:11Z</time>
      </trkpt>
      <trkpt lat="40.615867" lon="-5.058267">
        <ele>3104.0</ele>
        <time>2018-09-01T13:42:12Z</time>
      </trkpt>
      <trkpt lat="40.615750" lon="-5.058300">
        <ele>3107.0</ele>
        <time>2018-09-01T13:42:13Z</time>
      </trkpt>
      <trkpt lat="40.615650" lon="-5.058367">
        <ele>3110.0</ele>
        <time>2018-09-01T13:42:14Z</time>
      </trkpt>
      <trkpt lat="40.615583" lon="-5.058467">
        <ele>3114.0</ele>
        <time>2018-09-01T13:42:15Z</time>
      </trkpt>
      <trkpt lat="40.615533" lon="-5.058600">
        <ele>3117.0</ele>
        <time>2018-09-01T13:42:16Z</time>
      </trkpt>
      <trkpt lat="40.615533" lon="-5.058717">
        <ele>3120.0</ele>
        <time>2018-09-01T13:42:17Z</time>
      </trkpt>
      <trkpt lat="40.615583" lon="-5.058817">
        <ele>3123.0</ele>
        <time>2018-09-01T13:42:18Z</time>
      </trkpt>
      <trkpt lat="40.615667" lon="-5.058883">
        <ele>3126.0</ele>
        <time>2018-09-01T13:42:19Z</time>
      </trkpt>
      <trkpt lat="40.615767" lon="-5.058900">
        <ele>3129.0</ele>
        <time>2018-09-01T13:42:20Z</time>
      </trkpt>
      <trkpt lat="40.615867" lon="-5.058867">
        <ele>3132.0</ele>
        <time>2018-09-01T13:42:21Z</time>
      </trkpt>
      <trkpt lat="40.615950" lon="-5.058800">
        <ele>3135.0</ele>
        <time>2018-09-01T13:42:22Z</time>
      </trkpt>
      <trkpt lat="40.616017" lon="-5.058667">
        <ele>3137.0</ele>
        <time>2018-09-01T13:42:23Z</time>
      </trkpt>
      <trkpt lat="40.616050" lon="-5.058517">
        <ele>3139.0</ele>
        <time>2018-09-01T13:42:24Z</time>
      </trkpt>
      <trkpt lat="40.616033" lon="-5.058367">
        <ele>3142.0</ele>
        <time>2018-09-01T13:42:25Z</time>
      </trkpt>
      <trkpt lat="40.615967" lon="-5.058217">
        <ele>3145.0</ele>
        <time>2018-09-01T13:42:26Z</time>
      </trkpt>
      <trkpt lat="40.615867" lon="-5.058100">
        <ele>3148.0</ele>
        <time>2018-09-01T13:42:27Z</time>
      </trkpt>
      <trkpt lat="40.615750" lon="-5.058033">
        <ele>3151.0</ele>
        <time>2018-09-01T13:42:28Z</time>
      </trkpt>
      <trkpt lat="40.615633" lon="-5.058000">
        <ele>3155.0</ele>
        <time>2018-09-01T13:42:29Z</time>
      </trkpt>
      <trkpt lat="40.615517" lon="-5.057983">
        <ele>3161.0</ele>
        <time>2018-09-01T13:42:30Z</time>
      </trkpt>
      <trkpt lat="40.615400" lon="-5.058000">
        <ele>3166.0</ele>
        <time>2018-09-01T13:42:31Z</time>
      </trkpt>
      <trkpt lat="40.615300" lon="-5.058033">
        <ele>3171.0</ele>
        <time>2018-09-01T13:42:32Z</time>
      </trkpt>
      <trkpt lat="40.615217" lon="-5.058083">
        <ele>3177.0</ele>
        <time>2018-09-01T13:42:33Z</time>
      </trkpt>
      <trkpt lat="40.615150" lon="-5.058150">
        <ele>3181.0</ele>
        <time>2018-09-01T13:42:34Z</time>
      </trkpt>
      <trkpt lat="40.615100" lon="-5.058233">
        <ele>3184.0</ele>
        <time>2018-09-01T13:42:35Z</time>
      </trkpt>
      <trkpt lat="40.615083" lon="-5.058350">
        <ele>3187.0</ele>
        <time>2018-09-01T13:42:36Z</time>
      </trkpt>
      <trkpt lat="40.615100" lon="-5.058483">
        <ele>3190.0</ele>
        <time>2018-09-01T13:42:37Z</time>
      </trkpt>
      <trkpt lat="40.615150" lon="-5.058600">
        <ele>3193.0</ele>
        <time>2018-09-01T13:42:38Z</time>
      </trkpt>
      <trkpt lat="40.615250" lon="-5.058667">
        <ele>3196.0</ele>
        <time>2018-09-01T13:42:39Z</time>
      </trkpt>
      <trkpt lat="40.615367" lon="-5.058683">
        <ele>3200.0</ele>
        <time>2018-09-01T13:42:40Z</time>
      </trkpt>
      <trkpt lat="40.615467" lon="-5.058633">
        <ele>3204.0</ele>
        <time>2018-09-01T13:42:41Z</time>
      </trkpt>
      <trkpt lat="40.615550" lon="-5.058550">
        <ele>3209.0</ele>
        <time>2018-09-01T13:42:42Z</time>
      </trkpt>
      <trkpt lat="40.615617" lon="-5.058450">
        <ele>3213.0</ele>
        <time>2018-09-01T13:42:43Z</time>
      </trkpt>
      <trkpt lat="40.615650" lon="-5.058350">
        <ele>3216.0</ele>
        <time>2018-09-01T13:42:44Z</time>
      </trkpt>
      <trkpt lat="40.615667" lon="-5.058217">
        <ele>3218.0</ele>
        <time>2018-09-01T13:42:45Z</time>
      </trkpt>
      <trkpt lat="40.615683" lon="-5.058067">
        <ele>3220.0</ele>
        <time>2018-09-01T13:42:46Z</time>
      </trkpt>
      <trkpt lat="40.615650" lon="-5.057917">
        <ele>3221.0</ele>
        <time>2018-09-01T13:42:47Z</time>
      </trkpt>
      <trkpt lat="40.615583" lon="-5.057750">
        <ele>3223.0</ele>
        <time>2018-09-01T13:42:48Z</time>
      </trkpt>
      <trkpt lat="40.615483" lon="-5.057617">
        <ele>3225.0</ele>
        <time>2018-09-01T13:42:49Z</time>
      </trkpt>
      <trkpt lat="40.615367" lon="-5.057517">
        <ele>3228.0</ele>
        <time>2018-09-01T13:42:50Z</time>
      </trkpt>
      <trkpt lat="40.615233" lon="-5.057483">
        <ele>3231.0</ele>
        <time>2018-09-01T13:42:51Z</time>
      </trkpt>
      <trkpt lat="40.615117" lon="-5.057517">
        <ele>3236.0</ele>
        <time>2018-09-01T13:42:52Z</time>
      </trkpt>
      <trkpt lat="40.615017" lon="-5.057550">
        <ele>3241.0</ele>
        <time>2018-09-01T13:42:53Z</time>
      </trkpt>
      <trkpt lat="40.614950" lon="-5.057600">
        <ele>3247.0</ele>
        <time>2018-09-01T13:42:54Z</time>
      </trkpt>
      <trkpt lat="40.614900" lon="-5.057633">
        <ele>3252.0</ele>
        <time>2018-09-01T13:42:55Z</time>
      </trkpt>
      <trkpt lat="40.614867" lon="-5.057683">
        <ele>3256.0</ele>
        <time>2018-09-01T13:42:56Z</time>
      </trkpt>
      <trkpt lat="40.614817" lon="-5.057750">
        <ele>3258.0</ele>
        <time>2018-09-01T13:42:57Z</time>
      </trkpt>
      <trkpt lat="40.614800" lon="-5.057850">
        <ele>3259.0</ele>
        <time>2018-09-01T13:42:58Z</time>
      </trkpt>
      <trkpt lat="40.614800" lon="-5.057983">
        <ele>3259.0</ele>
        <time>2018-09-01T13:42:59Z</time>
      </trkpt>
      <trkpt lat="40.614850" lon="-5.058117">
        <ele>3261.0</ele>
        <time>2018-09-01T13:43:00Z</time>
      </trkpt>
      <trkpt lat="40.614950" lon="-5.058217">
        <ele>3263.0</ele>
        <time>2018-09-01T13:43:01Z</time>
      </trkpt>
      <trkpt lat="40.615100" lon="-5.058267">
        <ele>3266.0</ele>
        <time>2018-09-01T13:43:02Z</time>
      </trkpt>
      <trkpt lat="40.615233" lon="-5.058233">
        <ele>3270.0</ele>
        <time>2018-09-01T13:43:03Z</time>
      </trkpt>
      <trkpt lat="40.615350" lon="-5.058150">
        <ele>3276.0</ele>
        <time>2018-09-01T13:43:04Z</time>
      </trkpt>
      <trkpt lat="40.615417" lon="-5.058050">
        <ele>3283.0</ele>
        <time>2018-09-01T13:43:05Z</time>
      </trkpt>
      <trkpt lat="40.615467" lon="-5.057933">
        <ele>3290.0</ele>
        <time>2018-09-01T13:43:06Z</time>
      </trkpt>
      <trkpt lat="40.615500" lon="-5.057817">
        <ele>3295.0</ele>
        <time>2018-09-01T13:43:07Z</time>
      </trkpt>
      <trkpt lat="40.615533" lon="-5.057700">
        <ele>3297.0</ele>
        <time>2018-09-01T13:43:08Z</time>
      </trkpt>
      <trkpt lat="40.615550" lon="-5.057550">
        <ele>3298.0</ele>
        <time>2018-09-01T13:43:09Z</time>
      </trkpt>
      <trkpt lat="40.615550" lon="-5.057400">
        <ele>3299.0</ele>
        <time>2018-09-01T13:43:10Z</time>
      </trkpt>
      <trkpt lat="40.615500" lon="-5.057233">
        <ele>3300.0</ele>
        <time>2018-09-01T13:43:11Z</time>
      </trkpt>
      <trkpt lat="40.615433" lon="-5.057067">
        <ele>3300.0</ele>
        <time>2018-09-01T13:43:12Z</time>
      </trkpt>
      <trkpt lat="40.615333" lon="-5.056950">
        <ele>3302.0</ele>
        <time>2018-09-01T13:43:13Z</time>
      </trkpt>
      <trkpt lat="40.615233" lon="-5.056850">
        <ele>3305.0</ele>
        <time>2018-09-01T13:43:14Z</time>
      </trkpt>
      <trkpt lat="40.615150" lon="-5.056783">
        <ele>3309.0</ele>
        <time>2018-09-01T13:43:15Z</time>
      </trkpt>
      <trkpt lat="40.615067" lon="-5.056767">
        <ele>3314.0</ele>
        <time>2018-09-01T13:43:16Z</time>
      </trkpt>
      <trkpt lat="40.615000" lon="-5.056767">
        <ele>3317.0</ele>
        <time>2018-09-01T13:43:17Z</time>
      </trkpt>
      <trkpt lat="40.614933" lon="-5.056800">
        <ele>3318.0</ele>
        <time>2018-09-01T13:43:18Z</time>
      </trkpt>
      <trkpt lat="40.614900" lon="-5.056867">
        <ele>3318.0</ele>
        <time>2018-09-01T13:43:19Z</time>
      </trkpt>
      <trkpt lat="40.614867" lon="-5.056933">
        <ele>3316.0</ele>
        <time>2018-09-01T13:43:20Z</time>
      </trkpt>
      <trkpt lat="40.614850" lon="-5.057033">
        <ele>3315.0</ele>
        <time>2018-09-01T13:43:21Z</time>
      </trkpt>
      <trkpt lat="40.614850" lon="-5.057150">
        <ele>3317.0</ele>
        <time>2018-09-01T13:43:22Z</time>
      </trkpt>
      <trkpt lat="40.614867" lon="-5.057283">
        <ele>3319.0</ele>
        <time>2018-09-01T13:43:23Z</time>
      </trkpt>
      <trkpt lat="40.614900" lon="-5.057400">
        <ele>3323.0</ele>
        <time>2018-09-01T13:43:24Z</time>
      </trkpt>
      <trkpt lat="40.614967" lon="-5.057500">
        <ele>3326.0</ele>
        <time>2018-09-01T13:43:25Z</time>
      </trkpt>
      <trkpt lat="40.615067" lon="-5.057567">
        <ele>3329.0</ele>
        <time>2018-09-01T13:43:26Z</time>
      </trkpt>
      <trkpt lat="40.615183" lon="-5.057617">
        <ele>3331.0</ele>
        <time>2018-09-01T13:43:27Z</time>
      </trkpt>
      <trkpt lat="40.615317" lon="-5.057617">
        <ele>3334.0</ele>
        <time>2018-09-01T13:43:28Z</time>
      </trkpt>
      <trkpt lat="40.615450" lon="-5.057600">
        <ele>3338.0</ele>
        <time>2018-09-01T13:43:29Z</time>
      </trkpt>
      <trkpt lat="40.615567" lon="-5.057533">
        <ele>3343.0</ele>
        <time>2018-09-01T13:43:30Z</time>
      </trkpt>
      <trkpt lat="40.615667" lon="-5.057450">
        <ele>3348.0</ele>
        <time>2018-09-01T13:43:31Z</time>
      </trkpt>
      <trkpt lat="40.615733" lon="-5.057367">
        <ele>3352.0</ele>
        <time>2018-09-01T13:43:32Z</time>
      </trkpt>
      <trkpt lat="40.615800" lon="-5.057250">
        <ele>3354.0</ele>
        <time>2018-09-01T13:43:33Z</time>
      </trkpt>
      <trkpt lat="40.615867" lon="-5.057133">
        <ele>3355.0</ele>
        <time>2018-09-01T13:43:34Z</time>
      </trkpt>
      <trkpt lat="40.615933" lon="-5.057000">
        <ele>3355.0</ele>
        <time>2018-09-01T13:43:35Z</time>
      </trkpt>
      <trkpt lat="40.615983" lon="-5.056833">
        <ele>3355.0</ele>
        <time>2018-09-01T13:43:36Z</time>
      </trkpt>
      <trkpt lat="40.615983" lon="-5.056667">
        <ele>3355.0</ele>
        <time>2018-09-01T13:43:37Z</time>
      </trkpt>
      <trkpt lat="40.615950" lon="-5.056500">
        <ele>3353.0</ele>
        <time>2018-09-01T13:43:38Z</time>
      </trkpt>
      <trkpt lat="40.615867" lon="-5.056333">
        <ele>3351.0</ele>
        <time>2018-09-01T13:43:39Z</time>
      </trkpt>
      <trkpt lat="40.615767" lon="-5.056217">
        <ele>3350.0</ele>
        <time>2018-09-01T13:43:40Z</time>
      </trkpt>
      <trkpt lat="40.615667" lon="-5.056133">
        <ele>3350.0</ele>
        <time>2018-09-01T13:43:41Z</time>
      </trkpt>
      <trkpt lat="40.615550" lon="-5.056067">
        <ele>3352.0</ele>
        <time>2018-09-01T13:43:42Z</time>
      </trkpt>
      <trkpt lat="40.615450" lon="-5.056033">
        <ele>3355.0</ele>
        <time>2018-09-01T13:43:43Z</time>
      </trkpt>
      <trkpt lat="40.615367" lon="-5.056017">
        <ele>3359.0</ele>
        <time>2018-09-01T13:43:44Z</time>
      </trkpt>
      <trkpt lat="40.615317" lon="-5.056000">
        <ele>3361.0</ele>
        <time>2018-09-01T13:43:45Z</time>
      </trkpt>
      <trkpt lat="40.615283" lon="-5.056000">
        <ele>3362.0</ele>
        <time>2018-09-01T13:43:46Z</time>
      </trkpt>
      <trkpt lat="40.615233" lon="-5.056017">
        <ele>3361.0</ele>
        <time>2018-09-01T13:43:47Z</time>
      </trkpt>
      <trkpt lat="40.615183" lon="-5.056050">
        <ele>3359.0</ele>
        <time>2018-09-01T13:43:48Z</time>
      </trkpt>
      <trkpt lat="40.615133" lon="-5.056117">
        <ele>3356.0</ele>
        <time>2018-09-01T13:43:49Z</time>
      </trkpt>
      <trkpt lat="40.615083" lon="-5.056200">
        <ele>3354.0</ele>
        <time>2018-09-01T13:43:50Z</time>
      </trkpt>
      <trkpt lat="40.615050" lon="-5.056317">
        <ele>3353.0</ele>
        <time>2018-09-01T13:43:51Z</time>
      </trkpt>
      <trkpt lat="40.615033" lon="-5.056417">
        <ele>3353.0</ele>
        <time>2018-09-01T13:43:52Z</time>
      </trkpt>
      <trkpt lat="40.615017" lon="-5.056500">
        <ele>3353.0</ele>
        <time>2018-09-01T13:43:53Z</time>
      </trkpt>
      <trkpt lat="40.615033" lon="-5.056600">
        <ele>3354.0</ele>
        <time>2018-09-01T13:43:54Z</time>
      </trkpt>
      <trkpt lat="40.615067" lon="-5.056717">
        <ele>3354.0</ele>
        <time>2018-09-01T13:43:55Z</time>
      </trkpt>
      <trkpt lat="40.615100" lon="-5.056817">
        <ele>3354.0</ele>
        <time>2018-09-01T13:43:56Z</time>
      </trkpt>
      <trkpt lat="40.615167" lon="-5.056933">
        <ele>3354.0</ele>
        <time>2018-09-01T13:43:57Z</time>
      </trkpt>
      <trkpt lat="40.615250" lon="-5.057017">
        <ele>3355.0</ele>
        <time>2018-09-01T13:43:58Z</time>
      </trkpt>
      <trkpt lat="40.615350" lon="-5.057067">
        <ele>3357.0</ele>
        <time>2018-09-01T13:43:59Z</time>
      </trkpt>
      <trkpt lat="40.615467" lon="-5.057050">
        <ele>3358.0</ele>
        <time>2018-09-01T13:44:00Z</time>
      </trkpt>
      <trkpt lat="40.615567" lon="-5.057017">
        <ele>3360.0</ele>
        <time>2018-09-01T13:44:01Z</time>
      </trkpt>
      <trkpt lat="40.615667" lon="-5.056950">
        <ele>3363.0</ele>
        <time>2018-09-01T13:44:02Z</time>
      </trkpt>
      <trkpt lat="40.615733" lon="-5.056883">
        <ele>3367.0</ele>
        <time>2018-09-01T13:44:03Z</time>
      </trkpt>
      <trkpt lat="40.615800" lon="-5.056817">
        <ele>3369.0</ele>
        <time>2018-09-01T13:44:04Z</time>
      </trkpt>
      <trkpt lat="40.615833" lon="-5.056717">
        <ele>3369.0</ele>
        <time>2018-09-01T13:44:05Z</time>
      </trkpt>
      <trkpt lat="40.615867" lon="-5.056617">
        <ele>3368.0</ele>
        <time>2018-09-01T13:44:06Z</time>
      </trkpt>
      <trkpt lat="40.615883" lon="-5.056483">
        <ele>3366.0</ele>
        <time>2018-09-01T13:44:07Z</time>
      </trkpt>
      <trkpt lat="40.615867" lon="-5.056333">
        <ele>3363.0</ele>
        <time>2018-09-01T13:44:08Z</time>
      </trkpt>
      <trkpt lat="40.615817" lon="-5.056167">
        <ele>3361.0</ele>
        <time>2018-09-01T13:44:09Z</time>
      </trkpt>
      <trkpt lat="40.615750" lon="-5.056017">
        <ele>3360.0</ele>
        <time>2018-09-01T13:44:10Z</time>
      </trkpt>
      <trkpt lat="40.615667" lon="-5.055883">
        <ele>3361.0</ele>
        <time>2018-09-01T13:44:11Z</time>
      </trkpt>
      <trkpt lat="40.615567" lon="-5.055800">
        <ele>3362.0</ele>
        <time>2018-09-01T13:44:12Z</time>
      </trkpt>
      <trkpt lat="40.615483" lon="-5.055750">
        <ele>3364.0</ele>
        <time>2018-09-01T13:44:13Z</time>
      </trkpt>
      <trkpt lat="40.615417" lon="-5.055717">
        <ele>3365.0</ele>
        <time>2018-09-01T13:44:14Z</time>
      </trkpt>
      <trkpt lat="40.615350" lon="-5.055717">
        <ele>3364.0</ele>
        <time>2018-09-01T13:44:15Z</time>
      </trkpt>
      <trkpt lat="40.615283" lon="-5.055717">
        <ele>3363.0</ele>
        <time>2018-09-01T13:44:16Z</time>
      </trkpt>
      <trkpt lat="40.615200" lon="-5.055733">
        <ele>3361.0</ele>
        <time>2018-09-01T13:44:17Z</time>
      </trkpt>
      <trkpt lat="40.615133" lon="-5.055783">
        <ele>3359.0</ele>
        <time>2018-09-01T13:44:18Z</time>
      </trkpt>
      <trkpt lat="40.615067" lon="-5.055833">
        <ele>3359.0</ele>
        <time>2018-09-01T13:44:19Z</time>
      </trkpt>
      <trkpt lat="40.615000" lon="-5.055917">
        <ele>3359.0</ele>
        <time>2018-09-01T13:44:20Z</time>
      </trkpt>
      <trkpt lat="40.614983" lon="-5.056000">
        <ele>3360.0</ele>
        <time>2018-09-01T13:44:21Z</time>
      </trkpt>
      <trkpt lat="40.614967" lon="-5.056117">
        <ele>3359.0</ele>
        <time>2018-09-01T13:44:22Z</time>
      </trkpt>
      <trkpt lat="40.614967" lon="-5.056217">
        <ele>3359.0</ele>
        <time>2018-09-01T13:44:23Z</time>
      </trkpt>
      <trkpt lat="40.614983" lon="-5.056350">
        <ele>3358.0</ele>
        <time>2018-09-01T13:44:24Z</time>
      </trkpt>
      <trkpt lat="40.615017" lon="-5.056467">
        <ele>3358.0</ele>
        <time>2018-09-01T13:44:25Z</time>
      </trkpt>
      <trkpt lat="40.615067" lon="-5.056600">
        <ele>3357.0</ele>
        <time>2018-09-01T13:44:26Z</time>
      </trkpt>
      <trkpt lat="40.615150" lon="-5.056717">
        <ele>3357.0</ele>
        <time>2018-09-01T13:44:27Z</time>
      </trkpt>
      <trkpt lat="40.615250" lon="-5.056800">
        <ele>3356.0</ele>
        <time>2018-09-01T13:44:28Z</time>
      </trkpt>
      <trkpt lat="40.615367" lon="-5.056850">
        <ele>3356.0</ele>
        <time>2018-09-01T13:44:29Z</time>
      </trkpt>
      <trkpt lat="40.615467" lon="-5.056850">
        <ele>3357.0</ele>
        <time>2018-09-01T13:44:30Z</time>
      </trkpt>
      <trkpt lat="40.615567" lon="-5.056850">
        <ele>3357.0</ele>
        <time>2018-09-01T13:44:31Z</time>
      </trkpt>
      <trkpt lat="40.615683" lon="-5.056867">
        <ele>3358.0</ele>
        <time>2018-09-01T13:44:32Z</time>
      </trkpt>
      <trkpt lat="40.615783" lon="-5.056867">
        <ele>3358.0</ele>
        <time>2018-09-01T13:44:33Z</time>
      </trkpt>
      <trkpt lat="40.615883" lon="-5.056850">
        <ele>3359.0</ele>
        <time>2018-09-01T13:44:34Z</time>
      </trkpt>
      <trkpt lat="40.615983" lon="-5.056817">
        <ele>3359.0</ele>
        <time>2018-09-01T13:44:35Z</time>
      </trkpt>
      <trkpt lat="40.616067" lon="-5.056767">
        <ele>3359.0</ele>
        <time>2018-09-01T13:44:36Z</time>
      </trkpt>
      <trkpt lat="40.616150" lon="-5.056717">
        <ele>3360.0</ele>
        <time>2018-09-01T13:44:37Z</time>
      </trkpt>
      <trkpt lat="40.616217" lon="-5.056667">
        <ele>3361.0</ele>
        <time>2018-09-01T13:44:38Z</time>
      </trkpt>
      <trkpt lat="40.616283" lon="-5.056617">
        <ele>3361.0</ele>
        <time>2018-09-01T13:44:39Z</time>
      </trkpt>
      <trkpt lat="40.616350" lon="-5.056567">
        <ele>3360.0</ele>
        <time>2018-09-01T13:44:40Z</time>
      </trkpt>
      <trkpt lat="40.616433" lon="-5.056500">
        <ele>3359.0</ele>
        <time>2018-09-01T13:44:41Z</time>
      </trkpt>
      <trkpt lat="40.616517" lon="-5.056433">
        <ele>3358.0</ele>
        <time>2018-09-01T13:44:42Z</time>
      </trkpt>
      <trkpt lat="40.616600" lon="-5.056350">
        <ele>3356.0</ele>
        <time>2018-09-01T13:44:43Z</time>
      </trkpt>
      <trkpt lat="40.616667" lon="-5.056267">
        <ele>3355.0</ele>
        <time>2018-09-01T13:44:44Z</time>
      </trkpt>
      <trkpt lat="40.616733" lon="-5.056183">
        <ele>3355.0</ele>
        <time>2018-09-01T13:44:45Z</time>
      </trkpt>
      <trkpt lat="40.616800" lon="-5.056100">
        <ele>3354.0</ele>
        <time>2018-09-01T13:44:46Z</time>
      </trkpt>
      <trkpt lat="40.616883" lon="-5.056033">
        <ele>3353.0</ele>
        <time>2018-09-01T13:44:47Z</time>
      </trkpt>
      <trkpt lat="40.616950" lon="-5.055950">
        <ele>3351.0</ele>
        <time>2018-09-01T13:44:48Z</time>
      </trkpt>
      <trkpt lat="40.617050" lon="-5.055867">
        <ele>3349.0</ele>
        <time>2018-09-01T13:44:49Z</time>
      </trkpt>
      <trkpt lat="40.617133" lon="-5.055783">
        <ele>3347.0</ele>
        <time>2018-09-01T13:44:50Z</time>
      </trkpt>
      <trkpt lat="40.617233" lon="-5.055700">
        <ele>3346.0</ele>
        <time>2018-09-01T13:44:51Z</time>
      </trkpt>
      <trkpt lat="40.617333" lon="-5.055617">
        <ele>3346.0</ele>
        <time>2018-09-01T13:44:52Z</time>
      </trkpt>
      <trkpt lat="40.617417" lon="-5.055550">
        <ele>3345.0</ele>
        <time>2018-09-01T13:44:53Z</time>
      </trkpt>
      <trkpt lat="40.617500" lon="-5.055483">
        <ele>3344.0</ele>
        <time>2018-09-01T13:44:54Z</time>
      </trkpt>
      <trkpt lat="40.617583" lon="-5.055417">
        <ele>3342.0</ele>
        <time>2018-09-01T13:44:55Z</time>
      </trkpt>
      <trkpt lat="40.617650" lon="-5.055350">
        <ele>3340.0</ele>
        <time>2018-09-01T13:44:56Z</time>
      </trkpt>
      <trkpt lat="40.617733" lon="-5.055267">
        <ele>3338.0</ele>
        <time>2018-09-01T13:44:57Z</time>
      </trkpt>
      <trkpt lat="40.617817" lon="-5.055183">
        <ele>3335.0</ele>
        <time>2018-09-01T13:44:58Z</time>
      </trkpt>
      <trkpt lat="40.617900" lon="-5.055083">
        <ele>3333.0</ele>
        <time>2018-09-01T13:44:59Z</time>
      </trkpt>
      <trkpt lat="40.617983" lon="-5.054983">
        <ele>3331.0</ele>
        <time>2018-09-01T13:45:00Z</time>
      </trkpt>
      <trkpt lat="40.618067" lon="-5.054883">
        <ele>3329.0</ele>
        <time>2018-09-01T13:45:01Z</time>
      </trkpt>
      <trkpt lat="40.618150" lon="-5.054783">
        <ele>3328.0</ele>
        <time>2018-09-01T13:45:02Z</time>
      </trkpt>
      <trkpt lat="40.618217" lon="-5.054700">
        <ele>3327.0</ele>
        <time>2018-09-01T13:45:03Z</time>
      </trkpt>
      <trkpt lat="40.618300" lon="-5.054600">
        <ele>3326.0</ele>
        <time>2018-09-01T13:45:04Z</time>
      </trkpt>
      <trkpt lat="40.618367" lon="-5.054517">
        <ele>3325.0</ele>
        <time>2018-09-01T13:45:05Z</time>
      </trkpt>
      <trkpt lat="40.618433" lon="-5.054417">
        <ele>3324.0</ele>
        <time>2018-09-01T13:45:06Z</time>
      </trkpt>
      <trkpt lat="40.618517" lon="-5.054317">
        <ele>3323.0</ele>
        <time>2018-09-01T13:45:07Z</time>
      </trkpt>
      <trkpt lat="40.618583" lon="-5.054217">
        <ele>3322.0</ele>
        <time>2018-09-01T13:45:08Z</time>
      </trkpt>
      <trkpt lat="40.618650" lon="-5.054133">
        <ele>3321.0</ele>
        <time>2018-09-01T13:45:09Z</time>
      </trkpt>
      <trkpt lat="40.618733" lon="-5.054050">
        <ele>3321.0</ele>
        <time>2018-09-01T13:45:10Z</time>
      </trkpt>
      <trkpt lat="40.618800" lon="-5.053950">
        <ele>3320.0</ele>
        <time>2018-09-01T13:45:11Z</time>
      </trkpt>
      <trkpt lat="40.618883" lon="-5.053867">
        <ele>3318.0</ele>
        <time>2018-09-01T13:45:12Z</time>
      </trkpt>
      <trkpt lat="40.618967" lon="-5.053783">
        <ele>3317.0</ele>
        <time>2018-09-01T13:45:13Z</time>
      </trkpt>
      <trkpt lat="40.619067" lon="-5.053700">
        <ele>3315.0</ele>
        <time>2018-09-01T13:45:14Z</time>
      </trkpt>
      <trkpt lat="40.619150" lon="-5.053633">
        <ele>3313.0</ele>
        <time>2018-09-01T13:45:15Z</time>
      </trkpt>
      <trkpt lat="40.619250" lon="-5.053550">
        <ele>3311.0</ele>
        <time>2018-09-01T13:45:16Z</time>
      </trkpt>
      <trkpt lat="40.619350" lon="-5.053450">
        <ele>3309.0</ele>
        <time>2018-09-01T13:45:17Z</time>
      </trkpt>
      <trkpt lat="40.619433" lon="-5.053350">
        <ele>3308.0</ele>
        <time>2018-09-01T13:45:18Z</time>
      </trkpt>
      <trkpt lat="40.619517" lon="-5.053250">
        <ele>3308.0</ele>
        <time>2018-09-01T13:45:19Z</time>
      </trkpt>
      <trkpt lat="40.619600" lon="-5.053150">
        <ele>3307.0</ele>
        <time>2018-09-01T13:45:20Z</time>
      </trkpt>
      <trkpt lat="40.619667" lon="-5.053050">
        <ele>3305.0</ele>
        <time>2018-09-01T13:45:21Z</time>
      </trkpt>
      <trkpt lat="40.619750" lon="-5.052933">
        <ele>3304.0</ele>
        <time>2018-09-01T13:45:22Z</time>
      </trkpt>
      <trkpt lat="40.619833" lon="-5.052833">
        <ele>3303.0</ele>
        <time>2018-09-01T13:45:23Z</time>
      </trkpt>
      <trkpt lat="40.619900" lon="-5.052733">
        <ele>3301.0</ele>
        <time>2018-09-01T13:45:24Z</time>
      </trkpt>
      <trkpt lat="40.619967" lon="-5.052650">
        <ele>3299.0</ele>
        <time>2018-09-01T13:45:25Z</time>
      </trkpt>
      <trkpt lat="40.620050" lon="-5.052550">
        <ele>3296.0</ele>
        <time>2018-09-01T13:45:26Z</time>
      </trkpt>
      <trkpt lat="40.620133" lon="-5.052450">
        <ele>3293.0</ele>
        <time>2018-09-01T13:45:27Z</time>
      </trkpt>
      <trkpt lat="40.620217" lon="-5.052350">
        <ele>3291.0</ele>
        <time>2018-09-01T13:45:28Z</time>
      </trkpt>
      <trkpt lat="40.620300" lon="-5.052233">
        <ele>3289.0</ele>
        <time>2018-09-01T13:45:29Z</time>
      </trkpt>
      <trkpt lat="40.620383" lon="-5.052133">
        <ele>3287.0</ele>
        <time>2018-09-01T13:45:30Z</time>
      </trkpt>
      <trkpt lat="40.620450" lon="-5.052017">
        <ele>3285.0</ele>
        <time>2018-09-01T13:45:31Z</time>
      </trkpt>
      <trkpt lat="40.620533" lon="-5.051917">
        <ele>3282.0</ele>
        <time>2018-09-01T13:45:32Z</time>
      </trkpt>
      <trkpt lat="40.620600" lon="-5.051800">
        <ele>3280.0</ele>
        <time>2018-09-01T13:45:33Z</time>
      </trkpt>
      <trkpt lat="40.620700" lon="-5.051683">
        <ele>3278.0</ele>
        <time>2018-09-01T13:45:34Z</time>
      </trkpt>
      <trkpt lat="40.620783" lon="-5.051583">
        <ele>3276.0</ele>
        <time>2018-09-01T13:45:35Z</time>
      </trkpt>
      <trkpt lat="40.620867" lon="-5.051467">
        <ele>3274.0</ele>
        <time>2018-09-01T13:45:36Z</time>
      </trkpt>
      <trkpt lat="40.620950" lon="-5.051350">
        <ele>3273.0</ele>
        <time>2018-09-01T13:45:37Z</time>
      </trkpt>
      <trkpt lat="40.621033" lon="-5.051217">
        <ele>3272.0</ele>
        <time>2018-09-01T13:45:38Z</time>
      </trkpt>
      <trkpt lat="40.621100" lon="-5.051100">
        <ele>3271.0</ele>
        <time>2018-09-01T13:45:39Z</time>
      </trkpt>
      <trkpt lat="40.621183" lon="-5.050983">
        <ele>3269.0</ele>
        <time>2018-09-01T13:45:40Z</time>
      </trkpt>
      <trkpt lat="40.621267" lon="-5.050867">
        <ele>3268.0</ele>
        <time>2018-09-01T13:45:41Z</time>
      </trkpt>
      <trkpt lat="40.621350" lon="-5.050750">
        <ele>3266.0</ele>
        <time>2018-09-01T13:45:42Z</time>
      </trkpt>
      <trkpt lat="40.621433" lon="-5.050633">
        <ele>3265.0</ele>
        <time>2018-09-01T13:45:43Z</time>
      </trkpt>
      <trkpt lat="40.621517" lon="-5.050533">
        <ele>3262.0</ele>
        <time>2018-09-01T13:45:44Z</time>
      </trkpt>
      <trkpt lat="40.621617" lon="-5.050417">
        <ele>3260.0</ele>
        <time>2018-09-01T13:45:45Z</time>
      </trkpt>
      <trkpt lat="40.621717" lon="-5.050300">
        <ele>3257.0</ele>
        <time>2018-09-01T13:45:46Z</time>
      </trkpt>
      <trkpt lat="40.621817" lon="-5.050183">
        <ele>3255.0</ele>
        <time>2018-09-01T13:45:47Z</time>
      </trkpt>
      <trkpt lat="40.621917" lon="-5.050083">
        <ele>3254.0</ele>
        <time>2018-09-01T13:45:48Z</time>
      </trkpt>
      <trkpt lat="40.622000" lon="-5.049983">
        <ele>3253.0</ele>
        <time>2018-09-01T13:45:49Z</time>
      </trkpt>
      <trkpt lat="40.622100" lon="-5.049883">
        <ele>3250.0</ele>
        <time>2018-09-01T13:45:50Z</time>
      </trkpt>
      <trkpt lat="40.622183" lon="-5.049800">
        <ele>3248.0</ele>
        <time>2018-09-01T13:45:51Z</time>
      </trkpt>
      <trkpt lat="40.622283" lon="-5.049683">
        <ele>3245.0</ele>
        <time>2018-09-01T13:45:52Z</time>
      </trkpt>
      <trkpt lat="40.622383" lon="-5.049567">
        <ele>3243.0</ele>
        <time>2018-09-01T13:45:53Z</time>
      </trkpt>
      <trkpt lat="40.622467" lon="-5.049450">
        <ele>3242.0</ele>
        <time>2018-09-01T13:45:54Z</time>
      </trkpt>
      <trkpt lat="40.622550" lon="-5.049350">
        <ele>3242.0</ele>
        <time>2018-09-01T13:45:55Z</time>
      </trkpt>
      <trkpt lat="40.622617" lon="-5.049250">
        <ele>3241.0</ele>
        <time>2018-09-01T13:45:56Z</time>
      </trkpt>
      <trkpt lat="40.622700" lon="-5.049167">
        <ele>3238.0</ele>
        <time>2018-09-01T13:45:57Z</time>
      </trkpt>
      <trkpt lat="40.622800" lon="-5.049083">
        <ele>3235.0</ele>
        <time>2018-09-01T13:45:58Z</time>
      </trkpt>
      <trkpt lat="40.622900" lon="-5.049000">
        <ele>3231.0</ele>
        <time>2018-09-01T13:45:59Z</time>
      </trkpt>
      <trkpt lat="40.623000" lon="-5.048917">
        <ele>3227.0</ele>
        <time>2018-09-01T13:46:00Z</time>
      </trkpt>
      <trkpt lat="40.623100" lon="-5.048817">
        <ele>3224.0</ele>
        <time>2018-09-01T13:46:01Z</time>
      </trkpt>
      <trkpt lat="40.623200" lon="-5.048700">
        <ele>3222.0</ele>
        <time>2018-09-01T13:46:02Z</time>
      </trkpt>
      <trkpt lat="40.623283" lon="-5.048617">
        <ele>3219.0</ele>
        <time>2018-09-01T13:46:03Z</time>
      </trkpt>
      <trkpt lat="40.623383" lon="-5.048517">
        <ele>3217.0</ele>
        <time>2018-09-01T13:46:04Z</time>
      </trkpt>
      <trkpt lat="40.623483" lon="-5.048433">
        <ele>3213.0</ele>
        <time>2018-09-01T13:46:05Z</time>
      </trkpt>
      <trkpt lat="40.623600" lon="-5.048350">
        <ele>3210.0</ele>
        <time>2018-09-01T13:46:06Z</time>
      </trkpt>
      <trkpt lat="40.623717" lon="-5.048267">
        <ele>3207.0</ele>
        <time>2018-09-01T13:46:07Z</time>
      </trkpt>
      <trkpt lat="40.623833" lon="-5.048167">
        <ele>3205.0</ele>
        <time>2018-09-01T13:46:08Z</time>
      </trkpt>
      <trkpt lat="40.623933" lon="-5.048050">
        <ele>3203.0</ele>
        <time>2018-09-01T13:46:09Z</time>
      </trkpt>
      <trkpt lat="40.624033" lon="-5.047933">
        <ele>3201.0</ele>
        <time>2018-09-01T13:46:10Z</time>
      </trkpt>
      <trkpt lat="40.624133" lon="-5.047833">
        <ele>3200.0</ele>
        <time>2018-09-01T13:46:11Z</time>
      </trkpt>
      <trkpt lat="40.624233" lon="-5.047733">
        <ele>3197.0</ele>
        <time>2018-09-01T13:46:12Z</time>
      </trkpt>
      <trkpt lat="40.624333" lon="-5.047650">
        <ele>3193.0</ele>
        <time>2018-09-01T13:46:13Z</time>
      </trkpt>
      <trkpt lat="40.624450" lon="-5.047533">
        <ele>3189.0</ele>
        <time>2018-09-01T13:46:14Z</time>
      </trkpt>
      <trkpt lat="40.624567" lon="-5.047417">
        <ele>3186.0</ele>
        <time>2018-09-01T13:46:15Z</time>
      </trkpt>
      <trkpt lat="40.624650" lon="-5.047300">
        <ele>3184.0</ele>
        <time>2018-09-01T13:46:16Z</time>
      </trkpt>
      <trkpt lat="40.624750" lon="-5.047167">
        <ele>3183.0</ele>
        <time>2018-09-01T13:46:17Z</time>
      </trkpt>
      <trkpt lat="40.624817" lon="-5.047050">
        <ele>3181.0</ele>
        <time>2018-09-01T13:46:18Z</time>
      </trkpt>
      <trkpt lat="40.624900" lon="-5.046933">
        <ele>3180.0</ele>
        <time>2018-09-01T13:46:19Z</time>
      </trkpt>
      <trkpt lat="40.624967" lon="-5.046817">
        <ele>3177.0</ele>
        <time>2018-09-01T13:46:20Z</time>
      </trkpt>
      <trkpt lat="40.625050" lon="-5.046700">
        <ele>3174.0</ele>
        <time>2018-09-01T13:46:21Z</time>
      </trkpt>
      <trkpt lat="40.625133" lon="-5.046583">
        <ele>3170.0</ele>
        <time>2018-09-01T13:46:22Z</time>
      </trkpt>
      <trkpt lat="40.625233" lon="-5.046467">
        <ele>3167.0</ele>
        <time>2018-09-01T13:46:23Z</time>
      </trkpt>
      <trkpt lat="40.625317" lon="-5.046333">
        <ele>3164.0</ele>
        <time>2018-09-01T13:46:24Z</time>
      </trkpt>
      <trkpt lat="40.625400" lon="-5.046217">
        <ele>3162.0</ele>
        <time>2018-09-01T13:46:25Z</time>
      </trkpt>
      <trkpt lat="40.625467" lon="-5.046083">
        <ele>3160.0</ele>
        <time>2018-09-01T13:46:26Z</time>
      </trkpt>
      <trkpt lat="40.625533" lon="-5.045967">
        <ele>3157.0</ele>
        <time>2018-09-01T13:46:27Z</time>
      </trkpt>
      <trkpt lat="40.625600" lon="-5.045833">
        <ele>3153.0</ele>
        <time>2018-09-01T13:46:28Z</time>
      </trkpt>
      <trkpt lat="40.625683" lon="-5.045700">
        <ele>3150.0</ele>
        <time>2018-09-01T13:46:29Z</time>
      </trkpt>
      <trkpt lat="40.625750" lon="-5.045567">
        <ele>3146.0</ele>
        <time>2018-09-01T13:46:30Z</time>
      </trkpt>
      <trkpt lat="40.625833" lon="-5.045433">
        <ele>3143.0</ele>
        <time>2018-09-01T13:46:31Z</time>
      </trkpt>
      <trkpt lat="40.625917" lon="-5.045283">
        <ele>3140.0</ele>
        <time>2018-09-01T13:46:32Z</time>
      </trkpt>
      <trkpt lat="40.625983" lon="-5.045167">
        <ele>3138.0</ele>
        <time>2018-09-01T13:46:33Z</time>
      </trkpt>
      <trkpt lat="40.626067" lon="-5.045033">
        <ele>3137.0</ele>
        <time>2018-09-01T13:46:34Z</time>
      </trkpt>
      <trkpt lat="40.626150" lon="-5.044933">
        <ele>3135.0</ele>
        <time>2018-09-01T13:46:35Z</time>
      </trkpt>
      <trkpt lat="40.626233" lon="-5.044833">
        <ele>3132.0</ele>
        <time>2018-09-01T13:46:36Z</time>
      </trkpt>
      <trkpt lat="40.626317" lon="-5.044717">
        <ele>3129.0</ele>
        <time>2018-09-01T13:46:37Z</time>
      </trkpt>
      <trkpt lat="40.626400" lon="-5.044617">
        <ele>3126.0</ele>
        <time>2018-09-01T13:46:38Z</time>
      </trkpt>
      <trkpt lat="40.626500" lon="-5.044500">
        <ele>3123.0</ele>
        <time>2018-09-01T13:46:39Z</time>
      </trkpt>
      <trkpt lat="40.626583" lon="-5.044383">
        <ele>3121.0</ele>
        <time>2018-09-01T13:46:40Z</time>
      </trkpt>
      <trkpt lat="40.626667" lon="-5.044300">
        <ele>3119.0</ele>
        <time>2018-09-01T13:46:41Z</time>
      </trkpt>
      <trkpt lat="40.626750" lon="-5.044217">
        <ele>3117.0</ele>
        <time>2018-09-01T13:46:42Z</time>
      </trkpt>
      <trkpt lat="40.626833" lon="-5.044117">
        <ele>3114.0</ele>
        <time>2018-09-01T13:46:43Z</time>
      </trkpt>
      <trkpt lat="40.626917" lon="-5.044033">
        <ele>3110.0</ele>
        <time>2018-09-01T13:46:44Z</time>
      </trkpt>
      <trkpt lat="40.627000" lon="-5.043933">
        <ele>3107.0</ele>
        <time>2018-09-01T13:46:45Z</time>
      </trkpt>
      <trkpt lat="40.627083" lon="-5.043833">
        <ele>3103.0</ele>
        <time>2018-09-01T13:46:46Z</time>
      </trkpt>
      <trkpt lat="40.627167" lon="-5.043750">
        <ele>3100.0</ele>
        <time>2018-09-01T13:46:47Z</time>
      </trkpt>
      <trkpt lat="40.627250" lon="-5.043633">
        <ele>3098.0</ele>
        <time>2018-09-01T13:46:48Z</time>
      </trkpt>
      <trkpt lat="40.627333" lon="-5.043533">
        <ele>3096.0</ele>
        <time>2018-09-01T13:46:49Z</time>
      </trkpt>
      <trkpt lat="40.627417" lon="-5.043417">
        <ele>3094.0</ele>
        <time>2018-09-01T13:46:50Z</time>
      </trkpt>
      <trkpt lat="40.627500" lon="-5.043333">
        <ele>3092.0</ele>
        <time>2018-09-01T13:46:51Z</time>
      </trkpt>
      <trkpt lat="40.627583" lon="-5.043233">
        <ele>3090.0</ele>
        <time>2018-09-01T13:46:52Z</time>
      </trkpt>
      <trkpt lat="40.627650" lon="-5.043133">
        <ele>3087.0</ele>
        <time>2018-09-01T13:46:53Z</time>
      </trkpt>
      <trkpt lat="40.627733" lon="-5.043033">
        <ele>3084.0</ele>
        <time>2018-09-01T13:46:54Z</time>
      </trkpt>
      <trkpt lat="40.627800" lon="-5.042933">
        <ele>3082.0</ele>
        <time>2018-09-01T13:46:55Z</time>
      </trkpt>
      <trkpt lat="40.627867" lon="-5.042817">
        <ele>3080.0</ele>
        <time>2018-09-01T13:46:56Z</time>
      </trkpt>
      <trkpt lat="40.627917" lon="-5.042700">
        <ele>3078.0</ele>
        <time>2018-09-01T13:46:57Z</time>
      </trkpt>
      <trkpt lat="40.627967" lon="-5.042583">
        <ele>3077.0</ele>
        <time>2018-09-01T13:46:58Z</time>
      </trkpt>
      <trkpt lat="40.628017" lon="-5.042467">
        <ele>3075.0</ele>
        <time>2018-09-01T13:46:59Z</time>
      </trkpt>
      <trkpt lat="40.628050" lon="-5.042333">
        <ele>3072.0</ele>
        <time>2018-09-01T13:47:00Z</time>
      </trkpt>
      <trkpt lat="40.628083" lon="-5.042200">
        <ele>3069.0</ele>
        <time>2018-09-01T13:47:01Z</time>
      </trkpt>
      <trkpt lat="40.628133" lon="-5.042067">
        <ele>3067.0</ele>
        <time>2018-09-01T13:47:02Z</time>
      </trkpt>
      <trkpt lat="40.628183" lon="-5.041950">
        <ele>3064.0</ele>
        <time>2018-09-01T13:47:03Z</time>
      </trkpt>
      <trkpt lat="40.628250" lon="-5.041833">
        <ele>3063.0</ele>
        <time>2018-09-01T13:47:04Z</time>
      </trkpt>
      <trkpt lat="40.628300" lon="-5.041717">
        <ele>3062.0</ele>
        <time>2018-09-01T13:47:05Z</time>
      </trkpt>
      <trkpt lat="40.628350" lon="-5.041600">
        <ele>3061.0</ele>
        <time>2018-09-01T13:47:06Z</time>
      </trkpt>
      <trkpt lat="40.628400" lon="-5.041483">
        <ele>3060.0</ele>
        <time>2018-09-01T13:47:07Z</time>
      </trkpt>
      <trkpt lat="40.628433" lon="-5.041367">
        <ele>3059.0</ele>
        <time>2018-09-01T13:47:08Z</time>
      </trkpt>
      <trkpt lat="40.628483" lon="-5.041250">
        <ele>3057.0</ele>
        <time>2018-09-01T13:47:09Z</time>
      </trkpt>
      <trkpt lat="40.628517" lon="-5.041133">
        <ele>3055.0</ele>
        <time>2018-09-01T13:47:10Z</time>
      </trkpt>
      <trkpt lat="40.628567" lon="-5.041000">
        <ele>3054.0</ele>
        <time>2018-09-01T13:47:11Z</time>
      </trkpt>
      <trkpt lat="40.628617" lon="-5.040850">
        <ele>3052.0</ele>
        <time>2018-09-01T13:47:12Z</time>
      </trkpt>
      <trkpt lat="40.628667" lon="-5.040733">
        <ele>3050.0</ele>
        <time>2018-09-01T13:47:13Z</time>
      </trkpt>
      <trkpt lat="40.628733" lon="-5.040600">
        <ele>3048.0</ele>
        <time>2018-09-01T13:47:14Z</time>
      </trkpt>
      <trkpt lat="40.628783" lon="-5.040500">
        <ele>3047.0</ele>
        <time>2018-09-01T13:47:15Z</time>
      </trkpt>
      <trkpt lat="40.628850" lon="-5.040383">
        <ele>3045.0</ele>
        <time>2018-09-01T13:47:16Z</time>
      </trkpt>
      <trkpt lat="40.628900" lon="-5.040250">
        <ele>3043.0</ele>
        <time>2018-09-01T13:47:17Z</time>
      </trkpt>
      <trkpt lat="40.628950" lon="-5.040133">
        <ele>3042.0</ele>
        <time>2018-09-01T13:47:18Z</time>
      </trkpt>
      <trkpt lat="40.629017" lon="-5.040000">
        <ele>3040.0</ele>
        <time>2018-09-01T13:47:19Z</time>
      </trkpt>
      <trkpt lat="40.629083" lon="-5.039883">
        <ele>3038.0</ele>
        <time>2018-09-01T13:47:20Z</time>
      </trkpt>
      <trkpt lat="40.629150" lon="-5.039750">
        <ele>3035.0</ele>
        <time>2018-09-01T13:47:21Z</time>
      </trkpt>
      <trkpt lat="40.629200" lon="-5.039617">
        <ele>3033.0</ele>
        <time>2018-09-01T13:47:22Z</time>
      </trkpt>
      <trkpt lat="40.629233" lon="-5.039483">
        <ele>3030.0</ele>
        <time>2018-09-01T13:47:23Z</time>
      </trkpt>
      <trkpt lat="40.629267" lon="-5.039367">
        <ele>3027.0</ele>
        <time>2018-09-01T13:47:24Z</time>
      </trkpt>
      <trkpt lat="40.629317" lon="-5.039233">
        <ele>3023.0</ele>
        <time>2018-09-01T13:47:25Z</time>
      </trkpt>
      <trkpt lat="40.629367" lon="-5.039100">
        <ele>3019.0</ele>
        <time>2018-09-01T13:47:26Z</time>
      </trkpt>
      <trkpt lat="40.629417" lon="-5.038967">
        <ele>3016.0</ele>
        <time>2018-09-01T13:47:27Z</time>
      </trkpt>
      <trkpt lat="40.629483" lon="-5.038833">
        <ele>3016.0</ele>
        <time>2018-09-01T13:47:28Z</time>
      </trkpt>
      <trkpt lat="40.629550" lon="-5.038717">
        <ele>3017.0</ele>
        <time>2018-09-01T13:47:29Z</time>
      </trkpt>
      <trkpt lat="40.629600" lon="-5.038617">
        <ele>3019.0</ele>
        <time>2018-09-01T13:47:30Z</time>
      </trkpt>
      <trkpt lat="40.629650" lon="-5.038500">
        <ele>3021.0</ele>
        <time>2018-09-01T13:47:31Z</time>
      </trkpt>
      <trkpt lat="40.629700" lon="-5.038400">
        <ele>3023.0</ele>
        <time>2018-09-01T13:47:32Z</time>
      </trkpt>
      <trkpt lat="40.629750" lon="-5.038283">
        <ele>3024.0</ele>
        <time>2018-09-01T13:47:33Z</time>
      </trkpt>
      <trkpt lat="40.629800" lon="-5.038183">
        <ele>3025.0</ele>
        <time>2018-09-01T13:47:34Z</time>
      </trkpt>
      <trkpt lat="40.629867" lon="-5.038100">
        <ele>3025.0</ele>
        <time>2018-09-01T13:47:35Z</time>
      </trkpt>
      <trkpt lat="40.629917" lon="-5.038017">
        <ele>3025.0</ele>
        <time>2018-09-01T13:47:36Z</time>
      </trkpt>
      <trkpt lat="40.629983" lon="-5.037933">
        <ele>3025.0</ele>
        <time>2018-09-01T13:47:37Z</time>
      </trkpt>
      <trkpt lat="40.630033" lon="-5.037867">
        <ele>3026.0</ele>
        <time>2018-09-01T13:47:38Z</time>
      </trkpt>
      <trkpt lat="40.630100" lon="-5.037800">
        <ele>3026.0</ele>
        <time>2018-09-01T13:47:39Z</time>
      </trkpt>
      <trkpt lat="40.630167" lon="-5.037733">
        <ele>3026.0</ele>
        <time>2018-09-01T13:47:40Z</time>
      </trkpt>
      <trkpt lat="40.630250" lon="-5.037700">
        <ele>3025.0</ele>
        <time>2018-09-01T13:47:41Z</time>
      </trkpt>
      <trkpt lat="40.630333" lon="-5.037683">
        <ele>3025.0</ele>
        <time>2018-09-01T13:47:42Z</time>
      </trkpt>
      <trkpt lat="40.630417" lon="-5.037683">
        <ele>3025.0</ele>
        <time>2018-09-01T13:47:43Z</time>
      </trkpt>
      <trkpt lat="40.630500" lon="-5.037717">
        <ele>3025.0</ele>
        <time>2018-09-01T13:47:44Z</time>
      </trkpt>
      <trkpt lat="40.630567" lon="-5.037750">
        <ele>3025.0</ele>
        <time>2018-09-01T13:47:45Z</time>
      </trkpt>
      <trkpt lat="40.630617" lon="-5.037817">
        <ele>3024.0</ele>
        <time>2018-09-01T13:47:46Z</time>
      </trkpt>
      <trkpt lat="40.630650" lon="-5.037883">
        <ele>3022.0</ele>
        <time>2018-09-01T13:47:47Z</time>
      </trkpt>
      <trkpt lat="40.630667" lon="-5.037967">
        <ele>3020.0</ele>
        <time>2018-09-01T13:47:48Z</time>
      </trkpt>
      <trkpt lat="40.630667" lon="-5.038067">
        <ele>3019.0</ele>
        <time>2018-09-01T13:47:49Z</time>
      </trkpt>
      <trkpt lat="40.630650" lon="-5.038150">
        <ele>3018.0</ele>
        <time>2018-09-01T13:47:50Z</time>
      </trkpt>
      <trkpt lat="40.630633" lon="-5.038233">
        <ele>3016.0</ele>
        <time>2018-09-01T13:47:51Z</time>
      </trkpt>
      <trkpt lat="40.630600" lon="-5.038317">
        <ele>3014.0</ele>
        <time>2018-09-01T13:47:52Z</time>
      </trkpt>
      <trkpt lat="40.630567" lon="-5.038417">
        <ele>3010.0</ele>
        <time>2018-09-01T13:47:53Z</time>
      </trkpt>
      <trkpt lat="40.630500" lon="-5.038533">
        <ele>3007.0</ele>
        <time>2018-09-01T13:47:54Z</time>
      </trkpt>
      <trkpt lat="40.630433" lon="-5.038650">
        <ele>3005.0</ele>
        <time>2018-09-01T13:47:55Z</time>
      </trkpt>
      <trkpt lat="40.630350" lon="-5.038733">
        <ele>3004.0</ele>
        <time>2018-09-01T13:47:56Z</time>
      </trkpt>
      <trkpt lat="40.630250" lon="-5.038817">
        <ele>3004.0</ele>
        <time>2018-09-01T13:47:57Z</time>
      </trkpt>
      <trkpt lat="40.630167" lon="-5.038867">
        <ele>3003.0</ele>
        <time>2018-09-01T13:47:58Z</time>
      </trkpt>
      <trkpt lat="40.630050" lon="-5.038917">
        <ele>3001.0</ele>
        <time>2018-09-01T13:47:59Z</time>
      </trkpt>
      <trkpt lat="40.629933" lon="-5.038933">
        <ele>2998.0</ele>
        <time>2018-09-01T13:48:00Z</time>
      </trkpt>
      <trkpt lat="40.629800" lon="-5.038950">
        <ele>2996.0</ele>
        <time>2018-09-01T13:48:01Z</time>
      </trkpt>
      <trkpt lat="40.629667" lon="-5.038950">
        <ele>2995.0</ele>
        <time>2018-09-01T13:48:02Z</time>
      </trkpt>
      <trkpt lat="40.629550" lon="-5.038917">
        <ele>2994.0</ele>
        <time>2018-09-01T13:48:03Z</time>
      </trkpt>
      <trkpt lat="40.629417" lon="-5.038867">
        <ele>2994.0</ele>
        <time>2018-09-01T13:48:04Z</time>
      </trkpt>
      <trkpt lat="40.629300" lon="-5.038817">
        <ele>2993.0</ele>
        <time>2018-09-01T13:48:05Z</time>
      </trkpt>
      <trkpt lat="40.629200" lon="-5.038733">
        <ele>2992.0</ele>
        <time>2018-09-01T13:48:06Z</time>
      </trkpt>
      <trkpt lat="40.629083" lon="-5.038650">
        <ele>2990.0</ele>
        <time>2018-09-01T13:48:07Z</time>
      </trkpt>
      <trkpt lat="40.628983" lon="-5.038533">
        <ele>2988.0</ele>
        <time>2018-09-01T13:48:08Z</time>
      </trkpt>
      <trkpt lat="40.628867" lon="-5.038417">
        <ele>2986.0</ele>
        <time>2018-09-01T13:48:09Z</time>
      </trkpt>
      <trkpt lat="40.628767" lon="-5.038300">
        <ele>2984.0</ele>
        <time>2018-09-01T13:48:10Z</time>
      </trkpt>
      <trkpt lat="40.628650" lon="-5.038183">
        <ele>2983.0</ele>
        <time>2018-09-01T13:48:11Z</time>
      </trkpt>
      <trkpt lat="40.628517" lon="-5.038083">
        <ele>2982.0</ele>
        <time>2018-09-01T13:48:12Z</time>
      </trkpt>
      <trkpt lat="40.628400" lon="-5.037983">
        <ele>2982.0</ele>
        <time>2018-09-01T13:48:13Z</time>
      </trkpt>
      <trkpt lat="40.628283" lon="-5.037867">
        <ele>2983.0</ele>
        <time>2018-09-01T13:48:14Z</time>
      </trkpt>
      <trkpt lat="40.628200" lon="-5.037733">
        <ele>2984.0</ele>
        <time>2018-09-01T13:48:15Z</time>
      </trkpt>
      <trkpt lat="40.628133" lon="-5.037600">
        <ele>2985.0</ele>
        <time>2018-09-01T13:48:16Z</time>
      </trkpt>
      <trkpt lat="40.628083" lon="-5.037433">
        <ele>2985.0</ele>
        <time>2018-09-01T13:48:17Z</time>
      </trkpt>
      <trkpt lat="40.628067" lon="-5.037267">
        <ele>2984.0</ele>
        <time>2018-09-01T13:48:18Z</time>
      </trkpt>
      <trkpt lat="40.628050" lon="-5.037100">
        <ele>2983.0</ele>
        <time>2018-09-01T13:48:19Z</time>
      </trkpt>
      <trkpt lat="40.628017" lon="-5.036950">
        <ele>2981.0</ele>
        <time>2018-09-01T13:48:20Z</time>
      </trkpt>
      <trkpt lat="40.628000" lon="-5.036800">
        <ele>2978.0</ele>
        <time>2018-09-01T13:48:21Z</time>
      </trkpt>
      <trkpt lat="40.627983" lon="-5.036633">
        <ele>2975.0</ele>
        <time>2018-09-01T13:48:22Z</time>
      </trkpt>
      <trkpt lat="40.628000" lon="-5.036467">
        <ele>2972.0</ele>
        <time>2018-09-01T13:48:23Z</time>
      </trkpt>
      <trkpt lat="40.628050" lon="-5.036300">
        <ele>2968.0</ele>
        <time>2018-09-01T13:48:24Z</time>
      </trkpt>
      <trkpt lat="40.628133" lon="-5.036133">
        <ele>2966.0</ele>
        <time>2018-09-01T13:48:25Z</time>
      </trkpt>
      <trkpt lat="40.628217" lon="-5.035983">
        <ele>2962.0</ele>
        <time>2018-09-01T13:48:26Z</time>
      </trkpt>
      <trkpt lat="40.628317" lon="-5.035883">
        <ele>2959.0</ele>
        <time>2018-09-01T13:48:27Z</time>
      </trkpt>
      <trkpt lat="40.628433" lon="-5.035817">
        <ele>2956.0</ele>
        <time>2018-09-01T13:48:28Z</time>
      </trkpt>
      <trkpt lat="40.628533" lon="-5.035800">
        <ele>2953.0</ele>
        <time>2018-09-01T13:48:29Z</time>
      </trkpt>
      <trkpt lat="40.628617" lon="-5.035817">
        <ele>2950.0</ele>
        <time>2018-09-01T13:48:30Z</time>
      </trkpt>
      <trkpt lat="40.628683" lon="-5.035883">
        <ele>2946.0</ele>
        <time>2018-09-01T13:48:31Z</time>
      </trkpt>
      <trkpt lat="40.628733" lon="-5.035983">
        <ele>2944.0</ele>
        <time>2018-09-01T13:48:32Z</time>
      </trkpt>
      <trkpt lat="40.628767" lon="-5.036083">
        <ele>2944.0</ele>
        <time>2018-09-01T13:48:33Z</time>
      </trkpt>
      <trkpt lat="40.628783" lon="-5.036167">
        <ele>2944.0</ele>
        <time>2018-09-01T13:48:34Z</time>
      </trkpt>
      <trkpt lat="40.628817" lon="-5.036250">
        <ele>2944.0</ele>
        <time>2018-09-01T13:48:35Z</time>
      </trkpt>
      <trkpt lat="40.628833" lon="-5.036317">
        <ele>2943.0</ele>
        <time>2018-09-01T13:48:36Z</time>
      </trkpt>
      <trkpt lat="40.628867" lon="-5.036400">
        <ele>2941.0</ele>
        <time>2018-09-01T13:48:37Z</time>
      </trkpt>
      <trkpt lat="40.628883" lon="-5.036533">
        <ele>2938.0</ele>
        <time>2018-09-01T13:48:38Z</time>
      </trkpt>
      <trkpt lat="40.628900" lon="-5.036667">
        <ele>2935.0</ele>
        <time>2018-09-01T13:48:39Z</time>
      </trkpt>
      <trkpt lat="40.628900" lon="-5.036817">
        <ele>2935.0</ele>
        <time>2018-09-01T13:48:40Z</time>
      </trkpt>
      <trkpt lat="40.628917" lon="-5.036933">
        <ele>2935.0</ele>
        <time>2018-09-01T13:48:41Z</time>
      </trkpt>
      <trkpt lat="40.628933" lon="-5.037050">
        <ele>2936.0</ele>
        <time>2018-09-01T13:48:42Z</time>
      </trkpt>
      <trkpt lat="40.628933" lon="-5.037150">
        <ele>2936.0</ele>
        <time>2018-09-01T13:48:43Z</time>
      </trkpt>
      <trkpt lat="40.628967" lon="-5.037233">
        <ele>2934.0</ele>
        <time>2018-09-01T13:48:44Z</time>
      </trkpt>
      <trkpt lat="40.628983" lon="-5.037333">
        <ele>2932.0</ele>
        <time>2018-09-01T13:48:45Z</time>
      </trkpt>
      <trkpt lat="40.629017" lon="-5.037433">
        <ele>2929.0</ele>
        <time>2018-09-01T13:48:46Z</time>
      </trkpt>
      <trkpt lat="40.629067" lon="-5.037533">
        <ele>2927.0</ele>
        <time>2018-09-01T13:48:47Z</time>
      </trkpt>
      <trkpt lat="40.629117" lon="-5.037617">
        <ele>2926.0</ele>
        <time>2018-09-01T13:48:48Z</time>
      </trkpt>
      <trkpt lat="40.629183" lon="-5.037667">
        <ele>2924.0</ele>
        <time>2018-09-01T13:48:49Z</time>
      </trkpt>
      <trkpt lat="40.629267" lon="-5.037700">
        <ele>2923.0</ele>
        <time>2018-09-01T13:48:50Z</time>
      </trkpt>
      <trkpt lat="40.629350" lon="-5.037700">
        <ele>2921.0</ele>
        <time>2018-09-01T13:48:51Z</time>
      </trkpt>
      <trkpt lat="40.629417" lon="-5.037667">
        <ele>2919.0</ele>
        <time>2018-09-01T13:48:52Z</time>
      </trkpt>
      <trkpt lat="40.629500" lon="-5.037617">
        <ele>2916.0</ele>
        <time>2018-09-01T13:48:53Z</time>
      </trkpt>
      <trkpt lat="40.629583" lon="-5.037583">
        <ele>2913.0</ele>
        <time>2018-09-01T13:48:54Z</time>
      </trkpt>
      <trkpt lat="40.629650" lon="-5.037533">
        <ele>2911.0</ele>
        <time>2018-09-01T13:48:55Z</time>
      </trkpt>
      <trkpt lat="40.629717" lon="-5.037500">
        <ele>2909.0</ele>
        <time>2018-09-01T13:48:56Z</time>
      </trkpt>
      <trkpt lat="40.629783" lon="-5.037450">
        <ele>2906.0</ele>
        <time>2018-09-01T13:48:57Z</time>
      </trkpt>
      <trkpt lat="40.629867" lon="-5.037383">
        <ele>2903.0</ele>
        <time>2018-09-01T13:48:58Z</time>
      </trkpt>
      <trkpt lat="40.629950" lon="-5.037317">
        <ele>2900.0</ele>
        <time>2018-09-01T13:48:59Z</time>
      </trkpt>
      <trkpt lat="40.630017" lon="-5.037250">
        <ele>2898.0</ele>
        <time>2018-09-01T13:49:00Z</time>
      </trkpt>
      <trkpt lat="40.630083" lon="-5.037183">
        <ele>2897.0</ele>
        <time>2018-09-01T13:49:01Z</time>
      </trkpt>
      <trkpt lat="40.630150" lon="-5.037133">
        <ele>2896.0</ele>
        <time>2018-09-01T13:49:02Z</time>
      </trkpt>
      <trkpt lat="40.630217" lon="-5.037083">
        <ele>2894.0</ele>
        <time>2018-09-01T13:49:03Z</time>
      </trkpt>
      <trkpt lat="40.630300" lon="-5.037050">
        <ele>2891.0</ele>
        <time>2018-09-01T13:49:04Z</time>
      </trkpt>
      <trkpt lat="40.630367" lon="-5.037000">
        <ele>2888.0</ele>
        <time>2018-09-01T13:49:05Z</time>
      </trkpt>
      <trkpt lat="40.630450" lon="-5.036933">
        <ele>2884.0</ele>
        <time>2018-09-01T13:49:06Z</time>
      </trkpt>
      <trkpt lat="40.630500" lon="-5.036833">
        <ele>2881.0</ele>
        <time>2018-09-01T13:49:07Z</time>
      </trkpt>
      <trkpt lat="40.630550" lon="-5.036750">
        <ele>2878.0</ele>
        <time>2018-09-01T13:49:08Z</time>
      </trkpt>
      <trkpt lat="40.630600" lon="-5.036650">
        <ele>2875.0</ele>
        <time>2018-09-01T13:49:09Z</time>
      </trkpt>
      <trkpt lat="40.630650" lon="-5.036567">
        <ele>2871.0</ele>
        <time>2018-09-01T13:49:10Z</time>
      </trkpt>
      <trkpt lat="40.630717" lon="-5.036483">
        <ele>2867.0</ele>
        <time>2018-09-01T13:49:11Z</time>
      </trkpt>
      <trkpt lat="40.630767" lon="-5.036400">
        <ele>2863.0</ele>
        <time>2018-09-01T13:49:12Z</time>
      </trkpt>
      <trkpt lat="40.630817" lon="-5.036317">
        <ele>2858.0</ele>
        <time>2018-09-01T13:49:13Z</time>
      </trkpt>
      <trkpt lat="40.630867" lon="-5.036217">
        <ele>2854.0</ele>
        <time>2018-09-01T13:49:14Z</time>
      </trkpt>
      <trkpt lat="40.630917" lon="-5.036117">
        <ele>2849.0</ele>
        <time>2018-09-01T13:49:15Z</time>
      </trkpt>
      <trkpt lat="40.630967" lon="-5.036017">
        <ele>2843.0</ele>
        <time>2018-09-01T13:49:16Z</time>
      </trkpt>
      <trkpt lat="40.631033" lon="-5.035900">
        <ele>2838.0</ele>
        <time>2018-09-01T13:49:17Z</time>
      </trkpt>
      <trkpt lat="40.631100" lon="-5.035800">
        <ele>2833.0</ele>
        <time>2018-09-01T13:49:18Z</time>
      </trkpt>
      <trkpt lat="40.631183" lon="-5.035700">
        <ele>2829.0</ele>
        <time>2018-09-01T13:49:19Z</time>
      </trkpt>
      <trkpt lat="40.631250" lon="-5.035617">
        <ele>2826.0</ele>
        <time>2018-09-01T13:49:20Z</time>
      </trkpt>
      <trkpt lat="40.631317" lon="-5.035550">
        <ele>2823.0</ele>
        <time>2018-09-01T13:49:21Z</time>
      </trkpt>
      <trkpt lat="40.631383" lon="-5.035467">
        <ele>2820.0</ele>
        <time>2018-09-01T13:49:22Z</time>
      </trkpt>
      <trkpt lat="40.631467" lon="-5.035383">
        <ele>2818.0</ele>
        <time>2018-09-01T13:49:23Z</time>
      </trkpt>
      <trkpt lat="40.631533" lon="-5.035317">
        <ele>2815.0</ele>
        <time>2018-09-01T13:49:24Z</time>
      </trkpt>
      <trkpt lat="40.631600" lon="-5.035233">
        <ele>2812.0</ele>
        <time>2018-09-01T13:49:25Z</time>
      </trkpt>
      <trkpt lat="40.631667" lon="-5.035150">
        <ele>2809.0</ele>
        <time>2018-09-01T13:49:26Z</time>
      </trkpt>
      <trkpt lat="40.631717" lon="-5.035050">
        <ele>2806.0</ele>
        <time>2018-09-01T13:49:27Z</time>
      </trkpt>
      <trkpt lat="40.631783" lon="-5.034950">
        <ele>2802.0</ele>
        <time>2018-09-01T13:49:28Z</time>
      </trkpt>
      <trkpt lat="40.631817" lon="-5.034833">
        <ele>2798.0</ele>
        <time>2018-09-01T13:49:29Z</time>
      </trkpt>
      <trkpt lat="40.631867" lon="-5.034733">
        <ele>2796.0</ele>
        <time>2018-09-01T13:49:30Z</time>
      </trkpt>
      <trkpt lat="40.631917" lon="-5.034633">
        <ele>2793.0</ele>
        <time>2018-09-01T13:49:31Z</time>
      </trkpt>
      <trkpt lat="40.631967" lon="-5.034533">
        <ele>2790.0</ele>
        <time>2018-09-01T13:49:32Z</time>
      </trkpt>
      <trkpt lat="40.632017" lon="-5.034433">
        <ele>2787.0</ele>
        <time>2018-09-01T13:49:33Z</time>
      </trkpt>
      <trkpt lat="40.632067" lon="-5.034333">
        <ele>2785.0</ele>
        <time>2018-09-01T13:49:34Z</time>
      </trkpt>
      <trkpt lat="40.632133" lon="-5.034217">
        <ele>2785.0</ele>
        <time>2018-09-01T13:49:35Z</time>
      </trkpt>
      <trkpt lat="40.632183" lon="-5.034100">
        <ele>2784.0</ele>
        <time>2018-09-01T13:49:36Z</time>
      </trkpt>
      <trkpt lat="40.632217" lon="-5.033983">
        <ele>2785.0</ele>
        <time>2018-09-01T13:49:37Z</time>
      </trkpt>
      <trkpt lat="40.632267" lon="-5.033883">
        <ele>2784.0</ele>
        <time>2018-09-01T13:49:38Z</time>
      </trkpt>
      <trkpt lat="40.632300" lon="-5.033783">
        <ele>2783.0</ele>
        <time>2018-09-01T13:49:39Z</time>
      </trkpt>
      <trkpt lat="40.632350" lon="-5.033683">
        <ele>2781.0</ele>
        <time>2018-09-01T13:49:40Z</time>
      </trkpt>
      <trkpt lat="40.632417" lon="-5.033567">
        <ele>2779.0</ele>
        <time>2018-09-01T13:49:41Z</time>
      </trkpt>
      <trkpt lat="40.632483" lon="-5.033450">
        <ele>2777.0</ele>
        <time>2018-09-01T13:49:42Z</time>
      </trkpt>
      <trkpt lat="40.632550" lon="-5.033350">
        <ele>2775.0</ele>
        <time>2018-09-01T13:49:43Z</time>
      </trkpt>
      <trkpt lat="40.632617" lon="-5.033233">
        <ele>2775.0</ele>
        <time>2018-09-01T13:49:44Z</time>
      </trkpt>
      <trkpt lat="40.632683" lon="-5.033133">
        <ele>2774.0</ele>
        <time>2018-09-01T13:49:45Z</time>
      </trkpt>
      <trkpt lat="40.632733" lon="-5.033033">
        <ele>2772.0</ele>
        <time>2018-09-01T13:49:46Z</time>
      </trkpt>
      <trkpt lat="40.632800" lon="-5.032917">
        <ele>2770.0</ele>
        <time>2018-09-01T13:49:47Z</time>
      </trkpt>
      <trkpt lat="40.632867" lon="-5.032800">
        <ele>2767.0</ele>
        <time>2018-09-01T13:49:48Z</time>
      </trkpt>
      <trkpt lat="40.632950" lon="-5.032700">
        <ele>2764.0</ele>
        <time>2018-09-01T13:49:49Z</time>
      </trkpt>
      <trkpt lat="40.633033" lon="-5.032600">
        <ele>2761.0</ele>
        <time>2018-09-01T13:49:50Z</time>
      </trkpt>
      <trkpt lat="40.633117" lon="-5.032500">
        <ele>2760.0</ele>
        <time>2018-09-01T13:49:51Z</time>
      </trkpt>
      <trkpt lat="40.633183" lon="-5.032417">
        <ele>2758.0</ele>
        <time>2018-09-01T13:49:52Z</time>
      </trkpt>
      <trkpt lat="40.633250" lon="-5.032317">
        <ele>2757.0</ele>
        <time>2018-09-01T13:49:53Z</time>
      </trkpt>
      <trkpt lat="40.633317" lon="-5.032233">
        <ele>2755.0</ele>
        <time>2018-09-01T13:49:54Z</time>
      </trkpt>
      <trkpt lat="40.633383" lon="-5.032133">
        <ele>2753.0</ele>
        <time>2018-09-01T13:49:55Z</time>
      </trkpt>
      <trkpt lat="40.633467" lon="-5.032050">
        <ele>2751.0</ele>
        <time>2018-09-01T13:49:56Z</time>
      </trkpt>
      <trkpt lat="40.633533" lon="-5.031950">
        <ele>2749.0</ele>
        <time>2018-09-01T13:49:57Z</time>
      </trkpt>
      <trkpt lat="40.633617" lon="-5.031850">
        <ele>2749.0</ele>
        <time>2018-09-01T13:49:58Z</time>
      </trkpt>
      <trkpt lat="40.633683" lon="-5.031750">
        <ele>2748.0</ele>
        <time>2018-09-01T13:49:59Z</time>
      </trkpt>
      <trkpt lat="40.633750" lon="-5.031683">
        <ele>2747.0</ele>
        <time>2018-09-01T13:50:00Z</time>
      </trkpt>
      <trkpt lat="40.633817" lon="-5.031600">
        <ele>2745.0</ele>
        <time>2018-09-01T13:50:01Z</time>
      </trkpt>
      <trkpt lat="40.633900" lon="-5.031500">
        <ele>2743.0</ele>
        <time>2018-09-01T13:50:02Z</time>
      </trkpt>
      <trkpt lat="40.633967" lon="-5.031400">
        <ele>2740.0</ele>
        <time>2018-09-01T13:50:03Z</time>
      </trkpt>
      <trkpt lat="40.634050" lon="-5.031283">
        <ele>2739.0</ele>
        <time>2018-09-01T13:50:04Z</time>
      </trkpt>
      <trkpt lat="40.634100" lon="-5.031167">
        <ele>2739.0</ele>
        <time>2018-09-01T13:50:05Z</time>
      </trkpt>
      <trkpt lat="40.634150" lon="-5.031050">
        <ele>2739.0</ele>
        <time>2018-09-01T13:50:06Z</time>
      </trkpt>
      <trkpt lat="40.634183" lon="-5.030950">
        <ele>2737.0</ele>
        <time>2018-09-01T13:50:07Z</time>
      </trkpt>
      <trkpt lat="40.634233" lon="-5.030833">
        <ele>2735.0</ele>
        <time>2018-09-01T13:50:08Z</time>
      </trkpt>
      <trkpt lat="40.634283" lon="-5.030717">
        <ele>2733.0</ele>
        <time>2018-09-01T13:50:09Z</time>
      </trkpt>
      <trkpt lat="40.634333" lon="-5.030617">
        <ele>2730.0</ele>
        <time>2018-09-01T13:50:10Z</time>
      </trkpt>
      <trkpt lat="40.634400" lon="-5.030517">
        <ele>2726.0</ele>
        <time>2018-09-01T13:50:11Z</time>
      </trkpt>
      <trkpt lat="40.634467" lon="-5.030417">
        <ele>2723.0</ele>
        <time>2018-09-01T13:50:12Z</time>
      </trkpt>
      <trkpt lat="40.634533" lon="-5.030333">
        <ele>2719.0</ele>
        <time>2018-09-01T13:50:13Z</time>
      </trkpt>
      <trkpt lat="40.634600" lon="-5.030250">
        <ele>2715.0</ele>
        <time>2018-09-01T13:50:14Z</time>
      </trkpt>
      <trkpt lat="40.634667" lon="-5.030167">
        <ele>2710.0</ele>
        <time>2018-09-01T13:50:15Z</time>
      </trkpt>
      <trkpt lat="40.634733" lon="-5.030083">
        <ele>2705.0</ele>
        <time>2018-09-01T13:50:16Z</time>
      </trkpt>
      <trkpt lat="40.634800" lon="-5.030000">
        <ele>2700.0</ele>
        <time>2018-09-01T13:50:17Z</time>
      </trkpt>
      <trkpt lat="40.634883" lon="-5.029950">
        <ele>2694.0</ele>
        <time>2018-09-01T13:50:18Z</time>
      </trkpt>
      <trkpt lat="40.634983" lon="-5.029917">
        <ele>2689.0</ele>
        <time>2018-09-01T13:50:19Z</time>
      </trkpt>
      <trkpt lat="40.635083" lon="-5.029883">
        <ele>2685.0</ele>
        <time>2018-09-01T13:50:20Z</time>
      </trkpt>
      <trkpt lat="40.635167" lon="-5.029867">
        <ele>2681.0</ele>
        <time>2018-09-01T13:50:21Z</time>
      </trkpt>
      <trkpt lat="40.635267" lon="-5.029833">
        <ele>2676.0</ele>
        <time>2018-09-01T13:50:22Z</time>
      </trkpt>
      <trkpt lat="40.635367" lon="-5.029800">
        <ele>2672.0</ele>
        <time>2018-09-01T13:50:23Z</time>
      </trkpt>
      <trkpt lat="40.635467" lon="-5.029783">
        <ele>2667.0</ele>
        <time>2018-09-01T13:50:24Z</time>
      </trkpt>
      <trkpt lat="40.635550" lon="-5.029783">
        <ele>2664.0</ele>
        <time>2018-09-01T13:50:25Z</time>
      </trkpt>
      <trkpt lat="40.635650" lon="-5.029783">
        <ele>2662.0</ele>
        <time>2018-09-01T13:50:26Z</time>
      </trkpt>
      <trkpt lat="40.635733" lon="-5.029783">
        <ele>2660.0</ele>
        <time>2018-09-01T13:50:27Z</time>
      </trkpt>
      <trkpt lat="40.635833" lon="-5.029767">
        <ele>2657.0</ele>
        <time>2018-09-01T13:50:28Z</time>
      </trkpt>
      <trkpt lat="40.635917" lon="-5.029717">
        <ele>2653.0</ele>
        <time>2018-09-01T13:50:29Z</time>
      </trkpt>
      <trkpt lat="40.635983" lon="-5.029650">
        <ele>2649.0</ele>
        <time>2018-09-01T13:50:30Z</time>
      </trkpt>
      <trkpt lat="40.636067" lon="-5.029583">
        <ele>2645.0</ele>
        <time>2018-09-01T13:50:31Z</time>
      </trkpt>
      <trkpt lat="40.636133" lon="-5.029500">
        <ele>2641.0</ele>
        <time>2018-09-01T13:50:32Z</time>
      </trkpt>
      <trkpt lat="40.636217" lon="-5.029450">
        <ele>2637.0</ele>
        <time>2018-09-01T13:50:33Z</time>
      </trkpt>
      <trkpt lat="40.636300" lon="-5.029383">
        <ele>2632.0</ele>
        <time>2018-09-01T13:50:34Z</time>
      </trkpt>
      <trkpt lat="40.636383" lon="-5.029317">
        <ele>2628.0</ele>
        <time>2018-09-01T13:50:35Z</time>
      </trkpt>
      <trkpt lat="40.636483" lon="-5.029250">
        <ele>2623.0</ele>
        <time>2018-09-01T13:50:36Z</time>
      </trkpt>
      <trkpt lat="40.636583" lon="-5.029167">
        <ele>2620.0</ele>
        <time>2018-09-01T13:50:37Z</time>
      </trkpt>
      <trkpt lat="40.636667" lon="-5.029083">
        <ele>2618.0</ele>
        <time>2018-09-01T13:50:38Z</time>
      </trkpt>
      <trkpt lat="40.636750" lon="-5.029000">
        <ele>2617.0</ele>
        <time>2018-09-01T13:50:39Z</time>
      </trkpt>
      <trkpt lat="40.636833" lon="-5.028917">
        <ele>2616.0</ele>
        <time>2018-09-01T13:50:40Z</time>
      </trkpt>
      <trkpt lat="40.636917" lon="-5.028850">
        <ele>2615.0</ele>
        <time>2018-09-01T13:50:41Z</time>
      </trkpt>
      <trkpt lat="40.637000" lon="-5.028783">
        <ele>2615.0</ele>
        <time>2018-09-01T13:50:42Z</time>
      </trkpt>
      <trkpt lat="40.637067" lon="-5.028700">
        <ele>2614.0</ele>
        <time>2018-09-01T13:50:43Z</time>
      </trkpt>
      <trkpt lat="40.637150" lon="-5.028633">
        <ele>2613.0</ele>
        <time>2018-09-01T13:50:44Z</time>
      </trkpt>
      <trkpt lat="40.637233" lon="-5.028550">
        <ele>2612.0</ele>
        <time>2018-09-01T13:50:45Z</time>
      </trkpt>
      <trkpt lat="40.637317" lon="-5.028483">
        <ele>2611.0</ele>
        <time>2018-09-01T13:50:46Z</time>
      </trkpt>
      <trkpt lat="40.637400" lon="-5.028433">
        <ele>2610.0</ele>
        <time>2018-09-01T13:50:47Z</time>
      </trkpt>
      <trkpt lat="40.637483" lon="-5.028367">
        <ele>2608.0</ele>
        <time>2018-09-01T13:50:48Z</time>
      </trkpt>
      <trkpt lat="40.637567" lon="-5.028300">
        <ele>2606.0</ele>
        <time>2018-09-01T13:50:49Z</time>
      </trkpt>
      <trkpt lat="40.637650" lon="-5.028233">
        <ele>2604.0</ele>
        <time>2018-09-01T13:50:50Z</time>
      </trkpt>
      <trkpt lat="40.637750" lon="-5.028167">
        <ele>2601.0</ele>
        <time>2018-09-01T13:50:51Z</time>
      </trkpt>
      <trkpt lat="40.637850" lon="-5.028100">
        <ele>2599.0</ele>
        <time>2018-09-01T13:50:52Z</time>
      </trkpt>
      <trkpt lat="40.637933" lon="-5.028017">
        <ele>2597.0</ele>
        <time>2018-09-01T13:50:53Z</time>
      </trkpt>
      <trkpt lat="40.638017" lon="-5.027950">
        <ele>2595.0</ele>
        <time>2018-09-01T13:50:54Z</time>
      </trkpt>
      <trkpt lat="40.638100" lon="-5.027867">
        <ele>2594.0</ele>
        <time>2018-09-01T13:50:55Z</time>
      </trkpt>
      <trkpt lat="40.638167" lon="-5.027817">
        <ele>2593.0</ele>
        <time>2018-09-01T13:50:56Z</time>
      </trkpt>
      <trkpt lat="40.638250" lon="-5.027750">
        <ele>2591.0</ele>
        <time>2018-09-01T13:50:57Z</time>
      </trkpt>
      <trkpt lat="40.638333" lon="-5.027683">
        <ele>2589.0</ele>
        <time>2018-09-01T13:50:58Z</time>
      </trkpt>
      <trkpt lat="40.638417" lon="-5.027617">
        <ele>2586.0</ele>
        <time>2018-09-01T13:50:59Z</time>
      </trkpt>
      <trkpt lat="40.638517" lon="-5.027533">
        <ele>2582.0</ele>
        <time>2018-09-01T13:51:00Z</time>
      </trkpt>
      <trkpt lat="40.638617" lon="-5.027450">
        <ele>2580.0</ele>
        <time>2018-09-01T13:51:01Z</time>
      </trkpt>
      <trkpt lat="40.638717" lon="-5.027367">
        <ele>2578.0</ele>
        <time>2018-09-01T13:51:02Z</time>
      </trkpt>
      <trkpt lat="40.638817" lon="-5.027300">
        <ele>2576.0</ele>
        <time>2018-09-01T13:51:03Z</time>
      </trkpt>
      <trkpt lat="40.638900" lon="-5.027233">
        <ele>2576.0</ele>
        <time>2018-09-01T13:51:04Z</time>
      </trkpt>
      <trkpt lat="40.638983" lon="-5.027150">
        <ele>2575.0</ele>
        <time>2018-09-01T13:51:05Z</time>
      </trkpt>
      <trkpt lat="40.639050" lon="-5.027067">
        <ele>2574.0</ele>
        <time>2018-09-01T13:51:06Z</time>
      </trkpt>
      <trkpt lat="40.639117" lon="-5.027000">
        <ele>2573.0</ele>
        <time>2018-09-01T13:51:07Z</time>
      </trkpt>
      <trkpt lat="40.639183" lon="-5.026933">
        <ele>2573.0</ele>
        <time>2018-09-01T13:51:08Z</time>
      </trkpt>
      <trkpt lat="40.639267" lon="-5.026867">
        <ele>2572.0</ele>
        <time>2018-09-01T13:51:09Z</time>
      </trkpt>
      <trkpt lat="40.639333" lon="-5.026800">
        <ele>2572.0</ele>
        <time>2018-09-01T13:51:10Z</time>
      </trkpt>
      <trkpt lat="40.639400" lon="-5.026717">
        <ele>2572.0</ele>
        <time>2018-09-01T13:51:11Z</time>
      </trkpt>
      <trkpt lat="40.639467" lon="-5.026650">
        <ele>2572.0</ele>
        <time>2018-09-01T13:51:12Z</time>
      </trkpt>
      <trkpt lat="40.639533" lon="-5.026583">
        <ele>2572.0</ele>
        <time>2018-09-01T13:51:13Z</time>
      </trkpt>
      <trkpt lat="40.639633" lon="-5.026533">
        <ele>2570.0</ele>
        <time>2018-09-01T13:51:14Z</time>
      </trkpt>
      <trkpt lat="40.639750" lon="-5.026500">
        <ele>2569.0</ele>
        <time>2018-09-01T13:51:15Z</time>
      </trkpt>
      <trkpt lat="40.639867" lon="-5.026450">
        <ele>2569.0</ele>
        <time>2018-09-01T13:51:16Z</time>
      </trkpt>
      <trkpt lat="40.639967" lon="-5.026400">
        <ele>2570.0</ele>
        <time>2018-09-01T13:51:17Z</time>
      </trkpt>
      <trkpt lat="40.640067" lon="-5.026350">
        <ele>2571.0</ele>
        <time>2018-09-01T13:51:18Z</time>
      </trkpt>
      <trkpt lat="40.640150" lon="-5.026283">
        <ele>2570.0</ele>
        <time>2018-09-01T13:51:19Z</time>
      </trkpt>
      <trkpt lat="40.640233" lon="-5.026217">
        <ele>2569.0</ele>
        <time>2018-09-01T13:51:20Z</time>
      </trkpt>
      <trkpt lat="40.640333" lon="-5.026150">
        <ele>2566.0</ele>
        <time>2018-09-01T13:51:21Z</time>
      </trkpt>
      <trkpt lat="40.640433" lon="-5.026067">
        <ele>2563.0</ele>
        <time>2018-09-01T13:51:22Z</time>
      </trkpt>
      <trkpt lat="40.640550" lon="-5.025967">
        <ele>2560.0</ele>
        <time>2018-09-01T13:51:23Z</time>
      </trkpt>
      <trkpt lat="40.640650" lon="-5.025867">
        <ele>2559.0</ele>
        <time>2018-09-01T13:51:24Z</time>
      </trkpt>
      <trkpt lat="40.640733" lon="-5.025750">
        <ele>2557.0</ele>
        <time>2018-09-01T13:51:25Z</time>
      </trkpt>
      <trkpt lat="40.640817" lon="-5.025633">
        <ele>2556.0</ele>
        <time>2018-09-01T13:51:26Z</time>
      </trkpt>
      <trkpt lat="40.640900" lon="-5.025517">
        <ele>2555.0</ele>
        <time>2018-09-01T13:51:27Z</time>
      </trkpt>
      <trkpt lat="40.640983" lon="-5.025417">
        <ele>2553.0</ele>
        <time>2018-09-01T13:51:28Z</time>
      </trkpt>
      <trkpt lat="40.641067" lon="-5.025317">
        <ele>2550.0</ele>
        <time>2018-09-01T13:51:29Z</time>
      </trkpt>
      <trkpt lat="40.641167" lon="-5.025233">
        <ele>2547.0</ele>
        <time>2018-09-01T13:51:30Z</time>
      </trkpt>
      <trkpt lat="40.641283" lon="-5.025150">
        <ele>2543.0</ele>
        <time>2018-09-01T13:51:31Z</time>
      </trkpt>
      <trkpt lat="40.641383" lon="-5.025033">
        <ele>2540.0</ele>
        <time>2018-09-01T13:51:32Z</time>
      </trkpt>
      <trkpt lat="40.641483" lon="-5.024917">
        <ele>2538.0</ele>
        <time>2018-09-01T13:51:33Z</time>
      </trkpt>
      <trkpt lat="40.641567" lon="-5.024800">
        <ele>2537.0</ele>
        <time>2018-09-01T13:51:34Z</time>
      </trkpt>
      <trkpt lat="40.641650" lon="-5.024700">
        <ele>2535.0</ele>
        <time>2018-09-01T13:51:35Z</time>
      </trkpt>
      <trkpt lat="40.641733" lon="-5.024600">
        <ele>2533.0</ele>
        <time>2018-09-01T13:51:36Z</time>
      </trkpt>
      <trkpt lat="40.641833" lon="-5.024500">
        <ele>2530.0</ele>
        <time>2018-09-01T13:51:37Z</time>
      </trkpt>
      <trkpt lat="40.641933" lon="-5.024383">
        <ele>2526.0</ele>
        <time>2018-09-01T13:51:38Z</time>
      </trkpt>
      <trkpt lat="40.642017" lon="-5.024267">
        <ele>2523.0</ele>
        <time>2018-09-01T13:51:39Z</time>
      </trkpt>
      <trkpt lat="40.642100" lon="-5.024133">
        <ele>2520.0</ele>
        <time>2018-09-01T13:51:40Z</time>
      </trkpt>
      <trkpt lat="40.642167" lon="-5.024017">
        <ele>2518.0</ele>
        <time>2018-09-01T13:51:41Z</time>
      </trkpt>
      <trkpt lat="40.642250" lon="-5.023900">
        <ele>2516.0</ele>
        <time>2018-09-01T13:51:42Z</time>
      </trkpt>
      <trkpt lat="40.642333" lon="-5.023767">
        <ele>2514.0</ele>
        <time>2018-09-01T13:51:43Z</time>
      </trkpt>
      <trkpt lat="40.642400" lon="-5.023633">
        <ele>2512.0</ele>
        <time>2018-09-01T13:51:44Z</time>
      </trkpt>
      <trkpt lat="40.642450" lon="-5.023500">
        <ele>2510.0</ele>
        <time>2018-09-01T13:51:45Z</time>
      </trkpt>
      <trkpt lat="40.642500" lon="-5.023350">
        <ele>2508.0</ele>
        <time>2018-09-01T13:51:46Z</time>
      </trkpt>
      <trkpt lat="40.642517" lon="-5.023217">
        <ele>2506.0</ele>
        <time>2018-09-01T13:51:47Z</time>
      </trkpt>
      <trkpt lat="40.642517" lon="-5.023067">
        <ele>2504.0</ele>
        <time>2018-09-01T13:51:48Z</time>
      </trkpt>
      <trkpt lat="40.642533" lon="-5.022933">
        <ele>2501.0</ele>
        <time>2018-09-01T13:51:49Z</time>
      </trkpt>
      <trkpt lat="40.642533" lon="-5.022800">
        <ele>2498.0</ele>
        <time>2018-09-01T13:51:50Z</time>
      </trkpt>
      <trkpt lat="40.642533" lon="-5.022650">
        <ele>2495.0</ele>
        <time>2018-09-01T13:51:51Z</time>
      </trkpt>
      <trkpt lat="40.642550" lon="-5.022517">
        <ele>2492.0</ele>
        <time>2018-09-01T13:51:52Z</time>
      </trkpt>
      <trkpt lat="40.642583" lon="-5.022367">
        <ele>2488.0</ele>
        <time>2018-09-01T13:51:53Z</time>
      </trkpt>
      <trkpt lat="40.642633" lon="-5.022217">
        <ele>2485.0</ele>
        <time>2018-09-01T13:51:54Z</time>
      </trkpt>
      <trkpt lat="40.642683" lon="-5.022083">
        <ele>2482.0</ele>
        <time>2018-09-01T13:51:55Z</time>
      </trkpt>
      <trkpt lat="40.642750" lon="-5.021950">
        <ele>2480.0</ele>
        <time>2018-09-01T13:51:56Z</time>
      </trkpt>
      <trkpt lat="40.642817" lon="-5.021817">
        <ele>2479.0</ele>
        <time>2018-09-01T13:51:57Z</time>
      </trkpt>
      <trkpt lat="40.642883" lon="-5.021700">
        <ele>2477.0</ele>
        <time>2018-09-01T13:51:58Z</time>
      </trkpt>
      <trkpt lat="40.642950" lon="-5.021583">
        <ele>2475.0</ele>
        <time>2018-09-01T13:51:59Z</time>
      </trkpt>
      <trkpt lat="40.643017" lon="-5.021467">
        <ele>2474.0</ele>
        <time>2018-09-01T13:52:00Z</time>
      </trkpt>
      <trkpt lat="40.643083" lon="-5.021367">
        <ele>2472.0</ele>
        <time>2018-09-01T13:52:01Z</time>
      </trkpt>
      <trkpt lat="40.643167" lon="-5.021250">
        <ele>2469.0</ele>
        <time>2018-09-01T13:52:02Z</time>
      </trkpt>
      <trkpt lat="40.643250" lon="-5.021133">
        <ele>2465.0</ele>
        <time>2018-09-01T13:52:03Z</time>
      </trkpt>
      <trkpt lat="40.643333" lon="-5.021000">
        <ele>2461.0</ele>
        <time>2018-09-01T13:52:04Z</time>
      </trkpt>
      <trkpt lat="40.643417" lon="-5.020867">
        <ele>2460.0</ele>
        <time>2018-09-01T13:52:05Z</time>
      </trkpt>
      <trkpt lat="40.643483" lon="-5.020750">
        <ele>2460.0</ele>
        <time>2018-09-01T13:52:06Z</time>
      </trkpt>
      <trkpt lat="40.643550" lon="-5.020633">
        <ele>2460.0</ele>
        <time>2018-09-01T13:52:07Z</time>
      </trkpt>
      <trkpt lat="40.643600" lon="-5.020533">
        <ele>2459.0</ele>
        <time>2018-09-01T13:52:08Z</time>
      </trkpt>
      <trkpt lat="40.643667" lon="-5.020433">
        <ele>2457.0</ele>
        <time>2018-09-01T13:52:09Z</time>
      </trkpt>
      <trkpt lat="40.643733" lon="-5.020317">
        <ele>2454.0</ele>
        <time>2018-09-01T13:52:10Z</time>
      </trkpt>
      <trkpt lat="40.643800" lon="-5.020200">
        <ele>2451.0</ele>
        <time>2018-09-01T13:52:11Z</time>
      </trkpt>
      <trkpt lat="40.643883" lon="-5.020083">
        <ele>2448.0</ele>
        <time>2018-09-01T13:52:12Z</time>
      </trkpt>
      <trkpt lat="40.643967" lon="-5.019950">
        <ele>2445.0</ele>
        <time>2018-09-01T13:52:13Z</time>
      </trkpt>
      <trkpt lat="40.644067" lon="-5.019833">
        <ele>2444.0</ele>
        <time>2018-09-01T13:52:14Z</time>
      </trkpt>
      <trkpt lat="40.644133" lon="-5.019717">
        <ele>2444.0</ele>
        <time>2018-09-01T13:52:15Z</time>
      </trkpt>
      <trkpt lat="40.644200" lon="-5.019600">
        <ele>2443.0</ele>
        <time>2018-09-01T13:52:16Z</time>
      </trkpt>
      <trkpt lat="40.644267" lon="-5.019467">
        <ele>2441.0</ele>
        <time>2018-09-01T13:52:17Z</time>
      </trkpt>
      <trkpt lat="40.644333" lon="-5.019350">
        <ele>2440.0</ele>
        <time>2018-09-01T13:52:18Z</time>
      </trkpt>
      <trkpt lat="40.644400" lon="-5.019233">
        <ele>2439.0</ele>
        <time>2018-09-01T13:52:19Z</time>
      </trkpt>
      <trkpt lat="40.644467" lon="-5.019100">
        <ele>2437.0</ele>
        <time>2018-09-01T13:52:20Z</time>
      </trkpt>
      <trkpt lat="40.644533" lon="-5.018983">
        <ele>2436.0</ele>
        <time>2018-09-01T13:52:21Z</time>
      </trkpt>
      <trkpt lat="40.644583" lon="-5.018850">
        <ele>2434.0</ele>
        <time>2018-09-01T13:52:22Z</time>
      </trkpt>
      <trkpt lat="40.644650" lon="-5.018717">
        <ele>2433.0</ele>
        <time>2018-09-01T13:52:23Z</time>
      </trkpt>
      <trkpt lat="40.644717" lon="-5.018583">
        <ele>2432.0</ele>
        <time>2018-09-01T13:52:24Z</time>
      </trkpt>
      <trkpt lat="40.644800" lon="-5.018467">
        <ele>2431.0</ele>
        <time>2018-09-01T13:52:25Z</time>
      </trkpt>
      <trkpt lat="40.644867" lon="-5.018350">
        <ele>2430.0</ele>
        <time>2018-09-01T13:52:26Z</time>
      </trkpt>
      <trkpt lat="40.644950" lon="-5.018250">
        <ele>2430.0</ele>
        <time>2018-09-01T13:52:27Z</time>
      </trkpt>
      <trkpt lat="40.645017" lon="-5.018150">
        <ele>2430.0</ele>
        <time>2018-09-01T13:52:28Z</time>
      </trkpt>
      <trkpt lat="40.645100" lon="-5.018067">
        <ele>2430.0</ele>
        <time>2018-09-01T13:52:29Z</time>
      </trkpt>
      <trkpt lat="40.645167" lon="-5.017983">
        <ele>2429.0</ele>
        <time>2018-09-01T13:52:30Z</time>
      </trkpt>
      <trkpt lat="40.645233" lon="-5.017867">
        <ele>2427.0</ele>
        <time>2018-09-01T13:52:31Z</time>
      </trkpt>
      <trkpt lat="40.645300" lon="-5.017750">
        <ele>2426.0</ele>
        <time>2018-09-01T13:52:32Z</time>
      </trkpt>
      <trkpt lat="40.645367" lon="-5.017633">
        <ele>2424.0</ele>
        <time>2018-09-01T13:52:33Z</time>
      </trkpt>
      <trkpt lat="40.645450" lon="-5.017533">
        <ele>2424.0</ele>
        <time>2018-09-01T13:52:34Z</time>
      </trkpt>
      <trkpt lat="40.645517" lon="-5.017417">
        <ele>2424.0</ele>
        <time>2018-09-01T13:52:35Z</time>
      </trkpt>
      <trkpt lat="40.645583" lon="-5.017317">
        <ele>2425.0</ele>
        <time>2018-09-01T13:52:36Z</time>
      </trkpt>
      <trkpt lat="40.645633" lon="-5.017200">
        <ele>2424.0</ele>
        <time>2018-09-01T13:52:37Z</time>
      </trkpt>
      <trkpt lat="40.645683" lon="-5.017083">
        <ele>2423.0</ele>
        <time>2018-09-01T13:52:38Z</time>
      </trkpt>
      <trkpt lat="40.645750" lon="-5.016967">
        <ele>2422.0</ele>
        <time>2018-09-01T13:52:39Z</time>
      </trkpt>
      <trkpt lat="40.645800" lon="-5.016833">
        <ele>2421.0</ele>
        <time>2018-09-01T13:52:40Z</time>
      </trkpt>
      <trkpt lat="40.645867" lon="-5.016717">
        <ele>2420.0</ele>
        <time>2018-09-01T13:52:41Z</time>
      </trkpt>
      <trkpt lat="40.645900" lon="-5.016583">
        <ele>2420.0</ele>
        <time>2018-09-01T13:52:42Z</time>
      </trkpt>
      <trkpt lat="40.645950" lon="-5.016450">
        <ele>2420.0</ele>
        <time>2018-09-01T13:52:43Z</time>
      </trkpt>
      <trkpt lat="40.645983" lon="-5.016333">
        <ele>2420.0</ele>
        <time>2018-09-01T13:52:44Z</time>
      </trkpt>
      <trkpt lat="40.646033" lon="-5.016217">
        <ele>2419.0</ele>
        <time>2018-09-01T13:52:45Z</time>
      </trkpt>
      <trkpt lat="40.646100" lon="-5.016100">
        <ele>2417.0</ele>
        <time>2018-09-01T13:52:46Z</time>
      </trkpt>
      <trkpt lat="40.646167" lon="-5.016000">
        <ele>2416.0</ele>
        <time>2018-09-01T13:52:47Z</time>
      </trkpt>
      <trkpt lat="40.646233" lon="-5.015900">
        <ele>2415.0</ele>
        <time>2018-09-01T13:52:48Z</time>
      </trkpt>
      <trkpt lat="40.646300" lon="-5.015800">
        <ele>2413.0</ele>
        <time>2018-09-01T13:52:49Z</time>
      </trkpt>
      <trkpt lat="40.646383" lon="-5.015700">
        <ele>2412.0</ele>
        <time>2018-09-01T13:52:50Z</time>
      </trkpt>
      <trkpt lat="40.646450" lon="-5.015600">
        <ele>2411.0</ele>
        <time>2018-09-01T13:52:51Z</time>
      </trkpt>
      <trkpt lat="40.646533" lon="-5.015500">
        <ele>2410.0</ele>
        <time>2018-09-01T13:52:52Z</time>
      </trkpt>
      <trkpt lat="40.646600" lon="-5.015400">
        <ele>2409.0</ele>
        <time>2018-09-01T13:52:53Z</time>
      </trkpt>
      <trkpt lat="40.646667" lon="-5.015300">
        <ele>2408.0</ele>
        <time>2018-09-01T13:52:54Z</time>
      </trkpt>
      <trkpt lat="40.646733" lon="-5.015217">
        <ele>2406.0</ele>
        <time>2018-09-01T13:52:55Z</time>
      </trkpt>
      <trkpt lat="40.646817" lon="-5.015100">
        <ele>2404.0</ele>
        <time>2018-09-01T13:52:56Z</time>
      </trkpt>
      <trkpt lat="40.646883" lon="-5.015000">
        <ele>2403.0</ele>
        <time>2018-09-01T13:52:57Z</time>
      </trkpt>
      <trkpt lat="40.646950" lon="-5.014883">
        <ele>2402.0</ele>
        <time>2018-09-01T13:52:58Z</time>
      </trkpt>
      <trkpt lat="40.647017" lon="-5.014783">
        <ele>2401.0</ele>
        <time>2018-09-01T13:52:59Z</time>
      </trkpt>
      <trkpt lat="40.647083" lon="-5.014700">
        <ele>2400.0</ele>
        <time>2018-09-01T13:53:00Z</time>
      </trkpt>
      <trkpt lat="40.647150" lon="-5.014600">
        <ele>2398.0</ele>
        <time>2018-09-01T13:53:01Z</time>
      </trkpt>
      <trkpt lat="40.647217" lon="-5.014500">
        <ele>2396.0</ele>
        <time>2018-09-01T13:53:02Z</time>
      </trkpt>
      <trkpt lat="40.647283" lon="-5.014383">
        <ele>2394.0</ele>
        <time>2018-09-01T13:53:03Z</time>
      </trkpt>
      <trkpt lat="40.647350" lon="-5.014283">
        <ele>2393.0</ele>
        <time>2018-09-01T13:53:04Z</time>
      </trkpt>
      <trkpt lat="40.647417" lon="-5.014167">
        <ele>2391.0</ele>
        <time>2018-09-01T13:53:05Z</time>
      </trkpt>
      <trkpt lat="40.647483" lon="-5.014067">
        <ele>2389.0</ele>
        <time>2018-09-01T13:53:06Z</time>
      </trkpt>
      <trkpt lat="40.647550" lon="-5.013967">
        <ele>2387.0</ele>
        <time>2018-09-01T13:53:07Z</time>
      </trkpt>
      <trkpt lat="40.647617" lon="-5.013850">
        <ele>2385.0</ele>
        <time>2018-09-01T13:53:08Z</time>
      </trkpt>
      <trkpt lat="40.647683" lon="-5.013717">
        <ele>2382.0</ele>
        <time>2018-09-01T13:53:09Z</time>
      </trkpt>
      <trkpt lat="40.647733" lon="-5.013567">
        <ele>2380.0</ele>
        <time>2018-09-01T13:53:10Z</time>
      </trkpt>
      <trkpt lat="40.647783" lon="-5.013433">
        <ele>2379.0</ele>
        <time>2018-09-01T13:53:11Z</time>
      </trkpt>
      <trkpt lat="40.647850" lon="-5.013317">
        <ele>2378.0</ele>
        <time>2018-09-01T13:53:12Z</time>
      </trkpt>
      <trkpt lat="40.647900" lon="-5.013200">
        <ele>2377.0</ele>
        <time>2018-09-01T13:53:13Z</time>
      </trkpt>
      <trkpt lat="40.647950" lon="-5.013083">
        <ele>2376.0</ele>
        <time>2018-09-01T13:53:14Z</time>
      </trkpt>
      <trkpt lat="40.647983" lon="-5.012967">
        <ele>2374.0</ele>
        <time>2018-09-01T13:53:15Z</time>
      </trkpt>
      <trkpt lat="40.648033" lon="-5.012850">
        <ele>2371.0</ele>
        <time>2018-09-01T13:53:16Z</time>
      </trkpt>
      <trkpt lat="40.648100" lon="-5.012717">
        <ele>2369.0</ele>
        <time>2018-09-01T13:53:17Z</time>
      </trkpt>
      <trkpt lat="40.648150" lon="-5.012600">
        <ele>2368.0</ele>
        <time>2018-09-01T13:53:18Z</time>
      </trkpt>
      <trkpt lat="40.648217" lon="-5.012517">
        <ele>2368.0</ele>
        <time>2018-09-01T13:53:19Z</time>
      </trkpt>
      <trkpt lat="40.648250" lon="-5.012417">
        <ele>2367.0</ele>
        <time>2018-09-01T13:53:20Z</time>
      </trkpt>
      <trkpt lat="40.648283" lon="-5.012333">
        <ele>2366.0</ele>
        <time>2018-09-01T13:53:21Z</time>
      </trkpt>
      <trkpt lat="40.648317" lon="-5.012217">
        <ele>2363.0</ele>
        <time>2018-09-01T13:53:22Z</time>
      </trkpt>
      <trkpt lat="40.648367" lon="-5.012100">
        <ele>2360.0</ele>
        <time>2018-09-01T13:53:23Z</time>
      </trkpt>
      <trkpt lat="40.648433" lon="-5.012000">
        <ele>2356.0</ele>
        <time>2018-09-01T13:53:24Z</time>
      </trkpt>
      <trkpt lat="40.648500" lon="-5.011883">
        <ele>2354.0</ele>
        <time>2018-09-01T13:53:25Z</time>
      </trkpt>
      <trkpt lat="40.648550" lon="-5.011783">
        <ele>2353.0</ele>
        <time>2018-09-01T13:53:26Z</time>
      </trkpt>
      <trkpt lat="40.648600" lon="-5.011667">
        <ele>2351.0</ele>
        <time>2018-09-01T13:53:27Z</time>
      </trkpt>
      <trkpt lat="40.648650" lon="-5.011567">
        <ele>2349.0</ele>
        <time>2018-09-01T13:53:28Z</time>
      </trkpt>
      <trkpt lat="40.648717" lon="-5.011433">
        <ele>2347.0</ele>
        <time>2018-09-01T13:53:29Z</time>
      </trkpt>
      <trkpt lat="40.648783" lon="-5.011317">
        <ele>2346.0</ele>
        <time>2018-09-01T13:53:30Z</time>
      </trkpt>
      <trkpt lat="40.648850" lon="-5.011200">
        <ele>2345.0</ele>
        <time>2018-09-01T13:53:31Z</time>
      </trkpt>
      <trkpt lat="40.648917" lon="-5.011083">
        <ele>2344.0</ele>
        <time>2018-09-01T13:53:32Z</time>
      </trkpt>
      <trkpt lat="40.648967" lon="-5.010983">
        <ele>2343.0</ele>
        <time>2018-09-01T13:53:33Z</time>
      </trkpt>
      <trkpt lat="40.649033" lon="-5.010867">
        <ele>2342.0</ele>
        <time>2018-09-01T13:53:34Z</time>
      </trkpt>
      <trkpt lat="40.649100" lon="-5.010750">
        <ele>2339.0</ele>
        <time>2018-09-01T13:53:35Z</time>
      </trkpt>
      <trkpt lat="40.649167" lon="-5.010633">
        <ele>2337.0</ele>
        <time>2018-09-01T13:53:36Z</time>
      </trkpt>
      <trkpt lat="40.649250" lon="-5.010517">
        <ele>2335.0</ele>
        <time>2018-09-01T13:53:37Z</time>
      </trkpt>
      <trkpt lat="40.649317" lon="-5.010417">
        <ele>2333.0</ele>
        <time>2018-09-01T13:53:38Z</time>
      </trkpt>
      <trkpt lat="40.649400" lon="-5.010317">
        <ele>2332.0</ele>
        <time>2018-09-01T13:53:39Z</time>
      </trkpt>
      <trkpt lat="40.649467" lon="-5.010200">
        <ele>2330.0</ele>
        <time>2018-09-01T13:53:40Z</time>
      </trkpt>
      <trkpt lat="40.649533" lon="-5.010100">
        <ele>2329.0</ele>
        <time>2018-09-01T13:53:41Z</time>
      </trkpt>
      <trkpt lat="40.649617" lon="-5.010000">
        <ele>2327.0</ele>
        <time>2018-09-01T13:53:42Z</time>
      </trkpt>
      <trkpt lat="40.649700" lon="-5.009900">
        <ele>2325.0</ele>
        <time>2018-09-01T13:53:43Z</time>
      </trkpt>
      <trkpt lat="40.649783" lon="-5.009800">
        <ele>2322.0</ele>
        <time>2018-09-01T13:53:44Z</time>
      </trkpt>
      <trkpt lat="40.649867" lon="-5.009683">
        <ele>2320.0</ele>
        <time>2018-09-01T13:53:45Z</time>
      </trkpt>
      <trkpt lat="40.649950" lon="-5.009550">
        <ele>2317.0</ele>
        <time>2018-09-01T13:53:46Z</time>
      </trkpt>
      <trkpt lat="40.650033" lon="-5.009433">
        <ele>2315.0</ele>
        <time>2018-09-01T13:53:47Z</time>
      </trkpt>
      <trkpt lat="40.650117" lon="-5.009317">
        <ele>2314.0</ele>
        <time>2018-09-01T13:53:48Z</time>
      </trkpt>
      <trkpt lat="40.650200" lon="-5.009217">
        <ele>2311.0</ele>
        <time>2018-09-01T13:53:49Z</time>
      </trkpt>
      <trkpt lat="40.650283" lon="-5.009083">
        <ele>2309.0</ele>
        <time>2018-09-01T13:53:50Z</time>
      </trkpt>
      <trkpt lat="40.650350" lon="-5.008950">
        <ele>2306.0</ele>
        <time>2018-09-01T13:53:51Z</time>
      </trkpt>
      <trkpt lat="40.650417" lon="-5.008817">
        <ele>2303.0</ele>
        <time>2018-09-01T13:53:52Z</time>
      </trkpt>
      <trkpt lat="40.650483" lon="-5.008683">
        <ele>2301.0</ele>
        <time>2018-09-01T13:53:53Z</time>
      </trkpt>
      <trkpt lat="40.650550" lon="-5.008550">
        <ele>2299.0</ele>
        <time>2018-09-01T13:53:54Z</time>
      </trkpt>
      <trkpt lat="40.650617" lon="-5.008417">
        <ele>2296.0</ele>
        <time>2018-09-01T13:53:55Z</time>
      </trkpt>
      <trkpt lat="40.650667" lon="-5.008283">
        <ele>2294.0</ele>
        <time>2018-09-01T13:53:56Z</time>
      </trkpt>
      <trkpt lat="40.650717" lon="-5.008133">
        <ele>2291.0</ele>
        <time>2018-09-01T13:53:57Z</time>
      </trkpt>
      <trkpt lat="40.650767" lon="-5.007983">
        <ele>2289.0</ele>
        <time>2018-09-01T13:53:58Z</time>
      </trkpt>
      <trkpt lat="40.650817" lon="-5.007833">
        <ele>2286.0</ele>
        <time>2018-09-01T13:53:59Z</time>
      </trkpt>
      <trkpt lat="40.650867" lon="-5.007683">
        <ele>2284.0</ele>
        <time>2018-09-01T13:54:00Z</time>
      </trkpt>
      <trkpt lat="40.650900" lon="-5.007533">
        <ele>2283.0</ele>
        <time>2018-09-01T13:54:01Z</time>
      </trkpt>
      <trkpt lat="40.650933" lon="-5.007400">
        <ele>2281.0</ele>
        <time>2018-09-01T13:54:02Z</time>
      </trkpt>
      <trkpt lat="40.650983" lon="-5.007250">
        <ele>2280.0</ele>
        <time>2018-09-01T13:54:03Z</time>
      </trkpt>
      <trkpt lat="40.651033" lon="-5.007117">
        <ele>2279.0</ele>
        <time>2018-09-01T13:54:04Z</time>
      </trkpt>
      <trkpt lat="40.651100" lon="-5.006983">
        <ele>2277.0</ele>
        <time>2018-09-01T13:54:05Z</time>
      </trkpt>
      <trkpt lat="40.651150" lon="-5.006850">
        <ele>2276.0</ele>
        <time>2018-09-01T13:54:06Z</time>
      </trkpt>
      <trkpt lat="40.651217" lon="-5.006717">
        <ele>2275.0</ele>
        <time>2018-09-01T13:54:07Z</time>
      </trkpt>
      <trkpt lat="40.651283" lon="-5.006583">
        <ele>2273.0</ele>
        <time>2018-09-01T13:54:08Z</time>
      </trkpt>
      <trkpt lat="40.651333" lon="-5.006450">
        <ele>2271.0</ele>
        <time>2018-09-01T13:54:09Z</time>
      </trkpt>
      <trkpt lat="40.651417" lon="-5.006317">
        <ele>2270.0</ele>
        <time>2018-09-01T13:54:10Z</time>
      </trkpt>
      <trkpt lat="40.651483" lon="-5.006150">
        <ele>2269.0</ele>
        <time>2018-09-01T13:54:11Z</time>
      </trkpt>
      <trkpt lat="40.651550" lon="-5.005983">
        <ele>2269.0</ele>
        <time>2018-09-01T13:54:12Z</time>
      </trkpt>
      <trkpt lat="40.651617" lon="-5.005833">
        <ele>2270.0</ele>
        <time>2018-09-01T13:54:13Z</time>
      </trkpt>
      <trkpt lat="40.651667" lon="-5.005717">
        <ele>2272.0</ele>
        <time>2018-09-01T13:54:14Z</time>
      </trkpt>
      <trkpt lat="40.651733" lon="-5.005600">
        <ele>2272.0</ele>
        <time>2018-09-01T13:54:15Z</time>
      </trkpt>
      <trkpt lat="40.651783" lon="-5.005483">
        <ele>2271.0</ele>
        <time>2018-09-01T13:54:16Z</time>
      </trkpt>
      <trkpt lat="40.651850" lon="-5.005383">
        <ele>2269.0</ele>
        <time>2018-09-01T13:54:17Z</time>
      </trkpt>
      <trkpt lat="40.651917" lon="-5.005267">
        <ele>2267.0</ele>
        <time>2018-09-01T13:54:18Z</time>
      </trkpt>
      <trkpt lat="40.651983" lon="-5.005167">
        <ele>2264.0</ele>
        <time>2018-09-01T13:54:19Z</time>
      </trkpt>
      <trkpt lat="40.652067" lon="-5.005050">
        <ele>2261.0</ele>
        <time>2018-09-01T13:54:20Z</time>
      </trkpt>
      <trkpt lat="40.652150" lon="-5.004933">
        <ele>2258.0</ele>
        <time>2018-09-01T13:54:21Z</time>
      </trkpt>
      <trkpt lat="40.652217" lon="-5.004800">
        <ele>2255.0</ele>
        <time>2018-09-01T13:54:22Z</time>
      </trkpt>
      <trkpt lat="40.652300" lon="-5.004650">
        <ele>2253.0</ele>
        <time>2018-09-01T13:54:23Z</time>
      </trkpt>
      <trkpt lat="40.652367" lon="-5.004533">
        <ele>2251.0</ele>
        <time>2018-09-01T13:54:24Z</time>
      </trkpt>
      <trkpt lat="40.652417" lon="-5.004400">
        <ele>2250.0</ele>
        <time>2018-09-01T13:54:25Z</time>
      </trkpt>
      <trkpt lat="40.652483" lon="-5.004267">
        <ele>2248.0</ele>
        <time>2018-09-01T13:54:26Z</time>
      </trkpt>
      <trkpt lat="40.652533" lon="-5.004133">
        <ele>2246.0</ele>
        <time>2018-09-01T13:54:27Z</time>
      </trkpt>
      <trkpt lat="40.652583" lon="-5.004000">
        <ele>2243.0</ele>
        <time>2018-09-01T13:54:28Z</time>
      </trkpt>
      <trkpt lat="40.652650" lon="-5.003867">
        <ele>2239.0</ele>
        <time>2018-09-01T13:54:29Z</time>
      </trkpt>
      <trkpt lat="40.652700" lon="-5.003750">
        <ele>2237.0</ele>
        <time>2018-09-01T13:54:30Z</time>
      </trkpt>
      <trkpt lat="40.652750" lon="-5.003617">
        <ele>2234.0</ele>
        <time>2018-09-01T13:54:31Z</time>
      </trkpt>
      <trkpt lat="40.652800" lon="-5.003483">
        <ele>2232.0</ele>
        <time>2018-09-01T13:54:32Z</time>
      </trkpt>
      <trkpt lat="40.652833" lon="-5.003367">
        <ele>2229.0</ele>
        <time>2018-09-01T13:54:33Z</time>
      </trkpt>
      <trkpt lat="40.652900" lon="-5.003233">
        <ele>2226.0</ele>
        <time>2018-09-01T13:54:34Z</time>
      </trkpt>
      <trkpt lat="40.652950" lon="-5.003117">
        <ele>2223.0</ele>
        <time>2018-09-01T13:54:35Z</time>
      </trkpt>
      <trkpt lat="40.653017" lon="-5.003017">
        <ele>2220.0</ele>
        <time>2018-09-01T13:54:36Z</time>
      </trkpt>
      <trkpt lat="40.653083" lon="-5.002917">
        <ele>2218.0</ele>
        <time>2018-09-01T13:54:37Z</time>
      </trkpt>
      <trkpt lat="40.653133" lon="-5.002817">
        <ele>2216.0</ele>
        <time>2018-09-01T13:54:38Z</time>
      </trkpt>
      <trkpt lat="40.653200" lon="-5.002717">
        <ele>2214.0</ele>
        <time>2018-09-01T13:54:39Z</time>
      </trkpt>
      <trkpt lat="40.653250" lon="-5.002617">
        <ele>2212.0</ele>
        <time>2018-09-01T13:54:40Z</time>
      </trkpt>
      <trkpt lat="40.653300" lon="-5.002517">
        <ele>2209.0</ele>
        <time>2018-09-01T13:54:41Z</time>
      </trkpt>
      <trkpt lat="40.653367" lon="-5.002417">
        <ele>2207.0</ele>
        <time>2018-09-01T13:54:42Z</time>
      </trkpt>
      <trkpt lat="40.653450" lon="-5.002333">
        <ele>2205.0</ele>
        <time>2018-09-01T13:54:43Z</time>
      </trkpt>
      <trkpt lat="40.653517" lon="-5.002250">
        <ele>2204.0</ele>
        <time>2018-09-01T13:54:44Z</time>
      </trkpt>
      <trkpt lat="40.653567" lon="-5.002150">
        <ele>2204.0</ele>
        <time>2018-09-01T13:54:45Z</time>
      </trkpt>
      <trkpt lat="40.653617" lon="-5.002050">
        <ele>2203.0</ele>
        <time>2018-09-01T13:54:46Z</time>
      </trkpt>
      <trkpt lat="40.653667" lon="-5.001950">
        <ele>2201.0</ele>
        <time>2018-09-01T13:54:47Z</time>
      </trkpt>
      <trkpt lat="40.653717" lon="-5.001850">
        <ele>2199.0</ele>
        <time>2018-09-01T13:54:48Z</time>
      </trkpt>
      <trkpt lat="40.653767" lon="-5.001733">
        <ele>2197.0</ele>
        <time>2018-09-01T13:54:49Z</time>
      </trkpt>
      <trkpt lat="40.653833" lon="-5.001617">
        <ele>2195.0</ele>
        <time>2018-09-01T13:54:50Z</time>
      </trkpt>
      <trkpt lat="40.653900" lon="-5.001517">
        <ele>2193.0</ele>
        <time>2018-09-01T13:54:51Z</time>
      </trkpt>
      <trkpt lat="40.653950" lon="-5.001400">
        <ele>2192.0</ele>
        <time>2018-09-01T13:54:52Z</time>
      </trkpt>
      <trkpt lat="40.654017" lon="-5.001283">
        <ele>2191.0</ele>
        <time>2018-09-01T13:54:53Z</time>
      </trkpt>
      <trkpt lat="40.654067" lon="-5.001150">
        <ele>2189.0</ele>
        <time>2018-09-01T13:54:54Z</time>
      </trkpt>
      <trkpt lat="40.654117" lon="-5.001017">
        <ele>2188.0</ele>
        <time>2018-09-01T13:54:55Z</time>
      </trkpt>
      <trkpt lat="40.654183" lon="-5.000883">
        <ele>2186.0</ele>
        <time>2018-09-01T13:54:56Z</time>
      </trkpt>
      <trkpt lat="40.654250" lon="-5.000767">
        <ele>2185.0</ele>
        <time>2018-09-01T13:54:57Z</time>
      </trkpt>
      <trkpt lat="40.654300" lon="-5.000650">
        <ele>2183.0</ele>
        <time>2018-09-01T13:54:58Z</time>
      </trkpt>
      <trkpt lat="40.654367" lon="-5.000550">
        <ele>2183.0</ele>
        <time>2018-09-01T13:54:59Z</time>
      </trkpt>
      <trkpt lat="40.654433" lon="-5.000467">
        <ele>2181.0</ele>
        <time>2018-09-01T13:55:00Z</time>
      </trkpt>
      <trkpt lat="40.654500" lon="-5.000367">
        <ele>2179.0</ele>
        <time>2018-09-01T13:55:01Z</time>
      </trkpt>
      <trkpt lat="40.654567" lon="-5.000283">
        <ele>2177.0</ele>
        <time>2018-09-01T13:55:02Z</time>
      </trkpt>
      <trkpt lat="40.654650" lon="-5.000200">
        <ele>2175.0</ele>
        <time>2018-09-01T13:55:03Z</time>
      </trkpt>
      <trkpt lat="40.654717" lon="-5.000100">
        <ele>2174.0</ele>
        <time>2018-09-01T13:55:04Z</time>
      </trkpt>
      <trkpt lat="40.654783" lon="-5.000017">
        <ele>2173.0</ele>
        <time>2018-09-01T13:55:05Z</time>
      </trkpt>
      <trkpt lat="40.654850" lon="-4.999900">
        <ele>2171.0</ele>
        <time>2018-09-01T13:55:06Z</time>
      </trkpt>
      <trkpt lat="40.654900" lon="-4.999800">
        <ele>2169.0</ele>
        <time>2018-09-01T13:55:07Z</time>
      </trkpt>
      <trkpt lat="40.654967" lon="-4.999667">
        <ele>2166.0</ele>
        <time>2018-09-01T13:55:08Z</time>
      </trkpt>
      <trkpt lat="40.655033" lon="-4.999550">
        <ele>2164.0</ele>
        <time>2018-09-01T13:55:09Z</time>
      </trkpt>
      <trkpt lat="40.655083" lon="-4.999433">
        <ele>2162.0</ele>
        <time>2018-09-01T13:55:10Z</time>
      </trkpt>
      <trkpt lat="40.655133" lon="-4.999317">
        <ele>2160.0</ele>
        <time>2018-09-01T13:55:11Z</time>
      </trkpt>
      <trkpt lat="40.655167" lon="-4.999183">
        <ele>2158.0</ele>
        <time>2018-09-01T13:55:12Z</time>
      </trkpt>
      <trkpt lat="40.655217" lon="-4.999083">
        <ele>2156.0</ele>
        <time>2018-09-01T13:55:13Z</time>
      </trkpt>
      <trkpt lat="40.655283" lon="-4.998983">
        <ele>2153.0</ele>
        <time>2018-09-01T13:55:14Z</time>
      </trkpt>
      <trkpt lat="40.655350" lon="-4.998883">
        <ele>2149.0</ele>
        <time>2018-09-01T13:55:15Z</time>
      </trkpt>
      <trkpt lat="40.655417" lon="-4.998783">
        <ele>2146.0</ele>
        <time>2018-09-01T13:55:16Z</time>
      </trkpt>
      <trkpt lat="40.655467" lon="-4.998667">
        <ele>2144.0</ele>
        <time>2018-09-01T13:55:17Z</time>
      </trkpt>
      <trkpt lat="40.655517" lon="-4.998533">
        <ele>2143.0</ele>
        <time>2018-09-01T13:55:18Z</time>
      </trkpt>
      <trkpt lat="40.655567" lon="-4.998433">
        <ele>2143.0</ele>
        <time>2018-09-01T13:55:19Z</time>
      </trkpt>
      <trkpt lat="40.655600" lon="-4.998317">
        <ele>2142.0</ele>
        <time>2018-09-01T13:55:20Z</time>
      </trkpt>
      <trkpt lat="40.655633" lon="-4.998217">
        <ele>2141.0</ele>
        <time>2018-09-01T13:55:21Z</time>
      </trkpt>
      <trkpt lat="40.655683" lon="-4.998100">
        <ele>2140.0</ele>
        <time>2018-09-01T13:55:22Z</time>
      </trkpt>
      <trkpt lat="40.655717" lon="-4.997983">
        <ele>2139.0</ele>
        <time>2018-09-01T13:55:23Z</time>
      </trkpt>
      <trkpt lat="40.655767" lon="-4.997883">
        <ele>2138.0</ele>
        <time>2018-09-01T13:55:24Z</time>
      </trkpt>
      <trkpt lat="40.655800" lon="-4.997783">
        <ele>2137.0</ele>
        <time>2018-09-01T13:55:25Z</time>
      </trkpt>
      <trkpt lat="40.655833" lon="-4.997683">
        <ele>2137.0</ele>
        <time>2018-09-01T13:55:26Z</time>
      </trkpt>
      <trkpt lat="40.655867" lon="-4.997567">
        <ele>2135.0</ele>
        <time>2018-09-01T13:55:27Z</time>
      </trkpt>
      <trkpt lat="40.655917" lon="-4.997467">
        <ele>2133.0</ele>
        <time>2018-09-01T13:55:28Z</time>
      </trkpt>
      <trkpt lat="40.655950" lon="-4.997350">
        <ele>2131.0</ele>
        <time>2018-09-01T13:55:29Z</time>
      </trkpt>
      <trkpt lat="40.656000" lon="-4.997250">
        <ele>2129.0</ele>
        <time>2018-09-01T13:55:30Z</time>
      </trkpt>
      <trkpt lat="40.656033" lon="-4.997167">
        <ele>2127.0</ele>
        <time>2018-09-01T13:55:31Z</time>
      </trkpt>
      <trkpt lat="40.656083" lon="-4.997067">
        <ele>2124.0</ele>
        <time>2018-09-01T13:55:32Z</time>
      </trkpt>
      <trkpt lat="40.656117" lon="-4.996967">
        <ele>2121.0</ele>
        <time>2018-09-01T13:55:33Z</time>
      </trkpt>
      <trkpt lat="40.656167" lon="-4.996867">
        <ele>2119.0</ele>
        <time>2018-09-01T13:55:34Z</time>
      </trkpt>
      <trkpt lat="40.656233" lon="-4.996783">
        <ele>2116.0</ele>
        <time>2018-09-01T13:55:35Z</time>
      </trkpt>
      <trkpt lat="40.656283" lon="-4.996683">
        <ele>2114.0</ele>
        <time>2018-09-01T13:55:36Z</time>
      </trkpt>
      <trkpt lat="40.656317" lon="-4.996600">
        <ele>2112.0</ele>
        <time>2018-09-01T13:55:37Z</time>
      </trkpt>
      <trkpt lat="40.656350" lon="-4.996500">
        <ele>2110.0</ele>
        <time>2018-09-01T13:55:38Z</time>
      </trkpt>
      <trkpt lat="40.656367" lon="-4.996417">
        <ele>2107.0</ele>
        <time>2018-09-01T13:55:39Z</time>
      </trkpt>
      <trkpt lat="40.656383" lon="-4.996317">
        <ele>2103.0</ele>
        <time>2018-09-01T13:55:40Z</time>
      </trkpt>
      <trkpt lat="40.656417" lon="-4.996217">
        <ele>2098.0</ele>
        <time>2018-09-01T13:55:41Z</time>
      </trkpt>
      <trkpt lat="40.656467" lon="-4.996100">
        <ele>2093.0</ele>
        <time>2018-09-01T13:55:42Z</time>
      </trkpt>
      <trkpt lat="40.656500" lon="-4.995983">
        <ele>2089.0</ele>
        <time>2018-09-01T13:55:43Z</time>
      </trkpt>
      <trkpt lat="40.656517" lon="-4.995850">
        <ele>2086.0</ele>
        <time>2018-09-01T13:55:44Z</time>
      </trkpt>
      <trkpt lat="40.656550" lon="-4.995733">
        <ele>2083.0</ele>
        <time>2018-09-01T13:55:45Z</time>
      </trkpt>
      <trkpt lat="40.656583" lon="-4.995617">
        <ele>2080.0</ele>
        <time>2018-09-01T13:55:46Z</time>
      </trkpt>
      <trkpt lat="40.656617" lon="-4.995500">
        <ele>2076.0</ele>
        <time>2018-09-01T13:55:47Z</time>
      </trkpt>
      <trkpt lat="40.656667" lon="-4.995367">
        <ele>2072.0</ele>
        <time>2018-09-01T13:55:48Z</time>
      </trkpt>
      <trkpt lat="40.656733" lon="-4.995233">
        <ele>2068.0</ele>
        <time>2018-09-01T13:55:49Z</time>
      </trkpt>
      <trkpt lat="40.656783" lon="-4.995100">
        <ele>2067.0</ele>
        <time>2018-09-01T13:55:50Z</time>
      </trkpt>
      <trkpt lat="40.656850" lon="-4.994983">
        <ele>2066.0</ele>
        <time>2018-09-01T13:55:51Z</time>
      </trkpt>
      <trkpt lat="40.656900" lon="-4.994867">
        <ele>2066.0</ele>
        <time>2018-09-01T13:55:52Z</time>
      </trkpt>
      <trkpt lat="40.656967" lon="-4.994783">
        <ele>2066.0</ele>
        <time>2018-09-01T13:55:53Z</time>
      </trkpt>
      <trkpt lat="40.657033" lon="-4.994683">
        <ele>2064.0</ele>
        <time>2018-09-01T13:55:54Z</time>
      </trkpt>
      <trkpt lat="40.657100" lon="-4.994583">
        <ele>2062.0</ele>
        <time>2018-09-01T13:55:55Z</time>
      </trkpt>
      <trkpt lat="40.657167" lon="-4.994467">
        <ele>2060.0</ele>
        <time>2018-09-01T13:55:56Z</time>
      </trkpt>
      <trkpt lat="40.657233" lon="-4.994367">
        <ele>2059.0</ele>
        <time>2018-09-01T13:55:57Z</time>
      </trkpt>
      <trkpt lat="40.657300" lon="-4.994283">
        <ele>2059.0</ele>
        <time>2018-09-01T13:55:58Z</time>
      </trkpt>
      <trkpt lat="40.657350" lon="-4.994217">
        <ele>2059.0</ele>
        <time>2018-09-01T13:55:59Z</time>
      </trkpt>
      <trkpt lat="40.657400" lon="-4.994133">
        <ele>2058.0</ele>
        <time>2018-09-01T13:56:00Z</time>
      </trkpt>
      <trkpt lat="40.657450" lon="-4.994050">
        <ele>2056.0</ele>
        <time>2018-09-01T13:56:01Z</time>
      </trkpt>
      <trkpt lat="40.657517" lon="-4.993950">
        <ele>2054.0</ele>
        <time>2018-09-01T13:56:02Z</time>
      </trkpt>
      <trkpt lat="40.657567" lon="-4.993867">
        <ele>2052.0</ele>
        <time>2018-09-01T13:56:03Z</time>
      </trkpt>
      <trkpt lat="40.657633" lon="-4.993800">
        <ele>2051.0</ele>
        <time>2018-09-01T13:56:04Z</time>
      </trkpt>
      <trkpt lat="40.657683" lon="-4.993733">
        <ele>2051.0</ele>
        <time>2018-09-01T13:56:05Z</time>
      </trkpt>
      <trkpt lat="40.657733" lon="-4.993667">
        <ele>2050.0</ele>
        <time>2018-09-01T13:56:06Z</time>
      </trkpt>
      <trkpt lat="40.657783" lon="-4.993583">
        <ele>2048.0</ele>
        <time>2018-09-01T13:56:07Z</time>
      </trkpt>
      <trkpt lat="40.657817" lon="-4.993483">
        <ele>2046.0</ele>
        <time>2018-09-01T13:56:08Z</time>
      </trkpt>
      <trkpt lat="40.657867" lon="-4.993367">
        <ele>2043.0</ele>
        <time>2018-09-01T13:56:09Z</time>
      </trkpt>
      <trkpt lat="40.657917" lon="-4.993267">
        <ele>2041.0</ele>
        <time>2018-09-01T13:56:10Z</time>
      </trkpt>
      <trkpt lat="40.657950" lon="-4.993150">
        <ele>2040.0</ele>
        <time>2018-09-01T13:56:11Z</time>
      </trkpt>
      <trkpt lat="40.658000" lon="-4.993050">
        <ele>2039.0</ele>
        <time>2018-09-01T13:56:12Z</time>
      </trkpt>
      <trkpt lat="40.658017" lon="-4.992950">
        <ele>2038.0</ele>
        <time>2018-09-01T13:56:13Z</time>
      </trkpt>
      <trkpt lat="40.658050" lon="-4.992850">
        <ele>2037.0</ele>
        <time>2018-09-01T13:56:14Z</time>
      </trkpt>
      <trkpt lat="40.658067" lon="-4.992717">
        <ele>2036.0</ele>
        <time>2018-09-01T13:56:15Z</time>
      </trkpt>
      <trkpt lat="40.658083" lon="-4.992600">
        <ele>2034.0</ele>
        <time>2018-09-01T13:56:16Z</time>
      </trkpt>
      <trkpt lat="40.658100" lon="-4.992500">
        <ele>2033.0</ele>
        <time>2018-09-01T13:56:17Z</time>
      </trkpt>
      <trkpt lat="40.658133" lon="-4.992400">
        <ele>2032.0</ele>
        <time>2018-09-01T13:56:18Z</time>
      </trkpt>
      <trkpt lat="40.658150" lon="-4.992283">
        <ele>2031.0</ele>
        <time>2018-09-01T13:56:19Z</time>
      </trkpt>
      <trkpt lat="40.658167" lon="-4.992183">
        <ele>2030.0</ele>
        <time>2018-09-01T13:56:20Z</time>
      </trkpt>
      <trkpt lat="40.658183" lon="-4.992083">
        <ele>2029.0</ele>
        <time>2018-09-01T13:56:21Z</time>
      </trkpt>
      <trkpt lat="40.658217" lon="-4.991967">
        <ele>2028.0</ele>
        <time>2018-09-01T13:56:22Z</time>
      </trkpt>
      <trkpt lat="40.658250" lon="-4.991867">
        <ele>2028.0</ele>
        <time>2018-09-01T13:56:23Z</time>
      </trkpt>
      <trkpt lat="40.658283" lon="-4.991750">
        <ele>2028.0</ele>
        <time>2018-09-01T13:56:24Z</time>
      </trkpt>
      <trkpt lat="40.658317" lon="-4.991650">
        <ele>2028.0</ele>
        <time>2018-09-01T13:56:25Z</time>
      </trkpt>
      <trkpt lat="40.658350" lon="-4.991533">
        <ele>2028.0</ele>
        <time>2018-09-01T13:56:26Z</time>
      </trkpt>
      <trkpt lat="40.658383" lon="-4.991417">
        <ele>2029.0</ele>
        <time>2018-09-01T13:56:27Z</time>
      </trkpt>
      <trkpt lat="40.658400" lon="-4.991283">
        <ele>2029.0</ele>
        <time>2018-09-01T13:56:28Z</time>
      </trkpt>
      <trkpt lat="40.658417" lon="-4.991167">
        <ele>2028.0</ele>
        <time>2018-09-01T13:56:29Z</time>
      </trkpt>
      <trkpt lat="40.658417" lon="-4.991033">
        <ele>2027.0</ele>
        <time>2018-09-01T13:56:30Z</time>
      </trkpt>
      <trkpt lat="40.658433" lon="-4.990900">
        <ele>2027.0</ele>
        <time>2018-09-01T13:56:31Z</time>
      </trkpt>
      <trkpt lat="40.658433" lon="-4.990783">
        <ele>2026.0</ele>
        <time>2018-09-01T13:56:32Z</time>
      </trkpt>
      <trkpt lat="40.658417" lon="-4.990650">
        <ele>2025.0</ele>
        <time>2018-09-01T13:56:33Z</time>
      </trkpt>
      <trkpt lat="40.658417" lon="-4.990533">
        <ele>2023.0</ele>
        <time>2018-09-01T13:56:34Z</time>
      </trkpt>
      <trkpt lat="40.658400" lon="-4.990400">
        <ele>2021.0</ele>
        <time>2018-09-01T13:56:35Z</time>
      </trkpt>
      <trkpt lat="40.658400" lon="-4.990267">
        <ele>2018.0</ele>
        <time>2018-09-01T13:56:36Z</time>
      </trkpt>
      <trkpt lat="40.658400" lon="-4.990117">
        <ele>2015.0</ele>
        <time>2018-09-01T13:56:37Z</time>
      </trkpt>
      <trkpt lat="40.658400" lon="-4.989983">
        <ele>2012.0</ele>
        <time>2018-09-01T13:56:38Z</time>
      </trkpt>
      <trkpt lat="40.658433" lon="-4.989850">
        <ele>2010.0</ele>
        <time>2018-09-01T13:56:39Z</time>
      </trkpt>
      <trkpt lat="40.658467" lon="-4.989733">
        <ele>2008.0</ele>
        <time>2018-09-01T13:56:40Z</time>
      </trkpt>
      <trkpt lat="40.658517" lon="-4.989633">
        <ele>2007.0</ele>
        <time>2018-09-01T13:56:41Z</time>
      </trkpt>
      <trkpt lat="40.658550" lon="-4.989550">
        <ele>2005.0</ele>
        <time>2018-09-01T13:56:42Z</time>
      </trkpt>
      <trkpt lat="40.658583" lon="-4.989433">
        <ele>2003.0</ele>
        <time>2018-09-01T13:56:43Z</time>
      </trkpt>
      <trkpt lat="40.658617" lon="-4.989333">
        <ele>1998.0</ele>
        <time>2018-09-01T13:56:44Z</time>
      </trkpt>
      <trkpt lat="40.658667" lon="-4.989217">
        <ele>1994.0</ele>
        <time>2018-09-01T13:56:45Z</time>
      </trkpt>
      <trkpt lat="40.658733" lon="-4.989100">
        <ele>1989.0</ele>
        <time>2018-09-01T13:56:46Z</time>
      </trkpt>
      <trkpt lat="40.658800" lon="-4.988983">
        <ele>1986.0</ele>
        <time>2018-09-01T13:56:47Z</time>
      </trkpt>
      <trkpt lat="40.658850" lon="-4.988867">
        <ele>1985.0</ele>
        <time>2018-09-01T13:56:48Z</time>
      </trkpt>
      <trkpt lat="40.658883" lon="-4.988750">
        <ele>1985.0</ele>
        <time>2018-09-01T13:56:49Z</time>
      </trkpt>
      <trkpt lat="40.658900" lon="-4.988650">
        <ele>1985.0</ele>
        <time>2018-09-01T13:56:50Z</time>
      </trkpt>
      <trkpt lat="40.658917" lon="-4.988567">
        <ele>1983.0</ele>
        <time>2018-09-01T13:56:51Z</time>
      </trkpt>
      <trkpt lat="40.658950" lon="-4.988483">
        <ele>1980.0</ele>
        <time>2018-09-01T13:56:52Z</time>
      </trkpt>
      <trkpt lat="40.659000" lon="-4.988383">
        <ele>1975.0</ele>
        <time>2018-09-01T13:56:53Z</time>
      </trkpt>
      <trkpt lat="40.659033" lon="-4.988267">
        <ele>1970.0</ele>
        <time>2018-09-01T13:56:54Z</time>
      </trkpt>
      <trkpt lat="40.659083" lon="-4.988150">
        <ele>1966.0</ele>
        <time>2018-09-01T13:56:55Z</time>
      </trkpt>
      <trkpt lat="40.659117" lon="-4.988017">
        <ele>1963.0</ele>
        <time>2018-09-01T13:56:56Z</time>
      </trkpt>
      <trkpt lat="40.659150" lon="-4.987917">
        <ele>1960.0</ele>
        <time>2018-09-01T13:56:57Z</time>
      </trkpt>
      <trkpt lat="40.659183" lon="-4.987850">
        <ele>1956.0</ele>
        <time>2018-09-01T13:56:58Z</time>
      </trkpt>
      <trkpt lat="40.659233" lon="-4.987783">
        <ele>1952.0</ele>
        <time>2018-09-01T13:56:59Z</time>
      </trkpt>
      <trkpt lat="40.659283" lon="-4.987733">
        <ele>1948.0</ele>
        <time>2018-09-01T13:57:00Z</time>
      </trkpt>
      <trkpt lat="40.659350" lon="-4.987700">
        <ele>1944.0</ele>
        <time>2018-09-01T13:57:01Z</time>
      </trkpt>
      <trkpt lat="40.659417" lon="-4.987650">
        <ele>1941.0</ele>
        <time>2018-09-01T13:57:02Z</time>
      </trkpt>
      <trkpt lat="40.659467" lon="-4.987617">
        <ele>1938.0</ele>
        <time>2018-09-01T13:57:03Z</time>
      </trkpt>
      <trkpt lat="40.659533" lon="-4.987583">
        <ele>1935.0</ele>
        <time>2018-09-01T13:57:04Z</time>
      </trkpt>
      <trkpt lat="40.659600" lon="-4.987567">
        <ele>1931.0</ele>
        <time>2018-09-01T13:57:05Z</time>
      </trkpt>
      <trkpt lat="40.659667" lon="-4.987517">
        <ele>1927.0</ele>
        <time>2018-09-01T13:57:06Z</time>
      </trkpt>
      <trkpt lat="40.659733" lon="-4.987483">
        <ele>1922.0</ele>
        <time>2018-09-01T13:57:07Z</time>
      </trkpt>
      <trkpt lat="40.659783" lon="-4.987433">
        <ele>1918.0</ele>
        <time>2018-09-01T13:57:08Z</time>
      </trkpt>
      <trkpt lat="40.659850" lon="-4.987367">
        <ele>1913.0</ele>
        <time>2018-09-01T13:57:09Z</time>
      </trkpt>
      <trkpt lat="40.659900" lon="-4.987283">
        <ele>1909.0</ele>
        <time>2018-09-01T13:57:10Z</time>
      </trkpt>
      <trkpt lat="40.659950" lon="-4.987183">
        <ele>1904.0</ele>
        <time>2018-09-01T13:57:11Z</time>
      </trkpt>
      <trkpt lat="40.659983" lon="-4.987067">
        <ele>1899.0</ele>
        <time>2018-09-01T13:57:12Z</time>
      </trkpt>
      <trkpt lat="40.660000" lon="-4.986933">
        <ele>1895.0</ele>
        <time>2018-09-01T13:57:13Z</time>
      </trkpt>
      <trkpt lat="40.660000" lon="-4.986783">
        <ele>1891.0</ele>
        <time>2018-09-01T13:57:14Z</time>
      </trkpt>
      <trkpt lat="40.660000" lon="-4.986650">
        <ele>1887.0</ele>
        <time>2018-09-01T13:57:15Z</time>
      </trkpt>
      <trkpt lat="40.659967" lon="-4.986500">
        <ele>1884.0</ele>
        <time>2018-09-01T13:57:16Z</time>
      </trkpt>
      <trkpt lat="40.659933" lon="-4.986367">
        <ele>1882.0</ele>
        <time>2018-09-01T13:57:17Z</time>
      </trkpt>
      <trkpt lat="40.659900" lon="-4.986233">
        <ele>1880.0</ele>
        <time>2018-09-01T13:57:18Z</time>
      </trkpt>
      <trkpt lat="40.659867" lon="-4.986100">
        <ele>1877.0</ele>
        <time>2018-09-01T13:57:19Z</time>
      </trkpt>
      <trkpt lat="40.659867" lon="-4.985950">
        <ele>1875.0</ele>
        <time>2018-09-01T13:57:20Z</time>
      </trkpt>
      <trkpt lat="40.659833" lon="-4.985800">
        <ele>1873.0</ele>
        <time>2018-09-01T13:57:21Z</time>
      </trkpt>
      <trkpt lat="40.659800" lon="-4.985667">
        <ele>1872.0</ele>
        <time>2018-09-01T13:57:22Z</time>
      </trkpt>
      <trkpt lat="40.659783" lon="-4.985533">
        <ele>1871.0</ele>
        <time>2018-09-01T13:57:23Z</time>
      </trkpt>
      <trkpt lat="40.659750" lon="-4.985400">
        <ele>1869.0</ele>
        <time>2018-09-01T13:57:24Z</time>
      </trkpt>
      <trkpt lat="40.659733" lon="-4.985267">
        <ele>1867.0</ele>
        <time>2018-09-01T13:57:25Z</time>
      </trkpt>
      <trkpt lat="40.659717" lon="-4.985133">
        <ele>1865.0</ele>
        <time>2018-09-01T13:57:26Z</time>
      </trkpt>
      <trkpt lat="40.659700" lon="-4.984983">
        <ele>1864.0</ele>
        <time>2018-09-01T13:57:27Z</time>
      </trkpt>
      <trkpt lat="40.659683" lon="-4.984867">
        <ele>1864.0</ele>
        <time>2018-09-01T13:57:28Z</time>
      </trkpt>
      <trkpt lat="40.659667" lon="-4.984750">
        <ele>1864.0</ele>
        <time>2018-09-01T13:57:29Z</time>
      </trkpt>
      <trkpt lat="40.659650" lon="-4.984650">
        <ele>1862.0</ele>
        <time>2018-09-01T13:57:30Z</time>
      </trkpt>
      <trkpt lat="40.659650" lon="-4.984533">
        <ele>1860.0</ele>
        <time>2018-09-01T13:57:31Z</time>
      </trkpt>
      <trkpt lat="40.659633" lon="-4.984417">
        <ele>1859.0</ele>
        <time>2018-09-01T13:57:32Z</time>
      </trkpt>
      <trkpt lat="40.659617" lon="-4.984300">
        <ele>1859.0</ele>
        <time>2018-09-01T13:57:33Z</time>
      </trkpt>
      <trkpt lat="40.659567" lon="-4.984200">
        <ele>1858.0</ele>
        <time>2018-09-01T13:57:34Z</time>
      </trkpt>
      <trkpt lat="40.659550" lon="-4.984100">
        <ele>1858.0</ele>
        <time>2018-09-01T13:57:35Z</time>
      </trkpt>
      <trkpt lat="40.659533" lon="-4.984000">
        <ele>1856.0</ele>
        <time>2018-09-01T13:57:36Z</time>
      </trkpt>
      <trkpt lat="40.659533" lon="-4.983883">
        <ele>1853.0</ele>
        <time>2018-09-01T13:57:37Z</time>
      </trkpt>
      <trkpt lat="40.659533" lon="-4.983783">
        <ele>1852.0</ele>
        <time>2018-09-01T13:57:38Z</time>
      </trkpt>
      <trkpt lat="40.659533" lon="-4.983667">
        <ele>1852.0</ele>
        <time>2018-09-01T13:57:39Z</time>
      </trkpt>
      <trkpt lat="40.659533" lon="-4.983550">
        <ele>1852.0</ele>
        <time>2018-09-01T13:57:40Z</time>
      </trkpt>
      <trkpt lat="40.659533" lon="-4.983450">
        <ele>1853.0</ele>
        <time>2018-09-01T13:57:41Z</time>
      </trkpt>
      <trkpt lat="40.659533" lon="-4.983367">
        <ele>1853.0</ele>
        <time>2018-09-01T13:57:42Z</time>
      </trkpt>
      <trkpt lat="40.659533" lon="-4.983267">
        <ele>1852.0</ele>
        <time>2018-09-01T13:57:43Z</time>
      </trkpt>
      <trkpt lat="40.659533" lon="-4.983167">
        <ele>1852.0</ele>
        <time>2018-09-01T13:57:44Z</time>
      </trkpt>
      <trkpt lat="40.659550" lon="-4.983067">
        <ele>1851.0</ele>
        <time>2018-09-01T13:57:45Z</time>
      </trkpt>
      <trkpt lat="40.659567" lon="-4.982967">
        <ele>1852.0</ele>
        <time>2018-09-01T13:57:46Z</time>
      </trkpt>
      <trkpt lat="40.659567" lon="-4.982867">
        <ele>1852.0</ele>
        <time>2018-09-01T13:57:47Z</time>
      </trkpt>
      <trkpt lat="40.659567" lon="-4.982750">
        <ele>1852.0</ele>
        <time>2018-09-01T13:57:48Z</time>
      </trkpt>
      <trkpt lat="40.659533" lon="-4.982617">
        <ele>1851.0</ele>
        <time>2018-09-01T13:57:49Z</time>
      </trkpt>
      <trkpt lat="40.659517" lon="-4.982483">
        <ele>1852.0</ele>
        <time>2018-09-01T13:57:50Z</time>
      </trkpt>
      <trkpt lat="40.659483" lon="-4.982333">
        <ele>1853.0</ele>
        <time>2018-09-01T13:57:51Z</time>
      </trkpt>
      <trkpt lat="40.659433" lon="-4.982200">
        <ele>1855.0</ele>
        <time>2018-09-01T13:57:52Z</time>
      </trkpt>
      <trkpt lat="40.659400" lon="-4.982067">
        <ele>1857.0</ele>
        <time>2018-09-01T13:57:53Z</time>
      </trkpt>
      <trkpt lat="40.659383" lon="-4.981933">
        <ele>1859.0</ele>
        <time>2018-09-01T13:57:54Z</time>
      </trkpt>
      <trkpt lat="40.659383" lon="-4.981833">
        <ele>1860.0</ele>
        <time>2018-09-01T13:57:55Z</time>
      </trkpt>
      <trkpt lat="40.659417" lon="-4.981733">
        <ele>1860.0</ele>
        <time>2018-09-01T13:57:56Z</time>
      </trkpt>
      <trkpt lat="40.659483" lon="-4.981667">
        <ele>1858.0</ele>
        <time>2018-09-01T13:57:57Z</time>
      </trkpt>
      <trkpt lat="40.659550" lon="-4.981667">
        <ele>1856.0</ele>
        <time>2018-09-01T13:57:58Z</time>
      </trkpt>
      <trkpt lat="40.659617" lon="-4.981733">
        <ele>1854.0</ele>
        <time>2018-09-01T13:57:59Z</time>
      </trkpt>
      <trkpt lat="40.659617" lon="-4.981867">
        <ele>1853.0</ele>
        <time>2018-09-01T13:58:00Z</time>
      </trkpt>
      <trkpt lat="40.659583" lon="-4.982000">
        <ele>1853.0</ele>
        <time>2018-09-01T13:58:01Z</time>
      </trkpt>
      <trkpt lat="40.659517" lon="-4.982133">
        <ele>1855.0</ele>
        <time>2018-09-01T13:58:02Z</time>
      </trkpt>
      <trkpt lat="40.659417" lon="-4.982233">
        <ele>1858.0</ele>
        <time>2018-09-01T13:58:03Z</time>
      </trkpt>
      <trkpt lat="40.659300" lon="-4.982300">
        <ele>1861.0</ele>
        <time>2018-09-01T13:58:04Z</time>
      </trkpt>
      <trkpt lat="40.659200" lon="-4.982367">
        <ele>1863.0</ele>
        <time>2018-09-01T13:58:05Z</time>
      </trkpt>
      <trkpt lat="40.659100" lon="-4.982433">
        <ele>1865.0</ele>
        <time>2018-09-01T13:58:06Z</time>
      </trkpt>
      <trkpt lat="40.658983" lon="-4.982500">
        <ele>1866.0</ele>
        <time>2018-09-01T13:58:07Z</time>
      </trkpt>
      <trkpt lat="40.658867" lon="-4.982533">
        <ele>1867.0</ele>
        <time>2018-09-01T13:58:08Z</time>
      </trkpt>
      <trkpt lat="40.658733" lon="-4.982517">
        <ele>1867.0</ele>
        <time>2018-09-01T13:58:09Z</time>
      </trkpt>
      <trkpt lat="40.658600" lon="-4.982450">
        <ele>1868.0</ele>
        <time>2018-09-01T13:58:10Z</time>
      </trkpt>
      <trkpt lat="40.658500" lon="-4.982350">
        <ele>1868.0</ele>
        <time>2018-09-01T13:58:11Z</time>
      </trkpt>
      <trkpt lat="40.658450" lon="-4.982200">
        <ele>1869.0</ele>
        <time>2018-09-01T13:58:12Z</time>
      </trkpt>
      <trkpt lat="40.658450" lon="-4.982050">
        <ele>1869.0</ele>
        <time>2018-09-01T13:58:13Z</time>
      </trkpt>
      <trkpt lat="40.658483" lon="-4.981933">
        <ele>1870.0</ele>
        <time>2018-09-01T13:58:14Z</time>
      </trkpt>
      <trkpt lat="40.658550" lon="-4.981867">
        <ele>1871.0</ele>
        <time>2018-09-01T13:58:15Z</time>
      </trkpt>
      <trkpt lat="40.658617" lon="-4.981867">
        <ele>1872.0</ele>
        <time>2018-09-01T13:58:16Z</time>
      </trkpt>
      <trkpt lat="40.658683" lon="-4.981917">
        <ele>1872.0</ele>
        <time>2018-09-01T13:58:17Z</time>
      </trkpt>
      <trkpt lat="40.658733" lon="-4.982000">
        <ele>1873.0</ele>
        <time>2018-09-01T13:58:18Z</time>
      </trkpt>
      <trkpt lat="40.658750" lon="-4.982133">
        <ele>1873.0</ele>
        <time>2018-09-01T13:58:19Z</time>
      </trkpt>
      <trkpt lat="40.658717" lon="-4.982267">
        <ele>1875.0</ele>
        <time>2018-09-01T13:58:20Z</time>
      </trkpt>
      <trkpt lat="40.658683" lon="-4.982400">
        <ele>1878.0</ele>
        <time>2018-09-01T13:58:21Z</time>
      </trkpt>
      <trkpt lat="40.658617" lon="-4.982517">
        <ele>1881.0</ele>
        <time>2018-09-01T13:58:22Z</time>
      </trkpt>
      <trkpt lat="40.658533" lon="-4.982583">
        <ele>1884.0</ele>
        <time>2018-09-01T13:58:23Z</time>
      </trkpt>
      <trkpt lat="40.658433" lon="-4.982650">
        <ele>1885.0</ele>
        <time>2018-09-01T13:58:24Z</time>
      </trkpt>
      <trkpt lat="40.658317" lon="-4.982683">
        <ele>1885.0</ele>
        <time>2018-09-01T13:58:25Z</time>
      </trkpt>
      <trkpt lat="40.658183" lon="-4.982667">
        <ele>1884.0</ele>
        <time>2018-09-01T13:58:26Z</time>
      </trkpt>
      <trkpt lat="40.658067" lon="-4.982583">
        <ele>1883.0</ele>
        <time>2018-09-01T13:58:27Z</time>
      </trkpt>
      <trkpt lat="40.657983" lon="-4.982450">
        <ele>1882.0</ele>
        <time>2018-09-01T13:58:28Z</time>
      </trkpt>
      <trkpt lat="40.657950" lon="-4.982300">
        <ele>1882.0</ele>
        <time>2018-09-01T13:58:29Z</time>
      </trkpt>
      <trkpt lat="40.657950" lon="-4.982150">
        <ele>1884.0</ele>
        <time>2018-09-01T13:58:30Z</time>
      </trkpt>
      <trkpt lat="40.657983" lon="-4.982033">
        <ele>1886.0</ele>
        <time>2018-09-01T13:58:31Z</time>
      </trkpt>
      <trkpt lat="40.658033" lon="-4.981967">
        <ele>1889.0</ele>
        <time>2018-09-01T13:58:32Z</time>
      </trkpt>
      <trkpt lat="40.658083" lon="-4.981917">
        <ele>1890.0</ele>
        <time>2018-09-01T13:58:33Z</time>
      </trkpt>
      <trkpt lat="40.658150" lon="-4.981900">
        <ele>1891.0</ele>
        <time>2018-09-01T13:58:34Z</time>
      </trkpt>
      <trkpt lat="40.658217" lon="-4.981883">
        <ele>1891.0</ele>
        <time>2018-09-01T13:58:35Z</time>
      </trkpt>
      <trkpt lat="40.658283" lon="-4.981900">
        <ele>1892.0</ele>
        <time>2018-09-01T13:58:36Z</time>
      </trkpt>
      <trkpt lat="40.658350" lon="-4.981967">
        <ele>1892.0</ele>
        <time>2018-09-01T13:58:37Z</time>
      </trkpt>
      <trkpt lat="40.658383" lon="-4.982067">
        <ele>1894.0</ele>
        <time>2018-09-01T13:58:38Z</time>
      </trkpt>
      <trkpt lat="40.658383" lon="-4.982183">
        <ele>1896.0</ele>
        <time>2018-09-01T13:58:39Z</time>
      </trkpt>
      <trkpt lat="40.658333" lon="-4.982300">
        <ele>1898.0</ele>
        <time>2018-09-01T13:58:40Z</time>
      </trkpt>
      <trkpt lat="40.658267" lon="-4.982400">
        <ele>1900.0</ele>
        <time>2018-09-01T13:58:41Z</time>
      </trkpt>
      <trkpt lat="40.658167" lon="-4.982467">
        <ele>1901.0</ele>
        <time>2018-09-01T13:58:42Z</time>
      </trkpt>
      <trkpt lat="40.658050" lon="-4.982517">
        <ele>1901.0</ele>
        <time>2018-09-01T13:58:43Z</time>
      </trkpt>
      <trkpt lat="40.657933" lon="-4.982583">
        <ele>1901.0</ele>
        <time>2018-09-01T13:58:44Z</time>
      </trkpt>
      <trkpt lat="40.657800" lon="-4.982633">
        <ele>1901.0</ele>
        <time>2018-09-01T13:58:45Z</time>
      </trkpt>
      <trkpt lat="40.657650" lon="-4.982617">
        <ele>1902.0</ele>
        <time>2018-09-01T13:58:46Z</time>
      </trkpt>
      <trkpt lat="40.657533" lon="-4.982550">
        <ele>1903.0</ele>
        <time>2018-09-01T13:58:47Z</time>
      </trkpt>
      <trkpt lat="40.657450" lon="-4.982417">
        <ele>1902.0</ele>
        <time>2018-09-01T13:58:48Z</time>
      </trkpt>
      <trkpt lat="40.657417" lon="-4.982250">
        <ele>1902.0</ele>
        <time>2018-09-01T13:58:49Z</time>
      </trkpt>
      <trkpt lat="40.657433" lon="-4.982100">
        <ele>1903.0</ele>
        <time>2018-09-01T13:58:50Z</time>
      </trkpt>
      <trkpt lat="40.657467" lon="-4.981983">
        <ele>1906.0</ele>
        <time>2018-09-01T13:58:51Z</time>
      </trkpt>
      <trkpt lat="40.657500" lon="-4.981900">
        <ele>1910.0</ele>
        <time>2018-09-01T13:58:52Z</time>
      </trkpt>
      <trkpt lat="40.657550" lon="-4.981850">
        <ele>1913.0</ele>
        <time>2018-09-01T13:58:53Z</time>
      </trkpt>
      <trkpt lat="40.657600" lon="-4.981817">
        <ele>1914.0</ele>
        <time>2018-09-01T13:58:54Z</time>
      </trkpt>
      <trkpt lat="40.657650" lon="-4.981817">
        <ele>1914.0</ele>
        <time>2018-09-01T13:58:55Z</time>
      </trkpt>
      <trkpt lat="40.657717" lon="-4.981867">
        <ele>1913.0</ele>
        <time>2018-09-01T13:58:56Z</time>
      </trkpt>
      <trkpt lat="40.657750" lon="-4.981933">
        <ele>1913.0</ele>
        <time>2018-09-01T13:58:57Z</time>
      </trkpt>
      <trkpt lat="40.657767" lon="-4.982050">
        <ele>1914.0</ele>
        <time>2018-09-01T13:58:58Z</time>
      </trkpt>
      <trkpt lat="40.657733" lon="-4.982150">
        <ele>1914.0</ele>
        <time>2018-09-01T13:58:59Z</time>
      </trkpt>
      <trkpt lat="40.657667" lon="-4.982250">
        <ele>1915.0</ele>
        <time>2018-09-01T13:59:00Z</time>
      </trkpt>
      <trkpt lat="40.657600" lon="-4.982350">
        <ele>1915.0</ele>
        <time>2018-09-01T13:59:01Z</time>
      </trkpt>
      <trkpt lat="40.657500" lon="-4.982433">
        <ele>1915.0</ele>
        <time>2018-09-01T13:59:02Z</time>
      </trkpt>
      <trkpt lat="40.657383" lon="-4.982483">
        <ele>1915.0</ele>
        <time>2018-09-01T13:59:03Z</time>
      </trkpt>
      <trkpt lat="40.657267" lon="-4.982500">
        <ele>1915.0</ele>
        <time>2018-09-01T13:59:04Z</time>
      </trkpt>
      <trkpt lat="40.657117" lon="-4.982467">
        <ele>1914.0</ele>
        <time>2018-09-01T13:59:05Z</time>
      </trkpt>
      <trkpt lat="40.657000" lon="-4.982400">
        <ele>1914.0</ele>
        <time>2018-09-01T13:59:06Z</time>
      </trkpt>
      <trkpt lat="40.656883" lon="-4.982283">
        <ele>1916.0</ele>
        <time>2018-09-01T13:59:07Z</time>
      </trkpt>
      <trkpt lat="40.656783" lon="-4.982167">
        <ele>1917.0</ele>
        <time>2018-09-01T13:59:08Z</time>
      </trkpt>
      <trkpt lat="40.656717" lon="-4.982050">
        <ele>1919.0</ele>
        <time>2018-09-01T13:59:09Z</time>
      </trkpt>
      <trkpt lat="40.656650" lon="-4.981917">
        <ele>1921.0</ele>
        <time>2018-09-01T13:59:10Z</time>
      </trkpt>
      <trkpt lat="40.656583" lon="-4.981783">
        <ele>1922.0</ele>
        <time>2018-09-01T13:59:11Z</time>
      </trkpt>
      <trkpt lat="40.656533" lon="-4.981667">
        <ele>1924.0</ele>
        <time>2018-09-01T13:59:12Z</time>
      </trkpt>
      <trkpt lat="40.656500" lon="-4.981550">
        <ele>1926.0</ele>
        <time>2018-09-01T13:59:13Z</time>
      </trkpt>
      <trkpt lat="40.656467" lon="-4.981433">
        <ele>1927.0</ele>
        <time>2018-09-01T13:59:14Z</time>
      </trkpt>
      <trkpt lat="40.656467" lon="-4.981350">
        <ele>1927.0</ele>
        <time>2018-09-01T13:59:15Z</time>
      </trkpt>
      <trkpt lat="40.656483" lon="-4.981267">
        <ele>1926.0</ele>
        <time>2018-09-01T13:59:16Z</time>
      </trkpt>
      <trkpt lat="40.656533" lon="-4.981250">
        <ele>1924.0</ele>
        <time>2018-09-01T13:59:17Z</time>
      </trkpt>
      <trkpt lat="40.656600" lon="-4.981283">
        <ele>1922.0</ele>
        <time>2018-09-01T13:59:18Z</time>
      </trkpt>
      <trkpt lat="40.656650" lon="-4.981367">
        <ele>1921.0</ele>
        <time>2018-09-01T13:59:19Z</time>
      </trkpt>
      <trkpt lat="40.656667" lon="-4.981500">
        <ele>1921.0</ele>
        <time>2018-09-01T13:59:20Z</time>
      </trkpt>
      <trkpt lat="40.656650" lon="-4.981633">
        <ele>1922.0</ele>
        <time>2018-09-01T13:59:21Z</time>
      </trkpt>
      <trkpt lat="40.656583" lon="-4.981750">
        <ele>1923.0</ele>
        <time>2018-09-01T13:59:22Z</time>
      </trkpt>
      <trkpt lat="40.656517" lon="-4.981850">
        <ele>1924.0</ele>
        <time>2018-09-01T13:59:23Z</time>
      </trkpt>
      <trkpt lat="40.656417" lon="-4.981900">
        <ele>1925.0</ele>
        <time>2018-09-01T13:59:24Z</time>
      </trkpt>
      <trkpt lat="40.656317" lon="-4.981950">
        <ele>1925.0</ele>
        <time>2018-09-01T13:59:25Z</time>
      </trkpt>
      <trkpt lat="40.656183" lon="-4.981950">
        <ele>1926.0</ele>
        <time>2018-09-01T13:59:26Z</time>
      </trkpt>
      <trkpt lat="40.656067" lon="-4.981917">
        <ele>1927.0</ele>
        <time>2018-09-01T13:59:27Z</time>
      </trkpt>
      <trkpt lat="40.655950" lon="-4.981850">
        <ele>1927.0</ele>
        <time>2018-09-01T13:59:28Z</time>
      </trkpt>
      <trkpt lat="40.655867" lon="-4.981767">
        <ele>1927.0</ele>
        <time>2018-09-01T13:59:29Z</time>
      </trkpt>
      <trkpt lat="40.655783" lon="-4.981667">
        <ele>1927.0</ele>
        <time>2018-09-01T13:59:30Z</time>
      </trkpt>
      <trkpt lat="40.655700" lon="-4.981550">
        <ele>1927.0</ele>
        <time>2018-09-01T13:59:31Z</time>
      </trkpt>
      <trkpt lat="40.655650" lon="-4.981450">
        <ele>1927.0</ele>
        <time>2018-09-01T13:59:32Z</time>
      </trkpt>
      <trkpt lat="40.655600" lon="-4.981350">
        <ele>1926.0</ele>
        <time>2018-09-01T13:59:33Z</time>
      </trkpt>
      <trkpt lat="40.655583" lon="-4.981233">
        <ele>1924.0</ele>
        <time>2018-09-01T13:59:34Z</time>
      </trkpt>
      <trkpt lat="40.655600" lon="-4.981133">
        <ele>1922.0</ele>
        <time>2018-09-01T13:59:35Z</time>
      </trkpt>
      <trkpt lat="40.655617" lon="-4.981017">
        <ele>1919.0</ele>
        <time>2018-09-01T13:59:36Z</time>
      </trkpt>
      <trkpt lat="40.655667" lon="-4.980917">
        <ele>1917.0</ele>
        <time>2018-09-01T13:59:37Z</time>
      </trkpt>
      <trkpt lat="40.655700" lon="-4.980817">
        <ele>1915.0</ele>
        <time>2018-09-01T13:59:38Z</time>
      </trkpt>
      <trkpt lat="40.655733" lon="-4.980733">
        <ele>1914.0</ele>
        <time>2018-09-01T13:59:39Z</time>
      </trkpt>
      <trkpt lat="40.655767" lon="-4.980633">
        <ele>1914.0</ele>
        <time>2018-09-01T13:59:40Z</time>
      </trkpt>
      <trkpt lat="40.655783" lon="-4.980550">
        <ele>1913.0</ele>
        <time>2018-09-01T13:59:41Z</time>
      </trkpt>
      <trkpt lat="40.655817" lon="-4.980467">
        <ele>1911.0</ele>
        <time>2018-09-01T13:59:42Z</time>
      </trkpt>
      <trkpt lat="40.655833" lon="-4.980383">
        <ele>1908.0</ele>
        <time>2018-09-01T13:59:43Z</time>
      </trkpt>
      <trkpt lat="40.655883" lon="-4.980283">
        <ele>1906.0</ele>
        <time>2018-09-01T13:59:44Z</time>
      </trkpt>
      <trkpt lat="40.655933" lon="-4.980200">
        <ele>1902.0</ele>
        <time>2018-09-01T13:59:45Z</time>
      </trkpt>
      <trkpt lat="40.656000" lon="-4.980117">
        <ele>1900.0</ele>
        <time>2018-09-01T13:59:46Z</time>
      </trkpt>
      <trkpt lat="40.656067" lon="-4.980050">
        <ele>1898.0</ele>
        <time>2018-09-01T13:59:47Z</time>
      </trkpt>
      <trkpt lat="40.656133" lon="-4.980000">
        <ele>1897.0</ele>
        <time>2018-09-01T13:59:48Z</time>
      </trkpt>
      <trkpt lat="40.656200" lon="-4.979950">
        <ele>1896.0</ele>
        <time>2018-09-01T13:59:49Z</time>
      </trkpt>
      <trkpt lat="40.656250" lon="-4.979900">
        <ele>1894.0</ele>
        <time>2018-09-01T13:59:50Z</time>
      </trkpt>
      <trkpt lat="40.656333" lon="-4.979850">
        <ele>1890.0</ele>
        <time>2018-09-01T13:59:51Z</time>
      </trkpt>
      <trkpt lat="40.656417" lon="-4.979817">
        <ele>1886.0</ele>
        <time>2018-09-01T13:59:52Z</time>
      </trkpt>
      <trkpt lat="40.656500" lon="-4.979783">
        <ele>1882.0</ele>
        <time>2018-09-01T13:59:53Z</time>
      </trkpt>
      <trkpt lat="40.656600" lon="-4.979733">
        <ele>1879.0</ele>
        <time>2018-09-01T13:59:54Z</time>
      </trkpt>
      <trkpt lat="40.656683" lon="-4.979700">
        <ele>1878.0</ele>
        <time>2018-09-01T13:59:55Z</time>
      </trkpt>
      <trkpt lat="40.656767" lon="-4.979683">
        <ele>1876.0</ele>
        <time>2018-09-01T13:59:56Z</time>
      </trkpt>
      <trkpt lat="40.656850" lon="-4.979650">
        <ele>1875.0</ele>
        <time>2018-09-01T13:59:57Z</time>
      </trkpt>
      <trkpt lat="40.656917" lon="-4.979633">
        <ele>1873.0</ele>
        <time>2018-09-01T13:59:58Z</time>
      </trkpt>
      <trkpt lat="40.657000" lon="-4.979600">
        <ele>1870.0</ele>
        <time>2018-09-01T13:59:59Z</time>
      </trkpt>
      <trkpt lat="40.657083" lon="-4.979567">
        <ele>1868.0</ele>
        <time>2018-09-01T14:00:00Z</time>
      </trkpt>
      <trkpt lat="40.657167" lon="-4.979517">
        <ele>1865.0</ele>
        <time>2018-09-01T14:00:01Z</time>
      </trkpt>
      <trkpt lat="40.657233" lon="-4.979450">
        <ele>1863.0</ele>
        <time>2018-09-01T14:00:02Z</time>
      </trkpt>
      <trkpt lat="40.657300" lon="-4.979383">
        <ele>1861.0</ele>
        <time>2018-09-01T14:00:03Z</time>
      </trkpt>
      <trkpt lat="40.657350" lon="-4.979300">
        <ele>1859.0</ele>
        <time>2018-09-01T14:00:04Z</time>
      </trkpt>
      <trkpt lat="40.657383" lon="-4.979233">
        <ele>1856.0</ele>
        <time>2018-09-01T14:00:05Z</time>
      </trkpt>
      <trkpt lat="40.657433" lon="-4.979150">
        <ele>1852.0</ele>
        <time>2018-09-01T14:00:06Z</time>
      </trkpt>
      <trkpt lat="40.657483" lon="-4.979033">
        <ele>1848.0</ele>
        <time>2018-09-01T14:00:07Z</time>
      </trkpt>
      <trkpt lat="40.657533" lon="-4.978917">
        <ele>1844.0</ele>
        <time>2018-09-01T14:00:08Z</time>
      </trkpt>
      <trkpt lat="40.657583" lon="-4.978800">
        <ele>1842.0</ele>
        <time>2018-09-01T14:00:09Z</time>
      </trkpt>
      <trkpt lat="40.657617" lon="-4.978683">
        <ele>1840.0</ele>
        <time>2018-09-01T14:00:10Z</time>
      </trkpt>
      <trkpt lat="40.657650" lon="-4.978583">
        <ele>1839.0</ele>
        <time>2018-09-01T14:00:11Z</time>
      </trkpt>
      <trkpt lat="40.657683" lon="-4.978483">
        <ele>1837.0</ele>
        <time>2018-09-01T14:00:12Z</time>
      </trkpt>
      <trkpt lat="40.657700" lon="-4.978350">
        <ele>1835.0</ele>
        <time>2018-09-01T14:00:13Z</time>
      </trkpt>
      <trkpt lat="40.657717" lon="-4.978217">
        <ele>1832.0</ele>
        <time>2018-09-01T14:00:14Z</time>
      </trkpt>
      <trkpt lat="40.657717" lon="-4.978067">
        <ele>1829.0</ele>
        <time>2018-09-01T14:00:15Z</time>
      </trkpt>
      <trkpt lat="40.657700" lon="-4.977900">
        <ele>1826.0</ele>
        <time>2018-09-01T14:00:16Z</time>
      </trkpt>
      <trkpt lat="40.657683" lon="-4.977750">
        <ele>1824.0</ele>
        <time>2018-09-01T14:00:17Z</time>
      </trkpt>
      <trkpt lat="40.657683" lon="-4.977600">
        <ele>1823.0</ele>
        <time>2018-09-01T14:00:18Z</time>
      </trkpt>
      <trkpt lat="40.657700" lon="-4.977467">
        <ele>1821.0</ele>
        <time>2018-09-01T14:00:19Z</time>
      </trkpt>
      <trkpt lat="40.657733" lon="-4.977350">
        <ele>1819.0</ele>
        <time>2018-09-01T14:00:20Z</time>
      </trkpt>
      <trkpt lat="40.657767" lon="-4.977233">
        <ele>1816.0</ele>
        <time>2018-09-01T14:00:21Z</time>
      </trkpt>
      <trkpt lat="40.657817" lon="-4.977100">
        <ele>1813.0</ele>
        <time>2018-09-01T14:00:22Z</time>
      </trkpt>
      <trkpt lat="40.657850" lon="-4.976983">
        <ele>1810.0</ele>
        <time>2018-09-01T14:00:23Z</time>
      </trkpt>
      <trkpt lat="40.657900" lon="-4.976867">
        <ele>1808.0</ele>
        <time>2018-09-01T14:00:24Z</time>
      </trkpt>
      <trkpt lat="40.657950" lon="-4.976767">
        <ele>1806.0</ele>
        <time>2018-09-01T14:00:25Z</time>
      </trkpt>
      <trkpt lat="40.658000" lon="-4.976650">
        <ele>1804.0</ele>
        <time>2018-09-01T14:00:26Z</time>
      </trkpt>
      <trkpt lat="40.658033" lon="-4.976550">
        <ele>1803.0</ele>
        <time>2018-09-01T14:00:27Z</time>
      </trkpt>
      <trkpt lat="40.658083" lon="-4.976450">
        <ele>1801.0</ele>
        <time>2018-09-01T14:00:28Z</time>
      </trkpt>
      <trkpt lat="40.658133" lon="-4.976350">
        <ele>1798.0</ele>
        <time>2018-09-01T14:00:29Z</time>
      </trkpt>
      <trkpt lat="40.658167" lon="-4.976233">
        <ele>1795.0</ele>
        <time>2018-09-01T14:00:30Z</time>
      </trkpt>
      <trkpt lat="40.658217" lon="-4.976117">
        <ele>1792.0</ele>
        <time>2018-09-01T14:00:31Z</time>
      </trkpt>
      <trkpt lat="40.658267" lon="-4.976000">
        <ele>1790.0</ele>
        <time>2018-09-01T14:00:32Z</time>
      </trkpt>
      <trkpt lat="40.658317" lon="-4.975900">
        <ele>1789.0</ele>
        <time>2018-09-01T14:00:33Z</time>
      </trkpt>
      <trkpt lat="40.658350" lon="-4.975800">
        <ele>1787.0</ele>
        <time>2018-09-01T14:00:34Z</time>
      </trkpt>
      <trkpt lat="40.658400" lon="-4.975700">
        <ele>1786.0</ele>
        <time>2018-09-01T14:00:35Z</time>
      </trkpt>
      <trkpt lat="40.658433" lon="-4.975583">
        <ele>1783.0</ele>
        <time>2018-09-01T14:00:36Z</time>
      </trkpt>
      <trkpt lat="40.658467" lon="-4.975467">
        <ele>1780.0</ele>
        <time>2018-09-01T14:00:37Z</time>
      </trkpt>
      <trkpt lat="40.658500" lon="-4.975333">
        <ele>1777.0</ele>
        <time>2018-09-01T14:00:38Z</time>
      </trkpt>
      <trkpt lat="40.658533" lon="-4.975200">
        <ele>1775.0</ele>
        <time>2018-09-01T14:00:39Z</time>
      </trkpt>
      <trkpt lat="40.658567" lon="-4.975050">
        <ele>1773.0</ele>
        <time>2018-09-01T14:00:40Z</time>
      </trkpt>
      <trkpt lat="40.658567" lon="-4.974917">
        <ele>1772.0</ele>
        <time>2018-09-01T14:00:41Z</time>
      </trkpt>
      <trkpt lat="40.658567" lon="-4.974767">
        <ele>1770.0</ele>
        <time>2018-09-01T14:00:42Z</time>
      </trkpt>
      <trkpt lat="40.658567" lon="-4.974633">
        <ele>1769.0</ele>
        <time>2018-09-01T14:00:43Z</time>
      </trkpt>
      <trkpt lat="40.658550" lon="-4.974483">
        <ele>1766.0</ele>
        <time>2018-09-01T14:00:44Z</time>
      </trkpt>
      <trkpt lat="40.658533" lon="-4.974333">
        <ele>1764.0</ele>
        <time>2018-09-01T14:00:45Z</time>
      </trkpt>
      <trkpt lat="40.658500" lon="-4.974167">
        <ele>1760.0</ele>
        <time>2018-09-01T14:00:46Z</time>
      </trkpt>
      <trkpt lat="40.658467" lon="-4.974000">
        <ele>1758.0</ele>
        <time>2018-09-01T14:00:47Z</time>
      </trkpt>
      <trkpt lat="40.658417" lon="-4.973833">
        <ele>1756.0</ele>
        <time>2018-09-01T14:00:48Z</time>
      </trkpt>
      <trkpt lat="40.658367" lon="-4.973700">
        <ele>1756.0</ele>
        <time>2018-09-01T14:00:49Z</time>
      </trkpt>
      <trkpt lat="40.658283" lon="-4.973583">
        <ele>1755.0</ele>
        <time>2018-09-01T14:00:50Z</time>
      </trkpt>
      <trkpt lat="40.658150" lon="-4.973517">
        <ele>1752.0</ele>
        <time>2018-09-01T14:00:51Z</time>
      </trkpt>
      <trkpt lat="40.658017" lon="-4.973500">
        <ele>1747.0</ele>
        <time>2018-09-01T14:00:52Z</time>
      </trkpt>
      <trkpt lat="40.657867" lon="-4.973550">
        <ele>1744.0</ele>
        <time>2018-09-01T14:00:53Z</time>
      </trkpt>
      <trkpt lat="40.657767" lon="-4.973650">
        <ele>1743.0</ele>
        <time>2018-09-01T14:00:54Z</time>
      </trkpt>
      <trkpt lat="40.657717" lon="-4.973783">
        <ele>1741.0</ele>
        <time>2018-09-01T14:00:55Z</time>
      </trkpt>
      <trkpt lat="40.657733" lon="-4.973917">
        <ele>1739.0</ele>
        <time>2018-09-01T14:00:56Z</time>
      </trkpt>
      <trkpt lat="40.657783" lon="-4.974017">
        <ele>1736.0</ele>
        <time>2018-09-01T14:00:57Z</time>
      </trkpt>
      <trkpt lat="40.657850" lon="-4.974067">
        <ele>1735.0</ele>
        <time>2018-09-01T14:00:58Z</time>
      </trkpt>
      <trkpt lat="40.657917" lon="-4.974083">
        <ele>1735.0</ele>
        <time>2018-09-01T14:00:59Z</time>
      </trkpt>
      <trkpt lat="40.657983" lon="-4.974083">
        <ele>1734.0</ele>
        <time>2018-09-01T14:01:00Z</time>
      </trkpt>
      <trkpt lat="40.658050" lon="-4.974050">
        <ele>1733.0</ele>
        <time>2018-09-01T14:01:01Z</time>
      </trkpt>
      <trkpt lat="40.658117" lon="-4.974000">
        <ele>1730.0</ele>
        <time>2018-09-01T14:01:02Z</time>
      </trkpt>
      <trkpt lat="40.658200" lon="-4.973933">
        <ele>1728.0</ele>
        <time>2018-09-01T14:01:03Z</time>
      </trkpt>
      <trkpt lat="40.658283" lon="-4.973867">
        <ele>1725.0</ele>
        <time>2018-09-01T14:01:04Z</time>
      </trkpt>
      <trkpt lat="40.658383" lon="-4.973817">
        <ele>1724.0</ele>
        <time>2018-09-01T14:01:05Z</time>
      </trkpt>
      <trkpt lat="40.658467" lon="-4.973750">
        <ele>1722.0</ele>
        <time>2018-09-01T14:01:06Z</time>
      </trkpt>
      <trkpt lat="40.658533" lon="-4.973717">
        <ele>1722.0</ele>
        <time>2018-09-01T14:01:07Z</time>
      </trkpt>
      <trkpt lat="40.658617" lon="-4.973683">
        <ele>1721.0</ele>
        <time>2018-09-01T14:01:08Z</time>
      </trkpt>
      <trkpt lat="40.658700" lon="-4.973683">
        <ele>1719.0</ele>
        <time>2018-09-01T14:01:09Z</time>
      </trkpt>
      <trkpt lat="40.658767" lon="-4.973667">
        <ele>1717.0</ele>
        <time>2018-09-01T14:01:10Z</time>
      </trkpt>
      <trkpt lat="40.658850" lon="-4.973650">
        <ele>1715.0</ele>
        <time>2018-09-01T14:01:11Z</time>
      </trkpt>
      <trkpt lat="40.658917" lon="-4.973617">
        <ele>1713.0</ele>
        <time>2018-09-01T14:01:12Z</time>
      </trkpt>
      <trkpt lat="40.658983" lon="-4.973583">
        <ele>1712.0</ele>
        <time>2018-09-01T14:01:13Z</time>
      </trkpt>
      <trkpt lat="40.659050" lon="-4.973533">
        <ele>1711.0</ele>
        <time>2018-09-01T14:01:14Z</time>
      </trkpt>
      <trkpt lat="40.659117" lon="-4.973500">
        <ele>1710.0</ele>
        <time>2018-09-01T14:01:15Z</time>
      </trkpt>
      <trkpt lat="40.659167" lon="-4.973467">
        <ele>1709.0</ele>
        <time>2018-09-01T14:01:16Z</time>
      </trkpt>
      <trkpt lat="40.659217" lon="-4.973367">
        <ele>1708.0</ele>
        <time>2018-09-01T14:01:17Z</time>
      </trkpt>
      <trkpt lat="40.659233" lon="-4.973250">
        <ele>1707.0</ele>
        <time>2018-09-01T14:01:18Z</time>
      </trkpt>
      <trkpt lat="40.659233" lon="-4.973133">
        <ele>1708.0</ele>
        <time>2018-09-01T14:01:19Z</time>
      </trkpt>
      <trkpt lat="40.659233" lon="-4.973017">
        <ele>1710.0</ele>
        <time>2018-09-01T14:01:20Z</time>
      </trkpt>
      <trkpt lat="40.659233" lon="-4.972917">
        <ele>1711.0</ele>
        <time>2018-09-01T14:01:21Z</time>
      </trkpt>
      <trkpt lat="40.659233" lon="-4.972783">
        <ele>1710.0</ele>
        <time>2018-09-01T14:01:22Z</time>
      </trkpt>
      <trkpt lat="40.659233" lon="-4.972650">
        <ele>1708.0</ele>
        <time>2018-09-01T14:01:23Z</time>
      </trkpt>
      <trkpt lat="40.659217" lon="-4.972483">
        <ele>1707.0</ele>
        <time>2018-09-01T14:01:24Z</time>
      </trkpt>
      <trkpt lat="40.659200" lon="-4.972333">
        <ele>1707.0</ele>
        <time>2018-09-01T14:01:25Z</time>
      </trkpt>
      <trkpt lat="40.659167" lon="-4.972200">
        <ele>1708.0</ele>
        <time>2018-09-01T14:01:26Z</time>
      </trkpt>
      <trkpt lat="40.659117" lon="-4.972083">
        <ele>1710.0</ele>
        <time>2018-09-01T14:01:27Z</time>
      </trkpt>
      <trkpt lat="40.659083" lon="-4.971967">
        <ele>1712.0</ele>
        <time>2018-09-01T14:01:28Z</time>
      </trkpt>
      <trkpt lat="40.659083" lon="-4.971867">
        <ele>1711.0</ele>
        <time>2018-09-01T14:01:29Z</time>
      </trkpt>
      <trkpt lat="40.659100" lon="-4.971767">
        <ele>1710.0</ele>
        <time>2018-09-01T14:01:30Z</time>
      </trkpt>
      <trkpt lat="40.659133" lon="-4.971683">
        <ele>1709.0</ele>
        <time>2018-09-01T14:01:31Z</time>
      </trkpt>
      <trkpt lat="40.659200" lon="-4.971633">
        <ele>1708.0</ele>
        <time>2018-09-01T14:01:32Z</time>
      </trkpt>
      <trkpt lat="40.659267" lon="-4.971600">
        <ele>1708.0</ele>
        <time>2018-09-01T14:01:33Z</time>
      </trkpt>
      <trkpt lat="40.659317" lon="-4.971583">
        <ele>1708.0</ele>
        <time>2018-09-01T14:01:34Z</time>
      </trkpt>
      <trkpt lat="40.659383" lon="-4.971550">
        <ele>1708.0</ele>
        <time>2018-09-01T14:01:35Z</time>
      </trkpt>
      <trkpt lat="40.659417" lon="-4.971450">
        <ele>1707.0</ele>
        <time>2018-09-01T14:01:36Z</time>
      </trkpt>
      <trkpt lat="40.659450" lon="-4.971333">
        <ele>1705.0</ele>
        <time>2018-09-01T14:01:37Z</time>
      </trkpt>
      <trkpt lat="40.659467" lon="-4.971183">
        <ele>1705.0</ele>
        <time>2018-09-01T14:01:38Z</time>
      </trkpt>
      <trkpt lat="40.659450" lon="-4.971033">
        <ele>1705.0</ele>
        <time>2018-09-01T14:01:39Z</time>
      </trkpt>
      <trkpt lat="40.659417" lon="-4.970900">
        <ele>1704.0</ele>
        <time>2018-09-01T14:01:40Z</time>
      </trkpt>
      <trkpt lat="40.659350" lon="-4.970767">
        <ele>1702.0</ele>
        <time>2018-09-01T14:01:41Z</time>
      </trkpt>
      <trkpt lat="40.659267" lon="-4.970650">
        <ele>1699.0</ele>
        <time>2018-09-01T14:01:42Z</time>
      </trkpt>
      <trkpt lat="40.659183" lon="-4.970517">
        <ele>1695.0</ele>
        <time>2018-09-01T14:01:43Z</time>
      </trkpt>
      <trkpt lat="40.659100" lon="-4.970400">
        <ele>1692.0</ele>
        <time>2018-09-01T14:01:44Z</time>
      </trkpt>
      <trkpt lat="40.659033" lon="-4.970250">
        <ele>1689.0</ele>
        <time>2018-09-01T14:01:45Z</time>
      </trkpt>
      <trkpt lat="40.659000" lon="-4.970083">
        <ele>1686.0</ele>
        <time>2018-09-01T14:01:46Z</time>
      </trkpt>
      <trkpt lat="40.658967" lon="-4.969933">
        <ele>1684.0</ele>
        <time>2018-09-01T14:01:47Z</time>
      </trkpt>
      <trkpt lat="40.658950" lon="-4.969783">
        <ele>1682.0</ele>
        <time>2018-09-01T14:01:48Z</time>
      </trkpt>
      <trkpt lat="40.658933" lon="-4.969667">
        <ele>1681.0</ele>
        <time>2018-09-01T14:01:49Z</time>
      </trkpt>
      <trkpt lat="40.658933" lon="-4.969550">
        <ele>1678.0</ele>
        <time>2018-09-01T14:01:50Z</time>
      </trkpt>
      <trkpt lat="40.658967" lon="-4.969433">
        <ele>1674.0</ele>
        <time>2018-09-01T14:01:51Z</time>
      </trkpt>
      <trkpt lat="40.659017" lon="-4.969317">
        <ele>1670.0</ele>
        <time>2018-09-01T14:01:52Z</time>
      </trkpt>
      <trkpt lat="40.659083" lon="-4.969217">
        <ele>1668.0</ele>
        <time>2018-09-01T14:01:53Z</time>
      </trkpt>
      <trkpt lat="40.659150" lon="-4.969133">
        <ele>1668.0</ele>
        <time>2018-09-01T14:01:54Z</time>
      </trkpt>
      <trkpt lat="40.659200" lon="-4.969050">
        <ele>1669.0</ele>
        <time>2018-09-01T14:01:55Z</time>
      </trkpt>
      <trkpt lat="40.659233" lon="-4.968967">
        <ele>1670.0</ele>
        <time>2018-09-01T14:01:56Z</time>
      </trkpt>
      <trkpt lat="40.659267" lon="-4.968917">
        <ele>1670.0</ele>
        <time>2018-09-01T14:01:57Z</time>
      </trkpt>
      <trkpt lat="40.659300" lon="-4.968850">
        <ele>1669.0</ele>
        <time>2018-09-01T14:01:58Z</time>
      </trkpt>
      <trkpt lat="40.659333" lon="-4.968783">
        <ele>1668.0</ele>
        <time>2018-09-01T14:01:59Z</time>
      </trkpt>
      <trkpt lat="40.659400" lon="-4.968733">
        <ele>1666.0</ele>
        <time>2018-09-01T14:02:00Z</time>
      </trkpt>
      <trkpt lat="40.659450" lon="-4.968683">
        <ele>1663.0</ele>
        <time>2018-09-01T14:02:01Z</time>
      </trkpt>
      <trkpt lat="40.659500" lon="-4.968617">
        <ele>1662.0</ele>
        <time>2018-09-01T14:02:02Z</time>
      </trkpt>
      <trkpt lat="40.659550" lon="-4.968533">
        <ele>1660.0</ele>
        <time>2018-09-01T14:02:03Z</time>
      </trkpt>
      <trkpt lat="40.659583" lon="-4.968450">
        <ele>1659.0</ele>
        <time>2018-09-01T14:02:04Z</time>
      </trkpt>
      <trkpt lat="40.659633" lon="-4.968367">
        <ele>1658.0</ele>
        <time>2018-09-01T14:02:05Z</time>
      </trkpt>
      <trkpt lat="40.659700" lon="-4.968317">
        <ele>1658.0</ele>
        <time>2018-09-01T14:02:06Z</time>
      </trkpt>
      <trkpt lat="40.659767" lon="-4.968250">
        <ele>1657.0</ele>
        <time>2018-09-01T14:02:07Z</time>
      </trkpt>
      <trkpt lat="40.659833" lon="-4.968200">
        <ele>1657.0</ele>
        <time>2018-09-01T14:02:08Z</time>
      </trkpt>
      <trkpt lat="40.659883" lon="-4.968150">
        <ele>1658.0</ele>
        <time>2018-09-01T14:02:09Z</time>
      </trkpt>
      <trkpt lat="40.659933" lon="-4.968100">
        <ele>1659.0</ele>
        <time>2018-09-01T14:02:10Z</time>
      </trkpt>
      <trkpt lat="40.660000" lon="-4.968050">
        <ele>1658.0</ele>
        <time>2018-09-01T14:02:11Z</time>
      </trkpt>
      <trkpt lat="40.660050" lon="-4.968017">
        <ele>1656.0</ele>
        <time>2018-09-01T14:02:12Z</time>
      </trkpt>
      <trkpt lat="40.660117" lon="-4.967983">
        <ele>1653.0</ele>
        <time>2018-09-01T14:02:13Z</time>
      </trkpt>
      <trkpt lat="40.660200" lon="-4.967950">
        <ele>1653.0</ele>
        <time>2018-09-01T14:02:14Z</time>
      </trkpt>
      <trkpt lat="40.660267" lon="-4.967933">
        <ele>1652.0</ele>
        <time>2018-09-01T14:02:15Z</time>
      </trkpt>
      <trkpt lat="40.660350" lon="-4.967933">
        <ele>1653.0</ele>
        <time>2018-09-01T14:02:16Z</time>
      </trkpt>
      <trkpt lat="40.660417" lon="-4.967933">
        <ele>1654.0</ele>
        <time>2018-09-01T14:02:17Z</time>
      </trkpt>
      <trkpt lat="40.660483" lon="-4.967917">
        <ele>1654.0</ele>
        <time>2018-09-01T14:02:18Z</time>
      </trkpt>
      <trkpt lat="40.660533" lon="-4.967900">
        <ele>1653.0</ele>
        <time>2018-09-01T14:02:19Z</time>
      </trkpt>
      <trkpt lat="40.660617" lon="-4.967883">
        <ele>1651.0</ele>
        <time>2018-09-01T14:02:20Z</time>
      </trkpt>
      <trkpt lat="40.660717" lon="-4.967867">
        <ele>1648.0</ele>
        <time>2018-09-01T14:02:21Z</time>
      </trkpt>
      <trkpt lat="40.660800" lon="-4.967833">
        <ele>1647.0</ele>
        <time>2018-09-01T14:02:22Z</time>
      </trkpt>
      <trkpt lat="40.660900" lon="-4.967783">
        <ele>1648.0</ele>
        <time>2018-09-01T14:02:23Z</time>
      </trkpt>
      <trkpt lat="40.660967" lon="-4.967750">
        <ele>1650.0</ele>
        <time>2018-09-01T14:02:24Z</time>
      </trkpt>
      <trkpt lat="40.661033" lon="-4.967717">
        <ele>1651.0</ele>
        <time>2018-09-01T14:02:25Z</time>
      </trkpt>
      <trkpt lat="40.661083" lon="-4.967700">
        <ele>1652.0</ele>
        <time>2018-09-01T14:02:26Z</time>
      </trkpt>
      <trkpt lat="40.661150" lon="-4.967683">
        <ele>1652.0</ele>
        <time>2018-09-01T14:02:27Z</time>
      </trkpt>
      <trkpt lat="40.661217" lon="-4.967667">
        <ele>1652.0</ele>
        <time>2018-09-01T14:02:28Z</time>
      </trkpt>
      <trkpt lat="40.661283" lon="-4.967617">
        <ele>1652.0</ele>
        <time>2018-09-01T14:02:29Z</time>
      </trkpt>
      <trkpt lat="40.661350" lon="-4.967567">
        <ele>1653.0</ele>
        <time>2018-09-01T14:02:30Z</time>
      </trkpt>
      <trkpt lat="40.661400" lon="-4.967517">
        <ele>1654.0</ele>
        <time>2018-09-01T14:02:31Z</time>
      </trkpt>
      <trkpt lat="40.661450" lon="-4.967500">
        <ele>1655.0</ele>
        <time>2018-09-01T14:02:32Z</time>
      </trkpt>
      <trkpt lat="40.661500" lon="-4.967500">
        <ele>1656.0</ele>
        <time>2018-09-01T14:02:33Z</time>
      </trkpt>
      <trkpt lat="40.661567" lon="-4.967517">
        <ele>1656.0</ele>
        <time>2018-09-01T14:02:34Z</time>
      </trkpt>
      <trkpt lat="40.661617" lon="-4.967567">
        <ele>1656.0</ele>
        <time>2018-09-01T14:02:35Z</time>
      </trkpt>
      <trkpt lat="40.661667" lon="-4.967633">
        <ele>1656.0</ele>
        <time>2018-09-01T14:02:36Z</time>
      </trkpt>
      <trkpt lat="40.661683" lon="-4.967717">
        <ele>1656.0</ele>
        <time>2018-09-01T14:02:37Z</time>
      </trkpt>
      <trkpt lat="40.661700" lon="-4.967817">
        <ele>1656.0</ele>
        <time>2018-09-01T14:02:38Z</time>
      </trkpt>
      <trkpt lat="40.661717" lon="-4.967917">
        <ele>1657.0</ele>
        <time>2018-09-01T14:02:39Z</time>
      </trkpt>
      <trkpt lat="40.661733" lon="-4.968033">
        <ele>1657.0</ele>
        <time>2018-09-01T14:02:40Z</time>
      </trkpt>
      <trkpt lat="40.661717" lon="-4.968150">
        <ele>1657.0</ele>
        <time>2018-09-01T14:02:41Z</time>
      </trkpt>
      <trkpt lat="40.661700" lon="-4.968283">
        <ele>1658.0</ele>
        <time>2018-09-01T14:02:42Z</time>
      </trkpt>
      <trkpt lat="40.661683" lon="-4.968417">
        <ele>1658.0</ele>
        <time>2018-09-01T14:02:43Z</time>
      </trkpt>
      <trkpt lat="40.661650" lon="-4.968550">
        <ele>1659.0</ele>
        <time>2018-09-01T14:02:44Z</time>
      </trkpt>
      <trkpt lat="40.661583" lon="-4.968667">
        <ele>1660.0</ele>
        <time>2018-09-01T14:02:45Z</time>
      </trkpt>
      <trkpt lat="40.661517" lon="-4.968750">
        <ele>1662.0</ele>
        <time>2018-09-01T14:02:46Z</time>
      </trkpt>
      <trkpt lat="40.661417" lon="-4.968800">
        <ele>1662.0</ele>
        <time>2018-09-01T14:02:47Z</time>
      </trkpt>
      <trkpt lat="40.661300" lon="-4.968833">
        <ele>1661.0</ele>
        <time>2018-09-01T14:02:48Z</time>
      </trkpt>
      <trkpt lat="40.661167" lon="-4.968817">
        <ele>1660.0</ele>
        <time>2018-09-01T14:02:49Z</time>
      </trkpt>
      <trkpt lat="40.661050" lon="-4.968767">
        <ele>1659.0</ele>
        <time>2018-09-01T14:02:50Z</time>
      </trkpt>
      <trkpt lat="40.660933" lon="-4.968650">
        <ele>1658.0</ele>
        <time>2018-09-01T14:02:51Z</time>
      </trkpt>
      <trkpt lat="40.660833" lon="-4.968517">
        <ele>1657.0</ele>
        <time>2018-09-01T14:02:52Z</time>
      </trkpt>
      <trkpt lat="40.660783" lon="-4.968367">
        <ele>1658.0</ele>
        <time>2018-09-01T14:02:53Z</time>
      </trkpt>
      <trkpt lat="40.660750" lon="-4.968217">
        <ele>1658.0</ele>
        <time>2018-09-01T14:02:54Z</time>
      </trkpt>
      <trkpt lat="40.660733" lon="-4.968100">
        <ele>1658.0</ele>
        <time>2018-09-01T14:02:55Z</time>
      </trkpt>
      <trkpt lat="40.660750" lon="-4.967967">
        <ele>1658.0</ele>
        <time>2018-09-01T14:02:56Z</time>
      </trkpt>
      <trkpt lat="40.660767" lon="-4.967833">
        <ele>1658.0</ele>
        <time>2018-09-01T14:02:57Z</time>
      </trkpt>
      <trkpt lat="40.660800" lon="-4.967700">
        <ele>1658.0</ele>
        <time>2018-09-01T14:02:58Z</time>
      </trkpt>
      <trkpt lat="40.660833" lon="-4.967583">
        <ele>1660.0</ele>
        <time>2018-09-01T14:02:59Z</time>
      </trkpt>
      <trkpt lat="40.660850" lon="-4.967450">
        <ele>1661.0</ele>
        <time>2018-09-01T14:03:00Z</time>
      </trkpt>
      <trkpt lat="40.660867" lon="-4.967317">
        <ele>1661.0</ele>
        <time>2018-09-01T14:03:01Z</time>
      </trkpt>
      <trkpt lat="40.660883" lon="-4.967167">
        <ele>1662.0</ele>
        <time>2018-09-01T14:03:02Z</time>
      </trkpt>
      <trkpt lat="40.660900" lon="-4.967033">
        <ele>1662.0</ele>
        <time>2018-09-01T14:03:03Z</time>
      </trkpt>
      <trkpt lat="40.660917" lon="-4.966900">
        <ele>1662.0</ele>
        <time>2018-09-01T14:03:04Z</time>
      </trkpt>
      <trkpt lat="40.660950" lon="-4.966767">
        <ele>1663.0</ele>
        <time>2018-09-01T14:03:05Z</time>
      </trkpt>
      <trkpt lat="40.660983" lon="-4.966650">
        <ele>1664.0</ele>
        <time>2018-09-01T14:03:06Z</time>
      </trkpt>
      <trkpt lat="40.661017" lon="-4.966550">
        <ele>1665.0</ele>
        <time>2018-09-01T14:03:07Z</time>
      </trkpt>
      <trkpt lat="40.661050" lon="-4.966450">
        <ele>1665.0</ele>
        <time>2018-09-01T14:03:08Z</time>
      </trkpt>
      <trkpt lat="40.661083" lon="-4.966350">
        <ele>1666.0</ele>
        <time>2018-09-01T14:03:09Z</time>
      </trkpt>
      <trkpt lat="40.661117" lon="-4.966283">
        <ele>1667.0</ele>
        <time>2018-09-01T14:03:10Z</time>
      </trkpt>
      <trkpt lat="40.661183" lon="-4.966250">
        <ele>1667.0</ele>
        <time>2018-09-01T14:03:11Z</time>
      </trkpt>
      <trkpt lat="40.661250" lon="-4.966250">
        <ele>1666.0</ele>
        <time>2018-09-01T14:03:12Z</time>
      </trkpt>
      <trkpt lat="40.661333" lon="-4.966283">
        <ele>1667.0</ele>
        <time>2018-09-01T14:03:13Z</time>
      </trkpt>
      <trkpt lat="40.661383" lon="-4.966367">
        <ele>1667.0</ele>
        <time>2018-09-01T14:03:14Z</time>
      </trkpt>
      <trkpt lat="40.661400" lon="-4.966467">
        <ele>1669.0</ele>
        <time>2018-09-01T14:03:15Z</time>
      </trkpt>
      <trkpt lat="40.661400" lon="-4.966600">
        <ele>1669.0</ele>
        <time>2018-09-01T14:03:16Z</time>
      </trkpt>
      <trkpt lat="40.661350" lon="-4.966733">
        <ele>1669.0</ele>
        <time>2018-09-01T14:03:17Z</time>
      </trkpt>
      <trkpt lat="40.661250" lon="-4.966850">
        <ele>1669.0</ele>
        <time>2018-09-01T14:03:18Z</time>
      </trkpt>
      <trkpt lat="40.661150" lon="-4.966917">
        <ele>1669.0</ele>
        <time>2018-09-01T14:03:19Z</time>
      </trkpt>
      <trkpt lat="40.661017" lon="-4.966933">
        <ele>1669.0</ele>
        <time>2018-09-01T14:03:20Z</time>
      </trkpt>
      <trkpt lat="40.660900" lon="-4.966900">
        <ele>1668.0</ele>
        <time>2018-09-01T14:03:21Z</time>
      </trkpt>
      <trkpt lat="40.660800" lon="-4.966800">
        <ele>1668.0</ele>
        <time>2018-09-01T14:03:22Z</time>
      </trkpt>
      <trkpt lat="40.660733" lon="-4.966667">
        <ele>1666.0</ele>
        <time>2018-09-01T14:03:23Z</time>
      </trkpt>
      <trkpt lat="40.660733" lon="-4.966517">
        <ele>1665.0</ele>
        <time>2018-09-01T14:03:24Z</time>
      </trkpt>
      <trkpt lat="40.660783" lon="-4.966383">
        <ele>1663.0</ele>
        <time>2018-09-01T14:03:25Z</time>
      </trkpt>
      <trkpt lat="40.660850" lon="-4.966300">
        <ele>1663.0</ele>
        <time>2018-09-01T14:03:26Z</time>
      </trkpt>
      <trkpt lat="40.660917" lon="-4.966217">
        <ele>1665.0</ele>
        <time>2018-09-01T14:03:27Z</time>
      </trkpt>
      <trkpt lat="40.660950" lon="-4.966133">
        <ele>1667.0</ele>
        <time>2018-09-01T14:03:28Z</time>
      </trkpt>
      <trkpt lat="40.660983" lon="-4.966067">
        <ele>1669.0</ele>
        <time>2018-09-01T14:03:29Z</time>
      </trkpt>
      <trkpt lat="40.661033" lon="-4.966017">
        <ele>1670.0</ele>
        <time>2018-09-01T14:03:30Z</time>
      </trkpt>
      <trkpt lat="40.661083" lon="-4.965967">
        <ele>1670.0</ele>
        <time>2018-09-01T14:03:31Z</time>
      </trkpt>
      <trkpt lat="40.661133" lon="-4.965917">
        <ele>1669.0</ele>
        <time>2018-09-01T14:03:32Z</time>
      </trkpt>
      <trkpt lat="40.661200" lon="-4.965867">
        <ele>1669.0</ele>
        <time>2018-09-01T14:03:33Z</time>
      </trkpt>
      <trkpt lat="40.661267" lon="-4.965800">
        <ele>1670.0</ele>
        <time>2018-09-01T14:03:34Z</time>
      </trkpt>
      <trkpt lat="40.661317" lon="-4.965733">
        <ele>1671.0</ele>
        <time>2018-09-01T14:03:35Z</time>
      </trkpt>
      <trkpt lat="40.661367" lon="-4.965667">
        <ele>1672.0</ele>
        <time>2018-09-01T14:03:36Z</time>
      </trkpt>
      <trkpt lat="40.661417" lon="-4.965600">
        <ele>1673.0</ele>
        <time>2018-09-01T14:03:37Z</time>
      </trkpt>
      <trkpt lat="40.661483" lon="-4.965567">
        <ele>1674.0</ele>
        <time>2018-09-01T14:03:38Z</time>
      </trkpt>
      <trkpt lat="40.661550" lon="-4.965567">
        <ele>1673.0</ele>
        <time>2018-09-01T14:03:39Z</time>
      </trkpt>
      <trkpt lat="40.661617" lon="-4.965617">
        <ele>1672.0</ele>
        <time>2018-09-01T14:03:40Z</time>
      </trkpt>
      <trkpt lat="40.661667" lon="-4.965700">
        <ele>1672.0</ele>
        <time>2018-09-01T14:03:41Z</time>
      </trkpt>
      <trkpt lat="40.661717" lon="-4.965817">
        <ele>1672.0</ele>
        <time>2018-09-01T14:03:42Z</time>
      </trkpt>
      <trkpt lat="40.661733" lon="-4.965933">
        <ele>1674.0</ele>
        <time>2018-09-01T14:03:43Z</time>
      </trkpt>
      <trkpt lat="40.661717" lon="-4.966050">
        <ele>1676.0</ele>
        <time>2018-09-01T14:03:44Z</time>
      </trkpt>
      <trkpt lat="40.661667" lon="-4.966167">
        <ele>1676.0</ele>
        <time>2018-09-01T14:03:45Z</time>
      </trkpt>
      <trkpt lat="40.661583" lon="-4.966283">
        <ele>1676.0</ele>
        <time>2018-09-01T14:03:46Z</time>
      </trkpt>
      <trkpt lat="40.661483" lon="-4.966383">
        <ele>1676.0</ele>
        <time>2018-09-01T14:03:47Z</time>
      </trkpt>
      <trkpt lat="40.661350" lon="-4.966450">
        <ele>1675.0</ele>
        <time>2018-09-01T14:03:48Z</time>
      </trkpt>
      <trkpt lat="40.661217" lon="-4.966467">
        <ele>1675.0</ele>
        <time>2018-09-01T14:03:49Z</time>
      </trkpt>
      <trkpt lat="40.661083" lon="-4.966450">
        <ele>1675.0</ele>
        <time>2018-09-01T14:03:50Z</time>
      </trkpt>
      <trkpt lat="40.660950" lon="-4.966367">
        <ele>1675.0</ele>
        <time>2018-09-01T14:03:51Z</time>
      </trkpt>
      <trkpt lat="40.660867" lon="-4.966267">
        <ele>1676.0</ele>
        <time>2018-09-01T14:03:52Z</time>
      </trkpt>
      <trkpt lat="40.660800" lon="-4.966167">
        <ele>1677.0</ele>
        <time>2018-09-01T14:03:53Z</time>
      </trkpt>
      <trkpt lat="40.660750" lon="-4.966050">
        <ele>1678.0</ele>
        <time>2018-09-01T14:03:54Z</time>
      </trkpt>
      <trkpt lat="40.660717" lon="-4.965933">
        <ele>1678.0</ele>
        <time>2018-09-01T14:03:55Z</time>
      </trkpt>
      <trkpt lat="40.660700" lon="-4.965817">
        <ele>1678.0</ele>
        <time>2018-09-01T14:03:56Z</time>
      </trkpt>
      <trkpt lat="40.660700" lon="-4.965700">
        <ele>1678.0</ele>
        <time>2018-09-01T14:03:57Z</time>
      </trkpt>
      <trkpt lat="40.660717" lon="-4.965600">
        <ele>1678.0</ele>
        <time>2018-09-01T14:03:58Z</time>
      </trkpt>
      <trkpt lat="40.660750" lon="-4.965517">
        <ele>1678.0</ele>
        <time>2018-09-01T14:03:59Z</time>
      </trkpt>
      <trkpt lat="40.660800" lon="-4.965433">
        <ele>1678.0</ele>
        <time>2018-09-01T14:04:00Z</time>
      </trkpt>
      <trkpt lat="40.660867" lon="-4.965383">
        <ele>1678.0</ele>
        <time>2018-09-01T14:04:01Z</time>
      </trkpt>
      <trkpt lat="40.660950" lon="-4.965367">
        <ele>1680.0</ele>
        <time>2018-09-01T14:04:02Z</time>
      </trkpt>
      <trkpt lat="40.661017" lon="-4.965383">
        <ele>1681.0</ele>
        <time>2018-09-01T14:04:03Z</time>
      </trkpt>
      <trkpt lat="40.661067" lon="-4.965417">
        <ele>1682.0</ele>
        <time>2018-09-01T14:04:04Z</time>
      </trkpt>
      <trkpt lat="40.661117" lon="-4.965483">
        <ele>1683.0</ele>
        <time>2018-09-01T14:04:05Z</time>
      </trkpt>
      <trkpt lat="40.661150" lon="-4.965583">
        <ele>1682.0</ele>
        <time>2018-09-01T14:04:06Z</time>
      </trkpt>
      <trkpt lat="40.661150" lon="-4.965700">
        <ele>1681.0</ele>
        <time>2018-09-01T14:04:07Z</time>
      </trkpt>
      <trkpt lat="40.661133" lon="-4.965833">
        <ele>1679.0</ele>
        <time>2018-09-01T14:04:08Z</time>
      </trkpt>
      <trkpt lat="40.661083" lon="-4.965967">
        <ele>1678.0</ele>
        <time>2018-09-01T14:04:09Z</time>
      </trkpt>
      <trkpt lat="40.661000" lon="-4.966100">
        <ele>1678.0</ele>
        <time>2018-09-01T14:04:10Z</time>
      </trkpt>
      <trkpt lat="40.660900" lon="-4.966183">
        <ele>1679.0</ele>
        <time>2018-09-01T14:04:11Z</time>
      </trkpt>
      <trkpt lat="40.660783" lon="-4.966233">
        <ele>1680.0</ele>
        <time>2018-09-01T14:04:12Z</time>
      </trkpt>
      <trkpt lat="40.660667" lon="-4.966250">
        <ele>1681.0</ele>
        <time>2018-09-01T14:04:13Z</time>
      </trkpt>
      <trkpt lat="40.660550" lon="-4.966233">
        <ele>1681.0</ele>
        <time>2018-09-01T14:04:14Z</time>
      </trkpt>
      <trkpt lat="40.660417" lon="-4.966183">
        <ele>1681.0</ele>
        <time>2018-09-01T14:04:15Z</time>
      </trkpt>
      <trkpt lat="40.660317" lon="-4.966100">
        <ele>1681.0</ele>
        <time>2018-09-01T14:04:16Z</time>
      </trkpt>
      <trkpt lat="40.660217" lon="-4.966000">
        <ele>1681.0</ele>
        <time>2018-09-01T14:04:17Z</time>
      </trkpt>
      <trkpt lat="40.660150" lon="-4.965867">
        <ele>1681.0</ele>
        <time>2018-09-01T14:04:18Z</time>
      </trkpt>
      <trkpt lat="40.660117" lon="-4.965733">
        <ele>1681.0</ele>
        <time>2018-09-01T14:04:19Z</time>
      </trkpt>
      <trkpt lat="40.660117" lon="-4.965600">
        <ele>1680.0</ele>
        <time>2018-09-01T14:04:20Z</time>
      </trkpt>
      <trkpt lat="40.660150" lon="-4.965450">
        <ele>1679.0</ele>
        <time>2018-09-01T14:04:21Z</time>
      </trkpt>
      <trkpt lat="40.660217" lon="-4.965350">
        <ele>1679.0</ele>
        <time>2018-09-01T14:04:22Z</time>
      </trkpt>
      <trkpt lat="40.660283" lon="-4.965267">
        <ele>1680.0</ele>
        <time>2018-09-01T14:04:23Z</time>
      </trkpt>
      <trkpt lat="40.660350" lon="-4.965217">
        <ele>1681.0</ele>
        <time>2018-09-01T14:04:24Z</time>
      </trkpt>
      <trkpt lat="40.660417" lon="-4.965183">
        <ele>1683.0</ele>
        <time>2018-09-01T14:04:25Z</time>
      </trkpt>
      <trkpt lat="40.660483" lon="-4.965150">
        <ele>1684.0</ele>
        <time>2018-09-01T14:04:26Z</time>
      </trkpt>
      <trkpt lat="40.660550" lon="-4.965100">
        <ele>1685.0</ele>
        <time>2018-09-01T14:04:27Z</time>
      </trkpt>
      <trkpt lat="40.660617" lon="-4.965067">
        <ele>1686.0</ele>
        <time>2018-09-01T14:04:28Z</time>
      </trkpt>
      <trkpt lat="40.660683" lon="-4.965050">
        <ele>1686.0</ele>
        <time>2018-09-01T14:04:29Z</time>
      </trkpt>
      <trkpt lat="40.660750" lon="-4.965033">
        <ele>1686.0</ele>
        <time>2018-09-01T14:04:30Z</time>
      </trkpt>
      <trkpt lat="40.660800" lon="-4.965017">
        <ele>1686.0</ele>
        <time>2018-09-01T14:04:31Z</time>
      </trkpt>
      <trkpt lat="40.660850" lon="-4.965017">
        <ele>1686.0</ele>
        <time>2018-09-01T14:04:32Z</time>
      </trkpt>
      <trkpt lat="40.660900" lon="-4.965000">
        <ele>1685.0</ele>
        <time>2018-09-01T14:04:33Z</time>
      </trkpt>
      <trkpt lat="40.660950" lon="-4.965000">
        <ele>1684.0</ele>
        <time>2018-09-01T14:04:34Z</time>
      </trkpt>
      <trkpt lat="40.661000" lon="-4.964967">
        <ele>1682.0</ele>
        <time>2018-09-01T14:04:35Z</time>
      </trkpt>
      <trkpt lat="40.661067" lon="-4.964917">
        <ele>1680.0</ele>
        <time>2018-09-01T14:04:36Z</time>
      </trkpt>
      <trkpt lat="40.661100" lon="-4.964833">
        <ele>1677.0</ele>
        <time>2018-09-01T14:04:37Z</time>
      </trkpt>
      <trkpt lat="40.661117" lon="-4.964733">
        <ele>1675.0</ele>
        <time>2018-09-01T14:04:38Z</time>
      </trkpt>
      <trkpt lat="40.661133" lon="-4.964617">
        <ele>1674.0</ele>
        <time>2018-09-01T14:04:39Z</time>
      </trkpt>
      <trkpt lat="40.661117" lon="-4.964500">
        <ele>1673.0</ele>
        <time>2018-09-01T14:04:40Z</time>
      </trkpt>
      <trkpt lat="40.661100" lon="-4.964383">
        <ele>1672.0</ele>
        <time>2018-09-01T14:04:41Z</time>
      </trkpt>
      <trkpt lat="40.661067" lon="-4.964250">
        <ele>1669.0</ele>
        <time>2018-09-01T14:04:42Z</time>
      </trkpt>
      <trkpt lat="40.661017" lon="-4.964117">
        <ele>1666.0</ele>
        <time>2018-09-01T14:04:43Z</time>
      </trkpt>
      <trkpt lat="40.660967" lon="-4.963967">
        <ele>1663.0</ele>
        <time>2018-09-01T14:04:44Z</time>
      </trkpt>
      <trkpt lat="40.660917" lon="-4.963800">
        <ele>1660.0</ele>
        <time>2018-09-01T14:04:45Z</time>
      </trkpt>
      <trkpt lat="40.660850" lon="-4.963633">
        <ele>1658.0</ele>
        <time>2018-09-01T14:04:46Z</time>
      </trkpt>
      <trkpt lat="40.660783" lon="-4.963483">
        <ele>1658.0</ele>
        <time>2018-09-01T14:04:47Z</time>
      </trkpt>
      <trkpt lat="40.660683" lon="-4.963367">
        <ele>1659.0</ele>
        <time>2018-09-01T14:04:48Z</time>
      </trkpt>
      <trkpt lat="40.660583" lon="-4.963267">
        <ele>1661.0</ele>
        <time>2018-09-01T14:04:49Z</time>
      </trkpt>
      <trkpt lat="40.660500" lon="-4.963167">
        <ele>1663.0</ele>
        <time>2018-09-01T14:04:50Z</time>
      </trkpt>
      <trkpt lat="40.660433" lon="-4.963050">
        <ele>1664.0</ele>
        <time>2018-09-01T14:04:51Z</time>
      </trkpt>
      <trkpt lat="40.660400" lon="-4.962933">
        <ele>1663.0</ele>
        <time>2018-09-01T14:04:52Z</time>
      </trkpt>
      <trkpt lat="40.660400" lon="-4.962783">
        <ele>1662.0</ele>
        <time>2018-09-01T14:04:53Z</time>
      </trkpt>
      <trkpt lat="40.660400" lon="-4.962650">
        <ele>1660.0</ele>
        <time>2018-09-01T14:04:54Z</time>
      </trkpt>
      <trkpt lat="40.660433" lon="-4.962500">
        <ele>1659.0</ele>
        <time>2018-09-01T14:04:55Z</time>
      </trkpt>
      <trkpt lat="40.660450" lon="-4.962333">
        <ele>1659.0</ele>
        <time>2018-09-01T14:04:56Z</time>
      </trkpt>
      <trkpt lat="40.660467" lon="-4.962183">
        <ele>1658.0</ele>
        <time>2018-09-01T14:04:57Z</time>
      </trkpt>
      <trkpt lat="40.660500" lon="-4.962050">
        <ele>1658.0</ele>
        <time>2018-09-01T14:04:58Z</time>
      </trkpt>
      <trkpt lat="40.660550" lon="-4.961933">
        <ele>1657.0</ele>
        <time>2018-09-01T14:04:59Z</time>
      </trkpt>
      <trkpt lat="40.660600" lon="-4.961800">
        <ele>1656.0</ele>
        <time>2018-09-01T14:05:00Z</time>
      </trkpt>
      <trkpt lat="40.660650" lon="-4.961667">
        <ele>1655.0</ele>
        <time>2018-09-01T14:05:01Z</time>
      </trkpt>
      <trkpt lat="40.660667" lon="-4.961517">
        <ele>1653.0</ele>
        <time>2018-09-01T14:05:02Z</time>
      </trkpt>
      <trkpt lat="40.660683" lon="-4.961350">
        <ele>1652.0</ele>
        <time>2018-09-01T14:05:03Z</time>
      </trkpt>
      <trkpt lat="40.660683" lon="-4.961183">
        <ele>1651.0</ele>
        <time>2018-09-01T14:05:04Z</time>
      </trkpt>
      <trkpt lat="40.660683" lon="-4.961033">
        <ele>1651.0</ele>
        <time>2018-09-01T14:05:05Z</time>
      </trkpt>
      <trkpt lat="40.660667" lon="-4.960900">
        <ele>1651.0</ele>
        <time>2018-09-01T14:05:06Z</time>
      </trkpt>
      <trkpt lat="40.660667" lon="-4.960783">
        <ele>1650.0</ele>
        <time>2018-09-01T14:05:07Z</time>
      </trkpt>
      <trkpt lat="40.660683" lon="-4.960667">
        <ele>1648.0</ele>
        <time>2018-09-01T14:05:08Z</time>
      </trkpt>
      <trkpt lat="40.660700" lon="-4.960550">
        <ele>1645.0</ele>
        <time>2018-09-01T14:05:09Z</time>
      </trkpt>
      <trkpt lat="40.660733" lon="-4.960417">
        <ele>1641.0</ele>
        <time>2018-09-01T14:05:10Z</time>
      </trkpt>
      <trkpt lat="40.660783" lon="-4.960283">
        <ele>1637.0</ele>
        <time>2018-09-01T14:05:11Z</time>
      </trkpt>
      <trkpt lat="40.660867" lon="-4.960183">
        <ele>1634.0</ele>
        <time>2018-09-01T14:05:12Z</time>
      </trkpt>
      <trkpt lat="40.660950" lon="-4.960133">
        <ele>1632.0</ele>
        <time>2018-09-01T14:05:13Z</time>
      </trkpt>
      <trkpt lat="40.661033" lon="-4.960100">
        <ele>1631.0</ele>
        <time>2018-09-01T14:05:14Z</time>
      </trkpt>
      <trkpt lat="40.661117" lon="-4.960100">
        <ele>1631.0</ele>
        <time>2018-09-01T14:05:15Z</time>
      </trkpt>
      <trkpt lat="40.661167" lon="-4.960117">
        <ele>1630.0</ele>
        <time>2018-09-01T14:05:16Z</time>
      </trkpt>
      <trkpt lat="40.661233" lon="-4.960167">
        <ele>1627.0</ele>
        <time>2018-09-01T14:05:17Z</time>
      </trkpt>
      <trkpt lat="40.661283" lon="-4.960233">
        <ele>1624.0</ele>
        <time>2018-09-01T14:05:18Z</time>
      </trkpt>
      <trkpt lat="40.661333" lon="-4.960333">
        <ele>1621.0</ele>
        <time>2018-09-01T14:05:19Z</time>
      </trkpt>
      <trkpt lat="40.661383" lon="-4.960433">
        <ele>1618.0</ele>
        <time>2018-09-01T14:05:20Z</time>
      </trkpt>
      <trkpt lat="40.661433" lon="-4.960533">
        <ele>1617.0</ele>
        <time>2018-09-01T14:05:21Z</time>
      </trkpt>
      <trkpt lat="40.661450" lon="-4.960633">
        <ele>1616.0</ele>
        <time>2018-09-01T14:05:22Z</time>
      </trkpt>
      <trkpt lat="40.661467" lon="-4.960717">
        <ele>1616.0</ele>
        <time>2018-09-01T14:05:23Z</time>
      </trkpt>
      <trkpt lat="40.661483" lon="-4.960817">
        <ele>1614.0</ele>
        <time>2018-09-01T14:05:24Z</time>
      </trkpt>
      <trkpt lat="40.661500" lon="-4.960900">
        <ele>1610.0</ele>
        <time>2018-09-01T14:05:25Z</time>
      </trkpt>
      <trkpt lat="40.661533" lon="-4.961017">
        <ele>1605.0</ele>
        <time>2018-09-01T14:05:26Z</time>
      </trkpt>
      <trkpt lat="40.661583" lon="-4.961150">
        <ele>1603.0</ele>
        <time>2018-09-01T14:05:27Z</time>
      </trkpt>
      <trkpt lat="40.661617" lon="-4.961250">
        <ele>1603.0</ele>
        <time>2018-09-01T14:05:28Z</time>
      </trkpt>
      <trkpt lat="40.661667" lon="-4.961317">
        <ele>1605.0</ele>
        <time>2018-09-01T14:05:29Z</time>
      </trkpt>
      <trkpt lat="40.661717" lon="-4.961350">
        <ele>1607.0</ele>
        <time>2018-09-01T14:05:30Z</time>
      </trkpt>
      <trkpt lat="40.661750" lon="-4.961383">
        <ele>1607.0</ele>
        <time>2018-09-01T14:05:31Z</time>
      </trkpt>
      <trkpt lat="40.661767" lon="-4.961417">
        <ele>1606.0</ele>
        <time>2018-09-01T14:05:32Z</time>
      </trkpt>
      <trkpt lat="40.661800" lon="-4.961483">
        <ele>1604.0</ele>
        <time>2018-09-01T14:05:33Z</time>
      </trkpt>
      <trkpt lat="40.661817" lon="-4.961583">
        <ele>1602.0</ele>
        <time>2018-09-01T14:05:34Z</time>
      </trkpt>
      <trkpt lat="40.661833" lon="-4.961683">
        <ele>1600.0</ele>
        <time>2018-09-01T14:05:35Z</time>
      </trkpt>
      <trkpt lat="40.661850" lon="-4.961783">
        <ele>1600.0</ele>
        <time>2018-09-01T14:05:36Z</time>
      </trkpt>
      <trkpt lat="40.661867" lon="-4.961883">
        <ele>1600.0</ele>
        <time>2018-09-01T14:05:37Z</time>
      </trkpt>
      <trkpt lat="40.661883" lon="-4.961950">
        <ele>1602.0</ele>
        <time>2018-09-01T14:05:38Z</time>
      </trkpt>
      <trkpt lat="40.661883" lon="-4.962017">
        <ele>1603.0</ele>
        <time>2018-09-01T14:05:39Z</time>
      </trkpt>
      <trkpt lat="40.661883" lon="-4.962100">
        <ele>1604.0</ele>
        <time>2018-09-01T14:05:40Z</time>
      </trkpt>
      <trkpt lat="40.661883" lon="-4.962200">
        <ele>1604.0</ele>
        <time>2018-09-01T14:05:41Z</time>
      </trkpt>
      <trkpt lat="40.661883" lon="-4.962300">
        <ele>1605.0</ele>
        <time>2018-09-01T14:05:42Z</time>
      </trkpt>
      <trkpt lat="40.661900" lon="-4.962383">
        <ele>1605.0</ele>
        <time>2018-09-01T14:05:43Z</time>
      </trkpt>
      <trkpt lat="40.661900" lon="-4.962450">
        <ele>1607.0</ele>
        <time>2018-09-01T14:05:44Z</time>
      </trkpt>
      <trkpt lat="40.661900" lon="-4.962533">
        <ele>1607.0</ele>
        <time>2018-09-01T14:05:45Z</time>
      </trkpt>
      <trkpt lat="40.661883" lon="-4.962633">
        <ele>1607.0</ele>
        <time>2018-09-01T14:05:46Z</time>
      </trkpt>
      <trkpt lat="40.661883" lon="-4.962717">
        <ele>1607.0</ele>
        <time>2018-09-01T14:05:47Z</time>
      </trkpt>
      <trkpt lat="40.661867" lon="-4.962817">
        <ele>1606.0</ele>
        <time>2018-09-01T14:05:48Z</time>
      </trkpt>
      <trkpt lat="40.661883" lon="-4.962900">
        <ele>1605.0</ele>
        <time>2018-09-01T14:05:49Z</time>
      </trkpt>
      <trkpt lat="40.661900" lon="-4.963000">
        <ele>1605.0</ele>
        <time>2018-09-01T14:05:50Z</time>
      </trkpt>
      <trkpt lat="40.661933" lon="-4.963067">
        <ele>1604.0</ele>
        <time>2018-09-01T14:05:51Z</time>
      </trkpt>
      <trkpt lat="40.661967" lon="-4.963133">
        <ele>1603.0</ele>
        <time>2018-09-01T14:05:52Z</time>
      </trkpt>
      <trkpt lat="40.662017" lon="-4.963183">
        <ele>1601.0</ele>
        <time>2018-09-01T14:05:53Z</time>
      </trkpt>
      <trkpt lat="40.662067" lon="-4.963233">
        <ele>1599.0</ele>
        <time>2018-09-01T14:05:54Z</time>
      </trkpt>
      <trkpt lat="40.662133" lon="-4.963283">
        <ele>1597.0</ele>
        <time>2018-09-01T14:05:55Z</time>
      </trkpt>
      <trkpt lat="40.662200" lon="-4.963300">
        <ele>1596.0</ele>
        <time>2018-09-01T14:05:56Z</time>
      </trkpt>
      <trkpt lat="40.662267" lon="-4.963333">
        <ele>1596.0</ele>
        <time>2018-09-01T14:05:57Z</time>
      </trkpt>
      <trkpt lat="40.662333" lon="-4.963333">
        <ele>1596.0</ele>
        <time>2018-09-01T14:05:58Z</time>
      </trkpt>
      <trkpt lat="40.662383" lon="-4.963333">
        <ele>1597.0</ele>
        <time>2018-09-01T14:05:59Z</time>
      </trkpt>
      <trkpt lat="40.662433" lon="-4.963333">
        <ele>1596.0</ele>
        <time>2018-09-01T14:06:00Z</time>
      </trkpt>
      <trkpt lat="40.662500" lon="-4.963333">
        <ele>1594.0</ele>
        <time>2018-09-01T14:06:01Z</time>
      </trkpt>
      <trkpt lat="40.662567" lon="-4.963367">
        <ele>1592.0</ele>
        <time>2018-09-01T14:06:02Z</time>
      </trkpt>
      <trkpt lat="40.662617" lon="-4.963417">
        <ele>1591.0</ele>
        <time>2018-09-01T14:06:03Z</time>
      </trkpt>
      <trkpt lat="40.662683" lon="-4.963450">
        <ele>1591.0</ele>
        <time>2018-09-01T14:06:04Z</time>
      </trkpt>
      <trkpt lat="40.662750" lon="-4.963483">
        <ele>1592.0</ele>
        <time>2018-09-01T14:06:05Z</time>
      </trkpt>
      <trkpt lat="40.662800" lon="-4.963500">
        <ele>1592.0</ele>
        <time>2018-09-01T14:06:06Z</time>
      </trkpt>
      <trkpt lat="40.662850" lon="-4.963550">
        <ele>1592.0</ele>
        <time>2018-09-01T14:06:07Z</time>
      </trkpt>
      <trkpt lat="40.662900" lon="-4.963600">
        <ele>1592.0</ele>
        <time>2018-09-01T14:06:08Z</time>
      </trkpt>
      <trkpt lat="40.662933" lon="-4.963667">
        <ele>1591.0</ele>
        <time>2018-09-01T14:06:09Z</time>
      </trkpt>
      <trkpt lat="40.662983" lon="-4.963733">
        <ele>1591.0</ele>
        <time>2018-09-01T14:06:10Z</time>
      </trkpt>
      <trkpt lat="40.663017" lon="-4.963817">
        <ele>1592.0</ele>
        <time>2018-09-01T14:06:11Z</time>
      </trkpt>
      <trkpt lat="40.663050" lon="-4.963883">
        <ele>1593.0</ele>
        <time>2018-09-01T14:06:12Z</time>
      </trkpt>
      <trkpt lat="40.663083" lon="-4.963967">
        <ele>1594.0</ele>
        <time>2018-09-01T14:06:13Z</time>
      </trkpt>
      <trkpt lat="40.663133" lon="-4.964050">
        <ele>1595.0</ele>
        <time>2018-09-01T14:06:14Z</time>
      </trkpt>
      <trkpt lat="40.663167" lon="-4.964117">
        <ele>1596.0</ele>
        <time>2018-09-01T14:06:15Z</time>
      </trkpt>
      <trkpt lat="40.663200" lon="-4.964217">
        <ele>1596.0</ele>
        <time>2018-09-01T14:06:16Z</time>
      </trkpt>
      <trkpt lat="40.663250" lon="-4.964283">
        <ele>1597.0</ele>
        <time>2018-09-01T14:06:17Z</time>
      </trkpt>
      <trkpt lat="40.663317" lon="-4.964350">
        <ele>1598.0</ele>
        <time>2018-09-01T14:06:18Z</time>
      </trkpt>
      <trkpt lat="40.663383" lon="-4.964367">
        <ele>1600.0</ele>
        <time>2018-09-01T14:06:19Z</time>
      </trkpt>
      <trkpt lat="40.663450" lon="-4.964367">
        <ele>1602.0</ele>
        <time>2018-09-01T14:06:20Z</time>
      </trkpt>
      <trkpt lat="40.663500" lon="-4.964333">
        <ele>1605.0</ele>
        <time>2018-09-01T14:06:21Z</time>
      </trkpt>
      <trkpt lat="40.663533" lon="-4.964283">
        <ele>1607.0</ele>
        <time>2018-09-01T14:06:22Z</time>
      </trkpt>
      <trkpt lat="40.663567" lon="-4.964200">
        <ele>1609.0</ele>
        <time>2018-09-01T14:06:23Z</time>
      </trkpt>
      <trkpt lat="40.663567" lon="-4.964083">
        <ele>1610.0</ele>
        <time>2018-09-01T14:06:24Z</time>
      </trkpt>
      <trkpt lat="40.663533" lon="-4.963967">
        <ele>1612.0</ele>
        <time>2018-09-01T14:06:25Z</time>
      </trkpt>
      <trkpt lat="40.663483" lon="-4.963850">
        <ele>1613.0</ele>
        <time>2018-09-01T14:06:26Z</time>
      </trkpt>
      <trkpt lat="40.663383" lon="-4.963750">
        <ele>1614.0</ele>
        <time>2018-09-01T14:06:27Z</time>
      </trkpt>
      <trkpt lat="40.663267" lon="-4.963683">
        <ele>1614.0</ele>
        <time>2018-09-01T14:06:28Z</time>
      </trkpt>
      <trkpt lat="40.663133" lon="-4.963667">
        <ele>1614.0</ele>
        <time>2018-09-01T14:06:29Z</time>
      </trkpt>
      <trkpt lat="40.663000" lon="-4.963683">
        <ele>1615.0</ele>
        <time>2018-09-01T14:06:30Z</time>
      </trkpt>
      <trkpt lat="40.662883" lon="-4.963767">
        <ele>1615.0</ele>
        <time>2018-09-01T14:06:31Z</time>
      </trkpt>
      <trkpt lat="40.662800" lon="-4.963883">
        <ele>1615.0</ele>
        <time>2018-09-01T14:06:32Z</time>
      </trkpt>
      <trkpt lat="40.662733" lon="-4.964033">
        <ele>1616.0</ele>
        <time>2018-09-01T14:06:33Z</time>
      </trkpt>
      <trkpt lat="40.662683" lon="-4.964167">
        <ele>1618.0</ele>
        <time>2018-09-01T14:06:34Z</time>
      </trkpt>
      <trkpt lat="40.662667" lon="-4.964283">
        <ele>1621.0</ele>
        <time>2018-09-01T14:06:35Z</time>
      </trkpt>
      <trkpt lat="40.662667" lon="-4.964400">
        <ele>1623.0</ele>
        <time>2018-09-01T14:06:36Z</time>
      </trkpt>
      <trkpt lat="40.662700" lon="-4.964500">
        <ele>1624.0</ele>
        <time>2018-09-01T14:06:37Z</time>
      </trkpt>
      <trkpt lat="40.662717" lon="-4.964600">
        <ele>1626.0</ele>
        <time>2018-09-01T14:06:38Z</time>
      </trkpt>
      <trkpt lat="40.662750" lon="-4.964700">
        <ele>1627.0</ele>
        <time>2018-09-01T14:06:39Z</time>
      </trkpt>
      <trkpt lat="40.662800" lon="-4.964767">
        <ele>1627.0</ele>
        <time>2018-09-01T14:06:40Z</time>
      </trkpt>
      <trkpt lat="40.662850" lon="-4.964833">
        <ele>1628.0</ele>
        <time>2018-09-01T14:06:41Z</time>
      </trkpt>
      <trkpt lat="40.662933" lon="-4.964850">
        <ele>1628.0</ele>
        <time>2018-09-01T14:06:42Z</time>
      </trkpt>
      <trkpt lat="40.663000" lon="-4.964867">
        <ele>1628.0</ele>
        <time>2018-09-01T14:06:43Z</time>
      </trkpt>
      <trkpt lat="40.663050" lon="-4.964867">
        <ele>1630.0</ele>
        <time>2018-09-01T14:06:44Z</time>
      </trkpt>
      <trkpt lat="40.663100" lon="-4.964850">
        <ele>1631.0</ele>
        <time>2018-09-01T14:06:45Z</time>
      </trkpt>
      <trkpt lat="40.663133" lon="-4.964817">
        <ele>1632.0</ele>
        <time>2018-09-01T14:06:46Z</time>
      </trkpt>
      <trkpt lat="40.663167" lon="-4.964750">
        <ele>1631.0</ele>
        <time>2018-09-01T14:06:47Z</time>
      </trkpt>
      <trkpt lat="40.663183" lon="-4.964650">
        <ele>1629.0</ele>
        <time>2018-09-01T14:06:48Z</time>
      </trkpt>
      <trkpt lat="40.663183" lon="-4.964500">
        <ele>1628.0</ele>
        <time>2018-09-01T14:06:49Z</time>
      </trkpt>
      <trkpt lat="40.663150" lon="-4.964350">
        <ele>1629.0</ele>
        <time>2018-09-01T14:06:50Z</time>
      </trkpt>
      <trkpt lat="40.663100" lon="-4.964200">
        <ele>1631.0</ele>
        <time>2018-09-01T14:06:51Z</time>
      </trkpt>
      <trkpt lat="40.663033" lon="-4.964083">
        <ele>1633.0</ele>
        <time>2018-09-01T14:06:52Z</time>
      </trkpt>
      <trkpt lat="40.662933" lon="-4.963967">
        <ele>1635.0</ele>
        <time>2018-09-01T14:06:53Z</time>
      </trkpt>
      <trkpt lat="40.662817" lon="-4.963883">
        <ele>1637.0</ele>
        <time>2018-09-01T14:06:54Z</time>
      </trkpt>
      <trkpt lat="40.662700" lon="-4.963833">
        <ele>1639.0</ele>
        <time>2018-09-01T14:06:55Z</time>
      </trkpt>
      <trkpt lat="40.662583" lon="-4.963817">
        <ele>1640.0</ele>
        <time>2018-09-01T14:06:56Z</time>
      </trkpt>
      <trkpt lat="40.662467" lon="-4.963833">
        <ele>1641.0</ele>
        <time>2018-09-01T14:06:57Z</time>
      </trkpt>
      <trkpt lat="40.662350" lon="-4.963900">
        <ele>1641.0</ele>
        <time>2018-09-01T14:06:58Z</time>
      </trkpt>
      <trkpt lat="40.662250" lon="-4.964000">
        <ele>1642.0</ele>
        <time>2018-09-01T14:06:59Z</time>
      </trkpt>
      <trkpt lat="40.662183" lon="-4.964100">
        <ele>1643.0</ele>
        <time>2018-09-01T14:07:00Z</time>
      </trkpt>
      <trkpt lat="40.662133" lon="-4.964233">
        <ele>1645.0</ele>
        <time>2018-09-01T14:07:01Z</time>
      </trkpt>
      <trkpt lat="40.662117" lon="-4.964333">
        <ele>1647.0</ele>
        <time>2018-09-01T14:07:02Z</time>
      </trkpt>
      <trkpt lat="40.662133" lon="-4.964417">
        <ele>1649.0</ele>
        <time>2018-09-01T14:07:03Z</time>
      </trkpt>
      <trkpt lat="40.662167" lon="-4.964467">
        <ele>1649.0</ele>
        <time>2018-09-01T14:07:04Z</time>
      </trkpt>
      <trkpt lat="40.662233" lon="-4.964517">
        <ele>1650.0</ele>
        <time>2018-09-01T14:07:05Z</time>
      </trkpt>
      <trkpt lat="40.662283" lon="-4.964517">
        <ele>1650.0</ele>
        <time>2018-09-01T14:07:06Z</time>
      </trkpt>
      <trkpt lat="40.662350" lon="-4.964500">
        <ele>1651.0</ele>
        <time>2018-09-01T14:07:07Z</time>
      </trkpt>
      <trkpt lat="40.662417" lon="-4.964467">
        <ele>1653.0</ele>
        <time>2018-09-01T14:07:08Z</time>
      </trkpt>
      <trkpt lat="40.662467" lon="-4.964417">
        <ele>1656.0</ele>
        <time>2018-09-01T14:07:09Z</time>
      </trkpt>
      <trkpt lat="40.662517" lon="-4.964350">
        <ele>1656.0</ele>
        <time>2018-09-01T14:07:10Z</time>
      </trkpt>
      <trkpt lat="40.662533" lon="-4.964250">
        <ele>1657.0</ele>
        <time>2018-09-01T14:07:11Z</time>
      </trkpt>
      <trkpt lat="40.662550" lon="-4.964117">
        <ele>1656.0</ele>
        <time>2018-09-01T14:07:12Z</time>
      </trkpt>
      <trkpt lat="40.662533" lon="-4.963967">
        <ele>1657.0</ele>
        <time>2018-09-01T14:07:13Z</time>
      </trkpt>
      <trkpt lat="40.662467" lon="-4.963833">
        <ele>1658.0</ele>
        <time>2018-09-01T14:07:14Z</time>
      </trkpt>
      <trkpt lat="40.662350" lon="-4.963733">
        <ele>1659.0</ele>
        <time>2018-09-01T14:07:15Z</time>
      </trkpt>
      <trkpt lat="40.662233" lon="-4.963700">
        <ele>1660.0</ele>
        <time>2018-09-01T14:07:16Z</time>
      </trkpt>
      <trkpt lat="40.662100" lon="-4.963717">
        <ele>1660.0</ele>
        <time>2018-09-01T14:07:17Z</time>
      </trkpt>
      <trkpt lat="40.662000" lon="-4.963783">
        <ele>1661.0</ele>
        <time>2018-09-01T14:07:18Z</time>
      </trkpt>
      <trkpt lat="40.661900" lon="-4.963883">
        <ele>1661.0</ele>
        <time>2018-09-01T14:07:19Z</time>
      </trkpt>
      <trkpt lat="40.661833" lon="-4.964000">
        <ele>1660.0</ele>
        <time>2018-09-01T14:07:20Z</time>
      </trkpt>
      <trkpt lat="40.661783" lon="-4.964133">
        <ele>1661.0</ele>
        <time>2018-09-01T14:07:21Z</time>
      </trkpt>
      <trkpt lat="40.661767" lon="-4.964250">
        <ele>1661.0</ele>
        <time>2018-09-01T14:07:22Z</time>
      </trkpt>
      <trkpt lat="40.661783" lon="-4.964367">
        <ele>1663.0</ele>
        <time>2018-09-01T14:07:23Z</time>
      </trkpt>
      <trkpt lat="40.661817" lon="-4.964450">
        <ele>1665.0</ele>
        <time>2018-09-01T14:07:24Z</time>
      </trkpt>
      <trkpt lat="40.661867" lon="-4.964517">
        <ele>1667.0</ele>
        <time>2018-09-01T14:07:25Z</time>
      </trkpt>
      <trkpt lat="40.661917" lon="-4.964533">
        <ele>1668.0</ele>
        <time>2018-09-01T14:07:26Z</time>
      </trkpt>
      <trkpt lat="40.661967" lon="-4.964533">
        <ele>1668.0</ele>
        <time>2018-09-01T14:07:27Z</time>
      </trkpt>
      <trkpt lat="40.662017" lon="-4.964500">
        <ele>1668.0</ele>
        <time>2018-09-01T14:07:28Z</time>
      </trkpt>
      <trkpt lat="40.662050" lon="-4.964433">
        <ele>1666.0</ele>
        <time>2018-09-01T14:07:29Z</time>
      </trkpt>
      <trkpt lat="40.662083" lon="-4.964333">
        <ele>1663.0</ele>
        <time>2018-09-01T14:07:30Z</time>
      </trkpt>
      <trkpt lat="40.662083" lon="-4.964200">
        <ele>1660.0</ele>
        <time>2018-09-01T14:07:31Z</time>
      </trkpt>
      <trkpt lat="40.662067" lon="-4.964017">
        <ele>1658.0</ele>
        <time>2018-09-01T14:07:32Z</time>
      </trkpt>
      <trkpt lat="40.662017" lon="-4.963850">
        <ele>1659.0</ele>
        <time>2018-09-01T14:07:33Z</time>
      </trkpt>
      <trkpt lat="40.661933" lon="-4.963733">
        <ele>1661.0</ele>
        <time>2018-09-01T14:07:34Z</time>
      </trkpt>
      <trkpt lat="40.661833" lon="-4.963650">
        <ele>1663.0</ele>
        <time>2018-09-01T14:07:35Z</time>
      </trkpt>
      <trkpt lat="40.661733" lon="-4.963583">
        <ele>1664.0</ele>
        <time>2018-09-01T14:07:36Z</time>
      </trkpt>
      <trkpt lat="40.661633" lon="-4.963533">
        <ele>1664.0</ele>
        <time>2018-09-01T14:07:37Z</time>
      </trkpt>
      <trkpt lat="40.661517" lon="-4.963517">
        <ele>1664.0</ele>
        <time>2018-09-01T14:07:38Z</time>
      </trkpt>
      <trkpt lat="40.661400" lon="-4.963517">
        <ele>1664.0</ele>
        <time>2018-09-01T14:07:39Z</time>
      </trkpt>
      <trkpt lat="40.661283" lon="-4.963567">
        <ele>1664.0</ele>
        <time>2018-09-01T14:07:40Z</time>
      </trkpt>
      <trkpt lat="40.661183" lon="-4.963683">
        <ele>1663.0</ele>
        <time>2018-09-01T14:07:41Z</time>
      </trkpt>
      <trkpt lat="40.661100" lon="-4.963800">
        <ele>1663.0</ele>
        <time>2018-09-01T14:07:42Z</time>
      </trkpt>
      <trkpt lat="40.661033" lon="-4.963950">
        <ele>1664.0</ele>
        <time>2018-09-01T14:07:43Z</time>
      </trkpt>
      <trkpt lat="40.660983" lon="-4.964067">
        <ele>1665.0</ele>
        <time>2018-09-01T14:07:44Z</time>
      </trkpt>
      <trkpt lat="40.660933" lon="-4.964183">
        <ele>1667.0</ele>
        <time>2018-09-01T14:07:45Z</time>
      </trkpt>
      <trkpt lat="40.660900" lon="-4.964283">
        <ele>1669.0</ele>
        <time>2018-09-01T14:07:46Z</time>
      </trkpt>
      <trkpt lat="40.660900" lon="-4.964383">
        <ele>1669.0</ele>
        <time>2018-09-01T14:07:47Z</time>
      </trkpt>
      <trkpt lat="40.660883" lon="-4.964500">
        <ele>1670.0</ele>
        <time>2018-09-01T14:07:48Z</time>
      </trkpt>
      <trkpt lat="40.660850" lon="-4.964600">
        <ele>1671.0</ele>
        <time>2018-09-01T14:07:49Z</time>
      </trkpt>
      <trkpt lat="40.660817" lon="-4.964733">
        <ele>1671.0</ele>
        <time>2018-09-01T14:07:50Z</time>
      </trkpt>
      <trkpt lat="40.660750" lon="-4.964850">
        <ele>1672.0</ele>
        <time>2018-09-01T14:07:51Z</time>
      </trkpt>
      <trkpt lat="40.660667" lon="-4.964967">
        <ele>1673.0</ele>
        <time>2018-09-01T14:07:52Z</time>
      </trkpt>
      <trkpt lat="40.660583" lon="-4.965050">
        <ele>1674.0</ele>
        <time>2018-09-01T14:07:53Z</time>
      </trkpt>
      <trkpt lat="40.660467" lon="-4.965083">
        <ele>1675.0</ele>
        <time>2018-09-01T14:07:54Z</time>
      </trkpt>
      <trkpt lat="40.660350" lon="-4.965083">
        <ele>1674.0</ele>
        <time>2018-09-01T14:07:55Z</time>
      </trkpt>
      <trkpt lat="40.660233" lon="-4.965050">
        <ele>1673.0</ele>
        <time>2018-09-01T14:07:56Z</time>
      </trkpt>
      <trkpt lat="40.660117" lon="-4.964967">
        <ele>1671.0</ele>
        <time>2018-09-01T14:07:57Z</time>
      </trkpt>
      <trkpt lat="40.660017" lon="-4.964850">
        <ele>1671.0</ele>
        <time>2018-09-01T14:07:58Z</time>
      </trkpt>
      <trkpt lat="40.659950" lon="-4.964717">
        <ele>1671.0</ele>
        <time>2018-09-01T14:07:59Z</time>
      </trkpt>
      <trkpt lat="40.659933" lon="-4.964567">
        <ele>1670.0</ele>
        <time>2018-09-01T14:08:00Z</time>
      </trkpt>
      <trkpt lat="40.659933" lon="-4.964433">
        <ele>1670.0</ele>
        <time>2018-09-01T14:08:01Z</time>
      </trkpt>
      <trkpt lat="40.659967" lon="-4.964333">
        <ele>1670.0</ele>
        <time>2018-09-01T14:08:02Z</time>
      </trkpt>
      <trkpt lat="40.660000" lon="-4.964250">
        <ele>1671.0</ele>
        <time>2018-09-01T14:08:03Z</time>
      </trkpt>
      <trkpt lat="40.660050" lon="-4.964183">
        <ele>1671.0</ele>
        <time>2018-09-01T14:08:04Z</time>
      </trkpt>
      <trkpt lat="40.660100" lon="-4.964133">
        <ele>1671.0</ele>
        <time>2018-09-01T14:08:05Z</time>
      </trkpt>
      <trkpt lat="40.660167" lon="-4.964117">
        <ele>1671.0</ele>
        <time>2018-09-01T14:08:06Z</time>
      </trkpt>
      <trkpt lat="40.660250" lon="-4.964117">
        <ele>1670.0</ele>
        <time>2018-09-01T14:08:07Z</time>
      </trkpt>
      <trkpt lat="40.660317" lon="-4.964117">
        <ele>1670.0</ele>
        <time>2018-09-01T14:08:08Z</time>
      </trkpt>
      <trkpt lat="40.660383" lon="-4.964133">
        <ele>1672.0</ele>
        <time>2018-09-01T14:08:09Z</time>
      </trkpt>
      <trkpt lat="40.660450" lon="-4.964150">
        <ele>1673.0</ele>
        <time>2018-09-01T14:08:10Z</time>
      </trkpt>
      <trkpt lat="40.660483" lon="-4.964167">
        <ele>1674.0</ele>
        <time>2018-09-01T14:08:11Z</time>
      </trkpt>
      <trkpt lat="40.660517" lon="-4.964183">
        <ele>1675.0</ele>
        <time>2018-09-01T14:08:12Z</time>
      </trkpt>
      <trkpt lat="40.660567" lon="-4.964200">
        <ele>1674.0</ele>
        <time>2018-09-01T14:08:13Z</time>
      </trkpt>
      <trkpt lat="40.660617" lon="-4.964250">
        <ele>1674.0</ele>
        <time>2018-09-01T14:08:14Z</time>
      </trkpt>
      <trkpt lat="40.660650" lon="-4.964300">
        <ele>1674.0</ele>
        <time>2018-09-01T14:08:15Z</time>
      </trkpt>
      <trkpt lat="40.660683" lon="-4.964367">
        <ele>1673.0</ele>
        <time>2018-09-01T14:08:16Z</time>
      </trkpt>
      <trkpt lat="40.660717" lon="-4.964450">
        <ele>1673.0</ele>
        <time>2018-09-01T14:08:17Z</time>
      </trkpt>
      <trkpt lat="40.660750" lon="-4.964533">
        <ele>1672.0</ele>
        <time>2018-09-01T14:08:18Z</time>
      </trkpt>
      <trkpt lat="40.660783" lon="-4.964617">
        <ele>1671.0</ele>
        <time>2018-09-01T14:08:19Z</time>
      </trkpt>
      <trkpt lat="40.660817" lon="-4.964683">
        <ele>1669.0</ele>
        <time>2018-09-01T14:08:20Z</time>
      </trkpt>
      <trkpt lat="40.660850" lon="-4.964733">
        <ele>1668.0</ele>
        <time>2018-09-01T14:08:21Z</time>
      </trkpt>
      <trkpt lat="40.660900" lon="-4.964783">
        <ele>1666.0</ele>
        <time>2018-09-01T14:08:22Z</time>
      </trkpt>
      <trkpt lat="40.660967" lon="-4.964817">
        <ele>1663.0</ele>
        <time>2018-09-01T14:08:23Z</time>
      </trkpt>
      <trkpt lat="40.661033" lon="-4.964817">
        <ele>1660.0</ele>
        <time>2018-09-01T14:08:24Z</time>
      </trkpt>
      <trkpt lat="40.661100" lon="-4.964800">
        <ele>1657.0</ele>
        <time>2018-09-01T14:08:25Z</time>
      </trkpt>
      <trkpt lat="40.661183" lon="-4.964800">
        <ele>1654.0</ele>
        <time>2018-09-01T14:08:26Z</time>
      </trkpt>
      <trkpt lat="40.661267" lon="-4.964800">
        <ele>1652.0</ele>
        <time>2018-09-01T14:08:27Z</time>
      </trkpt>
      <trkpt lat="40.661333" lon="-4.964783">
        <ele>1650.0</ele>
        <time>2018-09-01T14:08:28Z</time>
      </trkpt>
      <trkpt lat="40.661417" lon="-4.964783">
        <ele>1649.0</ele>
        <time>2018-09-01T14:08:29Z</time>
      </trkpt>
      <trkpt lat="40.661483" lon="-4.964783">
        <ele>1649.0</ele>
        <time>2018-09-01T14:08:30Z</time>
      </trkpt>
      <trkpt lat="40.661567" lon="-4.964783">
        <ele>1649.0</ele>
        <time>2018-09-01T14:08:31Z</time>
      </trkpt>
      <trkpt lat="40.661650" lon="-4.964800">
        <ele>1649.0</ele>
        <time>2018-09-01T14:08:32Z</time>
      </trkpt>
      <trkpt lat="40.661717" lon="-4.964817">
        <ele>1649.0</ele>
        <time>2018-09-01T14:08:33Z</time>
      </trkpt>
      <trkpt lat="40.661800" lon="-4.964850">
        <ele>1649.0</ele>
        <time>2018-09-01T14:08:34Z</time>
      </trkpt>
      <trkpt lat="40.661867" lon="-4.964900">
        <ele>1648.0</ele>
        <time>2018-09-01T14:08:35Z</time>
      </trkpt>
      <trkpt lat="40.661917" lon="-4.964933">
        <ele>1647.0</ele>
        <time>2018-09-01T14:08:36Z</time>
      </trkpt>
      <trkpt lat="40.661983" lon="-4.964983">
        <ele>1645.0</ele>
        <time>2018-09-01T14:08:37Z</time>
      </trkpt>
      <trkpt lat="40.662067" lon="-4.965017">
        <ele>1643.0</ele>
        <time>2018-09-01T14:08:38Z</time>
      </trkpt>
      <trkpt lat="40.662150" lon="-4.965050">
        <ele>1642.0</ele>
        <time>2018-09-01T14:08:39Z</time>
      </trkpt>
      <trkpt lat="40.662217" lon="-4.965083">
        <ele>1640.0</ele>
        <time>2018-09-01T14:08:40Z</time>
      </trkpt>
      <trkpt lat="40.662300" lon="-4.965117">
        <ele>1640.0</ele>
        <time>2018-09-01T14:08:41Z</time>
      </trkpt>
      <trkpt lat="40.662367" lon="-4.965133">
        <ele>1640.0</ele>
        <time>2018-09-01T14:08:42Z</time>
      </trkpt>
      <trkpt lat="40.662450" lon="-4.965150">
        <ele>1640.0</ele>
        <time>2018-09-01T14:08:43Z</time>
      </trkpt>
      <trkpt lat="40.662517" lon="-4.965133">
        <ele>1639.0</ele>
        <time>2018-09-01T14:08:44Z</time>
      </trkpt>
      <trkpt lat="40.662600" lon="-4.965133">
        <ele>1638.0</ele>
        <time>2018-09-01T14:08:45Z</time>
      </trkpt>
      <trkpt lat="40.662700" lon="-4.965117">
        <ele>1637.0</ele>
        <time>2018-09-01T14:08:46Z</time>
      </trkpt>
      <trkpt lat="40.662783" lon="-4.965100">
        <ele>1636.0</ele>
        <time>2018-09-01T14:08:47Z</time>
      </trkpt>
      <trkpt lat="40.662867" lon="-4.965083">
        <ele>1636.0</ele>
        <time>2018-09-01T14:08:48Z</time>
      </trkpt>
      <trkpt lat="40.662950" lon="-4.965100">
        <ele>1636.0</ele>
        <time>2018-09-01T14:08:49Z</time>
      </trkpt>
      <trkpt lat="40.663017" lon="-4.965117">
        <ele>1635.0</ele>
        <time>2018-09-01T14:08:50Z</time>
      </trkpt>
      <trkpt lat="40.663083" lon="-4.965133">
        <ele>1634.0</ele>
        <time>2018-09-01T14:08:51Z</time>
      </trkpt>
      <trkpt lat="40.663150" lon="-4.965167">
        <ele>1632.0</ele>
        <time>2018-09-01T14:08:52Z</time>
      </trkpt>
      <trkpt lat="40.663233" lon="-4.965200">
        <ele>1630.0</ele>
        <time>2018-09-01T14:08:53Z</time>
      </trkpt>
      <trkpt lat="40.663300" lon="-4.965267">
        <ele>1628.0</ele>
        <time>2018-09-01T14:08:54Z</time>
      </trkpt>
      <trkpt lat="40.663350" lon="-4.965333">
        <ele>1627.0</ele>
        <time>2018-09-01T14:08:55Z</time>
      </trkpt>
      <trkpt lat="40.663400" lon="-4.965383">
        <ele>1627.0</ele>
        <time>2018-09-01T14:08:56Z</time>
      </trkpt>
      <trkpt lat="40.663450" lon="-4.965417">
        <ele>1626.0</ele>
        <time>2018-09-01T14:08:57Z</time>
      </trkpt>
      <trkpt lat="40.663517" lon="-4.965433">
        <ele>1624.0</ele>
        <time>2018-09-01T14:08:58Z</time>
      </trkpt>
      <trkpt lat="40.663567" lon="-4.965467">
        <ele>1621.0</ele>
        <time>2018-09-01T14:08:59Z</time>
      </trkpt>
      <trkpt lat="40.663650" lon="-4.965517">
        <ele>1618.0</ele>
        <time>2018-09-01T14:09:00Z</time>
      </trkpt>
      <trkpt lat="40.663717" lon="-4.965583">
        <ele>1615.0</ele>
        <time>2018-09-01T14:09:01Z</time>
      </trkpt>
      <trkpt lat="40.663800" lon="-4.965650">
        <ele>1614.0</ele>
        <time>2018-09-01T14:09:02Z</time>
      </trkpt>
      <trkpt lat="40.663867" lon="-4.965717">
        <ele>1614.0</ele>
        <time>2018-09-01T14:09:03Z</time>
      </trkpt>
      <trkpt lat="40.663917" lon="-4.965767">
        <ele>1614.0</ele>
        <time>2018-09-01T14:09:04Z</time>
      </trkpt>
      <trkpt lat="40.663967" lon="-4.965817">
        <ele>1614.0</ele>
        <time>2018-09-01T14:09:05Z</time>
      </trkpt>
      <trkpt lat="40.664017" lon="-4.965883">
        <ele>1612.0</ele>
        <time>2018-09-01T14:09:06Z</time>
      </trkpt>
      <trkpt lat="40.664067" lon="-4.965967">
        <ele>1610.0</ele>
        <time>2018-09-01T14:09:07Z</time>
      </trkpt>
      <trkpt lat="40.664133" lon="-4.966050">
        <ele>1608.0</ele>
        <time>2018-09-01T14:09:08Z</time>
      </trkpt>
      <trkpt lat="40.664217" lon="-4.966117">
        <ele>1608.0</ele>
        <time>2018-09-01T14:09:09Z</time>
      </trkpt>
      <trkpt lat="40.664283" lon="-4.966167">
        <ele>1609.0</ele>
        <time>2018-09-01T14:09:10Z</time>
      </trkpt>
      <trkpt lat="40.664350" lon="-4.966200">
        <ele>1610.0</ele>
        <time>2018-09-01T14:09:11Z</time>
      </trkpt>
      <trkpt lat="40.664400" lon="-4.966233">
        <ele>1610.0</ele>
        <time>2018-09-01T14:09:12Z</time>
      </trkpt>
      <trkpt lat="40.664467" lon="-4.966283">
        <ele>1609.0</ele>
        <time>2018-09-01T14:09:13Z</time>
      </trkpt>
      <trkpt lat="40.664533" lon="-4.966333">
        <ele>1608.0</ele>
        <time>2018-09-01T14:09:14Z</time>
      </trkpt>
      <trkpt lat="40.664600" lon="-4.966400">
        <ele>1606.0</ele>
        <time>2018-09-01T14:09:15Z</time>
      </trkpt>
      <trkpt lat="40.664667" lon="-4.966483">
        <ele>1605.0</ele>
        <time>2018-09-01T14:09:16Z</time>
      </trkpt>
      <trkpt lat="40.664733" lon="-4.966550">
        <ele>1607.0</ele>
        <time>2018-09-01T14:09:17Z</time>
      </trkpt>
      <trkpt lat="40.664783" lon="-4.966633">
        <ele>1609.0</ele>
        <time>2018-09-01T14:09:18Z</time>
      </trkpt>
      <trkpt lat="40.664833" lon="-4.966717">
        <ele>1611.0</ele>
        <time>2018-09-01T14:09:19Z</time>
      </trkpt>
      <trkpt lat="40.664883" lon="-4.966800">
        <ele>1612.0</ele>
        <time>2018-09-01T14:09:20Z</time>
      </trkpt>
      <trkpt lat="40.664933" lon="-4.966883">
        <ele>1613.0</ele>
        <time>2018-09-01T14:09:21Z</time>
      </trkpt>
      <trkpt lat="40.664983" lon="-4.966967">
        <ele>1615.0</ele>
        <time>2018-09-01T14:09:22Z</time>
      </trkpt>
      <trkpt lat="40.665033" lon="-4.967017">
        <ele>1617.0</ele>
        <time>2018-09-01T14:09:23Z</time>
      </trkpt>
      <trkpt lat="40.665083" lon="-4.967033">
        <ele>1618.0</ele>
        <time>2018-09-01T14:09:24Z</time>
      </trkpt>
      <trkpt lat="40.665150" lon="-4.967000">
        <ele>1619.0</ele>
        <time>2018-09-01T14:09:25Z</time>
      </trkpt>
      <trkpt lat="40.665200" lon="-4.966933">
        <ele>1621.0</ele>
        <time>2018-09-01T14:09:26Z</time>
      </trkpt>
      <trkpt lat="40.665267" lon="-4.966850">
        <ele>1622.0</ele>
        <time>2018-09-01T14:09:27Z</time>
      </trkpt>
      <trkpt lat="40.665283" lon="-4.966750">
        <ele>1625.0</ele>
        <time>2018-09-01T14:09:28Z</time>
      </trkpt>
      <trkpt lat="40.665300" lon="-4.966633">
        <ele>1626.0</ele>
        <time>2018-09-01T14:09:29Z</time>
      </trkpt>
      <trkpt lat="40.665267" lon="-4.966500">
        <ele>1626.0</ele>
        <time>2018-09-01T14:09:30Z</time>
      </trkpt>
      <trkpt lat="40.665200" lon="-4.966383">
        <ele>1625.0</ele>
        <time>2018-09-01T14:09:31Z</time>
      </trkpt>
      <trkpt lat="40.665100" lon="-4.966283">
        <ele>1625.0</ele>
        <time>2018-09-01T14:09:32Z</time>
      </trkpt>
      <trkpt lat="40.664983" lon="-4.966233">
        <ele>1626.0</ele>
        <time>2018-09-01T14:09:33Z</time>
      </trkpt>
      <trkpt lat="40.664850" lon="-4.966233">
        <ele>1626.0</ele>
        <time>2018-09-01T14:09:34Z</time>
      </trkpt>
      <trkpt lat="40.664733" lon="-4.966283">
        <ele>1627.0</ele>
        <time>2018-09-01T14:09:35Z</time>
      </trkpt>
      <trkpt lat="40.664650" lon="-4.966367">
        <ele>1628.0</ele>
        <time>2018-09-01T14:09:36Z</time>
      </trkpt>
      <trkpt lat="40.664600" lon="-4.966467">
        <ele>1629.0</ele>
        <time>2018-09-01T14:09:37Z</time>
      </trkpt>
      <trkpt lat="40.664583" lon="-4.966583">
        <ele>1630.0</ele>
        <time>2018-09-01T14:09:38Z</time>
      </trkpt>
      <trkpt lat="40.664600" lon="-4.966683">
        <ele>1631.0</ele>
        <time>2018-09-01T14:09:39Z</time>
      </trkpt>
      <trkpt lat="40.664633" lon="-4.966783">
        <ele>1633.0</ele>
        <time>2018-09-01T14:09:40Z</time>
      </trkpt>
      <trkpt lat="40.664650" lon="-4.966883">
        <ele>1636.0</ele>
        <time>2018-09-01T14:09:41Z</time>
      </trkpt>
      <trkpt lat="40.664667" lon="-4.966967">
        <ele>1639.0</ele>
        <time>2018-09-01T14:09:42Z</time>
      </trkpt>
      <trkpt lat="40.664683" lon="-4.967033">
        <ele>1642.0</ele>
        <time>2018-09-01T14:09:43Z</time>
      </trkpt>
      <trkpt lat="40.664717" lon="-4.967117">
        <ele>1644.0</ele>
        <time>2018-09-01T14:09:44Z</time>
      </trkpt>
      <trkpt lat="40.664733" lon="-4.967200">
        <ele>1645.0</ele>
        <time>2018-09-01T14:09:45Z</time>
      </trkpt>
      <trkpt lat="40.664750" lon="-4.967300">
        <ele>1647.0</ele>
        <time>2018-09-01T14:09:46Z</time>
      </trkpt>
      <trkpt lat="40.664767" lon="-4.967400">
        <ele>1650.0</ele>
        <time>2018-09-01T14:09:47Z</time>
      </trkpt>
      <trkpt lat="40.664767" lon="-4.967500">
        <ele>1652.0</ele>
        <time>2018-09-01T14:09:48Z</time>
      </trkpt>
      <trkpt lat="40.664767" lon="-4.967600">
        <ele>1655.0</ele>
        <time>2018-09-01T14:09:49Z</time>
      </trkpt>
      <trkpt lat="40.664783" lon="-4.967683">
        <ele>1658.0</ele>
        <time>2018-09-01T14:09:50Z</time>
      </trkpt>
      <trkpt lat="40.664817" lon="-4.967750">
        <ele>1660.0</ele>
        <time>2018-09-01T14:09:51Z</time>
      </trkpt>
      <trkpt lat="40.664867" lon="-4.967767">
        <ele>1660.0</ele>
        <time>2018-09-01T14:09:52Z</time>
      </trkpt>
      <trkpt lat="40.664933" lon="-4.967733">
        <ele>1660.0</ele>
        <time>2018-09-01T14:09:53Z</time>
      </trkpt>
      <trkpt lat="40.665000" lon="-4.967667">
        <ele>1660.0</ele>
        <time>2018-09-01T14:09:54Z</time>
      </trkpt>
      <trkpt lat="40.665033" lon="-4.967550">
        <ele>1662.0</ele>
        <time>2018-09-01T14:09:55Z</time>
      </trkpt>
      <trkpt lat="40.665033" lon="-4.967400">
        <ele>1664.0</ele>
        <time>2018-09-01T14:09:56Z</time>
      </trkpt>
      <trkpt lat="40.664983" lon="-4.967283">
        <ele>1665.0</ele>
        <time>2018-09-01T14:09:57Z</time>
      </trkpt>
      <trkpt lat="40.664883" lon="-4.967167">
        <ele>1666.0</ele>
        <time>2018-09-01T14:09:58Z</time>
      </trkpt>
      <trkpt lat="40.664783" lon="-4.967100">
        <ele>1668.0</ele>
        <time>2018-09-01T14:09:59Z</time>
      </trkpt>
      <trkpt lat="40.664667" lon="-4.967083">
        <ele>1671.0</ele>
        <time>2018-09-01T14:10:00Z</time>
      </trkpt>
      <trkpt lat="40.664550" lon="-4.967100">
        <ele>1672.0</ele>
        <time>2018-09-01T14:10:01Z</time>
      </trkpt>
      <trkpt lat="40.664433" lon="-4.967150">
        <ele>1673.0</ele>
        <time>2018-09-01T14:10:02Z</time>
      </trkpt>
      <trkpt lat="40.664333" lon="-4.967217">
        <ele>1674.0</ele>
        <time>2018-09-01T14:10:03Z</time>
      </trkpt>
      <trkpt lat="40.664233" lon="-4.967317">
        <ele>1675.0</ele>
        <time>2018-09-01T14:10:04Z</time>
      </trkpt>
      <trkpt lat="40.664167" lon="-4.967450">
        <ele>1677.0</ele>
        <time>2018-09-01T14:10:05Z</time>
      </trkpt>
      <trkpt lat="40.664133" lon="-4.967600">
        <ele>1678.0</ele>
        <time>2018-09-01T14:10:06Z</time>
      </trkpt>
      <trkpt lat="40.664133" lon="-4.967733">
        <ele>1680.0</ele>
        <time>2018-09-01T14:10:07Z</time>
      </trkpt>
      <trkpt lat="40.664167" lon="-4.967817">
        <ele>1682.0</ele>
        <time>2018-09-01T14:10:08Z</time>
      </trkpt>
      <trkpt lat="40.664200" lon="-4.967900">
        <ele>1684.0</ele>
        <time>2018-09-01T14:10:09Z</time>
      </trkpt>
      <trkpt lat="40.664233" lon="-4.967967">
        <ele>1685.0</ele>
        <time>2018-09-01T14:10:10Z</time>
      </trkpt>
      <trkpt lat="40.664300" lon="-4.968017">
        <ele>1686.0</ele>
        <time>2018-09-01T14:10:11Z</time>
      </trkpt>
      <trkpt lat="40.664367" lon="-4.968033">
        <ele>1686.0</ele>
        <time>2018-09-01T14:10:12Z</time>
      </trkpt>
      <trkpt lat="40.664450" lon="-4.968000">
        <ele>1686.0</ele>
        <time>2018-09-01T14:10:13Z</time>
      </trkpt>
      <trkpt lat="40.664533" lon="-4.967950">
        <ele>1688.0</ele>
        <time>2018-09-01T14:10:14Z</time>
      </trkpt>
      <trkpt lat="40.664600" lon="-4.967883">
        <ele>1692.0</ele>
        <time>2018-09-01T14:10:15Z</time>
      </trkpt>
      <trkpt lat="40.664650" lon="-4.967817">
        <ele>1696.0</ele>
        <time>2018-09-01T14:10:16Z</time>
      </trkpt>
      <trkpt lat="40.664667" lon="-4.967750">
        <ele>1698.0</ele>
        <time>2018-09-01T14:10:17Z</time>
      </trkpt>
      <trkpt lat="40.664683" lon="-4.967683">
        <ele>1698.0</ele>
        <time>2018-09-01T14:10:18Z</time>
      </trkpt>
      <trkpt lat="40.664683" lon="-4.967583">
        <ele>1697.0</ele>
        <time>2018-09-01T14:10:19Z</time>
      </trkpt>
      <trkpt lat="40.664683" lon="-4.967467">
        <ele>1695.0</ele>
        <time>2018-09-01T14:10:20Z</time>
      </trkpt>
      <trkpt lat="40.664650" lon="-4.967333">
        <ele>1694.0</ele>
        <time>2018-09-01T14:10:21Z</time>
      </trkpt>
      <trkpt lat="40.664583" lon="-4.967217">
        <ele>1693.0</ele>
        <time>2018-09-01T14:10:22Z</time>
      </trkpt>
      <trkpt lat="40.664467" lon="-4.967133">
        <ele>1694.0</ele>
        <time>2018-09-01T14:10:23Z</time>
      </trkpt>
      <trkpt lat="40.664350" lon="-4.967117">
        <ele>1695.0</ele>
        <time>2018-09-01T14:10:24Z</time>
      </trkpt>
      <trkpt lat="40.664217" lon="-4.967133">
        <ele>1697.0</ele>
        <time>2018-09-01T14:10:25Z</time>
      </trkpt>
      <trkpt lat="40.664117" lon="-4.967183">
        <ele>1698.0</ele>
        <time>2018-09-01T14:10:26Z</time>
      </trkpt>
      <trkpt lat="40.664017" lon="-4.967250">
        <ele>1700.0</ele>
        <time>2018-09-01T14:10:27Z</time>
      </trkpt>
      <trkpt lat="40.663950" lon="-4.967350">
        <ele>1700.0</ele>
        <time>2018-09-01T14:10:28Z</time>
      </trkpt>
      <trkpt lat="40.663883" lon="-4.967467">
        <ele>1700.0</ele>
        <time>2018-09-01T14:10:29Z</time>
      </trkpt>
      <trkpt lat="40.663833" lon="-4.967600">
        <ele>1700.0</ele>
        <time>2018-09-01T14:10:30Z</time>
      </trkpt>
      <trkpt lat="40.663800" lon="-4.967733">
        <ele>1702.0</ele>
        <time>2018-09-01T14:10:31Z</time>
      </trkpt>
      <trkpt lat="40.663767" lon="-4.967867">
        <ele>1704.0</ele>
        <time>2018-09-01T14:10:32Z</time>
      </trkpt>
      <trkpt lat="40.663750" lon="-4.968017">
        <ele>1706.0</ele>
        <time>2018-09-01T14:10:33Z</time>
      </trkpt>
      <trkpt lat="40.663733" lon="-4.968133">
        <ele>1710.0</ele>
        <time>2018-09-01T14:10:34Z</time>
      </trkpt>
      <trkpt lat="40.663700" lon="-4.968267">
        <ele>1713.0</ele>
        <time>2018-09-01T14:10:35Z</time>
      </trkpt>
      <trkpt lat="40.663683" lon="-4.968383">
        <ele>1716.0</ele>
        <time>2018-09-01T14:10:36Z</time>
      </trkpt>
      <trkpt lat="40.663650" lon="-4.968500">
        <ele>1718.0</ele>
        <time>2018-09-01T14:10:37Z</time>
      </trkpt>
      <trkpt lat="40.663650" lon="-4.968600">
        <ele>1720.0</ele>
        <time>2018-09-01T14:10:38Z</time>
      </trkpt>
      <trkpt lat="40.663650" lon="-4.968717">
        <ele>1720.0</ele>
        <time>2018-09-01T14:10:39Z</time>
      </trkpt>
      <trkpt lat="40.663683" lon="-4.968817">
        <ele>1721.0</ele>
        <time>2018-09-01T14:10:40Z</time>
      </trkpt>
      <trkpt lat="40.663733" lon="-4.968883">
        <ele>1721.0</ele>
        <time>2018-09-01T14:10:41Z</time>
      </trkpt>
      <trkpt lat="40.663800" lon="-4.968933">
        <ele>1721.0</ele>
        <time>2018-09-01T14:10:42Z</time>
      </trkpt>
      <trkpt lat="40.663867" lon="-4.968933">
        <ele>1721.0</ele>
        <time>2018-09-01T14:10:43Z</time>
      </trkpt>
      <trkpt lat="40.663933" lon="-4.968900">
        <ele>1721.0</ele>
        <time>2018-09-01T14:10:44Z</time>
      </trkpt>
      <trkpt lat="40.663983" lon="-4.968833">
        <ele>1720.0</ele>
        <time>2018-09-01T14:10:45Z</time>
      </trkpt>
      <trkpt lat="40.664017" lon="-4.968750">
        <ele>1720.0</ele>
        <time>2018-09-01T14:10:46Z</time>
      </trkpt>
      <trkpt lat="40.664017" lon="-4.968633">
        <ele>1720.0</ele>
        <time>2018-09-01T14:10:47Z</time>
      </trkpt>
      <trkpt lat="40.664017" lon="-4.968517">
        <ele>1719.0</ele>
        <time>2018-09-01T14:10:48Z</time>
      </trkpt>
      <trkpt lat="40.663983" lon="-4.968400">
        <ele>1718.0</ele>
        <time>2018-09-01T14:10:49Z</time>
      </trkpt>
      <trkpt lat="40.663933" lon="-4.968300">
        <ele>1716.0</ele>
        <time>2018-09-01T14:10:50Z</time>
      </trkpt>
      <trkpt lat="40.663833" lon="-4.968200">
        <ele>1715.0</ele>
        <time>2018-09-01T14:10:51Z</time>
      </trkpt>
      <trkpt lat="40.663733" lon="-4.968117">
        <ele>1715.0</ele>
        <time>2018-09-01T14:10:52Z</time>
      </trkpt>
      <trkpt lat="40.663600" lon="-4.968067">
        <ele>1716.0</ele>
        <time>2018-09-01T14:10:53Z</time>
      </trkpt>
      <trkpt lat="40.663483" lon="-4.968067">
        <ele>1717.0</ele>
        <time>2018-09-01T14:10:54Z</time>
      </trkpt>
      <trkpt lat="40.663350" lon="-4.968100">
        <ele>1718.0</ele>
        <time>2018-09-01T14:10:55Z</time>
      </trkpt>
      <trkpt lat="40.663233" lon="-4.968133">
        <ele>1719.0</ele>
        <time>2018-09-01T14:10:56Z</time>
      </trkpt>
      <trkpt lat="40.663117" lon="-4.968200">
        <ele>1719.0</ele>
        <time>2018-09-01T14:10:57Z</time>
      </trkpt>
      <trkpt lat="40.663000" lon="-4.968267">
        <ele>1720.0</ele>
        <time>2018-09-01T14:10:58Z</time>
      </trkpt>
      <trkpt lat="40.662883" lon="-4.968333">
        <ele>1722.0</ele>
        <time>2018-09-01T14:10:59Z</time>
      </trkpt>
      <trkpt lat="40.662767" lon="-4.968417">
        <ele>1724.0</ele>
        <time>2018-09-01T14:11:00Z</time>
      </trkpt>
      <trkpt lat="40.662667" lon="-4.968517">
        <ele>1726.0</ele>
        <time>2018-09-01T14:11:01Z</time>
      </trkpt>
      <trkpt lat="40.662567" lon="-4.968600">
        <ele>1729.0</ele>
        <time>2018-09-01T14:11:02Z</time>
      </trkpt>
      <trkpt lat="40.662450" lon="-4.968667">
        <ele>1730.0</ele>
        <time>2018-09-01T14:11:03Z</time>
      </trkpt>
      <trkpt lat="40.662350" lon="-4.968717">
        <ele>1732.0</ele>
        <time>2018-09-01T14:11:04Z</time>
      </trkpt>
      <trkpt lat="40.662233" lon="-4.968767">
        <ele>1734.0</ele>
        <time>2018-09-01T14:11:05Z</time>
      </trkpt>
      <trkpt lat="40.662117" lon="-4.968833">
        <ele>1736.0</ele>
        <time>2018-09-01T14:11:06Z</time>
      </trkpt>
      <trkpt lat="40.662017" lon="-4.968900">
        <ele>1737.0</ele>
        <time>2018-09-01T14:11:07Z</time>
      </trkpt>
      <trkpt lat="40.661917" lon="-4.969000">
        <ele>1739.0</ele>
        <time>2018-09-01T14:11:08Z</time>
      </trkpt>
      <trkpt lat="40.661833" lon="-4.969100">
        <ele>1740.0</ele>
        <time>2018-09-01T14:11:09Z</time>
      </trkpt>
      <trkpt lat="40.661767" lon="-4.969200">
        <ele>1742.0</ele>
        <time>2018-09-01T14:11:10Z</time>
      </trkpt>
      <trkpt lat="40.661717" lon="-4.969317">
        <ele>1743.0</ele>
        <time>2018-09-01T14:11:11Z</time>
      </trkpt>
      <trkpt lat="40.661667" lon="-4.969450">
        <ele>1743.0</ele>
        <time>2018-09-01T14:11:12Z</time>
      </trkpt>
      <trkpt lat="40.661650" lon="-4.969583">
        <ele>1744.0</ele>
        <time>2018-09-01T14:11:13Z</time>
      </trkpt>
      <trkpt lat="40.661650" lon="-4.969717">
        <ele>1744.0</ele>
        <time>2018-09-01T14:11:14Z</time>
      </trkpt>
      <trkpt lat="40.661667" lon="-4.969833">
        <ele>1745.0</ele>
        <time>2018-09-01T14:11:15Z</time>
      </trkpt>
      <trkpt lat="40.661700" lon="-4.969950">
        <ele>1747.0</ele>
        <time>2018-09-01T14:11:16Z</time>
      </trkpt>
      <trkpt lat="40.661750" lon="-4.970050">
        <ele>1749.0</ele>
        <time>2018-09-01T14:11:17Z</time>
      </trkpt>
      <trkpt lat="40.661817" lon="-4.970117">
        <ele>1753.0</ele>
        <time>2018-09-01T14:11:18Z</time>
      </trkpt>
      <trkpt lat="40.661867" lon="-4.970183">
        <ele>1757.0</ele>
        <time>2018-09-01T14:11:19Z</time>
      </trkpt>
      <trkpt lat="40.661900" lon="-4.970250">
        <ele>1760.0</ele>
        <time>2018-09-01T14:11:20Z</time>
      </trkpt>
      <trkpt lat="40.661933" lon="-4.970317">
        <ele>1762.0</ele>
        <time>2018-09-01T14:11:21Z</time>
      </trkpt>
      <trkpt lat="40.661967" lon="-4.970383">
        <ele>1764.0</ele>
        <time>2018-09-01T14:11:22Z</time>
      </trkpt>
      <trkpt lat="40.662017" lon="-4.970450">
        <ele>1765.0</ele>
        <time>2018-09-01T14:11:23Z</time>
      </trkpt>
      <trkpt lat="40.662083" lon="-4.970467">
        <ele>1766.0</ele>
        <time>2018-09-01T14:11:24Z</time>
      </trkpt>
      <trkpt lat="40.662150" lon="-4.970433">
        <ele>1767.0</ele>
        <time>2018-09-01T14:11:25Z</time>
      </trkpt>
      <trkpt lat="40.662200" lon="-4.970350">
        <ele>1768.0</ele>
        <time>2018-09-01T14:11:26Z</time>
      </trkpt>
      <trkpt lat="40.662233" lon="-4.970233">
        <ele>1769.0</ele>
        <time>2018-09-01T14:11:27Z</time>
      </trkpt>
      <trkpt lat="40.662233" lon="-4.970117">
        <ele>1770.0</ele>
        <time>2018-09-01T14:11:28Z</time>
      </trkpt>
      <trkpt lat="40.662217" lon="-4.969983">
        <ele>1771.0</ele>
        <time>2018-09-01T14:11:29Z</time>
      </trkpt>
      <trkpt lat="40.662183" lon="-4.969850">
        <ele>1772.0</ele>
        <time>2018-09-01T14:11:30Z</time>
      </trkpt>
      <trkpt lat="40.662100" lon="-4.969717">
        <ele>1774.0</ele>
        <time>2018-09-01T14:11:31Z</time>
      </trkpt>
      <trkpt lat="40.662017" lon="-4.969617">
        <ele>1777.0</ele>
        <time>2018-09-01T14:11:32Z</time>
      </trkpt>
      <trkpt lat="40.661900" lon="-4.969550">
        <ele>1780.0</ele>
        <time>2018-09-01T14:11:33Z</time>
      </trkpt>
      <trkpt lat="40.661783" lon="-4.969533">
        <ele>1782.0</ele>
        <time>2018-09-01T14:11:34Z</time>
      </trkpt>
      <trkpt lat="40.661650" lon="-4.969550">
        <ele>1785.0</ele>
        <time>2018-09-01T14:11:35Z</time>
      </trkpt>
      <trkpt lat="40.661533" lon="-4.969600">
        <ele>1788.0</ele>
        <time>2018-09-01T14:11:36Z</time>
      </trkpt>
      <trkpt lat="40.661433" lon="-4.969683">
        <ele>1790.0</ele>
        <time>2018-09-01T14:11:37Z</time>
      </trkpt>
      <trkpt lat="40.661350" lon="-4.969783">
        <ele>1793.0</ele>
        <time>2018-09-01T14:11:38Z</time>
      </trkpt>
      <trkpt lat="40.661283" lon="-4.969883">
        <ele>1796.0</ele>
        <time>2018-09-01T14:11:39Z</time>
      </trkpt>
      <trkpt lat="40.661233" lon="-4.970017">
        <ele>1798.0</ele>
        <time>2018-09-01T14:11:40Z</time>
      </trkpt>
      <trkpt lat="40.661200" lon="-4.970133">
        <ele>1800.0</ele>
        <time>2018-09-01T14:11:41Z</time>
      </trkpt>
      <trkpt lat="40.661200" lon="-4.970267">
        <ele>1802.0</ele>
        <time>2018-09-01T14:11:42Z</time>
      </trkpt>
      <trkpt lat="40.661200" lon="-4.970367">
        <ele>1804.0</ele>
        <time>2018-09-01T14:11:43Z</time>
      </trkpt>
      <trkpt lat="40.661233" lon="-4.970450">
        <ele>1806.0</ele>
        <time>2018-09-01T14:11:44Z</time>
      </trkpt>
      <trkpt lat="40.661283" lon="-4.970517">
        <ele>1807.0</ele>
        <time>2018-09-01T14:11:45Z</time>
      </trkpt>
      <trkpt lat="40.661350" lon="-4.970550">
        <ele>1808.0</ele>
        <time>2018-09-01T14:11:46Z</time>
      </trkpt>
      <trkpt lat="40.661417" lon="-4.970567">
        <ele>1810.0</ele>
        <time>2018-09-01T14:11:47Z</time>
      </trkpt>
      <trkpt lat="40.661483" lon="-4.970550">
        <ele>1812.0</ele>
        <time>2018-09-01T14:11:48Z</time>
      </trkpt>
      <trkpt lat="40.661533" lon="-4.970500">
        <ele>1814.0</ele>
        <time>2018-09-01T14:11:49Z</time>
      </trkpt>
      <trkpt lat="40.661583" lon="-4.970400">
        <ele>1816.0</ele>
        <time>2018-09-01T14:11:50Z</time>
      </trkpt>
      <trkpt lat="40.661600" lon="-4.970300">
        <ele>1817.0</ele>
        <time>2018-09-01T14:11:51Z</time>
      </trkpt>
      <trkpt lat="40.661617" lon="-4.970167">
        <ele>1818.0</ele>
        <time>2018-09-01T14:11:52Z</time>
      </trkpt>
      <trkpt lat="40.661600" lon="-4.970033">
        <ele>1818.0</ele>
        <time>2018-09-01T14:11:53Z</time>
      </trkpt>
      <trkpt lat="40.661550" lon="-4.969900">
        <ele>1819.0</ele>
        <time>2018-09-01T14:11:54Z</time>
      </trkpt>
      <trkpt lat="40.661467" lon="-4.969767">
        <ele>1821.0</ele>
        <time>2018-09-01T14:11:55Z</time>
      </trkpt>
      <trkpt lat="40.661383" lon="-4.969650">
        <ele>1823.0</ele>
        <time>2018-09-01T14:11:56Z</time>
      </trkpt>
      <trkpt lat="40.661283" lon="-4.969567">
        <ele>1828.0</ele>
        <time>2018-09-01T14:11:57Z</time>
      </trkpt>
      <trkpt lat="40.661183" lon="-4.969517">
        <ele>1832.0</ele>
        <time>2018-09-01T14:11:58Z</time>
      </trkpt>
      <trkpt lat="40.661100" lon="-4.969467">
        <ele>1835.0</ele>
        <time>2018-09-01T14:11:59Z</time>
      </trkpt>
      <trkpt lat="40.660983" lon="-4.969433">
        <ele>1837.0</ele>
        <time>2018-09-01T14:12:00Z</time>
      </trkpt>
      <trkpt lat="40.660867" lon="-4.969400">
        <ele>1838.0</ele>
        <time>2018-09-01T14:12:01Z</time>
      </trkpt>
      <trkpt lat="40.660750" lon="-4.969383">
        <ele>1840.0</ele>
        <time>2018-09-01T14:12:02Z</time>
      </trkpt>
      <trkpt lat="40.660617" lon="-4.969400">
        <ele>1843.0</ele>
        <time>2018-09-01T14:12:03Z</time>
      </trkpt>
      <trkpt lat="40.660483" lon="-4.969450">
        <ele>1845.0</ele>
        <time>2018-09-01T14:12:04Z</time>
      </trkpt>
      <trkpt lat="40.660383" lon="-4.969517">
        <ele>1848.0</ele>
        <time>2018-09-01T14:12:05Z</time>
      </trkpt>
      <trkpt lat="40.660283" lon="-4.969617">
        <ele>1851.0</ele>
        <time>2018-09-01T14:12:06Z</time>
      </trkpt>
      <trkpt lat="40.660217" lon="-4.969717">
        <ele>1853.0</ele>
        <time>2018-09-01T14:12:07Z</time>
      </trkpt>
      <trkpt lat="40.660167" lon="-4.969833">
        <ele>1855.0</ele>
        <time>2018-09-01T14:12:08Z</time>
      </trkpt>
      <trkpt lat="40.660133" lon="-4.969950">
        <ele>1856.0</ele>
        <time>2018-09-01T14:12:09Z</time>
      </trkpt>
      <trkpt lat="40.660133" lon="-4.970067">
        <ele>1857.0</ele>
        <time>2018-09-01T14:12:10Z</time>
      </trkpt>
      <trkpt lat="40.660150" lon="-4.970183">
        <ele>1858.0</ele>
        <time>2018-09-01T14:12:11Z</time>
      </trkpt>
      <trkpt lat="40.660200" lon="-4.970283">
        <ele>1858.0</ele>
        <time>2018-09-01T14:12:12Z</time>
      </trkpt>
      <trkpt lat="40.660267" lon="-4.970367">
        <ele>1859.0</ele>
        <time>2018-09-01T14:12:13Z</time>
      </trkpt>
      <trkpt lat="40.660333" lon="-4.970417">
        <ele>1860.0</ele>
        <time>2018-09-01T14:12:14Z</time>
      </trkpt>
      <trkpt lat="40.660417" lon="-4.970433">
        <ele>1862.0</ele>
        <time>2018-09-01T14:12:15Z</time>
      </trkpt>
      <trkpt lat="40.660500" lon="-4.970417">
        <ele>1863.0</ele>
        <time>2018-09-01T14:12:16Z</time>
      </trkpt>
      <trkpt lat="40.660567" lon="-4.970367">
        <ele>1866.0</ele>
        <time>2018-09-01T14:12:17Z</time>
      </trkpt>
      <trkpt lat="40.660633" lon="-4.970300">
        <ele>1871.0</ele>
        <time>2018-09-01T14:12:18Z</time>
      </trkpt>
      <trkpt lat="40.660683" lon="-4.970250">
        <ele>1874.0</ele>
        <time>2018-09-01T14:12:19Z</time>
      </trkpt>
      <trkpt lat="40.660733" lon="-4.970183">
        <ele>1877.0</ele>
        <time>2018-09-01T14:12:20Z</time>
      </trkpt>
      <trkpt lat="40.660783" lon="-4.970100">
        <ele>1879.0</ele>
        <time>2018-09-01T14:12:21Z</time>
      </trkpt>
      <trkpt lat="40.660817" lon="-4.970000">
        <ele>1879.0</ele>
        <time>2018-09-01T14:12:22Z</time>
      </trkpt>
      <trkpt lat="40.660817" lon="-4.969883">
        <ele>1879.0</ele>
        <time>2018-09-01T14:12:23Z</time>
      </trkpt>
      <trkpt lat="40.660800" lon="-4.969733">
        <ele>1879.0</ele>
        <time>2018-09-01T14:12:24Z</time>
      </trkpt>
      <trkpt lat="40.660767" lon="-4.969600">
        <ele>1880.0</ele>
        <time>2018-09-01T14:12:25Z</time>
      </trkpt>
      <trkpt lat="40.660700" lon="-4.969450">
        <ele>1882.0</ele>
        <time>2018-09-01T14:12:26Z</time>
      </trkpt>
      <trkpt lat="40.660633" lon="-4.969350">
        <ele>1885.0</ele>
        <time>2018-09-01T14:12:27Z</time>
      </trkpt>
      <trkpt lat="40.660550" lon="-4.969267">
        <ele>1888.0</ele>
        <time>2018-09-01T14:12:28Z</time>
      </trkpt>
      <trkpt lat="40.660467" lon="-4.969200">
        <ele>1889.0</ele>
        <time>2018-09-01T14:12:29Z</time>
      </trkpt>
      <trkpt lat="40.660367" lon="-4.969150">
        <ele>1888.0</ele>
        <time>2018-09-01T14:12:30Z</time>
      </trkpt>
      <trkpt lat="40.660233" lon="-4.969117">
        <ele>1888.0</ele>
        <time>2018-09-01T14:12:31Z</time>
      </trkpt>
      <trkpt lat="40.660083" lon="-4.969117">
        <ele>1888.0</ele>
        <time>2018-09-01T14:12:32Z</time>
      </trkpt>
      <trkpt lat="40.659950" lon="-4.969183">
        <ele>1890.0</ele>
        <time>2018-09-01T14:12:33Z</time>
      </trkpt>
      <trkpt lat="40.659833" lon="-4.969267">
        <ele>1893.0</ele>
        <time>2018-09-01T14:12:34Z</time>
      </trkpt>
      <trkpt lat="40.659733" lon="-4.969367">
        <ele>1897.0</ele>
        <time>2018-09-01T14:12:35Z</time>
      </trkpt>
      <trkpt lat="40.659667" lon="-4.969483">
        <ele>1900.0</ele>
        <time>2018-09-01T14:12:36Z</time>
      </trkpt>
      <trkpt lat="40.659567" lon="-4.969583">
        <ele>1902.0</ele>
        <time>2018-09-01T14:12:37Z</time>
      </trkpt>
      <trkpt lat="40.659483" lon="-4.969683">
        <ele>1904.0</ele>
        <time>2018-09-01T14:12:38Z</time>
      </trkpt>
      <trkpt lat="40.659400" lon="-4.969767">
        <ele>1906.0</ele>
        <time>2018-09-01T14:12:39Z</time>
      </trkpt>
      <trkpt lat="40.659350" lon="-4.969867">
        <ele>1907.0</ele>
        <time>2018-09-01T14:12:40Z</time>
      </trkpt>
      <trkpt lat="40.659300" lon="-4.969983">
        <ele>1908.0</ele>
        <time>2018-09-01T14:12:41Z</time>
      </trkpt>
      <trkpt lat="40.659283" lon="-4.970117">
        <ele>1907.0</ele>
        <time>2018-09-01T14:12:42Z</time>
      </trkpt>
      <trkpt lat="40.659283" lon="-4.970267">
        <ele>1907.0</ele>
        <time>2018-09-01T14:12:43Z</time>
      </trkpt>
      <trkpt lat="40.659300" lon="-4.970417">
        <ele>1909.0</ele>
        <time>2018-09-01T14:12:44Z</time>
      </trkpt>
      <trkpt lat="40.659283" lon="-4.970550">
        <ele>1911.0</ele>
        <time>2018-09-01T14:12:45Z</time>
      </trkpt>
      <trkpt lat="40.659283" lon="-4.970667">
        <ele>1914.0</ele>
        <time>2018-09-01T14:12:46Z</time>
      </trkpt>
      <trkpt lat="40.659267" lon="-4.970767">
        <ele>1916.0</ele>
        <time>2018-09-01T14:12:47Z</time>
      </trkpt>
      <trkpt lat="40.659267" lon="-4.970867">
        <ele>1917.0</ele>
        <time>2018-09-01T14:12:48Z</time>
      </trkpt>
      <trkpt lat="40.659317" lon="-4.970950">
        <ele>1917.0</ele>
        <time>2018-09-01T14:12:49Z</time>
      </trkpt>
      <trkpt lat="40.659383" lon="-4.971017">
        <ele>1916.0</ele>
        <time>2018-09-01T14:12:50Z</time>
      </trkpt>
      <trkpt lat="40.659467" lon="-4.971033">
        <ele>1916.0</ele>
        <time>2018-09-01T14:12:51Z</time>
      </trkpt>
      <trkpt lat="40.659550" lon="-4.971033">
        <ele>1916.0</ele>
        <time>2018-09-01T14:12:52Z</time>
      </trkpt>
      <trkpt lat="40.659650" lon="-4.971017">
        <ele>1918.0</ele>
        <time>2018-09-01T14:12:53Z</time>
      </trkpt>
      <trkpt lat="40.659717" lon="-4.970983">
        <ele>1921.0</ele>
        <time>2018-09-01T14:12:54Z</time>
      </trkpt>
      <trkpt lat="40.659783" lon="-4.970917">
        <ele>1923.0</ele>
        <time>2018-09-01T14:12:55Z</time>
      </trkpt>
      <trkpt lat="40.659817" lon="-4.970833">
        <ele>1925.0</ele>
        <time>2018-09-01T14:12:56Z</time>
      </trkpt>
      <trkpt lat="40.659850" lon="-4.970717">
        <ele>1926.0</ele>
        <time>2018-09-01T14:12:57Z</time>
      </trkpt>
      <trkpt lat="40.659850" lon="-4.970600">
        <ele>1927.0</ele>
        <time>2018-09-01T14:12:58Z</time>
      </trkpt>
      <trkpt lat="40.659833" lon="-4.970467">
        <ele>1928.0</ele>
        <time>2018-09-01T14:12:59Z</time>
      </trkpt>
      <trkpt lat="40.659783" lon="-4.970333">
        <ele>1928.0</ele>
        <time>2018-09-01T14:13:00Z</time>
      </trkpt>
      <trkpt lat="40.659683" lon="-4.970233">
        <ele>1930.0</ele>
        <time>2018-09-01T14:13:01Z</time>
      </trkpt>
      <trkpt lat="40.659567" lon="-4.970150">
        <ele>1932.0</ele>
        <time>2018-09-01T14:13:02Z</time>
      </trkpt>
      <trkpt lat="40.659450" lon="-4.970100">
        <ele>1935.0</ele>
        <time>2018-09-01T14:13:03Z</time>
      </trkpt>
      <trkpt lat="40.659350" lon="-4.970100">
        <ele>1939.0</ele>
        <time>2018-09-01T14:13:04Z</time>
      </trkpt>
      <trkpt lat="40.659250" lon="-4.970117">
        <ele>1943.0</ele>
        <time>2018-09-01T14:13:05Z</time>
      </trkpt>
      <trkpt lat="40.659150" lon="-4.970133">
        <ele>1945.0</ele>
        <time>2018-09-01T14:13:06Z</time>
      </trkpt>
      <trkpt lat="40.659067" lon="-4.970183">
        <ele>1946.0</ele>
        <time>2018-09-01T14:13:07Z</time>
      </trkpt>
      <trkpt lat="40.658983" lon="-4.970250">
        <ele>1946.0</ele>
        <time>2018-09-01T14:13:08Z</time>
      </trkpt>
      <trkpt lat="40.658917" lon="-4.970367">
        <ele>1946.0</ele>
        <time>2018-09-01T14:13:09Z</time>
      </trkpt>
      <trkpt lat="40.658867" lon="-4.970517">
        <ele>1947.0</ele>
        <time>2018-09-01T14:13:10Z</time>
      </trkpt>
      <trkpt lat="40.658850" lon="-4.970667">
        <ele>1948.0</ele>
        <time>2018-09-01T14:13:11Z</time>
      </trkpt>
      <trkpt lat="40.658867" lon="-4.970817">
        <ele>1951.0</ele>
        <time>2018-09-01T14:13:12Z</time>
      </trkpt>
      <trkpt lat="40.658900" lon="-4.970933">
        <ele>1955.0</ele>
        <time>2018-09-01T14:13:13Z</time>
      </trkpt>
      <trkpt lat="40.658950" lon="-4.971033">
        <ele>1957.0</ele>
        <time>2018-09-01T14:13:14Z</time>
      </trkpt>
      <trkpt lat="40.659000" lon="-4.971117">
        <ele>1959.0</ele>
        <time>2018-09-01T14:13:15Z</time>
      </trkpt>
      <trkpt lat="40.659083" lon="-4.971183">
        <ele>1960.0</ele>
        <time>2018-09-01T14:13:16Z</time>
      </trkpt>
      <trkpt lat="40.659167" lon="-4.971233">
        <ele>1961.0</ele>
        <time>2018-09-01T14:13:17Z</time>
      </trkpt>
      <trkpt lat="40.659250" lon="-4.971233">
        <ele>1962.0</ele>
        <time>2018-09-01T14:13:18Z</time>
      </trkpt>
      <trkpt lat="40.659350" lon="-4.971217">
        <ele>1964.0</ele>
        <time>2018-09-01T14:13:19Z</time>
      </trkpt>
      <trkpt lat="40.659417" lon="-4.971150">
        <ele>1966.0</ele>
        <time>2018-09-01T14:13:20Z</time>
      </trkpt>
      <trkpt lat="40.659467" lon="-4.971083">
        <ele>1969.0</ele>
        <time>2018-09-01T14:13:21Z</time>
      </trkpt>
      <trkpt lat="40.659517" lon="-4.971000">
        <ele>1970.0</ele>
        <time>2018-09-01T14:13:22Z</time>
      </trkpt>
      <trkpt lat="40.659533" lon="-4.970900">
        <ele>1972.0</ele>
        <time>2018-09-01T14:13:23Z</time>
      </trkpt>
      <trkpt lat="40.659550" lon="-4.970800">
        <ele>1972.0</ele>
        <time>2018-09-01T14:13:24Z</time>
      </trkpt>
      <trkpt lat="40.659550" lon="-4.970667">
        <ele>1972.0</ele>
        <time>2018-09-01T14:13:25Z</time>
      </trkpt>
      <trkpt lat="40.659533" lon="-4.970533">
        <ele>1972.0</ele>
        <time>2018-09-01T14:13:26Z</time>
      </trkpt>
      <trkpt lat="40.659483" lon="-4.970417">
        <ele>1973.0</ele>
        <time>2018-09-01T14:13:27Z</time>
      </trkpt>
      <trkpt lat="40.659417" lon="-4.970317">
        <ele>1975.0</ele>
        <time>2018-09-01T14:13:28Z</time>
      </trkpt>
      <trkpt lat="40.659333" lon="-4.970233">
        <ele>1976.0</ele>
        <time>2018-09-01T14:13:29Z</time>
      </trkpt>
      <trkpt lat="40.659217" lon="-4.970183">
        <ele>1975.0</ele>
        <time>2018-09-01T14:13:30Z</time>
      </trkpt>
      <trkpt lat="40.659100" lon="-4.970183">
        <ele>1975.0</ele>
        <time>2018-09-01T14:13:31Z</time>
      </trkpt>
      <trkpt lat="40.658983" lon="-4.970233">
        <ele>1975.0</ele>
        <time>2018-09-01T14:13:32Z</time>
      </trkpt>
      <trkpt lat="40.658867" lon="-4.970317">
        <ele>1975.0</ele>
        <time>2018-09-01T14:13:33Z</time>
      </trkpt>
      <trkpt lat="40.658767" lon="-4.970433">
        <ele>1977.0</ele>
        <time>2018-09-01T14:13:34Z</time>
      </trkpt>
      <trkpt lat="40.658683" lon="-4.970550">
        <ele>1980.0</ele>
        <time>2018-09-01T14:13:35Z</time>
      </trkpt>
      <trkpt lat="40.658617" lon="-4.970667">
        <ele>1984.0</ele>
        <time>2018-09-01T14:13:36Z</time>
      </trkpt>
      <trkpt lat="40.658550" lon="-4.970767">
        <ele>1987.0</ele>
        <time>2018-09-01T14:13:37Z</time>
      </trkpt>
      <trkpt lat="40.658500" lon="-4.970867">
        <ele>1990.0</ele>
        <time>2018-09-01T14:13:38Z</time>
      </trkpt>
      <trkpt lat="40.658450" lon="-4.970967">
        <ele>1992.0</ele>
        <time>2018-09-01T14:13:39Z</time>
      </trkpt>
      <trkpt lat="40.658400" lon="-4.971083">
        <ele>1993.0</ele>
        <time>2018-09-01T14:13:40Z</time>
      </trkpt>
      <trkpt lat="40.658350" lon="-4.971200">
        <ele>1995.0</ele>
        <time>2018-09-01T14:13:41Z</time>
      </trkpt>
      <trkpt lat="40.658283" lon="-4.971317">
        <ele>1996.0</ele>
        <time>2018-09-01T14:13:42Z</time>
      </trkpt>
      <trkpt lat="40.658250" lon="-4.971433">
        <ele>1999.0</ele>
        <time>2018-09-01T14:13:43Z</time>
      </trkpt>
      <trkpt lat="40.658217" lon="-4.971567">
        <ele>2000.0</ele>
        <time>2018-09-01T14:13:44Z</time>
      </trkpt>
      <trkpt lat="40.658233" lon="-4.971700">
        <ele>2002.0</ele>
        <time>2018-09-01T14:13:45Z</time>
      </trkpt>
      <trkpt lat="40.658250" lon="-4.971817">
        <ele>2004.0</ele>
        <time>2018-09-01T14:13:46Z</time>
      </trkpt>
      <trkpt lat="40.658300" lon="-4.971900">
        <ele>2006.0</ele>
        <time>2018-09-01T14:13:47Z</time>
      </trkpt>
      <trkpt lat="40.658367" lon="-4.971967">
        <ele>2008.0</ele>
        <time>2018-09-01T14:13:48Z</time>
      </trkpt>
      <trkpt lat="40.658433" lon="-4.972017">
        <ele>2010.0</ele>
        <time>2018-09-01T14:13:49Z</time>
      </trkpt>
      <trkpt lat="40.658517" lon="-4.972033">
        <ele>2011.0</ele>
        <time>2018-09-01T14:13:50Z</time>
      </trkpt>
      <trkpt lat="40.658583" lon="-4.972050">
        <ele>2013.0</ele>
        <time>2018-09-01T14:13:51Z</time>
      </trkpt>
      <trkpt lat="40.658650" lon="-4.972033">
        <ele>2015.0</ele>
        <time>2018-09-01T14:13:52Z</time>
      </trkpt>
      <trkpt lat="40.658683" lon="-4.972000">
        <ele>2016.0</ele>
        <time>2018-09-01T14:13:53Z</time>
      </trkpt>
      <trkpt lat="40.658717" lon="-4.971933">
        <ele>2016.0</ele>
        <time>2018-09-01T14:13:54Z</time>
      </trkpt>
      <trkpt lat="40.658733" lon="-4.971867">
        <ele>2016.0</ele>
        <time>2018-09-01T14:13:55Z</time>
      </trkpt>
      <trkpt lat="40.658767" lon="-4.971783">
        <ele>2015.0</ele>
        <time>2018-09-01T14:13:56Z</time>
      </trkpt>
      <trkpt lat="40.658783" lon="-4.971683">
        <ele>2014.0</ele>
        <time>2018-09-01T14:13:57Z</time>
      </trkpt>
      <trkpt lat="40.658783" lon="-4.971567">
        <ele>2014.0</ele>
        <time>2018-09-01T14:13:58Z</time>
      </trkpt>
      <trkpt lat="40.658733" lon="-4.971433">
        <ele>2013.0</ele>
        <time>2018-09-01T14:13:59Z</time>
      </trkpt>
      <trkpt lat="40.658650" lon="-4.971333">
        <ele>2013.0</ele>
        <time>2018-09-01T14:14:00Z</time>
      </trkpt>
      <trkpt lat="40.658550" lon="-4.971267">
        <ele>2014.0</ele>
        <time>2018-09-01T14:14:01Z</time>
      </trkpt>
      <trkpt lat="40.658450" lon="-4.971233">
        <ele>2014.0</ele>
        <time>2018-09-01T14:14:02Z</time>
      </trkpt>
      <trkpt lat="40.658333" lon="-4.971233">
        <ele>2015.0</ele>
        <time>2018-09-01T14:14:03Z</time>
      </trkpt>
      <trkpt lat="40.658233" lon="-4.971283">
        <ele>2015.0</ele>
        <time>2018-09-01T14:14:04Z</time>
      </trkpt>
      <trkpt lat="40.658133" lon="-4.971367">
        <ele>2016.0</ele>
        <time>2018-09-01T14:14:05Z</time>
      </trkpt>
      <trkpt lat="40.658050" lon="-4.971467">
        <ele>2017.0</ele>
        <time>2018-09-01T14:14:06Z</time>
      </trkpt>
      <trkpt lat="40.657967" lon="-4.971567">
        <ele>2018.0</ele>
        <time>2018-09-01T14:14:07Z</time>
      </trkpt>
      <trkpt lat="40.657900" lon="-4.971667">
        <ele>2020.0</ele>
        <time>2018-09-01T14:14:08Z</time>
      </trkpt>
      <trkpt lat="40.657833" lon="-4.971783">
        <ele>2022.0</ele>
        <time>2018-09-01T14:14:09Z</time>
      </trkpt>
      <trkpt lat="40.657783" lon="-4.971900">
        <ele>2024.0</ele>
        <time>2018-09-01T14:14:10Z</time>
      </trkpt>
      <trkpt lat="40.657733" lon="-4.972017">
        <ele>2026.0</ele>
        <time>2018-09-01T14:14:11Z</time>
      </trkpt>
      <trkpt lat="40.657683" lon="-4.972117">
        <ele>2029.0</ele>
        <time>2018-09-01T14:14:12Z</time>
      </trkpt>
      <trkpt lat="40.657617" lon="-4.972200">
        <ele>2031.0</ele>
        <time>2018-09-01T14:14:13Z</time>
      </trkpt>
      <trkpt lat="40.657550" lon="-4.972283">
        <ele>2032.0</ele>
        <time>2018-09-01T14:14:14Z</time>
      </trkpt>
      <trkpt lat="40.657467" lon="-4.972383">
        <ele>2032.0</ele>
        <time>2018-09-01T14:14:15Z</time>
      </trkpt>
      <trkpt lat="40.657400" lon="-4.972500">
        <ele>2032.0</ele>
        <time>2018-09-01T14:14:16Z</time>
      </trkpt>
      <trkpt lat="40.657367" lon="-4.972633">
        <ele>2033.0</ele>
        <time>2018-09-01T14:14:17Z</time>
      </trkpt>
      <trkpt lat="40.657333" lon="-4.972783">
        <ele>2034.0</ele>
        <time>2018-09-01T14:14:18Z</time>
      </trkpt>
      <trkpt lat="40.657300" lon="-4.972950">
        <ele>2036.0</ele>
        <time>2018-09-01T14:14:19Z</time>
      </trkpt>
      <trkpt lat="40.657283" lon="-4.973083">
        <ele>2038.0</ele>
        <time>2018-09-01T14:14:20Z</time>
      </trkpt>
      <trkpt lat="40.657233" lon="-4.973217">
        <ele>2039.0</ele>
        <time>2018-09-01T14:14:21Z</time>
      </trkpt>
      <trkpt lat="40.657217" lon="-4.973333">
        <ele>2040.0</ele>
        <time>2018-09-01T14:14:22Z</time>
      </trkpt>
      <trkpt lat="40.657200" lon="-4.973450">
        <ele>2040.0</ele>
        <time>2018-09-01T14:14:23Z</time>
      </trkpt>
      <trkpt lat="40.657217" lon="-4.973550">
        <ele>2039.0</ele>
        <time>2018-09-01T14:14:24Z</time>
      </trkpt>
      <trkpt lat="40.657233" lon="-4.973633">
        <ele>2038.0</ele>
        <time>2018-09-01T14:14:25Z</time>
      </trkpt>
      <trkpt lat="40.657267" lon="-4.973717">
        <ele>2038.0</ele>
        <time>2018-09-01T14:14:26Z</time>
      </trkpt>
      <trkpt lat="40.657317" lon="-4.973767">
        <ele>2038.0</ele>
        <time>2018-09-01T14:14:27Z</time>
      </trkpt>
      <trkpt lat="40.657367" lon="-4.973783">
        <ele>2038.0</ele>
        <time>2018-09-01T14:14:28Z</time>
      </trkpt>
      <trkpt lat="40.657433" lon="-4.973750">
        <ele>2037.0</ele>
        <time>2018-09-01T14:14:29Z</time>
      </trkpt>
      <trkpt lat="40.657483" lon="-4.973683">
        <ele>2036.0</ele>
        <time>2018-09-01T14:14:30Z</time>
      </trkpt>
      <trkpt lat="40.657517" lon="-4.973600">
        <ele>2035.0</ele>
        <time>2018-09-01T14:14:31Z</time>
      </trkpt>
      <trkpt lat="40.657533" lon="-4.973517">
        <ele>2036.0</ele>
        <time>2018-09-01T14:14:32Z</time>
      </trkpt>
      <trkpt lat="40.657517" lon="-4.973433">
        <ele>2037.0</ele>
        <time>2018-09-01T14:14:33Z</time>
      </trkpt>
      <trkpt lat="40.657483" lon="-4.973333">
        <ele>2036.0</ele>
        <time>2018-09-01T14:14:34Z</time>
      </trkpt>
      <trkpt lat="40.657450" lon="-4.973250">
        <ele>2035.0</ele>
        <time>2018-09-01T14:14:35Z</time>
      </trkpt>
      <trkpt lat="40.657400" lon="-4.973150">
        <ele>2033.0</ele>
        <time>2018-09-01T14:14:36Z</time>
      </trkpt>
      <trkpt lat="40.657350" lon="-4.973050">
        <ele>2032.0</ele>
        <time>2018-09-01T14:14:37Z</time>
      </trkpt>
      <trkpt lat="40.657283" lon="-4.972950">
        <ele>2031.0</ele>
        <time>2018-09-01T14:14:38Z</time>
      </trkpt>
      <trkpt lat="40.657183" lon="-4.972867">
        <ele>2030.0</ele>
        <time>2018-09-01T14:14:39Z</time>
      </trkpt>
      <trkpt lat="40.657067" lon="-4.972783">
        <ele>2029.0</ele>
        <time>2018-09-01T14:14:40Z</time>
      </trkpt>
      <trkpt lat="40.656950" lon="-4.972733">
        <ele>2029.0</ele>
        <time>2018-09-01T14:14:41Z</time>
      </trkpt>
      <trkpt lat="40.656817" lon="-4.972700">
        <ele>2029.0</ele>
        <time>2018-09-01T14:14:42Z</time>
      </trkpt>
      <trkpt lat="40.656683" lon="-4.972683">
        <ele>2031.0</ele>
        <time>2018-09-01T14:14:43Z</time>
      </trkpt>
      <trkpt lat="40.656567" lon="-4.972667">
        <ele>2033.0</ele>
        <time>2018-09-01T14:14:44Z</time>
      </trkpt>
      <trkpt lat="40.656450" lon="-4.972650">
        <ele>2036.0</ele>
        <time>2018-09-01T14:14:45Z</time>
      </trkpt>
      <trkpt lat="40.656367" lon="-4.972650">
        <ele>2039.0</ele>
        <time>2018-09-01T14:14:46Z</time>
      </trkpt>
      <trkpt lat="40.656267" lon="-4.972633">
        <ele>2041.0</ele>
        <time>2018-09-01T14:14:47Z</time>
      </trkpt>
      <trkpt lat="40.656183" lon="-4.972633">
        <ele>2040.0</ele>
        <time>2018-09-01T14:14:48Z</time>
      </trkpt>
      <trkpt lat="40.656100" lon="-4.972667">
        <ele>2039.0</ele>
        <time>2018-09-01T14:14:49Z</time>
      </trkpt>
      <trkpt lat="40.656000" lon="-4.972750">
        <ele>2035.0</ele>
        <time>2018-09-01T14:14:50Z</time>
      </trkpt>
      <trkpt lat="40.655917" lon="-4.972867">
        <ele>2032.0</ele>
        <time>2018-09-01T14:14:51Z</time>
      </trkpt>
      <trkpt lat="40.655850" lon="-4.973033">
        <ele>2030.0</ele>
        <time>2018-09-01T14:14:52Z</time>
      </trkpt>
      <trkpt lat="40.655800" lon="-4.973200">
        <ele>2030.0</ele>
        <time>2018-09-01T14:14:53Z</time>
      </trkpt>
      <trkpt lat="40.655783" lon="-4.973350">
        <ele>2032.0</ele>
        <time>2018-09-01T14:14:54Z</time>
      </trkpt>
      <trkpt lat="40.655750" lon="-4.973517">
        <ele>2034.0</ele>
        <time>2018-09-01T14:14:55Z</time>
      </trkpt>
      <trkpt lat="40.655733" lon="-4.973667">
        <ele>2036.0</ele>
        <time>2018-09-01T14:14:56Z</time>
      </trkpt>
      <trkpt lat="40.655717" lon="-4.973800">
        <ele>2038.0</ele>
        <time>2018-09-01T14:14:57Z</time>
      </trkpt>
      <trkpt lat="40.655667" lon="-4.973950">
        <ele>2039.0</ele>
        <time>2018-09-01T14:14:58Z</time>
      </trkpt>
      <trkpt lat="40.655617" lon="-4.974083">
        <ele>2040.0</ele>
        <time>2018-09-01T14:14:59Z</time>
      </trkpt>
      <trkpt lat="40.655567" lon="-4.974217">
        <ele>2042.0</ele>
        <time>2018-09-01T14:15:00Z</time>
      </trkpt>
      <trkpt lat="40.655500" lon="-4.974350">
        <ele>2044.0</ele>
        <time>2018-09-01T14:15:01Z</time>
      </trkpt>
      <trkpt lat="40.655450" lon="-4.974467">
        <ele>2046.0</ele>
        <time>2018-09-01T14:15:02Z</time>
      </trkpt>
      <trkpt lat="40.655400" lon="-4.974583">
        <ele>2048.0</ele>
        <time>2018-09-01T14:15:03Z</time>
      </trkpt>
      <trkpt lat="40.655333" lon="-4.974683">
        <ele>2050.0</ele>
        <time>2018-09-01T14:15:04Z</time>
      </trkpt>
      <trkpt lat="40.655250" lon="-4.974783">
        <ele>2052.0</ele>
        <time>2018-09-01T14:15:05Z</time>
      </trkpt>
      <trkpt lat="40.655150" lon="-4.974867">
        <ele>2054.0</ele>
        <time>2018-09-01T14:15:06Z</time>
      </trkpt>
      <trkpt lat="40.655033" lon="-4.974933">
        <ele>2056.0</ele>
        <time>2018-09-01T14:15:07Z</time>
      </trkpt>
      <trkpt lat="40.654933" lon="-4.975017">
        <ele>2058.0</ele>
        <time>2018-09-01T14:15:08Z</time>
      </trkpt>
      <trkpt lat="40.654833" lon="-4.975100">
        <ele>2060.0</ele>
        <time>2018-09-01T14:15:09Z</time>
      </trkpt>
      <trkpt lat="40.654767" lon="-4.975200">
        <ele>2061.0</ele>
        <time>2018-09-01T14:15:10Z</time>
      </trkpt>
      <trkpt lat="40.654717" lon="-4.975317">
        <ele>2062.0</ele>
        <time>2018-09-01T14:15:11Z</time>
      </trkpt>
      <trkpt lat="40.654683" lon="-4.975433">
        <ele>2062.0</ele>
        <time>2018-09-01T14:15:12Z</time>
      </trkpt>
      <trkpt lat="40.654667" lon="-4.975550">
        <ele>2062.0</ele>
        <time>2018-09-01T14:15:13Z</time>
      </trkpt>
      <trkpt lat="40.654667" lon="-4.975667">
        <ele>2063.0</ele>
        <time>2018-09-01T14:15:14Z</time>
      </trkpt>
      <trkpt lat="40.654700" lon="-4.975767">
        <ele>2064.0</ele>
        <time>2018-09-01T14:15:15Z</time>
      </trkpt>
      <trkpt lat="40.654733" lon="-4.975850">
        <ele>2065.0</ele>
        <time>2018-09-01T14:15:16Z</time>
      </trkpt>
      <trkpt lat="40.654783" lon="-4.975917">
        <ele>2066.0</ele>
        <time>2018-09-01T14:15:17Z</time>
      </trkpt>
      <trkpt lat="40.654833" lon="-4.975967">
        <ele>2068.0</ele>
        <time>2018-09-01T14:15:18Z</time>
      </trkpt>
      <trkpt lat="40.654900" lon="-4.976000">
        <ele>2070.0</ele>
        <time>2018-09-01T14:15:19Z</time>
      </trkpt>
      <trkpt lat="40.654967" lon="-4.976000">
        <ele>2072.0</ele>
        <time>2018-09-01T14:15:20Z</time>
      </trkpt>
      <trkpt lat="40.655050" lon="-4.975983">
        <ele>2075.0</ele>
        <time>2018-09-01T14:15:21Z</time>
      </trkpt>
      <trkpt lat="40.655100" lon="-4.975950">
        <ele>2079.0</ele>
        <time>2018-09-01T14:15:22Z</time>
      </trkpt>
      <trkpt lat="40.655150" lon="-4.975900">
        <ele>2082.0</ele>
        <time>2018-09-01T14:15:23Z</time>
      </trkpt>
      <trkpt lat="40.655183" lon="-4.975833">
        <ele>2085.0</ele>
        <time>2018-09-01T14:15:24Z</time>
      </trkpt>
      <trkpt lat="40.655217" lon="-4.975733">
        <ele>2086.0</ele>
        <time>2018-09-01T14:15:25Z</time>
      </trkpt>
      <trkpt lat="40.655217" lon="-4.975617">
        <ele>2086.0</ele>
        <time>2018-09-01T14:15:26Z</time>
      </trkpt>
      <trkpt lat="40.655200" lon="-4.975483">
        <ele>2087.0</ele>
        <time>2018-09-01T14:15:27Z</time>
      </trkpt>
      <trkpt lat="40.655150" lon="-4.975350">
        <ele>2087.0</ele>
        <time>2018-09-01T14:15:28Z</time>
      </trkpt>
      <trkpt lat="40.655067" lon="-4.975233">
        <ele>2087.0</ele>
        <time>2018-09-01T14:15:29Z</time>
      </trkpt>
      <trkpt lat="40.654967" lon="-4.975133">
        <ele>2087.0</ele>
        <time>2018-09-01T14:15:30Z</time>
      </trkpt>
      <trkpt lat="40.654850" lon="-4.975067">
        <ele>2088.0</ele>
        <time>2018-09-01T14:15:31Z</time>
      </trkpt>
      <trkpt lat="40.654733" lon="-4.975033">
        <ele>2089.0</ele>
        <time>2018-09-01T14:15:32Z</time>
      </trkpt>
      <trkpt lat="40.654617" lon="-4.975033">
        <ele>2089.0</ele>
        <time>2018-09-01T14:15:33Z</time>
      </trkpt>
      <trkpt lat="40.654500" lon="-4.975067">
        <ele>2088.0</ele>
        <time>2018-09-01T14:15:34Z</time>
      </trkpt>
      <trkpt lat="40.654367" lon="-4.975100">
        <ele>2087.0</ele>
        <time>2018-09-01T14:15:35Z</time>
      </trkpt>
      <trkpt lat="40.654250" lon="-4.975167">
        <ele>2085.0</ele>
        <time>2018-09-01T14:15:36Z</time>
      </trkpt>
      <trkpt lat="40.654133" lon="-4.975283">
        <ele>2084.0</ele>
        <time>2018-09-01T14:15:37Z</time>
      </trkpt>
      <trkpt lat="40.654067" lon="-4.975417">
        <ele>2084.0</ele>
        <time>2018-09-01T14:15:38Z</time>
      </trkpt>
      <trkpt lat="40.654050" lon="-4.975567">
        <ele>2085.0</ele>
        <time>2018-09-01T14:15:39Z</time>
      </trkpt>
      <trkpt lat="40.654050" lon="-4.975700">
        <ele>2086.0</ele>
        <time>2018-09-01T14:15:40Z</time>
      </trkpt>
      <trkpt lat="40.654067" lon="-4.975800">
        <ele>2088.0</ele>
        <time>2018-09-01T14:15:41Z</time>
      </trkpt>
      <trkpt lat="40.654083" lon="-4.975900">
        <ele>2090.0</ele>
        <time>2018-09-01T14:15:42Z</time>
      </trkpt>
      <trkpt lat="40.654117" lon="-4.976000">
        <ele>2092.0</ele>
        <time>2018-09-01T14:15:43Z</time>
      </trkpt>
      <trkpt lat="40.654133" lon="-4.976117">
        <ele>2094.0</ele>
        <time>2018-09-01T14:15:44Z</time>
      </trkpt>
      <trkpt lat="40.654150" lon="-4.976250">
        <ele>2096.0</ele>
        <time>2018-09-01T14:15:45Z</time>
      </trkpt>
      <trkpt lat="40.654167" lon="-4.976367">
        <ele>2098.0</ele>
        <time>2018-09-01T14:15:46Z</time>
      </trkpt>
      <trkpt lat="40.654167" lon="-4.976500">
        <ele>2100.0</ele>
        <time>2018-09-01T14:15:47Z</time>
      </trkpt>
      <trkpt lat="40.654150" lon="-4.976633">
        <ele>2103.0</ele>
        <time>2018-09-01T14:15:48Z</time>
      </trkpt>
      <trkpt lat="40.654150" lon="-4.976767">
        <ele>2104.0</ele>
        <time>2018-09-01T14:15:49Z</time>
      </trkpt>
      <trkpt lat="40.654150" lon="-4.976917">
        <ele>2106.0</ele>
        <time>2018-09-01T14:15:50Z</time>
      </trkpt>
      <trkpt lat="40.654150" lon="-4.977033">
        <ele>2108.0</ele>
        <time>2018-09-01T14:15:51Z</time>
      </trkpt>
      <trkpt lat="40.654183" lon="-4.977150">
        <ele>2109.0</ele>
        <time>2018-09-01T14:15:52Z</time>
      </trkpt>
      <trkpt lat="40.654233" lon="-4.977250">
        <ele>2110.0</ele>
        <time>2018-09-01T14:15:53Z</time>
      </trkpt>
      <trkpt lat="40.654300" lon="-4.977317">
        <ele>2110.0</ele>
        <time>2018-09-01T14:15:54Z</time>
      </trkpt>
      <trkpt lat="40.654367" lon="-4.977367">
        <ele>2109.0</ele>
        <time>2018-09-01T14:15:55Z</time>
      </trkpt>
      <trkpt lat="40.654433" lon="-4.977383">
        <ele>2108.0</ele>
        <time>2018-09-01T14:15:56Z</time>
      </trkpt>
      <trkpt lat="40.654517" lon="-4.977383">
        <ele>2107.0</ele>
        <time>2018-09-01T14:15:57Z</time>
      </trkpt>
      <trkpt lat="40.654567" lon="-4.977350">
        <ele>2104.0</ele>
        <time>2018-09-01T14:15:58Z</time>
      </trkpt>
      <trkpt lat="40.654633" lon="-4.977300">
        <ele>2101.0</ele>
        <time>2018-09-01T14:15:59Z</time>
      </trkpt>
      <trkpt lat="40.654667" lon="-4.977200">
        <ele>2097.0</ele>
        <time>2018-09-01T14:16:00Z</time>
      </trkpt>
      <trkpt lat="40.654700" lon="-4.977083">
        <ele>2093.0</ele>
        <time>2018-09-01T14:16:01Z</time>
      </trkpt>
      <trkpt lat="40.654683" lon="-4.976933">
        <ele>2089.0</ele>
        <time>2018-09-01T14:16:02Z</time>
      </trkpt>
      <trkpt lat="40.654633" lon="-4.976800">
        <ele>2088.0</ele>
        <time>2018-09-01T14:16:03Z</time>
      </trkpt>
      <trkpt lat="40.654550" lon="-4.976683">
        <ele>2086.0</ele>
        <time>2018-09-01T14:16:04Z</time>
      </trkpt>
      <trkpt lat="40.654450" lon="-4.976617">
        <ele>2085.0</ele>
        <time>2018-09-01T14:16:05Z</time>
      </trkpt>
      <trkpt lat="40.654317" lon="-4.976583">
        <ele>2083.0</ele>
        <time>2018-09-01T14:16:06Z</time>
      </trkpt>
      <trkpt lat="40.654183" lon="-4.976583">
        <ele>2082.0</ele>
        <time>2018-09-01T14:16:07Z</time>
      </trkpt>
      <trkpt lat="40.654050" lon="-4.976600">
        <ele>2081.0</ele>
        <time>2018-09-01T14:16:08Z</time>
      </trkpt>
      <trkpt lat="40.653933" lon="-4.976633">
        <ele>2081.0</ele>
        <time>2018-09-01T14:16:09Z</time>
      </trkpt>
      <trkpt lat="40.653817" lon="-4.976667">
        <ele>2081.0</ele>
        <time>2018-09-01T14:16:10Z</time>
      </trkpt>
      <trkpt lat="40.653717" lon="-4.976750">
        <ele>2080.0</ele>
        <time>2018-09-01T14:16:11Z</time>
      </trkpt>
      <trkpt lat="40.653633" lon="-4.976850">
        <ele>2080.0</ele>
        <time>2018-09-01T14:16:12Z</time>
      </trkpt>
      <trkpt lat="40.653533" lon="-4.976983">
        <ele>2080.0</ele>
        <time>2018-09-01T14:16:13Z</time>
      </trkpt>
      <trkpt lat="40.653467" lon="-4.977117">
        <ele>2081.0</ele>
        <time>2018-09-01T14:16:14Z</time>
      </trkpt>
      <trkpt lat="40.653383" lon="-4.977250">
        <ele>2083.0</ele>
        <time>2018-09-01T14:16:15Z</time>
      </trkpt>
      <trkpt lat="40.653317" lon="-4.977350">
        <ele>2086.0</ele>
        <time>2018-09-01T14:16:16Z</time>
      </trkpt>
      <trkpt lat="40.653233" lon="-4.977467">
        <ele>2087.0</ele>
        <time>2018-09-01T14:16:17Z</time>
      </trkpt>
      <trkpt lat="40.653167" lon="-4.977567">
        <ele>2088.0</ele>
        <time>2018-09-01T14:16:18Z</time>
      </trkpt>
      <trkpt lat="40.653083" lon="-4.977667">
        <ele>2087.0</ele>
        <time>2018-09-01T14:16:19Z</time>
      </trkpt>
      <trkpt lat="40.653017" lon="-4.977783">
        <ele>2087.0</ele>
        <time>2018-09-01T14:16:20Z</time>
      </trkpt>
      <trkpt lat="40.652967" lon="-4.977900">
        <ele>2086.0</ele>
        <time>2018-09-01T14:16:21Z</time>
      </trkpt>
      <trkpt lat="40.652917" lon="-4.978017">
        <ele>2086.0</ele>
        <time>2018-09-01T14:16:22Z</time>
      </trkpt>
      <trkpt lat="40.652883" lon="-4.978117">
        <ele>2086.0</ele>
        <time>2018-09-01T14:16:23Z</time>
      </trkpt>
      <trkpt lat="40.652867" lon="-4.978233">
        <ele>2085.0</ele>
        <time>2018-09-01T14:16:24Z</time>
      </trkpt>
      <trkpt lat="40.652850" lon="-4.978350">
        <ele>2083.0</ele>
        <time>2018-09-01T14:16:25Z</time>
      </trkpt>
      <trkpt lat="40.652833" lon="-4.978467">
        <ele>2081.0</ele>
        <time>2018-09-01T14:16:26Z</time>
      </trkpt>
      <trkpt lat="40.652783" lon="-4.978583">
        <ele>2078.0</ele>
        <time>2018-09-01T14:16:27Z</time>
      </trkpt>
      <trkpt lat="40.652717" lon="-4.978717">
        <ele>2073.0</ele>
        <time>2018-09-01T14:16:28Z</time>
      </trkpt>
      <trkpt lat="40.652617" lon="-4.978817">
        <ele>2066.0</ele>
        <time>2018-09-01T14:16:29Z</time>
      </trkpt>
      <trkpt lat="40.652467" lon="-4.978917">
        <ele>2060.0</ele>
        <time>2018-09-01T14:16:30Z</time>
      </trkpt>
      <trkpt lat="40.652333" lon="-4.978967">
        <ele>2056.0</ele>
        <time>2018-09-01T14:16:31Z</time>
      </trkpt>
      <trkpt lat="40.652200" lon="-4.979000">
        <ele>2054.0</ele>
        <time>2018-09-01T14:16:32Z</time>
      </trkpt>
      <trkpt lat="40.652067" lon="-4.978983">
        <ele>2050.0</ele>
        <time>2018-09-01T14:16:33Z</time>
      </trkpt>
      <trkpt lat="40.651950" lon="-4.978967">
        <ele>2046.0</ele>
        <time>2018-09-01T14:16:34Z</time>
      </trkpt>
      <trkpt lat="40.651817" lon="-4.978900">
        <ele>2042.0</ele>
        <time>2018-09-01T14:16:35Z</time>
      </trkpt>
      <trkpt lat="40.651683" lon="-4.978833">
        <ele>2038.0</ele>
        <time>2018-09-01T14:16:36Z</time>
      </trkpt>
      <trkpt lat="40.651550" lon="-4.978717">
        <ele>2033.0</ele>
        <time>2018-09-01T14:16:37Z</time>
      </trkpt>
      <trkpt lat="40.651433" lon="-4.978583">
        <ele>2031.0</ele>
        <time>2018-09-01T14:16:38Z</time>
      </trkpt>
      <trkpt lat="40.651317" lon="-4.978450">
        <ele>2032.0</ele>
        <time>2018-09-01T14:16:39Z</time>
      </trkpt>
      <trkpt lat="40.651217" lon="-4.978333">
        <ele>2035.0</ele>
        <time>2018-09-01T14:16:40Z</time>
      </trkpt>
      <trkpt lat="40.651117" lon="-4.978233">
        <ele>2039.0</ele>
        <time>2018-09-01T14:16:41Z</time>
      </trkpt>
      <trkpt lat="40.651033" lon="-4.978150">
        <ele>2042.0</ele>
        <time>2018-09-01T14:16:42Z</time>
      </trkpt>
      <trkpt lat="40.650933" lon="-4.978067">
        <ele>2045.0</ele>
        <time>2018-09-01T14:16:43Z</time>
      </trkpt>
      <trkpt lat="40.650833" lon="-4.978000">
        <ele>2046.0</ele>
        <time>2018-09-01T14:16:44Z</time>
      </trkpt>
      <trkpt lat="40.650750" lon="-4.977917">
        <ele>2049.0</ele>
        <time>2018-09-01T14:16:45Z</time>
      </trkpt>
      <trkpt lat="40.650700" lon="-4.977850">
        <ele>2051.0</ele>
        <time>2018-09-01T14:16:46Z</time>
      </trkpt>
      <trkpt lat="40.650667" lon="-4.977767">
        <ele>2053.0</ele>
        <time>2018-09-01T14:16:47Z</time>
      </trkpt>
      <trkpt lat="40.650650" lon="-4.977700">
        <ele>2055.0</ele>
        <time>2018-09-01T14:16:48Z</time>
      </trkpt>
      <trkpt lat="40.650667" lon="-4.977633">
        <ele>2057.0</ele>
        <time>2018-09-01T14:16:49Z</time>
      </trkpt>
      <trkpt lat="40.650700" lon="-4.977583">
        <ele>2058.0</ele>
        <time>2018-09-01T14:16:50Z</time>
      </trkpt>
      <trkpt lat="40.650750" lon="-4.977583">
        <ele>2059.0</ele>
        <time>2018-09-01T14:16:51Z</time>
      </trkpt>
      <trkpt lat="40.650817" lon="-4.977633">
        <ele>2059.0</ele>
        <time>2018-09-01T14:16:52Z</time>
      </trkpt>
      <trkpt lat="40.650883" lon="-4.977733">
        <ele>2059.0</ele>
        <time>2018-09-01T14:16:53Z</time>
      </trkpt>
      <trkpt lat="40.650917" lon="-4.977867">
        <ele>2060.0</ele>
        <time>2018-09-01T14:16:54Z</time>
      </trkpt>
      <trkpt lat="40.650917" lon="-4.978033">
        <ele>2061.0</ele>
        <time>2018-09-01T14:16:55Z</time>
      </trkpt>
      <trkpt lat="40.650850" lon="-4.978200">
        <ele>2062.0</ele>
        <time>2018-09-01T14:16:56Z</time>
      </trkpt>
      <trkpt lat="40.650733" lon="-4.978333">
        <ele>2062.0</ele>
        <time>2018-09-01T14:16:57Z</time>
      </trkpt>
      <trkpt lat="40.650583" lon="-4.978450">
        <ele>2063.0</ele>
        <time>2018-09-01T14:16:58Z</time>
      </trkpt>
      <trkpt lat="40.650450" lon="-4.978533">
        <ele>2067.0</ele>
        <time>2018-09-01T14:16:59Z</time>
      </trkpt>
      <trkpt lat="40.650317" lon="-4.978600">
        <ele>2071.0</ele>
        <time>2018-09-01T14:17:00Z</time>
      </trkpt>
      <trkpt lat="40.650200" lon="-4.978667">
        <ele>2073.0</ele>
        <time>2018-09-01T14:17:01Z</time>
      </trkpt>
      <trkpt lat="40.650083" lon="-4.978717">
        <ele>2074.0</ele>
        <time>2018-09-01T14:17:02Z</time>
      </trkpt>
      <trkpt lat="40.649933" lon="-4.978750">
        <ele>2074.0</ele>
        <time>2018-09-01T14:17:03Z</time>
      </trkpt>
      <trkpt lat="40.649783" lon="-4.978750">
        <ele>2074.0</ele>
        <time>2018-09-01T14:17:04Z</time>
      </trkpt>
      <trkpt lat="40.649650" lon="-4.978717">
        <ele>2074.0</ele>
        <time>2018-09-01T14:17:05Z</time>
      </trkpt>
      <trkpt lat="40.649517" lon="-4.978633">
        <ele>2075.0</ele>
        <time>2018-09-01T14:17:06Z</time>
      </trkpt>
      <trkpt lat="40.649433" lon="-4.978533">
        <ele>2077.0</ele>
        <time>2018-09-01T14:17:07Z</time>
      </trkpt>
      <trkpt lat="40.649400" lon="-4.978433">
        <ele>2080.0</ele>
        <time>2018-09-01T14:17:08Z</time>
      </trkpt>
      <trkpt lat="40.649367" lon="-4.978350">
        <ele>2083.0</ele>
        <time>2018-09-01T14:17:09Z</time>
      </trkpt>
      <trkpt lat="40.649333" lon="-4.978283">
        <ele>2086.0</ele>
        <time>2018-09-01T14:17:10Z</time>
      </trkpt>
      <trkpt lat="40.649283" lon="-4.978217">
        <ele>2089.0</ele>
        <time>2018-09-01T14:17:11Z</time>
      </trkpt>
      <trkpt lat="40.649250" lon="-4.978150">
        <ele>2090.0</ele>
        <time>2018-09-01T14:17:12Z</time>
      </trkpt>
      <trkpt lat="40.649250" lon="-4.978083">
        <ele>2090.0</ele>
        <time>2018-09-01T14:17:13Z</time>
      </trkpt>
      <trkpt lat="40.649267" lon="-4.978017">
        <ele>2090.0</ele>
        <time>2018-09-01T14:17:14Z</time>
      </trkpt>
      <trkpt lat="40.649333" lon="-4.977967">
        <ele>2089.0</ele>
        <time>2018-09-01T14:17:15Z</time>
      </trkpt>
      <trkpt lat="40.649400" lon="-4.977967">
        <ele>2090.0</ele>
        <time>2018-09-01T14:17:16Z</time>
      </trkpt>
      <trkpt lat="40.649483" lon="-4.978000">
        <ele>2092.0</ele>
        <time>2018-09-01T14:17:17Z</time>
      </trkpt>
      <trkpt lat="40.649533" lon="-4.978083">
        <ele>2094.0</ele>
        <time>2018-09-01T14:17:18Z</time>
      </trkpt>
      <trkpt lat="40.649567" lon="-4.978183">
        <ele>2096.0</ele>
        <time>2018-09-01T14:17:19Z</time>
      </trkpt>
      <trkpt lat="40.649583" lon="-4.978317">
        <ele>2097.0</ele>
        <time>2018-09-01T14:17:20Z</time>
      </trkpt>
      <trkpt lat="40.649567" lon="-4.978467">
        <ele>2098.0</ele>
        <time>2018-09-01T14:17:21Z</time>
      </trkpt>
      <trkpt lat="40.649500" lon="-4.978600">
        <ele>2098.0</ele>
        <time>2018-09-01T14:17:22Z</time>
      </trkpt>
      <trkpt lat="40.649400" lon="-4.978750">
        <ele>2098.0</ele>
        <time>2018-09-01T14:17:23Z</time>
      </trkpt>
      <trkpt lat="40.649267" lon="-4.978850">
        <ele>2098.0</ele>
        <time>2018-09-01T14:17:24Z</time>
      </trkpt>
      <trkpt lat="40.649100" lon="-4.978917">
        <ele>2099.0</ele>
        <time>2018-09-01T14:17:25Z</time>
      </trkpt>
      <trkpt lat="40.648950" lon="-4.978917">
        <ele>2101.0</ele>
        <time>2018-09-01T14:17:26Z</time>
      </trkpt>
      <trkpt lat="40.648817" lon="-4.978900">
        <ele>2102.0</ele>
        <time>2018-09-01T14:17:27Z</time>
      </trkpt>
      <trkpt lat="40.648700" lon="-4.978833">
        <ele>2103.0</ele>
        <time>2018-09-01T14:17:28Z</time>
      </trkpt>
      <trkpt lat="40.648600" lon="-4.978733">
        <ele>2103.0</ele>
        <time>2018-09-01T14:17:29Z</time>
      </trkpt>
      <trkpt lat="40.648533" lon="-4.978617">
        <ele>2104.0</ele>
        <time>2018-09-01T14:17:30Z</time>
      </trkpt>
      <trkpt lat="40.648483" lon="-4.978517">
        <ele>2107.0</ele>
        <time>2018-09-01T14:17:31Z</time>
      </trkpt>
      <trkpt lat="40.648467" lon="-4.978417">
        <ele>2110.0</ele>
        <time>2018-09-01T14:17:32Z</time>
      </trkpt>
      <trkpt lat="40.648467" lon="-4.978350">
        <ele>2113.0</ele>
        <time>2018-09-01T14:17:33Z</time>
      </trkpt>
      <trkpt lat="40.648467" lon="-4.978267">
        <ele>2114.0</ele>
        <time>2018-09-01T14:17:34Z</time>
      </trkpt>
      <trkpt lat="40.648483" lon="-4.978200">
        <ele>2115.0</ele>
        <time>2018-09-01T14:17:35Z</time>
      </trkpt>
      <trkpt lat="40.648500" lon="-4.978117">
        <ele>2115.0</ele>
        <time>2018-09-01T14:17:36Z</time>
      </trkpt>
      <trkpt lat="40.648533" lon="-4.978050">
        <ele>2115.0</ele>
        <time>2018-09-01T14:17:37Z</time>
      </trkpt>
      <trkpt lat="40.648567" lon="-4.977983">
        <ele>2116.0</ele>
        <time>2018-09-01T14:17:38Z</time>
      </trkpt>
      <trkpt lat="40.648617" lon="-4.977933">
        <ele>2117.0</ele>
        <time>2018-09-01T14:17:39Z</time>
      </trkpt>
      <trkpt lat="40.648667" lon="-4.977933">
        <ele>2117.0</ele>
        <time>2018-09-01T14:17:40Z</time>
      </trkpt>
      <trkpt lat="40.648733" lon="-4.977983">
        <ele>2117.0</ele>
        <time>2018-09-01T14:17:41Z</time>
      </trkpt>
      <trkpt lat="40.648800" lon="-4.978067">
        <ele>2116.0</ele>
        <time>2018-09-01T14:17:42Z</time>
      </trkpt>
      <trkpt lat="40.648850" lon="-4.978200">
        <ele>2116.0</ele>
        <time>2018-09-01T14:17:43Z</time>
      </trkpt>
      <trkpt lat="40.648867" lon="-4.978350">
        <ele>2118.0</ele>
        <time>2018-09-01T14:17:44Z</time>
      </trkpt>
      <trkpt lat="40.648850" lon="-4.978500">
        <ele>2120.0</ele>
        <time>2018-09-01T14:17:45Z</time>
      </trkpt>
      <trkpt lat="40.648783" lon="-4.978650">
        <ele>2121.0</ele>
        <time>2018-09-01T14:17:46Z</time>
      </trkpt>
      <trkpt lat="40.648700" lon="-4.978800">
        <ele>2121.0</ele>
        <time>2018-09-01T14:17:47Z</time>
      </trkpt>
      <trkpt lat="40.648583" lon="-4.978933">
        <ele>2122.0</ele>
        <time>2018-09-01T14:17:48Z</time>
      </trkpt>
      <trkpt lat="40.648450" lon="-4.979033">
        <ele>2122.0</ele>
        <time>2018-09-01T14:17:49Z</time>
      </trkpt>
      <trkpt lat="40.648317" lon="-4.979117">
        <ele>2123.0</ele>
        <time>2018-09-01T14:17:50Z</time>
      </trkpt>
      <trkpt lat="40.648167" lon="-4.979150">
        <ele>2124.0</ele>
        <time>2018-09-01T14:17:51Z</time>
      </trkpt>
      <trkpt lat="40.648000" lon="-4.979150">
        <ele>2123.0</ele>
        <time>2018-09-01T14:17:52Z</time>
      </trkpt>
      <trkpt lat="40.647850" lon="-4.979100">
        <ele>2123.0</ele>
        <time>2018-09-01T14:17:53Z</time>
      </trkpt>
      <trkpt lat="40.647717" lon="-4.979033">
        <ele>2125.0</ele>
        <time>2018-09-01T14:17:54Z</time>
      </trkpt>
      <trkpt lat="40.647600" lon="-4.978933">
        <ele>2128.0</ele>
        <time>2018-09-01T14:17:55Z</time>
      </trkpt>
      <trkpt lat="40.647517" lon="-4.978850">
        <ele>2131.0</ele>
        <time>2018-09-01T14:17:56Z</time>
      </trkpt>
      <trkpt lat="40.647433" lon="-4.978783">
        <ele>2133.0</ele>
        <time>2018-09-01T14:17:57Z</time>
      </trkpt>
      <trkpt lat="40.647367" lon="-4.978700">
        <ele>2135.0</ele>
        <time>2018-09-01T14:17:58Z</time>
      </trkpt>
      <trkpt lat="40.647300" lon="-4.978600">
        <ele>2137.0</ele>
        <time>2018-09-01T14:17:59Z</time>
      </trkpt>
      <trkpt lat="40.647250" lon="-4.978500">
        <ele>2137.0</ele>
        <time>2018-09-01T14:18:00Z</time>
      </trkpt>
      <trkpt lat="40.647200" lon="-4.978383">
        <ele>2138.0</ele>
        <time>2018-09-01T14:18:01Z</time>
      </trkpt>
      <trkpt lat="40.647183" lon="-4.978283">
        <ele>2139.0</ele>
        <time>2018-09-01T14:18:02Z</time>
      </trkpt>
      <trkpt lat="40.647167" lon="-4.978183">
        <ele>2141.0</ele>
        <time>2018-09-01T14:18:03Z</time>
      </trkpt>
      <trkpt lat="40.647183" lon="-4.978100">
        <ele>2142.0</ele>
        <time>2018-09-01T14:18:04Z</time>
      </trkpt>
      <trkpt lat="40.647200" lon="-4.978017">
        <ele>2142.0</ele>
        <time>2018-09-01T14:18:05Z</time>
      </trkpt>
      <trkpt lat="40.647233" lon="-4.977950">
        <ele>2142.0</ele>
        <time>2018-09-01T14:18:06Z</time>
      </trkpt>
      <trkpt lat="40.647250" lon="-4.977883">
        <ele>2143.0</ele>
        <time>2018-09-01T14:18:07Z</time>
      </trkpt>
      <trkpt lat="40.647283" lon="-4.977850">
        <ele>2143.0</ele>
        <time>2018-09-01T14:18:08Z</time>
      </trkpt>
      <trkpt lat="40.647333" lon="-4.977817">
        <ele>2142.0</ele>
        <time>2018-09-01T14:18:09Z</time>
      </trkpt>
      <trkpt lat="40.647383" lon="-4.977817">
        <ele>2141.0</ele>
        <time>2018-09-01T14:18:10Z</time>
      </trkpt>
      <trkpt lat="40.647450" lon="-4.977833">
        <ele>2139.0</ele>
        <time>2018-09-01T14:18:11Z</time>
      </trkpt>
      <trkpt lat="40.647500" lon="-4.977883">
        <ele>2138.0</ele>
        <time>2018-09-01T14:18:12Z</time>
      </trkpt>
      <trkpt lat="40.647550" lon="-4.977967">
        <ele>2136.0</ele>
        <time>2018-09-01T14:18:13Z</time>
      </trkpt>
      <trkpt lat="40.647600" lon="-4.978050">
        <ele>2136.0</ele>
        <time>2018-09-01T14:18:14Z</time>
      </trkpt>
      <trkpt lat="40.647650" lon="-4.978167">
        <ele>2135.0</ele>
        <time>2018-09-01T14:18:15Z</time>
      </trkpt>
      <trkpt lat="40.647667" lon="-4.978300">
        <ele>2136.0</ele>
        <time>2018-09-01T14:18:16Z</time>
      </trkpt>
      <trkpt lat="40.647667" lon="-4.978433">
        <ele>2138.0</ele>
        <time>2018-09-01T14:18:17Z</time>
      </trkpt>
      <trkpt lat="40.647617" lon="-4.978567">
        <ele>2140.0</ele>
        <time>2018-09-01T14:18:18Z</time>
      </trkpt>
      <trkpt lat="40.647550" lon="-4.978683">
        <ele>2141.0</ele>
        <time>2018-09-01T14:18:19Z</time>
      </trkpt>
      <trkpt lat="40.647467" lon="-4.978817">
        <ele>2142.0</ele>
        <time>2018-09-01T14:18:20Z</time>
      </trkpt>
      <trkpt lat="40.647367" lon="-4.978933">
        <ele>2142.0</ele>
        <time>2018-09-01T14:18:21Z</time>
      </trkpt>
      <trkpt lat="40.647250" lon="-4.979050">
        <ele>2141.0</ele>
        <time>2018-09-01T14:18:22Z</time>
      </trkpt>
      <trkpt lat="40.647100" lon="-4.979133">
        <ele>2140.0</ele>
        <time>2018-09-01T14:18:23Z</time>
      </trkpt>
      <trkpt lat="40.646933" lon="-4.979167">
        <ele>2140.0</ele>
        <time>2018-09-01T14:18:24Z</time>
      </trkpt>
      <trkpt lat="40.646783" lon="-4.979183">
        <ele>2141.0</ele>
        <time>2018-09-01T14:18:25Z</time>
      </trkpt>
      <trkpt lat="40.646633" lon="-4.979150">
        <ele>2143.0</ele>
        <time>2018-09-01T14:18:26Z</time>
      </trkpt>
      <trkpt lat="40.646500" lon="-4.979083">
        <ele>2146.0</ele>
        <time>2018-09-01T14:18:27Z</time>
      </trkpt>
      <trkpt lat="40.646383" lon="-4.979017">
        <ele>2148.0</ele>
        <time>2018-09-01T14:18:28Z</time>
      </trkpt>
      <trkpt lat="40.646283" lon="-4.978917">
        <ele>2150.0</ele>
        <time>2018-09-01T14:18:29Z</time>
      </trkpt>
      <trkpt lat="40.646200" lon="-4.978833">
        <ele>2152.0</ele>
        <time>2018-09-01T14:18:30Z</time>
      </trkpt>
      <trkpt lat="40.646100" lon="-4.978733">
        <ele>2155.0</ele>
        <time>2018-09-01T14:18:31Z</time>
      </trkpt>
      <trkpt lat="40.646017" lon="-4.978667">
        <ele>2157.0</ele>
        <time>2018-09-01T14:18:32Z</time>
      </trkpt>
      <trkpt lat="40.645950" lon="-4.978600">
        <ele>2158.0</ele>
        <time>2018-09-01T14:18:33Z</time>
      </trkpt>
      <trkpt lat="40.645867" lon="-4.978533">
        <ele>2158.0</ele>
        <time>2018-09-01T14:18:34Z</time>
      </trkpt>
      <trkpt lat="40.645800" lon="-4.978450">
        <ele>2158.0</ele>
        <time>2018-09-01T14:18:35Z</time>
      </trkpt>
      <trkpt lat="40.645750" lon="-4.978367">
        <ele>2156.0</ele>
        <time>2018-09-01T14:18:36Z</time>
      </trkpt>
      <trkpt lat="40.645717" lon="-4.978250">
        <ele>2154.0</ele>
        <time>2018-09-01T14:18:37Z</time>
      </trkpt>
      <trkpt lat="40.645683" lon="-4.978133">
        <ele>2152.0</ele>
        <time>2018-09-01T14:18:38Z</time>
      </trkpt>
      <trkpt lat="40.645650" lon="-4.978017">
        <ele>2151.0</ele>
        <time>2018-09-01T14:18:39Z</time>
      </trkpt>
      <trkpt lat="40.645617" lon="-4.977917">
        <ele>2150.0</ele>
        <time>2018-09-01T14:18:40Z</time>
      </trkpt>
      <trkpt lat="40.645567" lon="-4.977800">
        <ele>2150.0</ele>
        <time>2018-09-01T14:18:41Z</time>
      </trkpt>
      <trkpt lat="40.645533" lon="-4.977700">
        <ele>2150.0</ele>
        <time>2018-09-01T14:18:42Z</time>
      </trkpt>
      <trkpt lat="40.645500" lon="-4.977583">
        <ele>2150.0</ele>
        <time>2018-09-01T14:18:43Z</time>
      </trkpt>
      <trkpt lat="40.645483" lon="-4.977467">
        <ele>2150.0</ele>
        <time>2018-09-01T14:18:44Z</time>
      </trkpt>
      <trkpt lat="40.645483" lon="-4.977367">
        <ele>2149.0</ele>
        <time>2018-09-01T14:18:45Z</time>
      </trkpt>
      <trkpt lat="40.645500" lon="-4.977250">
        <ele>2148.0</ele>
        <time>2018-09-01T14:18:46Z</time>
      </trkpt>
      <trkpt lat="40.645533" lon="-4.977117">
        <ele>2147.0</ele>
        <time>2018-09-01T14:18:47Z</time>
      </trkpt>
      <trkpt lat="40.645567" lon="-4.977017">
        <ele>2146.0</ele>
        <time>2018-09-01T14:18:48Z</time>
      </trkpt>
      <trkpt lat="40.645600" lon="-4.976900">
        <ele>2145.0</ele>
        <time>2018-09-01T14:18:49Z</time>
      </trkpt>
      <trkpt lat="40.645650" lon="-4.976817">
        <ele>2144.0</ele>
        <time>2018-09-01T14:18:50Z</time>
      </trkpt>
      <trkpt lat="40.645700" lon="-4.976717">
        <ele>2143.0</ele>
        <time>2018-09-01T14:18:51Z</time>
      </trkpt>
      <trkpt lat="40.645750" lon="-4.976633">
        <ele>2142.0</ele>
        <time>2018-09-01T14:18:52Z</time>
      </trkpt>
      <trkpt lat="40.645800" lon="-4.976550">
        <ele>2139.0</ele>
        <time>2018-09-01T14:18:53Z</time>
      </trkpt>
      <trkpt lat="40.645867" lon="-4.976433">
        <ele>2137.0</ele>
        <time>2018-09-01T14:18:54Z</time>
      </trkpt>
      <trkpt lat="40.645917" lon="-4.976333">
        <ele>2136.0</ele>
        <time>2018-09-01T14:18:55Z</time>
      </trkpt>
      <trkpt lat="40.645950" lon="-4.976217">
        <ele>2136.0</ele>
        <time>2018-09-01T14:18:56Z</time>
      </trkpt>
      <trkpt lat="40.645967" lon="-4.976117">
        <ele>2136.0</ele>
        <time>2018-09-01T14:18:57Z</time>
      </trkpt>
      <trkpt lat="40.646000" lon="-4.976017">
        <ele>2135.0</ele>
        <time>2018-09-01T14:18:58Z</time>
      </trkpt>
      <trkpt lat="40.646033" lon="-4.975933">
        <ele>2133.0</ele>
        <time>2018-09-01T14:18:59Z</time>
      </trkpt>
      <trkpt lat="40.646067" lon="-4.975817">
        <ele>2131.0</ele>
        <time>2018-09-01T14:19:00Z</time>
      </trkpt>
      <trkpt lat="40.646100" lon="-4.975717">
        <ele>2129.0</ele>
        <time>2018-09-01T14:19:01Z</time>
      </trkpt>
      <trkpt lat="40.646133" lon="-4.975617">
        <ele>2128.0</ele>
        <time>2018-09-01T14:19:02Z</time>
      </trkpt>
      <trkpt lat="40.646167" lon="-4.975533">
        <ele>2126.0</ele>
        <time>2018-09-01T14:19:03Z</time>
      </trkpt>
      <trkpt lat="40.646200" lon="-4.975433">
        <ele>2125.0</ele>
        <time>2018-09-01T14:19:04Z</time>
      </trkpt>
      <trkpt lat="40.646233" lon="-4.975333">
        <ele>2122.0</ele>
        <time>2018-09-01T14:19:05Z</time>
      </trkpt>
      <trkpt lat="40.646250" lon="-4.975217">
        <ele>2120.0</ele>
        <time>2018-09-01T14:19:06Z</time>
      </trkpt>
      <trkpt lat="40.646300" lon="-4.975100">
        <ele>2118.0</ele>
        <time>2018-09-01T14:19:07Z</time>
      </trkpt>
      <trkpt lat="40.646350" lon="-4.975000">
        <ele>2117.0</ele>
        <time>2018-09-01T14:19:08Z</time>
      </trkpt>
      <trkpt lat="40.646383" lon="-4.974900">
        <ele>2116.0</ele>
        <time>2018-09-01T14:19:09Z</time>
      </trkpt>
      <trkpt lat="40.646417" lon="-4.974800">
        <ele>2115.0</ele>
        <time>2018-09-01T14:19:10Z</time>
      </trkpt>
      <trkpt lat="40.646467" lon="-4.974700">
        <ele>2113.0</ele>
        <time>2018-09-01T14:19:11Z</time>
      </trkpt>
      <trkpt lat="40.646500" lon="-4.974600">
        <ele>2112.0</ele>
        <time>2018-09-01T14:19:12Z</time>
      </trkpt>
      <trkpt lat="40.646550" lon="-4.974517">
        <ele>2110.0</ele>
        <time>2018-09-01T14:19:13Z</time>
      </trkpt>
      <trkpt lat="40.646617" lon="-4.974433">
        <ele>2109.0</ele>
        <time>2018-09-01T14:19:14Z</time>
      </trkpt>
      <trkpt lat="40.646667" lon="-4.974367">
        <ele>2107.0</ele>
        <time>2018-09-01T14:19:15Z</time>
      </trkpt>
      <trkpt lat="40.646700" lon="-4.974300">
        <ele>2104.0</ele>
        <time>2018-09-01T14:19:16Z</time>
      </trkpt>
      <trkpt lat="40.646750" lon="-4.974233">
        <ele>2101.0</ele>
        <time>2018-09-01T14:19:17Z</time>
      </trkpt>
      <trkpt lat="40.646800" lon="-4.974167">
        <ele>2097.0</ele>
        <time>2018-09-01T14:19:18Z</time>
      </trkpt>
      <trkpt lat="40.646850" lon="-4.974083">
        <ele>2094.0</ele>
        <time>2018-09-01T14:19:19Z</time>
      </trkpt>
      <trkpt lat="40.646900" lon="-4.974000">
        <ele>2090.0</ele>
        <time>2018-09-01T14:19:20Z</time>
      </trkpt>
      <trkpt lat="40.646933" lon="-4.973917">
        <ele>2087.0</ele>
        <time>2018-09-01T14:19:21Z</time>
      </trkpt>
      <trkpt lat="40.646983" lon="-4.973817">
        <ele>2085.0</ele>
        <time>2018-09-01T14:19:22Z</time>
      </trkpt>
      <trkpt lat="40.647000" lon="-4.973700">
        <ele>2083.0</ele>
        <time>2018-09-01T14:19:23Z</time>
      </trkpt>
      <trkpt lat="40.647033" lon="-4.973583">
        <ele>2081.0</ele>
        <time>2018-09-01T14:19:24Z</time>
      </trkpt>
      <trkpt lat="40.647033" lon="-4.973467">
        <ele>2080.0</ele>
        <time>2018-09-01T14:19:25Z</time>
      </trkpt>
      <trkpt lat="40.647050" lon="-4.973350">
        <ele>2079.0</ele>
        <time>2018-09-01T14:19:26Z</time>
      </trkpt>
      <trkpt lat="40.647050" lon="-4.973233">
        <ele>2078.0</ele>
        <time>2018-09-01T14:19:27Z</time>
      </trkpt>
      <trkpt lat="40.647050" lon="-4.973117">
        <ele>2078.0</ele>
        <time>2018-09-01T14:19:28Z</time>
      </trkpt>
      <trkpt lat="40.647083" lon="-4.973017">
        <ele>2076.0</ele>
        <time>2018-09-01T14:19:29Z</time>
      </trkpt>
      <trkpt lat="40.647117" lon="-4.972917">
        <ele>2075.0</ele>
        <time>2018-09-01T14:19:30Z</time>
      </trkpt>
      <trkpt lat="40.647133" lon="-4.972817">
        <ele>2074.0</ele>
        <time>2018-09-01T14:19:31Z</time>
      </trkpt>
      <trkpt lat="40.647133" lon="-4.972700">
        <ele>2072.0</ele>
        <time>2018-09-01T14:19:32Z</time>
      </trkpt>
      <trkpt lat="40.647150" lon="-4.972583">
        <ele>2070.0</ele>
        <time>2018-09-01T14:19:33Z</time>
      </trkpt>
      <trkpt lat="40.647167" lon="-4.972467">
        <ele>2068.0</ele>
        <time>2018-09-01T14:19:34Z</time>
      </trkpt>
      <trkpt lat="40.647183" lon="-4.972350">
        <ele>2066.0</ele>
        <time>2018-09-01T14:19:35Z</time>
      </trkpt>
      <trkpt lat="40.647217" lon="-4.972233">
        <ele>2064.0</ele>
        <time>2018-09-01T14:19:36Z</time>
      </trkpt>
      <trkpt lat="40.647233" lon="-4.972117">
        <ele>2062.0</ele>
        <time>2018-09-01T14:19:37Z</time>
      </trkpt>
      <trkpt lat="40.647233" lon="-4.971983">
        <ele>2061.0</ele>
        <time>2018-09-01T14:19:38Z</time>
      </trkpt>
      <trkpt lat="40.647233" lon="-4.971850">
        <ele>2059.0</ele>
        <time>2018-09-01T14:19:39Z</time>
      </trkpt>
      <trkpt lat="40.647250" lon="-4.971717">
        <ele>2057.0</ele>
        <time>2018-09-01T14:19:40Z</time>
      </trkpt>
      <trkpt lat="40.647267" lon="-4.971600">
        <ele>2056.0</ele>
        <time>2018-09-01T14:19:41Z</time>
      </trkpt>
      <trkpt lat="40.647283" lon="-4.971500">
        <ele>2055.0</ele>
        <time>2018-09-01T14:19:42Z</time>
      </trkpt>
      <trkpt lat="40.647300" lon="-4.971383">
        <ele>2053.0</ele>
        <time>2018-09-01T14:19:43Z</time>
      </trkpt>
      <trkpt lat="40.647333" lon="-4.971267">
        <ele>2050.0</ele>
        <time>2018-09-01T14:19:44Z</time>
      </trkpt>
      <trkpt lat="40.647367" lon="-4.971150">
        <ele>2048.0</ele>
        <time>2018-09-01T14:19:45Z</time>
      </trkpt>
      <trkpt lat="40.647400" lon="-4.971033">
        <ele>2045.0</ele>
        <time>2018-09-01T14:19:46Z</time>
      </trkpt>
      <trkpt lat="40.647450" lon="-4.970933">
        <ele>2042.0</ele>
        <time>2018-09-01T14:19:47Z</time>
      </trkpt>
      <trkpt lat="40.647500" lon="-4.970833">
        <ele>2040.0</ele>
        <time>2018-09-01T14:19:48Z</time>
      </trkpt>
      <trkpt lat="40.647550" lon="-4.970733">
        <ele>2038.0</ele>
        <time>2018-09-01T14:19:49Z</time>
      </trkpt>
      <trkpt lat="40.647583" lon="-4.970633">
        <ele>2036.0</ele>
        <time>2018-09-01T14:19:50Z</time>
      </trkpt>
      <trkpt lat="40.647633" lon="-4.970533">
        <ele>2034.0</ele>
        <time>2018-09-01T14:19:51Z</time>
      </trkpt>
      <trkpt lat="40.647650" lon="-4.970417">
        <ele>2032.0</ele>
        <time>2018-09-01T14:19:52Z</time>
      </trkpt>
      <trkpt lat="40.647650" lon="-4.970300">
        <ele>2030.0</ele>
        <time>2018-09-01T14:19:53Z</time>
      </trkpt>
      <trkpt lat="40.647650" lon="-4.970150">
        <ele>2027.0</ele>
        <time>2018-09-01T14:19:54Z</time>
      </trkpt>
      <trkpt lat="40.647633" lon="-4.970017">
        <ele>2025.0</ele>
        <time>2018-09-01T14:19:55Z</time>
      </trkpt>
      <trkpt lat="40.647633" lon="-4.969867">
        <ele>2024.0</ele>
        <time>2018-09-01T14:19:56Z</time>
      </trkpt>
      <trkpt lat="40.647633" lon="-4.969750">
        <ele>2024.0</ele>
        <time>2018-09-01T14:19:57Z</time>
      </trkpt>
      <trkpt lat="40.647650" lon="-4.969633">
        <ele>2023.0</ele>
        <time>2018-09-01T14:19:58Z</time>
      </trkpt>
      <trkpt lat="40.647667" lon="-4.969517">
        <ele>2023.0</ele>
        <time>2018-09-01T14:19:59Z</time>
      </trkpt>
      <trkpt lat="40.647700" lon="-4.969417">
        <ele>2021.0</ele>
        <time>2018-09-01T14:20:00Z</time>
      </trkpt>
      <trkpt lat="40.647717" lon="-4.969317">
        <ele>2018.0</ele>
        <time>2018-09-01T14:20:01Z</time>
      </trkpt>
      <trkpt lat="40.647767" lon="-4.969200">
        <ele>2015.0</ele>
        <time>2018-09-01T14:20:02Z</time>
      </trkpt>
      <trkpt lat="40.647800" lon="-4.969050">
        <ele>2012.0</ele>
        <time>2018-09-01T14:20:03Z</time>
      </trkpt>
      <trkpt lat="40.647833" lon="-4.968900">
        <ele>2010.0</ele>
        <time>2018-09-01T14:20:04Z</time>
      </trkpt>
      <trkpt lat="40.647850" lon="-4.968767">
        <ele>2010.0</ele>
        <time>2018-09-01T14:20:05Z</time>
      </trkpt>
      <trkpt lat="40.647883" lon="-4.968633">
        <ele>2011.0</ele>
        <time>2018-09-01T14:20:06Z</time>
      </trkpt>
      <trkpt lat="40.647917" lon="-4.968533">
        <ele>2011.0</ele>
        <time>2018-09-01T14:20:07Z</time>
      </trkpt>
      <trkpt lat="40.647950" lon="-4.968417">
        <ele>2011.0</ele>
        <time>2018-09-01T14:20:08Z</time>
      </trkpt>
      <trkpt lat="40.647967" lon="-4.968300">
        <ele>2009.0</ele>
        <time>2018-09-01T14:20:09Z</time>
      </trkpt>
      <trkpt lat="40.648000" lon="-4.968167">
        <ele>2006.0</ele>
        <time>2018-09-01T14:20:10Z</time>
      </trkpt>
      <trkpt lat="40.648017" lon="-4.968017">
        <ele>2003.0</ele>
        <time>2018-09-01T14:20:11Z</time>
      </trkpt>
      <trkpt lat="40.648050" lon="-4.967867">
        <ele>2000.0</ele>
        <time>2018-09-01T14:20:12Z</time>
      </trkpt>
      <trkpt lat="40.648083" lon="-4.967733">
        <ele>1998.0</ele>
        <time>2018-09-01T14:20:13Z</time>
      </trkpt>
      <trkpt lat="40.648117" lon="-4.967617">
        <ele>1998.0</ele>
        <time>2018-09-01T14:20:14Z</time>
      </trkpt>
      <trkpt lat="40.648133" lon="-4.967483">
        <ele>1997.0</ele>
        <time>2018-09-01T14:20:15Z</time>
      </trkpt>
      <trkpt lat="40.648150" lon="-4.967367">
        <ele>1996.0</ele>
        <time>2018-09-01T14:20:16Z</time>
      </trkpt>
      <trkpt lat="40.648167" lon="-4.967233">
        <ele>1993.0</ele>
        <time>2018-09-01T14:20:17Z</time>
      </trkpt>
      <trkpt lat="40.648200" lon="-4.967083">
        <ele>1990.0</ele>
        <time>2018-09-01T14:20:18Z</time>
      </trkpt>
      <trkpt lat="40.648233" lon="-4.966933">
        <ele>1988.0</ele>
        <time>2018-09-01T14:20:19Z</time>
      </trkpt>
      <trkpt lat="40.648250" lon="-4.966783">
        <ele>1988.0</ele>
        <time>2018-09-01T14:20:20Z</time>
      </trkpt>
      <trkpt lat="40.648267" lon="-4.966650">
        <ele>1989.0</ele>
        <time>2018-09-01T14:20:21Z</time>
      </trkpt>
      <trkpt lat="40.648283" lon="-4.966567">
        <ele>1989.0</ele>
        <time>2018-09-01T14:20:22Z</time>
      </trkpt>
      <trkpt lat="40.648300" lon="-4.966467">
        <ele>1987.0</ele>
        <time>2018-09-01T14:20:23Z</time>
      </trkpt>
      <trkpt lat="40.648317" lon="-4.966383">
        <ele>1983.0</ele>
        <time>2018-09-01T14:20:24Z</time>
      </trkpt>
      <trkpt lat="40.648333" lon="-4.966283">
        <ele>1977.0</ele>
        <time>2018-09-01T14:20:25Z</time>
      </trkpt>
      <trkpt lat="40.648367" lon="-4.966150">
        <ele>1973.0</ele>
        <time>2018-09-01T14:20:26Z</time>
      </trkpt>
      <trkpt lat="40.648383" lon="-4.966017">
        <ele>1970.0</ele>
        <time>2018-09-01T14:20:27Z</time>
      </trkpt>
      <trkpt lat="40.648400" lon="-4.965900">
        <ele>1969.0</ele>
        <time>2018-09-01T14:20:28Z</time>
      </trkpt>
      <trkpt lat="40.648383" lon="-4.965767">
        <ele>1969.0</ele>
        <time>2018-09-01T14:20:29Z</time>
      </trkpt>
      <trkpt lat="40.648383" lon="-4.965667">
        <ele>1968.0</ele>
        <time>2018-09-01T14:20:30Z</time>
      </trkpt>
      <trkpt lat="40.648367" lon="-4.965550">
        <ele>1966.0</ele>
        <time>2018-09-01T14:20:31Z</time>
      </trkpt>
      <trkpt lat="40.648333" lon="-4.965417">
        <ele>1964.0</ele>
        <time>2018-09-01T14:20:32Z</time>
      </trkpt>
      <trkpt lat="40.648300" lon="-4.965283">
        <ele>1961.0</ele>
        <time>2018-09-01T14:20:33Z</time>
      </trkpt>
      <trkpt lat="40.648250" lon="-4.965150">
        <ele>1959.0</ele>
        <time>2018-09-01T14:20:34Z</time>
      </trkpt>
      <trkpt lat="40.648183" lon="-4.965017">
        <ele>1959.0</ele>
        <time>2018-09-01T14:20:35Z</time>
      </trkpt>
      <trkpt lat="40.648133" lon="-4.964900">
        <ele>1960.0</ele>
        <time>2018-09-01T14:20:36Z</time>
      </trkpt>
      <trkpt lat="40.648100" lon="-4.964783">
        <ele>1960.0</ele>
        <time>2018-09-01T14:20:37Z</time>
      </trkpt>
      <trkpt lat="40.648067" lon="-4.964667">
        <ele>1960.0</ele>
        <time>2018-09-01T14:20:38Z</time>
      </trkpt>
      <trkpt lat="40.648050" lon="-4.964533">
        <ele>1958.0</ele>
        <time>2018-09-01T14:20:39Z</time>
      </trkpt>
      <trkpt lat="40.648033" lon="-4.964400">
        <ele>1957.0</ele>
        <time>2018-09-01T14:20:40Z</time>
      </trkpt>
      <trkpt lat="40.648033" lon="-4.964267">
        <ele>1956.0</ele>
        <time>2018-09-01T14:20:41Z</time>
      </trkpt>
      <trkpt lat="40.648050" lon="-4.964133">
        <ele>1955.0</ele>
        <time>2018-09-01T14:20:42Z</time>
      </trkpt>
      <trkpt lat="40.648067" lon="-4.964033">
        <ele>1955.0</ele>
        <time>2018-09-01T14:20:43Z</time>
      </trkpt>
      <trkpt lat="40.648067" lon="-4.963900">
        <ele>1955.0</ele>
        <time>2018-09-01T14:20:44Z</time>
      </trkpt>
      <trkpt lat="40.648067" lon="-4.963783">
        <ele>1954.0</ele>
        <time>2018-09-01T14:20:45Z</time>
      </trkpt>
      <trkpt lat="40.648067" lon="-4.963650">
        <ele>1953.0</ele>
        <time>2018-09-01T14:20:46Z</time>
      </trkpt>
      <trkpt lat="40.648100" lon="-4.963533">
        <ele>1952.0</ele>
        <time>2018-09-01T14:20:47Z</time>
      </trkpt>
      <trkpt lat="40.648133" lon="-4.963417">
        <ele>1950.0</ele>
        <time>2018-09-01T14:20:48Z</time>
      </trkpt>
      <trkpt lat="40.648167" lon="-4.963300">
        <ele>1949.0</ele>
        <time>2018-09-01T14:20:49Z</time>
      </trkpt>
      <trkpt lat="40.648183" lon="-4.963183">
        <ele>1949.0</ele>
        <time>2018-09-01T14:20:50Z</time>
      </trkpt>
      <trkpt lat="40.648183" lon="-4.963050">
        <ele>1949.0</ele>
        <time>2018-09-01T14:20:51Z</time>
      </trkpt>
      <trkpt lat="40.648167" lon="-4.962917">
        <ele>1949.0</ele>
        <time>2018-09-01T14:20:52Z</time>
      </trkpt>
      <trkpt lat="40.648167" lon="-4.962800">
        <ele>1948.0</ele>
        <time>2018-09-01T14:20:53Z</time>
      </trkpt>
      <trkpt lat="40.648167" lon="-4.962667">
        <ele>1947.0</ele>
        <time>2018-09-01T14:20:54Z</time>
      </trkpt>
      <trkpt lat="40.648150" lon="-4.962533">
        <ele>1946.0</ele>
        <time>2018-09-01T14:20:55Z</time>
      </trkpt>
      <trkpt lat="40.648133" lon="-4.962400">
        <ele>1944.0</ele>
        <time>2018-09-01T14:20:56Z</time>
      </trkpt>
      <trkpt lat="40.648100" lon="-4.962267">
        <ele>1942.0</ele>
        <time>2018-09-01T14:20:57Z</time>
      </trkpt>
      <trkpt lat="40.648083" lon="-4.962117">
        <ele>1940.0</ele>
        <time>2018-09-01T14:20:58Z</time>
      </trkpt>
      <trkpt lat="40.648050" lon="-4.961983">
        <ele>1938.0</ele>
        <time>2018-09-01T14:20:59Z</time>
      </trkpt>
      <trkpt lat="40.648017" lon="-4.961833">
        <ele>1936.0</ele>
        <time>2018-09-01T14:21:00Z</time>
      </trkpt>
      <trkpt lat="40.647983" lon="-4.961700">
        <ele>1935.0</ele>
        <time>2018-09-01T14:21:01Z</time>
      </trkpt>
      <trkpt lat="40.647950" lon="-4.961567">
        <ele>1934.0</ele>
        <time>2018-09-01T14:21:02Z</time>
      </trkpt>
      <trkpt lat="40.647933" lon="-4.961417">
        <ele>1932.0</ele>
        <time>2018-09-01T14:21:03Z</time>
      </trkpt>
      <trkpt lat="40.647900" lon="-4.961267">
        <ele>1930.0</ele>
        <time>2018-09-01T14:21:04Z</time>
      </trkpt>
      <trkpt lat="40.647850" lon="-4.961117">
        <ele>1929.0</ele>
        <time>2018-09-01T14:21:05Z</time>
      </trkpt>
      <trkpt lat="40.647817" lon="-4.960967">
        <ele>1928.0</ele>
        <time>2018-09-01T14:21:06Z</time>
      </trkpt>
      <trkpt lat="40.647783" lon="-4.960817">
        <ele>1927.0</ele>
        <time>2018-09-01T14:21:07Z</time>
      </trkpt>
      <trkpt lat="40.647767" lon="-4.960667">
        <ele>1925.0</ele>
        <time>2018-09-01T14:21:08Z</time>
      </trkpt>
      <trkpt lat="40.647750" lon="-4.960517">
        <ele>1924.0</ele>
        <time>2018-09-01T14:21:09Z</time>
      </trkpt>
      <trkpt lat="40.647733" lon="-4.960367">
        <ele>1923.0</ele>
        <time>2018-09-01T14:21:10Z</time>
      </trkpt>
      <trkpt lat="40.647733" lon="-4.960217">
        <ele>1921.0</ele>
        <time>2018-09-01T14:21:11Z</time>
      </trkpt>
      <trkpt lat="40.647717" lon="-4.960067">
        <ele>1920.0</ele>
        <time>2018-09-01T14:21:12Z</time>
      </trkpt>
      <trkpt lat="40.647700" lon="-4.959917">
        <ele>1919.0</ele>
        <time>2018-09-01T14:21:13Z</time>
      </trkpt>
      <trkpt lat="40.647700" lon="-4.959783">
        <ele>1918.0</ele>
        <time>2018-09-01T14:21:14Z</time>
      </trkpt>
      <trkpt lat="40.647683" lon="-4.959633">
        <ele>1916.0</ele>
        <time>2018-09-01T14:21:15Z</time>
      </trkpt>
      <trkpt lat="40.647667" lon="-4.959500">
        <ele>1915.0</ele>
        <time>2018-09-01T14:21:16Z</time>
      </trkpt>
      <trkpt lat="40.647667" lon="-4.959383">
        <ele>1911.0</ele>
        <time>2018-09-01T14:21:17Z</time>
      </trkpt>
      <trkpt lat="40.647683" lon="-4.959250">
        <ele>1907.0</ele>
        <time>2018-09-01T14:21:18Z</time>
      </trkpt>
      <trkpt lat="40.647700" lon="-4.959133">
        <ele>1904.0</ele>
        <time>2018-09-01T14:21:19Z</time>
      </trkpt>
      <trkpt lat="40.647700" lon="-4.959017">
        <ele>1900.0</ele>
        <time>2018-09-01T14:21:20Z</time>
      </trkpt>
      <trkpt lat="40.647683" lon="-4.958900">
        <ele>1895.0</ele>
        <time>2018-09-01T14:21:21Z</time>
      </trkpt>
      <trkpt lat="40.647633" lon="-4.958767">
        <ele>1890.0</ele>
        <time>2018-09-01T14:21:22Z</time>
      </trkpt>
      <trkpt lat="40.647600" lon="-4.958600">
        <ele>1887.0</ele>
        <time>2018-09-01T14:21:23Z</time>
      </trkpt>
      <trkpt lat="40.647567" lon="-4.958450">
        <ele>1884.0</ele>
        <time>2018-09-01T14:21:24Z</time>
      </trkpt>
      <trkpt lat="40.647533" lon="-4.958300">
        <ele>1884.0</ele>
        <time>2018-09-01T14:21:25Z</time>
      </trkpt>
      <trkpt lat="40.647500" lon="-4.958183">
        <ele>1883.0</ele>
        <time>2018-09-01T14:21:26Z</time>
      </trkpt>
      <trkpt lat="40.647467" lon="-4.958067">
        <ele>1881.0</ele>
        <time>2018-09-01T14:21:27Z</time>
      </trkpt>
      <trkpt lat="40.647433" lon="-4.957950">
        <ele>1877.0</ele>
        <time>2018-09-01T14:21:28Z</time>
      </trkpt>
      <trkpt lat="40.647383" lon="-4.957817">
        <ele>1872.0</ele>
        <time>2018-09-01T14:21:29Z</time>
      </trkpt>
      <trkpt lat="40.647350" lon="-4.957667">
        <ele>1866.0</ele>
        <time>2018-09-01T14:21:30Z</time>
      </trkpt>
      <trkpt lat="40.647317" lon="-4.957500">
        <ele>1862.0</ele>
        <time>2018-09-01T14:21:31Z</time>
      </trkpt>
      <trkpt lat="40.647283" lon="-4.957350">
        <ele>1859.0</ele>
        <time>2018-09-01T14:21:32Z</time>
      </trkpt>
      <trkpt lat="40.647250" lon="-4.957200">
        <ele>1858.0</ele>
        <time>2018-09-01T14:21:33Z</time>
      </trkpt>
      <trkpt lat="40.647217" lon="-4.957067">
        <ele>1857.0</ele>
        <time>2018-09-01T14:21:34Z</time>
      </trkpt>
      <trkpt lat="40.647183" lon="-4.956933">
        <ele>1856.0</ele>
        <time>2018-09-01T14:21:35Z</time>
      </trkpt>
      <trkpt lat="40.647150" lon="-4.956800">
        <ele>1853.0</ele>
        <time>2018-09-01T14:21:36Z</time>
      </trkpt>
      <trkpt lat="40.647133" lon="-4.956650">
        <ele>1849.0</ele>
        <time>2018-09-01T14:21:37Z</time>
      </trkpt>
      <trkpt lat="40.647100" lon="-4.956500">
        <ele>1844.0</ele>
        <time>2018-09-01T14:21:38Z</time>
      </trkpt>
      <trkpt lat="40.647050" lon="-4.956350">
        <ele>1839.0</ele>
        <time>2018-09-01T14:21:39Z</time>
      </trkpt>
      <trkpt lat="40.647000" lon="-4.956217">
        <ele>1836.0</ele>
        <time>2018-09-01T14:21:40Z</time>
      </trkpt>
      <trkpt lat="40.646950" lon="-4.956083">
        <ele>1833.0</ele>
        <time>2018-09-01T14:21:41Z</time>
      </trkpt>
      <trkpt lat="40.646917" lon="-4.955967">
        <ele>1829.0</ele>
        <time>2018-09-01T14:21:42Z</time>
      </trkpt>
      <trkpt lat="40.646883" lon="-4.955833">
        <ele>1825.0</ele>
        <time>2018-09-01T14:21:43Z</time>
      </trkpt>
      <trkpt lat="40.646867" lon="-4.955683">
        <ele>1821.0</ele>
        <time>2018-09-01T14:21:44Z</time>
      </trkpt>
      <trkpt lat="40.646833" lon="-4.955533">
        <ele>1817.0</ele>
        <time>2018-09-01T14:21:45Z</time>
      </trkpt>
      <trkpt lat="40.646800" lon="-4.955400">
        <ele>1815.0</ele>
        <time>2018-09-01T14:21:46Z</time>
      </trkpt>
      <trkpt lat="40.646767" lon="-4.955267">
        <ele>1812.0</ele>
        <time>2018-09-01T14:21:47Z</time>
      </trkpt>
      <trkpt lat="40.646733" lon="-4.955150">
        <ele>1810.0</ele>
        <time>2018-09-01T14:21:48Z</time>
      </trkpt>
      <trkpt lat="40.646717" lon="-4.955017">
        <ele>1806.0</ele>
        <time>2018-09-01T14:21:49Z</time>
      </trkpt>
      <trkpt lat="40.646683" lon="-4.954867">
        <ele>1802.0</ele>
        <time>2018-09-01T14:21:50Z</time>
      </trkpt>
      <trkpt lat="40.646650" lon="-4.954700">
        <ele>1798.0</ele>
        <time>2018-09-01T14:21:51Z</time>
      </trkpt>
      <trkpt lat="40.646617" lon="-4.954550">
        <ele>1794.0</ele>
        <time>2018-09-01T14:21:52Z</time>
      </trkpt>
      <trkpt lat="40.646583" lon="-4.954400">
        <ele>1792.0</ele>
        <time>2018-09-01T14:21:53Z</time>
      </trkpt>
      <trkpt lat="40.646550" lon="-4.954267">
        <ele>1790.0</ele>
        <time>2018-09-01T14:21:54Z</time>
      </trkpt>
      <trkpt lat="40.646533" lon="-4.954133">
        <ele>1788.0</ele>
        <time>2018-09-01T14:21:55Z</time>
      </trkpt>
      <trkpt lat="40.646517" lon="-4.954000">
        <ele>1785.0</ele>
        <time>2018-09-01T14:21:56Z</time>
      </trkpt>
      <trkpt lat="40.646483" lon="-4.953867">
        <ele>1781.0</ele>
        <time>2018-09-01T14:21:57Z</time>
      </trkpt>
      <trkpt lat="40.646450" lon="-4.953717">
        <ele>1776.0</ele>
        <time>2018-09-01T14:21:58Z</time>
      </trkpt>
      <trkpt lat="40.646433" lon="-4.953567">
        <ele>1772.0</ele>
        <time>2018-09-01T14:21:59Z</time>
      </trkpt>
      <trkpt lat="40.646400" lon="-4.953400">
        <ele>1769.0</ele>
        <time>2018-09-01T14:22:00Z</time>
      </trkpt>
      <trkpt lat="40.646383" lon="-4.953233">
        <ele>1766.0</ele>
        <time>2018-09-01T14:22:01Z</time>
      </trkpt>
      <trkpt lat="40.646367" lon="-4.953067">
        <ele>1764.0</ele>
        <time>2018-09-01T14:22:02Z</time>
      </trkpt>
      <trkpt lat="40.646333" lon="-4.952917">
        <ele>1763.0</ele>
        <time>2018-09-01T14:22:03Z</time>
      </trkpt>
      <trkpt lat="40.646283" lon="-4.952800">
        <ele>1761.0</ele>
        <time>2018-09-01T14:22:04Z</time>
      </trkpt>
      <trkpt lat="40.646233" lon="-4.952667">
        <ele>1759.0</ele>
        <time>2018-09-01T14:22:05Z</time>
      </trkpt>
      <trkpt lat="40.646183" lon="-4.952533">
        <ele>1756.0</ele>
        <time>2018-09-01T14:22:06Z</time>
      </trkpt>
      <trkpt lat="40.646133" lon="-4.952400">
        <ele>1754.0</ele>
        <time>2018-09-01T14:22:07Z</time>
      </trkpt>
      <trkpt lat="40.646067" lon="-4.952267">
        <ele>1752.0</ele>
        <time>2018-09-01T14:22:08Z</time>
      </trkpt>
      <trkpt lat="40.646017" lon="-4.952150">
        <ele>1749.0</ele>
        <time>2018-09-01T14:22:09Z</time>
      </trkpt>
      <trkpt lat="40.645950" lon="-4.952017">
        <ele>1747.0</ele>
        <time>2018-09-01T14:22:10Z</time>
      </trkpt>
      <trkpt lat="40.645883" lon="-4.951900">
        <ele>1745.0</ele>
        <time>2018-09-01T14:22:11Z</time>
      </trkpt>
      <trkpt lat="40.645817" lon="-4.951767">
        <ele>1743.0</ele>
        <time>2018-09-01T14:22:12Z</time>
      </trkpt>
      <trkpt lat="40.645750" lon="-4.951617">
        <ele>1741.0</ele>
        <time>2018-09-01T14:22:13Z</time>
      </trkpt>
      <trkpt lat="40.645700" lon="-4.951483">
        <ele>1739.0</ele>
        <time>2018-09-01T14:22:14Z</time>
      </trkpt>
      <trkpt lat="40.645633" lon="-4.951350">
        <ele>1737.0</ele>
        <time>2018-09-01T14:22:15Z</time>
      </trkpt>
      <trkpt lat="40.645567" lon="-4.951217">
        <ele>1735.0</ele>
        <time>2018-09-01T14:22:16Z</time>
      </trkpt>
      <trkpt lat="40.645500" lon="-4.951083">
        <ele>1733.0</ele>
        <time>2018-09-01T14:22:17Z</time>
      </trkpt>
      <trkpt lat="40.645433" lon="-4.950950">
        <ele>1732.0</ele>
        <time>2018-09-01T14:22:18Z</time>
      </trkpt>
      <trkpt lat="40.645333" lon="-4.950833">
        <ele>1730.0</ele>
        <time>2018-09-01T14:22:19Z</time>
      </trkpt>
      <trkpt lat="40.645250" lon="-4.950717">
        <ele>1728.0</ele>
        <time>2018-09-01T14:22:20Z</time>
      </trkpt>
      <trkpt lat="40.645150" lon="-4.950617">
        <ele>1726.0</ele>
        <time>2018-09-01T14:22:21Z</time>
      </trkpt>
      <trkpt lat="40.645050" lon="-4.950500">
        <ele>1724.0</ele>
        <time>2018-09-01T14:22:22Z</time>
      </trkpt>
      <trkpt lat="40.644967" lon="-4.950383">
        <ele>1722.0</ele>
        <time>2018-09-01T14:22:23Z</time>
      </trkpt>
      <trkpt lat="40.644883" lon="-4.950267">
        <ele>1719.0</ele>
        <time>2018-09-01T14:22:24Z</time>
      </trkpt>
      <trkpt lat="40.644800" lon="-4.950150">
        <ele>1716.0</ele>
        <time>2018-09-01T14:22:25Z</time>
      </trkpt>
      <trkpt lat="40.644717" lon="-4.950017">
        <ele>1714.0</ele>
        <time>2018-09-01T14:22:26Z</time>
      </trkpt>
      <trkpt lat="40.644617" lon="-4.949900">
        <ele>1712.0</ele>
        <time>2018-09-01T14:22:27Z</time>
      </trkpt>
      <trkpt lat="40.644533" lon="-4.949767">
        <ele>1711.0</ele>
        <time>2018-09-01T14:22:28Z</time>
      </trkpt>
      <trkpt lat="40.644450" lon="-4.949650">
        <ele>1711.0</ele>
        <time>2018-09-01T14:22:29Z</time>
      </trkpt>
      <trkpt lat="40.644367" lon="-4.949533">
        <ele>1710.0</ele>
        <time>2018-09-01T14:22:30Z</time>
      </trkpt>
      <trkpt lat="40.644283" lon="-4.949417">
        <ele>1708.0</ele>
        <time>2018-09-01T14:22:31Z</time>
      </trkpt>
      <trkpt lat="40.644200" lon="-4.949300">
        <ele>1706.0</ele>
        <time>2018-09-01T14:22:32Z</time>
      </trkpt>
      <trkpt lat="40.644100" lon="-4.949167">
        <ele>1703.0</ele>
        <time>2018-09-01T14:22:33Z</time>
      </trkpt>
      <trkpt lat="40.644000" lon="-4.949050">
        <ele>1701.0</ele>
        <time>2018-09-01T14:22:34Z</time>
      </trkpt>
      <trkpt lat="40.643900" lon="-4.948933">
        <ele>1700.0</ele>
        <time>2018-09-01T14:22:35Z</time>
      </trkpt>
      <trkpt lat="40.643783" lon="-4.948833">
        <ele>1698.0</ele>
        <time>2018-09-01T14:22:36Z</time>
      </trkpt>
      <trkpt lat="40.643683" lon="-4.948750">
        <ele>1697.0</ele>
        <time>2018-09-01T14:22:37Z</time>
      </trkpt>
      <trkpt lat="40.643583" lon="-4.948650">
        <ele>1694.0</ele>
        <time>2018-09-01T14:22:38Z</time>
      </trkpt>
      <trkpt lat="40.643467" lon="-4.948550">
        <ele>1691.0</ele>
        <time>2018-09-01T14:22:39Z</time>
      </trkpt>
      <trkpt lat="40.643350" lon="-4.948433">
        <ele>1688.0</ele>
        <time>2018-09-01T14:22:40Z</time>
      </trkpt>
      <trkpt lat="40.643233" lon="-4.948317">
        <ele>1685.0</ele>
        <time>2018-09-01T14:22:41Z</time>
      </trkpt>
      <trkpt lat="40.643117" lon="-4.948200">
        <ele>1683.0</ele>
        <time>2018-09-01T14:22:42Z</time>
      </trkpt>
      <trkpt lat="40.643017" lon="-4.948083">
        <ele>1682.0</ele>
        <time>2018-09-01T14:22:43Z</time>
      </trkpt>
      <trkpt lat="40.642933" lon="-4.947950">
        <ele>1681.0</ele>
        <time>2018-09-01T14:22:44Z</time>
      </trkpt>
      <trkpt lat="40.642833" lon="-4.947833">
        <ele>1679.0</ele>
        <time>2018-09-01T14:22:45Z</time>
      </trkpt>
      <trkpt lat="40.642750" lon="-4.947700">
        <ele>1677.0</ele>
        <time>2018-09-01T14:22:46Z</time>
      </trkpt>
      <trkpt lat="40.642650" lon="-4.947567">
        <ele>1675.0</ele>
        <time>2018-09-01T14:22:47Z</time>
      </trkpt>
      <trkpt lat="40.642550" lon="-4.947450">
        <ele>1673.0</ele>
        <time>2018-09-01T14:22:48Z</time>
      </trkpt>
      <trkpt lat="40.642433" lon="-4.947317">
        <ele>1671.0</ele>
        <time>2018-09-01T14:22:49Z</time>
      </trkpt>
      <trkpt lat="40.642317" lon="-4.947233">
        <ele>1670.0</ele>
        <time>2018-09-01T14:22:50Z</time>
      </trkpt>
      <trkpt lat="40.642167" lon="-4.947167">
        <ele>1669.0</ele>
        <time>2018-09-01T14:22:51Z</time>
      </trkpt>
      <trkpt lat="40.642033" lon="-4.947150">
        <ele>1668.0</ele>
        <time>2018-09-01T14:22:52Z</time>
      </trkpt>
      <trkpt lat="40.641900" lon="-4.947133">
        <ele>1667.0</ele>
        <time>2018-09-01T14:22:53Z</time>
      </trkpt>
      <trkpt lat="40.641783" lon="-4.947150">
        <ele>1667.0</ele>
        <time>2018-09-01T14:22:54Z</time>
      </trkpt>
      <trkpt lat="40.641650" lon="-4.947150">
        <ele>1666.0</ele>
        <time>2018-09-01T14:22:55Z</time>
      </trkpt>
      <trkpt lat="40.641533" lon="-4.947150">
        <ele>1665.0</ele>
        <time>2018-09-01T14:22:56Z</time>
      </trkpt>
      <trkpt lat="40.641400" lon="-4.947150">
        <ele>1664.0</ele>
        <time>2018-09-01T14:22:57Z</time>
      </trkpt>
      <trkpt lat="40.641267" lon="-4.947150">
        <ele>1663.0</ele>
        <time>2018-09-01T14:22:58Z</time>
      </trkpt>
      <trkpt lat="40.641117" lon="-4.947150">
        <ele>1661.0</ele>
        <time>2018-09-01T14:22:59Z</time>
      </trkpt>
      <trkpt lat="40.640983" lon="-4.947183">
        <ele>1661.0</ele>
        <time>2018-09-01T14:23:00Z</time>
      </trkpt>
      <trkpt lat="40.640850" lon="-4.947217">
        <ele>1662.0</ele>
        <time>2018-09-01T14:23:01Z</time>
      </trkpt>
      <trkpt lat="40.640717" lon="-4.947250">
        <ele>1663.0</ele>
        <time>2018-09-01T14:23:02Z</time>
      </trkpt>
      <trkpt lat="40.640600" lon="-4.947283">
        <ele>1665.0</ele>
        <time>2018-09-01T14:23:03Z</time>
      </trkpt>
      <trkpt lat="40.640483" lon="-4.947300">
        <ele>1666.0</ele>
        <time>2018-09-01T14:23:04Z</time>
      </trkpt>
      <trkpt lat="40.640367" lon="-4.947317">
        <ele>1667.0</ele>
        <time>2018-09-01T14:23:05Z</time>
      </trkpt>
      <trkpt lat="40.640267" lon="-4.947333">
        <ele>1668.0</ele>
        <time>2018-09-01T14:23:06Z</time>
      </trkpt>
      <trkpt lat="40.640167" lon="-4.947350">
        <ele>1669.0</ele>
        <time>2018-09-01T14:23:07Z</time>
      </trkpt>
      <trkpt lat="40.640083" lon="-4.947383">
        <ele>1668.0</ele>
        <time>2018-09-01T14:23:08Z</time>
      </trkpt>
      <trkpt lat="40.640000" lon="-4.947450">
        <ele>1666.0</ele>
        <time>2018-09-01T14:23:09Z</time>
      </trkpt>
      <trkpt lat="40.639900" lon="-4.947517">
        <ele>1663.0</ele>
        <time>2018-09-01T14:23:10Z</time>
      </trkpt>
      <trkpt lat="40.639800" lon="-4.947600">
        <ele>1660.0</ele>
        <time>2018-09-01T14:23:11Z</time>
      </trkpt>
      <trkpt lat="40.639683" lon="-4.947683">
        <ele>1658.0</ele>
        <time>2018-09-01T14:23:12Z</time>
      </trkpt>
      <trkpt lat="40.639583" lon="-4.947767">
        <ele>1658.0</ele>
        <time>2018-09-01T14:23:13Z</time>
      </trkpt>
      <trkpt lat="40.639467" lon="-4.947833">
        <ele>1658.0</ele>
        <time>2018-09-01T14:23:14Z</time>
      </trkpt>
      <trkpt lat="40.639367" lon="-4.947867">
        <ele>1658.0</ele>
        <time>2018-09-01T14:23:15Z</time>
      </trkpt>
      <trkpt lat="40.639267" lon="-4.947900">
        <ele>1656.0</ele>
        <time>2018-09-01T14:23:16Z</time>
      </trkpt>
      <trkpt lat="40.639167" lon="-4.947933">
        <ele>1653.0</ele>
        <time>2018-09-01T14:23:17Z</time>
      </trkpt>
      <trkpt lat="40.639067" lon="-4.947967">
        <ele>1649.0</ele>
        <time>2018-09-01T14:23:18Z</time>
      </trkpt>
      <trkpt lat="40.638950" lon="-4.948017">
        <ele>1645.0</ele>
        <time>2018-09-01T14:23:19Z</time>
      </trkpt>
      <trkpt lat="40.638833" lon="-4.948050">
        <ele>1641.0</ele>
        <time>2018-09-01T14:23:20Z</time>
      </trkpt>
      <trkpt lat="40.638717" lon="-4.948083">
        <ele>1637.0</ele>
        <time>2018-09-01T14:23:21Z</time>
      </trkpt>
      <trkpt lat="40.638583" lon="-4.948133">
        <ele>1633.0</ele>
        <time>2018-09-01T14:23:22Z</time>
      </trkpt>
      <trkpt lat="40.638467" lon="-4.948167">
        <ele>1629.0</ele>
        <time>2018-09-01T14:23:23Z</time>
      </trkpt>
      <trkpt lat="40.638333" lon="-4.948200">
        <ele>1625.0</ele>
        <time>2018-09-01T14:23:24Z</time>
      </trkpt>
      <trkpt lat="40.638217" lon="-4.948233">
        <ele>1622.0</ele>
        <time>2018-09-01T14:23:25Z</time>
      </trkpt>
      <trkpt lat="40.638083" lon="-4.948250">
        <ele>1618.0</ele>
        <time>2018-09-01T14:23:26Z</time>
      </trkpt>
      <trkpt lat="40.637950" lon="-4.948250">
        <ele>1615.0</ele>
        <time>2018-09-01T14:23:27Z</time>
      </trkpt>
      <trkpt lat="40.637833" lon="-4.948250">
        <ele>1612.0</ele>
        <time>2018-09-01T14:23:28Z</time>
      </trkpt>
      <trkpt lat="40.637700" lon="-4.948267">
        <ele>1608.0</ele>
        <time>2018-09-01T14:23:29Z</time>
      </trkpt>
      <trkpt lat="40.637583" lon="-4.948283">
        <ele>1605.0</ele>
        <time>2018-09-01T14:23:30Z</time>
      </trkpt>
      <trkpt lat="40.637450" lon="-4.948283">
        <ele>1603.0</ele>
        <time>2018-09-01T14:23:31Z</time>
      </trkpt>
      <trkpt lat="40.637333" lon="-4.948283">
        <ele>1601.0</ele>
        <time>2018-09-01T14:23:32Z</time>
      </trkpt>
      <trkpt lat="40.637233" lon="-4.948267">
        <ele>1597.0</ele>
        <time>2018-09-01T14:23:33Z</time>
      </trkpt>
      <trkpt lat="40.637117" lon="-4.948267">
        <ele>1593.0</ele>
        <time>2018-09-01T14:23:34Z</time>
      </trkpt>
      <trkpt lat="40.637000" lon="-4.948267">
        <ele>1589.0</ele>
        <time>2018-09-01T14:23:35Z</time>
      </trkpt>
      <trkpt lat="40.636867" lon="-4.948250">
        <ele>1584.0</ele>
        <time>2018-09-01T14:23:36Z</time>
      </trkpt>
      <trkpt lat="40.636717" lon="-4.948250">
        <ele>1581.0</ele>
        <time>2018-09-01T14:23:37Z</time>
      </trkpt>
      <trkpt lat="40.636583" lon="-4.948217">
        <ele>1580.0</ele>
        <time>2018-09-01T14:23:38Z</time>
      </trkpt>
      <trkpt lat="40.636467" lon="-4.948200">
        <ele>1581.0</ele>
        <time>2018-09-01T14:23:39Z</time>
      </trkpt>
      <trkpt lat="40.636367" lon="-4.948167">
        <ele>1580.0</ele>
        <time>2018-09-01T14:23:40Z</time>
      </trkpt>
      <trkpt lat="40.636267" lon="-4.948133">
        <ele>1577.0</ele>
        <time>2018-09-01T14:23:41Z</time>
      </trkpt>
      <trkpt lat="40.636150" lon="-4.948100">
        <ele>1573.0</ele>
        <time>2018-09-01T14:23:42Z</time>
      </trkpt>
      <trkpt lat="40.636017" lon="-4.948067">
        <ele>1568.0</ele>
        <time>2018-09-01T14:23:43Z</time>
      </trkpt>
      <trkpt lat="40.635867" lon="-4.948033">
        <ele>1564.0</ele>
        <time>2018-09-01T14:23:44Z</time>
      </trkpt>
      <trkpt lat="40.635733" lon="-4.948000">
        <ele>1563.0</ele>
        <time>2018-09-01T14:23:45Z</time>
      </trkpt>
      <trkpt lat="40.635600" lon="-4.948000">
        <ele>1562.0</ele>
        <time>2018-09-01T14:23:46Z</time>
      </trkpt>
      <trkpt lat="40.635467" lon="-4.947983">
        <ele>1561.0</ele>
        <time>2018-09-01T14:23:47Z</time>
      </trkpt>
      <trkpt lat="40.635350" lon="-4.947983">
        <ele>1560.0</ele>
        <time>2018-09-01T14:23:48Z</time>
      </trkpt>
      <trkpt lat="40.635233" lon="-4.947967">
        <ele>1558.0</ele>
        <time>2018-09-01T14:23:49Z</time>
      </trkpt>
      <trkpt lat="40.635100" lon="-4.947950">
        <ele>1554.0</ele>
        <time>2018-09-01T14:23:50Z</time>
      </trkpt>
      <trkpt lat="40.634967" lon="-4.947967">
        <ele>1551.0</ele>
        <time>2018-09-01T14:23:51Z</time>
      </trkpt>
      <trkpt lat="40.634833" lon="-4.947983">
        <ele>1548.0</ele>
        <time>2018-09-01T14:23:52Z</time>
      </trkpt>
      <trkpt lat="40.634717" lon="-4.948017">
        <ele>1546.0</ele>
        <time>2018-09-01T14:23:53Z</time>
      </trkpt>
      <trkpt lat="40.634600" lon="-4.948050">
        <ele>1544.0</ele>
        <time>2018-09-01T14:23:54Z</time>
      </trkpt>
      <trkpt lat="40.634500" lon="-4.948100">
        <ele>1542.0</ele>
        <time>2018-09-01T14:23:55Z</time>
      </trkpt>
      <trkpt lat="40.634400" lon="-4.948167">
        <ele>1539.0</ele>
        <time>2018-09-01T14:23:56Z</time>
      </trkpt>
      <trkpt lat="40.634300" lon="-4.948233">
        <ele>1536.0</ele>
        <time>2018-09-01T14:23:57Z</time>
      </trkpt>
      <trkpt lat="40.634217" lon="-4.948333">
        <ele>1533.0</ele>
        <time>2018-09-01T14:23:58Z</time>
      </trkpt>
      <trkpt lat="40.634150" lon="-4.948417">
        <ele>1531.0</ele>
        <time>2018-09-01T14:23:59Z</time>
      </trkpt>
      <trkpt lat="40.634083" lon="-4.948500">
        <ele>1529.0</ele>
        <time>2018-09-01T14:24:00Z</time>
      </trkpt>
      <trkpt lat="40.634017" lon="-4.948600">
        <ele>1527.0</ele>
        <time>2018-09-01T14:24:01Z</time>
      </trkpt>
      <trkpt lat="40.633967" lon="-4.948683">
        <ele>1525.0</ele>
        <time>2018-09-01T14:24:02Z</time>
      </trkpt>
      <trkpt lat="40.633900" lon="-4.948783">
        <ele>1522.0</ele>
        <time>2018-09-01T14:24:03Z</time>
      </trkpt>
      <trkpt lat="40.633833" lon="-4.948883">
        <ele>1520.0</ele>
        <time>2018-09-01T14:24:04Z</time>
      </trkpt>
      <trkpt lat="40.633750" lon="-4.948967">
        <ele>1517.0</ele>
        <time>2018-09-01T14:24:05Z</time>
      </trkpt>
      <trkpt lat="40.633650" lon="-4.949050">
        <ele>1515.0</ele>
        <time>2018-09-01T14:24:06Z</time>
      </trkpt>
      <trkpt lat="40.633533" lon="-4.949117">
        <ele>1513.0</ele>
        <time>2018-09-01T14:24:07Z</time>
      </trkpt>
      <trkpt lat="40.633433" lon="-4.949183">
        <ele>1510.0</ele>
        <time>2018-09-01T14:24:08Z</time>
      </trkpt>
      <trkpt lat="40.633333" lon="-4.949250">
        <ele>1508.0</ele>
        <time>2018-09-01T14:24:09Z</time>
      </trkpt>
      <trkpt lat="40.633217" lon="-4.949317">
        <ele>1506.0</ele>
        <time>2018-09-01T14:24:10Z</time>
      </trkpt>
      <trkpt lat="40.633117" lon="-4.949367">
        <ele>1504.0</ele>
        <time>2018-09-01T14:24:11Z</time>
      </trkpt>
      <trkpt lat="40.633000" lon="-4.949417">
        <ele>1501.0</ele>
        <time>2018-09-01T14:24:12Z</time>
      </trkpt>
      <trkpt lat="40.632867" lon="-4.949467">
        <ele>1499.0</ele>
        <time>2018-09-01T14:24:13Z</time>
      </trkpt>
      <trkpt lat="40.632717" lon="-4.949517">
        <ele>1497.0</ele>
        <time>2018-09-01T14:24:14Z</time>
      </trkpt>
      <trkpt lat="40.632583" lon="-4.949550">
        <ele>1495.0</ele>
        <time>2018-09-01T14:24:15Z</time>
      </trkpt>
      <trkpt lat="40.632467" lon="-4.949583">
        <ele>1495.0</ele>
        <time>2018-09-01T14:24:16Z</time>
      </trkpt>
      <trkpt lat="40.632333" lon="-4.949633">
        <ele>1494.0</ele>
        <time>2018-09-01T14:24:17Z</time>
      </trkpt>
      <trkpt lat="40.632217" lon="-4.949667">
        <ele>1493.0</ele>
        <time>2018-09-01T14:24:18Z</time>
      </trkpt>
      <trkpt lat="40.632083" lon="-4.949717">
        <ele>1492.0</ele>
        <time>2018-09-01T14:24:19Z</time>
      </trkpt>
      <trkpt lat="40.631950" lon="-4.949767">
        <ele>1491.0</ele>
        <time>2018-09-01T14:24:20Z</time>
      </trkpt>
      <trkpt lat="40.631817" lon="-4.949817">
        <ele>1490.0</ele>
        <time>2018-09-01T14:24:21Z</time>
      </trkpt>
      <trkpt lat="40.631683" lon="-4.949850">
        <ele>1489.0</ele>
        <time>2018-09-01T14:24:22Z</time>
      </trkpt>
      <trkpt lat="40.631567" lon="-4.949883">
        <ele>1489.0</ele>
        <time>2018-09-01T14:24:23Z</time>
      </trkpt>
      <trkpt lat="40.631433" lon="-4.949933">
        <ele>1488.0</ele>
        <time>2018-09-01T14:24:24Z</time>
      </trkpt>
      <trkpt lat="40.631300" lon="-4.949967">
        <ele>1487.0</ele>
        <time>2018-09-01T14:24:25Z</time>
      </trkpt>
      <trkpt lat="40.631183" lon="-4.950000">
        <ele>1485.0</ele>
        <time>2018-09-01T14:24:26Z</time>
      </trkpt>
      <trkpt lat="40.631050" lon="-4.950033">
        <ele>1482.0</ele>
        <time>2018-09-01T14:24:27Z</time>
      </trkpt>
      <trkpt lat="40.630917" lon="-4.950050">
        <ele>1479.0</ele>
        <time>2018-09-01T14:24:28Z</time>
      </trkpt>
      <trkpt lat="40.630767" lon="-4.950067">
        <ele>1476.0</ele>
        <time>2018-09-01T14:24:29Z</time>
      </trkpt>
      <trkpt lat="40.630633" lon="-4.950100">
        <ele>1474.0</ele>
        <time>2018-09-01T14:24:30Z</time>
      </trkpt>
      <trkpt lat="40.630500" lon="-4.950133">
        <ele>1471.0</ele>
        <time>2018-09-01T14:24:31Z</time>
      </trkpt>
      <trkpt lat="40.630367" lon="-4.950183">
        <ele>1470.0</ele>
        <time>2018-09-01T14:24:32Z</time>
      </trkpt>
      <trkpt lat="40.630233" lon="-4.950217">
        <ele>1468.0</ele>
        <time>2018-09-01T14:24:33Z</time>
      </trkpt>
      <trkpt lat="40.630100" lon="-4.950250">
        <ele>1467.0</ele>
        <time>2018-09-01T14:24:34Z</time>
      </trkpt>
      <trkpt lat="40.629983" lon="-4.950300">
        <ele>1466.0</ele>
        <time>2018-09-01T14:24:35Z</time>
      </trkpt>
      <trkpt lat="40.629867" lon="-4.950367">
        <ele>1463.0</ele>
        <time>2018-09-01T14:24:36Z</time>
      </trkpt>
      <trkpt lat="40.629733" lon="-4.950417">
        <ele>1461.0</ele>
        <time>2018-09-01T14:24:37Z</time>
      </trkpt>
      <trkpt lat="40.629600" lon="-4.950483">
        <ele>1458.0</ele>
        <time>2018-09-01T14:24:38Z</time>
      </trkpt>
      <trkpt lat="40.629467" lon="-4.950533">
        <ele>1457.0</ele>
        <time>2018-09-01T14:24:39Z</time>
      </trkpt>
      <trkpt lat="40.629333" lon="-4.950600">
        <ele>1455.0</ele>
        <time>2018-09-01T14:24:40Z</time>
      </trkpt>
      <trkpt lat="40.629217" lon="-4.950650">
        <ele>1454.0</ele>
        <time>2018-09-01T14:24:41Z</time>
      </trkpt>
      <trkpt lat="40.629100" lon="-4.950717">
        <ele>1454.0</ele>
        <time>2018-09-01T14:24:42Z</time>
      </trkpt>
      <trkpt lat="40.628983" lon="-4.950800">
        <ele>1453.0</ele>
        <time>2018-09-01T14:24:43Z</time>
      </trkpt>
      <trkpt lat="40.628883" lon="-4.950867">
        <ele>1451.0</ele>
        <time>2018-09-01T14:24:44Z</time>
      </trkpt>
      <trkpt lat="40.628783" lon="-4.950950">
        <ele>1450.0</ele>
        <time>2018-09-01T14:24:45Z</time>
      </trkpt>
      <trkpt lat="40.628700" lon="-4.951033">
        <ele>1448.0</ele>
        <time>2018-09-01T14:24:46Z</time>
      </trkpt>
      <trkpt lat="40.628617" lon="-4.951133">
        <ele>1446.0</ele>
        <time>2018-09-01T14:24:47Z</time>
      </trkpt>
      <trkpt lat="40.628550" lon="-4.951250">
        <ele>1444.0</ele>
        <time>2018-09-01T14:24:48Z</time>
      </trkpt>
      <trkpt lat="40.628500" lon="-4.951367">
        <ele>1441.0</ele>
        <time>2018-09-01T14:24:49Z</time>
      </trkpt>
      <trkpt lat="40.628467" lon="-4.951483">
        <ele>1440.0</ele>
        <time>2018-09-01T14:24:50Z</time>
      </trkpt>
      <trkpt lat="40.628450" lon="-4.951583">
        <ele>1439.0</ele>
        <time>2018-09-01T14:24:51Z</time>
      </trkpt>
      <trkpt lat="40.628433" lon="-4.951683">
        <ele>1438.0</ele>
        <time>2018-09-01T14:24:52Z</time>
      </trkpt>
      <trkpt lat="40.628417" lon="-4.951767">
        <ele>1437.0</ele>
        <time>2018-09-01T14:24:53Z</time>
      </trkpt>
      <trkpt lat="40.628400" lon="-4.951867">
        <ele>1435.0</ele>
        <time>2018-09-01T14:24:54Z</time>
      </trkpt>
      <trkpt lat="40.628400" lon="-4.951967">
        <ele>1432.0</ele>
        <time>2018-09-01T14:24:55Z</time>
      </trkpt>
      <trkpt lat="40.628400" lon="-4.952067">
        <ele>1429.0</ele>
        <time>2018-09-01T14:24:56Z</time>
      </trkpt>
      <trkpt lat="40.628400" lon="-4.952167">
        <ele>1428.0</ele>
        <time>2018-09-01T14:24:57Z</time>
      </trkpt>
      <trkpt lat="40.628417" lon="-4.952250">
        <ele>1428.0</ele>
        <time>2018-09-01T14:24:58Z</time>
      </trkpt>
      <trkpt lat="40.628433" lon="-4.952333">
        <ele>1428.0</ele>
        <time>2018-09-01T14:24:59Z</time>
      </trkpt>
      <trkpt lat="40.628433" lon="-4.952417">
        <ele>1428.0</ele>
        <time>2018-09-01T14:25:00Z</time>
      </trkpt>
      <trkpt lat="40.628433" lon="-4.952500">
        <ele>1427.0</ele>
        <time>2018-09-01T14:25:01Z</time>
      </trkpt>
      <trkpt lat="40.628433" lon="-4.952583">
        <ele>1425.0</ele>
        <time>2018-09-01T14:25:02Z</time>
      </trkpt>
      <trkpt lat="40.628433" lon="-4.952683">
        <ele>1422.0</ele>
        <time>2018-09-01T14:25:03Z</time>
      </trkpt>
      <trkpt lat="40.628433" lon="-4.952783">
        <ele>1421.0</ele>
        <time>2018-09-01T14:25:04Z</time>
      </trkpt>
      <trkpt lat="40.628433" lon="-4.952883">
        <ele>1420.0</ele>
        <time>2018-09-01T14:25:05Z</time>
      </trkpt>
      <trkpt lat="40.628417" lon="-4.952983">
        <ele>1419.0</ele>
        <time>2018-09-01T14:25:06Z</time>
      </trkpt>
      <trkpt lat="40.628417" lon="-4.953067">
        <ele>1418.0</ele>
        <time>2018-09-01T14:25:07Z</time>
      </trkpt>
      <trkpt lat="40.628417" lon="-4.953167">
        <ele>1417.0</ele>
        <time>2018-09-01T14:25:08Z</time>
      </trkpt>
      <trkpt lat="40.628417" lon="-4.953250">
        <ele>1416.0</ele>
        <time>2018-09-01T14:25:09Z</time>
      </trkpt>
      <trkpt lat="40.628417" lon="-4.953333">
        <ele>1414.0</ele>
        <time>2018-09-01T14:25:10Z</time>
      </trkpt>
      <trkpt lat="40.628400" lon="-4.953450">
        <ele>1413.0</ele>
        <time>2018-09-01T14:25:11Z</time>
      </trkpt>
      <trkpt lat="40.628383" lon="-4.953567">
        <ele>1411.0</ele>
        <time>2018-09-01T14:25:12Z</time>
      </trkpt>
      <trkpt lat="40.628350" lon="-4.953700">
        <ele>1410.0</ele>
        <time>2018-09-01T14:25:13Z</time>
      </trkpt>
      <trkpt lat="40.628317" lon="-4.953817">
        <ele>1410.0</ele>
        <time>2018-09-01T14:25:14Z</time>
      </trkpt>
      <trkpt lat="40.628283" lon="-4.953933">
        <ele>1410.0</ele>
        <time>2018-09-01T14:25:15Z</time>
      </trkpt>
      <trkpt lat="40.628267" lon="-4.954033">
        <ele>1410.0</ele>
        <time>2018-09-01T14:25:16Z</time>
      </trkpt>
      <trkpt lat="40.628267" lon="-4.954150">
        <ele>1410.0</ele>
        <time>2018-09-01T14:25:17Z</time>
      </trkpt>
      <trkpt lat="40.628267" lon="-4.954250">
        <ele>1409.0</ele>
        <time>2018-09-01T14:25:18Z</time>
      </trkpt>
      <trkpt lat="40.628283" lon="-4.954350">
        <ele>1409.0</ele>
        <time>2018-09-01T14:25:19Z</time>
      </trkpt>
      <trkpt lat="40.628317" lon="-4.954433">
        <ele>1408.0</ele>
        <time>2018-09-01T14:25:20Z</time>
      </trkpt>
      <trkpt lat="40.628383" lon="-4.954500">
        <ele>1407.0</ele>
        <time>2018-09-01T14:25:21Z</time>
      </trkpt>
      <trkpt lat="40.628450" lon="-4.954550">
        <ele>1408.0</ele>
        <time>2018-09-01T14:25:22Z</time>
      </trkpt>
      <trkpt lat="40.628517" lon="-4.954600">
        <ele>1409.0</ele>
        <time>2018-09-01T14:25:23Z</time>
      </trkpt>
      <trkpt lat="40.628550" lon="-4.954633">
        <ele>1411.0</ele>
        <time>2018-09-01T14:25:24Z</time>
      </trkpt>
      <trkpt lat="40.628600" lon="-4.954683">
        <ele>1412.0</ele>
        <time>2018-09-01T14:25:25Z</time>
      </trkpt>
      <trkpt lat="40.628633" lon="-4.954717">
        <ele>1413.0</ele>
        <time>2018-09-01T14:25:26Z</time>
      </trkpt>
      <trkpt lat="40.628667" lon="-4.954733">
        <ele>1413.0</ele>
        <time>2018-09-01T14:25:27Z</time>
      </trkpt>
      <trkpt lat="40.628700" lon="-4.954767">
        <ele>1412.0</ele>
        <time>2018-09-01T14:25:28Z</time>
      </trkpt>
      <trkpt lat="40.628750" lon="-4.954783">
        <ele>1412.0</ele>
        <time>2018-09-01T14:25:29Z</time>
      </trkpt>
      <trkpt lat="40.628800" lon="-4.954800">
        <ele>1412.0</ele>
        <time>2018-09-01T14:25:30Z</time>
      </trkpt>
      <trkpt lat="40.628850" lon="-4.954783">
        <ele>1412.0</ele>
        <time>2018-09-01T14:25:31Z</time>
      </trkpt>
      <trkpt lat="40.628883" lon="-4.954717">
        <ele>1411.0</ele>
        <time>2018-09-01T14:25:32Z</time>
      </trkpt>
      <trkpt lat="40.628933" lon="-4.954617">
        <ele>1410.0</ele>
        <time>2018-09-01T14:25:33Z</time>
      </trkpt>
      <trkpt lat="40.628950" lon="-4.954517">
        <ele>1411.0</ele>
        <time>2018-09-01T14:25:34Z</time>
      </trkpt>
      <trkpt lat="40.628967" lon="-4.954400">
        <ele>1412.0</ele>
        <time>2018-09-01T14:25:35Z</time>
      </trkpt>
      <trkpt lat="40.628950" lon="-4.954283">
        <ele>1413.0</ele>
        <time>2018-09-01T14:25:36Z</time>
      </trkpt>
      <trkpt lat="40.628917" lon="-4.954150">
        <ele>1413.0</ele>
        <time>2018-09-01T14:25:37Z</time>
      </trkpt>
      <trkpt lat="40.628883" lon="-4.954033">
        <ele>1413.0</ele>
        <time>2018-09-01T14:25:38Z</time>
      </trkpt>
      <trkpt lat="40.628883" lon="-4.953900">
        <ele>1411.0</ele>
        <time>2018-09-01T14:25:39Z</time>
      </trkpt>
      <trkpt lat="40.628883" lon="-4.953783">
        <ele>1409.0</ele>
        <time>2018-09-01T14:25:40Z</time>
      </trkpt>
      <trkpt lat="40.628900" lon="-4.953667">
        <ele>1408.0</ele>
        <time>2018-09-01T14:25:41Z</time>
      </trkpt>
      <trkpt lat="40.628917" lon="-4.953550">
        <ele>1407.0</ele>
        <time>2018-09-01T14:25:42Z</time>
      </trkpt>
      <trkpt lat="40.628933" lon="-4.953450">
        <ele>1406.0</ele>
        <time>2018-09-01T14:25:43Z</time>
      </trkpt>
      <trkpt lat="40.628933" lon="-4.953350">
        <ele>1406.0</ele>
        <time>2018-09-01T14:25:44Z</time>
      </trkpt>
      <trkpt lat="40.628967" lon="-4.953267">
        <ele>1404.0</ele>
        <time>2018-09-01T14:25:45Z</time>
      </trkpt>
      <trkpt lat="40.629000" lon="-4.953183">
        <ele>1402.0</ele>
        <time>2018-09-01T14:25:46Z</time>
      </trkpt>
      <trkpt lat="40.629050" lon="-4.953133">
        <ele>1399.0</ele>
        <time>2018-09-01T14:25:47Z</time>
      </trkpt>
      <trkpt lat="40.629100" lon="-4.953117">
        <ele>1397.0</ele>
        <time>2018-09-01T14:25:48Z</time>
      </trkpt>
      <trkpt lat="40.629167" lon="-4.953100">
        <ele>1395.0</ele>
        <time>2018-09-01T14:25:49Z</time>
      </trkpt>
      <trkpt lat="40.629217" lon="-4.953133">
        <ele>1393.0</ele>
        <time>2018-09-01T14:25:50Z</time>
      </trkpt>
      <trkpt lat="40.629250" lon="-4.953200">
        <ele>1391.0</ele>
        <time>2018-09-01T14:25:51Z</time>
      </trkpt>
      <trkpt lat="40.629283" lon="-4.953283">
        <ele>1389.0</ele>
        <time>2018-09-01T14:25:52Z</time>
      </trkpt>
      <trkpt lat="40.629300" lon="-4.953383">
        <ele>1388.0</ele>
        <time>2018-09-01T14:25:53Z</time>
      </trkpt>
      <trkpt lat="40.629317" lon="-4.953483">
        <ele>1386.0</ele>
        <time>2018-09-01T14:25:54Z</time>
      </trkpt>
      <trkpt lat="40.629300" lon="-4.953583">
        <ele>1385.0</ele>
        <time>2018-09-01T14:25:55Z</time>
      </trkpt>
      <trkpt lat="40.629283" lon="-4.953700">
        <ele>1384.0</ele>
        <time>2018-09-01T14:25:56Z</time>
      </trkpt>
      <trkpt lat="40.629233" lon="-4.953817">
        <ele>1382.0</ele>
        <time>2018-09-01T14:25:57Z</time>
      </trkpt>
      <trkpt lat="40.629183" lon="-4.953933">
        <ele>1382.0</ele>
        <time>2018-09-01T14:25:58Z</time>
      </trkpt>
      <trkpt lat="40.629133" lon="-4.954033">
        <ele>1382.0</ele>
        <time>2018-09-01T14:25:59Z</time>
      </trkpt>
      <trkpt lat="40.629083" lon="-4.954133">
        <ele>1382.0</ele>
        <time>2018-09-01T14:26:00Z</time>
      </trkpt>
      <trkpt lat="40.629050" lon="-4.954233">
        <ele>1382.0</ele>
        <time>2018-09-01T14:26:01Z</time>
      </trkpt>
      <trkpt lat="40.629033" lon="-4.954317">
        <ele>1382.0</ele>
        <time>2018-09-01T14:26:02Z</time>
      </trkpt>
      <trkpt lat="40.629050" lon="-4.954383">
        <ele>1383.0</ele>
        <time>2018-09-01T14:26:03Z</time>
      </trkpt>
      <trkpt lat="40.629100" lon="-4.954400">
        <ele>1383.0</ele>
        <time>2018-09-01T14:26:04Z</time>
      </trkpt>
      <trkpt lat="40.629167" lon="-4.954350">
        <ele>1381.0</ele>
        <time>2018-09-01T14:26:05Z</time>
      </trkpt>
      <trkpt lat="40.629233" lon="-4.954233">
        <ele>1379.0</ele>
        <time>2018-09-01T14:26:06Z</time>
      </trkpt>
      <trkpt lat="40.629267" lon="-4.954067">
        <ele>1380.0</ele>
        <time>2018-09-01T14:26:07Z</time>
      </trkpt>
      <trkpt lat="40.629267" lon="-4.953900">
        <ele>1383.0</ele>
        <time>2018-09-01T14:26:08Z</time>
      </trkpt>
      <trkpt lat="40.629233" lon="-4.953767">
        <ele>1387.0</ele>
        <time>2018-09-01T14:26:09Z</time>
      </trkpt>
      <trkpt lat="40.629233" lon="-4.953667">
        <ele>1390.0</ele>
        <time>2018-09-01T14:26:10Z</time>
      </trkpt>
      <trkpt lat="40.629217" lon="-4.953583">
        <ele>1390.0</ele>
        <time>2018-09-01T14:26:11Z</time>
      </trkpt>
      <trkpt lat="40.629233" lon="-4.953500">
        <ele>1389.0</ele>
        <time>2018-09-01T14:26:12Z</time>
      </trkpt>
      <trkpt lat="40.629250" lon="-4.953417">
        <ele>1387.0</ele>
        <time>2018-09-01T14:26:13Z</time>
      </trkpt>
      <trkpt lat="40.629283" lon="-4.953317">
        <ele>1385.0</ele>
        <time>2018-09-01T14:26:14Z</time>
      </trkpt>
      <trkpt lat="40.629333" lon="-4.953233">
        <ele>1383.0</ele>
        <time>2018-09-01T14:26:15Z</time>
      </trkpt>
      <trkpt lat="40.629383" lon="-4.953183">
        <ele>1383.0</ele>
        <time>2018-09-01T14:26:16Z</time>
      </trkpt>
      <trkpt lat="40.629433" lon="-4.953167">
        <ele>1382.0</ele>
        <time>2018-09-01T14:26:17Z</time>
      </trkpt>
      <trkpt lat="40.629483" lon="-4.953200">
        <ele>1381.0</ele>
        <time>2018-09-01T14:26:18Z</time>
      </trkpt>
      <trkpt lat="40.629533" lon="-4.953233">
        <ele>1381.0</ele>
        <time>2018-09-01T14:26:19Z</time>
      </trkpt>
      <trkpt lat="40.629567" lon="-4.953267">
        <ele>1380.0</ele>
        <time>2018-09-01T14:26:20Z</time>
      </trkpt>
      <trkpt lat="40.629617" lon="-4.953283">
        <ele>1380.0</ele>
        <time>2018-09-01T14:26:21Z</time>
      </trkpt>
      <trkpt lat="40.629650" lon="-4.953300">
        <ele>1380.0</ele>
        <time>2018-09-01T14:26:22Z</time>
      </trkpt>
      <trkpt lat="40.629683" lon="-4.953283">
        <ele>1380.0</ele>
        <time>2018-09-01T14:26:23Z</time>
      </trkpt>
      <trkpt lat="40.629733" lon="-4.953267">
        <ele>1380.0</ele>
        <time>2018-09-01T14:26:24Z</time>
      </trkpt>
      <trkpt lat="40.629767" lon="-4.953267">
        <ele>1379.0</ele>
        <time>2018-09-01T14:26:25Z</time>
      </trkpt>
      <trkpt lat="40.629817" lon="-4.953250">
        <ele>1377.0</ele>
        <time>2018-09-01T14:26:26Z</time>
      </trkpt>
      <trkpt lat="40.629867" lon="-4.953233">
        <ele>1376.0</ele>
        <time>2018-09-01T14:26:27Z</time>
      </trkpt>
      <trkpt lat="40.629917" lon="-4.953217">
        <ele>1375.0</ele>
        <time>2018-09-01T14:26:28Z</time>
      </trkpt>
      <trkpt lat="40.629950" lon="-4.953183">
        <ele>1374.0</ele>
        <time>2018-09-01T14:26:29Z</time>
      </trkpt>
      <trkpt lat="40.630000" lon="-4.953150">
        <ele>1373.0</ele>
        <time>2018-09-01T14:26:30Z</time>
      </trkpt>
      <trkpt lat="40.630050" lon="-4.953117">
        <ele>1372.0</ele>
        <time>2018-09-01T14:26:31Z</time>
      </trkpt>
      <trkpt lat="40.630083" lon="-4.953117">
        <ele>1372.0</ele>
        <time>2018-09-01T14:26:32Z</time>
      </trkpt>
      <trkpt lat="40.630133" lon="-4.953167">
        <ele>1371.0</ele>
        <time>2018-09-01T14:26:33Z</time>
      </trkpt>
      <trkpt lat="40.630133" lon="-4.953267">
        <ele>1369.0</ele>
        <time>2018-09-01T14:26:34Z</time>
      </trkpt>
      <trkpt lat="40.630117" lon="-4.953400">
        <ele>1367.0</ele>
        <time>2018-09-01T14:26:35Z</time>
      </trkpt>
      <trkpt lat="40.630050" lon="-4.953533">
        <ele>1365.0</ele>
        <time>2018-09-01T14:26:36Z</time>
      </trkpt>
      <trkpt lat="40.629950" lon="-4.953633">
        <ele>1365.0</ele>
        <time>2018-09-01T14:26:37Z</time>
      </trkpt>
      <trkpt lat="40.629867" lon="-4.953717">
        <ele>1366.0</ele>
        <time>2018-09-01T14:26:38Z</time>
      </trkpt>
      <trkpt lat="40.629800" lon="-4.953800">
        <ele>1367.0</ele>
        <time>2018-09-01T14:26:39Z</time>
      </trkpt>
      <trkpt lat="40.629750" lon="-4.953883">
        <ele>1367.0</ele>
        <time>2018-09-01T14:26:40Z</time>
      </trkpt>
      <trkpt lat="40.629683" lon="-4.953967">
        <ele>1365.0</ele>
        <time>2018-09-01T14:26:41Z</time>
      </trkpt>
      <trkpt lat="40.629633" lon="-4.954067">
        <ele>1364.0</ele>
        <time>2018-09-01T14:26:42Z</time>
      </trkpt>
      <trkpt lat="40.629567" lon="-4.954183">
        <ele>1363.0</ele>
        <time>2018-09-01T14:26:43Z</time>
      </trkpt>
      <trkpt lat="40.629517" lon="-4.954283">
        <ele>1363.0</ele>
        <time>2018-09-01T14:26:44Z</time>
      </trkpt>
      <trkpt lat="40.629483" lon="-4.954383">
        <ele>1364.0</ele>
        <time>2018-09-01T14:26:45Z</time>
      </trkpt>
      <trkpt lat="40.629483" lon="-4.954467">
        <ele>1363.0</ele>
        <time>2018-09-01T14:26:46Z</time>
      </trkpt>
      <trkpt lat="40.629500" lon="-4.954533">
        <ele>1362.0</ele>
        <time>2018-09-01T14:26:47Z</time>
      </trkpt>
      <trkpt lat="40.629533" lon="-4.954567">
        <ele>1360.0</ele>
        <time>2018-09-01T14:26:48Z</time>
      </trkpt>
      <trkpt lat="40.629583" lon="-4.954583">
        <ele>1358.0</ele>
        <time>2018-09-01T14:26:49Z</time>
      </trkpt>
      <trkpt lat="40.629650" lon="-4.954550">
        <ele>1354.0</ele>
        <time>2018-09-01T14:26:50Z</time>
      </trkpt>
      <trkpt lat="40.629717" lon="-4.954467">
        <ele>1352.0</ele>
        <time>2018-09-01T14:26:51Z</time>
      </trkpt>
      <trkpt lat="40.629783" lon="-4.954367">
        <ele>1351.0</ele>
        <time>2018-09-01T14:26:52Z</time>
      </trkpt>
      <trkpt lat="40.629817" lon="-4.954250">
        <ele>1351.0</ele>
        <time>2018-09-01T14:26:53Z</time>
      </trkpt>
      <trkpt lat="40.629850" lon="-4.954150">
        <ele>1352.0</ele>
        <time>2018-09-01T14:26:54Z</time>
      </trkpt>
      <trkpt lat="40.629867" lon="-4.954067">
        <ele>1352.0</ele>
        <time>2018-09-01T14:26:55Z</time>
      </trkpt>
      <trkpt lat="40.629900" lon="-4.954000">
        <ele>1352.0</ele>
        <time>2018-09-01T14:26:56Z</time>
      </trkpt>
      <trkpt lat="40.629933" lon="-4.953967">
        <ele>1350.0</ele>
        <time>2018-09-01T14:26:57Z</time>
      </trkpt>
      <trkpt lat="40.629983" lon="-4.953933">
        <ele>1349.0</ele>
        <time>2018-09-01T14:26:58Z</time>
      </trkpt>
      <trkpt lat="40.630017" lon="-4.953900">
        <ele>1348.0</ele>
        <time>2018-09-01T14:26:59Z</time>
      </trkpt>
      <trkpt lat="40.630067" lon="-4.953883">
        <ele>1347.0</ele>
        <time>2018-09-01T14:27:00Z</time>
      </trkpt>
      <trkpt lat="40.630100" lon="-4.953867">
        <ele>1346.0</ele>
        <time>2018-09-01T14:27:01Z</time>
      </trkpt>
      <trkpt lat="40.630150" lon="-4.953867">
        <ele>1344.0</ele>
        <time>2018-09-01T14:27:02Z</time>
      </trkpt>
      <trkpt lat="40.630217" lon="-4.953900">
        <ele>1342.0</ele>
        <time>2018-09-01T14:27:03Z</time>
      </trkpt>
      <trkpt lat="40.630267" lon="-4.953917">
        <ele>1341.0</ele>
        <time>2018-09-01T14:27:04Z</time>
      </trkpt>
      <trkpt lat="40.630333" lon="-4.953950">
        <ele>1341.0</ele>
        <time>2018-09-01T14:27:05Z</time>
      </trkpt>
      <trkpt lat="40.630383" lon="-4.953983">
        <ele>1341.0</ele>
        <time>2018-09-01T14:27:06Z</time>
      </trkpt>
      <trkpt lat="40.630433" lon="-4.954000">
        <ele>1342.0</ele>
        <time>2018-09-01T14:27:07Z</time>
      </trkpt>
      <trkpt lat="40.630483" lon="-4.954033">
        <ele>1342.0</ele>
        <time>2018-09-01T14:27:08Z</time>
      </trkpt>
      <trkpt lat="40.630533" lon="-4.954067">
        <ele>1341.0</ele>
        <time>2018-09-01T14:27:09Z</time>
      </trkpt>
      <trkpt lat="40.630567" lon="-4.954117">
        <ele>1340.0</ele>
        <time>2018-09-01T14:27:10Z</time>
      </trkpt>
      <trkpt lat="40.630617" lon="-4.954150">
        <ele>1339.0</ele>
        <time>2018-09-01T14:27:11Z</time>
      </trkpt>
      <trkpt lat="40.630650" lon="-4.954200">
        <ele>1339.0</ele>
        <time>2018-09-01T14:27:12Z</time>
      </trkpt>
      <trkpt lat="40.630683" lon="-4.954217">
        <ele>1339.0</ele>
        <time>2018-09-01T14:27:13Z</time>
      </trkpt>
      <trkpt lat="40.630683" lon="-4.954250">
        <ele>1339.0</ele>
        <time>2018-09-01T14:27:14Z</time>
      </trkpt>
      <trkpt lat="40.630683" lon="-4.954250">
        <ele>1339.0</ele>
        <time>2018-09-01T14:27:15Z</time>
      </trkpt>
      <trkpt lat="40.630683" lon="-4.954267">
        <ele>1339.0</ele>
        <time>2018-09-01T14:27:16Z</time>
      </trkpt>
      <trkpt lat="40.630683" lon="-4.954267">
        <ele>1339.0</ele>
        <time>2018-09-01T14:27:17Z</time>
      </trkpt>
      <trkpt lat="40.630683" lon="-4.954267">
        <ele>1339.0</ele>
        <time>2018-09-01T14:27:18Z</time>
      </trkpt>
      <trkpt lat="40.630683" lon="-4.954283">
        <ele>1339.0</ele>
        <time>2018-09-01T14:27:19Z</time>
      </trkpt>
      <trkpt lat="40.630683" lon="-4.954283">
        <ele>1339.0</ele>
        <time>2018-09-01T14:27:20Z</time>
      </trkpt>
      <trkpt lat="40.630683" lon="-4.954283">
        <ele>1338.0</ele>
        <time>2018-09-01T14:27:21Z</time>
      </trkpt>
      <trkpt lat="40.630683" lon="-4.954283">
        <ele>1338.0</ele>
        <time>2018-09-01T14:27:22Z</time>
      </trkpt>
      <trkpt lat="40.630683" lon="-4.954283">
        <ele>1338.0</ele>
        <time>2018-09-01T14:27:23Z</time>
      </trkpt>
      <trkpt lat="40.630683" lon="-4.954283">
        <ele>1338.0</ele>
        <time>2018-09-01T14:27:24Z</time>
      </trkpt>
      <trkpt lat="40.630683" lon="-4.954283">
        <ele>1338.0</ele>
        <time>2018-09-01T14:27:25Z</time>
      </trkpt>
      <trkpt lat="40.630683" lon="-4.954283">
        <ele>1338.0</ele>
        <time>2018-09-01T14:27:26Z</time>
      </trkpt>
      <trkpt lat="40.630683" lon="-4.954283">
        <ele>1338.0</ele>
        <time>2018-09-01T14:27:27Z</time>
      </trkpt>
      <trkpt lat="40.630683" lon="-4.954283">
        <ele>1338.0</ele>
        <time>2018-09-01T14:27:28Z</time>
      </trkpt>
      <trkpt lat="40.630683" lon="-4.954283">
        <ele>1337.0</ele>
        <time>2018-09-01T14:27:29Z</time>
      </trkpt>
      <trkpt lat="40.630683" lon="-4.954283">
        <ele>1337.0</ele>
        <time>2018-09-01T14:27:30Z</time>
      </trkpt>
      <trkpt lat="40.630683" lon="-4.954283">
        <ele>1337.0</ele>
        <time>2018-09-01T14:27:31Z</time>
      </trkpt>
      <trkpt lat="40.630683" lon="-4.954283">
        <ele>1337.0</ele>
        <time>2018-09-01T14:27:32Z</time>
      </trkpt>
      <trkpt lat="40.630683" lon="-4.954283">
        <ele>1337.0</ele>
        <time>2018-09-01T14:27:33Z</time>
      </trkpt>
      <trkpt lat="40.630683" lon="-4.954283">
        <ele>1337.0</ele>
        <time>2018-09-01T14:27:34Z</time>
      </trkpt>
      <trkpt lat="40.630683" lon="-4.954283">
        <ele>1337.0</ele>
        <time>2018-09-01T14:27:35Z</time>
      </trkpt>
      <trkpt lat="40.630683" lon="-4.954283">
        <ele>1337.0</ele>
        <time>2018-09-01T14:27:36Z</time>
      </trkpt>
      <trkpt lat="40.630683" lon="-4.954283">
        <ele>1337.0</ele>
        <time>2018-09-01T14:27:37Z</time>
      </trkpt>
      <trkpt lat="40.630683" lon="-4.954283">
        <ele>1337.0</ele>
        <time>2018-09-01T14:27:38Z</time>
      </trkpt>
      <trkpt lat="40.630683" lon="-4.954283">
        <ele>1337.0</ele>
        <time>2018-09-01T14:27:39Z</time>
      </trkpt>
      <trkpt lat="40.630683" lon="-4.954283">
        <ele>1337.0</ele>
        <time>2018-09-01T14:27:40Z</time>
      </trkpt>
      <trkpt lat="40.630683" lon="-4.954283">
        <ele>1337.0</ele>
        <time>2018-09-01T14:27:41Z</time>
      </trkpt>
      <trkpt lat="40.630667" lon="-4.954283">
        <ele>1337.0</ele>
        <time>2018-09-01T14:27:42Z</time>
      </trkpt>
      <trkpt lat="40.630667" lon="-4.954283">
        <ele>1337.0</ele>
        <time>2018-09-01T14:27:43Z</time>
      </trkpt>
      <trkpt lat="40.630667" lon="-4.954283">
        <ele>1338.0</ele>
        <time>2018-09-01T14:27:44Z</time>
      </trkpt>
      <trkpt lat="40.630667" lon="-4.954283">
        <ele>1338.0</ele>
        <time>2018-09-01T14:27:45Z</time>
      </trkpt>
      <trkpt lat="40.630667" lon="-4.954283">
        <ele>1338.0</ele>
        <time>2018-09-01T14:27:46Z</time>
      </trkpt>
      <trkpt lat="40.630667" lon="-4.954283">
        <ele>1339.0</ele>
        <time>2018-09-01T14:27:47Z</time>
      </trkpt>
    </trkseg>
  </trk>
</gpx>
